<?xml version='1.0' encoding='UTF-8'?><gpx version="1.1" creator="JPX - https://github.com/jenetics/jpx" xmlns="http://www.topografix.com/GPX/1/1"><trk><trkseg><trkpt lat="43.89696803679384" lon="11.356593758291167"><ele>364.0</ele><time>2026-04-09T14:42:31Z</time></trkpt><trkpt lat="43.897041794519815" lon="11.356561954634165"><ele>364.0</ele><time>2026-04-09T14:42:32Z</time></trkpt><trkpt lat="43.8971242013058" lon="11.356538664883518"><ele>364.0</ele><time>2026-04-09T14:42:33Z</time></trkpt><trkpt lat="43.89722466742674" lon="11.356513163146277"><ele>364.0</ele><time>2026-04-09T14:42:34Z</time></trkpt><trkpt lat="43.89733250941143" lon="11.356478905976417"><ele>364.0</ele><time>2026-04-09T14:42:35Z</time></trkpt><trkpt lat="43.89744981418963" lon="11.356446703097603"><ele>364.0</ele><time>2026-04-09T14:42:36Z</time></trkpt><trkpt lat="43.89756763301721" lon="11.356431786272168"><ele>364.0</ele><time>2026-04-09T14:42:37Z</time></trkpt><trkpt lat="43.897685600291304" lon="11.35645645224746"><ele>364.0</ele><time>2026-04-09T14:42:38Z</time></trkpt><trkpt lat="43.89780066245391" lon="11.356491267807368"><ele>364.0</ele><time>2026-04-09T14:42:39Z</time></trkpt><trkpt lat="43.897921563709026" lon="11.356537413296476"><ele>362.4</ele><time>2026-04-09T14:42:40Z</time></trkpt><trkpt lat="43.89801766156738" lon="11.356620279234642"><ele>360.79999999999995</ele><time>2026-04-09T14:42:41Z</time></trkpt><trkpt lat="43.89809629030384" lon="11.356722553120068"><ele>359.20000000000005</ele><time>2026-04-09T14:42:42Z</time></trkpt><trkpt lat="43.89814719172331" lon="11.356848319750025"><ele>357.6</ele><time>2026-04-09T14:42:43Z</time></trkpt><trkpt lat="43.89817529481363" lon="11.357000023215162"><ele>356.0</ele><time>2026-04-09T14:42:44Z</time></trkpt><trkpt lat="43.898184507115175" lon="11.357181831273287"><ele>354.75</ele><time>2026-04-09T14:42:45Z</time></trkpt><trkpt lat="43.89817515498418" lon="11.357371589468112"><ele>353.5</ele><time>2026-04-09T14:42:46Z</time></trkpt><trkpt lat="43.898158930684126" lon="11.35756900496469"><ele>352.25</ele><time>2026-04-09T14:42:47Z</time></trkpt><trkpt lat="43.89813118248553" lon="11.357774743160826"><ele>351.0</ele><time>2026-04-09T14:42:48Z</time></trkpt><trkpt lat="43.8980933699893" lon="11.357963151915072"><ele>349.75</ele><time>2026-04-09T14:42:49Z</time></trkpt><trkpt lat="43.898035344541675" lon="11.358124554901728"><ele>348.5</ele><time>2026-04-09T14:42:50Z</time></trkpt><trkpt lat="43.89795699926083" lon="11.3582502786204"><ele>347.25</ele><time>2026-04-09T14:42:51Z</time></trkpt><trkpt lat="43.897858842264824" lon="11.358342509125634"><ele>346.0</ele><time>2026-04-09T14:42:52Z</time></trkpt><trkpt lat="43.897750522120724" lon="11.358409237750779"><ele>346.0</ele><time>2026-04-09T14:42:53Z</time></trkpt><trkpt lat="43.89762388693952" lon="11.358459674011554"><ele>346.0</ele><time>2026-04-09T14:42:54Z</time></trkpt><trkpt lat="43.89748480024487" lon="11.358493737647517"><ele>346.0</ele><time>2026-04-09T14:42:55Z</time></trkpt><trkpt lat="43.89734645332849" lon="11.358491544962975"><ele>346.0</ele><time>2026-04-09T14:42:56Z</time></trkpt><trkpt lat="43.8972318677757" lon="11.358467830808644"><ele>346.66666666666663</ele><time>2026-04-09T14:42:57Z</time></trkpt><trkpt lat="43.89712183353076" lon="11.358447922822137"><ele>347.3333333333333</ele><time>2026-04-09T14:42:58Z</time></trkpt><trkpt lat="43.89702723410868" lon="11.358446782113319"><ele>348.0</ele><time>2026-04-09T14:42:59Z</time></trkpt><trkpt lat="43.89694176722364" lon="11.358461759070929"><ele>348.6666666666667</ele><time>2026-04-09T14:43:00Z</time></trkpt><trkpt lat="43.8968753873403" lon="11.35849184677785"><ele>349.33333333333337</ele><time>2026-04-09T14:43:01Z</time></trkpt><trkpt lat="43.896825088560504" lon="11.358566057942864"><ele>350.0</ele><time>2026-04-09T14:43:02Z</time></trkpt><trkpt lat="43.89681270513865" lon="11.358668671450843"><ele>350.0</ele><time>2026-04-09T14:43:03Z</time></trkpt><trkpt lat="43.89684527042842" lon="11.358760101883055"><ele>350.0</ele><time>2026-04-09T14:43:04Z</time></trkpt><trkpt lat="43.89691305399131" lon="11.358849146774448"><ele>350.0</ele><time>2026-04-09T14:43:05Z</time></trkpt><trkpt lat="43.89700755485998" lon="11.358934556710247"><ele>350.0</ele><time>2026-04-09T14:43:06Z</time></trkpt><trkpt lat="43.89711746338893" lon="11.3590466243894"><ele>350.0</ele><time>2026-04-09T14:43:07Z</time></trkpt><trkpt lat="43.897235694783426" lon="11.359164651226362"><ele>348.25</ele><time>2026-04-09T14:43:08Z</time></trkpt><trkpt lat="43.89735258175059" lon="11.35927704003573"><ele>346.5</ele><time>2026-04-09T14:43:09Z</time></trkpt><trkpt lat="43.897466479682556" lon="11.359388807693998"><ele>344.75</ele><time>2026-04-09T14:43:10Z</time></trkpt><trkpt lat="43.897575156925235" lon="11.359499545539032"><ele>343.0</ele><time>2026-04-09T14:43:11Z</time></trkpt><trkpt lat="43.89768387828699" lon="11.359593993588142"><ele>342.0</ele><time>2026-04-09T14:43:12Z</time></trkpt><trkpt lat="43.89780285796921" lon="11.359670751708006"><ele>341.0</ele><time>2026-04-09T14:43:13Z</time></trkpt><trkpt lat="43.89792915200258" lon="11.359705350591321"><ele>340.0</ele><time>2026-04-09T14:43:14Z</time></trkpt><trkpt lat="43.898054559727704" lon="11.359696792628524"><ele>339.0</ele><time>2026-04-09T14:43:15Z</time></trkpt><trkpt lat="43.898193297516585" lon="11.359637870393412"><ele>339.0</ele><time>2026-04-09T14:43:16Z</time></trkpt><trkpt lat="43.89832668432508" lon="11.359553177793709"><ele>339.0</ele><time>2026-04-09T14:43:17Z</time></trkpt><trkpt lat="43.89846054965725" lon="11.359464629405712"><ele>339.0</ele><time>2026-04-09T14:43:18Z</time></trkpt><trkpt lat="43.89858497540174" lon="11.359377515455993"><ele>339.0</ele><time>2026-04-09T14:43:19Z</time></trkpt><trkpt lat="43.89870486740464" lon="11.359299954831647"><ele>337.5</ele><time>2026-04-09T14:43:20Z</time></trkpt><trkpt lat="43.898820265826714" lon="11.359213920520478"><ele>336.0</ele><time>2026-04-09T14:43:21Z</time></trkpt><trkpt lat="43.89892489880796" lon="11.359096139975554"><ele>334.5</ele><time>2026-04-09T14:43:22Z</time></trkpt><trkpt lat="43.899013765328554" lon="11.358933111181644"><ele>333.0</ele><time>2026-04-09T14:43:23Z</time></trkpt><trkpt lat="43.89909811210127" lon="11.35874860184401"><ele>333.0</ele><time>2026-04-09T14:43:24Z</time></trkpt><trkpt lat="43.899182993068045" lon="11.358551660681353"><ele>333.0</ele><time>2026-04-09T14:43:25Z</time></trkpt><trkpt lat="43.89927094198117" lon="11.358354861714124"><ele>333.0</ele><time>2026-04-09T14:43:26Z</time></trkpt><trkpt lat="43.89936710034635" lon="11.358163496756315"><ele>330.3333333333333</ele><time>2026-04-09T14:43:27Z</time></trkpt><trkpt lat="43.899460501813756" lon="11.357965993902843"><ele>327.66666666666663</ele><time>2026-04-09T14:43:28Z</time></trkpt><trkpt lat="43.8995484802147" lon="11.357777455786072"><ele>325.0</ele><time>2026-04-09T14:43:29Z</time></trkpt><trkpt lat="43.89963244309239" lon="11.357599191526736"><ele>325.0</ele><time>2026-04-09T14:43:30Z</time></trkpt><trkpt lat="43.89971729212987" lon="11.357434905096953"><ele>325.0</ele><time>2026-04-09T14:43:31Z</time></trkpt><trkpt lat="43.89981118879354" lon="11.357284232220048"><ele>325.0</ele><time>2026-04-09T14:43:32Z</time></trkpt><trkpt lat="43.899939673247054" lon="11.357194496541073"><ele>325.0</ele><time>2026-04-09T14:43:33Z</time></trkpt><trkpt lat="43.900073131357686" lon="11.357123027037328"><ele>326.0</ele><time>2026-04-09T14:43:34Z</time></trkpt><trkpt lat="43.900212859580144" lon="11.357072954014235"><ele>327.0</ele><time>2026-04-09T14:43:34.999Z</time></trkpt><trkpt lat="43.90035639917961" lon="11.357015867682069"><ele>328.0</ele><time>2026-04-09T14:43:35.999Z</time></trkpt><trkpt lat="43.90050759383041" lon="11.356972004160017"><ele>329.0</ele><time>2026-04-09T14:43:36.999Z</time></trkpt><trkpt lat="43.900647646281016" lon="11.356934135980076"><ele>329.0</ele><time>2026-04-09T14:43:37.999Z</time></trkpt><trkpt lat="43.90077799794511" lon="11.356882086560196"><ele>329.0</ele><time>2026-04-09T14:43:38.999Z</time></trkpt><trkpt lat="43.900895048798986" lon="11.356794526812394"><ele>329.0</ele><time>2026-04-09T14:43:39.999Z</time></trkpt><trkpt lat="43.90099266834801" lon="11.356682573494915"><ele>329.0</ele><time>2026-04-09T14:43:40.999Z</time></trkpt><trkpt lat="43.90109917096295" lon="11.356570960440129"><ele>326.25</ele><time>2026-04-09T14:43:41.999Z</time></trkpt><trkpt lat="43.90123354391108" lon="11.356523320788524"><ele>323.5</ele><time>2026-04-09T14:43:42.999Z</time></trkpt><trkpt lat="43.901368550638345" lon="11.356524582396291"><ele>320.75</ele><time>2026-04-09T14:43:43.999Z</time></trkpt><trkpt lat="43.90151682944738" lon="11.356514582433492"><ele>318.0</ele><time>2026-04-09T14:43:44.999Z</time></trkpt><trkpt lat="43.90166734367691" lon="11.356504216927467"><ele>315.5</ele><time>2026-04-09T14:43:45.999Z</time></trkpt><trkpt lat="43.90181440840305" lon="11.356472146118465"><ele>313.0</ele><time>2026-04-09T14:43:46.999Z</time></trkpt><trkpt lat="43.901952223577354" lon="11.35643265242439"><ele>310.5</ele><time>2026-04-09T14:43:47.999Z</time></trkpt><trkpt lat="43.90208004758529" lon="11.356396274949342"><ele>308.0</ele><time>2026-04-09T14:43:49Z</time></trkpt><trkpt lat="43.90221114950857" lon="11.356359605525837"><ele>309.25</ele><time>2026-04-09T14:43:50Z</time></trkpt><trkpt lat="43.90234204264265" lon="11.356323154697106"><ele>310.5</ele><time>2026-04-09T14:43:51Z</time></trkpt><trkpt lat="43.90247643982138" lon="11.35629316805624"><ele>311.75</ele><time>2026-04-09T14:43:52Z</time></trkpt><trkpt lat="43.9026123506179" lon="11.356283081491384"><ele>313.0</ele><time>2026-04-09T14:43:53Z</time></trkpt><trkpt lat="43.902744077952306" lon="11.356307521388535"><ele>313.0</ele><time>2026-04-09T14:43:54Z</time></trkpt><trkpt lat="43.902869664849284" lon="11.356360233386951"><ele>313.0</ele><time>2026-04-09T14:43:55Z</time></trkpt><trkpt lat="43.90298863563429" lon="11.356420220460086"><ele>313.0</ele><time>2026-04-09T14:43:56Z</time></trkpt><trkpt lat="43.903103935579864" lon="11.356479437970679"><ele>313.0</ele><time>2026-04-09T14:43:57Z</time></trkpt><trkpt lat="43.90322112487016" lon="11.3565596341688"><ele>311.0</ele><time>2026-04-09T14:43:58Z</time></trkpt><trkpt lat="43.903323421244586" lon="11.356647078907034"><ele>309.0</ele><time>2026-04-09T14:43:59Z</time></trkpt><trkpt lat="43.903425671561195" lon="11.356733541459311"><ele>307.0</ele><time>2026-04-09T14:44:00Z</time></trkpt><trkpt lat="43.90353016039061" lon="11.356812354205001"><ele>305.0</ele><time>2026-04-09T14:44:01Z</time></trkpt><trkpt lat="43.903640068250695" lon="11.35688051951819"><ele>304.0</ele><time>2026-04-09T14:44:02Z</time></trkpt><trkpt lat="43.903757307793" lon="11.356918159557486"><ele>303.0</ele><time>2026-04-09T14:44:03Z</time></trkpt><trkpt lat="43.90388507649384" lon="11.356930917965517"><ele>302.0</ele><time>2026-04-09T14:44:04Z</time></trkpt><trkpt lat="43.90401264152465" lon="11.35692159432461"><ele>301.0</ele><time>2026-04-09T14:44:05Z</time></trkpt><trkpt lat="43.904138496448894" lon="11.356881693834717"><ele>300.5</ele><time>2026-04-09T14:44:06Z</time></trkpt><trkpt lat="43.904263632111125" lon="11.356817042537783"><ele>300.0</ele><time>2026-04-09T14:44:07Z</time></trkpt><trkpt lat="43.90439049398686" lon="11.356724977430515"><ele>299.5</ele><time>2026-04-09T14:44:08Z</time></trkpt><trkpt lat="43.904520224317416" lon="11.35662919609014"><ele>299.0</ele><time>2026-04-09T14:44:09Z</time></trkpt><trkpt lat="43.90464015144061" lon="11.356545967456263"><ele>299.0</ele><time>2026-04-09T14:44:10Z</time></trkpt><trkpt lat="43.90475441330863" lon="11.356466545636627"><ele>299.0</ele><time>2026-04-09T14:44:11Z</time></trkpt><trkpt lat="43.904854575559845" lon="11.356364416950596"><ele>299.0</ele><time>2026-04-09T14:44:12Z</time></trkpt><trkpt lat="43.904928346412206" lon="11.356225286653903"><ele>299.0</ele><time>2026-04-09T14:44:13Z</time></trkpt><trkpt lat="43.904995192074495" lon="11.356046324018907"><ele>299.0</ele><time>2026-04-09T14:44:14Z</time></trkpt><trkpt lat="43.90505290559953" lon="11.355852794479574"><ele>299.0</ele><time>2026-04-09T14:44:15Z</time></trkpt><trkpt lat="43.90512381767462" lon="11.355654285325834"><ele>299.0</ele><time>2026-04-09T14:44:16Z</time></trkpt><trkpt lat="43.905207766680874" lon="11.35545272275416"><ele>297.0</ele><time>2026-04-09T14:44:17Z</time></trkpt><trkpt lat="43.90528041859392" lon="11.355245279547766"><ele>295.0</ele><time>2026-04-09T14:44:18Z</time></trkpt><trkpt lat="43.90534222882007" lon="11.355048776234495"><ele>293.0</ele><time>2026-04-09T14:44:19Z</time></trkpt><trkpt lat="43.90539416423414" lon="11.35485397124615"><ele>293.0</ele><time>2026-04-09T14:44:20Z</time></trkpt><trkpt lat="43.90544559786195" lon="11.3546633316877"><ele>293.0</ele><time>2026-04-09T14:44:21Z</time></trkpt><trkpt lat="43.90550149201927" lon="11.354483906599711"><ele>293.0</ele><time>2026-04-09T14:44:22Z</time></trkpt><trkpt lat="43.90556497610159" lon="11.354305535518542"><ele>293.0</ele><time>2026-04-09T14:44:23Z</time></trkpt><trkpt lat="43.90564315307418" lon="11.354134861165642"><ele>293.0</ele><time>2026-04-09T14:44:24Z</time></trkpt><trkpt lat="43.905732675965666" lon="11.353975983960211"><ele>293.0</ele><time>2026-04-09T14:44:25Z</time></trkpt><trkpt lat="43.90583921141575" lon="11.353837515037835"><ele>293.0</ele><time>2026-04-09T14:44:26Z</time></trkpt><trkpt lat="43.90596286732061" lon="11.353726528214795"><ele>293.0</ele><time>2026-04-09T14:44:27Z</time></trkpt><trkpt lat="43.906099500473054" lon="11.353626526515452"><ele>291.0</ele><time>2026-04-09T14:44:28Z</time></trkpt><trkpt lat="43.906248513150715" lon="11.353547565825737"><ele>289.0</ele><time>2026-04-09T14:44:29Z</time></trkpt><trkpt lat="43.906402445952885" lon="11.353494230277198"><ele>287.0</ele><time>2026-04-09T14:44:30Z</time></trkpt><trkpt lat="43.90655424393318" lon="11.353467253726466"><ele>287.0</ele><time>2026-04-09T14:44:31Z</time></trkpt><trkpt lat="43.906710671565676" lon="11.353455070420415"><ele>287.0</ele><time>2026-04-09T14:44:32Z</time></trkpt><trkpt lat="43.906866391639255" lon="11.35345538084354"><ele>287.0</ele><time>2026-04-09T14:44:33Z</time></trkpt><trkpt lat="43.90702850724865" lon="11.353457026749911"><ele>287.0</ele><time>2026-04-09T14:44:34Z</time></trkpt><trkpt lat="43.90719695484558" lon="11.353458125366615"><ele>287.0</ele><time>2026-04-09T14:44:35Z</time></trkpt><trkpt lat="43.90736669183466" lon="11.353452930275637"><ele>287.0</ele><time>2026-04-09T14:44:36Z</time></trkpt><trkpt lat="43.90753864203704" lon="11.35345622605004"><ele>285.6666666666667</ele><time>2026-04-09T14:44:37Z</time></trkpt><trkpt lat="43.90771087222116" lon="11.35345894969134"><ele>284.3333333333333</ele><time>2026-04-09T14:44:38Z</time></trkpt><trkpt lat="43.90786770716255" lon="11.353460378877086"><ele>283.0</ele><time>2026-04-09T14:44:39Z</time></trkpt><trkpt lat="43.908021398585724" lon="11.353466372492282"><ele>283.0</ele><time>2026-04-09T14:44:40Z</time></trkpt><trkpt lat="43.90817674282973" lon="11.353458791809185"><ele>283.0</ele><time>2026-04-09T14:44:41Z</time></trkpt><trkpt lat="43.90833486177542" lon="11.35345816290003"><ele>283.0</ele><time>2026-04-09T14:44:42Z</time></trkpt><trkpt lat="43.90850039433066" lon="11.353457439979074"><ele>282.66666666666663</ele><time>2026-04-09T14:44:43Z</time></trkpt><trkpt lat="43.908666937669615" lon="11.353456015931535"><ele>282.3333333333333</ele><time>2026-04-09T14:44:44Z</time></trkpt><trkpt lat="43.90883537429166" lon="11.353457036009656"><ele>282.0</ele><time>2026-04-09T14:44:45Z</time></trkpt><trkpt lat="43.90900657579769" lon="11.353460659984005"><ele>282.0</ele><time>2026-04-09T14:44:46Z</time></trkpt><trkpt lat="43.90918340761486" lon="11.353465340000566"><ele>282.0</ele><time>2026-04-09T14:44:47Z</time></trkpt><trkpt lat="43.909360382040546" lon="11.353478038275474"><ele>282.0</ele><time>2026-04-09T14:44:48Z</time></trkpt><trkpt lat="43.90953759017123" lon="11.353491700643294"><ele>285.3333333333333</ele><time>2026-04-09T14:44:49Z</time></trkpt><trkpt lat="43.90971511209718" lon="11.353525480460974"><ele>288.66666666666663</ele><time>2026-04-09T14:44:50Z</time></trkpt><trkpt lat="43.909889723128366" lon="11.353581930858532"><ele>292.0</ele><time>2026-04-09T14:44:51Z</time></trkpt><trkpt lat="43.91006418199232" lon="11.353658501638149"><ele>289.66666666666663</ele><time>2026-04-09T14:44:52Z</time></trkpt><trkpt lat="43.91023365982645" lon="11.353743641729507"><ele>287.3333333333333</ele><time>2026-04-09T14:44:53Z</time></trkpt><trkpt lat="43.9104011534106" lon="11.353826404117092"><ele>285.0</ele><time>2026-04-09T14:44:54Z</time></trkpt><trkpt lat="43.91056788014185" lon="11.353887611827947"><ele>281.6666666666667</ele><time>2026-04-09T14:44:55Z</time></trkpt><trkpt lat="43.91073255218867" lon="11.353920241916269"><ele>278.33333333333337</ele><time>2026-04-09T14:44:56Z</time></trkpt><trkpt lat="43.91089792985557" lon="11.353927581654194"><ele>275.0</ele><time>2026-04-09T14:44:57Z</time></trkpt><trkpt lat="43.9110669778507" lon="11.353897379353588"><ele>275.6666666666667</ele><time>2026-04-09T14:44:58Z</time></trkpt><trkpt lat="43.911237342070756" lon="11.353844955554916"><ele>276.3333333333333</ele><time>2026-04-09T14:44:59Z</time></trkpt><trkpt lat="43.91140169162831" lon="11.353769457176043"><ele>277.0</ele><time>2026-04-09T14:45:00Z</time></trkpt><trkpt lat="43.911570341013174" lon="11.353682148806204"><ele>277.0</ele><time>2026-04-09T14:45:01Z</time></trkpt><trkpt lat="43.911739895697565" lon="11.353599080321057"><ele>277.0</ele><time>2026-04-09T14:45:02Z</time></trkpt><trkpt lat="43.91190381593537" lon="11.353529193392689"><ele>277.0</ele><time>2026-04-09T14:45:03Z</time></trkpt><trkpt lat="43.91207393720009" lon="11.353451873189659"><ele>277.3333333333333</ele><time>2026-04-09T14:45:04Z</time></trkpt><trkpt lat="43.91223476291444" lon="11.353378397117128"><ele>277.6666666666667</ele><time>2026-04-09T14:45:05Z</time></trkpt><trkpt lat="43.912401600006476" lon="11.35330378141346"><ele>278.0</ele><time>2026-04-09T14:45:06Z</time></trkpt><trkpt lat="43.912562724010115" lon="11.353250430267192"><ele>276.0</ele><time>2026-04-09T14:45:07Z</time></trkpt><trkpt lat="43.91272907282257" lon="11.353219193191318"><ele>274.0</ele><time>2026-04-09T14:45:08Z</time></trkpt><trkpt lat="43.91290437308855" lon="11.353227185112225"><ele>272.0</ele><time>2026-04-09T14:45:09Z</time></trkpt><trkpt lat="43.91307240291673" lon="11.353259149113098"><ele>272.0</ele><time>2026-04-09T14:45:10Z</time></trkpt><trkpt lat="43.91323696938553" lon="11.353288424836226"><ele>272.0</ele><time>2026-04-09T14:45:11Z</time></trkpt><trkpt lat="43.913391291692506" lon="11.353320071579356"><ele>272.0</ele><time>2026-04-09T14:45:12Z</time></trkpt><trkpt lat="43.91354383329939" lon="11.353342839173552"><ele>273.0</ele><time>2026-04-09T14:45:13Z</time></trkpt><trkpt lat="43.913692064147995" lon="11.353332380594226"><ele>274.0</ele><time>2026-04-09T14:45:14Z</time></trkpt><trkpt lat="43.91384136281004" lon="11.353281212043898"><ele>275.0</ele><time>2026-04-09T14:45:15Z</time></trkpt><trkpt lat="43.913995349788685" lon="11.353218421544815"><ele>275.0</ele><time>2026-04-09T14:45:16Z</time></trkpt><trkpt lat="43.91415905012212" lon="11.353172626523397"><ele>275.0</ele><time>2026-04-09T14:45:17Z</time></trkpt><trkpt lat="43.914324784746" lon="11.353188152590139"><ele>275.0</ele><time>2026-04-09T14:45:18Z</time></trkpt><trkpt lat="43.91448588173177" lon="11.353240015615954"><ele>274.0</ele><time>2026-04-09T14:45:19Z</time></trkpt><trkpt lat="43.914623571252875" lon="11.353284855731832"><ele>273.0</ele><time>2026-04-09T14:45:20Z</time></trkpt><trkpt lat="43.914760852220425" lon="11.353278463903532"><ele>272.0</ele><time>2026-04-09T14:45:21.001Z</time></trkpt><trkpt lat="43.914905968301355" lon="11.353222526524213"><ele>271.0</ele><time>2026-04-09T14:45:22.001Z</time></trkpt><trkpt lat="43.915063220633876" lon="11.353159269091558"><ele>271.66666666666663</ele><time>2026-04-09T14:45:23.001Z</time></trkpt><trkpt lat="43.91521442729029" lon="11.35309920220366"><ele>272.3333333333333</ele><time>2026-04-09T14:45:24.001Z</time></trkpt><trkpt lat="43.91536249980219" lon="11.353035566933583"><ele>273.0</ele><time>2026-04-09T14:45:25.001Z</time></trkpt><trkpt lat="43.91550638710706" lon="11.352973899085756"><ele>273.0</ele><time>2026-04-09T14:45:26.001Z</time></trkpt><trkpt lat="43.9156452208716" lon="11.352913406075727"><ele>273.0</ele><time>2026-04-09T14:45:27.001Z</time></trkpt><trkpt lat="43.9157769030886" lon="11.352855231948634"><ele>273.0</ele><time>2026-04-09T14:45:28.001Z</time></trkpt><trkpt lat="43.91590552277189" lon="11.352793118794494"><ele>273.0</ele><time>2026-04-09T14:45:29.001Z</time></trkpt><trkpt lat="43.91603338325552" lon="11.35273974768211"><ele>274.75</ele><time>2026-04-09T14:45:30.001Z</time></trkpt><trkpt lat="43.91615842656916" lon="11.352690529898227"><ele>276.5</ele><time>2026-04-09T14:45:31.001Z</time></trkpt><trkpt lat="43.91628629838452" lon="11.352653309425198"><ele>278.25</ele><time>2026-04-09T14:45:32.001Z</time></trkpt><trkpt lat="43.91642050921027" lon="11.352654217853175"><ele>280.0</ele><time>2026-04-09T14:45:33.001Z</time></trkpt><trkpt lat="43.916551738002035" lon="11.352709322634746"><ele>280.0</ele><time>2026-04-09T14:45:34.001Z</time></trkpt><trkpt lat="43.91668192649738" lon="11.352795314401085"><ele>280.0</ele><time>2026-04-09T14:45:35.001Z</time></trkpt><trkpt lat="43.916808507868225" lon="11.352900894775951"><ele>280.0</ele><time>2026-04-09T14:45:36.001Z</time></trkpt><trkpt lat="43.91694202994029" lon="11.353022583890594"><ele>277.25</ele><time>2026-04-09T14:45:37.001Z</time></trkpt><trkpt lat="43.917067561291454" lon="11.3531304291792"><ele>274.5</ele><time>2026-04-09T14:45:38.001Z</time></trkpt><trkpt lat="43.91718577401405" lon="11.353219907003798"><ele>271.75</ele><time>2026-04-09T14:45:39.001Z</time></trkpt><trkpt lat="43.91731877865695" lon="11.353275524773224"><ele>269.0</ele><time>2026-04-09T14:45:40.001Z</time></trkpt><trkpt lat="43.91746868614899" lon="11.353291256237704"><ele>267.5</ele><time>2026-04-09T14:45:41.001Z</time></trkpt><trkpt lat="43.91761328047826" lon="11.353292962796669"><ele>266.0</ele><time>2026-04-09T14:45:42.001Z</time></trkpt><trkpt lat="43.91774945146536" lon="11.353295928025458"><ele>264.5</ele><time>2026-04-09T14:45:43.001Z</time></trkpt><trkpt lat="43.91788361713789" lon="11.353307040997372"><ele>263.0</ele><time>2026-04-09T14:45:44.001Z</time></trkpt><trkpt lat="43.91801641948808" lon="11.35332128822934"><ele>263.0</ele><time>2026-04-09T14:45:45.001Z</time></trkpt><trkpt lat="43.918160560539086" lon="11.353335434912003"><ele>263.0</ele><time>2026-04-09T14:45:46.001Z</time></trkpt><trkpt lat="43.9183128718226" lon="11.353347085692702"><ele>263.0</ele><time>2026-04-09T14:45:47.001Z</time></trkpt><trkpt lat="43.91846506179732" lon="11.353361019201147"><ele>262.6666666666667</ele><time>2026-04-09T14:45:48.001Z</time></trkpt><trkpt lat="43.91861845577482" lon="11.353377718015079"><ele>262.3333333333333</ele><time>2026-04-09T14:45:49.001Z</time></trkpt><trkpt lat="43.91877021507805" lon="11.353393599284134"><ele>262.0</ele><time>2026-04-09T14:45:50.001Z</time></trkpt><trkpt lat="43.918921095786594" lon="11.353404254535915"><ele>262.0</ele><time>2026-04-09T14:45:51.001Z</time></trkpt><trkpt lat="43.91906269261046" lon="11.353411303775244"><ele>262.0</ele><time>2026-04-09T14:45:52.001Z</time></trkpt><trkpt lat="43.919194371747274" lon="11.353407048061943"><ele>262.0</ele><time>2026-04-09T14:45:53.001Z</time></trkpt><trkpt lat="43.919321361975086" lon="11.353362671210679"><ele>262.0</ele><time>2026-04-09T14:45:54.001Z</time></trkpt><trkpt lat="43.91943362808444" lon="11.353295008703084"><ele>262.25</ele><time>2026-04-09T14:45:55.001Z</time></trkpt><trkpt lat="43.91953101452481" lon="11.353188784850962"><ele>262.5</ele><time>2026-04-09T14:45:56.001Z</time></trkpt><trkpt lat="43.919616136501965" lon="11.353048668753683"><ele>262.75</ele><time>2026-04-09T14:45:57.001Z</time></trkpt><trkpt lat="43.91970288205581" lon="11.352893083203272"><ele>263.0</ele><time>2026-04-09T14:45:58.001Z</time></trkpt><trkpt lat="43.919789426405224" lon="11.352723323789636"><ele>263.0</ele><time>2026-04-09T14:45:59.001Z</time></trkpt><trkpt lat="43.91987687637636" lon="11.352541769802555"><ele>263.0</ele><time>2026-04-09T14:46:00.001Z</time></trkpt><trkpt lat="43.91996548893005" lon="11.352339281658688"><ele>263.0</ele><time>2026-04-09T14:46:01.001Z</time></trkpt><trkpt lat="43.920039537650055" lon="11.352122742425319"><ele>265.33333333333337</ele><time>2026-04-09T14:46:02.001Z</time></trkpt><trkpt lat="43.92010513392858" lon="11.351896175518448"><ele>267.6666666666667</ele><time>2026-04-09T14:46:03.001Z</time></trkpt><trkpt lat="43.92016512994426" lon="11.351676936005942"><ele>270.0</ele><time>2026-04-09T14:46:04.001Z</time></trkpt><trkpt lat="43.92022461794148" lon="11.351466963520123"><ele>266.25</ele><time>2026-04-09T14:46:05Z</time></trkpt><trkpt lat="43.92028412047248" lon="11.35127302852484"><ele>262.5</ele><time>2026-04-09T14:46:06Z</time></trkpt><trkpt lat="43.92033673087197" lon="11.351088311282764"><ele>258.75</ele><time>2026-04-09T14:46:07Z</time></trkpt><trkpt lat="43.92039659529546" lon="11.350909276740966"><ele>255.0</ele><time>2026-04-09T14:46:08Z</time></trkpt><trkpt lat="43.92049938188477" lon="11.350756899936753"><ele>255.0</ele><time>2026-04-09T14:46:09Z</time></trkpt><trkpt lat="43.92061070091338" lon="11.35061363942387"><ele>255.0</ele><time>2026-04-09T14:46:10Z</time></trkpt><trkpt lat="43.9207309853794" lon="11.35049328709385"><ele>255.0</ele><time>2026-04-09T14:46:11Z</time></trkpt><trkpt lat="43.92086228021989" lon="11.35040777321422"><ele>255.0</ele><time>2026-04-09T14:46:12Z</time></trkpt><trkpt lat="43.92099209120459" lon="11.35032768289447"><ele>254.5</ele><time>2026-04-09T14:46:13Z</time></trkpt><trkpt lat="43.9211134624975" lon="11.350253086376446"><ele>254.0</ele><time>2026-04-09T14:46:14Z</time></trkpt><trkpt lat="43.92122798433233" lon="11.350180970116288"><ele>253.5</ele><time>2026-04-09T14:46:15Z</time></trkpt><trkpt lat="43.92133420779023" lon="11.350110846964032"><ele>253.0</ele><time>2026-04-09T14:46:16.001Z</time></trkpt><trkpt lat="43.921433451690184" lon="11.35004782172075"><ele>253.0</ele><time>2026-04-09T14:46:17.001Z</time></trkpt><trkpt lat="43.92153331341803" lon="11.34998879080548"><ele>253.0</ele><time>2026-04-09T14:46:18.001Z</time></trkpt><trkpt lat="43.92163038761115" lon="11.34992830002879"><ele>253.0</ele><time>2026-04-09T14:46:19.001Z</time></trkpt><trkpt lat="43.92172564291039" lon="11.349866997690668"><ele>253.0</ele><time>2026-04-09T14:46:20.001Z</time></trkpt><trkpt lat="43.921829672208716" lon="11.349812962815836"><ele>253.0</ele><time>2026-04-09T14:46:21.001Z</time></trkpt><trkpt lat="43.92193045590574" lon="11.349785808769267"><ele>253.0</ele><time>2026-04-09T14:46:22.001Z</time></trkpt><trkpt lat="43.92204074359687" lon="11.349777202014222"><ele>253.0</ele><time>2026-04-09T14:46:23.001Z</time></trkpt><trkpt lat="43.922147663831474" lon="11.349783683502089"><ele>253.0</ele><time>2026-04-09T14:46:24.001Z</time></trkpt><trkpt lat="43.92226427615632" lon="11.349816815195997"><ele>253.0</ele><time>2026-04-09T14:46:25.001Z</time></trkpt><trkpt lat="43.92238361052126" lon="11.34985545384139"><ele>253.0</ele><time>2026-04-09T14:46:26.001Z</time></trkpt><trkpt lat="43.92250738825632" lon="11.349909531436841"><ele>253.0</ele><time>2026-04-09T14:46:27.001Z</time></trkpt><trkpt lat="43.922636602948174" lon="11.349940655772219"><ele>253.0</ele><time>2026-04-09T14:46:28.001Z</time></trkpt><trkpt lat="43.92276210130152" lon="11.349946154775658"><ele>253.0</ele><time>2026-04-09T14:46:29.001Z</time></trkpt><trkpt lat="43.92288743469916" lon="11.34990493508268"><ele>252.25</ele><time>2026-04-09T14:46:30.001Z</time></trkpt><trkpt lat="43.923016824234644" lon="11.349835486194978"><ele>251.5</ele><time>2026-04-09T14:46:31.001Z</time></trkpt><trkpt lat="43.923145661111036" lon="11.349762734756151"><ele>250.75</ele><time>2026-04-09T14:46:32.001Z</time></trkpt><trkpt lat="43.9232653388757" lon="11.349694230873261"><ele>250.0</ele><time>2026-04-09T14:46:33.001Z</time></trkpt><trkpt lat="43.923378382258335" lon="11.349610750731307"><ele>248.6</ele><time>2026-04-09T14:46:34.001Z</time></trkpt><trkpt lat="43.92348454473843" lon="11.349512319764711"><ele>247.2</ele><time>2026-04-09T14:46:35.001Z</time></trkpt><trkpt lat="43.92357442086179" lon="11.349417960212563"><ele>245.8</ele><time>2026-04-09T14:46:36.001Z</time></trkpt><trkpt lat="43.92364742746341" lon="11.349320408341093"><ele>244.4</ele><time>2026-04-09T14:46:37.001Z</time></trkpt><trkpt lat="43.92371101671558" lon="11.349227610213765"><ele>243.0</ele><time>2026-04-09T14:46:38.001Z</time></trkpt><trkpt lat="43.92377687154534" lon="11.349142220891073"><ele>243.0</ele><time>2026-04-09T14:46:39.001Z</time></trkpt><trkpt lat="43.923853100219176" lon="11.349079141297754"><ele>243.0</ele><time>2026-04-09T14:46:40.001Z</time></trkpt><trkpt lat="43.923944234543924" lon="11.349074846228625"><ele>243.0</ele><time>2026-04-09T14:46:41.001Z</time></trkpt><trkpt lat="43.92402287454773" lon="11.349129651020762"><ele>243.0</ele><time>2026-04-09T14:46:42.001Z</time></trkpt><trkpt lat="43.924082858546264" lon="11.349256845076301"><ele>243.0</ele><time>2026-04-09T14:46:43.001Z</time></trkpt><trkpt lat="43.924154907952946" lon="11.349356940265347"><ele>243.0</ele><time>2026-04-09T14:46:44.001Z</time></trkpt><trkpt lat="43.924222456645225" lon="11.349460748859798"><ele>243.0</ele><time>2026-04-09T14:46:45.001Z</time></trkpt><trkpt lat="43.9243045219314" lon="11.349572177665907"><ele>243.0</ele><time>2026-04-09T14:46:46.001Z</time></trkpt><trkpt lat="43.92439939326557" lon="11.349705393936022"><ele>243.0</ele><time>2026-04-09T14:46:47.001Z</time></trkpt><trkpt lat="43.92449927650696" lon="11.349851355152541"><ele>243.0</ele><time>2026-04-09T14:46:48.001Z</time></trkpt><trkpt lat="43.9246043432946" lon="11.350000613466918"><ele>243.0</ele><time>2026-04-09T14:46:49.001Z</time></trkpt><trkpt lat="43.924719232192146" lon="11.350158759053834"><ele>243.0</ele><time>2026-04-09T14:46:50.001Z</time></trkpt><trkpt lat="43.92484096443849" lon="11.350309934204796"><ele>243.0</ele><time>2026-04-09T14:46:51.001Z</time></trkpt><trkpt lat="43.92497637818802" lon="11.350443754035739"><ele>243.0</ele><time>2026-04-09T14:46:52.001Z</time></trkpt><trkpt lat="43.925120543651836" lon="11.350572364633887"><ele>243.0</ele><time>2026-04-09T14:46:53.001Z</time></trkpt><trkpt lat="43.925257682269496" lon="11.350693597221445"><ele>242.33333333333331</ele><time>2026-04-09T14:46:54.001Z</time></trkpt><trkpt lat="43.92538903959498" lon="11.350816720375725"><ele>241.66666666666666</ele><time>2026-04-09T14:46:55.001Z</time></trkpt><trkpt lat="43.925515491260796" lon="11.350929123127266"><ele>241.0</ele><time>2026-04-09T14:46:56.001Z</time></trkpt><trkpt lat="43.9256418821572" lon="11.35103965855233"><ele>241.0</ele><time>2026-04-09T14:46:57.001Z</time></trkpt><trkpt lat="43.92575879026482" lon="11.35114507224368"><ele>241.0</ele><time>2026-04-09T14:46:58.001Z</time></trkpt><trkpt lat="43.92588830908047" lon="11.35124336094741"><ele>241.0</ele><time>2026-04-09T14:46:59.001Z</time></trkpt><trkpt lat="43.926030610205395" lon="11.351290593642144"><ele>241.0</ele><time>2026-04-09T14:47:00.001Z</time></trkpt><trkpt lat="43.92618548506193" lon="11.351313097941897"><ele>241.0</ele><time>2026-04-09T14:47:01.001Z</time></trkpt><trkpt lat="43.92634123488094" lon="11.351308761385782"><ele>241.0</ele><time>2026-04-09T14:47:02.001Z</time></trkpt><trkpt lat="43.926495729953274" lon="11.351299543544732"><ele>241.0</ele><time>2026-04-09T14:47:03.001Z</time></trkpt><trkpt lat="43.926655684530395" lon="11.35128675607869"><ele>241.0</ele><time>2026-04-09T14:47:04.001Z</time></trkpt><trkpt lat="43.92681024003926" lon="11.351275787170461"><ele>241.0</ele><time>2026-04-09T14:47:05.001Z</time></trkpt><trkpt lat="43.926968731106754" lon="11.351265016245122"><ele>241.0</ele><time>2026-04-09T14:47:06.001Z</time></trkpt><trkpt lat="43.92712732644526" lon="11.351253311292947"><ele>241.0</ele><time>2026-04-09T14:47:07.001Z</time></trkpt><trkpt lat="43.92728723893748" lon="11.351239951222764"><ele>241.0</ele><time>2026-04-09T14:47:08.001Z</time></trkpt><trkpt lat="43.92744504973047" lon="11.35123422297736"><ele>241.0</ele><time>2026-04-09T14:47:09.001Z</time></trkpt><trkpt lat="43.927602066698704" lon="11.351224280721336"><ele>240.0</ele><time>2026-04-09T14:47:10.001Z</time></trkpt><trkpt lat="43.92775572376845" lon="11.351194902224599"><ele>239.0</ele><time>2026-04-09T14:47:11.001Z</time></trkpt><trkpt lat="43.92790971677249" lon="11.351136181616651"><ele>238.0</ele><time>2026-04-09T14:47:12.001Z</time></trkpt><trkpt lat="43.928060565948265" lon="11.351059988888275"><ele>238.0</ele><time>2026-04-09T14:47:13.001Z</time></trkpt><trkpt lat="43.928211231652156" lon="11.350980203722814"><ele>238.0</ele><time>2026-04-09T14:47:14.001Z</time></trkpt><trkpt lat="43.928363703620285" lon="11.350892419581463"><ele>238.0</ele><time>2026-04-09T14:47:15.001Z</time></trkpt><trkpt lat="43.92850869264917" lon="11.350800077541127"><ele>238.33333333333331</ele><time>2026-04-09T14:47:16.001Z</time></trkpt><trkpt lat="43.928653842408416" lon="11.350695420626733"><ele>238.66666666666669</ele><time>2026-04-09T14:47:17.001Z</time></trkpt><trkpt lat="43.92879502905263" lon="11.350593185301815"><ele>239.0</ele><time>2026-04-09T14:47:18.001Z</time></trkpt><trkpt lat="43.92892786433301" lon="11.350491757745022"><ele>242.5</ele><time>2026-04-09T14:47:19.001Z</time></trkpt><trkpt lat="43.929057306208776" lon="11.35040413663309"><ele>246.0</ele><time>2026-04-09T14:47:20.001Z</time></trkpt><trkpt lat="43.92919967932471" lon="11.35033497440249"><ele>249.5</ele><time>2026-04-09T14:47:21.001Z</time></trkpt><trkpt lat="43.929343774389444" lon="11.350309591062224"><ele>253.0</ele><time>2026-04-09T14:47:22.001Z</time></trkpt><trkpt lat="43.92948941389225" lon="11.350313430501869"><ele>256.66666666666663</ele><time>2026-04-09T14:47:23.001Z</time></trkpt><trkpt lat="43.92964088545097" lon="11.350325766850421"><ele>260.3333333333333</ele><time>2026-04-09T14:47:24.001Z</time></trkpt><trkpt lat="43.92979523078702" lon="11.350341250442124"><ele>264.0</ele><time>2026-04-09T14:47:25.001Z</time></trkpt><trkpt lat="43.92994389628306" lon="11.350346866149334"><ele>263.5</ele><time>2026-04-09T14:47:26.001Z</time></trkpt><trkpt lat="43.930080854240884" lon="11.350369347986929"><ele>263.0</ele><time>2026-04-09T14:47:27.001Z</time></trkpt><trkpt lat="43.93022019998204" lon="11.350406667533255"><ele>262.5</ele><time>2026-04-09T14:47:28.001Z</time></trkpt><trkpt lat="43.930351584129994" lon="11.350479466247661"><ele>262.0</ele><time>2026-04-09T14:47:29.001Z</time></trkpt><trkpt lat="43.9304819935363" lon="11.350561589629713"><ele>257.0</ele><time>2026-04-09T14:47:30.001Z</time></trkpt><trkpt lat="43.93062108541274" lon="11.35063167542479"><ele>252.0</ele><time>2026-04-09T14:47:31.001Z</time></trkpt><trkpt lat="43.93076998845002" lon="11.350673506919376"><ele>247.0</ele><time>2026-04-09T14:47:32.001Z</time></trkpt><trkpt lat="43.93091194962991" lon="11.350699567055985"><ele>242.0</ele><time>2026-04-09T14:47:33.001Z</time></trkpt><trkpt lat="43.931041773701565" lon="11.350712335047332"><ele>241.25</ele><time>2026-04-09T14:47:34.001Z</time></trkpt><trkpt lat="43.9311679303529" lon="11.350725711100921"><ele>240.5</ele><time>2026-04-09T14:47:35.001Z</time></trkpt><trkpt lat="43.931289533103836" lon="11.350726703541051"><ele>239.75</ele><time>2026-04-09T14:47:36.001Z</time></trkpt><trkpt lat="43.931406486861505" lon="11.350728119304893"><ele>239.0</ele><time>2026-04-09T14:47:37.001Z</time></trkpt><trkpt lat="43.931521533845384" lon="11.350697926252247"><ele>239.0</ele><time>2026-04-09T14:47:38.001Z</time></trkpt><trkpt lat="43.93164160103099" lon="11.350630271127052"><ele>239.0</ele><time>2026-04-09T14:47:39.001Z</time></trkpt><trkpt lat="43.93175274458979" lon="11.350515827818414"><ele>239.0</ele><time>2026-04-09T14:47:40.001Z</time></trkpt><trkpt lat="43.93186335021616" lon="11.350358120111169"><ele>239.0</ele><time>2026-04-09T14:47:41.001Z</time></trkpt><trkpt lat="43.93197255263035" lon="11.350196819833561"><ele>237.33333333333334</ele><time>2026-04-09T14:47:42.001Z</time></trkpt><trkpt lat="43.93209370454903" lon="11.350026633386342"><ele>235.66666666666669</ele><time>2026-04-09T14:47:43.001Z</time></trkpt><trkpt lat="43.932208290415744" lon="11.349876210844744"><ele>234.0</ele><time>2026-04-09T14:47:44.001Z</time></trkpt><trkpt lat="43.93231959958977" lon="11.349728094704478"><ele>234.66666666666669</ele><time>2026-04-09T14:47:45.001Z</time></trkpt><trkpt lat="43.93243061937951" lon="11.349585876145927"><ele>235.33333333333334</ele><time>2026-04-09T14:47:46.001Z</time></trkpt><trkpt lat="43.93253856016783" lon="11.349445667577095"><ele>236.0</ele><time>2026-04-09T14:47:47.001Z</time></trkpt><trkpt lat="43.9326538658197" lon="11.349297504186742"><ele>232.66666666666669</ele><time>2026-04-09T14:47:48.001Z</time></trkpt><trkpt lat="43.93277294886549" lon="11.349152807607993"><ele>229.33333333333331</ele><time>2026-04-09T14:47:49.001Z</time></trkpt><trkpt lat="43.93288786983707" lon="11.34901034301133"><ele>226.0</ele><time>2026-04-09T14:47:50.001Z</time></trkpt><trkpt lat="43.93300375588302" lon="11.348883490301132"><ele>229.25</ele><time>2026-04-09T14:47:51.001Z</time></trkpt><trkpt lat="43.93312933834555" lon="11.348779220518258"><ele>232.5</ele><time>2026-04-09T14:47:52.001Z</time></trkpt><trkpt lat="43.933263081399026" lon="11.348700870237222"><ele>235.75</ele><time>2026-04-09T14:47:53.001Z</time></trkpt><trkpt lat="43.93340898371205" lon="11.348622352138852"><ele>239.0</ele><time>2026-04-09T14:47:54.001Z</time></trkpt><trkpt lat="43.933560961239024" lon="11.348588934544512"><ele>242.66666666666669</ele><time>2026-04-09T14:47:55.001Z</time></trkpt><trkpt lat="43.933714363353936" lon="11.34857594243919"><ele>246.33333333333331</ele><time>2026-04-09T14:47:56.001Z</time></trkpt><trkpt lat="43.933862903247004" lon="11.348606845836331"><ele>250.0</ele><time>2026-04-09T14:47:57.001Z</time></trkpt><trkpt lat="43.93401348421787" lon="11.348648021147719"><ele>250.0</ele><time>2026-04-09T14:47:58.001Z</time></trkpt><trkpt lat="43.934142463332186" lon="11.34875947071087"><ele>250.0</ele><time>2026-04-09T14:47:59.001Z</time></trkpt><trkpt lat="43.93427786478428" lon="11.348839490303982"><ele>250.0</ele><time>2026-04-09T14:48:00.001Z</time></trkpt><trkpt lat="43.93440256077285" lon="11.348943829175752"><ele>250.0</ele><time>2026-04-09T14:48:01.001Z</time></trkpt><trkpt lat="43.93452714735107" lon="11.349028139975582"><ele>246.4</ele><time>2026-04-09T14:48:02.001Z</time></trkpt><trkpt lat="43.93465203415507" lon="11.349099305415699"><ele>242.8</ele><time>2026-04-09T14:48:03.001Z</time></trkpt><trkpt lat="43.93476611417629" lon="11.349158071806881"><ele>239.2</ele><time>2026-04-09T14:48:04.001Z</time></trkpt><trkpt lat="43.93486672913549" lon="11.349211107989772"><ele>235.6</ele><time>2026-04-09T14:48:05.001Z</time></trkpt><trkpt lat="43.934947081097384" lon="11.349241774736191"><ele>232.0</ele><time>2026-04-09T14:48:06.001Z</time></trkpt><trkpt lat="43.93502288416814" lon="11.349244810019076"><ele>230.99999999999997</ele><time>2026-04-09T14:48:07.001Z</time></trkpt><trkpt lat="43.93509458620377" lon="11.349203042897933"><ele>230.0</ele><time>2026-04-09T14:48:08.001Z</time></trkpt><trkpt lat="43.93516870325018" lon="11.34913225784696"><ele>229.0</ele><time>2026-04-09T14:48:09.001Z</time></trkpt><trkpt lat="43.93522369648581" lon="11.349027297924144"><ele>228.0</ele><time>2026-04-09T14:48:10.001Z</time></trkpt><trkpt lat="43.935255914054736" lon="11.348905229730942"><ele>226.99999999999997</ele><time>2026-04-09T14:48:11.001Z</time></trkpt><trkpt lat="43.935266978195294" lon="11.348778192990766"><ele>226.0</ele><time>2026-04-09T14:48:12.001Z</time></trkpt><trkpt lat="43.93527248798997" lon="11.348677810136014"><ele>225.99999999999997</ele><time>2026-04-09T14:48:13.001Z</time></trkpt><trkpt lat="43.93528467525764" lon="11.348520838877938"><ele>226.0</ele><time>2026-04-09T14:48:15.001Z</time></trkpt><trkpt lat="43.9352967808316" lon="11.348416816044649"><ele>226.0</ele><time>2026-04-09T14:48:17.001Z</time></trkpt><trkpt lat="43.93531432748643" lon="11.348323618561963"><ele>226.0</ele><time>2026-04-09T14:48:22.001Z</time></trkpt><trkpt lat="43.93533700003077" lon="11.348227304063164"><ele>225.99999999999997</ele><time>2026-04-09T14:48:26.001Z</time></trkpt><trkpt lat="43.93536692056223" lon="11.348133973211079"><ele>226.0</ele><time>2026-04-09T14:48:30.001Z</time></trkpt><trkpt lat="43.935402269302486" lon="11.348053979725236"><ele>226.20000000000002</ele><time>2026-04-09T14:48:45.001Z</time></trkpt><trkpt lat="43.93545463984527" lon="11.34793089203012"><ele>226.40000000000003</ele><time>2026-04-09T14:49:18.001Z</time></trkpt><trkpt lat="43.93547854510469" lon="11.347829216651975"><ele>226.6</ele><time>2026-04-09T14:49:19.001Z</time></trkpt><trkpt lat="43.93551758636941" lon="11.347754032415336"><ele>226.8</ele><time>2026-04-09T14:49:20.001Z</time></trkpt><trkpt lat="43.935550076771406" lon="11.347612605686004"><ele>227.0</ele><time>2026-04-09T14:49:22.001Z</time></trkpt><trkpt lat="43.93556233015029" lon="11.347467759682484"><ele>227.00000000000003</ele><time>2026-04-09T14:49:24.001Z</time></trkpt><trkpt lat="43.9355678027886" lon="11.347362263098624"><ele>227.0</ele><time>2026-04-09T14:49:25.001Z</time></trkpt><trkpt lat="43.9355722683081" lon="11.347243631979692"><ele>227.0</ele><time>2026-04-09T14:49:26.001Z</time></trkpt><trkpt lat="43.9355774225366" lon="11.347112754526039"><ele>227.0</ele><time>2026-04-09T14:49:27.001Z</time></trkpt><trkpt lat="43.935583685145566" lon="11.346988329412735"><ele>227.00000000000003</ele><time>2026-04-09T14:49:28.001Z</time></trkpt><trkpt lat="43.93557935513678" lon="11.34686383149631"><ele>227.0</ele><time>2026-04-09T14:49:29.001Z</time></trkpt><trkpt lat="43.935588736543835" lon="11.34672486732448"><ele>227.0</ele><time>2026-04-09T14:49:30.001Z</time></trkpt><trkpt lat="43.93561015298512" lon="11.346570002149026"><ele>227.0</ele><time>2026-04-09T14:49:31.001Z</time></trkpt><trkpt lat="43.93563390318338" lon="11.346408880078714"><ele>227.0</ele><time>2026-04-09T14:49:32.001Z</time></trkpt><trkpt lat="43.93566193763579" lon="11.346236394410063"><ele>227.0</ele><time>2026-04-09T14:49:33.001Z</time></trkpt><trkpt lat="43.935694788292466" lon="11.346065082840296"><ele>226.75</ele><time>2026-04-09T14:49:34.001Z</time></trkpt><trkpt lat="43.93573702606374" lon="11.345912742100163"><ele>226.5</ele><time>2026-04-09T14:49:35.001Z</time></trkpt><trkpt lat="43.93579006965149" lon="11.345770696931556"><ele>226.25</ele><time>2026-04-09T14:49:36.001Z</time></trkpt><trkpt lat="43.935865779100155" lon="11.345627709076718"><ele>226.0</ele><time>2026-04-09T14:49:37.001Z</time></trkpt><trkpt lat="43.93595306345816" lon="11.345491215462276"><ele>225.0</ele><time>2026-04-09T14:49:38.001Z</time></trkpt><trkpt lat="43.93605768237691" lon="11.345376434499599"><ele>224.0</ele><time>2026-04-09T14:49:39.001Z</time></trkpt><trkpt lat="43.93617911055301" lon="11.345281890286781"><ele>223.0</ele><time>2026-04-09T14:49:40.001Z</time></trkpt><trkpt lat="43.93629709815815" lon="11.345208523310903"><ele>222.0</ele><time>2026-04-09T14:49:41.001Z</time></trkpt><trkpt lat="43.93641522902234" lon="11.345142829724823"><ele>222.0</ele><time>2026-04-09T14:49:42.001Z</time></trkpt><trkpt lat="43.93653812389222" lon="11.345086490260181"><ele>222.0</ele><time>2026-04-09T14:49:43.001Z</time></trkpt><trkpt lat="43.93666275624996" lon="11.345040221874461"><ele>222.0</ele><time>2026-04-09T14:49:44.001Z</time></trkpt><trkpt lat="43.93677794091644" lon="11.345002019993718"><ele>222.0</ele><time>2026-04-09T14:49:45.001Z</time></trkpt><trkpt lat="43.9368934294524" lon="11.344994561843249"><ele>223.25</ele><time>2026-04-09T14:49:46.001Z</time></trkpt><trkpt lat="43.93701160611051" lon="11.345039181490485"><ele>224.5</ele><time>2026-04-09T14:49:47.001Z</time></trkpt><trkpt lat="43.93714788042425" lon="11.345106783951719"><ele>225.75</ele><time>2026-04-09T14:49:48.001Z</time></trkpt><trkpt lat="43.93730310743679" lon="11.345169524220589"><ele>227.0</ele><time>2026-04-09T14:49:49.001Z</time></trkpt><trkpt lat="43.93746235350716" lon="11.345232726569115"><ele>229.33333333333334</ele><time>2026-04-09T14:49:50.001Z</time></trkpt><trkpt lat="43.93764127886856" lon="11.345298880513734"><ele>231.66666666666669</ele><time>2026-04-09T14:49:51.001Z</time></trkpt><trkpt lat="43.93784934013101" lon="11.345388086173491"><ele>234.0</ele><time>2026-04-09T14:49:52.001Z</time></trkpt><trkpt lat="43.93805758485895" lon="11.345484856648717"><ele>233.0</ele><time>2026-04-09T14:49:53.001Z</time></trkpt><trkpt lat="43.9382458360529" lon="11.345554029448042"><ele>232.0</ele><time>2026-04-09T14:49:54.001Z</time></trkpt><trkpt lat="43.93843068144834" lon="11.345625854602172"><ele>231.0</ele><time>2026-04-09T14:49:55.001Z</time></trkpt><trkpt lat="43.938609793809526" lon="11.345699022085949"><ele>231.0</ele><time>2026-04-09T14:49:56.001Z</time></trkpt><trkpt lat="43.938775101042424" lon="11.345792368666157"><ele>231.0</ele><time>2026-04-09T14:49:57.001Z</time></trkpt><trkpt lat="43.93892237493876" lon="11.345921525467464"><ele>231.0</ele><time>2026-04-09T14:49:58.001Z</time></trkpt><trkpt lat="43.93905798978589" lon="11.346070168354776"><ele>231.0</ele><time>2026-04-09T14:49:59.001Z</time></trkpt><trkpt lat="43.93920797356916" lon="11.346192491916067"><ele>231.0</ele><time>2026-04-09T14:50:00.001Z</time></trkpt><trkpt lat="43.93935956601852" lon="11.346298445922987"><ele>231.0</ele><time>2026-04-09T14:50:01.001Z</time></trkpt><trkpt lat="43.939497356786326" lon="11.346392565247081"><ele>231.75</ele><time>2026-04-09T14:50:02.001Z</time></trkpt><trkpt lat="43.93961452528162" lon="11.346499642139449"><ele>232.5</ele><time>2026-04-09T14:50:03.001Z</time></trkpt><trkpt lat="43.9397130280378" lon="11.346639561353403"><ele>233.25</ele><time>2026-04-09T14:50:04.001Z</time></trkpt><trkpt lat="43.93978474968454" lon="11.346795434238942"><ele>234.0</ele><time>2026-04-09T14:50:05.001Z</time></trkpt><trkpt lat="43.93983434642374" lon="11.34696324189515"><ele>234.0</ele><time>2026-04-09T14:50:06.001Z</time></trkpt><trkpt lat="43.939859533979195" lon="11.347149355918738"><ele>234.0</ele><time>2026-04-09T14:50:07.001Z</time></trkpt><trkpt lat="43.93986725601779" lon="11.347348476859343"><ele>234.0</ele><time>2026-04-09T14:50:08.001Z</time></trkpt><trkpt lat="43.93986148464134" lon="11.34757822367274"><ele>234.0</ele><time>2026-04-09T14:50:09.001Z</time></trkpt><trkpt lat="43.93987140960707" lon="11.347809317159815"><ele>231.33333333333331</ele><time>2026-04-09T14:50:10.001Z</time></trkpt><trkpt lat="43.93988216217872" lon="11.348049987182089"><ele>228.66666666666666</ele><time>2026-04-09T14:50:11.001Z</time></trkpt><trkpt lat="43.93989393568414" lon="11.348289512166518"><ele>226.0</ele><time>2026-04-09T14:50:12.001Z</time></trkpt><trkpt lat="43.939927671770256" lon="11.348545613334071"><ele>226.0</ele><time>2026-04-09T14:50:13.001Z</time></trkpt><trkpt lat="43.93998349274771" lon="11.348803615165728"><ele>226.0</ele><time>2026-04-09T14:50:14.001Z</time></trkpt><trkpt lat="43.940036179414115" lon="11.349075631037758"><ele>226.0</ele><time>2026-04-09T14:50:15.001Z</time></trkpt><trkpt lat="43.940079219802236" lon="11.349338213398042"><ele>231.75</ele><time>2026-04-09T14:50:16.001Z</time></trkpt><trkpt lat="43.94011517567388" lon="11.349567094637939"><ele>237.5</ele><time>2026-04-09T14:50:17.001Z</time></trkpt><trkpt lat="43.940140007539554" lon="11.349757208276632"><ele>243.25</ele><time>2026-04-09T14:50:18.001Z</time></trkpt><trkpt lat="43.940160653171496" lon="11.349951332494786"><ele>249.0</ele><time>2026-04-09T14:50:19.001Z</time></trkpt><trkpt lat="43.940144463905895" lon="11.350166048952637"><ele>249.33333333333331</ele><time>2026-04-09T14:50:20.001Z</time></trkpt><trkpt lat="43.94017928960751" lon="11.350400366361553"><ele>249.66666666666666</ele><time>2026-04-09T14:50:21.001Z</time></trkpt><trkpt lat="43.94021129981557" lon="11.350635700276012"><ele>250.0</ele><time>2026-04-09T14:50:22.001Z</time></trkpt><trkpt lat="43.940241512856176" lon="11.350863710193122"><ele>250.0</ele><time>2026-04-09T14:50:23Z</time></trkpt><trkpt lat="43.94027504488263" lon="11.351074913708885"><ele>250.0</ele><time>2026-04-09T14:50:24Z</time></trkpt><trkpt lat="43.940306718360766" lon="11.351287426388003"><ele>250.0</ele><time>2026-04-09T14:50:25Z</time></trkpt><trkpt lat="43.940327952382326" lon="11.35148369916721"><ele>248.25</ele><time>2026-04-09T14:50:26Z</time></trkpt><trkpt lat="43.94032601358057" lon="11.351655816725833"><ele>246.5</ele><time>2026-04-09T14:50:27Z</time></trkpt><trkpt lat="43.940308640100845" lon="11.35182466244273"><ele>244.75</ele><time>2026-04-09T14:50:28Z</time></trkpt><trkpt lat="43.94027431428979" lon="11.352005823399706"><ele>243.0</ele><time>2026-04-09T14:50:29Z</time></trkpt><trkpt lat="43.94021718005566" lon="11.35220420120876"><ele>240.0</ele><time>2026-04-09T14:50:30Z</time></trkpt><trkpt lat="43.94015765235676" lon="11.352429286604659"><ele>237.0</ele><time>2026-04-09T14:50:31Z</time></trkpt><trkpt lat="43.94011526637794" lon="11.352636561861505"><ele>234.0</ele><time>2026-04-09T14:50:32Z</time></trkpt><trkpt lat="43.94009917882253" lon="11.352822592538947"><ele>234.0</ele><time>2026-04-09T14:50:33Z</time></trkpt><trkpt lat="43.94010428164882" lon="11.35299894221563"><ele>234.0</ele><time>2026-04-09T14:50:34Z</time></trkpt><trkpt lat="43.94013407538101" lon="11.353176865422439"><ele>234.0</ele><time>2026-04-09T14:50:35Z</time></trkpt><trkpt lat="43.940189519932744" lon="11.353383497505455"><ele>234.0</ele><time>2026-04-09T14:50:36Z</time></trkpt><trkpt lat="43.94025158953986" lon="11.353655666739153"><ele>227.0</ele><time>2026-04-09T14:50:37Z</time></trkpt><trkpt lat="43.94032609318929" lon="11.353981482771909"><ele>220.0</ele><time>2026-04-09T14:50:38Z</time></trkpt><trkpt lat="43.94041224189743" lon="11.35431468481525"><ele>220.0</ele><time>2026-04-09T14:50:39Z</time></trkpt><trkpt lat="43.94047998199774" lon="11.354649574087324"><ele>220.0</ele><time>2026-04-09T14:50:40Z</time></trkpt><trkpt lat="43.940563199048356" lon="11.354955406523521"><ele>218.66666666666666</ele><time>2026-04-09T14:50:41Z</time></trkpt><trkpt lat="43.94065968832439" lon="11.355233592109972"><ele>217.33333333333331</ele><time>2026-04-09T14:50:42Z</time></trkpt><trkpt lat="43.9407780122499" lon="11.355497533107059"><ele>216.0</ele><time>2026-04-09T14:50:43Z</time></trkpt><trkpt lat="43.94092135035223" lon="11.355763415073719"><ele>214.0</ele><time>2026-04-09T14:50:44Z</time></trkpt><trkpt lat="43.941086994619866" lon="11.356050043007349"><ele>212.0</ele><time>2026-04-09T14:50:45Z</time></trkpt><trkpt lat="43.941266752650094" lon="11.356345163850994"><ele>210.0</ele><time>2026-04-09T14:50:46Z</time></trkpt><trkpt lat="43.94144763664413" lon="11.356628154871265"><ele>208.0</ele><time>2026-04-09T14:50:47Z</time></trkpt><trkpt lat="43.9416106694289" lon="11.356889522141714"><ele>208.5</ele><time>2026-04-09T14:50:48Z</time></trkpt><trkpt lat="43.941763521652625" lon="11.357136907925806"><ele>209.0</ele><time>2026-04-09T14:50:49Z</time></trkpt><trkpt lat="43.94190596364026" lon="11.357367004832641"><ele>209.0</ele><time>2026-04-09T14:50:50Z</time></trkpt><trkpt lat="43.942043912463724" lon="11.357582346534189"><ele>209.0</ele><time>2026-04-09T14:50:51Z</time></trkpt><trkpt lat="43.9421666119223" lon="11.357777327006312"><ele>209.0</ele><time>2026-04-09T14:50:52Z</time></trkpt><trkpt lat="43.942285596643764" lon="11.357966190740244"><ele>208.33333333333334</ele><time>2026-04-09T14:50:53Z</time></trkpt><trkpt lat="43.94240281096605" lon="11.358148447302096"><ele>207.66666666666669</ele><time>2026-04-09T14:50:54Z</time></trkpt><trkpt lat="43.94250564986593" lon="11.358309096807304"><ele>207.0</ele><time>2026-04-09T14:50:55Z</time></trkpt><trkpt lat="43.94261193014354" lon="11.358470656601153"><ele>209.5</ele><time>2026-04-09T14:50:56Z</time></trkpt><trkpt lat="43.94270255481911" lon="11.358591214771323"><ele>212.0</ele><time>2026-04-09T14:50:57Z</time></trkpt><trkpt lat="43.94281823441272" lon="11.358696377690858"><ele>214.5</ele><time>2026-04-09T14:50:58Z</time></trkpt><trkpt lat="43.94295698672024" lon="11.35878450723907"><ele>217.0</ele><time>2026-04-09T14:50:59Z</time></trkpt><trkpt lat="43.943102415471095" lon="11.358868050081218"><ele>217.0</ele><time>2026-04-09T14:51:00Z</time></trkpt><trkpt lat="43.943248880902054" lon="11.3589635617562"><ele>217.0</ele><time>2026-04-09T14:51:01Z</time></trkpt><trkpt lat="43.943383557712956" lon="11.359077399189868"><ele>217.0</ele><time>2026-04-09T14:51:02Z</time></trkpt><trkpt lat="43.94352147618933" lon="11.35919821173594"><ele>226.0</ele><time>2026-04-09T14:51:03Z</time></trkpt><trkpt lat="43.94365812499132" lon="11.359333676096393"><ele>235.0</ele><time>2026-04-09T14:51:04Z</time></trkpt><trkpt lat="43.94379265860526" lon="11.359472067310193"><ele>244.0</ele><time>2026-04-09T14:51:05Z</time></trkpt><trkpt lat="43.943916432729594" lon="11.359598846392005"><ele>237.75</ele><time>2026-04-09T14:51:06Z</time></trkpt><trkpt lat="43.9440315064731" lon="11.359720546439767"><ele>231.5</ele><time>2026-04-09T14:51:07Z</time></trkpt><trkpt lat="43.944141781094345" lon="11.359844692705641"><ele>225.25</ele><time>2026-04-09T14:51:08Z</time></trkpt><trkpt lat="43.94424435564811" lon="11.359962938044696"><ele>219.0</ele><time>2026-04-09T14:51:09Z</time></trkpt><trkpt lat="43.94433879604015" lon="11.360074530969795"><ele>219.0</ele><time>2026-04-09T14:51:10Z</time></trkpt><trkpt lat="43.94442107517128" lon="11.36017785956025"><ele>218.99999999999997</ele><time>2026-04-09T14:51:11Z</time></trkpt><trkpt lat="43.94448775638065" lon="11.360281181022584"><ele>218.99999999999997</ele><time>2026-04-09T14:51:12Z</time></trkpt><trkpt lat="43.944543823509164" lon="11.360369572522906"><ele>219.0</ele><time>2026-04-09T14:51:13Z</time></trkpt><trkpt lat="43.94459416184781" lon="11.360435558212473"><ele>219.0</ele><time>2026-04-09T14:51:14Z</time></trkpt><trkpt lat="43.94474311263425" lon="11.360360380738493"><ele>219.0</ele><time>2026-04-09T14:51:17Z</time></trkpt><trkpt lat="43.944807623626275" lon="11.36031248102715"><ele>218.99999999999997</ele><time>2026-04-09T14:51:18Z</time></trkpt><trkpt lat="43.94488746004094" lon="11.360277782504483"><ele>218.99999999999997</ele><time>2026-04-09T14:51:19Z</time></trkpt><trkpt lat="43.944985929456976" lon="11.360229025684808"><ele>219.0</ele><time>2026-04-09T14:51:20Z</time></trkpt><trkpt lat="43.945095696107266" lon="11.360169391503282"><ele>219.0</ele><time>2026-04-09T14:51:21Z</time></trkpt><trkpt lat="43.94520167605448" lon="11.360114532496956"><ele>216.25</ele><time>2026-04-09T14:51:22Z</time></trkpt><trkpt lat="43.94530343177685" lon="11.360036770730249"><ele>213.5</ele><time>2026-04-09T14:51:23Z</time></trkpt><trkpt lat="43.94539681012562" lon="11.359945139071124"><ele>210.75</ele><time>2026-04-09T14:51:24Z</time></trkpt><trkpt lat="43.94548753188324" lon="11.359837259917597"><ele>208.0</ele><time>2026-04-09T14:51:25Z</time></trkpt><trkpt lat="43.9455713731861" lon="11.359758314289309"><ele>207.4</ele><time>2026-04-09T14:51:26Z</time></trkpt><trkpt lat="43.945650454364056" lon="11.359675077056801"><ele>206.8</ele><time>2026-04-09T14:51:27Z</time></trkpt><trkpt lat="43.94572564637752" lon="11.359604222007015"><ele>206.2</ele><time>2026-04-09T14:51:28Z</time></trkpt><trkpt lat="43.945804641965324" lon="11.35953089000681"><ele>205.6</ele><time>2026-04-09T14:51:29Z</time></trkpt><trkpt lat="43.94588941219909" lon="11.359468899807673"><ele>205.0</ele><time>2026-04-09T14:51:30Z</time></trkpt><trkpt lat="43.945982896131845" lon="11.359419573314927"><ele>204.99999999999997</ele><time>2026-04-09T14:51:31Z</time></trkpt><trkpt lat="43.94608116277195" lon="11.359404532254553"><ele>205.0</ele><time>2026-04-09T14:51:32Z</time></trkpt><trkpt lat="43.94617929796727" lon="11.359419838836857"><ele>205.0</ele><time>2026-04-09T14:51:33Z</time></trkpt><trkpt lat="43.94625824169251" lon="11.35942676496831"><ele>205.0</ele><time>2026-04-09T14:51:34Z</time></trkpt><trkpt lat="43.94632918066539" lon="11.359380850243367"><ele>204.99999999999997</ele><time>2026-04-09T14:51:35Z</time></trkpt><trkpt lat="43.94637310665416" lon="11.359289368455903"><ele>205.0</ele><time>2026-04-09T14:51:36Z</time></trkpt><trkpt lat="43.946393020443374" lon="11.359168096587876"><ele>205.0</ele><time>2026-04-09T14:51:37Z</time></trkpt><trkpt lat="43.946379929434784" lon="11.359042008070857"><ele>205.0</ele><time>2026-04-09T14:51:38Z</time></trkpt><trkpt lat="43.94633995072978" lon="11.358905762572657"><ele>205.0</ele><time>2026-04-09T14:51:39Z</time></trkpt><trkpt lat="43.9462899576485" lon="11.358754907238186"><ele>205.0</ele><time>2026-04-09T14:51:40Z</time></trkpt><trkpt lat="43.94625778880958" lon="11.358578325794662"><ele>205.0</ele><time>2026-04-09T14:51:41Z</time></trkpt><trkpt lat="43.94623648955312" lon="11.358389372475777"><ele>204.75</ele><time>2026-04-09T14:51:42Z</time></trkpt><trkpt lat="43.94621197395212" lon="11.358204065823871"><ele>204.5</ele><time>2026-04-09T14:51:43Z</time></trkpt><trkpt lat="43.94617448732077" lon="11.358017007936853"><ele>204.25</ele><time>2026-04-09T14:51:44Z</time></trkpt><trkpt lat="43.94614896693763" lon="11.357831510029948"><ele>204.0</ele><time>2026-04-09T14:51:45Z</time></trkpt><trkpt lat="43.94611988378569" lon="11.357646244449588"><ele>203.25</ele><time>2026-04-09T14:51:46Z</time></trkpt><trkpt lat="43.94610004157477" lon="11.357452079988766"><ele>202.5</ele><time>2026-04-09T14:51:47Z</time></trkpt><trkpt lat="43.94608263063418" lon="11.357259648499621"><ele>201.75</ele><time>2026-04-09T14:51:48Z</time></trkpt><trkpt lat="43.94607545161286" lon="11.357056957100587"><ele>201.0</ele><time>2026-04-09T14:51:49Z</time></trkpt><trkpt lat="43.946079710392326" lon="11.35685603361409"><ele>200.5</ele><time>2026-04-09T14:51:50Z</time></trkpt><trkpt lat="43.94609234789907" lon="11.356652679465261"><ele>200.0</ele><time>2026-04-09T14:51:51Z</time></trkpt><trkpt lat="43.94611265005433" lon="11.356441991384582"><ele>199.5</ele><time>2026-04-09T14:51:52Z</time></trkpt><trkpt lat="43.94613107549717" lon="11.356238312921429"><ele>199.0</ele><time>2026-04-09T14:51:53Z</time></trkpt><trkpt lat="43.94614905113794" lon="11.356038167175877"><ele>198.75</ele><time>2026-04-09T14:51:54Z</time></trkpt><trkpt lat="43.94616333931553" lon="11.355836710258293"><ele>198.5</ele><time>2026-04-09T14:51:55Z</time></trkpt><trkpt lat="43.94617816914013" lon="11.355635414775405"><ele>198.25</ele><time>2026-04-09T14:51:56Z</time></trkpt><trkpt lat="43.946196177257804" lon="11.355439190398684"><ele>198.0</ele><time>2026-04-09T14:51:57Z</time></trkpt><trkpt lat="43.94621531851317" lon="11.35524244387339"><ele>198.0</ele><time>2026-04-09T14:51:58Z</time></trkpt><trkpt lat="43.94622555793732" lon="11.355046111933744"><ele>198.0</ele><time>2026-04-09T14:51:59Z</time></trkpt><trkpt lat="43.94624274138884" lon="11.354844893400058"><ele>198.0</ele><time>2026-04-09T14:52:00Z</time></trkpt><trkpt lat="43.946262581569755" lon="11.354646527657962"><ele>198.0</ele><time>2026-04-09T14:52:01Z</time></trkpt><trkpt lat="43.946280712995716" lon="11.35444612692042"><ele>198.33333333333331</ele><time>2026-04-09T14:52:02Z</time></trkpt><trkpt lat="43.94630148087464" lon="11.354241129458673"><ele>198.66666666666666</ele><time>2026-04-09T14:52:03Z</time></trkpt><trkpt lat="43.94632359223538" lon="11.354015874056953"><ele>199.0</ele><time>2026-04-09T14:52:04Z</time></trkpt><trkpt lat="43.946349213870974" lon="11.353780017921693"><ele>200.33333333333331</ele><time>2026-04-09T14:52:05Z</time></trkpt><trkpt lat="43.94638909402961" lon="11.353524133154597"><ele>201.66666666666669</ele><time>2026-04-09T14:52:06Z</time></trkpt><trkpt lat="43.946430618711446" lon="11.353269145778805"><ele>203.0</ele><time>2026-04-09T14:52:07Z</time></trkpt><trkpt lat="43.94647301258196" lon="11.353005502846141"><ele>203.66666666666669</ele><time>2026-04-09T14:52:08Z</time></trkpt><trkpt lat="43.946517643336556" lon="11.352735092038191"><ele>204.33333333333331</ele><time>2026-04-09T14:52:09Z</time></trkpt><trkpt lat="43.94656930996235" lon="11.35243151508319"><ele>205.0</ele><time>2026-04-09T14:52:10Z</time></trkpt><trkpt lat="43.94662024257004" lon="11.3521314727459"><ele>205.5</ele><time>2026-04-09T14:52:11Z</time></trkpt><trkpt lat="43.94666966112323" lon="11.351828419217247"><ele>206.0</ele><time>2026-04-09T14:52:12Z</time></trkpt><trkpt lat="43.9467200292713" lon="11.351521649142148"><ele>206.0</ele><time>2026-04-09T14:52:13Z</time></trkpt><trkpt lat="43.94677289108961" lon="11.351203940016047"><ele>206.0</ele><time>2026-04-09T14:52:14Z</time></trkpt><trkpt lat="43.94682562847373" lon="11.350885773626887"><ele>206.0</ele><time>2026-04-09T14:52:15Z</time></trkpt><trkpt lat="43.94687824007193" lon="11.350568702763704"><ele>206.0</ele><time>2026-04-09T14:52:16Z</time></trkpt><trkpt lat="43.946931871860095" lon="11.350247150916049"><ele>207.5</ele><time>2026-04-09T14:52:17Z</time></trkpt><trkpt lat="43.94698542677086" lon="11.349942645060093"><ele>209.0</ele><time>2026-04-09T14:52:18Z</time></trkpt><trkpt lat="43.947035801893485" lon="11.349638300319109"><ele>209.33333333333334</ele><time>2026-04-09T14:52:19Z</time></trkpt><trkpt lat="43.947086327164" lon="11.34934517626759"><ele>209.66666666666669</ele><time>2026-04-09T14:52:20Z</time></trkpt><trkpt lat="43.94713714298041" lon="11.349055236842963"><ele>210.0</ele><time>2026-04-09T14:52:21Z</time></trkpt><trkpt lat="43.94718373305979" lon="11.348777349121702"><ele>210.66666666666669</ele><time>2026-04-09T14:52:22Z</time></trkpt><trkpt lat="43.947229710652664" lon="11.348499699061477"><ele>211.33333333333334</ele><time>2026-04-09T14:52:23Z</time></trkpt><trkpt lat="43.947276748803134" lon="11.3482129052635"><ele>212.0</ele><time>2026-04-09T14:52:24Z</time></trkpt><trkpt lat="43.947326034850946" lon="11.347926001720491"><ele>213.33333333333334</ele><time>2026-04-09T14:52:25Z</time></trkpt><trkpt lat="43.94737259246732" lon="11.347652136960496"><ele>214.66666666666669</ele><time>2026-04-09T14:52:26Z</time></trkpt><trkpt lat="43.947420214149325" lon="11.34737735096878"><ele>216.0</ele><time>2026-04-09T14:52:27Z</time></trkpt><trkpt lat="43.94746746963253" lon="11.347105566932166"><ele>216.0</ele><time>2026-04-09T14:52:28Z</time></trkpt><trkpt lat="43.94751584169461" lon="11.34682940157023"><ele>216.0</ele><time>2026-04-09T14:52:29Z</time></trkpt><trkpt lat="43.94756114842281" lon="11.34655761248408"><ele>216.0</ele><time>2026-04-09T14:52:30Z</time></trkpt><trkpt lat="43.947611630529885" lon="11.346279865086442"><ele>216.0</ele><time>2026-04-09T14:52:31Z</time></trkpt><trkpt lat="43.947670095267014" lon="11.346004603552649"><ele>216.0</ele><time>2026-04-09T14:52:32Z</time></trkpt><trkpt lat="43.94775049551136" lon="11.345744681338285"><ele>216.0</ele><time>2026-04-09T14:52:33Z</time></trkpt><trkpt lat="43.94784617698327" lon="11.345498426196079"><ele>216.33333333333331</ele><time>2026-04-09T14:52:34Z</time></trkpt><trkpt lat="43.94795629031656" lon="11.34526677541046"><ele>216.66666666666666</ele><time>2026-04-09T14:52:35Z</time></trkpt><trkpt lat="43.94807597895785" lon="11.345043338864711"><ele>217.0</ele><time>2026-04-09T14:52:36Z</time></trkpt><trkpt lat="43.948214873598566" lon="11.344822674607185"><ele>217.0</ele><time>2026-04-09T14:52:37Z</time></trkpt><trkpt lat="43.94836805618322" lon="11.344621821461626"><ele>217.0</ele><time>2026-04-09T14:52:38Z</time></trkpt><trkpt lat="43.94851910655703" lon="11.344422475985318"><ele>217.0</ele><time>2026-04-09T14:52:39Z</time></trkpt><trkpt lat="43.94867072770706" lon="11.34421530847171"><ele>216.66666666666666</ele><time>2026-04-09T14:52:40Z</time></trkpt><trkpt lat="43.948809302026724" lon="11.344010547084745"><ele>216.33333333333331</ele><time>2026-04-09T14:52:41Z</time></trkpt><trkpt lat="43.948937312369736" lon="11.343802388610088"><ele>216.0</ele><time>2026-04-09T14:52:42Z</time></trkpt><trkpt lat="43.949053515461294" lon="11.343590909853829"><ele>216.0</ele><time>2026-04-09T14:52:43Z</time></trkpt><trkpt lat="43.94915785869133" lon="11.343361453883178"><ele>216.0</ele><time>2026-04-09T14:52:44Z</time></trkpt><trkpt lat="43.949246491934396" lon="11.343123920992591"><ele>216.0</ele><time>2026-04-09T14:52:45Z</time></trkpt><trkpt lat="43.9493282776321" lon="11.342865227133846"><ele>216.0</ele><time>2026-04-09T14:52:46Z</time></trkpt><trkpt lat="43.94939469525257" lon="11.342602016014194"><ele>216.0</ele><time>2026-04-09T14:52:47Z</time></trkpt><trkpt lat="43.9494551238552" lon="11.34232684027674"><ele>216.0</ele><time>2026-04-09T14:52:48Z</time></trkpt><trkpt lat="43.94951574322898" lon="11.342047173285183"><ele>215.66666666666669</ele><time>2026-04-09T14:52:49Z</time></trkpt><trkpt lat="43.949581441700595" lon="11.341766822946811"><ele>215.33333333333334</ele><time>2026-04-09T14:52:50Z</time></trkpt><trkpt lat="43.949649087143094" lon="11.341495675511231"><ele>215.0</ele><time>2026-04-09T14:52:51Z</time></trkpt><trkpt lat="43.94975066240168" lon="11.341240383855894"><ele>213.33333333333334</ele><time>2026-04-09T14:52:52Z</time></trkpt><trkpt lat="43.94985909350693" lon="11.340992736978006"><ele>211.66666666666669</ele><time>2026-04-09T14:52:53Z</time></trkpt><trkpt lat="43.94997621061175" lon="11.34073891998822"><ele>210.0</ele><time>2026-04-09T14:52:54Z</time></trkpt><trkpt lat="43.95012785887434" lon="11.340504272411115"><ele>209.0</ele><time>2026-04-09T14:52:55Z</time></trkpt><trkpt lat="43.95029420286711" lon="11.340281988835299"><ele>208.0</ele><time>2026-04-09T14:52:56Z</time></trkpt><trkpt lat="43.95046299203654" lon="11.34007326416632"><ele>208.0</ele><time>2026-04-09T14:52:57Z</time></trkpt><trkpt lat="43.95062374745695" lon="11.339877219233141"><ele>208.0</ele><time>2026-04-09T14:52:58Z</time></trkpt><trkpt lat="43.95076913227584" lon="11.339693504291336"><ele>208.0</ele><time>2026-04-09T14:52:59Z</time></trkpt><trkpt lat="43.950897484983656" lon="11.339519885998536"><ele>209.75</ele><time>2026-04-09T14:53:00Z</time></trkpt><trkpt lat="43.95100345142456" lon="11.339370149187811"><ele>211.5</ele><time>2026-04-09T14:53:01Z</time></trkpt><trkpt lat="43.95109487999101" lon="11.33923195659256"><ele>213.25</ele><time>2026-04-09T14:53:02Z</time></trkpt><trkpt lat="43.951170042996544" lon="11.339098517637751"><ele>215.0</ele><time>2026-04-09T14:53:03Z</time></trkpt><trkpt lat="43.95123178053481" lon="11.338971377738082"><ele>214.8</ele><time>2026-04-09T14:53:04Z</time></trkpt><trkpt lat="43.951292736972505" lon="11.338854914612222"><ele>214.6</ele><time>2026-04-09T14:53:05Z</time></trkpt><trkpt lat="43.9513502574733" lon="11.33872799443408"><ele>214.39999999999998</ele><time>2026-04-09T14:53:06Z</time></trkpt><trkpt lat="43.95140814275118" lon="11.338604208658866"><ele>214.2</ele><time>2026-04-09T14:53:07Z</time></trkpt><trkpt lat="43.951472527312816" lon="11.33846424057636"><ele>214.0</ele><time>2026-04-09T14:53:08Z</time></trkpt><trkpt lat="43.95153779043446" lon="11.33831982707459"><ele>214.0</ele><time>2026-04-09T14:53:09Z</time></trkpt><trkpt lat="43.95160324842056" lon="11.338168937773755"><ele>214.0</ele><time>2026-04-09T14:53:10Z</time></trkpt><trkpt lat="43.9516697957141" lon="11.338011034717065"><ele>214.0</ele><time>2026-04-09T14:53:11Z</time></trkpt><trkpt lat="43.951735564442856" lon="11.337851921568209"><ele>214.0</ele><time>2026-04-09T14:53:12Z</time></trkpt><trkpt lat="43.95180311251307" lon="11.337693754053474"><ele>213.75</ele><time>2026-04-09T14:53:13Z</time></trkpt><trkpt lat="43.951874656710594" lon="11.337536166794788"><ele>213.5</ele><time>2026-04-09T14:53:14Z</time></trkpt><trkpt lat="43.951946216530935" lon="11.337374427363775"><ele>213.25</ele><time>2026-04-09T14:53:15Z</time></trkpt><trkpt lat="43.95201677072476" lon="11.337211966636113"><ele>213.0</ele><time>2026-04-09T14:53:16Z</time></trkpt><trkpt lat="43.9520902269139" lon="11.337050353414897"><ele>213.5</ele><time>2026-04-09T14:53:17Z</time></trkpt><trkpt lat="43.95216168821602" lon="11.336894950037006"><ele>214.0</ele><time>2026-04-09T14:53:18Z</time></trkpt><trkpt lat="43.95222829800857" lon="11.33674892178463"><ele>214.5</ele><time>2026-04-09T14:53:19Z</time></trkpt><trkpt lat="43.9522912738677" lon="11.336603487888658"><ele>215.0</ele><time>2026-04-09T14:53:20Z</time></trkpt><trkpt lat="43.952345122544514" lon="11.336479376340582"><ele>214.66666666666669</ele><time>2026-04-09T14:53:21Z</time></trkpt><trkpt lat="43.95239167580489" lon="11.336380575402401"><ele>214.33333333333334</ele><time>2026-04-09T14:53:22Z</time></trkpt><trkpt lat="43.952434421252285" lon="11.336307823727084"><ele>214.0</ele><time>2026-04-09T14:53:23Z</time></trkpt><trkpt lat="43.95250441466076" lon="11.336220395235996"><ele>213.66666666666669</ele><time>2026-04-09T14:53:25Z</time></trkpt><trkpt lat="43.952547315112334" lon="11.336128313060286"><ele>213.33333333333334</ele><time>2026-04-09T14:53:28Z</time></trkpt><trkpt lat="43.95258196947982" lon="11.336012988436043"><ele>213.0</ele><time>2026-04-09T14:55:00Z</time></trkpt><trkpt lat="43.952604019403104" lon="11.335919510539018"><ele>212.75</ele><time>2026-04-09T14:55:01Z</time></trkpt><trkpt lat="43.95263613269256" lon="11.335801202042585"><ele>212.5</ele><time>2026-04-09T14:55:02Z</time></trkpt><trkpt lat="43.95270340626087" lon="11.335668130448"><ele>212.25</ele><time>2026-04-09T14:55:03Z</time></trkpt><trkpt lat="43.952771879683176" lon="11.335491546903427"><ele>212.0</ele><time>2026-04-09T14:55:04Z</time></trkpt><trkpt lat="43.95282868758521" lon="11.33528735223976"><ele>212.0</ele><time>2026-04-09T14:55:05Z</time></trkpt><trkpt lat="43.95290183321937" lon="11.335074939226237"><ele>212.0</ele><time>2026-04-09T14:55:06Z</time></trkpt><trkpt lat="43.95296964841678" lon="11.334851164654108"><ele>212.0</ele><time>2026-04-09T14:55:07Z</time></trkpt><trkpt lat="43.953034960734904" lon="11.3346193564721"><ele>211.33333333333334</ele><time>2026-04-09T14:55:08Z</time></trkpt><trkpt lat="43.9530891664793" lon="11.33441036211012"><ele>210.66666666666669</ele><time>2026-04-09T14:55:09Z</time></trkpt><trkpt lat="43.95314193990671" lon="11.334217970441957"><ele>210.0</ele><time>2026-04-09T14:55:10Z</time></trkpt><trkpt lat="43.95319746238205" lon="11.334025319412646"><ele>209.66666666666669</ele><time>2026-04-09T14:55:11Z</time></trkpt><trkpt lat="43.95325400301645" lon="11.33383058550885"><ele>209.33333333333334</ele><time>2026-04-09T14:55:12Z</time></trkpt><trkpt lat="43.953307613658225" lon="11.333634772249823"><ele>209.0</ele><time>2026-04-09T14:55:13Z</time></trkpt><trkpt lat="43.953359389615756" lon="11.333436092919365"><ele>208.33333333333334</ele><time>2026-04-09T14:55:14Z</time></trkpt><trkpt lat="43.95341159504765" lon="11.333239584081"><ele>207.66666666666669</ele><time>2026-04-09T14:55:15Z</time></trkpt><trkpt lat="43.95346426841173" lon="11.333039161128672"><ele>207.0</ele><time>2026-04-09T14:55:16Z</time></trkpt><trkpt lat="43.95351681817174" lon="11.332844821122453"><ele>206.5</ele><time>2026-04-09T14:55:17Z</time></trkpt><trkpt lat="43.9535705428773" lon="11.332650311960249"><ele>206.0</ele><time>2026-04-09T14:55:18Z</time></trkpt><trkpt lat="43.95362756673201" lon="11.332459065991182"><ele>205.5</ele><time>2026-04-09T14:55:19Z</time></trkpt><trkpt lat="43.95368533980029" lon="11.33227007827863"><ele>205.0</ele><time>2026-04-09T14:55:20Z</time></trkpt><trkpt lat="43.95375183187681" lon="11.332080839017758"><ele>204.66666666666666</ele><time>2026-04-09T14:55:21Z</time></trkpt><trkpt lat="43.9538286935371" lon="11.331898371185295"><ele>204.33333333333331</ele><time>2026-04-09T14:55:22Z</time></trkpt><trkpt lat="43.95391644702905" lon="11.3317306640923"><ele>204.0</ele><time>2026-04-09T14:55:23Z</time></trkpt><trkpt lat="43.954009992888004" lon="11.33156618293964"><ele>204.0</ele><time>2026-04-09T14:55:24Z</time></trkpt><trkpt lat="43.95410442986208" lon="11.331403275910557"><ele>204.0</ele><time>2026-04-09T14:55:25Z</time></trkpt><trkpt lat="43.95420340389674" lon="11.331242163617922"><ele>204.0</ele><time>2026-04-09T14:55:26Z</time></trkpt><trkpt lat="43.954301347157504" lon="11.331076010923526"><ele>204.25</ele><time>2026-04-09T14:55:27Z</time></trkpt><trkpt lat="43.9543933774284" lon="11.330914932583386"><ele>204.5</ele><time>2026-04-09T14:55:28Z</time></trkpt><trkpt lat="43.954487295311594" lon="11.330755570520344"><ele>204.75</ele><time>2026-04-09T14:55:29Z</time></trkpt><trkpt lat="43.95458437725336" lon="11.330595177694764"><ele>205.0</ele><time>2026-04-09T14:55:30Z</time></trkpt><trkpt lat="43.95467970739763" lon="11.33043740987236"><ele>205.0</ele><time>2026-04-09T14:55:31Z</time></trkpt><trkpt lat="43.95477219319464" lon="11.330279562929835"><ele>205.0</ele><time>2026-04-09T14:55:32Z</time></trkpt><trkpt lat="43.95486312514024" lon="11.330118447784935"><ele>205.0</ele><time>2026-04-09T14:55:33Z</time></trkpt><trkpt lat="43.95495248838342" lon="11.329957328857843"><ele>205.0</ele><time>2026-04-09T14:55:34Z</time></trkpt><trkpt lat="43.95503877974633" lon="11.329791612333441"><ele>204.75</ele><time>2026-04-09T14:55:35Z</time></trkpt><trkpt lat="43.9551163187103" lon="11.329618827011037"><ele>204.5</ele><time>2026-04-09T14:55:36Z</time></trkpt><trkpt lat="43.9551861447976" lon="11.329436476017438"><ele>204.25</ele><time>2026-04-09T14:55:37Z</time></trkpt><trkpt lat="43.95524864471529" lon="11.329249836769094"><ele>204.0</ele><time>2026-04-09T14:55:38Z</time></trkpt><trkpt lat="43.9553050751667" lon="11.329066948781842"><ele>204.75</ele><time>2026-04-09T14:55:39Z</time></trkpt><trkpt lat="43.955361485653455" lon="11.328876171521399"><ele>205.5</ele><time>2026-04-09T14:55:40Z</time></trkpt><trkpt lat="43.95541719306835" lon="11.328688745103932"><ele>206.25</ele><time>2026-04-09T14:55:41Z</time></trkpt><trkpt lat="43.955475470162185" lon="11.328502119919008"><ele>207.0</ele><time>2026-04-09T14:55:42Z</time></trkpt><trkpt lat="43.95553465427747" lon="11.328318810092307"><ele>207.0</ele><time>2026-04-09T14:55:43Z</time></trkpt><trkpt lat="43.95559304745632" lon="11.328133996010456"><ele>207.0</ele><time>2026-04-09T14:55:44Z</time></trkpt><trkpt lat="43.955648371859354" lon="11.327945845106349"><ele>207.0</ele><time>2026-04-09T14:55:45Z</time></trkpt><trkpt lat="43.955702417329654" lon="11.327757103662051"><ele>207.0</ele><time>2026-04-09T14:55:46Z</time></trkpt><trkpt lat="43.95575287593301" lon="11.327569319371412"><ele>207.5</ele><time>2026-04-09T14:55:47Z</time></trkpt><trkpt lat="43.95579897379331" lon="11.327377198419342"><ele>208.0</ele><time>2026-04-09T14:55:48Z</time></trkpt><trkpt lat="43.9558360870913" lon="11.327183054960475"><ele>208.5</ele><time>2026-04-09T14:55:49Z</time></trkpt><trkpt lat="43.95586014744209" lon="11.326987415106665"><ele>209.0</ele><time>2026-04-09T14:55:50Z</time></trkpt><trkpt lat="43.9558741089865" lon="11.326788108462221"><ele>209.0</ele><time>2026-04-09T14:55:51Z</time></trkpt><trkpt lat="43.95587842512374" lon="11.326587219607486"><ele>209.0</ele><time>2026-04-09T14:55:52Z</time></trkpt><trkpt lat="43.955873336516056" lon="11.326385952442282"><ele>209.0</ele><time>2026-04-09T14:55:53Z</time></trkpt><trkpt lat="43.95586204017582" lon="11.326189807394899"><ele>209.0</ele><time>2026-04-09T14:55:54Z</time></trkpt><trkpt lat="43.95583974052357" lon="11.325991790114179"><ele>210.5</ele><time>2026-04-09T14:55:55Z</time></trkpt><trkpt lat="43.955812791445986" lon="11.325795369336602"><ele>212.0</ele><time>2026-04-09T14:55:56Z</time></trkpt><trkpt lat="43.955785412566065" lon="11.32559725918627"><ele>213.5</ele><time>2026-04-09T14:55:57Z</time></trkpt><trkpt lat="43.955759060157995" lon="11.325399593222441"><ele>215.0</ele><time>2026-04-09T14:55:58Z</time></trkpt><trkpt lat="43.95573223791812" lon="11.325201443203442"><ele>216.25</ele><time>2026-04-09T14:55:59Z</time></trkpt><trkpt lat="43.95570593390576" lon="11.325001568812835"><ele>217.5</ele><time>2026-04-09T14:56:00Z</time></trkpt><trkpt lat="43.955681154660574" lon="11.324803905941073"><ele>218.75</ele><time>2026-04-09T14:56:01Z</time></trkpt><trkpt lat="43.95565673097777" lon="11.324602791033744"><ele>220.0</ele><time>2026-04-09T14:56:02Z</time></trkpt><trkpt lat="43.95563117451574" lon="11.324404304948224"><ele>220.75</ele><time>2026-04-09T14:56:03Z</time></trkpt><trkpt lat="43.955605177982946" lon="11.324204981691679"><ele>221.5</ele><time>2026-04-09T14:56:04Z</time></trkpt><trkpt lat="43.955581304649144" lon="11.324007153565827"><ele>222.25</ele><time>2026-04-09T14:56:05Z</time></trkpt><trkpt lat="43.95555944291738" lon="11.32380506818442"><ele>223.0</ele><time>2026-04-09T14:56:06Z</time></trkpt><trkpt lat="43.95553956133635" lon="11.323601360419262"><ele>224.0</ele><time>2026-04-09T14:56:07Z</time></trkpt><trkpt lat="43.955523360844644" lon="11.323405471107868"><ele>225.0</ele><time>2026-04-09T14:56:08Z</time></trkpt><trkpt lat="43.955540901700395" lon="11.323195351026964"><ele>226.0</ele><time>2026-04-09T14:56:09Z</time></trkpt><trkpt lat="43.95556056935592" lon="11.322996453977781"><ele>227.0</ele><time>2026-04-09T14:56:10Z</time></trkpt><trkpt lat="43.955587803794224" lon="11.32279555914479"><ele>227.25</ele><time>2026-04-09T14:56:11Z</time></trkpt><trkpt lat="43.95560507299957" lon="11.322593978055135"><ele>227.5</ele><time>2026-04-09T14:56:12Z</time></trkpt><trkpt lat="43.955642772210055" lon="11.322392640969271"><ele>227.75</ele><time>2026-04-09T14:56:13Z</time></trkpt><trkpt lat="43.955675424379564" lon="11.322187778347944"><ele>228.0</ele><time>2026-04-09T14:56:14Z</time></trkpt><trkpt lat="43.95570631564595" lon="11.321982285373743"><ele>227.0</ele><time>2026-04-09T14:56:15Z</time></trkpt><trkpt lat="43.955736764382415" lon="11.321775944122631"><ele>226.0</ele><time>2026-04-09T14:56:16Z</time></trkpt><trkpt lat="43.95576653943119" lon="11.321570213675122"><ele>225.0</ele><time>2026-04-09T14:56:17Z</time></trkpt><trkpt lat="43.95579552780717" lon="11.32136981381937"><ele>224.25</ele><time>2026-04-09T14:56:18Z</time></trkpt><trkpt lat="43.95582777312176" lon="11.321166306565317"><ele>223.5</ele><time>2026-04-09T14:56:19Z</time></trkpt><trkpt lat="43.95586017357462" lon="11.320965077646388"><ele>222.75</ele><time>2026-04-09T14:56:20Z</time></trkpt><trkpt lat="43.9558901590323" lon="11.320763841358469"><ele>222.0</ele><time>2026-04-09T14:56:21Z</time></trkpt><trkpt lat="43.95592110500864" lon="11.320568884999938"><ele>219.5</ele><time>2026-04-09T14:56:22Z</time></trkpt><trkpt lat="43.955950656122255" lon="11.320372194994597"><ele>217.0</ele><time>2026-04-09T14:56:23Z</time></trkpt><trkpt lat="43.95598439126685" lon="11.32016831692368"><ele>214.5</ele><time>2026-04-09T14:56:24Z</time></trkpt><trkpt lat="43.95601831977598" lon="11.319962169822713"><ele>212.0</ele><time>2026-04-09T14:56:25Z</time></trkpt><trkpt lat="43.956052288130394" lon="11.319750321325653"><ele>213.66666666666669</ele><time>2026-04-09T14:56:26Z</time></trkpt><trkpt lat="43.95608452723439" lon="11.319543218925691"><ele>215.33333333333331</ele><time>2026-04-09T14:56:27Z</time></trkpt><trkpt lat="43.95611814056365" lon="11.319333588649958"><ele>217.0</ele><time>2026-04-09T14:56:28Z</time></trkpt><trkpt lat="43.95615095795743" lon="11.319127885220494"><ele>217.0</ele><time>2026-04-09T14:56:29Z</time></trkpt><trkpt lat="43.95618278453532" lon="11.31892881521965"><ele>217.0</ele><time>2026-04-09T14:56:30Z</time></trkpt><trkpt lat="43.95620736137591" lon="11.318727488095929"><ele>217.0</ele><time>2026-04-09T14:56:31Z</time></trkpt><trkpt lat="43.95621728254479" lon="11.31852761213193"><ele>217.0</ele><time>2026-04-09T14:56:32Z</time></trkpt><trkpt lat="43.95621709962799" lon="11.318331060810443"><ele>217.25</ele><time>2026-04-09T14:56:33Z</time></trkpt><trkpt lat="43.95621138589712" lon="11.31813629519518"><ele>217.5</ele><time>2026-04-09T14:56:34Z</time></trkpt><trkpt lat="43.95619516438538" lon="11.317944191360208"><ele>217.75</ele><time>2026-04-09T14:56:35Z</time></trkpt><trkpt lat="43.95616406801392" lon="11.317760732567793"><ele>218.0</ele><time>2026-04-09T14:56:36Z</time></trkpt><trkpt lat="43.956119662467586" lon="11.317579528385142"><ele>218.0</ele><time>2026-04-09T14:56:37Z</time></trkpt><trkpt lat="43.956062751136976" lon="11.317408371804875"><ele>218.0</ele><time>2026-04-09T14:56:38Z</time></trkpt><trkpt lat="43.9559972301523" lon="11.31724418450975"><ele>218.0</ele><time>2026-04-09T14:56:39Z</time></trkpt><trkpt lat="43.95592311748745" lon="11.317084758925352"><ele>218.0</ele><time>2026-04-09T14:56:40Z</time></trkpt><trkpt lat="43.95584247137628" lon="11.316934310923877"><ele>221.5</ele><time>2026-04-09T14:56:41Z</time></trkpt><trkpt lat="43.95574853393949" lon="11.316789939433718"><ele>225.0</ele><time>2026-04-09T14:56:42Z</time></trkpt><trkpt lat="43.95564157078933" lon="11.316656865774217"><ele>228.5</ele><time>2026-04-09T14:56:43Z</time></trkpt><trkpt lat="43.95552891931315" lon="11.316529883247528"><ele>232.0</ele><time>2026-04-09T14:56:44Z</time></trkpt><trkpt lat="43.955420895020566" lon="11.316405511664096"><ele>232.5</ele><time>2026-04-09T14:56:45Z</time></trkpt><trkpt lat="43.95531275839837" lon="11.316279591038814"><ele>233.0</ele><time>2026-04-09T14:56:46Z</time></trkpt><trkpt lat="43.9552026582728" lon="11.316150417896477"><ele>233.5</ele><time>2026-04-09T14:56:47.022Z</time></trkpt><trkpt lat="43.955095679961154" lon="11.316023090222785"><ele>234.0</ele><time>2026-04-09T14:56:48.021Z</time></trkpt><trkpt lat="43.954987830859395" lon="11.315895340000528"><ele>234.0</ele><time>2026-04-09T14:56:49.021Z</time></trkpt><trkpt lat="43.95487908054611" lon="11.315768347559782"><ele>234.0</ele><time>2026-04-09T14:56:50.022Z</time></trkpt><trkpt lat="43.95476938077845" lon="11.315642751970982"><ele>234.0</ele><time>2026-04-09T14:56:51.015Z</time></trkpt><trkpt lat="43.95466256756529" lon="11.315521870795074"><ele>234.0</ele><time>2026-04-09T14:56:52.015Z</time></trkpt><trkpt lat="43.9545545381024" lon="11.315396722737507"><ele>234.0</ele><time>2026-04-09T14:56:53.021Z</time></trkpt><trkpt lat="43.954447635334766" lon="11.315268016456018"><ele>234.0</ele><time>2026-04-09T14:56:54.021Z</time></trkpt><trkpt lat="43.95434214558486" lon="11.315136678164716"><ele>234.0</ele><time>2026-04-09T14:56:55.022Z</time></trkpt><trkpt lat="43.95386670086313" lon="11.3146983960161"><ele>229.33333333333331</ele><time>2026-04-09T14:56:57Z</time></trkpt><trkpt lat="43.953730452115764" lon="11.314548724847779"><ele>224.66666666666666</ele><time>2026-04-09T14:56:58Z</time></trkpt><trkpt lat="43.95358897524381" lon="11.31440999071193"><ele>220.0</ele><time>2026-04-09T14:56:59Z</time></trkpt><trkpt lat="43.95345468699535" lon="11.314252638926009"><ele>219.66666666666666</ele><time>2026-04-09T14:57:00Z</time></trkpt><trkpt lat="43.95332517743322" lon="11.31408538570578"><ele>219.33333333333331</ele><time>2026-04-09T14:57:01Z</time></trkpt><trkpt lat="43.9532252865544" lon="11.31388812123532"><ele>219.0</ele><time>2026-04-09T14:57:02Z</time></trkpt><trkpt lat="43.95312757580748" lon="11.313689824804698"><ele>219.0</ele><time>2026-04-09T14:57:03Z</time></trkpt><trkpt lat="43.95304711387186" lon="11.313483365660911"><ele>219.0</ele><time>2026-04-09T14:57:04Z</time></trkpt><trkpt lat="43.95298521870098" lon="11.313258903699335"><ele>219.0</ele><time>2026-04-09T14:57:05Z</time></trkpt><trkpt lat="43.952937283624976" lon="11.313023936885067"><ele>219.0</ele><time>2026-04-09T14:57:06Z</time></trkpt><trkpt lat="43.95289296360377" lon="11.312788801058852"><ele>219.0</ele><time>2026-04-09T14:57:07Z</time></trkpt><trkpt lat="43.95284341221149" lon="11.31258247928298"><ele>219.0</ele><time>2026-04-09T14:57:08Z</time></trkpt><trkpt lat="43.9528153420474" lon="11.312393662581602"><ele>220.25</ele><time>2026-04-09T14:57:09Z</time></trkpt><trkpt lat="43.952780779837234" lon="11.312206342883444"><ele>221.5</ele><time>2026-04-09T14:57:10Z</time></trkpt><trkpt lat="43.952744525618044" lon="11.312025085722572"><ele>222.75</ele><time>2026-04-09T14:57:11Z</time></trkpt><trkpt lat="43.952718125562996" lon="11.311871687629298"><ele>224.0</ele><time>2026-04-09T14:57:12Z</time></trkpt><trkpt lat="43.95270119918974" lon="11.311756189273433"><ele>224.0</ele><time>2026-04-09T14:57:13Z</time></trkpt><trkpt lat="43.952692971100774" lon="11.311618336309492"><ele>223.99999999999997</ele><time>2026-04-09T14:57:15Z</time></trkpt><trkpt lat="43.952726267402795" lon="11.311534676534976"><ele>223.99999999999997</ele><time>2026-04-09T14:57:17Z</time></trkpt><trkpt lat="43.952794153046774" lon="11.311358195329687"><ele>224.0</ele><time>2026-04-09T14:57:19Z</time></trkpt><trkpt lat="43.95280649933264" lon="11.311240692251486"><ele>224.0</ele><time>2026-04-09T14:57:20Z</time></trkpt><trkpt lat="43.952785745169244" lon="11.3111023508526"><ele>225.25</ele><time>2026-04-09T14:57:21Z</time></trkpt><trkpt lat="43.95272699389836" lon="11.310970602730196"><ele>226.5</ele><time>2026-04-09T14:57:22Z</time></trkpt><trkpt lat="43.95264142441775" lon="11.310864330525721"><ele>227.75</ele><time>2026-04-09T14:57:23Z</time></trkpt><trkpt lat="43.95254477115498" lon="11.310758456568058"><ele>229.0</ele><time>2026-04-09T14:57:24Z</time></trkpt><trkpt lat="43.952473598974024" lon="11.31060835107736"><ele>229.0</ele><time>2026-04-09T14:57:25Z</time></trkpt><trkpt lat="43.95245520177656" lon="11.310406357967347"><ele>229.0</ele><time>2026-04-09T14:57:26Z</time></trkpt><trkpt lat="43.95240921607602" lon="11.310211555368573"><ele>229.0</ele><time>2026-04-09T14:57:27Z</time></trkpt><trkpt lat="43.95237613375898" lon="11.310017100721993"><ele>229.0</ele><time>2026-04-09T14:57:28Z</time></trkpt><trkpt lat="43.95233915858097" lon="11.309823039482936"><ele>231.0</ele><time>2026-04-09T14:57:29Z</time></trkpt><trkpt lat="43.95230499627397" lon="11.309629092361762"><ele>233.0</ele><time>2026-04-09T14:57:30Z</time></trkpt><trkpt lat="43.952275330386136" lon="11.309428890493477"><ele>235.0</ele><time>2026-04-09T14:57:31Z</time></trkpt><trkpt lat="43.95224250091701" lon="11.309224426339979"><ele>237.0</ele><time>2026-04-09T14:57:32Z</time></trkpt><trkpt lat="43.95220796925381" lon="11.309025338116973"><ele>238.0</ele><time>2026-04-09T14:57:33Z</time></trkpt><trkpt lat="43.952174331826946" lon="11.30882629898862"><ele>239.0</ele><time>2026-04-09T14:57:34Z</time></trkpt><trkpt lat="43.9521431276082" lon="11.308620640752912"><ele>240.0</ele><time>2026-04-09T14:57:35Z</time></trkpt><trkpt lat="43.952109379308816" lon="11.308417449470888"><ele>241.0</ele><time>2026-04-09T14:57:36Z</time></trkpt><trkpt lat="43.952077695633406" lon="11.308221121198232"><ele>241.0</ele><time>2026-04-09T14:57:37Z</time></trkpt><trkpt lat="43.95206320331423" lon="11.308033959010348"><ele>241.0</ele><time>2026-04-09T14:57:38Z</time></trkpt><trkpt lat="43.952076474840105" lon="11.30784869403628"><ele>241.0</ele><time>2026-04-09T14:57:39Z</time></trkpt><trkpt lat="43.95211184440678" lon="11.307678767334822"><ele>241.0</ele><time>2026-04-09T14:57:40Z</time></trkpt><trkpt lat="43.95216219326021" lon="11.307533123936361"><ele>241.0</ele><time>2026-04-09T14:57:41Z</time></trkpt><trkpt lat="43.952230131086544" lon="11.30741311861333"><ele>241.0</ele><time>2026-04-09T14:57:42Z</time></trkpt><trkpt lat="43.95231479527995" lon="11.30731073278929"><ele>241.0</ele><time>2026-04-09T14:57:43Z</time></trkpt><trkpt lat="43.95241318130808" lon="11.307220095724094"><ele>241.0</ele><time>2026-04-09T14:57:44Z</time></trkpt><trkpt lat="43.9525204327664" lon="11.307130291425228"><ele>244.0</ele><time>2026-04-09T14:57:45Z</time></trkpt><trkpt lat="43.95263859600916" lon="11.307042177322606"><ele>247.0</ele><time>2026-04-09T14:57:46Z</time></trkpt><trkpt lat="43.952766608857075" lon="11.306949854192279"><ele>250.0</ele><time>2026-04-09T14:57:47Z</time></trkpt><trkpt lat="43.95289928166391" lon="11.306847243108884"><ele>253.0</ele><time>2026-04-09T14:57:48Z</time></trkpt><trkpt lat="43.95303271114252" lon="11.30674107732059"><ele>253.0</ele><time>2026-04-09T14:57:49Z</time></trkpt><trkpt lat="43.95315560799758" lon="11.3066456309235"><ele>253.0</ele><time>2026-04-09T14:57:50Z</time></trkpt><trkpt lat="43.95326744381944" lon="11.306563841618932"><ele>253.0</ele><time>2026-04-09T14:57:51Z</time></trkpt><trkpt lat="43.95338210589116" lon="11.306487038838677"><ele>253.0</ele><time>2026-04-09T14:57:52Z</time></trkpt><trkpt lat="43.95350943736689" lon="11.30642471110392"><ele>253.5</ele><time>2026-04-09T14:57:53Z</time></trkpt><trkpt lat="43.95364856405129" lon="11.306392203124446"><ele>254.0</ele><time>2026-04-09T14:57:54Z</time></trkpt><trkpt lat="43.95379653662057" lon="11.3063813667847"><ele>254.5</ele><time>2026-04-09T14:57:55Z</time></trkpt><trkpt lat="43.95395634645446" lon="11.306380268522444"><ele>255.0</ele><time>2026-04-09T14:57:56Z</time></trkpt><trkpt lat="43.95411705294347" lon="11.306364631992237"><ele>255.33333333333331</ele><time>2026-04-09T14:57:57Z</time></trkpt><trkpt lat="43.95427808009862" lon="11.306323350098294"><ele>255.66666666666666</ele><time>2026-04-09T14:57:58Z</time></trkpt><trkpt lat="43.95443676000133" lon="11.306262051477859"><ele>256.0</ele><time>2026-04-09T14:57:59Z</time></trkpt><trkpt lat="43.954599774294806" lon="11.30618686435414"><ele>256.0</ele><time>2026-04-09T14:58:00Z</time></trkpt><trkpt lat="43.95476008426125" lon="11.306104375567754"><ele>256.0</ele><time>2026-04-09T14:58:01Z</time></trkpt><trkpt lat="43.95491942214075" lon="11.306021020616106"><ele>256.0</ele><time>2026-04-09T14:58:02Z</time></trkpt><trkpt lat="43.95506285171214" lon="11.30594592469822"><ele>254.5</ele><time>2026-04-09T14:58:03Z</time></trkpt><trkpt lat="43.9551936641397" lon="11.3058752664578"><ele>253.0</ele><time>2026-04-09T14:58:04Z</time></trkpt><trkpt lat="43.95531284686616" lon="11.305808998960867"><ele>251.5</ele><time>2026-04-09T14:58:05Z</time></trkpt><trkpt lat="43.95541970710692" lon="11.305767612675378"><ele>250.0</ele><time>2026-04-09T14:58:06Z</time></trkpt><trkpt lat="43.95552195786839" lon="11.305748586703723"><ele>250.0</ele><time>2026-04-09T14:58:07Z</time></trkpt><trkpt lat="43.955625677099235" lon="11.305778599861922"><ele>250.0</ele><time>2026-04-09T14:58:08Z</time></trkpt><trkpt lat="43.95573348086439" lon="11.305838233823394"><ele>250.0</ele><time>2026-04-09T14:58:09Z</time></trkpt><trkpt lat="43.95585444278195" lon="11.305928258244014"><ele>250.0</ele><time>2026-04-09T14:58:10Z</time></trkpt><trkpt lat="43.955976187361316" lon="11.306027062766733"><ele>246.0</ele><time>2026-04-09T14:58:11Z</time></trkpt><trkpt lat="43.956110088380825" lon="11.306116710891006"><ele>242.0</ele><time>2026-04-09T14:58:12Z</time></trkpt><trkpt lat="43.95625901582449" lon="11.306186956291569"><ele>238.0</ele><time>2026-04-09T14:58:13Z</time></trkpt><trkpt lat="43.95641997483764" lon="11.30622206388294"><ele>238.0</ele><time>2026-04-09T14:58:14Z</time></trkpt><trkpt lat="43.95658706221354" lon="11.306224327575022"><ele>238.0</ele><time>2026-04-09T14:58:15Z</time></trkpt><trkpt lat="43.95676153196416" lon="11.306200961649292"><ele>238.0</ele><time>2026-04-09T14:58:16Z</time></trkpt><trkpt lat="43.95696058049937" lon="11.306161210276057"><ele>235.5</ele><time>2026-04-09T14:58:17.001Z</time></trkpt><trkpt lat="43.95718128420032" lon="11.306151550115892"><ele>233.0</ele><time>2026-04-09T14:58:18.001Z</time></trkpt><trkpt lat="43.95741565031406" lon="11.30612447238701"><ele>232.5</ele><time>2026-04-09T14:58:19.001Z</time></trkpt><trkpt lat="43.95768143385585" lon="11.306093764800027"><ele>232.0</ele><time>2026-04-09T14:58:20.001Z</time></trkpt><trkpt lat="43.957955153380645" lon="11.30606438120578"><ele>232.0</ele><time>2026-04-09T14:58:21.001Z</time></trkpt><trkpt lat="43.95820976421621" lon="11.306014481509735"><ele>232.0</ele><time>2026-04-09T14:58:22.001Z</time></trkpt><trkpt lat="43.95843012679538" lon="11.306007972459701"><ele>230.0</ele><time>2026-04-09T14:58:23.001Z</time></trkpt><trkpt lat="43.95862306444447" lon="11.305995075295566"><ele>228.0</ele><time>2026-04-09T14:58:24.001Z</time></trkpt><trkpt lat="43.95881837220571" lon="11.305958342742658"><ele>226.0</ele><time>2026-04-09T14:58:25.001Z</time></trkpt><trkpt lat="43.95902156021431" lon="11.30588087807461"><ele>226.33333333333331</ele><time>2026-04-09T14:58:26.001Z</time></trkpt><trkpt lat="43.9592243624815" lon="11.305777624078518"><ele>226.66666666666669</ele><time>2026-04-09T14:58:27.001Z</time></trkpt><trkpt lat="43.9594278259971" lon="11.305672354033169"><ele>227.0</ele><time>2026-04-09T14:58:28.001Z</time></trkpt><trkpt lat="43.959630560878985" lon="11.305561784536675"><ele>224.66666666666669</ele><time>2026-04-09T14:58:29.001Z</time></trkpt><trkpt lat="43.959825056707665" lon="11.305451368337328"><ele>222.33333333333331</ele><time>2026-04-09T14:58:30.001Z</time></trkpt><trkpt lat="43.96000880901294" lon="11.305332548448984"><ele>220.0</ele><time>2026-04-09T14:58:31.001Z</time></trkpt><trkpt lat="43.960184674205635" lon="11.305199765036267"><ele>219.66666666666666</ele><time>2026-04-09T14:58:32.001Z</time></trkpt><trkpt lat="43.96035469430317" lon="11.305050049838117"><ele>219.33333333333331</ele><time>2026-04-09T14:58:33.001Z</time></trkpt><trkpt lat="43.960511946217615" lon="11.304893021127931"><ele>219.0</ele><time>2026-04-09T14:58:34.001Z</time></trkpt><trkpt lat="43.96065435195965" lon="11.304725657413831"><ele>217.0</ele><time>2026-04-09T14:58:35.001Z</time></trkpt><trkpt lat="43.9607740771689" lon="11.304551117284015"><ele>215.0</ele><time>2026-04-09T14:58:36.001Z</time></trkpt><trkpt lat="43.960883430454345" lon="11.304351981352047"><ele>213.0</ele><time>2026-04-09T14:58:37.001Z</time></trkpt><trkpt lat="43.96098823895717" lon="11.304142439550018"><ele>213.0</ele><time>2026-04-09T14:58:38Z</time></trkpt><trkpt lat="43.961096783143695" lon="11.303943284056759"><ele>213.0</ele><time>2026-04-09T14:58:39Z</time></trkpt><trkpt lat="43.96121075919264" lon="11.303749326289362"><ele>213.0</ele><time>2026-04-09T14:58:40Z</time></trkpt><trkpt lat="43.96132158253251" lon="11.303554459072632"><ele>213.0</ele><time>2026-04-09T14:58:41Z</time></trkpt><trkpt lat="43.961431554823136" lon="11.30335726374782"><ele>213.0</ele><time>2026-04-09T14:58:42Z</time></trkpt><trkpt lat="43.96153744645197" lon="11.303162827619472"><ele>213.0</ele><time>2026-04-09T14:58:43Z</time></trkpt><trkpt lat="43.961645345242346" lon="11.302980458169273"><ele>212.33333333333331</ele><time>2026-04-09T14:58:44Z</time></trkpt><trkpt lat="43.96174918948563" lon="11.302801803458651"><ele>211.66666666666666</ele><time>2026-04-09T14:58:45Z</time></trkpt><trkpt lat="43.96183923758516" lon="11.302628093235242"><ele>211.0</ele><time>2026-04-09T14:58:46Z</time></trkpt><trkpt lat="43.96191339396949" lon="11.302467312434407"><ele>211.0</ele><time>2026-04-09T14:58:47Z</time></trkpt><trkpt lat="43.96198960682468" lon="11.30231131979037"><ele>211.0</ele><time>2026-04-09T14:58:48Z</time></trkpt><trkpt lat="43.96208044874945" lon="11.302157334156485"><ele>211.0</ele><time>2026-04-09T14:58:49Z</time></trkpt><trkpt lat="43.96220335626276" lon="11.302028775571278"><ele>211.0</ele><time>2026-04-09T14:58:50Z</time></trkpt><trkpt lat="43.96234139110999" lon="11.301937887390494"><ele>212.33333333333331</ele><time>2026-04-09T14:58:51Z</time></trkpt><trkpt lat="43.962496427864416" lon="11.30190761226942"><ele>213.66666666666669</ele><time>2026-04-09T14:58:52Z</time></trkpt><trkpt lat="43.962649945145614" lon="11.301860521209065"><ele>215.0</ele><time>2026-04-09T14:58:53Z</time></trkpt><trkpt lat="43.96280418641863" lon="11.301856317411278"><ele>215.0</ele><time>2026-04-09T14:58:54Z</time></trkpt><trkpt lat="43.962946544827254" lon="11.301837305158855"><ele>215.0</ele><time>2026-04-09T14:58:55Z</time></trkpt><trkpt lat="43.96307561232908" lon="11.301795367012634"><ele>215.0</ele><time>2026-04-09T14:58:56Z</time></trkpt><trkpt lat="43.96319910105622" lon="11.301720539400556"><ele>215.0</ele><time>2026-04-09T14:58:57Z</time></trkpt><trkpt lat="43.96330926857608" lon="11.301611587380261"><ele>215.0</ele><time>2026-04-09T14:58:58Z</time></trkpt><trkpt lat="43.963412604458625" lon="11.301481404725019"><ele>215.0</ele><time>2026-04-09T14:58:59Z</time></trkpt><trkpt lat="43.963514900057135" lon="11.30134493964232"><ele>215.0</ele><time>2026-04-09T14:59:00Z</time></trkpt><trkpt lat="43.963614424593985" lon="11.301213083754288"><ele>215.0</ele><time>2026-04-09T14:59:01Z</time></trkpt><trkpt lat="43.96371490860571" lon="11.301085899490108"><ele>215.0</ele><time>2026-04-09T14:59:02Z</time></trkpt><trkpt lat="43.96380939833926" lon="11.300966149914517"><ele>215.0</ele><time>2026-04-09T14:59:03Z</time></trkpt><trkpt lat="43.96390260699026" lon="11.300845661081501"><ele>215.0</ele><time>2026-04-09T14:59:04Z</time></trkpt><trkpt lat="43.96399594005437" lon="11.300726280034372"><ele>215.0</ele><time>2026-04-09T14:59:05Z</time></trkpt><trkpt lat="43.96408980323185" lon="11.300609513343204"><ele>215.0</ele><time>2026-04-09T14:59:06Z</time></trkpt><trkpt lat="43.96418132013865" lon="11.300493814077592"><ele>215.0</ele><time>2026-04-09T14:59:07Z</time></trkpt><trkpt lat="43.964270265205364" lon="11.300378413838946"><ele>215.0</ele><time>2026-04-09T14:59:08Z</time></trkpt><trkpt lat="43.96435891325291" lon="11.30026444789079"><ele>215.0</ele><time>2026-04-09T14:59:09Z</time></trkpt><trkpt lat="43.964443947157505" lon="11.30015458007235"><ele>215.0</ele><time>2026-04-09T14:59:10Z</time></trkpt><trkpt lat="43.96452992787607" lon="11.30004950296811"><ele>215.0</ele><time>2026-04-09T14:59:11Z</time></trkpt><trkpt lat="43.96462051277489" lon="11.299944010848526"><ele>215.0</ele><time>2026-04-09T14:59:12Z</time></trkpt><trkpt lat="43.964700021937446" lon="11.299831544997506"><ele>215.0</ele><time>2026-04-09T14:59:13Z</time></trkpt><trkpt lat="43.964785755082815" lon="11.299705424471782"><ele>215.4</ele><time>2026-04-09T14:59:14Z</time></trkpt><trkpt lat="43.964863787401605" lon="11.299591744496084"><ele>215.8</ele><time>2026-04-09T14:59:15Z</time></trkpt><trkpt lat="43.96491929013073" lon="11.29947883027675"><ele>216.2</ele><time>2026-04-09T14:59:16Z</time></trkpt><trkpt lat="43.96495562066224" lon="11.299354722133515"><ele>216.6</ele><time>2026-04-09T14:59:17Z</time></trkpt><trkpt lat="43.96497803508444" lon="11.299209242088597"><ele>217.0</ele><time>2026-04-09T14:59:18Z</time></trkpt><trkpt lat="43.964984401214835" lon="11.299045242624025"><ele>217.5</ele><time>2026-04-09T14:59:19Z</time></trkpt><trkpt lat="43.96497904110188" lon="11.298870403134083"><ele>218.0</ele><time>2026-04-09T14:59:20Z</time></trkpt><trkpt lat="43.96496498074344" lon="11.29868086392509"><ele>218.5</ele><time>2026-04-09T14:59:21Z</time></trkpt><trkpt lat="43.9649491981569" lon="11.298491301231191"><ele>219.0</ele><time>2026-04-09T14:59:22Z</time></trkpt><trkpt lat="43.96493658095017" lon="11.298303713906142"><ele>219.0</ele><time>2026-04-09T14:59:23Z</time></trkpt><trkpt lat="43.964927820721215" lon="11.298119656146858"><ele>219.0</ele><time>2026-04-09T14:59:24Z</time></trkpt><trkpt lat="43.96492064429838" lon="11.297944493730553"><ele>219.0</ele><time>2026-04-09T14:59:25Z</time></trkpt><trkpt lat="43.9649120253007" lon="11.297767497092085"><ele>219.0</ele><time>2026-04-09T14:59:26Z</time></trkpt><trkpt lat="43.964900398577676" lon="11.297595578841785"><ele>219.75</ele><time>2026-04-09T14:59:27Z</time></trkpt><trkpt lat="43.96488878597301" lon="11.297429036084887"><ele>220.5</ele><time>2026-04-09T14:59:28Z</time></trkpt><trkpt lat="43.96487817061173" lon="11.297269772168574"><ele>221.25</ele><time>2026-04-09T14:59:29Z</time></trkpt><trkpt lat="43.96486965558746" lon="11.297107986053955"><ele>222.0</ele><time>2026-04-09T14:59:30Z</time></trkpt><trkpt lat="43.964862448467755" lon="11.296948555745836"><ele>222.6</ele><time>2026-04-09T14:59:31Z</time></trkpt><trkpt lat="43.964855513996284" lon="11.296792967423432"><ele>223.2</ele><time>2026-04-09T14:59:32Z</time></trkpt><trkpt lat="43.96484729166362" lon="11.296639372191393"><ele>223.8</ele><time>2026-04-09T14:59:33Z</time></trkpt><trkpt lat="43.964840657848214" lon="11.296501264657868"><ele>224.4</ele><time>2026-04-09T14:59:34Z</time></trkpt><trkpt lat="43.96483985257523" lon="11.296380202700307"><ele>225.0</ele><time>2026-04-09T14:59:35Z</time></trkpt><trkpt lat="43.96485955872543" lon="11.296264571244402"><ele>225.2</ele><time>2026-04-09T14:59:36Z</time></trkpt><trkpt lat="43.96490520198077" lon="11.29615236351646"><ele>225.4</ele><time>2026-04-09T14:59:37Z</time></trkpt><trkpt lat="43.96497553138928" lon="11.296059797119472"><ele>225.60000000000002</ele><time>2026-04-09T14:59:38Z</time></trkpt><trkpt lat="43.965060015346424" lon="11.295971379571968"><ele>225.8</ele><time>2026-04-09T14:59:39Z</time></trkpt><trkpt lat="43.965150729961934" lon="11.295877389021113"><ele>226.0</ele><time>2026-04-09T14:59:40Z</time></trkpt><trkpt lat="43.96524664130193" lon="11.295776551921751"><ele>226.0</ele><time>2026-04-09T14:59:41Z</time></trkpt><trkpt lat="43.96534241779294" lon="11.295676032760458"><ele>226.0</ele><time>2026-04-09T14:59:42Z</time></trkpt><trkpt lat="43.96543889681167" lon="11.295573566802885"><ele>226.0</ele><time>2026-04-09T14:59:43Z</time></trkpt><trkpt lat="43.96553434576236" lon="11.29547646691058"><ele>226.0</ele><time>2026-04-09T14:59:44Z</time></trkpt><trkpt lat="43.96563112996748" lon="11.295382230385856"><ele>226.25</ele><time>2026-04-09T14:59:45Z</time></trkpt><trkpt lat="43.965733925840794" lon="11.295287317040264"><ele>226.5</ele><time>2026-04-09T14:59:46Z</time></trkpt><trkpt lat="43.965842275538165" lon="11.295196994571068"><ele>226.75</ele><time>2026-04-09T14:59:47Z</time></trkpt><trkpt lat="43.96595134847356" lon="11.295106806353871"><ele>227.0</ele><time>2026-04-09T14:59:48Z</time></trkpt><trkpt lat="43.96606242131664" lon="11.295011246137127"><ele>227.0</ele><time>2026-04-09T14:59:49Z</time></trkpt><trkpt lat="43.96617496490449" lon="11.29491853565899"><ele>227.0</ele><time>2026-04-09T14:59:50Z</time></trkpt><trkpt lat="43.96629091842434" lon="11.294812934505586"><ele>227.0</ele><time>2026-04-09T14:59:51Z</time></trkpt><trkpt lat="43.96640604973316" lon="11.294703031373743"><ele>227.0</ele><time>2026-04-09T14:59:52Z</time></trkpt><trkpt lat="43.966528370764934" lon="11.294598802380468"><ele>227.0</ele><time>2026-04-09T14:59:53Z</time></trkpt><trkpt lat="43.96664893869749" lon="11.294490229315679"><ele>227.0</ele><time>2026-04-09T14:59:54Z</time></trkpt><trkpt lat="43.96677198089906" lon="11.29437760369492"><ele>227.0</ele><time>2026-04-09T14:59:55Z</time></trkpt><trkpt lat="43.9668966937684" lon="11.294269174121924"><ele>227.0</ele><time>2026-04-09T14:59:56Z</time></trkpt><trkpt lat="43.967020023828745" lon="11.294157334140749"><ele>226.75</ele><time>2026-04-09T14:59:57Z</time></trkpt><trkpt lat="43.96714075055323" lon="11.294047745261599"><ele>226.5</ele><time>2026-04-09T14:59:58Z</time></trkpt><trkpt lat="43.96726744687366" lon="11.293940303528107"><ele>226.25</ele><time>2026-04-09T14:59:59Z</time></trkpt><trkpt lat="43.96739340640697" lon="11.29382976872198"><ele>226.0</ele><time>2026-04-09T15:00:00Z</time></trkpt><trkpt lat="43.96751950828663" lon="11.293716174343205"><ele>225.66666666666666</ele><time>2026-04-09T15:00:01Z</time></trkpt><trkpt lat="43.96764636085122" lon="11.293602751896275"><ele>225.33333333333331</ele><time>2026-04-09T15:00:02Z</time></trkpt><trkpt lat="43.96777688694783" lon="11.293488083781401"><ele>225.0</ele><time>2026-04-09T15:00:03Z</time></trkpt><trkpt lat="43.96790934829318" lon="11.293372197011896"><ele>225.0</ele><time>2026-04-09T15:00:04Z</time></trkpt><trkpt lat="43.96804294250702" lon="11.293254282469839"><ele>225.0</ele><time>2026-04-09T15:00:05Z</time></trkpt><trkpt lat="43.968178648676684" lon="11.293134849254546"><ele>225.0</ele><time>2026-04-09T15:00:06Z</time></trkpt><trkpt lat="43.96831224282221" lon="11.293015821909568"><ele>224.66666666666669</ele><time>2026-04-09T15:00:07Z</time></trkpt><trkpt lat="43.96845332316994" lon="11.292884154020042"><ele>224.33333333333334</ele><time>2026-04-09T15:00:08Z</time></trkpt><trkpt lat="43.96860049839283" lon="11.292756704330463"><ele>224.0</ele><time>2026-04-09T15:00:09Z</time></trkpt><trkpt lat="43.9687542970241" lon="11.292618580216976"><ele>224.0</ele><time>2026-04-09T15:00:10Z</time></trkpt><trkpt lat="43.968910538733844" lon="11.292476686050376"><ele>224.0</ele><time>2026-04-09T15:00:11Z</time></trkpt><trkpt lat="43.96906764580436" lon="11.29234053276661"><ele>224.0</ele><time>2026-04-09T15:00:12Z</time></trkpt><trkpt lat="43.969223502936224" lon="11.292198724029666"><ele>224.0</ele><time>2026-04-09T15:00:13Z</time></trkpt><trkpt lat="43.96938037615607" lon="11.29205987679341"><ele>224.0</ele><time>2026-04-09T15:00:14Z</time></trkpt><trkpt lat="43.969535007092894" lon="11.291925085839097"><ele>224.0</ele><time>2026-04-09T15:00:15Z</time></trkpt><trkpt lat="43.96967344187181" lon="11.291799670060021"><ele>224.0</ele><time>2026-04-09T15:00:16Z</time></trkpt><trkpt lat="43.96980418867361" lon="11.291682281102208"><ele>224.0</ele><time>2026-04-09T15:00:17Z</time></trkpt><trkpt lat="43.969934209816806" lon="11.291561770214873"><ele>224.0</ele><time>2026-04-09T15:00:18Z</time></trkpt><trkpt lat="43.97006614341777" lon="11.291443859747309"><ele>223.66666666666669</ele><time>2026-04-09T15:00:19Z</time></trkpt><trkpt lat="43.97020128461256" lon="11.291323367287493"><ele>223.33333333333331</ele><time>2026-04-09T15:00:20Z</time></trkpt><trkpt lat="43.97034112664594" lon="11.2911991206805"><ele>223.0</ele><time>2026-04-09T15:00:21Z</time></trkpt><trkpt lat="43.97049033534352" lon="11.291071585483309"><ele>223.0</ele><time>2026-04-09T15:00:22Z</time></trkpt><trkpt lat="43.97064251223047" lon="11.290933204544178"><ele>223.0</ele><time>2026-04-09T15:00:23.001Z</time></trkpt><trkpt lat="43.97079560422626" lon="11.290789429113516"><ele>223.0</ele><time>2026-04-09T15:00:24.001Z</time></trkpt><trkpt lat="43.97096631495303" lon="11.290653972989286"><ele>222.66666666666666</ele><time>2026-04-09T15:00:25.001Z</time></trkpt><trkpt lat="43.971148815882835" lon="11.290491698613554"><ele>222.33333333333331</ele><time>2026-04-09T15:00:26.001Z</time></trkpt><trkpt lat="43.97134351576132" lon="11.290318579048385"><ele>222.0</ele><time>2026-04-09T15:00:27.001Z</time></trkpt><trkpt lat="43.971537097940256" lon="11.290146480306126"><ele>222.0</ele><time>2026-04-09T15:00:28.001Z</time></trkpt><trkpt lat="43.97172611842979" lon="11.289961256617925"><ele>222.0</ele><time>2026-04-09T15:00:29.001Z</time></trkpt><trkpt lat="43.97191187738655" lon="11.289804104812005"><ele>222.0</ele><time>2026-04-09T15:00:30.001Z</time></trkpt><trkpt lat="43.9720804397377" lon="11.289653673400696"><ele>222.0</ele><time>2026-04-09T15:00:31.001Z</time></trkpt><trkpt lat="43.972241958840335" lon="11.289510201922251"><ele>222.0</ele><time>2026-04-09T15:00:32.001Z</time></trkpt><trkpt lat="43.9723950751715" lon="11.289378538947881"><ele>222.0</ele><time>2026-04-09T15:00:33.001Z</time></trkpt><trkpt lat="43.972534885833106" lon="11.289263474862588"><ele>222.0</ele><time>2026-04-09T15:00:34.001Z</time></trkpt><trkpt lat="43.97264765277472" lon="11.289172212552014"><ele>222.0</ele><time>2026-04-09T15:00:35.001Z</time></trkpt><trkpt lat="43.97273299853232" lon="11.28911033821583"><ele>222.0</ele><time>2026-04-09T15:00:36.001Z</time></trkpt><trkpt lat="43.972796583903225" lon="11.289082089629353"><ele>222.0</ele><time>2026-04-09T15:00:37.001Z</time></trkpt><trkpt lat="43.97292523567798" lon="11.289054404859414"><ele>222.0</ele><time>2026-04-09T15:00:39.001Z</time></trkpt><trkpt lat="43.973038499343936" lon="11.289142975942015"><ele>222.0</ele><time>2026-04-09T15:00:40.001Z</time></trkpt><trkpt lat="43.973150624785106" lon="11.289188781310344"><ele>222.0</ele><time>2026-04-09T15:00:41.001Z</time></trkpt><trkpt lat="43.97324948012302" lon="11.289170022765312"><ele>222.0</ele><time>2026-04-09T15:00:42.001Z</time></trkpt><trkpt lat="43.97332970607663" lon="11.289081715384256"><ele>222.0</ele><time>2026-04-09T15:00:43Z</time></trkpt><trkpt lat="43.973390578950834" lon="11.28895179585415"><ele>222.0</ele><time>2026-04-09T15:00:44Z</time></trkpt><trkpt lat="43.97344046875956" lon="11.288797885931695"><ele>222.0</ele><time>2026-04-09T15:00:45Z</time></trkpt><trkpt lat="43.973419049317314" lon="11.288649849309735"><ele>222.0</ele><time>2026-04-09T15:00:46Z</time></trkpt><trkpt lat="43.97359479519675" lon="11.288543316346297"><ele>222.0</ele><time>2026-04-09T15:00:47Z</time></trkpt><trkpt lat="43.97371731472656" lon="11.288471700721646"><ele>222.0</ele><time>2026-04-09T15:00:48Z</time></trkpt><trkpt lat="43.97385793016266" lon="11.28841370525398"><ele>222.0</ele><time>2026-04-09T15:00:49Z</time></trkpt><trkpt lat="43.97400765544829" lon="11.288359406253356"><ele>222.0</ele><time>2026-04-09T15:00:50Z</time></trkpt><trkpt lat="43.974170950263165" lon="11.288308249465157"><ele>222.0</ele><time>2026-04-09T15:00:51Z</time></trkpt><trkpt lat="43.97434209147433" lon="11.28825456393698"><ele>222.66666666666669</ele><time>2026-04-09T15:00:52Z</time></trkpt><trkpt lat="43.97451241878887" lon="11.288204635698463"><ele>223.33333333333334</ele><time>2026-04-09T15:00:53Z</time></trkpt><trkpt lat="43.97468473338968" lon="11.288163218221676"><ele>224.0</ele><time>2026-04-09T15:00:54Z</time></trkpt><trkpt lat="43.97486387345805" lon="11.288132367993637"><ele>222.66666666666669</ele><time>2026-04-09T15:00:55Z</time></trkpt><trkpt lat="43.97505042483442" lon="11.288112346496836"><ele>221.33333333333331</ele><time>2026-04-09T15:00:56Z</time></trkpt><trkpt lat="43.97523790455953" lon="11.288097601097453"><ele>220.0</ele><time>2026-04-09T15:00:57Z</time></trkpt><trkpt lat="43.975416690698296" lon="11.288099134584513"><ele>220.0</ele><time>2026-04-09T15:00:58Z</time></trkpt><trkpt lat="43.97560399216118" lon="11.288100826900937"><ele>220.0</ele><time>2026-04-09T15:00:59Z</time></trkpt><trkpt lat="43.97579995266901" lon="11.288111044470092"><ele>220.0</ele><time>2026-04-09T15:01:00Z</time></trkpt><trkpt lat="43.976001076006" lon="11.288129739087191"><ele>220.66666666666666</ele><time>2026-04-09T15:01:01Z</time></trkpt><trkpt lat="43.97619040767267" lon="11.288159623798482"><ele>221.33333333333331</ele><time>2026-04-09T15:01:02Z</time></trkpt><trkpt lat="43.97639052060524" lon="11.288200207195718"><ele>222.0</ele><time>2026-04-09T15:01:03Z</time></trkpt><trkpt lat="43.97658410085111" lon="11.288246558035492"><ele>224.0</ele><time>2026-04-09T15:01:04Z</time></trkpt><trkpt lat="43.9767840272342" lon="11.288291367646899"><ele>226.0</ele><time>2026-04-09T15:01:05Z</time></trkpt><trkpt lat="43.9769744708977" lon="11.288328866636144"><ele>228.0</ele><time>2026-04-09T15:01:06Z</time></trkpt><trkpt lat="43.977173442111905" lon="11.288359402491595"><ele>228.0</ele><time>2026-04-09T15:01:07Z</time></trkpt><trkpt lat="43.97737208549575" lon="11.288390491879454"><ele>228.0</ele><time>2026-04-09T15:01:08Z</time></trkpt><trkpt lat="43.97756763752978" lon="11.288423377072457"><ele>228.0</ele><time>2026-04-09T15:01:09Z</time></trkpt><trkpt lat="43.97776496368911" lon="11.28845613049062"><ele>229.33333333333331</ele><time>2026-04-09T15:01:10Z</time></trkpt><trkpt lat="43.97795874000583" lon="11.288484108127593"><ele>230.66666666666666</ele><time>2026-04-09T15:01:11Z</time></trkpt><trkpt lat="43.97814475109399" lon="11.288505597038737"><ele>232.0</ele><time>2026-04-09T15:01:12Z</time></trkpt><trkpt lat="43.97833474472358" lon="11.288515174749886"><ele>233.66666666666666</ele><time>2026-04-09T15:01:13Z</time></trkpt><trkpt lat="43.97852157824414" lon="11.288520369330172"><ele>235.33333333333331</ele><time>2026-04-09T15:01:14Z</time></trkpt><trkpt lat="43.978706817484394" lon="11.288518014580221"><ele>237.0</ele><time>2026-04-09T15:01:15Z</time></trkpt><trkpt lat="43.97888755814909" lon="11.28850850122096"><ele>237.0</ele><time>2026-04-09T15:01:16Z</time></trkpt><trkpt lat="43.979070534134586" lon="11.288489127419163"><ele>237.0</ele><time>2026-04-09T15:01:17Z</time></trkpt><trkpt lat="43.979246968361345" lon="11.288474151000866"><ele>237.0</ele><time>2026-04-09T15:01:18Z</time></trkpt><trkpt lat="43.97942222902733" lon="11.2884534340874"><ele>237.66666666666669</ele><time>2026-04-09T15:01:19Z</time></trkpt><trkpt lat="43.979592649346856" lon="11.288420135319676"><ele>238.33333333333334</ele><time>2026-04-09T15:01:20Z</time></trkpt><trkpt lat="43.97975960094338" lon="11.288386484356113"><ele>239.0</ele><time>2026-04-09T15:01:21Z</time></trkpt><trkpt lat="43.97992353117407" lon="11.288341438803972"><ele>241.0</ele><time>2026-04-09T15:01:22Z</time></trkpt><trkpt lat="43.98008205613125" lon="11.28828294481011"><ele>243.0</ele><time>2026-04-09T15:01:23Z</time></trkpt><trkpt lat="43.98023850895683" lon="11.288206647114603"><ele>245.0</ele><time>2026-04-09T15:01:24Z</time></trkpt><trkpt lat="43.98038588709033" lon="11.28811297188227"><ele>244.66666666666669</ele><time>2026-04-09T15:01:25Z</time></trkpt><trkpt lat="43.98054004757749" lon="11.28801635212751"><ele>244.33333333333331</ele><time>2026-04-09T15:01:26Z</time></trkpt><trkpt lat="43.98068955099211" lon="11.287918944525135"><ele>244.0</ele><time>2026-04-09T15:01:27Z</time></trkpt><trkpt lat="43.98083598464562" lon="11.287804765112673"><ele>245.66666666666666</ele><time>2026-04-09T15:01:28Z</time></trkpt><trkpt lat="43.980976213229106" lon="11.287680239980556"><ele>247.33333333333331</ele><time>2026-04-09T15:01:29Z</time></trkpt><trkpt lat="43.98110736389067" lon="11.28754352906787"><ele>249.0</ele><time>2026-04-09T15:01:30Z</time></trkpt><trkpt lat="43.98123671119777" lon="11.287394630505032"><ele>247.0</ele><time>2026-04-09T15:01:31Z</time></trkpt><trkpt lat="43.98136091881228" lon="11.28724659047061"><ele>245.0</ele><time>2026-04-09T15:01:32Z</time></trkpt><trkpt lat="43.98148050245834" lon="11.287101779856515"><ele>243.0</ele><time>2026-04-09T15:01:33Z</time></trkpt><trkpt lat="43.981594830587724" lon="11.286945041525225"><ele>244.66666666666669</ele><time>2026-04-09T15:01:34Z</time></trkpt><trkpt lat="43.98170598828322" lon="11.2867813213522"><ele>246.33333333333334</ele><time>2026-04-09T15:01:35Z</time></trkpt><trkpt lat="43.98180596991274" lon="11.286613360043582"><ele>248.0</ele><time>2026-04-09T15:01:36Z</time></trkpt><trkpt lat="43.98190000604454" lon="11.28643492104776"><ele>249.0</ele><time>2026-04-09T15:01:37Z</time></trkpt><trkpt lat="43.98198395773874" lon="11.286259001273102"><ele>250.0</ele><time>2026-04-09T15:01:38Z</time></trkpt><trkpt lat="43.98206687471462" lon="11.286079423302583"><ele>251.0</ele><time>2026-04-09T15:01:39Z</time></trkpt><trkpt lat="43.982148130495325" lon="11.285901503506265"><ele>251.0</ele><time>2026-04-09T15:01:40Z</time></trkpt><trkpt lat="43.98222796710164" lon="11.285710330916995"><ele>251.0</ele><time>2026-04-09T15:01:41Z</time></trkpt><trkpt lat="43.982299415465135" lon="11.285514428845847"><ele>251.0</ele><time>2026-04-09T15:01:42Z</time></trkpt><trkpt lat="43.98236041900451" lon="11.285308941486697"><ele>252.33333333333334</ele><time>2026-04-09T15:01:43Z</time></trkpt><trkpt lat="43.98241646547109" lon="11.285089576688879"><ele>253.66666666666669</ele><time>2026-04-09T15:01:44Z</time></trkpt><trkpt lat="43.98247242433906" lon="11.284846104834784"><ele>255.0</ele><time>2026-04-09T15:01:45Z</time></trkpt><trkpt lat="43.98253077286045" lon="11.284571301180096"><ele>262.5</ele><time>2026-04-09T15:01:46Z</time></trkpt><trkpt lat="43.982585536986775" lon="11.284261829907534"><ele>270.0</ele><time>2026-04-09T15:01:47Z</time></trkpt><trkpt lat="43.98263176117371" lon="11.283924951466924"><ele>271.0</ele><time>2026-04-09T15:01:48Z</time></trkpt><trkpt lat="43.98266984268035" lon="11.283560208499951"><ele>272.0</ele><time>2026-04-09T15:01:49Z</time></trkpt><trkpt lat="43.982698424268236" lon="11.283179025498537"><ele>272.5</ele><time>2026-04-09T15:01:50Z</time></trkpt><trkpt lat="43.982713140778074" lon="11.282776819642281"><ele>273.0</ele><time>2026-04-09T15:01:51Z</time></trkpt><trkpt lat="43.98271928920018" lon="11.282369426297654"><ele>275.0</ele><time>2026-04-09T15:01:52Z</time></trkpt><trkpt lat="43.98272036202958" lon="11.281990705882313"><ele>277.0</ele><time>2026-04-09T15:01:53Z</time></trkpt><trkpt lat="43.982721129123064" lon="11.281637250734258"><ele>276.5</ele><time>2026-04-09T15:01:54Z</time></trkpt><trkpt lat="43.98272286994774" lon="11.281298554579015"><ele>276.0</ele><time>2026-04-09T15:01:55Z</time></trkpt><trkpt lat="43.982728214967395" lon="11.280977984494479"><ele>276.0</ele><time>2026-04-09T15:01:56Z</time></trkpt><trkpt lat="43.982743149640314" lon="11.280672821990954"><ele>276.0</ele><time>2026-04-09T15:01:57Z</time></trkpt><trkpt lat="43.982768739669396" lon="11.28038034120902"><ele>276.0</ele><time>2026-04-09T15:01:58Z</time></trkpt><trkpt lat="43.98281380469417" lon="11.280086096937731"><ele>268.3333333333333</ele><time>2026-04-09T15:01:59Z</time></trkpt><trkpt lat="43.98287986002369" lon="11.279791063049448"><ele>260.66666666666663</ele><time>2026-04-09T15:02:00Z</time></trkpt><trkpt lat="43.98295288877304" lon="11.279493445262878"><ele>253.0</ele><time>2026-04-09T15:02:01Z</time></trkpt><trkpt lat="43.98301804570255" lon="11.279190602083734"><ele>249.0</ele><time>2026-04-09T15:02:02Z</time></trkpt><trkpt lat="43.983080507749925" lon="11.278898673387669"><ele>245.0</ele><time>2026-04-09T15:02:03Z</time></trkpt><trkpt lat="43.983144795238054" lon="11.27860741026592"><ele>241.0</ele><time>2026-04-09T15:02:04Z</time></trkpt><trkpt lat="43.98320927690536" lon="11.278309610476555"><ele>241.0</ele><time>2026-04-09T15:02:05Z</time></trkpt><trkpt lat="43.98327147817" lon="11.278011878827837"><ele>241.0</ele><time>2026-04-09T15:02:06Z</time></trkpt><trkpt lat="43.98333362167272" lon="11.277711754257286"><ele>241.0</ele><time>2026-04-09T15:02:07Z</time></trkpt><trkpt lat="43.98339351656421" lon="11.277413479973298"><ele>244.0</ele><time>2026-04-09T15:02:08Z</time></trkpt><trkpt lat="43.98345219851524" lon="11.277122624463825"><ele>247.0</ele><time>2026-04-09T15:02:09Z</time></trkpt><trkpt lat="43.98351657178061" lon="11.276825908815905"><ele>250.0</ele><time>2026-04-09T15:02:10Z</time></trkpt><trkpt lat="43.98357991624006" lon="11.276534461781031"><ele>257.3333333333333</ele><time>2026-04-09T15:02:11Z</time></trkpt><trkpt lat="43.983641790047606" lon="11.276247556066192"><ele>264.6666666666667</ele><time>2026-04-09T15:02:12Z</time></trkpt><trkpt lat="43.98370474453784" lon="11.275967439543837"><ele>272.0</ele><time>2026-04-09T15:02:13Z</time></trkpt><trkpt lat="43.98376180363955" lon="11.275703267855452"><ele>272.6666666666667</ele><time>2026-04-09T15:02:14Z</time></trkpt><trkpt lat="43.98381954319767" lon="11.275464917427666"><ele>273.3333333333333</ele><time>2026-04-09T15:02:15Z</time></trkpt><trkpt lat="43.98388224015548" lon="11.27525306422453"><ele>274.0</ele><time>2026-04-09T15:02:16Z</time></trkpt><trkpt lat="43.983960845832115" lon="11.275058616914155"><ele>274.0</ele><time>2026-04-09T15:02:17Z</time></trkpt><trkpt lat="43.98405751640734" lon="11.274862232294705"><ele>274.0</ele><time>2026-04-09T15:02:18Z</time></trkpt><trkpt lat="43.98415858679375" lon="11.274677020656913"><ele>274.0</ele><time>2026-04-09T15:02:19Z</time></trkpt><trkpt lat="43.984264542060025" lon="11.274501355287589"><ele>277.0</ele><time>2026-04-09T15:02:20Z</time></trkpt><trkpt lat="43.98438531469011" lon="11.274340018142098"><ele>280.0</ele><time>2026-04-09T15:02:21Z</time></trkpt><trkpt lat="43.984513273339495" lon="11.274200870440971"><ele>283.0</ele><time>2026-04-09T15:02:22Z</time></trkpt><trkpt lat="43.98464345607497" lon="11.274081321387483"><ele>283.0</ele><time>2026-04-09T15:02:23Z</time></trkpt><trkpt lat="43.984774457007724" lon="11.273979628355978"><ele>283.0</ele><time>2026-04-09T15:02:24Z</time></trkpt><trkpt lat="43.98488894887796" lon="11.273845025686748"><ele>283.0</ele><time>2026-04-09T15:02:25Z</time></trkpt><trkpt lat="43.985048975814685" lon="11.273803596011092"><ele>283.0</ele><time>2026-04-09T15:02:26Z</time></trkpt><trkpt lat="43.98517668851436" lon="11.273746606772358"><ele>283.0</ele><time>2026-04-09T15:02:27Z</time></trkpt><trkpt lat="43.98529274196986" lon="11.273701490495787"><ele>283.0</ele><time>2026-04-09T15:02:28Z</time></trkpt><trkpt lat="43.98539868157476" lon="11.273665514637534"><ele>283.0</ele><time>2026-04-09T15:02:29Z</time></trkpt><trkpt lat="43.985499232703646" lon="11.273641863575417"><ele>283.0</ele><time>2026-04-09T15:02:30Z</time></trkpt><trkpt lat="43.98558761083763" lon="11.273632609475511"><ele>283.0</ele><time>2026-04-09T15:02:31Z</time></trkpt><trkpt lat="43.9856960670864" lon="11.273602280729515"><ele>283.0</ele><time>2026-04-09T15:02:33Z</time></trkpt><trkpt lat="43.98576716214665" lon="11.273586198367598"><ele>283.0</ele><time>2026-04-09T15:02:35Z</time></trkpt><trkpt lat="43.985825898592275" lon="11.27354559986239"><ele>283.0</ele><time>2026-04-09T15:03:51Z</time></trkpt><trkpt lat="43.98596731194001" lon="11.27350555579384"><ele>283.75</ele><time>2026-04-09T15:03:53Z</time></trkpt><trkpt lat="43.98605796106856" lon="11.273504286358614"><ele>284.5</ele><time>2026-04-09T15:03:54Z</time></trkpt><trkpt lat="43.986166025264396" lon="11.273490371813374"><ele>285.25</ele><time>2026-04-09T15:03:55Z</time></trkpt><trkpt lat="43.98630036611228" lon="11.273475265356"><ele>286.0</ele><time>2026-04-09T15:03:56Z</time></trkpt><trkpt lat="43.98643795901378" lon="11.27346002706463"><ele>286.0</ele><time>2026-04-09T15:03:57Z</time></trkpt><trkpt lat="43.98658429292683" lon="11.273442413444302"><ele>286.0</ele><time>2026-04-09T15:03:58Z</time></trkpt><trkpt lat="43.98674209961583" lon="11.273418401946005"><ele>286.0</ele><time>2026-04-09T15:03:59Z</time></trkpt><trkpt lat="43.986908443459455" lon="11.27339881725435"><ele>287.3333333333333</ele><time>2026-04-09T15:04:00Z</time></trkpt><trkpt lat="43.98707561489798" lon="11.273379359410905"><ele>288.6666666666667</ele><time>2026-04-09T15:04:01Z</time></trkpt><trkpt lat="43.98724967352266" lon="11.273358007786973"><ele>290.0</ele><time>2026-04-09T15:04:02Z</time></trkpt><trkpt lat="43.98742616447938" lon="11.273330268444777"><ele>293.33333333333337</ele><time>2026-04-09T15:04:03Z</time></trkpt><trkpt lat="43.9876044742371" lon="11.2733149056886"><ele>296.6666666666667</ele><time>2026-04-09T15:04:04Z</time></trkpt><trkpt lat="43.987781899336454" lon="11.273284282176867"><ele>300.0</ele><time>2026-04-09T15:04:05Z</time></trkpt><trkpt lat="43.98795005694236" lon="11.273251871625364"><ele>300.0</ele><time>2026-04-09T15:04:06Z</time></trkpt><trkpt lat="43.988092167612486" lon="11.273208025704877"><ele>300.0</ele><time>2026-04-09T15:04:07Z</time></trkpt><trkpt lat="43.988218080930345" lon="11.27316109399648"><ele>300.0</ele><time>2026-04-09T15:04:08Z</time></trkpt><trkpt lat="43.98833315860132" lon="11.27311263318596"><ele>300.0</ele><time>2026-04-09T15:04:09Z</time></trkpt><trkpt lat="43.98845188550028" lon="11.273063453961717"><ele>299.0</ele><time>2026-04-09T15:04:10Z</time></trkpt><trkpt lat="43.98856610131181" lon="11.272993509091137"><ele>298.0</ele><time>2026-04-09T15:04:11Z</time></trkpt><trkpt lat="43.98868491684785" lon="11.272919485461463"><ele>297.0</ele><time>2026-04-09T15:04:12Z</time></trkpt><trkpt lat="43.98880304409706" lon="11.272844047227421"><ele>296.0</ele><time>2026-04-09T15:04:13Z</time></trkpt><trkpt lat="43.98892150526793" lon="11.27277236903236"><ele>296.0</ele><time>2026-04-09T15:04:14Z</time></trkpt><trkpt lat="43.9890359031474" lon="11.272687212001756"><ele>296.0</ele><time>2026-04-09T15:04:15Z</time></trkpt><trkpt lat="43.98915305431774" lon="11.27261012663819"><ele>296.0</ele><time>2026-04-09T15:04:16Z</time></trkpt><trkpt lat="43.9892678094342" lon="11.272537049040801"><ele>296.0</ele><time>2026-04-09T15:04:17Z</time></trkpt><trkpt lat="43.98937436067078" lon="11.272451635396337"><ele>296.75</ele><time>2026-04-09T15:04:18Z</time></trkpt><trkpt lat="43.98947570707277" lon="11.272357786588545"><ele>297.5</ele><time>2026-04-09T15:04:19Z</time></trkpt><trkpt lat="43.989581031702954" lon="11.272257936239333"><ele>298.25</ele><time>2026-04-09T15:04:20Z</time></trkpt><trkpt lat="43.98968466803645" lon="11.272168447305551"><ele>299.0</ele><time>2026-04-09T15:04:21Z</time></trkpt><trkpt lat="43.98978140914588" lon="11.272064371120809"><ele>299.0</ele><time>2026-04-09T15:04:22Z</time></trkpt><trkpt lat="43.98987973394208" lon="11.27197183649558"><ele>299.0</ele><time>2026-04-09T15:04:23Z</time></trkpt><trkpt lat="43.98997457593024" lon="11.271886893209851"><ele>299.0</ele><time>2026-04-09T15:04:23.999Z</time></trkpt><trkpt lat="43.990076066854385" lon="11.27180416250152"><ele>299.0</ele><time>2026-04-09T15:04:24.999Z</time></trkpt><trkpt lat="43.99017474626148" lon="11.271718458111982"><ele>301.0</ele><time>2026-04-09T15:04:25.999Z</time></trkpt><trkpt lat="43.99027103079042" lon="11.271628021910058"><ele>303.0</ele><time>2026-04-09T15:04:26.999Z</time></trkpt><trkpt lat="43.99036856715116" lon="11.27153859650851"><ele>305.0</ele><time>2026-04-09T15:04:27.999Z</time></trkpt><trkpt lat="43.99046570212807" lon="11.271446802042405"><ele>307.0</ele><time>2026-04-09T15:04:28.999Z</time></trkpt><trkpt lat="43.99056352646205" lon="11.271350801490001"><ele>307.0</ele><time>2026-04-09T15:04:29.999Z</time></trkpt><trkpt lat="43.99066602403034" lon="11.271271018302965"><ele>307.0</ele><time>2026-04-09T15:04:30.999Z</time></trkpt><trkpt lat="43.990767848516086" lon="11.271184743146405"><ele>307.0</ele><time>2026-04-09T15:04:31.999Z</time></trkpt><trkpt lat="43.99086319307472" lon="11.271092384217466"><ele>307.0</ele><time>2026-04-09T15:04:32.999Z</time></trkpt><trkpt lat="43.99096334693031" lon="11.27100332617535"><ele>309.5</ele><time>2026-04-09T15:04:33.999Z</time></trkpt><trkpt lat="43.99106359209627" lon="11.270910025458113"><ele>312.0</ele><time>2026-04-09T15:04:35Z</time></trkpt><trkpt lat="43.99116317507137" lon="11.270821200097764"><ele>314.5</ele><time>2026-04-09T15:04:36Z</time></trkpt><trkpt lat="43.991262819292544" lon="11.270729342771563"><ele>317.0</ele><time>2026-04-09T15:04:37Z</time></trkpt><trkpt lat="43.99136609997096" lon="11.270637347423458"><ele>317.25</ele><time>2026-04-09T15:04:38Z</time></trkpt><trkpt lat="43.99145093314479" lon="11.270519997444303"><ele>317.5</ele><time>2026-04-09T15:04:39Z</time></trkpt><trkpt lat="43.99151867645041" lon="11.270381841787248"><ele>317.75</ele><time>2026-04-09T15:04:40Z</time></trkpt><trkpt lat="43.991564467289834" lon="11.270225809290048"><ele>318.0</ele><time>2026-04-09T15:04:41Z</time></trkpt><trkpt lat="43.99160334038581" lon="11.270065172961468"><ele>318.0</ele><time>2026-04-09T15:04:42Z</time></trkpt><trkpt lat="43.99161655365758" lon="11.269899204562531"><ele>318.0</ele><time>2026-04-09T15:04:43Z</time></trkpt><trkpt lat="43.99160982764869" lon="11.26973187632669"><ele>318.0</ele><time>2026-04-09T15:04:44Z</time></trkpt><trkpt lat="43.99159943691496" lon="11.269567579749245"><ele>318.0</ele><time>2026-04-09T15:04:45Z</time></trkpt><trkpt lat="43.9916080575545" lon="11.269409389512203"><ele>317.6</ele><time>2026-04-09T15:04:46Z</time></trkpt><trkpt lat="43.99164203964788" lon="11.269274826996465"><ele>317.20000000000005</ele><time>2026-04-09T15:04:47Z</time></trkpt><trkpt lat="43.991695616792114" lon="11.269166935221943"><ele>316.8</ele><time>2026-04-09T15:04:48Z</time></trkpt><trkpt lat="43.99177888374518" lon="11.269111422987455"><ele>316.40000000000003</ele><time>2026-04-09T15:04:49Z</time></trkpt><trkpt lat="43.991883905399845" lon="11.26911884937514"><ele>316.0</ele><time>2026-04-09T15:04:50Z</time></trkpt><trkpt lat="43.991981707186945" lon="11.269109471414755"><ele>317.4</ele><time>2026-04-09T15:04:51Z</time></trkpt><trkpt lat="43.992062413562515" lon="11.269172633009468"><ele>318.8</ele><time>2026-04-09T15:04:52Z</time></trkpt><trkpt lat="43.99215202960325" lon="11.269208622516656"><ele>320.2</ele><time>2026-04-09T15:04:53Z</time></trkpt><trkpt lat="43.99224287249245" lon="11.26926633737675"><ele>321.59999999999997</ele><time>2026-04-09T15:04:54Z</time></trkpt><trkpt lat="43.99234503958617" lon="11.26931962597974"><ele>323.0</ele><time>2026-04-09T15:04:55Z</time></trkpt><trkpt lat="43.99245576832553" lon="11.269355089098426"><ele>324.5</ele><time>2026-04-09T15:04:56Z</time></trkpt><trkpt lat="43.9925629884784" lon="11.26934665429415"><ele>326.0</ele><time>2026-04-09T15:04:57Z</time></trkpt><trkpt lat="43.992664991443476" lon="11.269303884471949"><ele>327.5</ele><time>2026-04-09T15:04:58Z</time></trkpt><trkpt lat="43.9927699948976" lon="11.269230999430642"><ele>329.0</ele><time>2026-04-09T15:04:59Z</time></trkpt><trkpt lat="43.992879941544494" lon="11.269157316259854"><ele>329.0</ele><time>2026-04-09T15:05:00Z</time></trkpt><trkpt lat="43.992985857101644" lon="11.269095805542085"><ele>329.0</ele><time>2026-04-09T15:05:01Z</time></trkpt><trkpt lat="43.99309710972621" lon="11.269040294292125"><ele>329.0</ele><time>2026-04-09T15:05:02Z</time></trkpt><trkpt lat="43.99321230791553" lon="11.269006017446154"><ele>329.0</ele><time>2026-04-09T15:05:03Z</time></trkpt><trkpt lat="43.99333102940663" lon="11.268982571309946"><ele>328.25</ele><time>2026-04-09T15:05:04Z</time></trkpt><trkpt lat="43.993453291441995" lon="11.26896362115044"><ele>327.5</ele><time>2026-04-09T15:05:05Z</time></trkpt><trkpt lat="43.99357371823685" lon="11.268937861812963"><ele>326.75</ele><time>2026-04-09T15:05:06Z</time></trkpt><trkpt lat="43.99370189040012" lon="11.268911191376048"><ele>326.0</ele><time>2026-04-09T15:05:07Z</time></trkpt><trkpt lat="43.993830643492686" lon="11.26889160520831"><ele>326.0</ele><time>2026-04-09T15:05:08Z</time></trkpt><trkpt lat="43.99395773882714" lon="11.268882969537817"><ele>326.0</ele><time>2026-04-09T15:05:09Z</time></trkpt><trkpt lat="43.99407565823734" lon="11.268933109035688"><ele>326.0</ele><time>2026-04-09T15:05:10Z</time></trkpt><trkpt lat="43.994199302305475" lon="11.26894325609901"><ele>326.0</ele><time>2026-04-09T15:05:11Z</time></trkpt><trkpt lat="43.99432421651997" lon="11.26895919190257"><ele>328.75</ele><time>2026-04-09T15:05:12Z</time></trkpt><trkpt lat="43.9944480570239" lon="11.268953961926009"><ele>331.5</ele><time>2026-04-09T15:05:13Z</time></trkpt><trkpt lat="43.9945574097994" lon="11.268936228905158"><ele>334.25</ele><time>2026-04-09T15:05:14Z</time></trkpt><trkpt lat="43.99466447904082" lon="11.268921872236211"><ele>337.0</ele><time>2026-04-09T15:05:15Z</time></trkpt><trkpt lat="43.994772662771794" lon="11.268906183834462"><ele>337.0</ele><time>2026-04-09T15:05:16Z</time></trkpt><trkpt lat="43.994881874270504" lon="11.268892608376756"><ele>337.0</ele><time>2026-04-09T15:05:17Z</time></trkpt><trkpt lat="43.994987129727285" lon="11.268859172811755"><ele>337.0</ele><time>2026-04-09T15:05:18Z</time></trkpt><trkpt lat="43.995092821891426" lon="11.268783292322784"><ele>337.0</ele><time>2026-04-09T15:05:19Z</time></trkpt><trkpt lat="43.995182896588744" lon="11.268668511473438"><ele>337.6</ele><time>2026-04-09T15:05:20Z</time></trkpt><trkpt lat="43.9952543565284" lon="11.268550814974086"><ele>338.20000000000005</ele><time>2026-04-09T15:05:21Z</time></trkpt><trkpt lat="43.99531991462083" lon="11.26846201514524"><ele>338.8</ele><time>2026-04-09T15:05:22Z</time></trkpt><trkpt lat="43.99539998928704" lon="11.26843482765473"><ele>339.4</ele><time>2026-04-09T15:05:23Z</time></trkpt><trkpt lat="43.99548235189505" lon="11.26840021591857"><ele>340.0</ele><time>2026-04-09T15:05:24Z</time></trkpt><trkpt lat="43.99559244484061" lon="11.268389595922976"><ele>340.0</ele><time>2026-04-09T15:05:25Z</time></trkpt><trkpt lat="43.995718383644146" lon="11.268366752207797"><ele>340.0</ele><time>2026-04-09T15:05:26Z</time></trkpt><trkpt lat="43.99584124956884" lon="11.268343949817515"><ele>340.0</ele><time>2026-04-09T15:05:27Z</time></trkpt><trkpt lat="43.995959078535584" lon="11.268322384436896"><ele>340.0</ele><time>2026-04-09T15:05:28Z</time></trkpt><trkpt lat="43.99606352813399" lon="11.268329443007202"><ele>339.5</ele><time>2026-04-09T15:05:29Z</time></trkpt><trkpt lat="43.99615359123888" lon="11.268381582379973"><ele>339.0</ele><time>2026-04-09T15:05:30Z</time></trkpt><trkpt lat="43.996234511422536" lon="11.268478302170383"><ele>338.5</ele><time>2026-04-09T15:05:31Z</time></trkpt><trkpt lat="43.996319138715286" lon="11.26859308656904"><ele>338.0</ele><time>2026-04-09T15:05:32Z</time></trkpt><trkpt lat="43.99641853527178" lon="11.26870709763275"><ele>338.0</ele><time>2026-04-09T15:05:33Z</time></trkpt><trkpt lat="43.99652862685424" lon="11.268810107152671"><ele>338.0</ele><time>2026-04-09T15:05:34Z</time></trkpt><trkpt lat="43.996649099759296" lon="11.268901803625736"><ele>338.0</ele><time>2026-04-09T15:05:35Z</time></trkpt><trkpt lat="43.99677728143385" lon="11.268960570482825"><ele>338.0</ele><time>2026-04-09T15:05:36Z</time></trkpt><trkpt lat="43.99690935864103" lon="11.268989287205754"><ele>338.5</ele><time>2026-04-09T15:05:37Z</time></trkpt><trkpt lat="43.99703887313813" lon="11.268987251968651"><ele>339.0</ele><time>2026-04-09T15:05:38Z</time></trkpt><trkpt lat="43.997177021397626" lon="11.268969688577691"><ele>339.5</ele><time>2026-04-09T15:05:39Z</time></trkpt><trkpt lat="43.99732308256241" lon="11.268952962999942"><ele>340.0</ele><time>2026-04-09T15:05:40Z</time></trkpt><trkpt lat="43.9974780390167" lon="11.268939037213155"><ele>342.0</ele><time>2026-04-09T15:05:41Z</time></trkpt><trkpt lat="43.99763935066682" lon="11.26893334230903"><ele>344.0</ele><time>2026-04-09T15:05:42Z</time></trkpt><trkpt lat="43.99779575823964" lon="11.268927600296093"><ele>346.0</ele><time>2026-04-09T15:05:43Z</time></trkpt><trkpt lat="43.997953791008094" lon="11.268924841110072"><ele>346.0</ele><time>2026-04-09T15:05:44Z</time></trkpt><trkpt lat="43.99811093738714" lon="11.268939325119147"><ele>346.0</ele><time>2026-04-09T15:05:45Z</time></trkpt><trkpt lat="43.99826435438516" lon="11.268975771265731"><ele>346.0</ele><time>2026-04-09T15:05:46Z</time></trkpt><trkpt lat="43.998417923574735" lon="11.269020974484292"><ele>346.5</ele><time>2026-04-09T15:05:47Z</time></trkpt><trkpt lat="43.998564762555205" lon="11.269049411919264"><ele>347.0</ele><time>2026-04-09T15:05:48Z</time></trkpt><trkpt lat="43.99870264833051" lon="11.269084686790393"><ele>347.5</ele><time>2026-04-09T15:05:49Z</time></trkpt><trkpt lat="43.99883912423157" lon="11.269116787260764"><ele>348.0</ele><time>2026-04-09T15:05:50Z</time></trkpt><trkpt lat="43.99897461254922" lon="11.26914432351892"><ele>348.0</ele><time>2026-04-09T15:05:51Z</time></trkpt><trkpt lat="43.99910743723328" lon="11.269176150446807"><ele>348.0</ele><time>2026-04-09T15:05:52Z</time></trkpt><trkpt lat="43.99923760162598" lon="11.26920725165237"><ele>348.0</ele><time>2026-04-09T15:05:53Z</time></trkpt><trkpt lat="43.99936616554029" lon="11.269242268832393"><ele>348.0</ele><time>2026-04-09T15:05:54Z</time></trkpt><trkpt lat="43.99949010384903" lon="11.269272294479824"><ele>347.25</ele><time>2026-04-09T15:05:55Z</time></trkpt><trkpt lat="43.99960877026242" lon="11.269301943995794"><ele>346.5</ele><time>2026-04-09T15:05:56Z</time></trkpt><trkpt lat="43.99974309960854" lon="11.269329108933968"><ele>345.75</ele><time>2026-04-09T15:05:57Z</time></trkpt><trkpt lat="43.99989325335211" lon="11.269361945341123"><ele>345.0</ele><time>2026-04-09T15:05:58Z</time></trkpt><trkpt lat="44.0000507725156" lon="11.269410908263433"><ele>345.0</ele><time>2026-04-09T15:05:59Z</time></trkpt><trkpt lat="44.00022291530149" lon="11.269455636330859"><ele>345.0</ele><time>2026-04-09T15:06:00Z</time></trkpt><trkpt lat="44.00041435225003" lon="11.269501499771165"><ele>345.0</ele><time>2026-04-09T15:06:01Z</time></trkpt><trkpt lat="44.00060891669529" lon="11.269546387910871"><ele>345.0</ele><time>2026-04-09T15:06:02Z</time></trkpt><trkpt lat="44.000806793873224" lon="11.269591825801355"><ele>345.0</ele><time>2026-04-09T15:06:03Z</time></trkpt><trkpt lat="44.00099725627401" lon="11.269633916972788"><ele>345.0</ele><time>2026-04-09T15:06:04Z</time></trkpt><trkpt lat="44.001184753516576" lon="11.269672858423789"><ele>344.0</ele><time>2026-04-09T15:06:04.999Z</time></trkpt><trkpt lat="44.001358085728405" lon="11.269708766408495"><ele>343.0</ele><time>2026-04-09T15:06:05.999Z</time></trkpt><trkpt lat="44.00151473267084" lon="11.269739883141579"><ele>342.0</ele><time>2026-04-09T15:06:06.999Z</time></trkpt><trkpt lat="44.001648072821176" lon="11.269753761156993"><ele>343.5</ele><time>2026-04-09T15:06:07.999Z</time></trkpt><trkpt lat="44.00177116852696" lon="11.269766803342714"><ele>345.0</ele><time>2026-04-09T15:06:08.999Z</time></trkpt><trkpt lat="44.001880227156754" lon="11.269756922582285"><ele>346.5</ele><time>2026-04-09T15:06:09.999Z</time></trkpt><trkpt lat="44.001996425561686" lon="11.269690824403868"><ele>348.0</ele><time>2026-04-09T15:06:10.999Z</time></trkpt><trkpt lat="44.002114043341244" lon="11.269559195550627"><ele>348.0</ele><time>2026-04-09T15:06:11.999Z</time></trkpt><trkpt lat="44.00223219292669" lon="11.269405121788534"><ele>348.0</ele><time>2026-04-09T15:06:12.999Z</time></trkpt><trkpt lat="44.002367233404144" lon="11.269322922088381"><ele>348.0</ele><time>2026-04-09T15:06:13.999Z</time></trkpt><trkpt lat="44.002500833723744" lon="11.269249533054168"><ele>350.25</ele><time>2026-04-09T15:06:14.999Z</time></trkpt><trkpt lat="44.00263177639136" lon="11.269224006549615"><ele>352.5</ele><time>2026-04-09T15:06:15.999Z</time></trkpt><trkpt lat="44.00276928105112" lon="11.269232547692464"><ele>354.75</ele><time>2026-04-09T15:06:16.999Z</time></trkpt><trkpt lat="44.0029289769253" lon="11.269285646308035"><ele>357.0</ele><time>2026-04-09T15:06:17.999Z</time></trkpt><trkpt lat="44.00309904341943" lon="11.269376442247195"><ele>357.0</ele><time>2026-04-09T15:06:18.999Z</time></trkpt><trkpt lat="44.00327779159725" lon="11.269471177827645"><ele>357.0</ele><time>2026-04-09T15:06:19.999Z</time></trkpt><trkpt lat="44.003440380813366" lon="11.269555201646106"><ele>357.0</ele><time>2026-04-09T15:06:20.999Z</time></trkpt><trkpt lat="44.003599995562844" lon="11.269613485485323"><ele>359.25</ele><time>2026-04-09T15:06:21.999Z</time></trkpt><trkpt lat="44.003747933269956" lon="11.269655317748109"><ele>361.5</ele><time>2026-04-09T15:06:22.999Z</time></trkpt><trkpt lat="44.003884960605774" lon="11.269694218722044"><ele>363.75</ele><time>2026-04-09T15:06:23.999Z</time></trkpt><trkpt lat="44.004025340647054" lon="11.26975839634568"><ele>366.0</ele><time>2026-04-09T15:06:24.999Z</time></trkpt><trkpt lat="44.00417602539858" lon="11.269868493255169"><ele>368.0</ele><time>2026-04-09T15:06:25.999Z</time></trkpt><trkpt lat="44.00433558540469" lon="11.270004082436305"><ele>370.0</ele><time>2026-04-09T15:06:26.999Z</time></trkpt><trkpt lat="44.00450404232493" lon="11.270146254316666"><ele>372.0</ele><time>2026-04-09T15:06:27.999Z</time></trkpt><trkpt lat="44.0046605103692" lon="11.27026444752284"><ele>372.0</ele><time>2026-04-09T15:06:28.999Z</time></trkpt><trkpt lat="44.00480398609151" lon="11.270370379467451"><ele>372.0</ele><time>2026-04-09T15:06:29.999Z</time></trkpt><trkpt lat="44.00494188720251" lon="11.270452222024613"><ele>372.0</ele><time>2026-04-09T15:06:30.999Z</time></trkpt><trkpt lat="44.00508903747841" lon="11.270494025197564"><ele>370.6666666666667</ele><time>2026-04-09T15:06:31.999Z</time></trkpt><trkpt lat="44.005253289402624" lon="11.270492501188633"><ele>369.33333333333337</ele><time>2026-04-09T15:06:32.999Z</time></trkpt><trkpt lat="44.005418515671415" lon="11.270448860248967"><ele>368.0</ele><time>2026-04-09T15:06:33.999Z</time></trkpt><trkpt lat="44.005580887802616" lon="11.270393872831033"><ele>368.0</ele><time>2026-04-09T15:06:34.999Z</time></trkpt><trkpt lat="44.005721645373065" lon="11.27036943787104"><ele>368.0</ele><time>2026-04-09T15:06:35.999Z</time></trkpt><trkpt lat="44.00583855788045" lon="11.270401165805767"><ele>368.0</ele><time>2026-04-09T15:06:36.999Z</time></trkpt><trkpt lat="44.005962976081726" lon="11.270488314323236"><ele>368.0</ele><time>2026-04-09T15:06:37.999Z</time></trkpt><trkpt lat="44.00609884303887" lon="11.270605858862243"><ele>370.6666666666667</ele><time>2026-04-09T15:06:38.999Z</time></trkpt><trkpt lat="44.00625686120668" lon="11.270722460818781"><ele>373.3333333333333</ele><time>2026-04-09T15:06:39.999Z</time></trkpt><trkpt lat="44.00642908178286" lon="11.270826801682595"><ele>376.0</ele><time>2026-04-09T15:06:41Z</time></trkpt><trkpt lat="44.006608044608555" lon="11.270932201799933"><ele>380.3333333333333</ele><time>2026-04-09T15:06:42Z</time></trkpt><trkpt lat="44.00679137194619" lon="11.271043701608663"><ele>384.66666666666663</ele><time>2026-04-09T15:06:43Z</time></trkpt><trkpt lat="44.00697392175037" lon="11.271150481601211"><ele>389.0</ele><time>2026-04-09T15:06:44Z</time></trkpt><trkpt lat="44.00716158745941" lon="11.271250716081129"><ele>389.0</ele><time>2026-04-09T15:06:45Z</time></trkpt><trkpt lat="44.00735902158178" lon="11.271360227494673"><ele>389.0</ele><time>2026-04-09T15:06:46Z</time></trkpt><trkpt lat="44.007546158780585" lon="11.271465279354103"><ele>389.0</ele><time>2026-04-09T15:06:47Z</time></trkpt><trkpt lat="44.00771412586475" lon="11.27155978833398"><ele>390.66666666666663</ele><time>2026-04-09T15:06:48Z</time></trkpt><trkpt lat="44.00786858989204" lon="11.27163678964483"><ele>392.33333333333337</ele><time>2026-04-09T15:06:49Z</time></trkpt><trkpt lat="44.00802339961229" lon="11.27168648848224"><ele>394.0</ele><time>2026-04-09T15:06:50Z</time></trkpt><trkpt lat="44.008187170230094" lon="11.27171452686985"><ele>395.6666666666667</ele><time>2026-04-09T15:06:51Z</time></trkpt><trkpt lat="44.00834305915273" lon="11.27170796119535"><ele>397.33333333333337</ele><time>2026-04-09T15:06:52Z</time></trkpt><trkpt lat="44.008507013205524" lon="11.271673178804516"><ele>399.0</ele><time>2026-04-09T15:06:53Z</time></trkpt><trkpt lat="44.0086906507419" lon="11.271608637064608"><ele>399.0</ele><time>2026-04-09T15:06:54Z</time></trkpt><trkpt lat="44.00888464248038" lon="11.271533222284058"><ele>399.0</ele><time>2026-04-09T15:06:55Z</time></trkpt><trkpt lat="44.009068027062504" lon="11.271460144763497"><ele>399.0</ele><time>2026-04-09T15:06:56Z</time></trkpt><trkpt lat="44.009227733687" lon="11.27139019212094"><ele>399.75</ele><time>2026-04-09T15:06:57Z</time></trkpt><trkpt lat="44.00936443946409" lon="11.271305507745724"><ele>400.5</ele><time>2026-04-09T15:06:58Z</time></trkpt><trkpt lat="44.00948092929365" lon="11.271241112544024"><ele>401.25</ele><time>2026-04-09T15:06:59Z</time></trkpt><trkpt lat="44.009598644799254" lon="11.27120273145842"><ele>402.0</ele><time>2026-04-09T15:07:00Z</time></trkpt><trkpt lat="44.00972894531021" lon="11.271202488962771"><ele>402.0</ele><time>2026-04-09T15:07:01Z</time></trkpt><trkpt lat="44.0098867410352" lon="11.271212828509004"><ele>402.0</ele><time>2026-04-09T15:07:02Z</time></trkpt><trkpt lat="44.01005202681459" lon="11.271219742978879"><ele>402.0</ele><time>2026-04-09T15:07:03Z</time></trkpt><trkpt lat="44.010218033778706" lon="11.271250039063146"><ele>403.75</ele><time>2026-04-09T15:07:04Z</time></trkpt><trkpt lat="44.010366628534904" lon="11.271308636457677"><ele>405.5</ele><time>2026-04-09T15:07:05Z</time></trkpt><trkpt lat="44.01048683515851" lon="11.271365800095166"><ele>407.25</ele><time>2026-04-09T15:07:06Z</time></trkpt><trkpt lat="44.010595902633334" lon="11.271400780646982"><ele>409.0</ele><time>2026-04-09T15:07:07Z</time></trkpt><trkpt lat="44.01071024774594" lon="11.271412269469343"><ele>409.0</ele><time>2026-04-09T15:07:08Z</time></trkpt><trkpt lat="44.01082124946197" lon="11.271391032422565"><ele>409.0</ele><time>2026-04-09T15:07:09Z</time></trkpt><trkpt lat="44.01094200525104" lon="11.271342737134182"><ele>409.0</ele><time>2026-04-09T15:07:10Z</time></trkpt><trkpt lat="44.0110631420356" lon="11.271268577335508"><ele>409.0</ele><time>2026-04-09T15:07:11Z</time></trkpt><trkpt lat="44.01117463166088" lon="11.271197941428907"><ele>411.0</ele><time>2026-04-09T15:07:12Z</time></trkpt><trkpt lat="44.01128544997411" lon="11.271087342976816"><ele>413.0</ele><time>2026-04-09T15:07:13Z</time></trkpt><trkpt lat="44.011391289078" lon="11.270969285386439"><ele>415.0</ele><time>2026-04-09T15:07:14Z</time></trkpt><trkpt lat="44.01151095769772" lon="11.270898896096826"><ele>417.0</ele><time>2026-04-09T15:07:15Z</time></trkpt><trkpt lat="44.01163549266102" lon="11.270838058147422"><ele>417.25</ele><time>2026-04-09T15:07:16Z</time></trkpt><trkpt lat="44.01176412884562" lon="11.27076692955905"><ele>417.5</ele><time>2026-04-09T15:07:17Z</time></trkpt><trkpt lat="44.01189000075684" lon="11.270716959701394"><ele>417.75</ele><time>2026-04-09T15:07:18Z</time></trkpt><trkpt lat="44.01201949702497" lon="11.27065247072251"><ele>418.0</ele><time>2026-04-09T15:07:19Z</time></trkpt><trkpt lat="44.012147120126116" lon="11.270586556493635"><ele>417.0</ele><time>2026-04-09T15:07:20Z</time></trkpt><trkpt lat="44.012277789626495" lon="11.270516585234263"><ele>416.0</ele><time>2026-04-09T15:07:21Z</time></trkpt><trkpt lat="44.01241100588551" lon="11.270455401163561"><ele>415.0</ele><time>2026-04-09T15:07:22Z</time></trkpt><trkpt lat="44.012544580244644" lon="11.270400030117678"><ele>414.0</ele><time>2026-04-09T15:07:23Z</time></trkpt><trkpt lat="44.01268016643264" lon="11.270340584981664"><ele>417.25</ele><time>2026-04-09T15:07:24Z</time></trkpt><trkpt lat="44.01281211759891" lon="11.270286338278364"><ele>420.5</ele><time>2026-04-09T15:07:25Z</time></trkpt><trkpt lat="44.012943795021975" lon="11.270234494657439"><ele>423.75</ele><time>2026-04-09T15:07:26Z</time></trkpt><trkpt lat="44.01307226417454" lon="11.270193937554641"><ele>427.0</ele><time>2026-04-09T15:07:27Z</time></trkpt><trkpt lat="44.013191070886016" lon="11.270172758266492"><ele>427.0</ele><time>2026-04-09T15:07:28Z</time></trkpt><trkpt lat="44.0133067091799" lon="11.270174596811971"><ele>427.00000000000006</ele><time>2026-04-09T15:07:29Z</time></trkpt><trkpt lat="44.01340119418707" lon="11.270222749568214"><ele>427.00000000000006</ele><time>2026-04-09T15:07:30Z</time></trkpt><trkpt lat="44.01349263507957" lon="11.270235447203284"><ele>427.0</ele><time>2026-04-09T15:07:31Z</time></trkpt><trkpt lat="44.01358015678285" lon="11.270283742464752"><ele>427.0</ele><time>2026-04-09T15:07:32Z</time></trkpt><trkpt lat="44.01366698180101" lon="11.27032673592905"><ele>429.0</ele><time>2026-04-09T15:07:33Z</time></trkpt><trkpt lat="44.013756322912634" lon="11.270358676827735"><ele>431.00000000000006</ele><time>2026-04-09T15:07:34Z</time></trkpt><trkpt lat="44.013845554119015" lon="11.270390121731724"><ele>433.00000000000006</ele><time>2026-04-09T15:07:35Z</time></trkpt><trkpt lat="44.01393592023065" lon="11.270424473355884"><ele>435.0</ele><time>2026-04-09T15:07:36Z</time></trkpt><trkpt lat="44.01402227093547" lon="11.270460927218034"><ele>437.0</ele><time>2026-04-09T15:07:37Z</time></trkpt><trkpt lat="44.01411074663044" lon="11.270498341077843"><ele>436.99999999999994</ele><time>2026-04-09T15:07:38Z</time></trkpt><trkpt lat="44.01420067141471" lon="11.270540721002751"><ele>437.0</ele><time>2026-04-09T15:07:39Z</time></trkpt><trkpt lat="44.01428906488042" lon="11.270583858346933"><ele>437.0</ele><time>2026-04-09T15:07:40Z</time></trkpt><trkpt lat="44.014376602756066" lon="11.270631085396309"><ele>437.0</ele><time>2026-04-09T15:07:41Z</time></trkpt><trkpt lat="44.01445674639694" lon="11.270680428329673"><ele>436.99999999999994</ele><time>2026-04-09T15:07:42Z</time></trkpt><trkpt lat="44.0145178950494" lon="11.270715737699444"><ele>437.0</ele><time>2026-04-09T15:07:43Z</time></trkpt><trkpt lat="44.01463275867803" lon="11.270729785959178"><ele>436.99999999999994</ele><time>2026-04-09T15:07:45Z</time></trkpt><trkpt lat="44.01470169869795" lon="11.27069045339791"><ele>437.0</ele><time>2026-04-09T15:07:46Z</time></trkpt><trkpt lat="44.014776548066365" lon="11.270648662580992"><ele>437.0</ele><time>2026-04-09T15:07:47Z</time></trkpt><trkpt lat="44.01486256030794" lon="11.270652093166886"><ele>437.0</ele><time>2026-04-09T15:07:48Z</time></trkpt><trkpt lat="44.01495376758844" lon="11.27061079971561"><ele>436.99999999999994</ele><time>2026-04-09T15:07:49Z</time></trkpt><trkpt lat="44.01505028682959" lon="11.27058643999019"><ele>437.0</ele><time>2026-04-09T15:07:50Z</time></trkpt><trkpt lat="44.01514515122587" lon="11.27053256014407"><ele>439.40000000000003</ele><time>2026-04-09T15:07:51Z</time></trkpt><trkpt lat="44.01523682757112" lon="11.270457468447175"><ele>441.80000000000007</ele><time>2026-04-09T15:07:52Z</time></trkpt><trkpt lat="44.01532064734684" lon="11.270375925518168"><ele>444.2</ele><time>2026-04-09T15:07:53Z</time></trkpt><trkpt lat="44.015407150831344" lon="11.270293507863599"><ele>446.6</ele><time>2026-04-09T15:07:54Z</time></trkpt><trkpt lat="44.015483209456775" lon="11.27018693300392"><ele>449.0</ele><time>2026-04-09T15:07:55Z</time></trkpt><trkpt lat="44.01554869608619" lon="11.270026787896775"><ele>449.0</ele><time>2026-04-09T15:07:56Z</time></trkpt><trkpt lat="44.01561055429631" lon="11.269836947663531"><ele>449.0</ele><time>2026-04-09T15:07:57Z</time></trkpt><trkpt lat="44.01567309532777" lon="11.269630684850547"><ele>449.0</ele><time>2026-04-09T15:07:58Z</time></trkpt><trkpt lat="44.015733009956286" lon="11.269449871199646"><ele>447.0</ele><time>2026-04-09T15:07:59Z</time></trkpt><trkpt lat="44.015784285793465" lon="11.26930155245106"><ele>445.0</ele><time>2026-04-09T15:08:00Z</time></trkpt><trkpt lat="44.01583896371768" lon="11.26917632707114"><ele>443.0</ele><time>2026-04-09T15:08:01Z</time></trkpt><trkpt lat="44.0159272447085" lon="11.269078801059127"><ele>441.0</ele><time>2026-04-09T15:08:02Z</time></trkpt><trkpt lat="44.016047817521994" lon="11.269033673750396"><ele>442.66666666666663</ele><time>2026-04-09T15:08:03Z</time></trkpt><trkpt lat="44.01618662098228" lon="11.268955580110546"><ele>444.3333333333333</ele><time>2026-04-09T15:08:03.999Z</time></trkpt><trkpt lat="44.01634768580531" lon="11.268906113704267"><ele>446.0</ele><time>2026-04-09T15:08:04.999Z</time></trkpt><trkpt lat="44.016497109533596" lon="11.268875439235005"><ele>446.0</ele><time>2026-04-09T15:08:05.999Z</time></trkpt><trkpt lat="44.01663755664637" lon="11.26886839918029"><ele>446.0</ele><time>2026-04-09T15:08:06.999Z</time></trkpt><trkpt lat="44.01678924464634" lon="11.268906147679681"><ele>446.0</ele><time>2026-04-09T15:08:07.999Z</time></trkpt><trkpt lat="44.01695051864765" lon="11.268984716792914"><ele>453.66666666666663</ele><time>2026-04-09T15:08:08.999Z</time></trkpt><trkpt lat="44.01710678026447" lon="11.269100704168537"><ele>461.33333333333337</ele><time>2026-04-09T15:08:09.999Z</time></trkpt><trkpt lat="44.01725470762325" lon="11.269275228621263"><ele>469.0</ele><time>2026-04-09T15:08:10.999Z</time></trkpt><trkpt lat="44.017421662950824" lon="11.26941556705137"><ele>469.75</ele><time>2026-04-09T15:08:11.999Z</time></trkpt><trkpt lat="44.017563456611036" lon="11.269555243600092"><ele>470.5</ele><time>2026-04-09T15:08:12.999Z</time></trkpt><trkpt lat="44.01768421253982" lon="11.269658471767096"><ele>471.25</ele><time>2026-04-09T15:08:13.999Z</time></trkpt><trkpt lat="44.017789525325234" lon="11.26973913619757"><ele>472.0</ele><time>2026-04-09T15:08:14.999Z</time></trkpt><trkpt lat="44.017895028374376" lon="11.269785412771178"><ele>472.0</ele><time>2026-04-09T15:08:15.999Z</time></trkpt><trkpt lat="44.01801642073387" lon="11.269780474619118"><ele>472.0</ele><time>2026-04-09T15:08:16.999Z</time></trkpt><trkpt lat="44.01815162297285" lon="11.269732897500045"><ele>472.0</ele><time>2026-04-09T15:08:17.999Z</time></trkpt><trkpt lat="44.01829607162008" lon="11.269638275918943"><ele>472.0</ele><time>2026-04-09T15:08:18.999Z</time></trkpt><trkpt lat="44.01844800888959" lon="11.269505921370394"><ele>469.6666666666667</ele><time>2026-04-09T15:08:19.999Z</time></trkpt><trkpt lat="44.0186119742751" lon="11.269364968803256"><ele>467.33333333333337</ele><time>2026-04-09T15:08:20.999Z</time></trkpt><trkpt lat="44.01880043271616" lon="11.269228481008454"><ele>465.0</ele><time>2026-04-09T15:08:21.999Z</time></trkpt><trkpt lat="44.01899780710895" lon="11.269142832712006"><ele>471.0</ele><time>2026-04-09T15:08:22.999Z</time></trkpt><trkpt lat="44.019220299033094" lon="11.269072342076084"><ele>477.0</ele><time>2026-04-09T15:08:23.999Z</time></trkpt><trkpt lat="44.019443151197564" lon="11.268989429570574"><ele>479.33333333333337</ele><time>2026-04-09T15:08:24.999Z</time></trkpt><trkpt lat="44.01965108259647" lon="11.268934618769562"><ele>481.6666666666667</ele><time>2026-04-09T15:08:25.999Z</time></trkpt><trkpt lat="44.0198266184263" lon="11.268864215854562"><ele>484.0</ele><time>2026-04-09T15:08:26.999Z</time></trkpt><trkpt lat="44.01999085147199" lon="11.268745687804717"><ele>484.0</ele><time>2026-04-09T15:08:27.999Z</time></trkpt><trkpt lat="44.020147245498755" lon="11.26857548060561"><ele>484.0</ele><time>2026-04-09T15:08:28.999Z</time></trkpt><trkpt lat="44.02028791080156" lon="11.268395999466442"><ele>484.0</ele><time>2026-04-09T15:08:29.999Z</time></trkpt><trkpt lat="44.02039017072135" lon="11.268241560598145"><ele>484.0</ele><time>2026-04-09T15:08:30.999Z</time></trkpt><trkpt lat="44.020485672192024" lon="11.268140810301915"><ele>484.0</ele><time>2026-04-09T15:08:31.999Z</time></trkpt><trkpt lat="44.02059477802105" lon="11.26808524612669"><ele>484.0</ele><time>2026-04-09T15:08:32.999Z</time></trkpt><trkpt lat="44.02073021259064" lon="11.268085126670314"><ele>484.0</ele><time>2026-04-09T15:08:33.999Z</time></trkpt><trkpt lat="44.020890980465616" lon="11.268068195261927"><ele>484.0</ele><time>2026-04-09T15:08:34.999Z</time></trkpt><trkpt lat="44.0210726688504" lon="11.268035260195637"><ele>484.0</ele><time>2026-04-09T15:08:35.999Z</time></trkpt><trkpt lat="44.02126953312306" lon="11.268014532297096"><ele>484.0</ele><time>2026-04-09T15:08:36.999Z</time></trkpt><trkpt lat="44.02147816284567" lon="11.267974487105663"><ele>485.33333333333337</ele><time>2026-04-09T15:08:37.999Z</time></trkpt><trkpt lat="44.021686543349034" lon="11.267903826107524"><ele>486.66666666666663</ele><time>2026-04-09T15:08:38.999Z</time></trkpt><trkpt lat="44.021881296290196" lon="11.267768318898222"><ele>488.0</ele><time>2026-04-09T15:08:39.999Z</time></trkpt><trkpt lat="44.02207395692834" lon="11.267628071854102"><ele>488.0</ele><time>2026-04-09T15:08:40.999Z</time></trkpt><trkpt lat="44.02224788017697" lon="11.267529171203499"><ele>488.0</ele><time>2026-04-09T15:08:41.999Z</time></trkpt><trkpt lat="44.02241599410612" lon="11.2674722672462"><ele>488.0</ele><time>2026-04-09T15:08:42.999Z</time></trkpt><trkpt lat="44.02260675473686" lon="11.267444637144512"><ele>490.0</ele><time>2026-04-09T15:08:43.999Z</time></trkpt><trkpt lat="44.02283050205326" lon="11.267423650105808"><ele>492.0</ele><time>2026-04-09T15:08:44.999Z</time></trkpt><trkpt lat="44.02304858951128" lon="11.267422303611005"><ele>494.0</ele><time>2026-04-09T15:08:45.999Z</time></trkpt><trkpt lat="44.02322576257379" lon="11.267412839610975"><ele>494.25</ele><time>2026-04-09T15:08:47Z</time></trkpt><trkpt lat="44.02336841436538" lon="11.267394725787312"><ele>494.5</ele><time>2026-04-09T15:08:48Z</time></trkpt><trkpt lat="44.023497701681215" lon="11.267345547797145"><ele>494.75</ele><time>2026-04-09T15:08:49Z</time></trkpt><trkpt lat="44.0236151395388" lon="11.267252809442143"><ele>495.0</ele><time>2026-04-09T15:08:50Z</time></trkpt><trkpt lat="44.02372734129388" lon="11.267110480636273"><ele>497.25</ele><time>2026-04-09T15:08:51Z</time></trkpt><trkpt lat="44.02383413539024" lon="11.26696522050941"><ele>499.5</ele><time>2026-04-09T15:08:52Z</time></trkpt><trkpt lat="44.023933324996484" lon="11.266814680618651"><ele>501.75</ele><time>2026-04-09T15:08:53Z</time></trkpt><trkpt lat="44.02402196139604" lon="11.266646535727466"><ele>504.0</ele><time>2026-04-09T15:08:54Z</time></trkpt><trkpt lat="44.02409359167625" lon="11.266483047971604"><ele>506.0</ele><time>2026-04-09T15:08:55Z</time></trkpt><trkpt lat="44.02420838025999" lon="11.266360465164018"><ele>508.0</ele><time>2026-04-09T15:08:56Z</time></trkpt><trkpt lat="44.02433540243647" lon="11.266240156985123"><ele>510.0</ele><time>2026-04-09T15:08:57Z</time></trkpt><trkpt lat="44.02444402226551" lon="11.266117576334757"><ele>512.0</ele><time>2026-04-09T15:08:58Z</time></trkpt><trkpt lat="44.02453983574148" lon="11.26604771529352"><ele>512.0</ele><time>2026-04-09T15:08:59Z</time></trkpt><trkpt lat="44.02464310666528" lon="11.266025294048978"><ele>512.0</ele><time>2026-04-09T15:09:00Z</time></trkpt><trkpt lat="44.02477620817623" lon="11.26605458909356"><ele>512.0</ele><time>2026-04-09T15:09:01Z</time></trkpt><trkpt lat="44.024909955337556" lon="11.26606564287755"><ele>512.0</ele><time>2026-04-09T15:09:02Z</time></trkpt><trkpt lat="44.02502851578527" lon="11.266017896563612"><ele>511.66666666666663</ele><time>2026-04-09T15:09:03Z</time></trkpt><trkpt lat="44.025158714051386" lon="11.265891920919456"><ele>511.33333333333337</ele><time>2026-04-09T15:09:04Z</time></trkpt><trkpt lat="44.02530763137579" lon="11.26569764977691"><ele>511.0</ele><time>2026-04-09T15:09:05Z</time></trkpt><trkpt lat="44.02546980599627" lon="11.265474287570237"><ele>511.0</ele><time>2026-04-09T15:09:06Z</time></trkpt><trkpt lat="44.02562186092318" lon="11.265302479156295"><ele>511.0</ele><time>2026-04-09T15:09:07Z</time></trkpt><trkpt lat="44.02573093011214" lon="11.265132402004092"><ele>511.0</ele><time>2026-04-09T15:09:08Z</time></trkpt><trkpt lat="44.02586136567475" lon="11.265032621342954"><ele>508.5</ele><time>2026-04-09T15:09:09Z</time></trkpt><trkpt lat="44.02599196859496" lon="11.264931939251081"><ele>506.0</ele><time>2026-04-09T15:09:10Z</time></trkpt><trkpt lat="44.02609378802393" lon="11.264833837068425"><ele>503.5</ele><time>2026-04-09T15:09:11Z</time></trkpt><trkpt lat="44.02618424143792" lon="11.264732032916292"><ele>501.0</ele><time>2026-04-09T15:09:12Z</time></trkpt><trkpt lat="44.026247755377284" lon="11.264586215283828"><ele>501.0</ele><time>2026-04-09T15:09:13Z</time></trkpt><trkpt lat="44.02629055768578" lon="11.264388680061888"><ele>501.0</ele><time>2026-04-09T15:09:14Z</time></trkpt><trkpt lat="44.02632530893715" lon="11.264171325325114"><ele>501.0</ele><time>2026-04-09T15:09:15Z</time></trkpt><trkpt lat="44.02639373841004" lon="11.264016134387912"><ele>501.0</ele><time>2026-04-09T15:09:16Z</time></trkpt><trkpt lat="44.02644734604249" lon="11.263886622810933"><ele>501.0</ele><time>2026-04-09T15:09:17Z</time></trkpt><trkpt lat="44.02648537684579" lon="11.263785662859236"><ele>501.0</ele><time>2026-04-09T15:09:18Z</time></trkpt><trkpt lat="44.02655303883701" lon="11.263733563206115"><ele>501.0</ele><time>2026-04-09T15:09:19Z</time></trkpt><trkpt lat="44.0266392047489" lon="11.263737739529507"><ele>501.0</ele><time>2026-04-09T15:09:20Z</time></trkpt><trkpt lat="44.02675762032596" lon="11.263794999575563"><ele>501.0</ele><time>2026-04-09T15:09:21Z</time></trkpt><trkpt lat="44.02689699061873" lon="11.263865938256341"><ele>491.0</ele><time>2026-04-09T15:09:22Z</time></trkpt><trkpt lat="44.027070598885416" lon="11.26392838250738"><ele>481.0</ele><time>2026-04-09T15:09:23Z</time></trkpt><trkpt lat="44.027241896753765" lon="11.26398126751481"><ele>471.0</ele><time>2026-04-09T15:09:24Z</time></trkpt><trkpt lat="44.02738882812502" lon="11.264001013529988"><ele>470.5</ele><time>2026-04-09T15:09:25Z</time></trkpt><trkpt lat="44.02751719676369" lon="11.263982297632523"><ele>470.0</ele><time>2026-04-09T15:09:26Z</time></trkpt><trkpt lat="44.027631165022314" lon="11.26390980735548"><ele>469.5</ele><time>2026-04-09T15:09:27Z</time></trkpt><trkpt lat="44.02772797024684" lon="11.263779782389392"><ele>469.0</ele><time>2026-04-09T15:09:28Z</time></trkpt><trkpt lat="44.02781251200426" lon="11.263614156493558"><ele>468.0</ele><time>2026-04-09T15:09:29Z</time></trkpt><trkpt lat="44.02789294159003" lon="11.263418420523292"><ele>467.0</ele><time>2026-04-09T15:09:30Z</time></trkpt><trkpt lat="44.02794532680029" lon="11.263204637926995"><ele>466.0</ele><time>2026-04-09T15:09:31Z</time></trkpt><trkpt lat="44.02798187165152" lon="11.263019142222582"><ele>466.4</ele><time>2026-04-09T15:09:32Z</time></trkpt><trkpt lat="44.02803965401646" lon="11.262886286950202"><ele>466.8</ele><time>2026-04-09T15:09:33Z</time></trkpt><trkpt lat="44.02809814632923" lon="11.26278867026599"><ele>467.19999999999993</ele><time>2026-04-09T15:09:34Z</time></trkpt><trkpt lat="44.02818742264743" lon="11.262708667785889"><ele>467.59999999999997</ele><time>2026-04-09T15:09:35Z</time></trkpt><trkpt lat="44.02830575982937" lon="11.262665070826182"><ele>468.0</ele><time>2026-04-09T15:09:36Z</time></trkpt><trkpt lat="44.02842205331278" lon="11.26258033493311"><ele>468.0</ele><time>2026-04-09T15:09:37Z</time></trkpt><trkpt lat="44.02853764734063" lon="11.262503157975964"><ele>468.0</ele><time>2026-04-09T15:09:38Z</time></trkpt><trkpt lat="44.02864206737039" lon="11.26238536015472"><ele>468.0</ele><time>2026-04-09T15:09:39Z</time></trkpt><trkpt lat="44.02873425654904" lon="11.262229897294786"><ele>468.0</ele><time>2026-04-09T15:09:40Z</time></trkpt><trkpt lat="44.028803754874836" lon="11.262027256535642"><ele>466.0</ele><time>2026-04-09T15:09:41Z</time></trkpt><trkpt lat="44.02885536776678" lon="11.261784689446605"><ele>464.0</ele><time>2026-04-09T15:09:42Z</time></trkpt><trkpt lat="44.02891276796543" lon="11.26152986021338"><ele>462.0</ele><time>2026-04-09T15:09:43Z</time></trkpt><trkpt lat="44.029003004451695" lon="11.261305732966857"><ele>461.25</ele><time>2026-04-09T15:09:44Z</time></trkpt><trkpt lat="44.02907624725991" lon="11.261135170129297"><ele>460.5</ele><time>2026-04-09T15:09:45Z</time></trkpt><trkpt lat="44.029177144396336" lon="11.261039197100926"><ele>459.75</ele><time>2026-04-09T15:09:46Z</time></trkpt><trkpt lat="44.02929441926959" lon="11.260967414211539"><ele>459.0</ele><time>2026-04-09T15:09:47Z</time></trkpt><trkpt lat="44.02943268457743" lon="11.260915455300886"><ele>459.0</ele><time>2026-04-09T15:09:48Z</time></trkpt><trkpt lat="44.02959583826636" lon="11.260840329529008"><ele>459.0</ele><time>2026-04-09T15:09:49Z</time></trkpt><trkpt lat="44.02976956524749" lon="11.260781402714436"><ele>459.0</ele><time>2026-04-09T15:09:50Z</time></trkpt><trkpt lat="44.02993148998927" lon="11.260745353111485"><ele>457.33333333333337</ele><time>2026-04-09T15:09:51Z</time></trkpt><trkpt lat="44.0300913940774" lon="11.260775098446086"><ele>455.6666666666667</ele><time>2026-04-09T15:09:52Z</time></trkpt><trkpt lat="44.030266852863505" lon="11.260814458630858"><ele>454.0</ele><time>2026-04-09T15:09:53Z</time></trkpt><trkpt lat="44.03045802573045" lon="11.260892136000209"><ele>454.0</ele><time>2026-04-09T15:09:54Z</time></trkpt><trkpt lat="44.030666498327726" lon="11.260963040063322"><ele>454.0</ele><time>2026-04-09T15:09:55Z</time></trkpt><trkpt lat="44.03090834250667" lon="11.261039157234656"><ele>451.5</ele><time>2026-04-09T15:09:56Z</time></trkpt><trkpt lat="44.031167376051854" lon="11.261123816411207"><ele>449.0</ele><time>2026-04-09T15:09:57Z</time></trkpt><trkpt lat="44.03143225316391" lon="11.261206135873746"><ele>450.5</ele><time>2026-04-09T15:09:58Z</time></trkpt><trkpt lat="44.03170092994763" lon="11.261287467367694"><ele>452.0</ele><time>2026-04-09T15:09:59Z</time></trkpt><trkpt lat="44.03196745528481" lon="11.261368588322009"><ele>452.0</ele><time>2026-04-09T15:10:00Z</time></trkpt><trkpt lat="44.03222215485283" lon="11.261448750469858"><ele>452.0</ele><time>2026-04-09T15:10:01Z</time></trkpt><trkpt lat="44.03246950873614" lon="11.261530228299723"><ele>450.0</ele><time>2026-04-09T15:10:02Z</time></trkpt><trkpt lat="44.032703039501804" lon="11.261604444088615"><ele>448.0</ele><time>2026-04-09T15:10:03Z</time></trkpt><trkpt lat="44.03290944556215" lon="11.261669386918742"><ele>448.0</ele><time>2026-04-09T15:10:04Z</time></trkpt><trkpt lat="44.0330782046787" lon="11.261725595636022"><ele>448.0</ele><time>2026-04-09T15:10:05Z</time></trkpt><trkpt lat="44.03322784804853" lon="11.261771343840234"><ele>448.0</ele><time>2026-04-09T15:10:06Z</time></trkpt><trkpt lat="44.03335425190145" lon="11.261819131928329"><ele>450.75</ele><time>2026-04-09T15:10:07Z</time></trkpt><trkpt lat="44.0334768722306" lon="11.261859838679522"><ele>453.5</ele><time>2026-04-09T15:10:08Z</time></trkpt><trkpt lat="44.033601915159" lon="11.261894837234902"><ele>456.25</ele><time>2026-04-09T15:10:08.999Z</time></trkpt><trkpt lat="44.033716969459114" lon="11.261924987185841"><ele>459.0</ele><time>2026-04-09T15:10:09.999Z</time></trkpt><trkpt lat="44.03383206523477" lon="11.26196245744888"><ele>459.0</ele><time>2026-04-09T15:10:10.999Z</time></trkpt><trkpt lat="44.03394823175506" lon="11.26200170328405"><ele>459.0</ele><time>2026-04-09T15:10:11.999Z</time></trkpt><trkpt lat="44.034066310999336" lon="11.26204469287056"><ele>459.0</ele><time>2026-04-09T15:10:12.999Z</time></trkpt><trkpt lat="44.03419082546014" lon="11.262086992780945"><ele>459.0</ele><time>2026-04-09T15:10:13.999Z</time></trkpt><trkpt lat="44.03431603918487" lon="11.262121899261553"><ele>460.25</ele><time>2026-04-09T15:10:14.999Z</time></trkpt><trkpt lat="44.03444221873376" lon="11.262158700079192"><ele>461.5</ele><time>2026-04-09T15:10:15.999Z</time></trkpt><trkpt lat="44.034572364785724" lon="11.262203052850975"><ele>462.75</ele><time>2026-04-09T15:10:16.999Z</time></trkpt><trkpt lat="44.034706363396474" lon="11.262242548369995"><ele>464.0</ele><time>2026-04-09T15:10:17.999Z</time></trkpt><trkpt lat="44.034846950558475" lon="11.262287361645708"><ele>465.66666666666663</ele><time>2026-04-09T15:10:18.999Z</time></trkpt><trkpt lat="44.03499316805877" lon="11.262333759942843"><ele>467.33333333333337</ele><time>2026-04-09T15:10:19.999Z</time></trkpt><trkpt lat="44.035138652403404" lon="11.262381472696815"><ele>469.0</ele><time>2026-04-09T15:10:20.999Z</time></trkpt><trkpt lat="44.03529522963594" lon="11.262448316656897"><ele>469.0</ele><time>2026-04-09T15:10:21.999Z</time></trkpt><trkpt lat="44.03546173611633" lon="11.26252797175859"><ele>469.0</ele><time>2026-04-09T15:10:22.999Z</time></trkpt><trkpt lat="44.0356342746397" lon="11.262606400308373"><ele>469.0</ele><time>2026-04-09T15:10:23.999Z</time></trkpt><trkpt lat="44.0357876379769" lon="11.26267764761316"><ele>468.25</ele><time>2026-04-09T15:10:24.999Z</time></trkpt><trkpt lat="44.0359345671034" lon="11.262740016941388"><ele>467.5</ele><time>2026-04-09T15:10:25.999Z</time></trkpt><trkpt lat="44.036077619168665" lon="11.262784072812108"><ele>466.75</ele><time>2026-04-09T15:10:26.999Z</time></trkpt><trkpt lat="44.036201260660135" lon="11.262813851503177"><ele>466.0</ele><time>2026-04-09T15:10:27.999Z</time></trkpt><trkpt lat="44.03632545801606" lon="11.262818621211037"><ele>466.0</ele><time>2026-04-09T15:10:28.999Z</time></trkpt><trkpt lat="44.03646264325276" lon="11.262773900806302"><ele>466.0</ele><time>2026-04-09T15:10:29.999Z</time></trkpt><trkpt lat="44.03661912733646" lon="11.26269644443101"><ele>466.0</ele><time>2026-04-09T15:10:30.999Z</time></trkpt><trkpt lat="44.03678317741038" lon="11.262612106094211"><ele>465.33333333333337</ele><time>2026-04-09T15:10:31.999Z</time></trkpt><trkpt lat="44.03695354557458" lon="11.262521081532457"><ele>464.66666666666663</ele><time>2026-04-09T15:10:32.999Z</time></trkpt><trkpt lat="44.037137969121254" lon="11.262448995614891"><ele>464.0</ele><time>2026-04-09T15:10:33.999Z</time></trkpt><trkpt lat="44.03732461870764" lon="11.26235312632286"><ele>466.3333333333333</ele><time>2026-04-09T15:10:34.999Z</time></trkpt><trkpt lat="44.03750965837619" lon="11.26225416258222"><ele>468.66666666666663</ele><time>2026-04-09T15:10:35.999Z</time></trkpt><trkpt lat="44.037705131645964" lon="11.262144997509099"><ele>471.0</ele><time>2026-04-09T15:10:36.999Z</time></trkpt><trkpt lat="44.03791237975036" lon="11.262026326153716"><ele>471.0</ele><time>2026-04-09T15:10:37.999Z</time></trkpt><trkpt lat="44.03813168847533" lon="11.261898654821962"><ele>471.0</ele><time>2026-04-09T15:10:38.999Z</time></trkpt><trkpt lat="44.03834201685327" lon="11.26175346388793"><ele>468.0</ele><time>2026-04-09T15:10:39.999Z</time></trkpt><trkpt lat="44.03855260425421" lon="11.261624701668833"><ele>465.0</ele><time>2026-04-09T15:10:40.999Z</time></trkpt><trkpt lat="44.038767704024096" lon="11.261497576271891"><ele>468.5</ele><time>2026-04-09T15:10:41.999Z</time></trkpt><trkpt lat="44.03897395561467" lon="11.261373921821034"><ele>472.0</ele><time>2026-04-09T15:10:42.999Z</time></trkpt><trkpt lat="44.039186999100785" lon="11.261267863212929"><ele>472.0</ele><time>2026-04-09T15:10:43.999Z</time></trkpt><trkpt lat="44.039390487293375" lon="11.261143001085518"><ele>472.0</ele><time>2026-04-09T15:10:44.999Z</time></trkpt><trkpt lat="44.039591414891255" lon="11.261019074758666"><ele>472.0</ele><time>2026-04-09T15:10:45.999Z</time></trkpt><trkpt lat="44.039793095023875" lon="11.260904252302568"><ele>471.33333333333337</ele><time>2026-04-09T15:10:46.999Z</time></trkpt><trkpt lat="44.039995043143634" lon="11.260811075927293"><ele>470.66666666666663</ele><time>2026-04-09T15:10:47.999Z</time></trkpt><trkpt lat="44.040199614497794" lon="11.260737850391504"><ele>470.0</ele><time>2026-04-09T15:10:48.999Z</time></trkpt><trkpt lat="44.0403905980457" lon="11.26065484102344"><ele>472.66666666666663</ele><time>2026-04-09T15:10:49.999Z</time></trkpt><trkpt lat="44.04054255172309" lon="11.260609600823793"><ele>475.33333333333337</ele><time>2026-04-09T15:10:50.999Z</time></trkpt><trkpt lat="44.04068746776748" lon="11.260567396031556"><ele>478.0</ele><time>2026-04-09T15:10:51.999Z</time></trkpt><trkpt lat="44.040830665923814" lon="11.26052150822085"><ele>479.5</ele><time>2026-04-09T15:10:53Z</time></trkpt><trkpt lat="44.04097056898153" lon="11.26046848787817"><ele>481.0</ele><time>2026-04-09T15:10:54Z</time></trkpt><trkpt lat="44.04111180656791" lon="11.260425372007383"><ele>482.5</ele><time>2026-04-09T15:10:55Z</time></trkpt><trkpt lat="44.041242455436496" lon="11.260385971414838"><ele>484.0</ele><time>2026-04-09T15:10:56Z</time></trkpt><trkpt lat="44.04136989784406" lon="11.26033754371751"><ele>484.0</ele><time>2026-04-09T15:10:57Z</time></trkpt><trkpt lat="44.0414989600381" lon="11.260287009300722"><ele>484.0</ele><time>2026-04-09T15:10:58Z</time></trkpt><trkpt lat="44.04162669287401" lon="11.260217906650563"><ele>484.0</ele><time>2026-04-09T15:10:59Z</time></trkpt><trkpt lat="44.04174740672955" lon="11.260118750777348"><ele>484.0</ele><time>2026-04-09T15:11:00Z</time></trkpt><trkpt lat="44.041865146247694" lon="11.259999229667338"><ele>486.33333333333337</ele><time>2026-04-09T15:11:01Z</time></trkpt><trkpt lat="44.04197707126002" lon="11.259857370209668"><ele>488.66666666666663</ele><time>2026-04-09T15:11:02Z</time></trkpt><trkpt lat="44.042083913996805" lon="11.259699362149686"><ele>491.0</ele><time>2026-04-09T15:11:03Z</time></trkpt><trkpt lat="44.042187701944506" lon="11.25954103047118"><ele>491.4</ele><time>2026-04-09T15:11:04Z</time></trkpt><trkpt lat="44.04228897801267" lon="11.25939397324653"><ele>491.8</ele><time>2026-04-09T15:11:05Z</time></trkpt><trkpt lat="44.0423761849817" lon="11.259270153379703"><ele>492.19999999999993</ele><time>2026-04-09T15:11:06Z</time></trkpt><trkpt lat="44.04244642424059" lon="11.259176022865121"><ele>492.59999999999997</ele><time>2026-04-09T15:11:07Z</time></trkpt><trkpt lat="44.042502941881445" lon="11.259115964402369"><ele>493.0</ele><time>2026-04-09T15:11:08Z</time></trkpt><trkpt lat="44.04256953909458" lon="11.259074285049154"><ele>493.0</ele><time>2026-04-09T15:11:09Z</time></trkpt><trkpt lat="44.04266200535606" lon="11.25907176403546"><ele>493.0</ele><time>2026-04-09T15:11:10Z</time></trkpt><trkpt lat="44.042760601647586" lon="11.259042607170256"><ele>493.0</ele><time>2026-04-09T15:11:11Z</time></trkpt><trkpt lat="44.042880851512194" lon="11.259010130006882"><ele>493.0</ele><time>2026-04-09T15:11:12Z</time></trkpt><trkpt lat="44.04302110378491" lon="11.258988295553877"><ele>493.0</ele><time>2026-04-09T15:11:13Z</time></trkpt><trkpt lat="44.0431795457599" lon="11.258966935027267"><ele>493.0</ele><time>2026-04-09T15:11:14Z</time></trkpt><trkpt lat="44.04334905157258" lon="11.258957735410176"><ele>493.0</ele><time>2026-04-09T15:11:15Z</time></trkpt><trkpt lat="44.04352527217234" lon="11.258943048517244"><ele>491.0</ele><time>2026-04-09T15:11:16Z</time></trkpt><trkpt lat="44.04371045963728" lon="11.258912234001082"><ele>489.0</ele><time>2026-04-09T15:11:17Z</time></trkpt><trkpt lat="44.0438977100973" lon="11.258873313600729"><ele>487.0</ele><time>2026-04-09T15:11:18Z</time></trkpt><trkpt lat="44.04407095454822" lon="11.258834177346237"><ele>488.6666666666667</ele><time>2026-04-09T15:11:19Z</time></trkpt><trkpt lat="44.04425212622893" lon="11.258788603853398"><ele>490.33333333333337</ele><time>2026-04-09T15:11:20Z</time></trkpt><trkpt lat="44.04444796264904" lon="11.25872785324292"><ele>492.0</ele><time>2026-04-09T15:11:21Z</time></trkpt><trkpt lat="44.04463873144753" lon="11.258667952160598"><ele>492.0</ele><time>2026-04-09T15:11:22Z</time></trkpt><trkpt lat="44.04479939945601" lon="11.258615658147056"><ele>492.0</ele><time>2026-04-09T15:11:23Z</time></trkpt><trkpt lat="44.04494151835692" lon="11.258571009949943"><ele>492.0</ele><time>2026-04-09T15:11:24Z</time></trkpt><trkpt lat="44.04507554308848" lon="11.258527305721838"><ele>492.0</ele><time>2026-04-09T15:11:25Z</time></trkpt><trkpt lat="44.04520554855061" lon="11.258498786277373"><ele>495.66666666666663</ele><time>2026-04-09T15:11:26Z</time></trkpt><trkpt lat="44.045348307772045" lon="11.2584675562112"><ele>499.3333333333333</ele><time>2026-04-09T15:11:27Z</time></trkpt><trkpt lat="44.04549634671722" lon="11.25841298333061"><ele>503.0</ele><time>2026-04-09T15:11:28Z</time></trkpt><trkpt lat="44.04564768834383" lon="11.258331067897714"><ele>504.75</ele><time>2026-04-09T15:11:29Z</time></trkpt><trkpt lat="44.04580028188718" lon="11.258249452840326"><ele>506.5</ele><time>2026-04-09T15:11:30Z</time></trkpt><trkpt lat="44.04593572319455" lon="11.258179445255847"><ele>508.25</ele><time>2026-04-09T15:11:31Z</time></trkpt><trkpt lat="44.046047794079655" lon="11.258145446667726"><ele>510.0</ele><time>2026-04-09T15:11:32Z</time></trkpt><trkpt lat="44.04614705126403" lon="11.258145753373038"><ele>510.0</ele><time>2026-04-09T15:11:33Z</time></trkpt><trkpt lat="44.046253416940225" lon="11.258186532648327"><ele>510.0</ele><time>2026-04-09T15:11:34Z</time></trkpt><trkpt lat="44.046356219902634" lon="11.258274075079417"><ele>510.0</ele><time>2026-04-09T15:11:35Z</time></trkpt><trkpt lat="44.0464546892529" lon="11.258396718750628"><ele>510.0</ele><time>2026-04-09T15:11:36Z</time></trkpt><trkpt lat="44.046551201899646" lon="11.258547479147852"><ele>508.33333333333337</ele><time>2026-04-09T15:11:37Z</time></trkpt><trkpt lat="44.04666572798739" lon="11.25869749085109"><ele>506.6666666666667</ele><time>2026-04-09T15:11:38Z</time></trkpt><trkpt lat="44.0468014060818" lon="11.258844546682903"><ele>505.0</ele><time>2026-04-09T15:11:39Z</time></trkpt><trkpt lat="44.04695239869178" lon="11.258996489012983"><ele>509.6666666666667</ele><time>2026-04-09T15:11:40Z</time></trkpt><trkpt lat="44.047096198228694" lon="11.259155240448342"><ele>514.3333333333334</ele><time>2026-04-09T15:11:41Z</time></trkpt><trkpt lat="44.047233154062766" lon="11.25929421243384"><ele>519.0</ele><time>2026-04-09T15:11:42Z</time></trkpt><trkpt lat="44.04737441416461" lon="11.259416131678805"><ele>517.0</ele><time>2026-04-09T15:11:43Z</time></trkpt><trkpt lat="44.04750521855579" lon="11.259532542164727"><ele>515.0</ele><time>2026-04-09T15:11:44Z</time></trkpt><trkpt lat="44.04762039332315" lon="11.259644104422724"><ele>513.0</ele><time>2026-04-09T15:11:45Z</time></trkpt><trkpt lat="44.047723586829164" lon="11.259741160975599"><ele>511.0</ele><time>2026-04-09T15:11:46Z</time></trkpt><trkpt lat="44.04781592635766" lon="11.259841668530017"><ele>511.0</ele><time>2026-04-09T15:11:47Z</time></trkpt><trkpt lat="44.04790195418682" lon="11.259936016730933"><ele>511.0</ele><time>2026-04-09T15:11:48Z</time></trkpt><trkpt lat="44.04797996205149" lon="11.260040800201828"><ele>511.0</ele><time>2026-04-09T15:11:49Z</time></trkpt><trkpt lat="44.04805591401516" lon="11.260159629979992"><ele>511.0</ele><time>2026-04-09T15:11:50Z</time></trkpt><trkpt lat="44.04813040168176" lon="11.260283195074035"><ele>511.0</ele><time>2026-04-09T15:11:51Z</time></trkpt><trkpt lat="44.048214124276875" lon="11.260394837195383"><ele>510.8</ele><time>2026-04-09T15:11:52Z</time></trkpt><trkpt lat="44.04830053661941" lon="11.260494022584991"><ele>510.6</ele><time>2026-04-09T15:11:53Z</time></trkpt><trkpt lat="44.04837869950982" lon="11.260585417417653"><ele>510.4</ele><time>2026-04-09T15:11:54Z</time></trkpt><trkpt lat="44.04846264093531" lon="11.260674887042153"><ele>510.2</ele><time>2026-04-09T15:11:55Z</time></trkpt><trkpt lat="44.04854577913652" lon="11.260768974037187"><ele>510.0</ele><time>2026-04-09T15:11:56Z</time></trkpt><trkpt lat="44.04863258985948" lon="11.260857634090124"><ele>512.0</ele><time>2026-04-09T15:11:57Z</time></trkpt><trkpt lat="44.048723480312034" lon="11.260939664375991"><ele>514.0</ele><time>2026-04-09T15:11:58Z</time></trkpt><trkpt lat="44.04881774308544" lon="11.261019225258586"><ele>516.0</ele><time>2026-04-09T15:11:59Z</time></trkpt><trkpt lat="44.04892600424973" lon="11.26107750707367"><ele>518.0</ele><time>2026-04-09T15:12:00Z</time></trkpt><trkpt lat="44.04903826054059" lon="11.261118763171046"><ele>517.1999999999999</ele><time>2026-04-09T15:12:01Z</time></trkpt><trkpt lat="44.04913795836612" lon="11.261150191551359"><ele>516.4</ele><time>2026-04-09T15:12:02Z</time></trkpt><trkpt lat="44.04923119483566" lon="11.261179813868086"><ele>515.5999999999999</ele><time>2026-04-09T15:12:03Z</time></trkpt><trkpt lat="44.049320370126566" lon="11.261211904728759"><ele>514.8</ele><time>2026-04-09T15:12:04Z</time></trkpt><trkpt lat="44.049406731719706" lon="11.261240948341932"><ele>514.0</ele><time>2026-04-09T15:12:05Z</time></trkpt><trkpt lat="44.04948841619975" lon="11.261259231450603"><ele>514.0</ele><time>2026-04-09T15:12:06Z</time></trkpt><trkpt lat="44.049574924231344" lon="11.26127839069678"><ele>514.0</ele><time>2026-04-09T15:12:07Z</time></trkpt><trkpt lat="44.04966502476366" lon="11.261297588961568"><ele>514.0</ele><time>2026-04-09T15:12:08Z</time></trkpt><trkpt lat="44.049756250387716" lon="11.261312805817697"><ele>514.0</ele><time>2026-04-09T15:12:09Z</time></trkpt><trkpt lat="44.04985387819544" lon="11.261319552116735"><ele>514.0</ele><time>2026-04-09T15:12:10Z</time></trkpt><trkpt lat="44.0499522131979" lon="11.261321067947717"><ele>514.4</ele><time>2026-04-09T15:12:11Z</time></trkpt><trkpt lat="44.0500513875993" lon="11.261319637374298"><ele>514.8</ele><time>2026-04-09T15:12:12Z</time></trkpt><trkpt lat="44.050156969019866" lon="11.261316878203337"><ele>515.2</ele><time>2026-04-09T15:12:13Z</time></trkpt><trkpt lat="44.05026992008363" lon="11.26130917342359"><ele>515.6</ele><time>2026-04-09T15:12:14Z</time></trkpt><trkpt lat="44.05038157122885" lon="11.261284859077119"><ele>516.0</ele><time>2026-04-09T15:12:15Z</time></trkpt><trkpt lat="44.050495631059334" lon="11.261266973631134"><ele>516.0</ele><time>2026-04-09T15:12:16Z</time></trkpt><trkpt lat="44.05060730277436" lon="11.261244495177689"><ele>516.0</ele><time>2026-04-09T15:12:16.999Z</time></trkpt><trkpt lat="44.05072586666188" lon="11.261202990287826"><ele>516.0</ele><time>2026-04-09T15:12:17.999Z</time></trkpt><trkpt lat="44.0508425918927" lon="11.261164315544162"><ele>516.0</ele><time>2026-04-09T15:12:18.999Z</time></trkpt><trkpt lat="44.05095851939944" lon="11.26112024435503"><ele>516.5</ele><time>2026-04-09T15:12:19.999Z</time></trkpt><trkpt lat="44.05107586975159" lon="11.261067376794205"><ele>517.0</ele><time>2026-04-09T15:12:20.999Z</time></trkpt><trkpt lat="44.05119687034353" lon="11.261020367321738"><ele>517.5</ele><time>2026-04-09T15:12:21.999Z</time></trkpt><trkpt lat="44.05132067319634" lon="11.260976169395985"><ele>518.0</ele><time>2026-04-09T15:12:22.999Z</time></trkpt><trkpt lat="44.051445043351" lon="11.260925305588508"><ele>518.0</ele><time>2026-04-09T15:12:23.999Z</time></trkpt><trkpt lat="44.05157219293432" lon="11.260874564093417"><ele>518.0</ele><time>2026-04-09T15:12:24.999Z</time></trkpt><trkpt lat="44.05169815846413" lon="11.26082873073707"><ele>518.0</ele><time>2026-04-09T15:12:25.999Z</time></trkpt><trkpt lat="44.05182513212611" lon="11.260779710340701"><ele>518.0</ele><time>2026-04-09T15:12:26.999Z</time></trkpt><trkpt lat="44.05194910397992" lon="11.260735686133383"><ele>518.75</ele><time>2026-04-09T15:12:27.999Z</time></trkpt><trkpt lat="44.05207197933449" lon="11.260695710568315"><ele>519.5</ele><time>2026-04-09T15:12:28.999Z</time></trkpt><trkpt lat="44.05219224286233" lon="11.260660768924364"><ele>520.25</ele><time>2026-04-09T15:12:29.999Z</time></trkpt><trkpt lat="44.05231747260389" lon="11.26064222509808"><ele>521.0</ele><time>2026-04-09T15:12:30.999Z</time></trkpt><trkpt lat="44.05244161815403" lon="11.260624420134931"><ele>519.5</ele><time>2026-04-09T15:12:31.999Z</time></trkpt><trkpt lat="44.05256930107669" lon="11.260611988893158"><ele>518.0</ele><time>2026-04-09T15:12:32.999Z</time></trkpt><trkpt lat="44.05268073034154" lon="11.260663161685502"><ele>516.5</ele><time>2026-04-09T15:12:33.999Z</time></trkpt><trkpt lat="44.05279817633268" lon="11.260720532747694"><ele>515.0</ele><time>2026-04-09T15:12:34.999Z</time></trkpt><trkpt lat="44.052919383255166" lon="11.260779559244819"><ele>518.0</ele><time>2026-04-09T15:12:35.999Z</time></trkpt><trkpt lat="44.053026200117564" lon="11.260880648559242"><ele>521.0</ele><time>2026-04-09T15:12:36.999Z</time></trkpt><trkpt lat="44.053128775893065" lon="11.26098537093596"><ele>524.0</ele><time>2026-04-09T15:12:37.999Z</time></trkpt><trkpt lat="44.05323762657702" lon="11.261078680501953"><ele>527.0</ele><time>2026-04-09T15:12:38.999Z</time></trkpt><trkpt lat="44.053349366359264" lon="11.261171888785038"><ele>527.0</ele><time>2026-04-09T15:12:39.999Z</time></trkpt><trkpt lat="44.05346249370213" lon="11.26127079663787"><ele>527.0</ele><time>2026-04-09T15:12:40.999Z</time></trkpt><trkpt lat="44.05358478304579" lon="11.261373200762018"><ele>527.0</ele><time>2026-04-09T15:12:41.999Z</time></trkpt><trkpt lat="44.053720437235356" lon="11.261487953189063"><ele>527.0</ele><time>2026-04-09T15:12:42.999Z</time></trkpt><trkpt lat="44.05388386463642" lon="11.261554197586895"><ele>529.3333333333333</ele><time>2026-04-09T15:12:43.999Z</time></trkpt><trkpt lat="44.05406112178399" lon="11.261627791750199"><ele>531.6666666666666</ele><time>2026-04-09T15:12:44.999Z</time></trkpt><trkpt lat="44.05426265796925" lon="11.261702055574371"><ele>534.0</ele><time>2026-04-09T15:12:45.999Z</time></trkpt><trkpt lat="44.054481641025056" lon="11.261787998384055"><ele>534.0</ele><time>2026-04-09T15:12:46.999Z</time></trkpt><trkpt lat="44.05469845344451" lon="11.261874545946654"><ele>534.0</ele><time>2026-04-09T15:12:47.999Z</time></trkpt><trkpt lat="44.054930660627015" lon="11.261963294085652"><ele>532.0</ele><time>2026-04-09T15:12:48.999Z</time></trkpt><trkpt lat="44.05515785921687" lon="11.262054940636748"><ele>530.0</ele><time>2026-04-09T15:12:49.999Z</time></trkpt><trkpt lat="44.05537969716464" lon="11.262139038091261"><ele>530.0</ele><time>2026-04-09T15:12:50.999Z</time></trkpt><trkpt lat="44.05557944301598" lon="11.26222156121139"><ele>530.0</ele><time>2026-04-09T15:12:51.999Z</time></trkpt><trkpt lat="44.05577760690973" lon="11.26229623095687"><ele>530.0</ele><time>2026-04-09T15:12:52.999Z</time></trkpt><trkpt lat="44.05596030410132" lon="11.262369398318103"><ele>533.0</ele><time>2026-04-09T15:12:53.999Z</time></trkpt><trkpt lat="44.056130094805255" lon="11.262465899725337"><ele>536.0</ele><time>2026-04-09T15:12:54.999Z</time></trkpt><trkpt lat="44.05627865331384" lon="11.262590881107162"><ele>539.0</ele><time>2026-04-09T15:12:55.999Z</time></trkpt><trkpt lat="44.05638960495315" lon="11.26272248528549"><ele>539.0</ele><time>2026-04-09T15:12:56.999Z</time></trkpt><trkpt lat="44.05647188302966" lon="11.26282290316866"><ele>539.0</ele><time>2026-04-09T15:12:57.999Z</time></trkpt><trkpt lat="44.05656768451159" lon="11.262866432654834"><ele>539.0</ele><time>2026-04-09T15:12:59Z</time></trkpt><trkpt lat="44.056667731975836" lon="11.2628357207386"><ele>539.0</ele><time>2026-04-09T15:13:00Z</time></trkpt><trkpt lat="44.0567852425622" lon="11.262755673016146"><ele>539.0</ele><time>2026-04-09T15:13:01Z</time></trkpt><trkpt lat="44.05690899251384" lon="11.262647072292038"><ele>541.25</ele><time>2026-04-09T15:13:02Z</time></trkpt><trkpt lat="44.05705348992161" lon="11.262538233326316"><ele>543.5</ele><time>2026-04-09T15:13:03Z</time></trkpt><trkpt lat="44.05718454395095" lon="11.262459196164173"><ele>545.75</ele><time>2026-04-09T15:13:04Z</time></trkpt><trkpt lat="44.05729778216882" lon="11.262418738647765"><ele>548.0</ele><time>2026-04-09T15:13:05Z</time></trkpt><trkpt lat="44.05741142916493" lon="11.262449658933807"><ele>550.3333333333333</ele><time>2026-04-09T15:13:06Z</time></trkpt><trkpt lat="44.05753671472111" lon="11.26250152945612"><ele>552.6666666666666</ele><time>2026-04-09T15:13:07Z</time></trkpt><trkpt lat="44.05770793117859" lon="11.262572152871558"><ele>555.0</ele><time>2026-04-09T15:13:08Z</time></trkpt><trkpt lat="44.057873354046166" lon="11.262699113118135"><ele>555.0</ele><time>2026-04-09T15:13:09Z</time></trkpt><trkpt lat="44.058038678981994" lon="11.262836650613957"><ele>555.0</ele><time>2026-04-09T15:13:10Z</time></trkpt><trkpt lat="44.058187135328225" lon="11.262964121183774"><ele>555.0</ele><time>2026-04-09T15:13:11Z</time></trkpt><trkpt lat="44.05831739995523" lon="11.263057172154197"><ele>555.75</ele><time>2026-04-09T15:13:12Z</time></trkpt><trkpt lat="44.05844099617616" lon="11.263105170397239"><ele>556.5</ele><time>2026-04-09T15:13:13Z</time></trkpt><trkpt lat="44.058576908111505" lon="11.26310143988369"><ele>557.25</ele><time>2026-04-09T15:13:14Z</time></trkpt><trkpt lat="44.058716868660525" lon="11.263070208540904"><ele>558.0</ele><time>2026-04-09T15:13:15Z</time></trkpt><trkpt lat="44.0588591195793" lon="11.26304246315693"><ele>558.0</ele><time>2026-04-09T15:13:16Z</time></trkpt><trkpt lat="44.05900684854674" lon="11.263053739449417"><ele>558.0</ele><time>2026-04-09T15:13:17Z</time></trkpt><trkpt lat="44.0591523808794" lon="11.263032461604928"><ele>558.0</ele><time>2026-04-09T15:13:18Z</time></trkpt><trkpt lat="44.059310043903274" lon="11.263037325163708"><ele>560.0</ele><time>2026-04-09T15:13:19Z</time></trkpt><trkpt lat="44.05946590009747" lon="11.263039273220697"><ele>562.0</ele><time>2026-04-09T15:13:20Z</time></trkpt><trkpt lat="44.05962601474666" lon="11.26304052094997"><ele>564.0</ele><time>2026-04-09T15:13:21Z</time></trkpt><trkpt lat="44.05978047270332" lon="11.263042980475811"><ele>564.0</ele><time>2026-04-09T15:13:22Z</time></trkpt><trkpt lat="44.05994088694563" lon="11.26304958130458"><ele>564.0</ele><time>2026-04-09T15:13:23Z</time></trkpt><trkpt lat="44.0601037952303" lon="11.263051056549262"><ele>564.0</ele><time>2026-04-09T15:13:24Z</time></trkpt><trkpt lat="44.06026861660084" lon="11.263056078538387"><ele>565.3333333333334</ele><time>2026-04-09T15:13:25Z</time></trkpt><trkpt lat="44.06043392768712" lon="11.263068065887143"><ele>566.6666666666667</ele><time>2026-04-09T15:13:26Z</time></trkpt><trkpt lat="44.060603287638244" lon="11.2630876207751"><ele>568.0</ele><time>2026-04-09T15:13:27Z</time></trkpt><trkpt lat="44.06076974809311" lon="11.263115753380282"><ele>569.3333333333334</ele><time>2026-04-09T15:13:28Z</time></trkpt><trkpt lat="44.06093114704881" lon="11.263160540507617"><ele>570.6666666666666</ele><time>2026-04-09T15:13:29Z</time></trkpt><trkpt lat="44.061085892523984" lon="11.263232488572418"><ele>572.0</ele><time>2026-04-09T15:13:30Z</time></trkpt><trkpt lat="44.06123167933969" lon="11.263321420028959"><ele>572.0</ele><time>2026-04-09T15:13:31Z</time></trkpt><trkpt lat="44.06137137809607" lon="11.26342319324683"><ele>572.0</ele><time>2026-04-09T15:13:32Z</time></trkpt><trkpt lat="44.061505927694505" lon="11.263523115294293"><ele>572.0</ele><time>2026-04-09T15:13:33Z</time></trkpt><trkpt lat="44.061647497790815" lon="11.263616408319693"><ele>573.6666666666666</ele><time>2026-04-09T15:13:34Z</time></trkpt><trkpt lat="44.06178979281149" lon="11.263710861619293"><ele>575.3333333333334</ele><time>2026-04-09T15:13:35Z</time></trkpt><trkpt lat="44.06193954057184" lon="11.263806961969783"><ele>577.0</ele><time>2026-04-09T15:13:36Z</time></trkpt><trkpt lat="44.062085960832086" lon="11.263895180458997"><ele>577.3333333333334</ele><time>2026-04-09T15:13:37Z</time></trkpt><trkpt lat="44.06223694650951" lon="11.263991626424128"><ele>577.6666666666666</ele><time>2026-04-09T15:13:38Z</time></trkpt><trkpt lat="44.062401551324925" lon="11.264083357297551"><ele>578.0</ele><time>2026-04-09T15:13:39Z</time></trkpt><trkpt lat="44.062567525561505" lon="11.26418078352976"><ele>581.6666666666666</ele><time>2026-04-09T15:13:40Z</time></trkpt><trkpt lat="44.06273402088866" lon="11.264285022988298"><ele>585.3333333333334</ele><time>2026-04-09T15:13:41Z</time></trkpt><trkpt lat="44.062890756828565" lon="11.264401767399674"><ele>589.0</ele><time>2026-04-09T15:13:42Z</time></trkpt><trkpt lat="44.06303250916514" lon="11.264547861091097"><ele>589.0</ele><time>2026-04-09T15:13:43Z</time></trkpt><trkpt lat="44.063148579436024" lon="11.264718096167558"><ele>589.0</ele><time>2026-04-09T15:13:44Z</time></trkpt><trkpt lat="44.063241826619276" lon="11.264922991078537"><ele>589.0</ele><time>2026-04-09T15:13:45Z</time></trkpt><trkpt lat="44.06331766034722" lon="11.265150937024638"><ele>593.0</ele><time>2026-04-09T15:13:46Z</time></trkpt><trkpt lat="44.06338939382473" lon="11.265374430583934"><ele>597.0</ele><time>2026-04-09T15:13:47Z</time></trkpt><trkpt lat="44.06346531725281" lon="11.265566019273866"><ele>601.0</ele><time>2026-04-09T15:13:48Z</time></trkpt><trkpt lat="44.06354911613035" lon="11.265741647427788"><ele>601.0</ele><time>2026-04-09T15:13:49Z</time></trkpt><trkpt lat="44.0636411903711" lon="11.2659116121307"><ele>601.0</ele><time>2026-04-09T15:13:50Z</time></trkpt><trkpt lat="44.063733205852934" lon="11.266058888634122"><ele>601.0</ele><time>2026-04-09T15:13:51Z</time></trkpt><trkpt lat="44.06382699441865" lon="11.266204456677782"><ele>601.0</ele><time>2026-04-09T15:13:52Z</time></trkpt><trkpt lat="44.06392386028578" lon="11.266352735770422"><ele>600.5</ele><time>2026-04-09T15:13:53Z</time></trkpt><trkpt lat="44.06402218275064" lon="11.266503652731707"><ele>600.0</ele><time>2026-04-09T15:13:54Z</time></trkpt><trkpt lat="44.06411098365766" lon="11.266644474740044"><ele>599.5</ele><time>2026-04-09T15:13:55Z</time></trkpt><trkpt lat="44.064188663762764" lon="11.266753659647492"><ele>599.0</ele><time>2026-04-09T15:13:56Z</time></trkpt><trkpt lat="44.06426397769506" lon="11.2668563474372"><ele>603.25</ele><time>2026-04-09T15:13:57Z</time></trkpt><trkpt lat="44.06436428438885" lon="11.266935066103967"><ele>607.5</ele><time>2026-04-09T15:13:58Z</time></trkpt><trkpt lat="44.064477122753836" lon="11.26697601509741"><ele>611.75</ele><time>2026-04-09T15:13:59Z</time></trkpt><trkpt lat="44.06461867341614" lon="11.266987400748455"><ele>616.0</ele><time>2026-04-09T15:14:00Z</time></trkpt><trkpt lat="44.06476333153249" lon="11.266975173392746"><ele>616.0</ele><time>2026-04-09T15:14:01Z</time></trkpt><trkpt lat="44.064915088486316" lon="11.26696185008236"><ele>616.0</ele><time>2026-04-09T15:14:02Z</time></trkpt><trkpt lat="44.06506083620097" lon="11.266997495641652"><ele>616.0</ele><time>2026-04-09T15:14:03Z</time></trkpt><trkpt lat="44.06520898573592" lon="11.267023945083581"><ele>616.0</ele><time>2026-04-09T15:14:04Z</time></trkpt><trkpt lat="44.0653604484795" lon="11.267092891687454"><ele>619.0</ele><time>2026-04-09T15:14:05Z</time></trkpt><trkpt lat="44.065507979948286" lon="11.26717844327437"><ele>622.0</ele><time>2026-04-09T15:14:06Z</time></trkpt><trkpt lat="44.06565464800465" lon="11.267256453129045"><ele>625.0</ele><time>2026-04-09T15:14:07Z</time></trkpt><trkpt lat="44.06581169391046" lon="11.267319121900552"><ele>625.0</ele><time>2026-04-09T15:14:08Z</time></trkpt><trkpt lat="44.06597984775845" lon="11.26736593377816"><ele>625.0</ele><time>2026-04-09T15:14:09Z</time></trkpt><trkpt lat="44.06615296413317" lon="11.267395068706202"><ele>625.0</ele><time>2026-04-09T15:14:10Z</time></trkpt><trkpt lat="44.06632845128674" lon="11.267419148137446"><ele>625.0</ele><time>2026-04-09T15:14:11Z</time></trkpt><trkpt lat="44.06650138672435" lon="11.267490889764193"><ele>625.0</ele><time>2026-04-09T15:14:12Z</time></trkpt><trkpt lat="44.06664901236447" lon="11.267625046016317"><ele>625.0</ele><time>2026-04-09T15:14:13Z</time></trkpt><trkpt lat="44.06678102295109" lon="11.267802868445312"><ele>625.3333333333334</ele><time>2026-04-09T15:14:14Z</time></trkpt><trkpt lat="44.06690347935532" lon="11.267970363153086"><ele>625.6666666666666</ele><time>2026-04-09T15:14:15Z</time></trkpt><trkpt lat="44.06704413989904" lon="11.268090698283682"><ele>626.0</ele><time>2026-04-09T15:14:16Z</time></trkpt><trkpt lat="44.06721568866558" lon="11.268165210045552"><ele>626.0</ele><time>2026-04-09T15:14:17Z</time></trkpt><trkpt lat="44.06739899851168" lon="11.268209263944563"><ele>626.0</ele><time>2026-04-09T15:14:18Z</time></trkpt><trkpt lat="44.067558321337344" lon="11.26825872561544"><ele>626.0</ele><time>2026-04-09T15:14:19Z</time></trkpt><trkpt lat="44.06767662257557" lon="11.268361505153841"><ele>629.0</ele><time>2026-04-09T15:14:20Z</time></trkpt><trkpt lat="44.06776404765143" lon="11.268529224752738"><ele>632.0</ele><time>2026-04-09T15:14:21Z</time></trkpt><trkpt lat="44.067820998384875" lon="11.268753160082872"><ele>635.0</ele><time>2026-04-09T15:14:22Z</time></trkpt><trkpt lat="44.06786370415278" lon="11.26901719492861"><ele>635.0</ele><time>2026-04-09T15:14:23Z</time></trkpt><trkpt lat="44.06791575658305" lon="11.269272691280147"><ele>635.0</ele><time>2026-04-09T15:14:24Z</time></trkpt><trkpt lat="44.0679826931584" lon="11.269483936827683"><ele>635.0</ele><time>2026-04-09T15:14:24.999Z</time></trkpt><trkpt lat="44.0680570052117" lon="11.269658759274582"><ele>632.0</ele><time>2026-04-09T15:14:25.999Z</time></trkpt><trkpt lat="44.068144337939955" lon="11.269824340369993"><ele>629.0</ele><time>2026-04-09T15:14:26.999Z</time></trkpt><trkpt lat="44.06825797380516" lon="11.269961822659932"><ele>626.0</ele><time>2026-04-09T15:14:27.999Z</time></trkpt><trkpt lat="44.06840722058347" lon="11.270062065278744"><ele>633.6666666666666</ele><time>2026-04-09T15:14:28.999Z</time></trkpt><trkpt lat="44.06856646336241" lon="11.270154565822608"><ele>641.3333333333334</ele><time>2026-04-09T15:14:29.999Z</time></trkpt><trkpt lat="44.06872251229457" lon="11.270207682258444"><ele>649.0</ele><time>2026-04-09T15:14:30.999Z</time></trkpt><trkpt lat="44.068882526742506" lon="11.270209477320972"><ele>649.0</ele><time>2026-04-09T15:14:31.999Z</time></trkpt><trkpt lat="44.06905679544391" lon="11.270180726411635"><ele>649.0</ele><time>2026-04-09T15:14:32.999Z</time></trkpt><trkpt lat="44.069234498341395" lon="11.270150489799088"><ele>649.0</ele><time>2026-04-09T15:14:33.999Z</time></trkpt><trkpt lat="44.06941707620042" lon="11.270117801385624"><ele>653.3333333333334</ele><time>2026-04-09T15:14:34.999Z</time></trkpt><trkpt lat="44.06959724989034" lon="11.270086533657699"><ele>657.6666666666666</ele><time>2026-04-09T15:14:35.999Z</time></trkpt><trkpt lat="44.06977361801895" lon="11.27004434035076"><ele>662.0</ele><time>2026-04-09T15:14:36.999Z</time></trkpt><trkpt lat="44.06993803853219" lon="11.270001799531698"><ele>663.5</ele><time>2026-04-09T15:14:37.999Z</time></trkpt><trkpt lat="44.070087265429294" lon="11.269952437027827"><ele>665.0</ele><time>2026-04-09T15:14:38.999Z</time></trkpt><trkpt lat="44.07022745650742" lon="11.269903489752163"><ele>666.5</ele><time>2026-04-09T15:14:39.999Z</time></trkpt><trkpt lat="44.07036686598998" lon="11.269859979088409"><ele>668.0</ele><time>2026-04-09T15:14:40.999Z</time></trkpt><trkpt lat="44.07049190327301" lon="11.269847964760908"><ele>668.0</ele><time>2026-04-09T15:14:41.999Z</time></trkpt><trkpt lat="44.07061859608364" lon="11.269883029655196"><ele>668.0</ele><time>2026-04-09T15:14:42.999Z</time></trkpt><trkpt lat="44.07074045805757" lon="11.269975555113108"><ele>668.0</ele><time>2026-04-09T15:14:43.999Z</time></trkpt><trkpt lat="44.070870392255685" lon="11.270082772165601"><ele>668.0</ele><time>2026-04-09T15:14:44.999Z</time></trkpt><trkpt lat="44.07101460499176" lon="11.270182925307822"><ele>670.0</ele><time>2026-04-09T15:14:45.999Z</time></trkpt><trkpt lat="44.071156535961215" lon="11.270282225031007"><ele>672.0</ele><time>2026-04-09T15:14:46.999Z</time></trkpt><trkpt lat="44.07129077928839" lon="11.270390726819246"><ele>674.0</ele><time>2026-04-09T15:14:47.999Z</time></trkpt><trkpt lat="44.07140496048127" lon="11.270541962435892"><ele>673.0</ele><time>2026-04-09T15:14:48.999Z</time></trkpt><trkpt lat="44.07149842064168" lon="11.270731829945454"><ele>672.0</ele><time>2026-04-09T15:14:49.999Z</time></trkpt><trkpt lat="44.07160438097703" lon="11.270925692971227"><ele>671.0</ele><time>2026-04-09T15:14:50.999Z</time></trkpt><trkpt lat="44.07172493930144" lon="11.271103104089097"><ele>674.0</ele><time>2026-04-09T15:14:51.999Z</time></trkpt><trkpt lat="44.07186457757313" lon="11.27125972226766"><ele>677.0</ele><time>2026-04-09T15:14:52.999Z</time></trkpt><trkpt lat="44.07202017456086" lon="11.27139477030522"><ele>680.0</ele><time>2026-04-09T15:14:53.999Z</time></trkpt><trkpt lat="44.07217717772341" lon="11.271521517641377"><ele>680.0</ele><time>2026-04-09T15:14:54.999Z</time></trkpt><trkpt lat="44.072313197482956" lon="11.27162665516651"><ele>680.0</ele><time>2026-04-09T15:14:55.999Z</time></trkpt><trkpt lat="44.07242810101229" lon="11.271712067889382"><ele>680.0</ele><time>2026-04-09T15:14:56.999Z</time></trkpt><trkpt lat="44.072540415388836" lon="11.271767919904423"><ele>680.0</ele><time>2026-04-09T15:14:57.999Z</time></trkpt><trkpt lat="44.072635367690914" lon="11.271753298995781"><ele>682.75</ele><time>2026-04-09T15:14:58.999Z</time></trkpt><trkpt lat="44.07273203962031" lon="11.271663063370996"><ele>685.5</ele><time>2026-04-09T15:14:59.999Z</time></trkpt><trkpt lat="44.07280297942579" lon="11.271513701414582"><ele>688.25</ele><time>2026-04-09T15:15:00.999Z</time></trkpt><trkpt lat="44.072841094224444" lon="11.27133911183872"><ele>691.0</ele><time>2026-04-09T15:15:01.999Z</time></trkpt><trkpt lat="44.07283559695823" lon="11.271137157132866"><ele>692.3333333333334</ele><time>2026-04-09T15:15:02.999Z</time></trkpt><trkpt lat="44.07281498296606" lon="11.270906170620497"><ele>693.6666666666666</ele><time>2026-04-09T15:15:03.999Z</time></trkpt><trkpt lat="44.07279731479816" lon="11.270662180009614"><ele>695.0</ele><time>2026-04-09T15:15:05Z</time></trkpt><trkpt lat="44.07279593204798" lon="11.270462689723749"><ele>695.0</ele><time>2026-04-09T15:15:06Z</time></trkpt><trkpt lat="44.072795157933506" lon="11.27030027508958"><ele>695.0</ele><time>2026-04-09T15:15:07Z</time></trkpt><trkpt lat="44.07280985322123" lon="11.270172043591229"><ele>695.0</ele><time>2026-04-09T15:15:08Z</time></trkpt><trkpt lat="44.07285588479351" lon="11.270087553159133"><ele>695.0</ele><time>2026-04-09T15:15:09Z</time></trkpt><trkpt lat="44.072951428622304" lon="11.270085479288849"><ele>695.0</ele><time>2026-04-09T15:15:10Z</time></trkpt><trkpt lat="44.0730434417285" lon="11.270046951340875"><ele>695.0</ele><time>2026-04-09T15:15:11Z</time></trkpt><trkpt lat="44.07316084322273" lon="11.270054391247998"><ele>695.0</ele><time>2026-04-09T15:15:12Z</time></trkpt><trkpt lat="44.07328102103576" lon="11.270097194603323"><ele>695.0</ele><time>2026-04-09T15:15:13Z</time></trkpt><trkpt lat="44.073401212318586" lon="11.270177350156803"><ele>695.0</ele><time>2026-04-09T15:15:14Z</time></trkpt><trkpt lat="44.07351436527561" lon="11.270298777917187"><ele>697.6666666666666</ele><time>2026-04-09T15:15:15Z</time></trkpt><trkpt lat="44.073629284161505" lon="11.270433577155407"><ele>700.3333333333334</ele><time>2026-04-09T15:15:16Z</time></trkpt><trkpt lat="44.07374408036264" lon="11.27058584313055"><ele>703.0</ele><time>2026-04-09T15:15:17Z</time></trkpt><trkpt lat="44.073844244366235" lon="11.270772130098031"><ele>703.3333333333334</ele><time>2026-04-09T15:15:18Z</time></trkpt><trkpt lat="44.073915761875426" lon="11.270982353936885"><ele>703.6666666666666</ele><time>2026-04-09T15:15:19Z</time></trkpt><trkpt lat="44.07397649616272" lon="11.271200226976921"><ele>704.0</ele><time>2026-04-09T15:15:20Z</time></trkpt><trkpt lat="44.07401976067727" lon="11.27142640886399"><ele>703.3333333333333</ele><time>2026-04-09T15:15:21Z</time></trkpt><trkpt lat="44.07405122410912" lon="11.271665171220674"><ele>702.6666666666666</ele><time>2026-04-09T15:15:22Z</time></trkpt><trkpt lat="44.074067477762874" lon="11.271901350965159"><ele>702.0</ele><time>2026-04-09T15:15:23Z</time></trkpt><trkpt lat="44.074094499493924" lon="11.27213700880028"><ele>702.3333333333334</ele><time>2026-04-09T15:15:24Z</time></trkpt><trkpt lat="44.074103243714156" lon="11.272366954491515"><ele>702.6666666666667</ele><time>2026-04-09T15:15:25Z</time></trkpt><trkpt lat="44.0741177237888" lon="11.272589233555523"><ele>703.0</ele><time>2026-04-09T15:15:26Z</time></trkpt><trkpt lat="44.0741258698292" lon="11.272793483386998"><ele>707.0</ele><time>2026-04-09T15:15:27Z</time></trkpt><trkpt lat="44.07412612179282" lon="11.273002857926935"><ele>711.0</ele><time>2026-04-09T15:15:28Z</time></trkpt><trkpt lat="44.07409119951222" lon="11.273220062394524"><ele>715.0</ele><time>2026-04-09T15:15:29Z</time></trkpt><trkpt lat="44.07402046397384" lon="11.273410530843632"><ele>715.0</ele><time>2026-04-09T15:15:30Z</time></trkpt><trkpt lat="44.073942940164414" lon="11.273607245426449"><ele>715.0</ele><time>2026-04-09T15:15:31Z</time></trkpt><trkpt lat="44.07389259126159" lon="11.273773536573096"><ele>715.0</ele><time>2026-04-09T15:15:32Z</time></trkpt><trkpt lat="44.07387521039485" lon="11.273934287482453"><ele>715.0</ele><time>2026-04-09T15:15:33Z</time></trkpt><trkpt lat="44.073900654182296" lon="11.27409250770888"><ele>716.3333333333334</ele><time>2026-04-09T15:15:34Z</time></trkpt><trkpt lat="44.07398253701877" lon="11.274253600139913"><ele>717.6666666666666</ele><time>2026-04-09T15:15:35Z</time></trkpt><trkpt lat="44.07410820917947" lon="11.27443400312345"><ele>719.0</ele><time>2026-04-09T15:15:36Z</time></trkpt><trkpt lat="44.07423886518128" lon="11.27463174600361"><ele>723.6666666666666</ele><time>2026-04-09T15:15:37Z</time></trkpt><trkpt lat="44.07435045382144" lon="11.274806314172436"><ele>728.3333333333334</ele><time>2026-04-09T15:15:38Z</time></trkpt><trkpt lat="44.07445347323426" lon="11.274945004690682"><ele>733.0</ele><time>2026-04-09T15:15:39Z</time></trkpt><trkpt lat="44.074590170395105" lon="11.275062875737373"><ele>733.0</ele><time>2026-04-09T15:15:40Z</time></trkpt><trkpt lat="44.07475005604787" lon="11.275160050961157"><ele>733.0</ele><time>2026-04-09T15:15:41Z</time></trkpt><trkpt lat="44.0748966779841" lon="11.275238021693816"><ele>733.0</ele><time>2026-04-09T15:15:42Z</time></trkpt><trkpt lat="44.07502254249087" lon="11.27533227722944"><ele>737.0</ele><time>2026-04-09T15:15:43Z</time></trkpt><trkpt lat="44.07512163922739" lon="11.275468915357125"><ele>741.0</ele><time>2026-04-09T15:15:44Z</time></trkpt><trkpt lat="44.07518106581312" lon="11.275668091773477"><ele>745.0</ele><time>2026-04-09T15:15:45Z</time></trkpt><trkpt lat="44.075238574600014" lon="11.27589059460686"><ele>745.0</ele><time>2026-04-09T15:15:46Z</time></trkpt><trkpt lat="44.07530568290764" lon="11.27609379161923"><ele>745.0</ele><time>2026-04-09T15:15:47Z</time></trkpt><trkpt lat="44.075411731400344" lon="11.276274132577951"><ele>745.0</ele><time>2026-04-09T15:15:48Z</time></trkpt><trkpt lat="44.07553819128715" lon="11.27643335472373"><ele>745.0</ele><time>2026-04-09T15:15:49Z</time></trkpt><trkpt lat="44.07566094798137" lon="11.276598238171113"><ele>745.0</ele><time>2026-04-09T15:15:50Z</time></trkpt><trkpt lat="44.07576380748834" lon="11.27673895454381"><ele>745.0</ele><time>2026-04-09T15:15:51Z</time></trkpt><trkpt lat="44.07584480657579" lon="11.276872855178867"><ele>745.0</ele><time>2026-04-09T15:15:52Z</time></trkpt><trkpt lat="44.0758824433485" lon="11.27702307481259"><ele>744.5</ele><time>2026-04-09T15:15:53Z</time></trkpt><trkpt lat="44.07585091870007" lon="11.27720673620694"><ele>744.0</ele><time>2026-04-09T15:15:54Z</time></trkpt><trkpt lat="44.075800638026884" lon="11.277385976210358"><ele>743.5</ele><time>2026-04-09T15:15:55Z</time></trkpt><trkpt lat="44.07574504539067" lon="11.277556589677113"><ele>743.0</ele><time>2026-04-09T15:15:56Z</time></trkpt><trkpt lat="44.0757525882938" lon="11.277740700418335"><ele>751.0</ele><time>2026-04-09T15:15:57Z</time></trkpt><trkpt lat="44.07580746729821" lon="11.27793778618031"><ele>759.0</ele><time>2026-04-09T15:15:58Z</time></trkpt><trkpt lat="44.07587160827491" lon="11.278156126743674"><ele>767.0</ele><time>2026-04-09T15:15:59Z</time></trkpt><trkpt lat="44.07589090197084" lon="11.278377044250464"><ele>767.0</ele><time>2026-04-09T15:16:00Z</time></trkpt><trkpt lat="44.07588338316301" lon="11.278589818863903"><ele>767.0</ele><time>2026-04-09T15:16:01Z</time></trkpt><trkpt lat="44.07586003464678" lon="11.278798952100532"><ele>767.0</ele><time>2026-04-09T15:16:02Z</time></trkpt><trkpt lat="44.07583731404562" lon="11.27901885788905"><ele>766.6666666666666</ele><time>2026-04-09T15:16:03Z</time></trkpt><trkpt lat="44.07581840365952" lon="11.279241192900601"><ele>766.3333333333334</ele><time>2026-04-09T15:16:04Z</time></trkpt><trkpt lat="44.07580653045427" lon="11.279484809171482"><ele>766.0</ele><time>2026-04-09T15:16:05Z</time></trkpt><trkpt lat="44.07579122038023" lon="11.279728151848577"><ele>765.6666666666667</ele><time>2026-04-09T15:16:06Z</time></trkpt><trkpt lat="44.07578177978381" lon="11.279969729380106"><ele>765.3333333333334</ele><time>2026-04-09T15:16:07Z</time></trkpt><trkpt lat="44.07578828722174" lon="11.280185648414987"><ele>765.0</ele><time>2026-04-09T15:16:08Z</time></trkpt><trkpt lat="44.075821092276044" lon="11.28035662857812"><ele>765.0</ele><time>2026-04-09T15:16:09Z</time></trkpt><trkpt lat="44.075893068893635" lon="11.280493367420249"><ele>765.0</ele><time>2026-04-09T15:16:10Z</time></trkpt><trkpt lat="44.076009002425884" lon="11.280620468175558"><ele>765.0</ele><time>2026-04-09T15:16:11Z</time></trkpt><trkpt lat="44.076139906926116" lon="11.280703462741869"><ele>765.0</ele><time>2026-04-09T15:16:12Z</time></trkpt><trkpt lat="44.076282327194754" lon="11.280740230910427"><ele>765.0</ele><time>2026-04-09T15:16:13Z</time></trkpt><trkpt lat="44.0764315539952" lon="11.280755985195068"><ele>765.0</ele><time>2026-04-09T15:16:14Z</time></trkpt><trkpt lat="44.07656681605493" lon="11.280787053394638"><ele>765.0</ele><time>2026-04-09T15:16:15Z</time></trkpt><trkpt lat="44.076694199070715" lon="11.280841438870459"><ele>765.0</ele><time>2026-04-09T15:16:16Z</time></trkpt><trkpt lat="44.07678852303658" lon="11.280961231871649"><ele>765.0</ele><time>2026-04-09T15:16:17Z</time></trkpt><trkpt lat="44.076894250735606" lon="11.281055872141886"><ele>765.0</ele><time>2026-04-09T15:16:18Z</time></trkpt><trkpt lat="44.07698053462752" lon="11.281181195365336"><ele>765.0</ele><time>2026-04-09T15:16:19Z</time></trkpt><trkpt lat="44.07708233126345" lon="11.281275617968616"><ele>765.0</ele><time>2026-04-09T15:16:20Z</time></trkpt><trkpt lat="44.077198786204875" lon="11.281345716557903"><ele>765.0</ele><time>2026-04-09T15:16:21Z</time></trkpt><trkpt lat="44.0773209978839" lon="11.281407883224364"><ele>765.0</ele><time>2026-04-09T15:16:22Z</time></trkpt><trkpt lat="44.077447297159615" lon="11.28147441744248"><ele>765.0</ele><time>2026-04-09T15:16:23Z</time></trkpt><trkpt lat="44.07757616125596" lon="11.281534723315133"><ele>765.0</ele><time>2026-04-09T15:16:24Z</time></trkpt><trkpt lat="44.07770285231586" lon="11.28159511544632"><ele>764.75</ele><time>2026-04-09T15:16:24.999Z</time></trkpt><trkpt lat="44.077833066746344" lon="11.281657105347797"><ele>764.5</ele><time>2026-04-09T15:16:25.999Z</time></trkpt><trkpt lat="44.07796872510917" lon="11.281716233247954"><ele>764.25</ele><time>2026-04-09T15:16:26.999Z</time></trkpt><trkpt lat="44.07810046378483" lon="11.281775259789404"><ele>764.0</ele><time>2026-04-09T15:16:27.999Z</time></trkpt><trkpt lat="44.07823025258007" lon="11.281833002075059"><ele>767.3333333333333</ele><time>2026-04-09T15:16:28.999Z</time></trkpt><trkpt lat="44.07837742482875" lon="11.281897041852423"><ele>770.6666666666666</ele><time>2026-04-09T15:16:29.999Z</time></trkpt><trkpt lat="44.07852043977269" lon="11.281966590214935"><ele>774.0</ele><time>2026-04-09T15:16:30.999Z</time></trkpt><trkpt lat="44.07866543421065" lon="11.282029079998004"><ele>774.0</ele><time>2026-04-09T15:16:31.999Z</time></trkpt><trkpt lat="44.07882591300093" lon="11.282071240389184"><ele>774.0</ele><time>2026-04-09T15:16:32.999Z</time></trkpt><trkpt lat="44.07902442790815" lon="11.282082800586116"><ele>774.0</ele><time>2026-04-09T15:16:33.999Z</time></trkpt><trkpt lat="44.079247853158115" lon="11.282061528533683"><ele>783.0</ele><time>2026-04-09T15:16:34.999Z</time></trkpt><trkpt lat="44.07949724340237" lon="11.282032959847236"><ele>792.0</ele><time>2026-04-09T15:16:35.999Z</time></trkpt><trkpt lat="44.07975039342178" lon="11.282003531596331"><ele>799.0</ele><time>2026-04-09T15:16:36.999Z</time></trkpt><trkpt lat="44.07999356828808" lon="11.281976164109308"><ele>806.0</ele><time>2026-04-09T15:16:37.999Z</time></trkpt><trkpt lat="44.08021805007875" lon="11.281956314528067"><ele>806.0</ele><time>2026-04-09T15:16:38.999Z</time></trkpt><trkpt lat="44.080439464482495" lon="11.281931249392095"><ele>806.0</ele><time>2026-04-09T15:16:39.999Z</time></trkpt><trkpt lat="44.080644533983495" lon="11.28192925598446"><ele>806.0</ele><time>2026-04-09T15:16:40.999Z</time></trkpt><trkpt lat="44.08084213957207" lon="11.281853801602468"><ele>807.0</ele><time>2026-04-09T15:16:41.999Z</time></trkpt><trkpt lat="44.08103816905784" lon="11.281775122908904"><ele>808.0</ele><time>2026-04-09T15:16:42.999Z</time></trkpt><trkpt lat="44.08119210689917" lon="11.281710734216395"><ele>809.0</ele><time>2026-04-09T15:16:43.999Z</time></trkpt><trkpt lat="44.08133200638626" lon="11.281609750099536"><ele>809.0</ele><time>2026-04-09T15:16:44.999Z</time></trkpt><trkpt lat="44.081467753123576" lon="11.281480873633502"><ele>809.0</ele><time>2026-04-09T15:16:45.999Z</time></trkpt><trkpt lat="44.08160351596302" lon="11.281288872043257"><ele>809.0</ele><time>2026-04-09T15:16:46.999Z</time></trkpt><trkpt lat="44.081742215847115" lon="11.281105181399619"><ele>813.0</ele><time>2026-04-09T15:16:47.999Z</time></trkpt><trkpt lat="44.08184473262572" lon="11.280976741943213"><ele>817.0</ele><time>2026-04-09T15:16:48.999Z</time></trkpt><trkpt lat="44.08193628625418" lon="11.28089986875957"><ele>821.0</ele><time>2026-04-09T15:16:49.999Z</time></trkpt><trkpt lat="44.08204618044664" lon="11.280916992892852"><ele>825.0</ele><time>2026-04-09T15:16:50.999Z</time></trkpt><trkpt lat="44.082167423909134" lon="11.280941672130561"><ele>825.0</ele><time>2026-04-09T15:16:51.999Z</time></trkpt><trkpt lat="44.08228510963872" lon="11.28105382628133"><ele>825.0</ele><time>2026-04-09T15:16:52.999Z</time></trkpt><trkpt lat="44.08237617476523" lon="11.28120176989646"><ele>825.0</ele><time>2026-04-09T15:16:53.999Z</time></trkpt><trkpt lat="44.082413848167555" lon="11.281380447590156"><ele>825.0</ele><time>2026-04-09T15:16:54.999Z</time></trkpt><trkpt lat="44.08241088662988" lon="11.28158908835664"><ele>817.3333333333333</ele><time>2026-04-09T15:16:55.999Z</time></trkpt><trkpt lat="44.082405407844526" lon="11.28185591990256"><ele>809.6666666666666</ele><time>2026-04-09T15:16:56.999Z</time></trkpt><trkpt lat="44.082403927782536" lon="11.282116577527074"><ele>802.0</ele><time>2026-04-09T15:16:57.999Z</time></trkpt><trkpt lat="44.082416510396804" lon="11.28232872481705"><ele>806.75</ele><time>2026-04-09T15:16:58.999Z</time></trkpt><trkpt lat="44.082458939929865" lon="11.282532224715363"><ele>811.5</ele><time>2026-04-09T15:16:59.999Z</time></trkpt><trkpt lat="44.08252951854258" lon="11.282736030116164"><ele>816.25</ele><time>2026-04-09T15:17:00.999Z</time></trkpt><trkpt lat="44.08259994262862" lon="11.282895993939281"><ele>821.0</ele><time>2026-04-09T15:17:01.999Z</time></trkpt><trkpt lat="44.08267121860884" lon="11.283034053011704"><ele>821.0</ele><time>2026-04-09T15:17:02.999Z</time></trkpt><trkpt lat="44.08273244157701" lon="11.28314558816832"><ele>821.0</ele><time>2026-04-09T15:17:03.999Z</time></trkpt><trkpt lat="44.0827871533569" lon="11.28325130853464"><ele>821.0</ele><time>2026-04-09T15:17:04.999Z</time></trkpt><trkpt lat="44.08284866688028" lon="11.283374132416192"><ele>821.0</ele><time>2026-04-09T15:17:05.999Z</time></trkpt><trkpt lat="44.08290379743698" lon="11.283442506279417"><ele>821.0</ele><time>2026-04-09T15:17:06.999Z</time></trkpt><trkpt lat="44.083015229769146" lon="11.283371356027889"><ele>821.0</ele><time>2026-04-09T15:17:08.999Z</time></trkpt><trkpt lat="44.08304170472639" lon="11.28327003172292"><ele>821.0</ele><time>2026-04-09T15:17:09.999Z</time></trkpt><trkpt lat="44.08301773473334" lon="11.283141129638874"><ele>821.0</ele><time>2026-04-09T15:17:11Z</time></trkpt><trkpt lat="44.08296196357532" lon="11.28297652226654"><ele>821.0</ele><time>2026-04-09T15:17:12Z</time></trkpt><trkpt lat="44.082891116401555" lon="11.282782748559137"><ele>821.0</ele><time>2026-04-09T15:17:13Z</time></trkpt><trkpt lat="44.082831662198814" lon="11.28259054193266"><ele>821.0</ele><time>2026-04-09T15:17:14Z</time></trkpt><trkpt lat="44.08280805340345" lon="11.282421173109215"><ele>821.0</ele><time>2026-04-09T15:17:15Z</time></trkpt><trkpt lat="44.08279232577386" lon="11.282274856539663"><ele>821.0</ele><time>2026-04-09T15:17:16Z</time></trkpt><trkpt lat="44.08278321043297" lon="11.282140756365013"><ele>820.8333333333334</ele><time>2026-04-09T15:17:17Z</time></trkpt><trkpt lat="44.08277490369881" lon="11.282026735054147"><ele>820.6666666666667</ele><time>2026-04-09T15:17:18Z</time></trkpt><trkpt lat="44.08277071998354" lon="11.2819332161984"><ele>820.5</ele><time>2026-04-09T15:17:19Z</time></trkpt><trkpt lat="44.08277093272649" lon="11.281841372306081"><ele>820.3333333333333</ele><time>2026-04-09T15:17:20Z</time></trkpt><trkpt lat="44.082782277596806" lon="11.281752990462309"><ele>820.1666666666666</ele><time>2026-04-09T15:17:21Z</time></trkpt><trkpt lat="44.08285761065039" lon="11.28169171497531"><ele>820.0</ele><time>2026-04-09T15:17:22Z</time></trkpt><trkpt lat="44.0829617651266" lon="11.281670618522883"><ele>820.0</ele><time>2026-04-09T15:17:23Z</time></trkpt><trkpt lat="44.08306073665663" lon="11.28160739311081"><ele>820.0</ele><time>2026-04-09T15:17:24Z</time></trkpt><trkpt lat="44.083127654370294" lon="11.281487274506492"><ele>820.0</ele><time>2026-04-09T15:17:25Z</time></trkpt><trkpt lat="44.08315641084125" lon="11.281339176253658"><ele>820.0</ele><time>2026-04-09T15:17:26Z</time></trkpt><trkpt lat="44.083174249145486" lon="11.281203019393073"><ele>820.0</ele><time>2026-04-09T15:17:27Z</time></trkpt><trkpt lat="44.08321720520596" lon="11.281094775765212"><ele>822.4</ele><time>2026-04-09T15:17:28Z</time></trkpt><trkpt lat="44.08329055304171" lon="11.281059492711089"><ele>824.8</ele><time>2026-04-09T15:17:29Z</time></trkpt><trkpt lat="44.08337771335911" lon="11.28109508307843"><ele>827.2</ele><time>2026-04-09T15:17:30Z</time></trkpt><trkpt lat="44.08347340972695" lon="11.281165330202727"><ele>829.6</ele><time>2026-04-09T15:17:31Z</time></trkpt><trkpt lat="44.08357154724855" lon="11.281234219566779"><ele>832.0</ele><time>2026-04-09T15:17:32Z</time></trkpt><trkpt lat="44.08367514589366" lon="11.2812880613175"><ele>832.0</ele><time>2026-04-09T15:17:33Z</time></trkpt><trkpt lat="44.08377897060186" lon="11.281324626736318"><ele>832.0</ele><time>2026-04-09T15:17:34Z</time></trkpt><trkpt lat="44.083869817504514" lon="11.28137157181562"><ele>832.0</ele><time>2026-04-09T15:17:35Z</time></trkpt><trkpt lat="44.08395874905223" lon="11.281424597729364"><ele>832.0</ele><time>2026-04-09T15:17:36Z</time></trkpt><trkpt lat="44.08405693284189" lon="11.2814990453036"><ele>832.0</ele><time>2026-04-09T15:17:37Z</time></trkpt><trkpt lat="44.084136971691485" lon="11.281590889884631"><ele>835.8333333333333</ele><time>2026-04-09T15:17:38Z</time></trkpt><trkpt lat="44.08420780998098" lon="11.281701806239978"><ele>839.6666666666666</ele><time>2026-04-09T15:17:39Z</time></trkpt><trkpt lat="44.084279589743645" lon="11.28179636526002"><ele>843.5</ele><time>2026-04-09T15:17:40Z</time></trkpt><trkpt lat="44.0843557196638" lon="11.28183708712068"><ele>847.3333333333333</ele><time>2026-04-09T15:17:41Z</time></trkpt><trkpt lat="44.08443635426916" lon="11.28182312641002"><ele>851.1666666666666</ele><time>2026-04-09T15:17:42Z</time></trkpt><trkpt lat="44.08450323839871" lon="11.281765208200218"><ele>855.0</ele><time>2026-04-09T15:17:43Z</time></trkpt><trkpt lat="44.084548962778676" lon="11.281641525154186"><ele>855.0</ele><time>2026-04-09T15:17:44Z</time></trkpt><trkpt lat="44.084532402718374" lon="11.28148721535965"><ele>855.0</ele><time>2026-04-09T15:17:45Z</time></trkpt><trkpt lat="44.08452343203385" lon="11.281367269219096"><ele>855.0</ele><time>2026-04-09T15:17:46Z</time></trkpt><trkpt lat="44.08455900015989" lon="11.28127880035129"><ele>855.0</ele><time>2026-04-09T15:17:47Z</time></trkpt><trkpt lat="44.08463142587568" lon="11.281217856661799"><ele>855.0</ele><time>2026-04-09T15:17:48Z</time></trkpt><trkpt lat="44.084731808331675" lon="11.281194755019666"><ele>854.1666666666666</ele><time>2026-04-09T15:17:49Z</time></trkpt><trkpt lat="44.08482000698799" lon="11.281156281051851"><ele>853.3333333333333</ele><time>2026-04-09T15:17:50Z</time></trkpt><trkpt lat="44.084903094851356" lon="11.28111303909508"><ele>852.5</ele><time>2026-04-09T15:17:51Z</time></trkpt><trkpt lat="44.084974894863" lon="11.28110611775649"><ele>851.6666666666666</ele><time>2026-04-09T15:17:52Z</time></trkpt><trkpt lat="44.08504042965625" lon="11.281169599300972"><ele>850.8333333333333</ele><time>2026-04-09T15:17:53Z</time></trkpt><trkpt lat="44.08507660363061" lon="11.281285086254488"><ele>850.0</ele><time>2026-04-09T15:17:54Z</time></trkpt><trkpt lat="44.08510637231307" lon="11.281409261493648"><ele>853.4</ele><time>2026-04-09T15:17:55Z</time></trkpt><trkpt lat="44.0851907842529" lon="11.281503898037702"><ele>856.8</ele><time>2026-04-09T15:17:56Z</time></trkpt><trkpt lat="44.08530354595542" lon="11.28154898519245"><ele>860.2</ele><time>2026-04-09T15:17:57Z</time></trkpt><trkpt lat="44.085421315096134" lon="11.28157203610157"><ele>863.6</ele><time>2026-04-09T15:17:58Z</time></trkpt><trkpt lat="44.08552350245241" lon="11.281597683484621"><ele>867.0</ele><time>2026-04-09T15:17:59Z</time></trkpt><trkpt lat="44.08561083207801" lon="11.28162353452127"><ele>867.0</ele><time>2026-04-09T15:18:00Z</time></trkpt><trkpt lat="44.085696302425326" lon="11.281659761723915"><ele>867.0</ele><time>2026-04-09T15:18:01Z</time></trkpt><trkpt lat="44.08577401380639" lon="11.281703477792075"><ele>867.0</ele><time>2026-04-09T15:18:02Z</time></trkpt><trkpt lat="44.08584876788665" lon="11.281772544569659"><ele>867.0</ele><time>2026-04-09T15:18:03Z</time></trkpt><trkpt lat="44.08590954236592" lon="11.28187393447384"><ele>867.0</ele><time>2026-04-09T15:18:04Z</time></trkpt><trkpt lat="44.085972663975205" lon="11.281968505974248"><ele>868.2</ele><time>2026-04-09T15:18:05Z</time></trkpt><trkpt lat="44.08603841755379" lon="11.282056824875944"><ele>869.4000000000001</ele><time>2026-04-09T15:18:06Z</time></trkpt><trkpt lat="44.08616030743413" lon="11.282110691733301"><ele>870.5999999999999</ele><time>2026-04-09T15:18:08Z</time></trkpt><trkpt lat="44.08623533380442" lon="11.282046821519177"><ele>871.8</ele><time>2026-04-09T15:18:09Z</time></trkpt><trkpt lat="44.08625345079119" lon="11.281873077461817"><ele>873.0</ele><time>2026-04-09T15:18:10Z</time></trkpt><trkpt lat="44.08626437537961" lon="11.281746515707487"><ele>873.0</ele><time>2026-04-09T15:18:11Z</time></trkpt><trkpt lat="44.086293418825235" lon="11.281634439644819"><ele>873.0</ele><time>2026-04-09T15:18:12Z</time></trkpt><trkpt lat="44.08631601871161" lon="11.281542895705885"><ele>873.0</ele><time>2026-04-09T15:18:13Z</time></trkpt><trkpt lat="44.08639245877121" lon="11.281525923489632"><ele>873.0</ele><time>2026-04-09T15:18:14Z</time></trkpt><trkpt lat="44.08648312428448" lon="11.281586027288558"><ele>873.0</ele><time>2026-04-09T15:18:15Z</time></trkpt><trkpt lat="44.08652650675763" lon="11.281703003767372"><ele>873.0</ele><time>2026-04-09T15:18:16Z</time></trkpt><trkpt lat="44.08659203522764" lon="11.281783848065338"><ele>875.3333333333334</ele><time>2026-04-09T15:18:17Z</time></trkpt><trkpt lat="44.0866601936915" lon="11.281848898055335"><ele>877.6666666666667</ele><time>2026-04-09T15:18:18Z</time></trkpt><trkpt lat="44.08674822093373" lon="11.28185689639391"><ele>880.0</ele><time>2026-04-09T15:18:19Z</time></trkpt><trkpt lat="44.086830668521564" lon="11.281827564827433"><ele>882.3333333333334</ele><time>2026-04-09T15:18:20Z</time></trkpt><trkpt lat="44.08689467296579" lon="11.281757670924058"><ele>884.6666666666667</ele><time>2026-04-09T15:18:21Z</time></trkpt><trkpt lat="44.086933418816734" lon="11.281644979125147"><ele>887.0</ele><time>2026-04-09T15:18:22Z</time></trkpt><trkpt lat="44.08694911149253" lon="11.281526236944257"><ele>887.0000000000001</ele><time>2026-04-09T15:18:23Z</time></trkpt><trkpt lat="44.086950623463494" lon="11.28143544385364"><ele>887.0</ele><time>2026-04-09T15:18:23.999Z</time></trkpt><trkpt lat="44.08693230803409" lon="11.281313299618464"><ele>887.0</ele><time>2026-04-09T15:18:25.999Z</time></trkpt><trkpt lat="44.08691901864158" lon="11.281225814490977"><ele>887.0</ele><time>2026-04-09T15:18:27.999Z</time></trkpt><trkpt lat="44.08691427118197" lon="11.281081265452558"><ele>887.0000000000001</ele><time>2026-04-09T15:18:30.999Z</time></trkpt><trkpt lat="44.086947955979674" lon="11.280929626104163"><ele>887.0</ele><time>2026-04-09T15:18:32.999Z</time></trkpt><trkpt lat="44.0869935218879" lon="11.280836555600034"><ele>886.0</ele><time>2026-04-09T15:18:33.999Z</time></trkpt><trkpt lat="44.08706120148213" lon="11.280764325619831"><ele>885.0</ele><time>2026-04-09T15:18:34.999Z</time></trkpt><trkpt lat="44.08713233706302" lon="11.280673937738058"><ele>884.0</ele><time>2026-04-09T15:18:35.999Z</time></trkpt><trkpt lat="44.0871952435729" lon="11.280581619561103"><ele>883.0</ele><time>2026-04-09T15:18:36.999Z</time></trkpt><trkpt lat="44.08725784951919" lon="11.280529315712473"><ele>882.0</ele><time>2026-04-09T15:18:37.999Z</time></trkpt><trkpt lat="44.08736897780208" lon="11.280493111202164"><ele>879.25</ele><time>2026-04-09T15:18:39.999Z</time></trkpt><trkpt lat="44.08748915653967" lon="11.28059072286584"><ele>876.5</ele><time>2026-04-09T15:18:41.999Z</time></trkpt><trkpt lat="44.08756587328553" lon="11.280688191855761"><ele>873.75</ele><time>2026-04-09T15:18:42.999Z</time></trkpt><trkpt lat="44.087672545114124" lon="11.280789236965015"><ele>871.0</ele><time>2026-04-09T15:18:43.999Z</time></trkpt><trkpt lat="44.08778125557938" lon="11.280916934226259"><ele>876.75</ele><time>2026-04-09T15:18:44.999Z</time></trkpt><trkpt lat="44.08787338181899" lon="11.281078208591058"><ele>882.5</ele><time>2026-04-09T15:18:45.999Z</time></trkpt><trkpt lat="44.08796510970783" lon="11.281233188236966"><ele>888.25</ele><time>2026-04-09T15:18:46.999Z</time></trkpt><trkpt lat="44.08807552179529" lon="11.281352343279735"><ele>894.0</ele><time>2026-04-09T15:18:47.999Z</time></trkpt><trkpt lat="44.08821304944083" lon="11.281397924386711"><ele>890.6666666666667</ele><time>2026-04-09T15:18:48.999Z</time></trkpt><trkpt lat="44.08839584026274" lon="11.281386505671179"><ele>887.3333333333334</ele><time>2026-04-09T15:18:49.999Z</time></trkpt><trkpt lat="44.088586182454144" lon="11.281364149795284"><ele>884.0</ele><time>2026-04-09T15:18:50.999Z</time></trkpt><trkpt lat="44.088760597038" lon="11.281399094986211"><ele>884.0</ele><time>2026-04-09T15:18:51.999Z</time></trkpt><trkpt lat="44.08892346524472" lon="11.281430805474182"><ele>884.0</ele><time>2026-04-09T15:18:52.999Z</time></trkpt><trkpt lat="44.089083912967155" lon="11.281471771780515"><ele>884.0</ele><time>2026-04-09T15:18:53.999Z</time></trkpt><trkpt lat="44.08925149864024" lon="11.281472327509668"><ele>886.3333333333334</ele><time>2026-04-09T15:18:54.999Z</time></trkpt><trkpt lat="44.08942084632097" lon="11.281426568439795"><ele>888.6666666666667</ele><time>2026-04-09T15:18:55.999Z</time></trkpt><trkpt lat="44.08958499773487" lon="11.281339783987848"><ele>891.0</ele><time>2026-04-09T15:18:56.999Z</time></trkpt><trkpt lat="44.089743643095844" lon="11.281234656482097"><ele>891.0</ele><time>2026-04-09T15:18:57.999Z</time></trkpt><trkpt lat="44.08989904444546" lon="11.2811564280291"><ele>891.0</ele><time>2026-04-09T15:18:58.999Z</time></trkpt><trkpt lat="44.09005296056527" lon="11.281112789041199"><ele>891.0</ele><time>2026-04-09T15:18:59.999Z</time></trkpt><trkpt lat="44.09019612987259" lon="11.281125398533923"><ele>891.75</ele><time>2026-04-09T15:19:00.999Z</time></trkpt><trkpt lat="44.09034886442332" lon="11.28116212532131"><ele>892.5</ele><time>2026-04-09T15:19:01.999Z</time></trkpt><trkpt lat="44.090505259414016" lon="11.281201907488764"><ele>893.25</ele><time>2026-04-09T15:19:02.999Z</time></trkpt><trkpt lat="44.09063374504128" lon="11.281199358852554"><ele>894.0</ele><time>2026-04-09T15:19:03.999Z</time></trkpt><trkpt lat="44.090748286056446" lon="11.281132178499359"><ele>894.6666666666667</ele><time>2026-04-09T15:19:04.999Z</time></trkpt><trkpt lat="44.09086338076885" lon="11.280995895834124"><ele>895.3333333333334</ele><time>2026-04-09T15:19:05.999Z</time></trkpt><trkpt lat="44.09098984248393" lon="11.280829496248886"><ele>896.0</ele><time>2026-04-09T15:19:06.999Z</time></trkpt><trkpt lat="44.091136609456875" lon="11.28069449195226"><ele>890.3333333333334</ele><time>2026-04-09T15:19:07.999Z</time></trkpt><trkpt lat="44.09127651645661" lon="11.280578057030251"><ele>884.6666666666667</ele><time>2026-04-09T15:19:08.999Z</time></trkpt><trkpt lat="44.09143064967417" lon="11.280491522559597"><ele>879.0</ele><time>2026-04-09T15:19:09.999Z</time></trkpt><trkpt lat="44.09157600881559" lon="11.280408622009023"><ele>880.75</ele><time>2026-04-09T15:19:10.999Z</time></trkpt><trkpt lat="44.09170912810893" lon="11.280314120515506"><ele>882.5</ele><time>2026-04-09T15:19:11.999Z</time></trkpt><trkpt lat="44.09182892220224" lon="11.280247528278332"><ele>884.25</ele><time>2026-04-09T15:19:12.999Z</time></trkpt><trkpt lat="44.09194737422394" lon="11.280171671256943"><ele>886.0</ele><time>2026-04-09T15:19:13.999Z</time></trkpt><trkpt lat="44.09207248953838" lon="11.28012640042441"><ele>886.0</ele><time>2026-04-09T15:19:14.999Z</time></trkpt><trkpt lat="44.092174101964005" lon="11.28004312277884"><ele>886.0</ele><time>2026-04-09T15:19:15.999Z</time></trkpt><trkpt lat="44.09226875637816" lon="11.279965894499215"><ele>886.0</ele><time>2026-04-09T15:19:17Z</time></trkpt><trkpt lat="44.092348030822336" lon="11.279841216834681"><ele>886.0</ele><time>2026-04-09T15:19:18Z</time></trkpt><trkpt lat="44.09240289583556" lon="11.279678790713687"><ele>888.75</ele><time>2026-04-09T15:19:19Z</time></trkpt><trkpt lat="44.0924408528272" lon="11.279507256996157"><ele>891.5</ele><time>2026-04-09T15:19:20Z</time></trkpt><trkpt lat="44.09249868036432" lon="11.279358694921363"><ele>894.25</ele><time>2026-04-09T15:19:21Z</time></trkpt><trkpt lat="44.09252536982408" lon="11.279215539067094"><ele>897.0</ele><time>2026-04-09T15:19:22Z</time></trkpt><trkpt lat="44.09256335776181" lon="11.279075043247436"><ele>897.0</ele><time>2026-04-09T15:19:23Z</time></trkpt><trkpt lat="44.09259361229212" lon="11.278939898755967"><ele>897.0</ele><time>2026-04-09T15:19:24Z</time></trkpt><trkpt lat="44.092618668920785" lon="11.278791719569504"><ele>897.0</ele><time>2026-04-09T15:19:25Z</time></trkpt><trkpt lat="44.0926770397293" lon="11.278666707377228"><ele>897.0</ele><time>2026-04-09T15:19:26Z</time></trkpt><trkpt lat="44.09273781675588" lon="11.27853265881412"><ele>897.0</ele><time>2026-04-09T15:19:27Z</time></trkpt><trkpt lat="44.09283014616905" lon="11.2784477128693"><ele>898.0</ele><time>2026-04-09T15:19:28Z</time></trkpt><trkpt lat="44.09293945619812" lon="11.278422502984865"><ele>899.0</ele><time>2026-04-09T15:19:29Z</time></trkpt><trkpt lat="44.09304472022377" lon="11.278394249821911"><ele>900.0</ele><time>2026-04-09T15:19:30Z</time></trkpt><trkpt lat="44.09315410728023" lon="11.27836275435591"><ele>901.0</ele><time>2026-04-09T15:19:31Z</time></trkpt><trkpt lat="44.093263191748925" lon="11.278353656963443"><ele>902.0</ele><time>2026-04-09T15:19:32Z</time></trkpt><trkpt lat="44.093359796526606" lon="11.27831937709701"><ele>902.0</ele><time>2026-04-09T15:19:33Z</time></trkpt><trkpt lat="44.0934550425939" lon="11.27826277500903"><ele>902.0</ele><time>2026-04-09T15:19:34Z</time></trkpt><trkpt lat="44.09354198441896" lon="11.278179967191043"><ele>902.0</ele><time>2026-04-09T15:19:35Z</time></trkpt><trkpt lat="44.093624963922984" lon="11.27807459815274"><ele>902.0</ele><time>2026-04-09T15:19:36Z</time></trkpt><trkpt lat="44.093698243573236" lon="11.277949847989479"><ele>902.0</ele><time>2026-04-09T15:19:37Z</time></trkpt><trkpt lat="44.093766535995165" lon="11.277814050231223"><ele>900.75</ele><time>2026-04-09T15:19:38Z</time></trkpt><trkpt lat="44.09383593097297" lon="11.277670090823344"><ele>899.5</ele><time>2026-04-09T15:19:39Z</time></trkpt><trkpt lat="44.093895518480075" lon="11.277512787406087"><ele>898.25</ele><time>2026-04-09T15:19:40Z</time></trkpt><trkpt lat="44.093962634670476" lon="11.277354629881048"><ele>897.0</ele><time>2026-04-09T15:19:41Z</time></trkpt><trkpt lat="44.094032393690554" lon="11.277198789632168"><ele>898.4000000000001</ele><time>2026-04-09T15:19:42Z</time></trkpt><trkpt lat="44.094092855034795" lon="11.277048820890741"><ele>899.8000000000001</ele><time>2026-04-09T15:19:43Z</time></trkpt><trkpt lat="44.09413040974338" lon="11.276908730528078"><ele>901.2</ele><time>2026-04-09T15:19:44Z</time></trkpt><trkpt lat="44.094161408252035" lon="11.276775993501227"><ele>902.6</ele><time>2026-04-09T15:19:45Z</time></trkpt><trkpt lat="44.094188416183194" lon="11.276655645345059"><ele>904.0</ele><time>2026-04-09T15:19:46Z</time></trkpt><trkpt lat="44.0942400169301" lon="11.276561073086226"><ele>904.0</ele><time>2026-04-09T15:19:47Z</time></trkpt><trkpt lat="44.09430498632845" lon="11.276467280658556"><ele>904.0</ele><time>2026-04-09T15:19:48Z</time></trkpt><trkpt lat="44.094367085719135" lon="11.27633948331237"><ele>904.0</ele><time>2026-04-09T15:19:49Z</time></trkpt><trkpt lat="44.0944263500533" lon="11.276193855977528"><ele>904.0</ele><time>2026-04-09T15:19:50Z</time></trkpt><trkpt lat="44.09449968287789" lon="11.27604312052245"><ele>904.0</ele><time>2026-04-09T15:19:51Z</time></trkpt><trkpt lat="44.09457828744574" lon="11.275884429181026"><ele>904.0</ele><time>2026-04-09T15:19:52Z</time></trkpt><trkpt lat="44.09466627189468" lon="11.275727552827343"><ele>904.0</ele><time>2026-04-09T15:19:53Z</time></trkpt><trkpt lat="44.09476761712234" lon="11.275589955403651"><ele>904.0</ele><time>2026-04-09T15:19:54Z</time></trkpt><trkpt lat="44.09487518032686" lon="11.275486165688463"><ele>906.75</ele><time>2026-04-09T15:19:55Z</time></trkpt><trkpt lat="44.09498456954175" lon="11.275419422876885"><ele>909.5</ele><time>2026-04-09T15:19:56Z</time></trkpt><trkpt lat="44.09509548234563" lon="11.275379863992766"><ele>912.25</ele><time>2026-04-09T15:19:57Z</time></trkpt><trkpt lat="44.09520416611155" lon="11.27535796325775"><ele>915.0</ele><time>2026-04-09T15:19:58Z</time></trkpt><trkpt lat="44.09531292345617" lon="11.27534728906641"><ele>915.0</ele><time>2026-04-09T15:19:59Z</time></trkpt><trkpt lat="44.095416033749565" lon="11.275353954671811"><ele>915.0</ele><time>2026-04-09T15:20:00Z</time></trkpt><trkpt lat="44.0955144333562" lon="11.275380618060929"><ele>915.0</ele><time>2026-04-09T15:20:01Z</time></trkpt><trkpt lat="44.09559957244383" lon="11.275415562801333"><ele>915.0</ele><time>2026-04-09T15:20:02Z</time></trkpt><trkpt lat="44.095676473391464" lon="11.27543609839833"><ele>915.0</ele><time>2026-04-09T15:20:03Z</time></trkpt><trkpt lat="44.095740723899766" lon="11.275441946536253"><ele>915.0</ele><time>2026-04-09T15:20:04Z</time></trkpt><trkpt lat="44.095844134362416" lon="11.275429205185787"><ele>915.0</ele><time>2026-04-09T15:39:18Z</time></trkpt><trkpt lat="44.09592885715557" lon="11.275428040639635"><ele>915.0</ele><time>2026-04-09T15:39:20Z</time></trkpt><trkpt lat="44.09591325429871" lon="11.275318462165805"><ele>915.0</ele><time>2026-04-09T15:39:26Z</time></trkpt><trkpt lat="44.095833647481015" lon="11.275313040104288"><ele>915.0</ele><time>2026-04-09T15:39:26.999Z</time></trkpt><trkpt lat="44.095736286326655" lon="11.275315313287283"><ele>915.0</ele><time>2026-04-09T15:39:27.999Z</time></trkpt><trkpt lat="44.09563200457711" lon="11.275316954856939"><ele>915.0</ele><time>2026-04-09T15:39:28.999Z</time></trkpt><trkpt lat="44.09551575332131" lon="11.27530871557036"><ele>915.0</ele><time>2026-04-09T15:39:29.999Z</time></trkpt><trkpt lat="44.095393790517214" lon="11.275293921270647"><ele>915.0</ele><time>2026-04-09T15:39:30.999Z</time></trkpt><trkpt lat="44.095260530408076" lon="11.27530006978433"><ele>915.0</ele><time>2026-04-09T15:39:31.999Z</time></trkpt><trkpt lat="44.09511770726847" lon="11.275331580068153"><ele>915.0</ele><time>2026-04-09T15:39:32.999Z</time></trkpt><trkpt lat="44.09498424016522" lon="11.2753804356639"><ele>912.5</ele><time>2026-04-09T15:39:33.999Z</time></trkpt><trkpt lat="44.09485922798336" lon="11.275444075634491"><ele>910.0</ele><time>2026-04-09T15:39:34.999Z</time></trkpt><trkpt lat="44.094746505992696" lon="11.275524931033988"><ele>907.5</ele><time>2026-04-09T15:39:35.999Z</time></trkpt><trkpt lat="44.094654961018875" lon="11.275634658605453"><ele>905.0</ele><time>2026-04-09T15:39:36.999Z</time></trkpt><trkpt lat="44.094576939015326" lon="11.275768899956221"><ele>904.8</ele><time>2026-04-09T15:39:37.999Z</time></trkpt><trkpt lat="44.09451272898938" lon="11.275906000039678"><ele>904.6</ele><time>2026-04-09T15:39:38.999Z</time></trkpt><trkpt lat="44.09445323488127" lon="11.276035259515167"><ele>904.4000000000001</ele><time>2026-04-09T15:39:39.999Z</time></trkpt><trkpt lat="44.09440687531499" lon="11.276158868821858"><ele>904.2</ele><time>2026-04-09T15:39:40.999Z</time></trkpt><trkpt lat="44.09436292811662" lon="11.276254190067025"><ele>904.0</ele><time>2026-04-09T15:39:41.999Z</time></trkpt><trkpt lat="44.094279780290876" lon="11.276297435920467"><ele>904.0</ele><time>2026-04-09T15:39:43.999Z</time></trkpt><trkpt lat="44.09423613125101" lon="11.276220363819093"><ele>904.0000000000001</ele><time>2026-04-09T15:39:46.999Z</time></trkpt><trkpt lat="44.094221189828936" lon="11.27605526070245"><ele>904.0000000000001</ele><time>2026-04-09T15:39:48.999Z</time></trkpt><trkpt lat="44.09427224965934" lon="11.27598860533964"><ele>904.0</ele><time>2026-04-09T15:39:49.999Z</time></trkpt><trkpt lat="44.0943155622256" lon="11.275880310625082"><ele>904.0</ele><time>2026-04-09T15:39:50.999Z</time></trkpt><trkpt lat="44.094387246515645" lon="11.275766512043834"><ele>904.0</ele><time>2026-04-09T15:39:51.999Z</time></trkpt><trkpt lat="44.09444960466378" lon="11.275634520075139"><ele>904.0</ele><time>2026-04-09T15:39:52.999Z</time></trkpt><trkpt lat="44.09450550267656" lon="11.275502996809635"><ele>904.0</ele><time>2026-04-09T15:39:53.999Z</time></trkpt><trkpt lat="44.09456600821511" lon="11.275363943547024"><ele>904.0</ele><time>2026-04-09T15:39:54.999Z</time></trkpt><trkpt lat="44.09463071377771" lon="11.275231206199402"><ele>904.25</ele><time>2026-04-09T15:39:55.999Z</time></trkpt><trkpt lat="44.094718166799964" lon="11.275128967726744"><ele>904.5</ele><time>2026-04-09T15:39:56.999Z</time></trkpt><trkpt lat="44.094811416996585" lon="11.27504453524417"><ele>904.75</ele><time>2026-04-09T15:39:57.999Z</time></trkpt><trkpt lat="44.09490297391542" lon="11.274950992154896"><ele>905.0</ele><time>2026-04-09T15:39:58.999Z</time></trkpt><trkpt lat="44.09501681664279" lon="11.274907557840661"><ele>907.5</ele><time>2026-04-09T15:39:59.999Z</time></trkpt><trkpt lat="44.095146892669206" lon="11.27485090420904"><ele>910.0</ele><time>2026-04-09T15:40:00.999Z</time></trkpt><trkpt lat="44.095283366496204" lon="11.27478121022861"><ele>912.5</ele><time>2026-04-09T15:40:01.999Z</time></trkpt><trkpt lat="44.09542649782503" lon="11.274706306340285"><ele>915.0</ele><time>2026-04-09T15:40:02.999Z</time></trkpt><trkpt lat="44.0955599432094" lon="11.2746362139811"><ele>917.0</ele><time>2026-04-09T15:40:03.999Z</time></trkpt><trkpt lat="44.09570511606377" lon="11.274573555558305"><ele>919.0</ele><time>2026-04-09T15:40:04.999Z</time></trkpt><trkpt lat="44.095852137943766" lon="11.274499341847532"><ele>921.0</ele><time>2026-04-09T15:40:05.999Z</time></trkpt><trkpt lat="44.09599028312185" lon="11.27442783447454"><ele>923.0</ele><time>2026-04-09T15:40:06.999Z</time></trkpt><trkpt lat="44.096128465075566" lon="11.274350305977766"><ele>925.0</ele><time>2026-04-09T15:40:07.999Z</time></trkpt><trkpt lat="44.09625899300513" lon="11.274254296963955"><ele>927.0</ele><time>2026-04-09T15:40:08.999Z</time></trkpt><trkpt lat="44.0963757802238" lon="11.274122816134176"><ele>929.0</ele><time>2026-04-09T15:40:09.999Z</time></trkpt><trkpt lat="44.09648082333696" lon="11.273942636060841"><ele>932.0</ele><time>2026-04-09T15:40:10.999Z</time></trkpt><trkpt lat="44.09658685453462" lon="11.273740022908306"><ele>935.0</ele><time>2026-04-09T15:40:11.999Z</time></trkpt><trkpt lat="44.09668482965556" lon="11.273536221254092"><ele>938.0</ele><time>2026-04-09T15:40:12.999Z</time></trkpt><trkpt lat="44.09678452469866" lon="11.273335737954108"><ele>938.0</ele><time>2026-04-09T15:40:13.999Z</time></trkpt><trkpt lat="44.09688672820989" lon="11.273127745982695"><ele>938.0</ele><time>2026-04-09T15:40:14.999Z</time></trkpt><trkpt lat="44.096987118535104" lon="11.272924691781768"><ele>938.0</ele><time>2026-04-09T15:40:16Z</time></trkpt><trkpt lat="44.09708850507074" lon="11.272731044983857"><ele>939.3333333333334</ele><time>2026-04-09T15:40:17Z</time></trkpt><trkpt lat="44.097184372376795" lon="11.272541490367168"><ele>940.6666666666667</ele><time>2026-04-09T15:40:18Z</time></trkpt><trkpt lat="44.097281005601204" lon="11.272356575109562"><ele>942.0</ele><time>2026-04-09T15:40:19Z</time></trkpt><trkpt lat="44.09736423360783" lon="11.272192955300492"><ele>942.0</ele><time>2026-04-09T15:40:20Z</time></trkpt><trkpt lat="44.097441324443" lon="11.27207194943315"><ele>942.0</ele><time>2026-04-09T15:40:21Z</time></trkpt><trkpt lat="44.09751636035308" lon="11.271978907061976"><ele>942.0</ele><time>2026-04-09T15:40:22Z</time></trkpt><trkpt lat="44.097629028087056" lon="11.271935657774224"><ele>942.0</ele><time>2026-04-09T15:40:23Z</time></trkpt><trkpt lat="44.097755051970246" lon="11.271860415130712"><ele>942.0</ele><time>2026-04-09T15:40:24Z</time></trkpt><trkpt lat="44.097905293961446" lon="11.271802035339773"><ele>942.0</ele><time>2026-04-09T15:40:25Z</time></trkpt><trkpt lat="44.098049125624684" lon="11.271738653529683"><ele>942.0</ele><time>2026-04-09T15:40:26Z</time></trkpt><trkpt lat="44.09819349562453" lon="11.271659762413236"><ele>943.3333333333333</ele><time>2026-04-09T15:40:27Z</time></trkpt><trkpt lat="44.09832008183921" lon="11.271532680189617"><ele>944.6666666666666</ele><time>2026-04-09T15:40:28Z</time></trkpt><trkpt lat="44.098431264935364" lon="11.271369471355973"><ele>946.0</ele><time>2026-04-09T15:40:29Z</time></trkpt><trkpt lat="44.09853670447836" lon="11.271181752782626"><ele>943.25</ele><time>2026-04-09T15:40:30Z</time></trkpt><trkpt lat="44.09864268894366" lon="11.270996559338643"><ele>940.5</ele><time>2026-04-09T15:40:31Z</time></trkpt><trkpt lat="44.09873700611335" lon="11.270846859887962"><ele>937.75</ele><time>2026-04-09T15:40:32Z</time></trkpt><trkpt lat="44.09882868607676" lon="11.27073460950712"><ele>935.0</ele><time>2026-04-09T15:40:33Z</time></trkpt><trkpt lat="44.098932605700654" lon="11.270656672054125"><ele>935.0</ele><time>2026-04-09T15:40:34Z</time></trkpt><trkpt lat="44.09905844898631" lon="11.270625872176355"><ele>935.0</ele><time>2026-04-09T15:40:35Z</time></trkpt><trkpt lat="44.09920562022425" lon="11.270609830702865"><ele>935.0</ele><time>2026-04-09T15:40:36Z</time></trkpt><trkpt lat="44.09935505423623" lon="11.270578668564369"><ele>935.0</ele><time>2026-04-09T15:40:37Z</time></trkpt><trkpt lat="44.099507587555436" lon="11.270509861526374"><ele>934.0</ele><time>2026-04-09T15:40:38Z</time></trkpt><trkpt lat="44.099648463620106" lon="11.270411894913298"><ele>933.0</ele><time>2026-04-09T15:40:39Z</time></trkpt><trkpt lat="44.0997805379523" lon="11.270287493158214"><ele>932.0</ele><time>2026-04-09T15:40:40Z</time></trkpt><trkpt lat="44.09990329848785" lon="11.270147747648771"><ele>929.75</ele><time>2026-04-09T15:40:41Z</time></trkpt><trkpt lat="44.10003035949023" lon="11.270009681960767"><ele>927.5</ele><time>2026-04-09T15:40:42Z</time></trkpt><trkpt lat="44.10015190249232" lon="11.269901142217561"><ele>925.25</ele><time>2026-04-09T15:40:43Z</time></trkpt><trkpt lat="44.10026677568864" lon="11.269797551737142"><ele>923.0</ele><time>2026-04-09T15:40:44Z</time></trkpt><trkpt lat="44.10039450299723" lon="11.269712524861367"><ele>923.0</ele><time>2026-04-09T15:40:45Z</time></trkpt><trkpt lat="44.10054389884237" lon="11.269645802902295"><ele>923.0</ele><time>2026-04-09T15:40:46Z</time></trkpt><trkpt lat="44.100699925927536" lon="11.269587891437832"><ele>923.0</ele><time>2026-04-09T15:40:47Z</time></trkpt><trkpt lat="44.10085616167634" lon="11.269523615560017"><ele>928.3333333333334</ele><time>2026-04-09T15:40:48Z</time></trkpt><trkpt lat="44.101003917609155" lon="11.269436724289458"><ele>933.6666666666667</ele><time>2026-04-09T15:40:49Z</time></trkpt><trkpt lat="44.10114787940948" lon="11.269326679149243"><ele>939.0</ele><time>2026-04-09T15:40:50Z</time></trkpt><trkpt lat="44.1012897535619" lon="11.269190976654855"><ele>939.0</ele><time>2026-04-09T15:40:51Z</time></trkpt><trkpt lat="44.101427344742746" lon="11.269028584906291"><ele>939.0</ele><time>2026-04-09T15:40:52Z</time></trkpt><trkpt lat="44.10156486274664" lon="11.268853977802223"><ele>939.0</ele><time>2026-04-09T15:40:53Z</time></trkpt><trkpt lat="44.101696798939" lon="11.268689528086682"><ele>939.25</ele><time>2026-04-09T15:40:54Z</time></trkpt><trkpt lat="44.10182122846993" lon="11.26854937018955"><ele>939.5</ele><time>2026-04-09T15:40:55Z</time></trkpt><trkpt lat="44.101933127098384" lon="11.268441533585097"><ele>939.75</ele><time>2026-04-09T15:40:56Z</time></trkpt><trkpt lat="44.10204315644694" lon="11.268365236622031"><ele>940.0</ele><time>2026-04-09T15:40:57Z</time></trkpt><trkpt lat="44.102157391065816" lon="11.26837030074673"><ele>940.0</ele><time>2026-04-09T15:40:58Z</time></trkpt><trkpt lat="44.10228920792867" lon="11.268395635590531"><ele>940.0</ele><time>2026-04-09T15:40:59Z</time></trkpt><trkpt lat="44.10243655952593" lon="11.268406884571945"><ele>940.0</ele><time>2026-04-09T15:41:00Z</time></trkpt><trkpt lat="44.10260131083722" lon="11.2684426397466"><ele>940.0</ele><time>2026-04-09T15:41:01Z</time></trkpt><trkpt lat="44.10278092215872" lon="11.268476591995597"><ele>939.0</ele><time>2026-04-09T15:41:02Z</time></trkpt><trkpt lat="44.10296700604478" lon="11.268515891469937"><ele>938.0</ele><time>2026-04-09T15:41:03Z</time></trkpt><trkpt lat="44.1031531618802" lon="11.268550610649818"><ele>937.0</ele><time>2026-04-09T15:41:04Z</time></trkpt><trkpt lat="44.10334514012795" lon="11.268585479428863"><ele>934.3333333333333</ele><time>2026-04-09T15:41:05Z</time></trkpt><trkpt lat="44.103531954398115" lon="11.268618267968355"><ele>931.6666666666667</ele><time>2026-04-09T15:41:06Z</time></trkpt><trkpt lat="44.10371187129498" lon="11.268636777415187"><ele>929.0</ele><time>2026-04-09T15:41:07Z</time></trkpt><trkpt lat="44.10389694844098" lon="11.26862545657967"><ele>928.6666666666667</ele><time>2026-04-09T15:41:08Z</time></trkpt><trkpt lat="44.10409371935537" lon="11.268588175661113"><ele>928.3333333333333</ele><time>2026-04-09T15:41:09Z</time></trkpt><trkpt lat="44.1042994747692" lon="11.268529825341167"><ele>928.0</ele><time>2026-04-09T15:41:10Z</time></trkpt><trkpt lat="44.104516002929586" lon="11.268472710049176"><ele>928.0</ele><time>2026-04-09T15:41:11Z</time></trkpt><trkpt lat="44.104734943619874" lon="11.268423790354742"><ele>928.0</ele><time>2026-04-09T15:41:12Z</time></trkpt><trkpt lat="44.10495251192712" lon="11.268371334720664"><ele>928.0</ele><time>2026-04-09T15:41:13Z</time></trkpt><trkpt lat="44.105156594686484" lon="11.268318916794515"><ele>928.0</ele><time>2026-04-09T15:41:14Z</time></trkpt><trkpt lat="44.105354885822834" lon="11.26826714180556"><ele>928.0</ele><time>2026-04-09T15:41:15Z</time></trkpt><trkpt lat="44.10554048542651" lon="11.268226874365034"><ele>928.0</ele><time>2026-04-09T15:41:16Z</time></trkpt><trkpt lat="44.10572167460895" lon="11.2681853530892"><ele>927.6666666666666</ele><time>2026-04-09T15:41:17Z</time></trkpt><trkpt lat="44.10590310313715" lon="11.268140804298286"><ele>927.3333333333333</ele><time>2026-04-09T15:41:18Z</time></trkpt><trkpt lat="44.10607162181577" lon="11.268097042055468"><ele>927.0</ele><time>2026-04-09T15:41:19Z</time></trkpt><trkpt lat="44.106235019893816" lon="11.268029475064187"><ele>924.6666666666667</ele><time>2026-04-09T15:41:20Z</time></trkpt><trkpt lat="44.10638136588452" lon="11.267928193853866"><ele>922.3333333333334</ele><time>2026-04-09T15:41:21Z</time></trkpt><trkpt lat="44.106519166781844" lon="11.267800008809909"><ele>920.0</ele><time>2026-04-09T15:41:22Z</time></trkpt><trkpt lat="44.10666159934773" lon="11.267662908274865"><ele>920.0</ele><time>2026-04-09T15:41:23Z</time></trkpt><trkpt lat="44.1068034526038" lon="11.267536564257652"><ele>920.0</ele><time>2026-04-09T15:41:24Z</time></trkpt><trkpt lat="44.10694230722045" lon="11.26742879839155"><ele>920.0</ele><time>2026-04-09T15:41:24.999Z</time></trkpt><trkpt lat="44.107070313243455" lon="11.267328788833938"><ele>920.2</ele><time>2026-04-09T15:41:25.999Z</time></trkpt><trkpt lat="44.107181872693985" lon="11.267252628739573"><ele>920.4</ele><time>2026-04-09T15:41:26.999Z</time></trkpt><trkpt lat="44.10727074880419" lon="11.26720779965361"><ele>920.5999999999999</ele><time>2026-04-09T15:41:27.999Z</time></trkpt><trkpt lat="44.1073474813606" lon="11.26718201965786"><ele>920.8</ele><time>2026-04-09T15:41:28.999Z</time></trkpt><trkpt lat="44.10742004964242" lon="11.267182353170924"><ele>921.0</ele><time>2026-04-09T15:41:29.999Z</time></trkpt><trkpt lat="44.1075159606657" lon="11.267175369819345"><ele>921.0</ele><time>2026-04-09T15:41:31.999Z</time></trkpt><trkpt lat="44.10747163834879" lon="11.266911053138179"><ele>921.0</ele><time>2026-04-09T15:41:32.999Z</time></trkpt><trkpt lat="44.10745687918573" lon="11.266769895712846"><ele>921.0</ele><time>2026-04-09T15:41:33.999Z</time></trkpt><trkpt lat="44.107436822250634" lon="11.266610892838035"><ele>921.0</ele><time>2026-04-09T15:41:34.999Z</time></trkpt><trkpt lat="44.107374721717974" lon="11.266477500613655"><ele>916.0</ele><time>2026-04-09T15:41:35.999Z</time></trkpt><trkpt lat="44.10729700326544" lon="11.266377624531682"><ele>910.9999999999999</ele><time>2026-04-09T15:41:36.999Z</time></trkpt><trkpt lat="44.10720196758424" lon="11.266316361829794"><ele>905.9999999999999</ele><time>2026-04-09T15:41:37.999Z</time></trkpt><trkpt lat="44.1070965644807" lon="11.266288327038723"><ele>901.0</ele><time>2026-04-09T15:41:38.999Z</time></trkpt><trkpt lat="44.106976449206265" lon="11.266299165921797"><ele>896.0</ele><time>2026-04-09T15:41:39.999Z</time></trkpt><trkpt lat="44.10686279979583" lon="11.26635254872513"><ele>898.75</ele><time>2026-04-09T15:41:40.999Z</time></trkpt><trkpt lat="44.106750631395506" lon="11.266447975976876"><ele>901.5</ele><time>2026-04-09T15:41:41.999Z</time></trkpt><trkpt lat="44.10663189708115" lon="11.266561377130344"><ele>904.25</ele><time>2026-04-09T15:41:42.999Z</time></trkpt><trkpt lat="44.106504612023826" lon="11.266678669084927"><ele>907.0</ele><time>2026-04-09T15:41:43.999Z</time></trkpt><trkpt lat="44.10638768739336" lon="11.266771403055246"><ele>907.0</ele><time>2026-04-09T15:41:44.999Z</time></trkpt><trkpt lat="44.106276212846616" lon="11.266832309926196"><ele>907.0</ele><time>2026-04-09T15:41:45.999Z</time></trkpt><trkpt lat="44.10615963805786" lon="11.266857436131794"><ele>907.0</ele><time>2026-04-09T15:41:46.999Z</time></trkpt><trkpt lat="44.106039257980605" lon="11.26684136858342"><ele>907.0</ele><time>2026-04-09T15:41:47.999Z</time></trkpt><trkpt lat="44.105914040289235" lon="11.266765163847557"><ele>907.0</ele><time>2026-04-09T15:41:48.999Z</time></trkpt><trkpt lat="44.10577416992689" lon="11.266703142527197"><ele>907.0</ele><time>2026-04-09T15:41:49.999Z</time></trkpt><trkpt lat="44.10564509822991" lon="11.266615761506843"><ele>907.0</ele><time>2026-04-09T15:41:50.999Z</time></trkpt><trkpt lat="44.10551013939338" lon="11.26653166186806"><ele>907.0</ele><time>2026-04-09T15:41:51.999Z</time></trkpt><trkpt lat="44.105374631874454" lon="11.266457474074537"><ele>904.25</ele><time>2026-04-09T15:41:52.999Z</time></trkpt><trkpt lat="44.10524893598215" lon="11.26635553788652"><ele>901.5</ele><time>2026-04-09T15:41:53.999Z</time></trkpt><trkpt lat="44.105112870540964" lon="11.266276427477932"><ele>898.75</ele><time>2026-04-09T15:41:54.999Z</time></trkpt><trkpt lat="44.104971368677965" lon="11.266191642731357"><ele>896.0</ele><time>2026-04-09T15:41:55.999Z</time></trkpt><trkpt lat="44.104825129632424" lon="11.266100123363978"><ele>895.3333333333334</ele><time>2026-04-09T15:41:56.999Z</time></trkpt><trkpt lat="44.1046636181105" lon="11.266012539904397"><ele>894.6666666666667</ele><time>2026-04-09T15:41:57.999Z</time></trkpt><trkpt lat="44.10450012698626" lon="11.265909151982207"><ele>894.0</ele><time>2026-04-09T15:41:58.999Z</time></trkpt><trkpt lat="44.10433767472474" lon="11.265811460533445"><ele>894.0</ele><time>2026-04-09T15:41:59.999Z</time></trkpt><trkpt lat="44.10418370131456" lon="11.265714767639526"><ele>894.0</ele><time>2026-04-09T15:42:00.999Z</time></trkpt><trkpt lat="44.10403684424212" lon="11.265618740422031"><ele>894.0</ele><time>2026-04-09T15:42:01.999Z</time></trkpt><trkpt lat="44.10388976933732" lon="11.265521339348366"><ele>890.6666666666667</ele><time>2026-04-09T15:42:02.999Z</time></trkpt><trkpt lat="44.10374437799284" lon="11.265412444786453"><ele>887.3333333333334</ele><time>2026-04-09T15:42:03.999Z</time></trkpt><trkpt lat="44.10360311221436" lon="11.265269156902484"><ele>884.0</ele><time>2026-04-09T15:42:04.999Z</time></trkpt><trkpt lat="44.10347709272533" lon="11.26509707871504"><ele>884.0</ele><time>2026-04-09T15:42:05.999Z</time></trkpt><trkpt lat="44.103363150819916" lon="11.264897945134853"><ele>884.0</ele><time>2026-04-09T15:42:06.999Z</time></trkpt><trkpt lat="44.10325912408801" lon="11.264689356364116"><ele>884.0</ele><time>2026-04-09T15:42:07.999Z</time></trkpt><trkpt lat="44.10315377397141" lon="11.26448664226883"><ele>880.6666666666667</ele><time>2026-04-09T15:42:08.999Z</time></trkpt><trkpt lat="44.1030526336717" lon="11.264303487738028"><ele>877.3333333333333</ele><time>2026-04-09T15:42:09.999Z</time></trkpt><trkpt lat="44.10294680399206" lon="11.264129179308227"><ele>874.0</ele><time>2026-04-09T15:42:10.999Z</time></trkpt><trkpt lat="44.10283620330369" lon="11.263963052301223"><ele>871.0</ele><time>2026-04-09T15:42:11.999Z</time></trkpt><trkpt lat="44.10272151448067" lon="11.26381832893784"><ele>868.0</ele><time>2026-04-09T15:42:12.999Z</time></trkpt><trkpt lat="44.10260169009708" lon="11.263690431396212"><ele>865.0</ele><time>2026-04-09T15:42:13.999Z</time></trkpt><trkpt lat="44.10247523114512" lon="11.263581546415057"><ele>865.25</ele><time>2026-04-09T15:42:14.999Z</time></trkpt><trkpt lat="44.102354369930936" lon="11.26348115162635"><ele>865.5</ele><time>2026-04-09T15:42:15.999Z</time></trkpt><trkpt lat="44.1022557752653" lon="11.263382098687025"><ele>865.75</ele><time>2026-04-09T15:42:16.999Z</time></trkpt><trkpt lat="44.102177260242144" lon="11.263291349726858"><ele>866.0</ele><time>2026-04-09T15:42:17.999Z</time></trkpt><trkpt lat="44.10211338945896" lon="11.263203005046941"><ele>863.8</ele><time>2026-04-09T15:42:18.999Z</time></trkpt><trkpt lat="44.10207937576683" lon="11.263095981050922"><ele>861.5999999999999</ele><time>2026-04-09T15:42:19.999Z</time></trkpt><trkpt lat="44.102069593091535" lon="11.262949507344796"><ele>859.4</ele><time>2026-04-09T15:42:20.999Z</time></trkpt><trkpt lat="44.10210604612985" lon="11.262786930984074"><ele>857.2</ele><time>2026-04-09T15:42:22Z</time></trkpt><trkpt lat="44.10217440632059" lon="11.262658794196751"><ele>855.0</ele><time>2026-04-09T15:42:23Z</time></trkpt><trkpt lat="44.10226987748492" lon="11.26257219512169"><ele>855.0</ele><time>2026-04-09T15:42:24Z</time></trkpt><trkpt lat="44.102392187587505" lon="11.26257081351319"><ele>855.0</ele><time>2026-04-09T15:42:25Z</time></trkpt><trkpt lat="44.10252974302955" lon="11.262558636062536"><ele>855.0</ele><time>2026-04-09T15:42:26Z</time></trkpt><trkpt lat="44.10267644069065" lon="11.262573017693358"><ele>855.0</ele><time>2026-04-09T15:42:27Z</time></trkpt><trkpt lat="44.10283846006036" lon="11.26257552805712"><ele>854.6666666666667</ele><time>2026-04-09T15:42:28Z</time></trkpt><trkpt lat="44.103006029028954" lon="11.262575913998221"><ele>854.3333333333334</ele><time>2026-04-09T15:42:29Z</time></trkpt><trkpt lat="44.103168978130775" lon="11.262574959291431"><ele>854.0</ele><time>2026-04-09T15:42:30Z</time></trkpt><trkpt lat="44.103310911926854" lon="11.262569712421866"><ele>852.5</ele><time>2026-04-09T15:42:31Z</time></trkpt><trkpt lat="44.103443232912596" lon="11.262557444820612"><ele>851.0</ele><time>2026-04-09T15:42:32Z</time></trkpt><trkpt lat="44.10356202606359" lon="11.262513357377015"><ele>849.5</ele><time>2026-04-09T15:42:33Z</time></trkpt><trkpt lat="44.10367041596755" lon="11.26241803849688"><ele>848.0</ele><time>2026-04-09T15:42:34Z</time></trkpt><trkpt lat="44.103766327628826" lon="11.262287325824618"><ele>846.0</ele><time>2026-04-09T15:42:35Z</time></trkpt><trkpt lat="44.103865580436306" lon="11.262143341733537"><ele>844.0</ele><time>2026-04-09T15:42:36Z</time></trkpt><trkpt lat="44.10396460826276" lon="11.261990883014901"><ele>842.0</ele><time>2026-04-09T15:42:37Z</time></trkpt><trkpt lat="44.104052376518126" lon="11.261828518070807"><ele>840.0</ele><time>2026-04-09T15:42:38Z</time></trkpt><trkpt lat="44.104116843485386" lon="11.26165142262684"><ele>837.3333333333333</ele><time>2026-04-09T15:42:39Z</time></trkpt><trkpt lat="44.1041713540363" lon="11.261443989769742"><ele>834.6666666666666</ele><time>2026-04-09T15:42:40Z</time></trkpt><trkpt lat="44.10422668449723" lon="11.261202662294771"><ele>832.0</ele><time>2026-04-09T15:42:41Z</time></trkpt><trkpt lat="44.1042870931852" lon="11.26094420329999"><ele>832.0</ele><time>2026-04-09T15:42:42Z</time></trkpt><trkpt lat="44.10434694843534" lon="11.260677615186259"><ele>832.0</ele><time>2026-04-09T15:42:43Z</time></trkpt><trkpt lat="44.10441681984144" lon="11.260389338416427"><ele>832.0</ele><time>2026-04-09T15:42:44Z</time></trkpt><trkpt lat="44.104488402684325" lon="11.260100835135491"><ele>830.3333333333333</ele><time>2026-04-09T15:42:45Z</time></trkpt><trkpt lat="44.10456048895605" lon="11.259818716884444"><ele>828.6666666666667</ele><time>2026-04-09T15:42:46Z</time></trkpt><trkpt lat="44.10463268417194" lon="11.259546120211956"><ele>827.0</ele><time>2026-04-09T15:42:47Z</time></trkpt><trkpt lat="44.104732490725" lon="11.259283549552775"><ele>824.3333333333334</ele><time>2026-04-09T15:42:48Z</time></trkpt><trkpt lat="44.10483864147761" lon="11.259028734210162"><ele>821.6666666666667</ele><time>2026-04-09T15:42:49Z</time></trkpt><trkpt lat="44.10495941996375" lon="11.258799064956861"><ele>819.0</ele><time>2026-04-09T15:42:50Z</time></trkpt><trkpt lat="44.10508707065899" lon="11.258566136100148"><ele>818.0</ele><time>2026-04-09T15:42:51Z</time></trkpt><trkpt lat="44.10522565303659" lon="11.258328094024778"><ele>817.0</ele><time>2026-04-09T15:42:52Z</time></trkpt><trkpt lat="44.10535772128795" lon="11.258104953042768"><ele>816.0</ele><time>2026-04-09T15:42:53Z</time></trkpt><trkpt lat="44.10548621426693" lon="11.25789311790016"><ele>815.0</ele><time>2026-04-09T15:42:54Z</time></trkpt><trkpt lat="44.10559286000621" lon="11.257700149792793"><ele>814.0</ele><time>2026-04-09T15:42:55Z</time></trkpt><trkpt lat="44.10568729566023" lon="11.257523975623817"><ele>813.0</ele><time>2026-04-09T15:42:56Z</time></trkpt><trkpt lat="44.10577489857258" lon="11.257366946554827"><ele>811.5</ele><time>2026-04-09T15:42:57Z</time></trkpt><trkpt lat="44.105845137892146" lon="11.257222876795336"><ele>810.0</ele><time>2026-04-09T15:42:58Z</time></trkpt><trkpt lat="44.10589285387964" lon="11.257060766585935"><ele>808.5</ele><time>2026-04-09T15:42:59Z</time></trkpt><trkpt lat="44.10592149791653" lon="11.256869569845854"><ele>807.0</ele><time>2026-04-09T15:43:00Z</time></trkpt><trkpt lat="44.10592649723647" lon="11.256655885209552"><ele>806.0</ele><time>2026-04-09T15:43:01Z</time></trkpt><trkpt lat="44.10590198136393" lon="11.25642990946054"><ele>805.0</ele><time>2026-04-09T15:43:02Z</time></trkpt><trkpt lat="44.10585973918663" lon="11.25619487383746"><ele>804.0</ele><time>2026-04-09T15:43:03Z</time></trkpt><trkpt lat="44.105803017461945" lon="11.255946170984512"><ele>804.0</ele><time>2026-04-09T15:43:04Z</time></trkpt><trkpt lat="44.10574818932361" lon="11.255699452111113"><ele>804.0</ele><time>2026-04-09T15:43:05Z</time></trkpt><trkpt lat="44.105705252093095" lon="11.25548060221429"><ele>804.0</ele><time>2026-04-09T15:43:06Z</time></trkpt><trkpt lat="44.10567706504119" lon="11.255300320933708"><ele>802.25</ele><time>2026-04-09T15:43:07Z</time></trkpt><trkpt lat="44.10566985224413" lon="11.255143798660399"><ele>800.5</ele><time>2026-04-09T15:43:08Z</time></trkpt><trkpt lat="44.10569944424099" lon="11.254997222766606"><ele>798.75</ele><time>2026-04-09T15:43:09Z</time></trkpt><trkpt lat="44.105767260833595" lon="11.25486124534339"><ele>797.0</ele><time>2026-04-09T15:43:10Z</time></trkpt><trkpt lat="44.10586306837893" lon="11.254744926539487"><ele>797.0</ele><time>2026-04-09T15:43:11Z</time></trkpt><trkpt lat="44.105980940619695" lon="11.254701660314499"><ele>797.0</ele><time>2026-04-09T15:43:12Z</time></trkpt><trkpt lat="44.106093201907704" lon="11.254683687138542"><ele>797.0</ele><time>2026-04-09T15:43:13Z</time></trkpt><trkpt lat="44.10621756156093" lon="11.25471525553664"><ele>797.0</ele><time>2026-04-09T15:43:14Z</time></trkpt><trkpt lat="44.106341637196195" lon="11.25479812138427"><ele>797.0</ele><time>2026-04-09T15:43:15Z</time></trkpt><trkpt lat="44.10644976801206" lon="11.254943614675307"><ele>797.0</ele><time>2026-04-09T15:43:16Z</time></trkpt><trkpt lat="44.106558543284365" lon="11.255119840458734"><ele>797.0</ele><time>2026-04-09T15:43:17Z</time></trkpt><trkpt lat="44.106668158688784" lon="11.255256168368996"><ele>796.25</ele><time>2026-04-09T15:43:18Z</time></trkpt><trkpt lat="44.106783473343484" lon="11.255342755128781"><ele>795.5</ele><time>2026-04-09T15:43:19Z</time></trkpt><trkpt lat="44.106915676983604" lon="11.255396192341708"><ele>794.75</ele><time>2026-04-09T15:43:20Z</time></trkpt><trkpt lat="44.10706009899287" lon="11.255415003163897"><ele>794.0</ele><time>2026-04-09T15:43:21Z</time></trkpt><trkpt lat="44.10721995410121" lon="11.25541146117736"><ele>794.0</ele><time>2026-04-09T15:43:21.999Z</time></trkpt><trkpt lat="44.107387107335185" lon="11.255362451014609"><ele>794.0</ele><time>2026-04-09T15:43:22.999Z</time></trkpt><trkpt lat="44.10756124926043" lon="11.255266395759095"><ele>794.0</ele><time>2026-04-09T15:43:23.999Z</time></trkpt><trkpt lat="44.10771288199082" lon="11.255167653187454"><ele>793.4000000000001</ele><time>2026-04-09T15:43:24.999Z</time></trkpt><trkpt lat="44.107839380068235" lon="11.255083649319602"><ele>792.8</ele><time>2026-04-09T15:43:25.999Z</time></trkpt><trkpt lat="44.10794008799333" lon="11.25501700943074"><ele>792.2</ele><time>2026-04-09T15:43:26.999Z</time></trkpt><trkpt lat="44.10799800607099" lon="11.254950085641909"><ele>791.5999999999999</ele><time>2026-04-09T15:43:27.999Z</time></trkpt><trkpt lat="44.10801640390378" lon="11.25485943236027"><ele>791.0</ele><time>2026-04-09T15:43:28.999Z</time></trkpt><trkpt lat="44.1080201286315" lon="11.25474742893605"><ele>789.25</ele><time>2026-04-09T15:43:29.999Z</time></trkpt><trkpt lat="44.10798762008308" lon="11.254617296177651"><ele>787.5</ele><time>2026-04-09T15:43:30.999Z</time></trkpt><trkpt lat="44.107919239675816" lon="11.254482323289327"><ele>785.75</ele><time>2026-04-09T15:43:31.999Z</time></trkpt><trkpt lat="44.10782403683355" lon="11.25434155471249"><ele>784.0</ele><time>2026-04-09T15:43:32.999Z</time></trkpt><trkpt lat="44.10770160581587" lon="11.254192016634455"><ele>784.0</ele><time>2026-04-09T15:43:33.999Z</time></trkpt><trkpt lat="44.10757444252757" lon="11.254037581324573"><ele>784.0</ele><time>2026-04-09T15:43:34.999Z</time></trkpt><trkpt lat="44.107450799413805" lon="11.253885317869877"><ele>784.0</ele><time>2026-04-09T15:43:35.999Z</time></trkpt><trkpt lat="44.10735152593672" lon="11.253742861255308"><ele>783.5</ele><time>2026-04-09T15:43:36.999Z</time></trkpt><trkpt lat="44.10728195769812" lon="11.253604440450454"><ele>783.0</ele><time>2026-04-09T15:43:37.999Z</time></trkpt><trkpt lat="44.10723689799964" lon="11.253458159475276"><ele>782.5</ele><time>2026-04-09T15:43:38.999Z</time></trkpt><trkpt lat="44.1072313150015" lon="11.253291681205424"><ele>782.0</ele><time>2026-04-09T15:43:39.999Z</time></trkpt><trkpt lat="44.10724266886169" lon="11.2531047638345"><ele>782.0</ele><time>2026-04-09T15:43:40.999Z</time></trkpt><trkpt lat="44.10727911302365" lon="11.252895569688135"><ele>782.0</ele><time>2026-04-09T15:43:41.999Z</time></trkpt><trkpt lat="44.107311333612735" lon="11.252690760710513"><ele>782.0</ele><time>2026-04-09T15:43:42.999Z</time></trkpt><trkpt lat="44.10734037508969" lon="11.252503424216135"><ele>782.0</ele><time>2026-04-09T15:43:43.999Z</time></trkpt><trkpt lat="44.107360508412945" lon="11.252340963135456"><ele>778.6</ele><time>2026-04-09T15:43:44.999Z</time></trkpt><trkpt lat="44.10736181339973" lon="11.252176510285032"><ele>775.2</ele><time>2026-04-09T15:43:45.999Z</time></trkpt><trkpt lat="44.10735988100625" lon="11.252050064778222"><ele>771.8</ele><time>2026-04-09T15:43:46.999Z</time></trkpt><trkpt lat="44.10735297745888" lon="11.251961175494356"><ele>768.4</ele><time>2026-04-09T15:43:48.999Z</time></trkpt><trkpt lat="44.10738192794859" lon="11.251847678159384"><ele>765.0</ele><time>2026-04-09T15:43:52.999Z</time></trkpt><trkpt lat="44.10733528482829" lon="11.251732880317189"><ele>765.0</ele><time>2026-04-09T15:43:54.999Z</time></trkpt><trkpt lat="44.10723475105614" lon="11.251590754283242"><ele>765.0</ele><time>2026-04-09T15:43:56.999Z</time></trkpt><trkpt lat="44.10714920980839" lon="11.251490015578092"><ele>765.0</ele><time>2026-04-09T15:43:57.999Z</time></trkpt><trkpt lat="44.10707381270564" lon="11.251373944655095"><ele>765.0</ele><time>2026-04-09T15:43:58.999Z</time></trkpt><trkpt lat="44.10702430853196" lon="11.251235320763566"><ele>760.0</ele><time>2026-04-09T15:43:59.999Z</time></trkpt><trkpt lat="44.107024649265995" lon="11.251074055556082"><ele>755.0</ele><time>2026-04-09T15:44:00.999Z</time></trkpt><trkpt lat="44.10700146564628" lon="11.25091576582744"><ele>750.0</ele><time>2026-04-09T15:44:01.999Z</time></trkpt><trkpt lat="44.10700405013078" lon="11.25075734621701"><ele>745.0</ele><time>2026-04-09T15:44:02.999Z</time></trkpt><trkpt lat="44.106989136490604" lon="11.250589352511007"><ele>741.5</ele><time>2026-04-09T15:44:03.999Z</time></trkpt><trkpt lat="44.106957961669366" lon="11.250428252450737"><ele>738.0</ele><time>2026-04-09T15:44:04.999Z</time></trkpt><trkpt lat="44.1069221182264" lon="11.250262584966297"><ele>734.5</ele><time>2026-04-09T15:44:05.999Z</time></trkpt><trkpt lat="44.106888229813784" lon="11.250094750385324"><ele>731.0</ele><time>2026-04-09T15:44:06.999Z</time></trkpt><trkpt lat="44.106860394780654" lon="11.249919879566919"><ele>728.5</ele><time>2026-04-09T15:44:07.999Z</time></trkpt><trkpt lat="44.106830007330494" lon="11.249742157583988"><ele>726.0</ele><time>2026-04-09T15:44:08.999Z</time></trkpt><trkpt lat="44.10679600207217" lon="11.249574688227455"><ele>723.5</ele><time>2026-04-09T15:44:09.999Z</time></trkpt><trkpt lat="44.10674885979645" lon="11.249411587017608"><ele>721.0</ele><time>2026-04-09T15:44:10.999Z</time></trkpt><trkpt lat="44.10668931601077" lon="11.249256119026276"><ele>721.0</ele><time>2026-04-09T15:44:11.999Z</time></trkpt><trkpt lat="44.10662913086015" lon="11.249104777546293"><ele>721.0</ele><time>2026-04-09T15:44:12.999Z</time></trkpt><trkpt lat="44.10657554720885" lon="11.24896016313431"><ele>721.0</ele><time>2026-04-09T15:44:13.999Z</time></trkpt><trkpt lat="44.106527272751656" lon="11.248830454851454"><ele>721.0</ele><time>2026-04-09T15:44:14.999Z</time></trkpt><trkpt lat="44.10648571251744" lon="11.248727612132178"><ele>721.0</ele><time>2026-04-09T15:44:15.999Z</time></trkpt><trkpt lat="44.10644376152394" lon="11.24859524458979"><ele>719.8</ele><time>2026-04-09T15:44:17.999Z</time></trkpt><trkpt lat="44.10646695150029" lon="11.24849041438565"><ele>718.5999999999999</ele><time>2026-04-09T15:44:19.999Z</time></trkpt><trkpt lat="44.106503820614414" lon="11.248332667847723"><ele>717.4</ele><time>2026-04-09T15:44:21.999Z</time></trkpt><trkpt lat="44.10663652631094" lon="11.24829966732707"><ele>716.2</ele><time>2026-04-09T15:44:22.999Z</time></trkpt><trkpt lat="44.10672869203241" lon="11.248221187202905"><ele>715.0</ele><time>2026-04-09T15:44:23.999Z</time></trkpt><trkpt lat="44.1068389240965" lon="11.248131642823356"><ele>713.75</ele><time>2026-04-09T15:44:24.999Z</time></trkpt><trkpt lat="44.10695000453726" lon="11.248046156560939"><ele>712.5</ele><time>2026-04-09T15:44:25.999Z</time></trkpt><trkpt lat="44.10706740440597" lon="11.24796506249052"><ele>711.25</ele><time>2026-04-09T15:44:26.999Z</time></trkpt><trkpt lat="44.107192898908174" lon="11.24789136644439"><ele>710.0</ele><time>2026-04-09T15:44:28Z</time></trkpt><trkpt lat="44.10733378057386" lon="11.247824986295711"><ele>710.25</ele><time>2026-04-09T15:44:29Z</time></trkpt><trkpt lat="44.10747929831264" lon="11.247762346969058"><ele>710.5</ele><time>2026-04-09T15:44:30Z</time></trkpt><trkpt lat="44.10761559412972" lon="11.247714166346121"><ele>710.75</ele><time>2026-04-09T15:44:31Z</time></trkpt><trkpt lat="44.10775498602293" lon="11.247693606424033"><ele>711.0</ele><time>2026-04-09T15:44:32Z</time></trkpt><trkpt lat="44.10790136664079" lon="11.247697692253638"><ele>711.0</ele><time>2026-04-09T15:44:33Z</time></trkpt><trkpt lat="44.10805942412667" lon="11.247714773170681"><ele>711.0</ele><time>2026-04-09T15:44:34Z</time></trkpt><trkpt lat="44.10822654525068" lon="11.24772694580541"><ele>711.0</ele><time>2026-04-09T15:44:35Z</time></trkpt><trkpt lat="44.10839638923684" lon="11.247740097696765"><ele>708.6666666666666</ele><time>2026-04-09T15:44:36Z</time></trkpt><trkpt lat="44.1085584237678" lon="11.2477526815216"><ele>706.3333333333333</ele><time>2026-04-09T15:44:37Z</time></trkpt><trkpt lat="44.10870595566924" lon="11.247765497609976"><ele>704.0</ele><time>2026-04-09T15:44:38Z</time></trkpt><trkpt lat="44.10885066482505" lon="11.247772620013489"><ele>704.0</ele><time>2026-04-09T15:44:39Z</time></trkpt><trkpt lat="44.108986824633995" lon="11.247781747853432"><ele>704.0</ele><time>2026-04-09T15:44:40Z</time></trkpt><trkpt lat="44.10910504671897" lon="11.247785828577713"><ele>704.0</ele><time>2026-04-09T15:44:41Z</time></trkpt><trkpt lat="44.1091974868753" lon="11.247764236494671"><ele>704.0</ele><time>2026-04-09T15:44:42Z</time></trkpt><trkpt lat="44.10928704615721" lon="11.247723206742743"><ele>704.0</ele><time>2026-04-09T15:44:43Z</time></trkpt><trkpt lat="44.10936645314576" lon="11.247668638595776"><ele>704.0</ele><time>2026-04-09T15:44:44Z</time></trkpt><trkpt lat="44.1094383893101" lon="11.247604817390128"><ele>704.0</ele><time>2026-04-09T15:44:45Z</time></trkpt><trkpt lat="44.10952115622989" lon="11.247519494012064"><ele>704.0</ele><time>2026-04-09T15:44:46Z</time></trkpt><trkpt lat="44.10960089015324" lon="11.247416144889968"><ele>704.0</ele><time>2026-04-09T15:44:47Z</time></trkpt><trkpt lat="44.10969673728971" lon="11.247275163779621"><ele>704.0</ele><time>2026-04-09T15:44:48Z</time></trkpt><trkpt lat="44.109812353139034" lon="11.247131956441605"><ele>702.6666666666666</ele><time>2026-04-09T15:44:49Z</time></trkpt><trkpt lat="44.10993346428503" lon="11.24696100304055"><ele>701.3333333333334</ele><time>2026-04-09T15:44:50Z</time></trkpt><trkpt lat="44.110060402761995" lon="11.246779892013768"><ele>700.0</ele><time>2026-04-09T15:44:51Z</time></trkpt><trkpt lat="44.110198982141" lon="11.246576246961146"><ele>697.0</ele><time>2026-04-09T15:44:52Z</time></trkpt><trkpt lat="44.11033072921595" lon="11.246350698897764"><ele>694.0</ele><time>2026-04-09T15:44:53Z</time></trkpt><trkpt lat="44.11048663581022" lon="11.246132686255317"><ele>691.0</ele><time>2026-04-09T15:44:54Z</time></trkpt><trkpt lat="44.11063954716517" lon="11.245900098034927"><ele>690.0</ele><time>2026-04-09T15:44:55Z</time></trkpt><trkpt lat="44.11077454874307" lon="11.24567422061169"><ele>689.0</ele><time>2026-04-09T15:44:56Z</time></trkpt><trkpt lat="44.110899604353364" lon="11.245458780019344"><ele>688.0</ele><time>2026-04-09T15:44:57Z</time></trkpt><trkpt lat="44.1110177995754" lon="11.245250805895063"><ele>685.6666666666667</ele><time>2026-04-09T15:44:58Z</time></trkpt><trkpt lat="44.111133359221434" lon="11.245051310657974"><ele>683.3333333333334</ele><time>2026-04-09T15:44:59Z</time></trkpt><trkpt lat="44.11125064823612" lon="11.244859531191821"><ele>681.0</ele><time>2026-04-09T15:45:00Z</time></trkpt><trkpt lat="44.11137574217032" lon="11.24467636516937"><ele>679.3333333333334</ele><time>2026-04-09T15:45:01Z</time></trkpt><trkpt lat="44.11151347970385" lon="11.244498735122292"><ele>677.6666666666667</ele><time>2026-04-09T15:45:02Z</time></trkpt><trkpt lat="44.111650645972134" lon="11.244338946928407"><ele>676.0</ele><time>2026-04-09T15:45:03Z</time></trkpt><trkpt lat="44.111777635386716" lon="11.244209431263982"><ele>676.0</ele><time>2026-04-09T15:45:04Z</time></trkpt><trkpt lat="44.11191699551147" lon="11.24411294501044"><ele>676.0</ele><time>2026-04-09T15:45:05Z</time></trkpt><trkpt lat="44.11207869081904" lon="11.2440195854582"><ele>676.0</ele><time>2026-04-09T15:45:06Z</time></trkpt><trkpt lat="44.11224799058995" lon="11.24390654238571"><ele>677.0</ele><time>2026-04-09T15:45:07Z</time></trkpt><trkpt lat="44.112420727451976" lon="11.24381133137015"><ele>678.0</ele><time>2026-04-09T15:45:08Z</time></trkpt><trkpt lat="44.112592201547265" lon="11.24371244857454"><ele>679.0</ele><time>2026-04-09T15:45:09Z</time></trkpt><trkpt lat="44.11276636500084" lon="11.243617906451297"><ele>679.0</ele><time>2026-04-09T15:45:10Z</time></trkpt><trkpt lat="44.112940321348084" lon="11.243516795953902"><ele>679.0</ele><time>2026-04-09T15:45:11Z</time></trkpt><trkpt lat="44.11311408441538" lon="11.243418043988989"><ele>679.0</ele><time>2026-04-09T15:45:12Z</time></trkpt><trkpt lat="44.11328608058746" lon="11.243315794379797"><ele>679.25</ele><time>2026-04-09T15:45:13Z</time></trkpt><trkpt lat="44.1134384243024" lon="11.243225147432655"><ele>679.5</ele><time>2026-04-09T15:45:14Z</time></trkpt><trkpt lat="44.113574278428175" lon="11.243137819382097"><ele>679.75</ele><time>2026-04-09T15:45:15Z</time></trkpt><trkpt lat="44.113687686335695" lon="11.24304344482981"><ele>680.0</ele><time>2026-04-09T15:45:16Z</time></trkpt><trkpt lat="44.11379131887189" lon="11.242917241296617"><ele>680.0</ele><time>2026-04-09T15:45:17Z</time></trkpt><trkpt lat="44.1138869888512" lon="11.242780978063966"><ele>680.0</ele><time>2026-04-09T15:45:18Z</time></trkpt><trkpt lat="44.11396751823781" lon="11.242628182577773"><ele>680.0</ele><time>2026-04-09T15:45:19Z</time></trkpt><trkpt lat="44.114035087739786" lon="11.242453397057925"><ele>680.0</ele><time>2026-04-09T15:45:20Z</time></trkpt><trkpt lat="44.11409276511634" lon="11.242266799412398"><ele>681.0</ele><time>2026-04-09T15:45:21Z</time></trkpt><trkpt lat="44.11414299877291" lon="11.242092298487393"><ele>682.0</ele><time>2026-04-09T15:45:22Z</time></trkpt><trkpt lat="44.11417478736907" lon="11.241919694185736"><ele>683.0</ele><time>2026-04-09T15:45:23Z</time></trkpt><trkpt lat="44.11418197398107" lon="11.24171548832744"><ele>684.0</ele><time>2026-04-09T15:45:23.999Z</time></trkpt><trkpt lat="44.11416858169565" lon="11.241494973921375"><ele>681.6666666666666</ele><time>2026-04-09T15:45:24.999Z</time></trkpt><trkpt lat="44.114148084902524" lon="11.241247622910999"><ele>679.3333333333333</ele><time>2026-04-09T15:45:25.999Z</time></trkpt><trkpt lat="44.11412007889986" lon="11.24098427418434"><ele>677.0</ele><time>2026-04-09T15:45:26.999Z</time></trkpt><trkpt lat="44.11409153007173" lon="11.240717847679269"><ele>670.3333333333333</ele><time>2026-04-09T15:45:27.999Z</time></trkpt><trkpt lat="44.1140709698758" lon="11.24045987861552"><ele>663.6666666666666</ele><time>2026-04-09T15:45:28.999Z</time></trkpt><trkpt lat="44.11405434497723" lon="11.240207750473438"><ele>657.0</ele><time>2026-04-09T15:45:29.999Z</time></trkpt><trkpt lat="44.114037781505296" lon="11.239963725736615"><ele>657.0</ele><time>2026-04-09T15:45:30.999Z</time></trkpt><trkpt lat="44.11403152436817" lon="11.239732890235281"><ele>657.0</ele><time>2026-04-09T15:45:31.999Z</time></trkpt><trkpt lat="44.11404359537762" lon="11.239507797549479"><ele>657.0</ele><time>2026-04-09T15:45:32.999Z</time></trkpt><trkpt lat="44.11407821121498" lon="11.239283835944065"><ele>657.0</ele><time>2026-04-09T15:45:33.999Z</time></trkpt><trkpt lat="44.11415078248594" lon="11.239055369134686"><ele>657.0</ele><time>2026-04-09T15:45:34.999Z</time></trkpt><trkpt lat="44.11423511766852" lon="11.238804969014353"><ele>657.0</ele><time>2026-04-09T15:45:35.999Z</time></trkpt><trkpt lat="44.114321930268645" lon="11.238542103482542"><ele>653.6666666666666</ele><time>2026-04-09T15:45:36.999Z</time></trkpt><trkpt lat="44.11440031027544" lon="11.238300298672483"><ele>650.3333333333333</ele><time>2026-04-09T15:45:37.999Z</time></trkpt><trkpt lat="44.114475463777616" lon="11.238070705506644"><ele>647.0</ele><time>2026-04-09T15:45:38.999Z</time></trkpt><trkpt lat="44.114553560822735" lon="11.237874017920372"><ele>644.75</ele><time>2026-04-09T15:45:39.999Z</time></trkpt><trkpt lat="44.11467038776842" lon="11.237719561148154"><ele>642.5</ele><time>2026-04-09T15:45:40.999Z</time></trkpt><trkpt lat="44.11476322942546" lon="11.237562082175439"><ele>640.25</ele><time>2026-04-09T15:45:41.999Z</time></trkpt><trkpt lat="44.114845078492166" lon="11.237416185265792"><ele>638.0</ele><time>2026-04-09T15:45:42.999Z</time></trkpt><trkpt lat="44.1149017071961" lon="11.2372374683234"><ele>636.75</ele><time>2026-04-09T15:45:43.999Z</time></trkpt><trkpt lat="44.114957766339955" lon="11.237058542107212"><ele>635.5</ele><time>2026-04-09T15:45:44.999Z</time></trkpt><trkpt lat="44.11504252078118" lon="11.236902482306593"><ele>634.25</ele><time>2026-04-09T15:45:45.999Z</time></trkpt><trkpt lat="44.11515838657986" lon="11.23678165917857"><ele>633.0</ele><time>2026-04-09T15:45:46.999Z</time></trkpt><trkpt lat="44.11530342524757" lon="11.236689214241137"><ele>633.0</ele><time>2026-04-09T15:45:47.999Z</time></trkpt><trkpt lat="44.115464798654834" lon="11.23660401509368"><ele>633.0</ele><time>2026-04-09T15:45:48.999Z</time></trkpt><trkpt lat="44.115626179575614" lon="11.236495046616925"><ele>633.0</ele><time>2026-04-09T15:45:49.999Z</time></trkpt><trkpt lat="44.11578967900018" lon="11.236380469588152"><ele>631.3333333333334</ele><time>2026-04-09T15:45:50.999Z</time></trkpt><trkpt lat="44.115937266804956" lon="11.236267459311657"><ele>629.6666666666667</ele><time>2026-04-09T15:45:51.999Z</time></trkpt><trkpt lat="44.11605216724717" lon="11.23614788269351"><ele>628.0</ele><time>2026-04-09T15:45:52.999Z</time></trkpt><trkpt lat="44.11614802420594" lon="11.23600001752346"><ele>628.0</ele><time>2026-04-09T15:45:53.999Z</time></trkpt><trkpt lat="44.116227498336585" lon="11.235813055106803"><ele>628.0</ele><time>2026-04-09T15:45:54.999Z</time></trkpt><trkpt lat="44.11629241946557" lon="11.23559566156889"><ele>628.0</ele><time>2026-04-09T15:45:55.999Z</time></trkpt><trkpt lat="44.11634833199472" lon="11.235359696536843"><ele>626.0</ele><time>2026-04-09T15:45:56.999Z</time></trkpt><trkpt lat="44.11639889843968" lon="11.235138982838846"><ele>624.0</ele><time>2026-04-09T15:45:57.999Z</time></trkpt><trkpt lat="44.1164459743394" lon="11.234931127903328"><ele>622.0</ele><time>2026-04-09T15:45:58.999Z</time></trkpt><trkpt lat="44.11648273462361" lon="11.234729494071793"><ele>621.0</ele><time>2026-04-09T15:45:59.999Z</time></trkpt><trkpt lat="44.116501977467856" lon="11.234539808266483"><ele>620.0</ele><time>2026-04-09T15:46:00.999Z</time></trkpt><trkpt lat="44.116517239453884" lon="11.234354626154644"><ele>619.0</ele><time>2026-04-09T15:46:01.999Z</time></trkpt><trkpt lat="44.11652900770193" lon="11.234176202220505"><ele>618.0</ele><time>2026-04-09T15:46:02.999Z</time></trkpt><trkpt lat="44.11653952005252" lon="11.23400250345187"><ele>618.3333333333334</ele><time>2026-04-09T15:46:03.999Z</time></trkpt><trkpt lat="44.11655218086046" lon="11.233865132964684"><ele>618.6666666666666</ele><time>2026-04-09T15:46:04.999Z</time></trkpt><trkpt lat="44.116564092928755" lon="11.23375200216479"><ele>619.0</ele><time>2026-04-09T15:46:05.999Z</time></trkpt><trkpt lat="44.11658360899593" lon="11.23364839955452"><ele>619.3333333333333</ele><time>2026-04-09T15:46:06.999Z</time></trkpt><trkpt lat="44.11661738164587" lon="11.233561642199193"><ele>619.6666666666666</ele><time>2026-04-09T15:46:07.999Z</time></trkpt><trkpt lat="44.11665881605671" lon="11.233491365220202"><ele>620.0</ele><time>2026-04-09T15:46:08.999Z</time></trkpt><trkpt lat="44.116741769198754" lon="11.23337905223547"><ele>622.2</ele><time>2026-04-09T15:46:10.999Z</time></trkpt><trkpt lat="44.11684807982681" lon="11.233319965283536"><ele>624.4</ele><time>2026-04-09T15:46:12.999Z</time></trkpt><trkpt lat="44.116916410710715" lon="11.233302494339005"><ele>626.6</ele><time>2026-04-09T15:46:13.999Z</time></trkpt><trkpt lat="44.116993167343765" lon="11.233279313560475"><ele>628.8</ele><time>2026-04-09T15:46:14.999Z</time></trkpt><trkpt lat="44.117078945617905" lon="11.233267510449098"><ele>631.0</ele><time>2026-04-09T15:46:15.999Z</time></trkpt><trkpt lat="44.117189522715776" lon="11.233271591395123"><ele>631.0</ele><time>2026-04-09T15:46:16.999Z</time></trkpt><trkpt lat="44.11730772600053" lon="11.23327230290997"><ele>631.0</ele><time>2026-04-09T15:46:17.999Z</time></trkpt><trkpt lat="44.11742981236799" lon="11.233264267212576"><ele>631.0</ele><time>2026-04-09T15:46:18.999Z</time></trkpt><trkpt lat="44.117560702705674" lon="11.233247786262499"><ele>631.0</ele><time>2026-04-09T15:46:19.999Z</time></trkpt><trkpt lat="44.117703168573804" lon="11.23322011651908"><ele>630.0</ele><time>2026-04-09T15:46:20.999Z</time></trkpt><trkpt lat="44.11784776280263" lon="11.23318752750537"><ele>629.0</ele><time>2026-04-09T15:46:21.999Z</time></trkpt><trkpt lat="44.11799468417198" lon="11.233158673144207"><ele>628.0</ele><time>2026-04-09T15:46:22.999Z</time></trkpt><trkpt lat="44.11812435108523" lon="11.23313012278117"><ele>627.0</ele><time>2026-04-09T15:46:23.999Z</time></trkpt><trkpt lat="44.11821909882002" lon="11.23309369705723"><ele>626.6</ele><time>2026-04-09T15:46:24.999Z</time></trkpt><trkpt lat="44.11830744262918" lon="11.233058121678216"><ele>626.2</ele><time>2026-04-09T15:46:25.999Z</time></trkpt><trkpt lat="44.11838810606048" lon="11.232980589163988"><ele>625.8</ele><time>2026-04-09T15:46:26.999Z</time></trkpt><trkpt lat="44.118446146247464" lon="11.23288026116323"><ele>625.4</ele><time>2026-04-09T15:46:27.999Z</time></trkpt><trkpt lat="44.11848219857998" lon="11.232760948269357"><ele>625.0</ele><time>2026-04-09T15:46:28.999Z</time></trkpt><trkpt lat="44.11849790800187" lon="11.232630715666291"><ele>625.0</ele><time>2026-04-09T15:46:29.999Z</time></trkpt><trkpt lat="44.11850176280452" lon="11.232481149724071"><ele>625.0</ele><time>2026-04-09T15:46:30.999Z</time></trkpt><trkpt lat="44.11849240754108" lon="11.232334634682285"><ele>625.0</ele><time>2026-04-09T15:46:31.999Z</time></trkpt><trkpt lat="44.11848632909852" lon="11.23220157510988"><ele>625.0</ele><time>2026-04-09T15:46:32.999Z</time></trkpt><trkpt lat="44.118481836317216" lon="11.232092304466534"><ele>625.0</ele><time>2026-04-09T15:46:34Z</time></trkpt><trkpt lat="44.11848339762257" lon="11.232000761740972"><ele>623.1666666666667</ele><time>2026-04-09T15:46:35Z</time></trkpt><trkpt lat="44.118522632735825" lon="11.231830460245725"><ele>621.3333333333334</ele><time>2026-04-09T15:46:37Z</time></trkpt><trkpt lat="44.11854884533564" lon="11.23173994780504"><ele>619.5</ele><time>2026-04-09T15:46:38Z</time></trkpt><trkpt lat="44.11856746648208" lon="11.231638138973507"><ele>617.6666666666666</ele><time>2026-04-09T15:46:39Z</time></trkpt><trkpt lat="44.11857420827423" lon="11.231537397564201"><ele>615.8333333333333</ele><time>2026-04-09T15:46:40Z</time></trkpt><trkpt lat="44.11856164788951" lon="11.231438860115233"><ele>614.0</ele><time>2026-04-09T15:46:41Z</time></trkpt><trkpt lat="44.118549361132686" lon="11.231287621676401"><ele>614.3333333333333</ele><time>2026-04-09T15:46:43Z</time></trkpt><trkpt lat="44.11853346975564" lon="11.231187554105857"><ele>614.6666666666666</ele><time>2026-04-09T15:46:45Z</time></trkpt><trkpt lat="44.11851278941483" lon="11.2310972201227"><ele>615.0</ele><time>2026-04-09T15:46:49Z</time></trkpt><trkpt lat="44.118471970891164" lon="11.231024942905986"><ele>615.3333333333334</ele><time>2026-04-09T15:46:53Z</time></trkpt><trkpt lat="44.11837475292223" lon="11.230968304912377"><ele>615.6666666666667</ele><time>2026-04-09T15:46:57Z</time></trkpt><trkpt lat="44.118267233814976" lon="11.230933484832388"><ele>616.0</ele><time>2026-04-09T15:46:59Z</time></trkpt><trkpt lat="44.11814542703526" lon="11.230886528507241"><ele>616.0</ele><time>2026-04-09T15:47:01Z</time></trkpt><trkpt lat="44.11807929846739" lon="11.230841235056973"><ele>616.0</ele><time>2026-04-09T15:47:02Z</time></trkpt><trkpt lat="44.118018617745626" lon="11.230782873725108"><ele>616.0</ele><time>2026-04-09T15:47:03Z</time></trkpt><trkpt lat="44.11796615196097" lon="11.230690315405814"><ele>616.0</ele><time>2026-04-09T15:47:04Z</time></trkpt><trkpt lat="44.117928017103004" lon="11.2305848835727"><ele>616.0</ele><time>2026-04-09T15:47:05Z</time></trkpt><trkpt lat="44.1178945911513" lon="11.230472628313526"><ele>616.0</ele><time>2026-04-09T15:47:06Z</time></trkpt><trkpt lat="44.11787756181428" lon="11.230360606984576"><ele>614.5</ele><time>2026-04-09T15:47:07Z</time></trkpt><trkpt lat="44.11787349678116" lon="11.230258819316155"><ele>613.0</ele><time>2026-04-09T15:47:08Z</time></trkpt><trkpt lat="44.11787917611775" lon="11.230165837062506"><ele>611.5</ele><time>2026-04-09T15:47:09Z</time></trkpt><trkpt lat="44.11789402343196" lon="11.230030785256853"><ele>610.0</ele><time>2026-04-09T15:47:11Z</time></trkpt><trkpt lat="44.117917056079264" lon="11.229931540386454"><ele>608.5</ele><time>2026-04-09T15:47:16Z</time></trkpt><trkpt lat="44.11789224682074" lon="11.22984760470426"><ele>607.0</ele><time>2026-04-09T15:47:24Z</time></trkpt><trkpt lat="44.117894105957944" lon="11.23001647789016"><ele>607.0</ele><time>2026-04-09T15:47:27.999Z</time></trkpt><trkpt lat="44.117885226479764" lon="11.230110953933954"><ele>607.0</ele><time>2026-04-09T15:47:28.999Z</time></trkpt><trkpt lat="44.11787093314798" lon="11.230275853137883"><ele>607.0</ele><time>2026-04-09T15:47:30.999Z</time></trkpt><trkpt lat="44.11787379269245" lon="11.230372378235248"><ele>607.0</ele><time>2026-04-09T15:47:31.999Z</time></trkpt><trkpt lat="44.11787912933509" lon="11.230471124087279"><ele>607.0</ele><time>2026-04-09T15:47:32.999Z</time></trkpt><trkpt lat="44.11790266654144" lon="11.230561428213088"><ele>607.0</ele><time>2026-04-09T15:47:33.999Z</time></trkpt><trkpt lat="44.11793005333668" lon="11.230656847991296"><ele>606.1428571428571</ele><time>2026-04-09T15:47:34.999Z</time></trkpt><trkpt lat="44.11797161566742" lon="11.23073957524725"><ele>605.2857142857142</ele><time>2026-04-09T15:47:35.999Z</time></trkpt><trkpt lat="44.1180122078261" lon="11.230814370619434"><ele>604.4285714285713</ele><time>2026-04-09T15:47:36.999Z</time></trkpt><trkpt lat="44.11806228807221" lon="11.230871015706404"><ele>603.5714285714286</ele><time>2026-04-09T15:47:37.999Z</time></trkpt><trkpt lat="44.11812222280247" lon="11.230928292920762"><ele>602.7142857142858</ele><time>2026-04-09T15:47:38.999Z</time></trkpt><trkpt lat="44.118192078031086" lon="11.230928827519262"><ele>601.8571428571428</ele><time>2026-04-09T15:47:39.999Z</time></trkpt><trkpt lat="44.11826647820126" lon="11.230950031121658"><ele>601.0</ele><time>2026-04-09T15:47:40.999Z</time></trkpt><trkpt lat="44.1183364068729" lon="11.23097227578323"><ele>601.0</ele><time>2026-04-09T15:47:41.999Z</time></trkpt><trkpt lat="44.11840686343827" lon="11.231015547757444"><ele>601.0</ele><time>2026-04-09T15:47:42.999Z</time></trkpt><trkpt lat="44.11848099638675" lon="11.231047764446709"><ele>601.0</ele><time>2026-04-09T15:47:43.999Z</time></trkpt><trkpt lat="44.118527429677705" lon="11.231107736395604"><ele>601.0</ele><time>2026-04-09T15:47:44.999Z</time></trkpt><trkpt lat="44.11855064077016" lon="11.231192488294992"><ele>601.0</ele><time>2026-04-09T15:47:45.999Z</time></trkpt><trkpt lat="44.11853915950386" lon="11.231293589055557"><ele>601.0</ele><time>2026-04-09T15:47:46.999Z</time></trkpt><trkpt lat="44.1185343690442" lon="11.231106085804138"><ele>607.5</ele><time>2026-04-09T15:47:48.999Z</time></trkpt><trkpt lat="44.118411560906075" lon="11.231526700720252"><ele>614.0</ele><time>2026-04-09T15:47:49.999Z</time></trkpt><trkpt lat="44.118297874740385" lon="11.23159820045527"><ele>615.3333333333333</ele><time>2026-04-09T15:47:51.999Z</time></trkpt><trkpt lat="44.11822719462258" lon="11.231645270161682"><ele>616.6666666666666</ele><time>2026-04-09T15:47:53.999Z</time></trkpt><trkpt lat="44.118168029238" lon="11.231681408702466"><ele>618.0</ele><time>2026-04-09T15:48:08.999Z</time></trkpt><trkpt lat="44.11806396927149" lon="11.231726450738009"><ele>619.3333333333334</ele><time>2026-04-09T15:48:10.999Z</time></trkpt><trkpt lat="44.118004833406395" lon="11.23176342747792"><ele>620.6666666666667</ele><time>2026-04-09T15:48:11.999Z</time></trkpt><trkpt lat="44.11790764587579" lon="11.23183175960361"><ele>622.0</ele><time>2026-04-09T15:48:13.999Z</time></trkpt><trkpt lat="44.11793513928605" lon="11.2319877412904"><ele>622.0</ele><time>2026-04-09T15:48:14.999Z</time></trkpt><trkpt lat="44.11799571705069" lon="11.232086704982972"><ele>622.0</ele><time>2026-04-09T15:48:15.999Z</time></trkpt><trkpt lat="44.11807157326083" lon="11.232180556165074"><ele>622.0</ele><time>2026-04-09T15:48:16.999Z</time></trkpt><trkpt lat="44.118203183613666" lon="11.23222815365157"><ele>622.0</ele><time>2026-04-09T15:48:17.999Z</time></trkpt><trkpt lat="44.118310648451455" lon="11.232297904145891"><ele>622.0</ele><time>2026-04-09T15:48:18.999Z</time></trkpt><trkpt lat="44.118372195340534" lon="11.232397731508403"><ele>622.6</ele><time>2026-04-09T15:48:19.999Z</time></trkpt><trkpt lat="44.11837670168418" lon="11.232524292140901"><ele>623.2</ele><time>2026-04-09T15:48:20.999Z</time></trkpt><trkpt lat="44.11835234258187" lon="11.232652590319653"><ele>623.8</ele><time>2026-04-09T15:48:21.999Z</time></trkpt><trkpt lat="44.11833095975831" lon="11.232799191389217"><ele>624.4</ele><time>2026-04-09T15:48:22.999Z</time></trkpt><trkpt lat="44.11824371891937" lon="11.232894178011776"><ele>625.0</ele><time>2026-04-09T15:48:23.999Z</time></trkpt><trkpt lat="44.11814046730284" lon="11.232961950116486"><ele>625.5</ele><time>2026-04-09T15:48:24.999Z</time></trkpt><trkpt lat="44.118013224631305" lon="11.232993032242412"><ele>626.0</ele><time>2026-04-09T15:48:25.999Z</time></trkpt><trkpt lat="44.11786809798096" lon="11.233038239751286"><ele>626.5</ele><time>2026-04-09T15:48:26.999Z</time></trkpt><trkpt lat="44.11772184344045" lon="11.233067726884912"><ele>627.0</ele><time>2026-04-09T15:48:27.999Z</time></trkpt><trkpt lat="44.11760194877489" lon="11.233097600844296"><ele>627.0</ele><time>2026-04-09T15:48:28.999Z</time></trkpt><trkpt lat="44.11750377896325" lon="11.233064051223574"><ele>627.0</ele><time>2026-04-09T15:48:29.999Z</time></trkpt><trkpt lat="44.117428561709204" lon="11.233016850274167"><ele>627.0</ele><time>2026-04-09T15:48:30.999Z</time></trkpt><trkpt lat="44.117379258488164" lon="11.232944332332783"><ele>627.0</ele><time>2026-04-09T15:48:31.999Z</time></trkpt><trkpt lat="44.117361392657415" lon="11.23284729500278"><ele>627.0</ele><time>2026-04-09T15:48:33.999Z</time></trkpt><trkpt lat="44.11728306779794" lon="11.232759193384227"><ele>627.0</ele><time>2026-04-09T15:48:36.999Z</time></trkpt><trkpt lat="44.11720031297922" lon="11.232728015088604"><ele>627.0</ele><time>2026-04-09T15:48:37.999Z</time></trkpt><trkpt lat="44.11711509412762" lon="11.232688531039827"><ele>627.0</ele><time>2026-04-09T15:48:38.999Z</time></trkpt><trkpt lat="44.11702468596136" lon="11.232640256282327"><ele>627.0</ele><time>2026-04-09T15:48:40Z</time></trkpt><trkpt lat="44.11691719416958" lon="11.23259647031674"><ele>627.0</ele><time>2026-04-09T15:48:41Z</time></trkpt><trkpt lat="44.116799524495434" lon="11.232574058491496"><ele>627.0</ele><time>2026-04-09T15:48:42Z</time></trkpt><trkpt lat="44.116666832680295" lon="11.23257216112298"><ele>626.5</ele><time>2026-04-09T15:48:43Z</time></trkpt><trkpt lat="44.11652970701394" lon="11.232591260169471"><ele>626.0</ele><time>2026-04-09T15:48:44Z</time></trkpt><trkpt lat="44.11639043391399" lon="11.232629627415193"><ele>625.5</ele><time>2026-04-09T15:48:45Z</time></trkpt><trkpt lat="44.11625308065541" lon="11.232679006079579"><ele>625.0</ele><time>2026-04-09T15:48:46Z</time></trkpt><trkpt lat="44.116121298483556" lon="11.232720731529826"><ele>625.0</ele><time>2026-04-09T15:48:47Z</time></trkpt><trkpt lat="44.11599201658489" lon="11.23273863276506"><ele>625.0</ele><time>2026-04-09T15:48:48Z</time></trkpt><trkpt lat="44.11585987429277" lon="11.232710485802833"><ele>625.0</ele><time>2026-04-09T15:48:49Z</time></trkpt><trkpt lat="44.11573175212208" lon="11.232642204704652"><ele>625.0</ele><time>2026-04-09T15:48:50Z</time></trkpt><trkpt lat="44.115619698389416" lon="11.232553143536602"><ele>623.6</ele><time>2026-04-09T15:48:51Z</time></trkpt><trkpt lat="44.115526891279224" lon="11.232449132733727"><ele>622.2</ele><time>2026-04-09T15:48:52Z</time></trkpt><trkpt lat="44.11547032679818" lon="11.232334962402646"><ele>620.8</ele><time>2026-04-09T15:48:53Z</time></trkpt><trkpt lat="44.11544941051789" lon="11.232194336509192"><ele>619.4</ele><time>2026-04-09T15:48:54Z</time></trkpt><trkpt lat="44.1154574023607" lon="11.232049647186093"><ele>618.0</ele><time>2026-04-09T15:48:55Z</time></trkpt><trkpt lat="44.11549329633063" lon="11.231925311631358"><ele>618.0</ele><time>2026-04-09T15:48:56Z</time></trkpt><trkpt lat="44.1155466716148" lon="11.23181953237619"><ele>618.0</ele><time>2026-04-09T15:48:57Z</time></trkpt><trkpt lat="44.11561130982061" lon="11.231747118788853"><ele>618.0</ele><time>2026-04-09T15:48:58Z</time></trkpt><trkpt lat="44.11570800635316" lon="11.231714428053268"><ele>618.0</ele><time>2026-04-09T15:49:00Z</time></trkpt><trkpt lat="44.11577530008478" lon="11.231725316428072"><ele>618.0</ele><time>2026-04-09T15:49:05Z</time></trkpt><trkpt lat="44.11583949514403" lon="11.231726826906042"><ele>618.0</ele><time>2026-04-09T15:49:06Z</time></trkpt><trkpt lat="44.115913611860286" lon="11.231757926258695"><ele>619.0</ele><time>2026-04-09T15:49:07Z</time></trkpt><trkpt lat="44.115991273524294" lon="11.231797436097745"><ele>620.0</ele><time>2026-04-09T15:49:08Z</time></trkpt><trkpt lat="44.11607553102353" lon="11.231834438704464"><ele>621.0</ele><time>2026-04-09T15:49:09Z</time></trkpt><trkpt lat="44.11615670299015" lon="11.231861129846427"><ele>622.0</ele><time>2026-04-09T15:49:10Z</time></trkpt><trkpt lat="44.11623689844081" lon="11.231872328974655"><ele>623.0</ele><time>2026-04-09T15:49:11Z</time></trkpt><trkpt lat="44.11631734963129" lon="11.231873258836911"><ele>624.0</ele><time>2026-04-09T15:49:12Z</time></trkpt><trkpt lat="44.11640288242062" lon="11.231867604437253"><ele>624.0</ele><time>2026-04-09T15:49:13Z</time></trkpt><trkpt lat="44.116489979951645" lon="11.231863917046248"><ele>624.0</ele><time>2026-04-09T15:49:14Z</time></trkpt><trkpt lat="44.11657811605723" lon="11.231863897887747"><ele>624.0</ele><time>2026-04-09T15:49:15Z</time></trkpt><trkpt lat="44.11665955383516" lon="11.231865070559945"><ele>624.0</ele><time>2026-04-09T15:49:16Z</time></trkpt><trkpt lat="44.116750518677044" lon="11.231855852832735"><ele>624.0</ele><time>2026-04-09T15:49:17Z</time></trkpt><trkpt lat="44.116844621458" lon="11.231827218073539"><ele>624.0</ele><time>2026-04-09T15:49:18Z</time></trkpt><trkpt lat="44.11693488639459" lon="11.231774976468829"><ele>623.8</ele><time>2026-04-09T15:49:19Z</time></trkpt><trkpt lat="44.1170326954392" lon="11.231721418184854"><ele>623.5999999999999</ele><time>2026-04-09T15:49:20Z</time></trkpt><trkpt lat="44.11712985818003" lon="11.231676061057259"><ele>623.4</ele><time>2026-04-09T15:49:21Z</time></trkpt><trkpt lat="44.11722690414229" lon="11.231644966553597"><ele>623.1999999999999</ele><time>2026-04-09T15:49:22Z</time></trkpt><trkpt lat="44.11731966494812" lon="11.23161752996044"><ele>623.0</ele><time>2026-04-09T15:49:23Z</time></trkpt><trkpt lat="44.117415553380546" lon="11.231584109481572"><ele>622.75</ele><time>2026-04-09T15:49:24Z</time></trkpt><trkpt lat="44.11751235219635" lon="11.23155485117617"><ele>622.5</ele><time>2026-04-09T15:49:25Z</time></trkpt><trkpt lat="44.117614991318234" lon="11.231524107384107"><ele>622.25</ele><time>2026-04-09T15:49:26Z</time></trkpt><trkpt lat="44.117735489693025" lon="11.231489828870806"><ele>622.0</ele><time>2026-04-09T15:49:27Z</time></trkpt><trkpt lat="44.117875194820115" lon="11.231445597992328"><ele>620.0</ele><time>2026-04-09T15:49:28Z</time></trkpt><trkpt lat="44.11803897027556" lon="11.231408056935319"><ele>618.0</ele><time>2026-04-09T15:49:29Z</time></trkpt><trkpt lat="44.118208661398505" lon="11.231369685615354"><ele>616.0</ele><time>2026-04-09T15:49:30Z</time></trkpt><trkpt lat="44.118392422440614" lon="11.231313883823438"><ele>611.0</ele><time>2026-04-09T15:49:31Z</time></trkpt><trkpt lat="44.118579942794014" lon="11.23125018748418"><ele>606.0</ele><time>2026-04-09T15:49:32Z</time></trkpt><trkpt lat="44.11876966572756" lon="11.231182908592327"><ele>601.0</ele><time>2026-04-09T15:49:33Z</time></trkpt><trkpt lat="44.11897245517787" lon="11.231102648477565"><ele>597.6666666666667</ele><time>2026-04-09T15:49:34Z</time></trkpt><trkpt lat="44.11917588480904" lon="11.231005487748872"><ele>594.3333333333334</ele><time>2026-04-09T15:49:34.999Z</time></trkpt><trkpt lat="44.11938869842069" lon="11.230900774974105"><ele>591.0</ele><time>2026-04-09T15:49:35.999Z</time></trkpt><trkpt lat="44.11960256420858" lon="11.230788887336848"><ele>591.0</ele><time>2026-04-09T15:49:36.999Z</time></trkpt><trkpt lat="44.11981579269176" lon="11.2306613314266"><ele>591.0</ele><time>2026-04-09T15:49:37.999Z</time></trkpt><trkpt lat="44.12002585385995" lon="11.230530920492061"><ele>590.5</ele><time>2026-04-09T15:49:38.999Z</time></trkpt><trkpt lat="44.12024317959843" lon="11.230384875241384"><ele>590.0</ele><time>2026-04-09T15:49:39.999Z</time></trkpt><trkpt lat="44.120460651691126" lon="11.230230499616349"><ele>590.0</ele><time>2026-04-09T15:49:40.999Z</time></trkpt><trkpt lat="44.12067557226234" lon="11.230059826808814"><ele>590.0</ele><time>2026-04-09T15:49:41.999Z</time></trkpt><trkpt lat="44.12089013159387" lon="11.229878018880562"><ele>594.5</ele><time>2026-04-09T15:49:42.999Z</time></trkpt><trkpt lat="44.121100744602494" lon="11.229692777999325"><ele>599.0</ele><time>2026-04-09T15:49:43.999Z</time></trkpt><trkpt lat="44.12130152746929" lon="11.229509915121822"><ele>599.0</ele><time>2026-04-09T15:49:44.999Z</time></trkpt><trkpt lat="44.12149752848223" lon="11.229328652637335"><ele>599.0</ele><time>2026-04-09T15:49:45.999Z</time></trkpt><trkpt lat="44.121689451499925" lon="11.229148798770535"><ele>603.5</ele><time>2026-04-09T15:49:46.999Z</time></trkpt><trkpt lat="44.12188265125349" lon="11.228968442994468"><ele>608.0</ele><time>2026-04-09T15:49:47.999Z</time></trkpt><trkpt lat="44.12207504221939" lon="11.228786122384752"><ele>608.0</ele><time>2026-04-09T15:49:48.999Z</time></trkpt><trkpt lat="44.12226596769791" lon="11.22860239704293"><ele>608.0</ele><time>2026-04-09T15:49:49.999Z</time></trkpt><trkpt lat="44.1224585178735" lon="11.228422899240572"><ele>608.0</ele><time>2026-04-09T15:49:50.999Z</time></trkpt><trkpt lat="44.122651391617836" lon="11.228240330657876"><ele>608.0</ele><time>2026-04-09T15:49:51.999Z</time></trkpt><trkpt lat="44.12284193899288" lon="11.228063087223804"><ele>608.0</ele><time>2026-04-09T15:49:52.999Z</time></trkpt><trkpt lat="44.123032515591824" lon="11.227890119428615"><ele>608.0</ele><time>2026-04-09T15:49:53.999Z</time></trkpt><trkpt lat="44.12322586988991" lon="11.22771866872092"><ele>612.0</ele><time>2026-04-09T15:49:54.999Z</time></trkpt><trkpt lat="44.1234164982096" lon="11.22754862120594"><ele>616.0</ele><time>2026-04-09T15:49:55.999Z</time></trkpt><trkpt lat="44.12360795971352" lon="11.227378217264526"><ele>609.5</ele><time>2026-04-09T15:49:56.999Z</time></trkpt><trkpt lat="44.12380081853804" lon="11.227216425940243"><ele>603.0</ele><time>2026-04-09T15:49:57.999Z</time></trkpt><trkpt lat="44.12399666004145" lon="11.227054664822338"><ele>605.0</ele><time>2026-04-09T15:49:58.999Z</time></trkpt><trkpt lat="44.124198628547795" lon="11.226893877785972"><ele>607.0</ele><time>2026-04-09T15:49:59.999Z</time></trkpt><trkpt lat="44.12440607636608" lon="11.226731622143665"><ele>607.0</ele><time>2026-04-09T15:50:00.999Z</time></trkpt><trkpt lat="44.12461583224521" lon="11.22657304758603"><ele>607.0</ele><time>2026-04-09T15:50:01.999Z</time></trkpt><trkpt lat="44.124830175231345" lon="11.226416353704732"><ele>608.0</ele><time>2026-04-09T15:50:02.999Z</time></trkpt><trkpt lat="44.12504638636651" lon="11.226264597013802"><ele>609.0</ele><time>2026-04-09T15:50:03.999Z</time></trkpt><trkpt lat="44.12526353849592" lon="11.22611605200219"><ele>609.0</ele><time>2026-04-09T15:50:04.999Z</time></trkpt><trkpt lat="44.125478652875614" lon="11.22597315703403"><ele>609.0</ele><time>2026-04-09T15:50:05.999Z</time></trkpt><trkpt lat="44.12569647212578" lon="11.22583182796338"><ele>610.5</ele><time>2026-04-09T15:50:06.999Z</time></trkpt><trkpt lat="44.12591467266289" lon="11.22569421048239"><ele>612.0</ele><time>2026-04-09T15:50:07.999Z</time></trkpt><trkpt lat="44.12613428944878" lon="11.225558963798655"><ele>608.0</ele><time>2026-04-09T15:50:08.999Z</time></trkpt><trkpt lat="44.12634976641494" lon="11.225431354724364"><ele>604.0</ele><time>2026-04-09T15:50:09.999Z</time></trkpt><trkpt lat="44.1265685364124" lon="11.225299802555792"><ele>604.0</ele><time>2026-04-09T15:50:10.999Z</time></trkpt><trkpt lat="44.126786506901105" lon="11.225164549032446"><ele>604.0</ele><time>2026-04-09T15:50:11.999Z</time></trkpt><trkpt lat="44.12700158540383" lon="11.225029777594662"><ele>604.0</ele><time>2026-04-09T15:50:12.999Z</time></trkpt><trkpt lat="44.12720921041027" lon="11.224900074980926"><ele>604.0</ele><time>2026-04-09T15:50:13.999Z</time></trkpt><trkpt lat="44.127399461730164" lon="11.224784548177542"><ele>604.0</ele><time>2026-04-09T15:50:14.999Z</time></trkpt><trkpt lat="44.12757394371159" lon="11.224680476791177"><ele>607.0</ele><time>2026-04-09T15:50:15.999Z</time></trkpt><trkpt lat="44.127736190436494" lon="11.224579892073306"><ele>610.0</ele><time>2026-04-09T15:50:16.999Z</time></trkpt><trkpt lat="44.127887055915586" lon="11.224490634652675"><ele>613.0</ele><time>2026-04-09T15:50:17.999Z</time></trkpt><trkpt lat="44.12801244522045" lon="11.224413702238003"><ele>613.0</ele><time>2026-04-09T15:50:18.999Z</time></trkpt><trkpt lat="44.12813040350905" lon="11.224346303369666"><ele>613.0</ele><time>2026-04-09T15:50:19.999Z</time></trkpt><trkpt lat="44.128249759075516" lon="11.224280350783514"><ele>613.0</ele><time>2026-04-09T15:50:20.999Z</time></trkpt><trkpt lat="44.128372675126165" lon="11.224212637492213"><ele>613.0</ele><time>2026-04-09T15:50:22.016Z</time></trkpt><trkpt lat="44.12849055917427" lon="11.224143700334663"><ele>618.0</ele><time>2026-04-09T15:50:23.02Z</time></trkpt><trkpt lat="44.12860678045521" lon="11.224075825747335"><ele>623.0</ele><time>2026-04-09T15:50:24.021Z</time></trkpt><trkpt lat="44.12872745145868" lon="11.224006975949226"><ele>628.0</ele><time>2026-04-09T15:50:25.015Z</time></trkpt><trkpt lat="44.128849200668164" lon="11.22393598716121"><ele>633.0</ele><time>2026-04-09T15:50:26.021Z</time></trkpt><trkpt lat="44.12897059235424" lon="11.223864186455298"><ele>629.3333333333334</ele><time>2026-04-09T15:50:27.022Z</time></trkpt><trkpt lat="44.129091777350986" lon="11.223794749185297"><ele>625.6666666666667</ele><time>2026-04-09T15:50:28.015Z</time></trkpt><trkpt lat="44.12925495293356" lon="11.223699742448654"><ele>622.0</ele><time>2026-04-09T15:50:28.999Z</time></trkpt><trkpt lat="44.12943741054387" lon="11.223537434591615"><ele>622.0</ele><time>2026-04-09T15:50:29.999Z</time></trkpt><trkpt lat="44.129551822373685" lon="11.22345966200625"><ele>622.0</ele><time>2026-04-09T15:50:30.999Z</time></trkpt><trkpt lat="44.129674187713114" lon="11.223386318867998"><ele>622.0</ele><time>2026-04-09T15:50:31.999Z</time></trkpt><trkpt lat="44.129803242221065" lon="11.223311088767314"><ele>622.0</ele><time>2026-04-09T15:50:32.999Z</time></trkpt><trkpt lat="44.129939657472704" lon="11.223228226628548"><ele>616.3333333333334</ele><time>2026-04-09T15:50:33.999Z</time></trkpt><trkpt lat="44.13008202756341" lon="11.223139835152748"><ele>610.6666666666666</ele><time>2026-04-09T15:50:34.999Z</time></trkpt><trkpt lat="44.13023056958457" lon="11.223053079999417"><ele>605.0</ele><time>2026-04-09T15:50:35.999Z</time></trkpt><trkpt lat="44.13038260101624" lon="11.222960877767065"><ele>605.0</ele><time>2026-04-09T15:50:36.999Z</time></trkpt><trkpt lat="44.13054386793126" lon="11.222859625974923"><ele>605.0</ele><time>2026-04-09T15:50:37.999Z</time></trkpt><trkpt lat="44.13070746439955" lon="11.222757172172674"><ele>605.0</ele><time>2026-04-09T15:50:38.999Z</time></trkpt><trkpt lat="44.13088584391456" lon="11.222644923272759"><ele>606.0</ele><time>2026-04-09T15:50:39.999Z</time></trkpt><trkpt lat="44.13107487406509" lon="11.22252328818162"><ele>607.0</ele><time>2026-04-09T15:50:40.999Z</time></trkpt><trkpt lat="44.131265720850024" lon="11.222395218802578"><ele>608.0</ele><time>2026-04-09T15:50:41.999Z</time></trkpt><trkpt lat="44.13145671909526" lon="11.222258474604766"><ele>606.0</ele><time>2026-04-09T15:50:42.999Z</time></trkpt><trkpt lat="44.13164872919523" lon="11.22211125293883"><ele>604.0</ele><time>2026-04-09T15:50:43.999Z</time></trkpt><trkpt lat="44.13184731600629" lon="11.221952074611444"><ele>602.0</ele><time>2026-04-09T15:50:44.999Z</time></trkpt><trkpt lat="44.132042432801406" lon="11.221791262638948"><ele>602.0</ele><time>2026-04-09T15:50:46Z</time></trkpt><trkpt lat="44.132231831958784" lon="11.22162188486041"><ele>602.0</ele><time>2026-04-09T15:50:47Z</time></trkpt><trkpt lat="44.13242155765618" lon="11.221440962727678"><ele>586.5</ele><time>2026-04-09T15:50:48Z</time></trkpt><trkpt lat="44.1326070733699" lon="11.22124643756933"><ele>571.0</ele><time>2026-04-09T15:50:49Z</time></trkpt><trkpt lat="44.132797738263655" lon="11.221040704893413"><ele>571.0</ele><time>2026-04-09T15:50:50Z</time></trkpt><trkpt lat="44.13299474083406" lon="11.220825281546906"><ele>571.0</ele><time>2026-04-09T15:50:51Z</time></trkpt><trkpt lat="44.133187597531496" lon="11.220606887568142"><ele>585.0</ele><time>2026-04-09T15:50:52Z</time></trkpt><trkpt lat="44.133372659427216" lon="11.220380887327163"><ele>599.0</ele><time>2026-04-09T15:50:53Z</time></trkpt><trkpt lat="44.13355528132928" lon="11.220144648673456"><ele>599.0</ele><time>2026-04-09T15:50:54Z</time></trkpt><trkpt lat="44.133724987182575" lon="11.219899162581868"><ele>599.0</ele><time>2026-04-09T15:50:55Z</time></trkpt><trkpt lat="44.13389417429957" lon="11.21964993506661"><ele>609.0</ele><time>2026-04-09T15:50:56Z</time></trkpt><trkpt lat="44.13405791891364" lon="11.219398712071895"><ele>619.0</ele><time>2026-04-09T15:50:57Z</time></trkpt><trkpt lat="44.134217155476385" lon="11.219138484238977"><ele>615.5</ele><time>2026-04-09T15:50:58Z</time></trkpt><trkpt lat="44.13437735466865" lon="11.218876118796663"><ele>612.0</ele><time>2026-04-09T15:50:59Z</time></trkpt><trkpt lat="44.13452742023402" lon="11.218605893412137"><ele>612.0</ele><time>2026-04-09T15:51:00Z</time></trkpt><trkpt lat="44.134669785789406" lon="11.218330384527718"><ele>612.0</ele><time>2026-04-09T15:51:01Z</time></trkpt><trkpt lat="44.13480368115263" lon="11.218053093451568"><ele>616.5</ele><time>2026-04-09T15:51:02Z</time></trkpt><trkpt lat="44.134939401644694" lon="11.217772255341794"><ele>621.0</ele><time>2026-04-09T15:51:03Z</time></trkpt><trkpt lat="44.13507060042786" lon="11.217490339484433"><ele>619.5</ele><time>2026-04-09T15:51:04Z</time></trkpt><trkpt lat="44.135197050413254" lon="11.217201587276154"><ele>618.0</ele><time>2026-04-09T15:51:05Z</time></trkpt><trkpt lat="44.13532112414838" lon="11.216913171928912"><ele>618.0</ele><time>2026-04-09T15:51:06Z</time></trkpt><trkpt lat="44.13544931197098" lon="11.216624646562451"><ele>618.0</ele><time>2026-04-09T15:51:07Z</time></trkpt><trkpt lat="44.135576549459905" lon="11.216340090093947"><ele>615.0</ele><time>2026-04-09T15:51:08Z</time></trkpt><trkpt lat="44.135704973606316" lon="11.216056559452985"><ele>612.0</ele><time>2026-04-09T15:51:09Z</time></trkpt><trkpt lat="44.135833448521566" lon="11.2157685650953"><ele>607.0</ele><time>2026-04-09T15:51:10Z</time></trkpt><trkpt lat="44.1359603005703" lon="11.215483520788235"><ele>602.0</ele><time>2026-04-09T15:51:11Z</time></trkpt><trkpt lat="44.13608967012854" lon="11.215197976220358"><ele>602.0</ele><time>2026-04-09T15:51:12Z</time></trkpt><trkpt lat="44.13621931010048" lon="11.21491267865381"><ele>602.0</ele><time>2026-04-09T15:51:13Z</time></trkpt><trkpt lat="44.13634870906693" lon="11.214631868511066"><ele>598.5</ele><time>2026-04-09T15:51:14Z</time></trkpt><trkpt lat="44.136477808347585" lon="11.214350914992005"><ele>595.0</ele><time>2026-04-09T15:51:15Z</time></trkpt><trkpt lat="44.13660481049595" lon="11.214064000334556"><ele>587.5</ele><time>2026-04-09T15:51:16Z</time></trkpt><trkpt lat="44.13673095724935" lon="11.213777307717676"><ele>580.0</ele><time>2026-04-09T15:51:17Z</time></trkpt><trkpt lat="44.13686081467234" lon="11.21348920044036"><ele>580.0</ele><time>2026-04-09T15:51:18Z</time></trkpt><trkpt lat="44.136989076978246" lon="11.213202621275673"><ele>580.0</ele><time>2026-04-09T15:51:19Z</time></trkpt><trkpt lat="44.13712004989463" lon="11.212920222396736"><ele>581.5</ele><time>2026-04-09T15:51:20Z</time></trkpt><trkpt lat="44.13725155485148" lon="11.212633995563088"><ele>583.0</ele><time>2026-04-09T15:51:21Z</time></trkpt><trkpt lat="44.13738284878594" lon="11.21234539404715"><ele>594.5</ele><time>2026-04-09T15:51:22Z</time></trkpt><trkpt lat="44.13751259400224" lon="11.212055762029985"><ele>606.0</ele><time>2026-04-09T15:51:23Z</time></trkpt><trkpt lat="44.13764210398447" lon="11.211768958818777"><ele>601.0</ele><time>2026-04-09T15:51:24Z</time></trkpt><trkpt lat="44.13777149842554" lon="11.211484188024965"><ele>596.0</ele><time>2026-04-09T15:51:25Z</time></trkpt><trkpt lat="44.137899669274866" lon="11.21119632721251"><ele>596.0</ele><time>2026-04-09T15:51:26Z</time></trkpt><trkpt lat="44.13803024379335" lon="11.210907911793887"><ele>596.0</ele><time>2026-04-09T15:51:27Z</time></trkpt><trkpt lat="44.138160941173346" lon="11.21061823736568"><ele>602.0</ele><time>2026-04-09T15:51:28Z</time></trkpt><trkpt lat="44.138289754536636" lon="11.2103322954846"><ele>608.0</ele><time>2026-04-09T15:51:29Z</time></trkpt><trkpt lat="44.1384159941961" lon="11.2100457116329"><ele>603.5</ele><time>2026-04-09T15:51:30Z</time></trkpt><trkpt lat="44.13854458937041" lon="11.209762256251947"><ele>599.0</ele><time>2026-04-09T15:51:31Z</time></trkpt><trkpt lat="44.13867364835223" lon="11.209481619735648"><ele>599.0</ele><time>2026-04-09T15:51:32Z</time></trkpt><trkpt lat="44.13880335607977" lon="11.209193945729877"><ele>599.0</ele><time>2026-04-09T15:51:33Z</time></trkpt><trkpt lat="44.1389325405568" lon="11.208910417763827"><ele>609.5</ele><time>2026-04-09T15:51:34Z</time></trkpt><trkpt lat="44.13906617536346" lon="11.208628119431864"><ele>620.0</ele><time>2026-04-09T15:51:35Z</time></trkpt><trkpt lat="44.13920275096983" lon="11.20835037367416"><ele>606.5</ele><time>2026-04-09T15:51:36Z</time></trkpt><trkpt lat="44.139352197528524" lon="11.2080772175781"><ele>593.0</ele><time>2026-04-09T15:51:37Z</time></trkpt><trkpt lat="44.139523699602094" lon="11.207839203588088"><ele>593.0</ele><time>2026-04-09T15:51:38Z</time></trkpt><trkpt lat="44.13971685938107" lon="11.207639003769593"><ele>593.0</ele><time>2026-04-09T15:51:39Z</time></trkpt><trkpt lat="44.13992586486857" lon="11.20745719541481"><ele>590.0</ele><time>2026-04-09T15:51:40Z</time></trkpt><trkpt lat="44.14014879831331" lon="11.20730220651482"><ele>587.0</ele><time>2026-04-09T15:51:40.999Z</time></trkpt><trkpt lat="44.140374749138566" lon="11.20717565215512"><ele>587.0</ele><time>2026-04-09T15:51:41.999Z</time></trkpt><trkpt lat="44.140608754773304" lon="11.207082534341481"><ele>587.0</ele><time>2026-04-09T15:51:42.999Z</time></trkpt><trkpt lat="44.14085087648429" lon="11.207029308641001"><ele>596.0</ele><time>2026-04-09T15:51:43.999Z</time></trkpt><trkpt lat="44.14109088198536" lon="11.207011332558126"><ele>605.0</ele><time>2026-04-09T15:51:44.999Z</time></trkpt><trkpt lat="44.141336288764705" lon="11.207018833114981"><ele>616.0</ele><time>2026-04-09T15:51:45.999Z</time></trkpt><trkpt lat="44.14158259897779" lon="11.207072649609492"><ele>627.0</ele><time>2026-04-09T15:51:46.999Z</time></trkpt><trkpt lat="44.14182323725148" lon="11.207145759880348"><ele>627.0</ele><time>2026-04-09T15:51:47.999Z</time></trkpt><trkpt lat="44.14206029437457" lon="11.207198492191806"><ele>627.0</ele><time>2026-04-09T15:51:48.999Z</time></trkpt><trkpt lat="44.14229502878738" lon="11.207241258733783"><ele>627.0</ele><time>2026-04-09T15:51:49.999Z</time></trkpt><trkpt lat="44.14248616683907" lon="11.207418876600912"><ele>627.0</ele><time>2026-04-09T15:51:50.999Z</time></trkpt><trkpt lat="44.142666154192966" lon="11.207504951193677"><ele>627.0</ele><time>2026-04-09T15:51:51.999Z</time></trkpt><trkpt lat="44.142844663780494" lon="11.207592916320063"><ele>627.0</ele><time>2026-04-09T15:51:53.021Z</time></trkpt><trkpt lat="44.143021356890536" lon="11.207684195618405"><ele>627.0</ele><time>2026-04-09T15:51:54.021Z</time></trkpt><trkpt lat="44.14321836229567" lon="11.207780214109441"><ele>627.0</ele><time>2026-04-09T15:51:55.021Z</time></trkpt><trkpt lat="44.14338776336971" lon="11.207876247525435"><ele>621.5</ele><time>2026-04-09T15:51:56.021Z</time></trkpt><trkpt lat="44.143555483217646" lon="11.207967118423921"><ele>616.0</ele><time>2026-04-09T15:51:57.021Z</time></trkpt><trkpt lat="44.14610681593804" lon="11.208785930658884"><ele>616.0</ele><time>2026-04-09T15:52:08.999Z</time></trkpt><trkpt lat="44.14629303008823" lon="11.208811014971891"><ele>616.0</ele><time>2026-04-09T15:52:09.999Z</time></trkpt><trkpt lat="44.14644091948383" lon="11.208890109456632"><ele>616.0</ele><time>2026-04-09T15:52:10.999Z</time></trkpt><trkpt lat="44.14661721917405" lon="11.20896287207295"><ele>611.3333333333334</ele><time>2026-04-09T15:52:11.999Z</time></trkpt><trkpt lat="44.14680328486918" lon="11.209031134696994"><ele>606.6666666666666</ele><time>2026-04-09T15:52:12.999Z</time></trkpt><trkpt lat="44.14697834130866" lon="11.20910317560852"><ele>602.0</ele><time>2026-04-09T15:52:13.999Z</time></trkpt><trkpt lat="44.14716555288588" lon="11.209174284710473"><ele>602.0</ele><time>2026-04-09T15:52:14.999Z</time></trkpt><trkpt lat="44.147349594034715" lon="11.20924570090017"><ele>602.0</ele><time>2026-04-09T15:52:15.999Z</time></trkpt><trkpt lat="44.14752487741266" lon="11.209315067279379"><ele>602.0</ele><time>2026-04-09T15:52:16.999Z</time></trkpt><trkpt lat="44.14771008013446" lon="11.209385157298152"><ele>601.3333333333333</ele><time>2026-04-09T15:52:17.999Z</time></trkpt><trkpt lat="44.14789696625141" lon="11.209456865704144"><ele>600.6666666666666</ele><time>2026-04-09T15:52:18.999Z</time></trkpt><trkpt lat="44.14808173846893" lon="11.20953025467681"><ele>600.0</ele><time>2026-04-09T15:52:19.999Z</time></trkpt><trkpt lat="44.148270532233965" lon="11.209598577497582"><ele>597.3333333333334</ele><time>2026-04-09T15:52:20.999Z</time></trkpt><trkpt lat="44.14846053199122" lon="11.209668989977898"><ele>594.6666666666667</ele><time>2026-04-09T15:52:21.999Z</time></trkpt><trkpt lat="44.14864797129686" lon="11.20973840656657"><ele>592.0</ele><time>2026-04-09T15:52:22.999Z</time></trkpt><trkpt lat="44.1488468213677" lon="11.209809700060646"><ele>593.6666666666667</ele><time>2026-04-09T15:52:23.999Z</time></trkpt><trkpt lat="44.149055801863085" lon="11.209885320309622"><ele>595.3333333333334</ele><time>2026-04-09T15:52:24.999Z</time></trkpt><trkpt lat="44.14926795779808" lon="11.209957710694617"><ele>597.0</ele><time>2026-04-09T15:52:25.999Z</time></trkpt><trkpt lat="44.14947806927426" lon="11.210038000165538"><ele>597.0</ele><time>2026-04-09T15:52:26.999Z</time></trkpt><trkpt lat="44.1496842920167" lon="11.210113235678678"><ele>597.0</ele><time>2026-04-09T15:52:27.999Z</time></trkpt><trkpt lat="44.14988849648705" lon="11.210187355592343"><ele>597.0</ele><time>2026-04-09T15:52:28.999Z</time></trkpt><trkpt lat="44.150091004111594" lon="11.210252022074833"><ele>595.0</ele><time>2026-04-09T15:52:29.999Z</time></trkpt><trkpt lat="44.15029661018015" lon="11.210300002497164"><ele>593.0</ele><time>2026-04-09T15:52:30.999Z</time></trkpt><trkpt lat="44.15050470519053" lon="11.210323875650028"><ele>591.0</ele><time>2026-04-09T15:52:31.999Z</time></trkpt><trkpt lat="44.15072512472505" lon="11.210331064294571"><ele>589.0</ele><time>2026-04-09T15:52:32.999Z</time></trkpt><trkpt lat="44.15095233830322" lon="11.210324452352328"><ele>587.0</ele><time>2026-04-09T15:52:33.999Z</time></trkpt><trkpt lat="44.151178184755096" lon="11.210301336374167"><ele>587.0</ele><time>2026-04-09T15:52:34.999Z</time></trkpt><trkpt lat="44.15140953509357" lon="11.210256786782798"><ele>587.0</ele><time>2026-04-09T15:52:35.999Z</time></trkpt><trkpt lat="44.1516430055371" lon="11.210178654001908"><ele>585.0</ele><time>2026-04-09T15:52:36.999Z</time></trkpt><trkpt lat="44.15187047751821" lon="11.210083331944803"><ele>583.0</ele><time>2026-04-09T15:52:37.999Z</time></trkpt><trkpt lat="44.15210247414103" lon="11.209968452120844"><ele>583.0</ele><time>2026-04-09T15:52:38.999Z</time></trkpt><trkpt lat="44.15232405898248" lon="11.209835790545782"><ele>583.0</ele><time>2026-04-09T15:52:39.999Z</time></trkpt><trkpt lat="44.15254003065051" lon="11.209673829436626"><ele>577.0</ele><time>2026-04-09T15:52:40.999Z</time></trkpt><trkpt lat="44.15275109470749" lon="11.20949977275283"><ele>571.0</ele><time>2026-04-09T15:52:41.999Z</time></trkpt><trkpt lat="44.15295816704601" lon="11.209303125965606"><ele>571.0</ele><time>2026-04-09T15:52:42.999Z</time></trkpt><trkpt lat="44.15315339705957" lon="11.20908106591728"><ele>571.0</ele><time>2026-04-09T15:52:43.999Z</time></trkpt><trkpt lat="44.15333988905334" lon="11.20884481763879"><ele>571.5</ele><time>2026-04-09T15:52:44.999Z</time></trkpt><trkpt lat="44.15351904656529" lon="11.208586502550233"><ele>572.0</ele><time>2026-04-09T15:52:45.999Z</time></trkpt><trkpt lat="44.153694355374824" lon="11.208323339092058"><ele>573.5</ele><time>2026-04-09T15:52:46.999Z</time></trkpt><trkpt lat="44.153874759392046" lon="11.208048044353983"><ele>575.0</ele><time>2026-04-09T15:52:47.999Z</time></trkpt><trkpt lat="44.154059700130766" lon="11.207772939044498"><ele>575.0</ele><time>2026-04-09T15:52:48.999Z</time></trkpt><trkpt lat="44.15424983771492" lon="11.20749816121844"><ele>575.0</ele><time>2026-04-09T15:52:49.999Z</time></trkpt><trkpt lat="44.154437879042796" lon="11.207231688398123"><ele>576.0</ele><time>2026-04-09T15:52:50.999Z</time></trkpt><trkpt lat="44.15462575367016" lon="11.206966402717681"><ele>577.0</ele><time>2026-04-09T15:52:52Z</time></trkpt><trkpt lat="44.154813401723295" lon="11.206704438216013"><ele>578.5</ele><time>2026-04-09T15:52:53Z</time></trkpt><trkpt lat="44.15500510026539" lon="11.206449307402478"><ele>580.0</ele><time>2026-04-09T15:52:54Z</time></trkpt><trkpt lat="44.155200937664674" lon="11.206194454033996"><ele>580.0</ele><time>2026-04-09T15:52:55Z</time></trkpt><trkpt lat="44.15541035126927" lon="11.205957563845228"><ele>580.0</ele><time>2026-04-09T15:52:56Z</time></trkpt><trkpt lat="44.155639089207355" lon="11.205765081062912"><ele>576.5</ele><time>2026-04-09T15:52:57Z</time></trkpt><trkpt lat="44.1558734215156" lon="11.205599375284274"><ele>573.0</ele><time>2026-04-09T15:52:58Z</time></trkpt><trkpt lat="44.15613219957908" lon="11.20550425278217"><ele>573.0</ele><time>2026-04-09T15:52:59Z</time></trkpt><trkpt lat="44.15638438564611" lon="11.205408190913678"><ele>573.0</ele><time>2026-04-09T15:53:00Z</time></trkpt><trkpt lat="44.15664236223241" lon="11.205349348421542"><ele>571.0</ele><time>2026-04-09T15:53:01Z</time></trkpt><trkpt lat="44.156909763763906" lon="11.205326234428858"><ele>569.0</ele><time>2026-04-09T15:53:02Z</time></trkpt><trkpt lat="44.15717644230626" lon="11.205351167881727"><ele>567.0</ele><time>2026-04-09T15:53:03Z</time></trkpt><trkpt lat="44.157438472858715" lon="11.205420937688814"><ele>565.0</ele><time>2026-04-09T15:53:04Z</time></trkpt><trkpt lat="44.15769795907502" lon="11.20550640159184"><ele>565.0</ele><time>2026-04-09T15:53:05Z</time></trkpt><trkpt lat="44.15794805169918" lon="11.205626936957296"><ele>565.0</ele><time>2026-04-09T15:53:06Z</time></trkpt><trkpt lat="44.158187937458834" lon="11.205784148754688"><ele>571.0</ele><time>2026-04-09T15:53:07Z</time></trkpt><trkpt lat="44.1584161088018" lon="11.205977438887574"><ele>577.0</ele><time>2026-04-09T15:53:08Z</time></trkpt><trkpt lat="44.15862284132337" lon="11.206207813478779"><ele>577.0</ele><time>2026-04-09T15:53:09Z</time></trkpt><trkpt lat="44.158828042816566" lon="11.206448404475593"><ele>577.0</ele><time>2026-04-09T15:53:10Z</time></trkpt><trkpt lat="44.159037677536965" lon="11.206676887673442"><ele>572.0</ele><time>2026-04-09T15:53:11Z</time></trkpt><trkpt lat="44.159251371153495" lon="11.206898141073557"><ele>567.0</ele><time>2026-04-09T15:53:12Z</time></trkpt><trkpt lat="44.15947054915063" lon="11.207123050497907"><ele>568.0</ele><time>2026-04-09T15:53:13Z</time></trkpt><trkpt lat="44.15968442838266" lon="11.20734466067743"><ele>569.0</ele><time>2026-04-09T15:53:14Z</time></trkpt><trkpt lat="44.15989769051552" lon="11.207562812456334"><ele>569.0</ele><time>2026-04-09T15:53:15Z</time></trkpt><trkpt lat="44.160111070039896" lon="11.20777850321146"><ele>569.0</ele><time>2026-04-09T15:53:16Z</time></trkpt><trkpt lat="44.16033240435896" lon="11.207990452569623"><ele>571.0</ele><time>2026-04-09T15:53:17Z</time></trkpt><trkpt lat="44.16056359745346" lon="11.208183427842101"><ele>573.0</ele><time>2026-04-09T15:53:18Z</time></trkpt><trkpt lat="44.16080671142664" lon="11.208338984914565"><ele>573.0</ele><time>2026-04-09T15:53:19Z</time></trkpt><trkpt lat="44.16105452423701" lon="11.208463524413835"><ele>573.0</ele><time>2026-04-09T15:53:20Z</time></trkpt><trkpt lat="44.16131433684891" lon="11.208564536189492"><ele>570.0</ele><time>2026-04-09T15:53:21Z</time></trkpt><trkpt lat="44.161577289390465" lon="11.208634202505536"><ele>567.0</ele><time>2026-04-09T15:53:22Z</time></trkpt><trkpt lat="44.161841625707076" lon="11.2086855145417"><ele>567.0</ele><time>2026-04-09T15:53:23Z</time></trkpt><trkpt lat="44.1621056401763" lon="11.208715027076463"><ele>567.0</ele><time>2026-04-09T15:53:24Z</time></trkpt><trkpt lat="44.16236893980794" lon="11.208716561154592"><ele>561.0</ele><time>2026-04-09T15:53:25Z</time></trkpt><trkpt lat="44.16263962098092" lon="11.20872242644175"><ele>555.0</ele><time>2026-04-09T15:53:26Z</time></trkpt><trkpt lat="44.16290588903801" lon="11.208716181751464"><ele>555.0</ele><time>2026-04-09T15:53:27Z</time></trkpt><trkpt lat="44.163173508903995" lon="11.208714049022309"><ele>555.0</ele><time>2026-04-09T15:53:28Z</time></trkpt><trkpt lat="44.16344222433134" lon="11.208720538955873"><ele>555.5</ele><time>2026-04-09T15:53:29Z</time></trkpt><trkpt lat="44.16370720273703" lon="11.208737356866411"><ele>556.0</ele><time>2026-04-09T15:53:30Z</time></trkpt><trkpt lat="44.16397187023349" lon="11.208764661010253"><ele>556.5</ele><time>2026-04-09T15:53:31Z</time></trkpt><trkpt lat="44.16423578019053" lon="11.208802088042924"><ele>557.0</ele><time>2026-04-09T15:53:32Z</time></trkpt><trkpt lat="44.16449850611015" lon="11.208855177374728"><ele>557.0</ele><time>2026-04-09T15:53:33Z</time></trkpt><trkpt lat="44.164758214847666" lon="11.2089113729855"><ele>557.0</ele><time>2026-04-09T15:53:34Z</time></trkpt><trkpt lat="44.16502138764545" lon="11.208971279837321"><ele>564.0</ele><time>2026-04-09T15:53:35Z</time></trkpt><trkpt lat="44.1652844901829" lon="11.209035377799815"><ele>571.0</ele><time>2026-04-09T15:53:36Z</time></trkpt><trkpt lat="44.16554615587467" lon="11.209098244496033"><ele>568.0</ele><time>2026-04-09T15:53:37Z</time></trkpt><trkpt lat="44.16580823881617" lon="11.209161533751315"><ele>565.0</ele><time>2026-04-09T15:53:38Z</time></trkpt><trkpt lat="44.16606976048425" lon="11.209220131978762"><ele>565.0</ele><time>2026-04-09T15:53:39Z</time></trkpt><trkpt lat="44.166333219868505" lon="11.209284727335206"><ele>565.0</ele><time>2026-04-09T15:53:40Z</time></trkpt><trkpt lat="44.1665963377802" lon="11.209354830088682"><ele>561.0</ele><time>2026-04-09T15:53:41Z</time></trkpt><trkpt lat="44.16685885817165" lon="11.209418725752663"><ele>557.0</ele><time>2026-04-09T15:53:42Z</time></trkpt><trkpt lat="44.16712060135152" lon="11.209483663859414"><ele>556.5</ele><time>2026-04-09T15:53:43Z</time></trkpt><trkpt lat="44.167384585477066" lon="11.209550147689285"><ele>556.0</ele><time>2026-04-09T15:53:44Z</time></trkpt><trkpt lat="44.16764588517676" lon="11.209620513836608"><ele>556.0</ele><time>2026-04-09T15:53:45Z</time></trkpt><trkpt lat="44.1679107772152" lon="11.209704992298965"><ele>556.0</ele><time>2026-04-09T15:53:46Z</time></trkpt><trkpt lat="44.16816983745969" lon="11.209804941726224"><ele>561.0</ele><time>2026-04-09T15:53:47Z</time></trkpt><trkpt lat="44.16841926924576" lon="11.209936460304984"><ele>566.0</ele><time>2026-04-09T15:53:47.999Z</time></trkpt><trkpt lat="44.16866618902776" lon="11.210090993407162"><ele>566.0</ele><time>2026-04-09T15:53:48.999Z</time></trkpt><trkpt lat="44.16890270090906" lon="11.210255898670924"><ele>566.0</ele><time>2026-04-09T15:53:49.999Z</time></trkpt><trkpt lat="44.16913018644184" lon="11.210444528050527"><ele>562.5</ele><time>2026-04-09T15:53:50.999Z</time></trkpt><trkpt lat="44.1693537487988" lon="11.210653031624268"><ele>559.0</ele><time>2026-04-09T15:53:51.999Z</time></trkpt><trkpt lat="44.16956522259816" lon="11.210884817665043"><ele>559.0</ele><time>2026-04-09T15:53:52.999Z</time></trkpt><trkpt lat="44.16976877300793" lon="11.211123442852879"><ele>559.0</ele><time>2026-04-09T15:53:53.999Z</time></trkpt><trkpt lat="44.16996179835043" lon="11.211380711543105"><ele>561.5</ele><time>2026-04-09T15:53:54.999Z</time></trkpt><trkpt lat="44.17015088330019" lon="11.211642144383426"><ele>564.0</ele><time>2026-04-09T15:53:55.999Z</time></trkpt><trkpt lat="44.17034516176966" lon="11.211903924517806"><ele>564.0</ele><time>2026-04-09T15:53:56.999Z</time></trkpt><trkpt lat="44.17053972387571" lon="11.212155762155566"><ele>564.0</ele><time>2026-04-09T15:53:57.999Z</time></trkpt><trkpt lat="44.17073752380681" lon="11.212406885912115"><ele>557.5</ele><time>2026-04-09T15:53:58.999Z</time></trkpt><trkpt lat="44.170933709137394" lon="11.212652782538079"><ele>551.0</ele><time>2026-04-09T15:53:59.999Z</time></trkpt><trkpt lat="44.17113649313165" lon="11.212884474652393"><ele>551.0</ele><time>2026-04-09T15:54:00.999Z</time></trkpt><trkpt lat="44.17135067826885" lon="11.213108899558486"><ele>551.0</ele><time>2026-04-09T15:54:01.999Z</time></trkpt><trkpt lat="44.17157527516444" lon="11.213306863309636"><ele>537.5</ele><time>2026-04-09T15:54:02.999Z</time></trkpt><trkpt lat="44.17180811063273" lon="11.213487721727706"><ele>524.0</ele><time>2026-04-09T15:54:03.999Z</time></trkpt><trkpt lat="44.17205031075548" lon="11.213645611998185"><ele>524.0</ele><time>2026-04-09T15:54:04.999Z</time></trkpt><trkpt lat="44.172296392273616" lon="11.213791159443497"><ele>524.0</ele><time>2026-04-09T15:54:05.999Z</time></trkpt><trkpt lat="44.17255231725032" lon="11.213919508080947"><ele>517.0</ele><time>2026-04-09T15:54:06.999Z</time></trkpt><trkpt lat="44.17280879787579" lon="11.214028216202221"><ele>510.0</ele><time>2026-04-09T15:54:07.999Z</time></trkpt><trkpt lat="44.173068014485516" lon="11.214105580365453"><ele>505.0</ele><time>2026-04-09T15:54:08.999Z</time></trkpt><trkpt lat="44.17333196202137" lon="11.21416540662686"><ele>500.0</ele><time>2026-04-09T15:54:09.999Z</time></trkpt><trkpt lat="44.17360001258643" lon="11.21419289891051"><ele>500.0</ele><time>2026-04-09T15:54:10.999Z</time></trkpt><trkpt lat="44.17386633189457" lon="11.214203194824679"><ele>500.0</ele><time>2026-04-09T15:54:11.999Z</time></trkpt><trkpt lat="44.174131664076455" lon="11.214191378046094"><ele>512.0</ele><time>2026-04-09T15:54:12.999Z</time></trkpt><trkpt lat="44.174397418697026" lon="11.21416788327529"><ele>524.0</ele><time>2026-04-09T15:54:13.999Z</time></trkpt><trkpt lat="44.17466018005307" lon="11.214118721857872"><ele>534.0</ele><time>2026-04-09T15:54:14.999Z</time></trkpt><trkpt lat="44.17491942142721" lon="11.214052820877503"><ele>544.0</ele><time>2026-04-09T15:54:15.999Z</time></trkpt><trkpt lat="44.1751737336557" lon="11.213962723672857"><ele>544.0</ele><time>2026-04-09T15:54:16.999Z</time></trkpt><trkpt lat="44.17543427981604" lon="11.213851273046041"><ele>544.0</ele><time>2026-04-09T15:54:17.999Z</time></trkpt><trkpt lat="44.17567736059929" lon="11.213723589389577"><ele>545.0</ele><time>2026-04-09T15:54:18.999Z</time></trkpt><trkpt lat="44.175928176318955" lon="11.21359029652073"><ele>546.0</ele><time>2026-04-09T15:54:19.999Z</time></trkpt><trkpt lat="44.17617187141222" lon="11.213459386930587"><ele>546.0</ele><time>2026-04-09T15:54:20.999Z</time></trkpt><trkpt lat="44.176421586316906" lon="11.213331069505726"><ele>546.0</ele><time>2026-04-09T15:54:21.999Z</time></trkpt><trkpt lat="44.17666773824909" lon="11.213206799033467"><ele>538.0</ele><time>2026-04-09T15:54:22.999Z</time></trkpt><trkpt lat="44.17691941251938" lon="11.213082905282116"><ele>530.0</ele><time>2026-04-09T15:54:23.999Z</time></trkpt><trkpt lat="44.17716658013295" lon="11.212955714843195"><ele>531.0</ele><time>2026-04-09T15:54:24.999Z</time></trkpt><trkpt lat="44.177411917519834" lon="11.21282877923991"><ele>532.0</ele><time>2026-04-09T15:54:25.999Z</time></trkpt><trkpt lat="44.17766541053051" lon="11.212703689112287"><ele>532.0</ele><time>2026-04-09T15:54:26.999Z</time></trkpt><trkpt lat="44.17791293064438" lon="11.212573340498189"><ele>532.0</ele><time>2026-04-09T15:54:27.999Z</time></trkpt><trkpt lat="44.178165147709514" lon="11.212450119370033"><ele>533.5</ele><time>2026-04-09T15:54:28.999Z</time></trkpt><trkpt lat="44.17841350199311" lon="11.212321884549059"><ele>535.0</ele><time>2026-04-09T15:54:29.999Z</time></trkpt><trkpt lat="44.17866735518643" lon="11.212191691430972"><ele>535.0</ele><time>2026-04-09T15:54:30.999Z</time></trkpt><trkpt lat="44.17891881605827" lon="11.212060372963421"><ele>535.0</ele><time>2026-04-09T15:54:31.999Z</time></trkpt><trkpt lat="44.179172640808275" lon="11.21193178916221"><ele>538.0</ele><time>2026-04-09T15:54:32.999Z</time></trkpt><trkpt lat="44.17941558816777" lon="11.211805558236815"><ele>541.0</ele><time>2026-04-09T15:54:33.999Z</time></trkpt><trkpt lat="44.17962374556406" lon="11.211701465338717"><ele>541.0</ele><time>2026-04-09T15:54:34.999Z</time></trkpt><trkpt lat="44.17980850201989" lon="11.21160667769178"><ele>541.0</ele><time>2026-04-09T15:54:35.999Z</time></trkpt><trkpt lat="44.17999481989214" lon="11.211509848866624"><ele>541.0</ele><time>2026-04-09T15:54:36.999Z</time></trkpt><trkpt lat="44.18016947724397" lon="11.21142117109634"><ele>539.0</ele><time>2026-04-09T15:54:37.999Z</time></trkpt><trkpt lat="44.180331121544825" lon="11.211337697383922"><ele>537.0</ele><time>2026-04-09T15:54:38.999Z</time></trkpt><trkpt lat="44.18048449447637" lon="11.211258316415751"><ele>535.0</ele><time>2026-04-09T15:54:39.999Z</time></trkpt><trkpt lat="44.18064458280688" lon="11.211171221575292"><ele>533.6666666666667</ele><time>2026-04-09T15:54:40.999Z</time></trkpt><trkpt lat="44.18080884030681" lon="11.211091167798427"><ele>532.3333333333334</ele><time>2026-04-09T15:54:41.999Z</time></trkpt><trkpt lat="44.18097609342275" lon="11.211006284425412"><ele>531.0</ele><time>2026-04-09T15:54:42.999Z</time></trkpt><trkpt lat="44.1811396656318" lon="11.21092199915622"><ele>531.0</ele><time>2026-04-09T15:54:43.999Z</time></trkpt><trkpt lat="44.18130647637786" lon="11.210832506391858"><ele>531.0</ele><time>2026-04-09T15:54:44.999Z</time></trkpt><trkpt lat="44.18147699059762" lon="11.210744123028139"><ele>531.0</ele><time>2026-04-09T15:54:45.999Z</time></trkpt><trkpt lat="44.181643692445995" lon="11.21065604668247"><ele>527.6666666666666</ele><time>2026-04-09T15:54:46.999Z</time></trkpt><trkpt lat="44.18181917225559" lon="11.210568857749914"><ele>524.3333333333333</ele><time>2026-04-09T15:54:47.999Z</time></trkpt><trkpt lat="44.18200033324624" lon="11.210476907376822"><ele>521.0</ele><time>2026-04-09T15:54:48.999Z</time></trkpt><trkpt lat="44.18218411128639" lon="11.210376703815113"><ele>522.0</ele><time>2026-04-09T15:54:49.999Z</time></trkpt><trkpt lat="44.18237000942693" lon="11.210279141443099"><ele>523.0</ele><time>2026-04-09T15:54:50.999Z</time></trkpt><trkpt lat="44.182560150874195" lon="11.210182962667385"><ele>524.0</ele><time>2026-04-09T15:54:51.999Z</time></trkpt><trkpt lat="44.182743863821415" lon="11.21008749949123"><ele>524.0</ele><time>2026-04-09T15:54:52.999Z</time></trkpt><trkpt lat="44.18292090633349" lon="11.209995384198507"><ele>524.0</ele><time>2026-04-09T15:54:53.999Z</time></trkpt><trkpt lat="44.183098338980344" lon="11.209904691596961"><ele>524.0</ele><time>2026-04-09T15:54:54.999Z</time></trkpt><trkpt lat="44.18327482333887" lon="11.209813896294596"><ele>522.6666666666666</ele><time>2026-04-09T15:54:55.999Z</time></trkpt><trkpt lat="44.18345148698079" lon="11.209723513428983"><ele>521.3333333333334</ele><time>2026-04-09T15:54:56.999Z</time></trkpt><trkpt lat="44.18363200044408" lon="11.20962782977147"><ele>520.0</ele><time>2026-04-09T15:54:58Z</time></trkpt><trkpt lat="44.1838367285522" lon="11.209525309448171"><ele>525.0</ele><time>2026-04-09T15:54:59Z</time></trkpt><trkpt lat="44.1840393715163" lon="11.209425956579077"><ele>530.0</ele><time>2026-04-09T15:55:00Z</time></trkpt><trkpt lat="44.18425097829517" lon="11.20933578966622"><ele>535.0</ele><time>2026-04-09T15:55:01Z</time></trkpt><trkpt lat="44.18446884371669" lon="11.209270245723992"><ele>535.0</ele><time>2026-04-09T15:55:02Z</time></trkpt><trkpt lat="44.18469040719136" lon="11.209237468827757"><ele>535.0</ele><time>2026-04-09T15:55:03Z</time></trkpt><trkpt lat="44.18492185657958" lon="11.20922761065803"><ele>534.0</ele><time>2026-04-09T15:55:04Z</time></trkpt><trkpt lat="44.185152927953844" lon="11.209242448512382"><ele>533.0</ele><time>2026-04-09T15:55:05Z</time></trkpt><trkpt lat="44.185383515844656" lon="11.209279472053192"><ele>533.0</ele><time>2026-04-09T15:55:06Z</time></trkpt><trkpt lat="44.18562595285999" lon="11.20935153235287"><ele>533.0</ele><time>2026-04-09T15:55:07Z</time></trkpt><trkpt lat="44.185873085450936" lon="11.209455125179328"><ele>532.5</ele><time>2026-04-09T15:55:08Z</time></trkpt><trkpt lat="44.18613380520124" lon="11.209588219012081"><ele>532.0</ele><time>2026-04-09T15:55:09Z</time></trkpt><trkpt lat="44.18640488102421" lon="11.209749022037482"><ele>536.5</ele><time>2026-04-09T15:55:10Z</time></trkpt><trkpt lat="44.18666194080743" lon="11.209905148721871"><ele>541.0</ele><time>2026-04-09T15:55:11Z</time></trkpt><trkpt lat="44.18690266439313" lon="11.210044371194764"><ele>541.0</ele><time>2026-04-09T15:55:12Z</time></trkpt><trkpt lat="44.18712711740124" lon="11.210159600233291"><ele>541.0</ele><time>2026-04-09T15:55:13Z</time></trkpt><trkpt lat="44.187360399046845" lon="11.210249809308882"><ele>536.0</ele><time>2026-04-09T15:55:14Z</time></trkpt><trkpt lat="44.18760120486535" lon="11.210294021989025"><ele>531.0</ele><time>2026-04-09T15:55:15Z</time></trkpt><trkpt lat="44.18784354054002" lon="11.210297249968738"><ele>531.0</ele><time>2026-04-09T15:55:16Z</time></trkpt><trkpt lat="44.18808353302511" lon="11.210274088469136"><ele>531.0</ele><time>2026-04-09T15:55:17Z</time></trkpt><trkpt lat="44.18832603662788" lon="11.210218298900353"><ele>532.0</ele><time>2026-04-09T15:55:18Z</time></trkpt><trkpt lat="44.18856618419876" lon="11.210123926289238"><ele>533.0</ele><time>2026-04-09T15:55:19Z</time></trkpt><trkpt lat="44.18879152829095" lon="11.209976646621193"><ele>528.5</ele><time>2026-04-09T15:55:20Z</time></trkpt><trkpt lat="44.18901963388914" lon="11.209798988807009"><ele>524.0</ele><time>2026-04-09T15:55:21Z</time></trkpt><trkpt lat="44.189240995008184" lon="11.209590082214072"><ele>524.0</ele><time>2026-04-09T15:55:22Z</time></trkpt><trkpt lat="44.18947146453524" lon="11.209368705238901"><ele>524.0</ele><time>2026-04-09T15:55:23Z</time></trkpt><trkpt lat="44.18970795077631" lon="11.209143815544257"><ele>524.5</ele><time>2026-04-09T15:55:24Z</time></trkpt><trkpt lat="44.18994589168487" lon="11.20892702905602"><ele>525.0</ele><time>2026-04-09T15:55:25Z</time></trkpt><trkpt lat="44.19018747802563" lon="11.208716959654693"><ele>525.0</ele><time>2026-04-09T15:55:26Z</time></trkpt><trkpt lat="44.19043574857547" lon="11.208522987719146"><ele>525.0</ele><time>2026-04-09T15:55:27Z</time></trkpt><trkpt lat="44.19068375804981" lon="11.208349846499635"><ele>523.5</ele><time>2026-04-09T15:55:28Z</time></trkpt><trkpt lat="44.190942077521434" lon="11.20820394447766"><ele>522.0</ele><time>2026-04-09T15:55:29Z</time></trkpt><trkpt lat="44.19120713669971" lon="11.208081759691115"><ele>522.0</ele><time>2026-04-09T15:55:30Z</time></trkpt><trkpt lat="44.191466991051485" lon="11.207966211348484"><ele>522.0</ele><time>2026-04-09T15:55:31Z</time></trkpt><trkpt lat="44.19173012811586" lon="11.20786387119821"><ele>524.0</ele><time>2026-04-09T15:55:32Z</time></trkpt><trkpt lat="44.191998324090115" lon="11.207781518354839"><ele>526.0</ele><time>2026-04-09T15:55:33Z</time></trkpt><trkpt lat="44.192271568899244" lon="11.207721223490386"><ele>531.0</ele><time>2026-04-09T15:55:34Z</time></trkpt><trkpt lat="44.192544574777365" lon="11.207668614029151"><ele>536.0</ele><time>2026-04-09T15:55:35Z</time></trkpt><trkpt lat="44.19282424805402" lon="11.207629213471876"><ele>536.0</ele><time>2026-04-09T15:55:36Z</time></trkpt><trkpt lat="44.193099811309054" lon="11.207609948828434"><ele>536.0</ele><time>2026-04-09T15:55:37Z</time></trkpt><trkpt lat="44.19338246130477" lon="11.207603502957769"><ele>544.5</ele><time>2026-04-09T15:55:38Z</time></trkpt><trkpt lat="44.193662125549665" lon="11.207607023483977"><ele>553.0</ele><time>2026-04-09T15:55:39Z</time></trkpt><trkpt lat="44.19394593267111" lon="11.207608470523882"><ele>555.5</ele><time>2026-04-09T15:55:40.021Z</time></trkpt><trkpt lat="44.194225097579896" lon="11.20760615960181"><ele>558.0</ele><time>2026-04-09T15:55:41.022Z</time></trkpt><trkpt lat="44.194500119177455" lon="11.207658182112297"><ele>558.0</ele><time>2026-04-09T15:55:42.021Z</time></trkpt><trkpt lat="44.194778491256095" lon="11.207701532909532"><ele>558.0</ele><time>2026-04-09T15:55:43.021Z</time></trkpt><trkpt lat="44.195055919857154" lon="11.207744476568143"><ele>583.0</ele><time>2026-04-09T15:55:44.021Z</time></trkpt><trkpt lat="44.19705275678387" lon="11.208145545253938"><ele>588.0</ele><time>2026-04-09T15:55:47.348Z</time></trkpt><trkpt lat="44.19794687554566" lon="11.208283331585912"><ele>503.0</ele><time>2026-04-09T15:55:48.347Z</time></trkpt><trkpt lat="44.2038100166658" lon="11.2044556718424"><ele>509.0</ele><time>2026-04-09T15:56:18.999Z</time></trkpt><trkpt lat="44.2040613020181" lon="11.204240423399032"><ele>515.0</ele><time>2026-04-09T15:56:19.999Z</time></trkpt><trkpt lat="44.20447131105778" lon="11.20422824248837"><ele>514.0</ele><time>2026-04-09T15:56:20.999Z</time></trkpt><trkpt lat="44.20467391269821" lon="11.20399544101975"><ele>513.0</ele><time>2026-04-09T15:56:21.999Z</time></trkpt><trkpt lat="44.2048477784539" lon="11.203780738510154"><ele>513.0</ele><time>2026-04-09T15:56:22.999Z</time></trkpt><trkpt lat="44.20500862019306" lon="11.203592919569102"><ele>513.0</ele><time>2026-04-09T15:56:23.999Z</time></trkpt><trkpt lat="44.20516657852318" lon="11.203413942246483"><ele>513.0</ele><time>2026-04-09T15:56:24.999Z</time></trkpt><trkpt lat="44.205326203885036" lon="11.203227446687213"><ele>512.3333333333334</ele><time>2026-04-09T15:56:25.999Z</time></trkpt><trkpt lat="44.20548607344257" lon="11.20304333814552"><ele>511.6666666666667</ele><time>2026-04-09T15:56:26.999Z</time></trkpt><trkpt lat="44.20564190527413" lon="11.202863445602901"><ele>511.0</ele><time>2026-04-09T15:56:27.999Z</time></trkpt><trkpt lat="44.2058006012014" lon="11.20268469746394"><ele>511.0</ele><time>2026-04-09T15:56:28.999Z</time></trkpt><trkpt lat="44.205961746427086" lon="11.202511645818046"><ele>511.0</ele><time>2026-04-09T15:56:29.999Z</time></trkpt><trkpt lat="44.20613480998348" lon="11.202350131685357"><ele>511.0</ele><time>2026-04-09T15:56:30.999Z</time></trkpt><trkpt lat="44.20631862236604" lon="11.20221557897019"><ele>509.33333333333337</ele><time>2026-04-09T15:56:31.999Z</time></trkpt><trkpt lat="44.20651331976719" lon="11.202111559159295"><ele>507.66666666666663</ele><time>2026-04-09T15:56:32.999Z</time></trkpt><trkpt lat="44.20671487774167" lon="11.202025094978293"><ele>506.0</ele><time>2026-04-09T15:56:33.999Z</time></trkpt><trkpt lat="44.20691851892455" lon="11.2019474142034"><ele>506.0</ele><time>2026-04-09T15:56:34.999Z</time></trkpt><trkpt lat="44.207123917553155" lon="11.201871832664944"><ele>506.0</ele><time>2026-04-09T15:56:35.999Z</time></trkpt><trkpt lat="44.207333232525464" lon="11.201814290808716"><ele>506.0</ele><time>2026-04-09T15:56:36.999Z</time></trkpt><trkpt lat="44.20754348412086" lon="11.20177284547863"><ele>504.66666666666663</ele><time>2026-04-09T15:56:37.999Z</time></trkpt><trkpt lat="44.20775995766754" lon="11.20175444992244"><ele>503.33333333333337</ele><time>2026-04-09T15:56:38.999Z</time></trkpt><trkpt lat="44.207979658387245" lon="11.201755919026066"><ele>502.0</ele><time>2026-04-09T15:56:39.999Z</time></trkpt><trkpt lat="44.2081992713121" lon="11.201761983886074"><ele>502.0</ele><time>2026-04-09T15:56:40.999Z</time></trkpt><trkpt lat="44.20842795378542" lon="11.201763639093784"><ele>502.0</ele><time>2026-04-09T15:56:41.999Z</time></trkpt><trkpt lat="44.20865711309824" lon="11.201760957001072"><ele>502.0</ele><time>2026-04-09T15:56:42.999Z</time></trkpt><trkpt lat="44.208881605515174" lon="11.201755958584348"><ele>502.0</ele><time>2026-04-09T15:56:43.999Z</time></trkpt><trkpt lat="44.209107107889196" lon="11.201746503745863"><ele>502.0</ele><time>2026-04-09T15:56:44.999Z</time></trkpt><trkpt lat="44.209336579985354" lon="11.201741274460643"><ele>502.0</ele><time>2026-04-09T15:56:45.999Z</time></trkpt><trkpt lat="44.20955999166761" lon="11.201736923257101"><ele>502.0</ele><time>2026-04-09T15:56:46.999Z</time></trkpt><trkpt lat="44.20978492711576" lon="11.20173461309631"><ele>502.0</ele><time>2026-04-09T15:56:47.999Z</time></trkpt><trkpt lat="44.21000663649356" lon="11.201733478315488"><ele>502.0</ele><time>2026-04-09T15:56:48.999Z</time></trkpt><trkpt lat="44.21023148216851" lon="11.201730657292137"><ele>503.6666666666667</ele><time>2026-04-09T15:56:49.999Z</time></trkpt><trkpt lat="44.210453632406455" lon="11.201722122999904"><ele>505.33333333333337</ele><time>2026-04-09T15:56:50.999Z</time></trkpt><trkpt lat="44.210678801937824" lon="11.201715730678991"><ele>507.0</ele><time>2026-04-09T15:56:51.999Z</time></trkpt><trkpt lat="44.21090086476839" lon="11.20171371305168"><ele>507.5</ele><time>2026-04-09T15:56:52.999Z</time></trkpt><trkpt lat="44.21112333101124" lon="11.20171403443199"><ele>508.0</ele><time>2026-04-09T15:56:53.999Z</time></trkpt><trkpt lat="44.211350485614076" lon="11.20171353428467"><ele>509.5</ele><time>2026-04-09T15:56:54.999Z</time></trkpt><trkpt lat="44.21157853848262" lon="11.201707888787274"><ele>511.0</ele><time>2026-04-09T15:56:55.999Z</time></trkpt><trkpt lat="44.211805812892706" lon="11.201703684222517"><ele>511.0</ele><time>2026-04-09T15:56:56.999Z</time></trkpt><trkpt lat="44.212033730093985" lon="11.201696573294724"><ele>511.0</ele><time>2026-04-09T15:56:57.999Z</time></trkpt><trkpt lat="44.212263435941466" lon="11.20168312951249"><ele>509.5</ele><time>2026-04-09T15:56:58.999Z</time></trkpt><trkpt lat="44.21249113458435" lon="11.201652963500937"><ele>508.0</ele><time>2026-04-09T15:56:59.999Z</time></trkpt><trkpt lat="44.212720267787574" lon="11.201594192937868"><ele>508.0</ele><time>2026-04-09T15:57:00.999Z</time></trkpt><trkpt lat="44.21294623335375" lon="11.20151644297485"><ele>508.0</ele><time>2026-04-09T15:57:01.999Z</time></trkpt><trkpt lat="44.21317094012668" lon="11.201416921254925"><ele>503.0</ele><time>2026-04-09T15:57:02.999Z</time></trkpt><trkpt lat="44.21339406515288" lon="11.201297773242487"><ele>498.0</ele><time>2026-04-09T15:57:04Z</time></trkpt><trkpt lat="44.21361050851685" lon="11.201165438025825"><ele>498.0</ele><time>2026-04-09T15:57:05Z</time></trkpt><trkpt lat="44.21382245414537" lon="11.201015678881738"><ele>498.0</ele><time>2026-04-09T15:57:06Z</time></trkpt><trkpt lat="44.21402887454363" lon="11.200849673173133"><ele>495.5</ele><time>2026-04-09T15:57:07Z</time></trkpt><trkpt lat="44.21423306888467" lon="11.20067137709045"><ele>493.0</ele><time>2026-04-09T15:57:08Z</time></trkpt><trkpt lat="44.21443711024517" lon="11.200484823225471"><ele>493.0</ele><time>2026-04-09T15:57:09Z</time></trkpt><trkpt lat="44.21464564184139" lon="11.20030223935426"><ele>493.0</ele><time>2026-04-09T15:57:10Z</time></trkpt><trkpt lat="44.21485528844628" lon="11.200123568472051"><ele>491.5</ele><time>2026-04-09T15:57:11Z</time></trkpt><trkpt lat="44.21506663671851" lon="11.199950850139215"><ele>490.0</ele><time>2026-04-09T15:57:12Z</time></trkpt><trkpt lat="44.215280406526" lon="11.199781558929917"><ele>490.0</ele><time>2026-04-09T15:57:13Z</time></trkpt><trkpt lat="44.21549140886367" lon="11.199614854728623"><ele>490.0</ele><time>2026-04-09T15:57:14Z</time></trkpt><trkpt lat="44.215709586444156" lon="11.19945918014964"><ele>496.5</ele><time>2026-04-09T15:57:15Z</time></trkpt><trkpt lat="44.21592892912417" lon="11.199313500602907"><ele>503.0</ele><time>2026-04-09T15:57:16Z</time></trkpt><trkpt lat="44.2161550689286" lon="11.199191849872653"><ele>503.0</ele><time>2026-04-09T15:57:17Z</time></trkpt><trkpt lat="44.21638859684379" lon="11.199086572097334"><ele>503.0</ele><time>2026-04-09T15:57:18Z</time></trkpt><trkpt lat="44.216623734305685" lon="11.199002544100361"><ele>494.5</ele><time>2026-04-09T15:57:19Z</time></trkpt><trkpt lat="44.216857282516756" lon="11.198938108827674"><ele>486.0</ele><time>2026-04-09T15:57:20Z</time></trkpt><trkpt lat="44.217092529883566" lon="11.198884906705066"><ele>482.0</ele><time>2026-04-09T15:57:21Z</time></trkpt><trkpt lat="44.21733471858924" lon="11.198849549600393"><ele>478.0</ele><time>2026-04-09T15:57:22Z</time></trkpt><trkpt lat="44.21757265931511" lon="11.198825939127696"><ele>478.0</ele><time>2026-04-09T15:57:23Z</time></trkpt><trkpt lat="44.21781398098848" lon="11.1988083834493"><ele>478.0</ele><time>2026-04-09T15:57:24Z</time></trkpt><trkpt lat="44.21805297481309" lon="11.19878321419353"><ele>479.0</ele><time>2026-04-09T15:57:25Z</time></trkpt><trkpt lat="44.218293599320575" lon="11.19875367744965"><ele>480.0</ele><time>2026-04-09T15:57:26Z</time></trkpt><trkpt lat="44.218532246243555" lon="11.19872318537267"><ele>480.0</ele><time>2026-04-09T15:57:27Z</time></trkpt><trkpt lat="44.21877079583961" lon="11.19869194924119"><ele>480.0</ele><time>2026-04-09T15:57:28Z</time></trkpt><trkpt lat="44.21901009776741" lon="11.198650882421596"><ele>483.5</ele><time>2026-04-09T15:57:29Z</time></trkpt><trkpt lat="44.21924662354031" lon="11.198596440914175"><ele>487.0</ele><time>2026-04-09T15:57:30Z</time></trkpt><trkpt lat="44.21947567151289" lon="11.198514742714707"><ele>487.0</ele><time>2026-04-09T15:57:31Z</time></trkpt><trkpt lat="44.21968575978489" lon="11.198411256844278"><ele>487.0</ele><time>2026-04-09T15:57:32Z</time></trkpt><trkpt lat="44.219881829936114" lon="11.198302786586188"><ele>487.0</ele><time>2026-04-09T15:57:33Z</time></trkpt><trkpt lat="44.22006836824979" lon="11.198179016546359"><ele>491.6666666666667</ele><time>2026-04-09T15:57:34Z</time></trkpt><trkpt lat="44.220246056584585" lon="11.19804123982655"><ele>496.33333333333337</ele><time>2026-04-09T15:57:35Z</time></trkpt><trkpt lat="44.220419791209885" lon="11.197903843676222"><ele>501.0</ele><time>2026-04-09T15:57:36Z</time></trkpt><trkpt lat="44.220594262937766" lon="11.197768471618874"><ele>500.66666666666663</ele><time>2026-04-09T15:57:37Z</time></trkpt><trkpt lat="44.220738351352054" lon="11.197592101266581"><ele>500.3333333333333</ele><time>2026-04-09T15:57:38Z</time></trkpt><trkpt lat="44.2208736746478" lon="11.197412339444323"><ele>500.0</ele><time>2026-04-09T15:57:39Z</time></trkpt><trkpt lat="44.22101524551236" lon="11.197210486048276"><ele>500.0</ele><time>2026-04-09T15:57:40Z</time></trkpt><trkpt lat="44.22116031031135" lon="11.196987506098921"><ele>500.0</ele><time>2026-04-09T15:57:41Z</time></trkpt><trkpt lat="44.22131652945581" lon="11.196748612742047"><ele>500.0</ele><time>2026-04-09T15:57:42Z</time></trkpt><trkpt lat="44.22153921079274" lon="11.196406597490402"><ele>495.66666666666663</ele><time>2026-04-09T15:57:43Z</time></trkpt><trkpt lat="44.22165855967028" lon="11.196170546273054"><ele>491.33333333333337</ele><time>2026-04-09T15:57:44Z</time></trkpt><trkpt lat="44.22176712457705" lon="11.195991219116584"><ele>487.0</ele><time>2026-04-09T15:57:45Z</time></trkpt><trkpt lat="44.22190269667769" lon="11.195782079468229"><ele>485.6666666666667</ele><time>2026-04-09T15:57:46Z</time></trkpt><trkpt lat="44.22204914062381" lon="11.19556233197091"><ele>484.33333333333337</ele><time>2026-04-09T15:57:47Z</time></trkpt><trkpt lat="44.22219395818117" lon="11.195340810825133"><ele>483.0</ele><time>2026-04-09T15:57:48Z</time></trkpt><trkpt lat="44.22234600283727" lon="11.195109118610231"><ele>483.0</ele><time>2026-04-09T15:57:49Z</time></trkpt><trkpt lat="44.22249447251339" lon="11.194879324878812"><ele>483.0</ele><time>2026-04-09T15:57:50Z</time></trkpt><trkpt lat="44.222650982001895" lon="11.194641410239774"><ele>479.66666666666663</ele><time>2026-04-09T15:57:51Z</time></trkpt><trkpt lat="44.22279785122608" lon="11.194415424426543"><ele>476.3333333333333</ele><time>2026-04-09T15:57:52Z</time></trkpt><trkpt lat="44.222944548123486" lon="11.19419304603643"><ele>473.0</ele><time>2026-04-09T15:57:53Z</time></trkpt><trkpt lat="44.223087656838764" lon="11.193993752284221"><ele>474.0</ele><time>2026-04-09T15:57:54Z</time></trkpt><trkpt lat="44.223229596041705" lon="11.193800543991928"><ele>475.0</ele><time>2026-04-09T15:57:55Z</time></trkpt><trkpt lat="44.22338240052042" lon="11.193614827037102"><ele>476.0</ele><time>2026-04-09T15:57:56Z</time></trkpt><trkpt lat="44.22355026232044" lon="11.19343963377451"><ele>476.0</ele><time>2026-04-09T15:57:57Z</time></trkpt><trkpt lat="44.223730329333975" lon="11.193276632860751"><ele>476.0</ele><time>2026-04-09T15:57:58Z</time></trkpt><trkpt lat="44.22391619325891" lon="11.19313469708462"><ele>476.0</ele><time>2026-04-09T15:57:59Z</time></trkpt><trkpt lat="44.22411339701741" lon="11.19299750150901"><ele>472.5</ele><time>2026-04-09T15:58:00Z</time></trkpt><trkpt lat="44.224317773148336" lon="11.192870705263442"><ele>469.0</ele><time>2026-04-09T15:58:00.999Z</time></trkpt><trkpt lat="44.22453108213344" lon="11.192753452717369"><ele>469.0</ele><time>2026-04-09T15:58:01.999Z</time></trkpt><trkpt lat="44.224762119994374" lon="11.192652714556928"><ele>469.0</ele><time>2026-04-09T15:58:02.999Z</time></trkpt><trkpt lat="44.22499260248322" lon="11.192565276805176"><ele>474.5</ele><time>2026-04-09T15:58:03.999Z</time></trkpt><trkpt lat="44.225231926477676" lon="11.192490644789537"><ele>480.0</ele><time>2026-04-09T15:58:04.999Z</time></trkpt><trkpt lat="44.225467790311505" lon="11.192430358965137"><ele>481.0</ele><time>2026-04-09T15:58:05.999Z</time></trkpt><trkpt lat="44.2257098835795" lon="11.192380076584385"><ele>482.0</ele><time>2026-04-09T15:58:06.999Z</time></trkpt><trkpt lat="44.225951506323476" lon="11.192354816001592"><ele>482.0</ele><time>2026-04-09T15:58:07.999Z</time></trkpt><trkpt lat="44.22619051097405" lon="11.192367980873984"><ele>482.0</ele><time>2026-04-09T15:58:08.999Z</time></trkpt><trkpt lat="44.22643354748858" lon="11.192410425555787"><ele>486.5</ele><time>2026-04-09T15:58:09.999Z</time></trkpt><trkpt lat="44.22666174225385" lon="11.192500212258294"><ele>491.0</ele><time>2026-04-09T15:58:10.999Z</time></trkpt><trkpt lat="44.226877889147104" lon="11.19261099579844"><ele>491.0</ele><time>2026-04-09T15:58:11.999Z</time></trkpt><trkpt lat="44.22709245184284" lon="11.192713755681005"><ele>491.0</ele><time>2026-04-09T15:58:12.999Z</time></trkpt><trkpt lat="44.227310494379246" lon="11.192813578471"><ele>500.5</ele><time>2026-04-09T15:58:13.999Z</time></trkpt><trkpt lat="44.227529823525" lon="11.192918085887992"><ele>510.0</ele><time>2026-04-09T15:58:14.999Z</time></trkpt><trkpt lat="44.227749241638314" lon="11.193023596315996"><ele>510.0</ele><time>2026-04-09T15:58:15.999Z</time></trkpt><trkpt lat="44.22796747894238" lon="11.19312746682699"><ele>510.0</ele><time>2026-04-09T15:58:16.999Z</time></trkpt><trkpt lat="44.228187863381166" lon="11.193211206601662"><ele>519.6666666666666</ele><time>2026-04-09T15:58:17.999Z</time></trkpt><trkpt lat="44.228406503528646" lon="11.193258925143358"><ele>529.3333333333333</ele><time>2026-04-09T15:58:18.999Z</time></trkpt><trkpt lat="44.22863012529205" lon="11.193295894854964"><ele>539.0</ele><time>2026-04-09T15:58:19.999Z</time></trkpt><trkpt lat="44.22884899894416" lon="11.193319153819312"><ele>534.0</ele><time>2026-04-09T15:58:20.999Z</time></trkpt><trkpt lat="44.229045974433106" lon="11.193149220479857"><ele>529.0</ele><time>2026-04-09T15:58:21.999Z</time></trkpt><trkpt lat="44.22925367430274" lon="11.19316527049193"><ele>524.0</ele><time>2026-04-09T15:58:22.999Z</time></trkpt><trkpt lat="44.22946489042607" lon="11.193181592226532"><ele>523.3333333333333</ele><time>2026-04-09T15:58:23.999Z</time></trkpt><trkpt lat="44.229673652431565" lon="11.193197724110625"><ele>522.6666666666666</ele><time>2026-04-09T15:58:24.999Z</time></trkpt><trkpt lat="44.229880062058704" lon="11.193213669168633"><ele>522.0</ele><time>2026-04-09T15:58:25.999Z</time></trkpt><trkpt lat="44.23054510511497" lon="11.193381666395863"><ele>504.66666666666663</ele><time>2026-04-09T15:58:26.999Z</time></trkpt><trkpt lat="44.2306849078153" lon="11.193402325974837"><ele>487.3333333333333</ele><time>2026-04-09T15:58:27.999Z</time></trkpt><trkpt lat="44.23093664648296" lon="11.193519325572801"><ele>470.0</ele><time>2026-04-09T15:58:28.999Z</time></trkpt><trkpt lat="44.23116117733991" lon="11.193652234549154"><ele>470.0</ele><time>2026-04-09T15:58:29.999Z</time></trkpt><trkpt lat="44.23136864055927" lon="11.193820848140037"><ele>470.0</ele><time>2026-04-09T15:58:30.999Z</time></trkpt><trkpt lat="44.23157592399098" lon="11.19397287526093"><ele>472.0</ele><time>2026-04-09T15:58:31.999Z</time></trkpt><trkpt lat="44.23178232931261" lon="11.194130721279835"><ele>474.0</ele><time>2026-04-09T15:58:32.999Z</time></trkpt><trkpt lat="44.231986854450234" lon="11.194303196619042"><ele>474.0</ele><time>2026-04-09T15:58:33.999Z</time></trkpt><trkpt lat="44.232191060230214" lon="11.19447375251947"><ele>474.0</ele><time>2026-04-09T15:58:34.999Z</time></trkpt><trkpt lat="44.23239926753646" lon="11.19464106889368"><ele>473.0</ele><time>2026-04-09T15:58:35.999Z</time></trkpt><trkpt lat="44.2326101412553" lon="11.194800196125128"><ele>472.0</ele><time>2026-04-09T15:58:36.999Z</time></trkpt><trkpt lat="44.2328290066738" lon="11.194950727457101"><ele>472.0</ele><time>2026-04-09T15:58:37.999Z</time></trkpt><trkpt lat="44.23303831932297" lon="11.195116867244346"><ele>472.0</ele><time>2026-04-09T15:58:38.999Z</time></trkpt><trkpt lat="44.2332475969951" lon="11.195284703859384"><ele>460.0</ele><time>2026-04-09T15:58:39.999Z</time></trkpt><trkpt lat="44.233463520065456" lon="11.195438018139047"><ele>448.0</ele><time>2026-04-09T15:58:40.999Z</time></trkpt><trkpt lat="44.23368533263592" lon="11.195569777668618"><ele>448.0</ele><time>2026-04-09T15:58:41.999Z</time></trkpt><trkpt lat="44.23392013690066" lon="11.195659581066149"><ele>448.0</ele><time>2026-04-09T15:58:42.999Z</time></trkpt><trkpt lat="44.23416059510533" lon="11.195718206941224"><ele>448.0</ele><time>2026-04-09T15:58:43.999Z</time></trkpt><trkpt lat="44.234403498539535" lon="11.195747086158372"><ele>448.0</ele><time>2026-04-09T15:58:44.999Z</time></trkpt><trkpt lat="44.23464900916469" lon="11.19574054569189"><ele>449.5</ele><time>2026-04-09T15:58:45.999Z</time></trkpt><trkpt lat="44.23488634544165" lon="11.19569487402421"><ele>451.0</ele><time>2026-04-09T15:58:46.999Z</time></trkpt><trkpt lat="44.23512296018297" lon="11.195630554791485"><ele>443.5</ele><time>2026-04-09T15:58:47.999Z</time></trkpt><trkpt lat="44.235350028026716" lon="11.195528500244185"><ele>436.0</ele><time>2026-04-09T15:58:48.999Z</time></trkpt><trkpt lat="44.23557479142812" lon="11.19541513683341"><ele>438.5</ele><time>2026-04-09T15:58:49.999Z</time></trkpt><trkpt lat="44.235796878135005" lon="11.195295238275522"><ele>441.0</ele><time>2026-04-09T15:58:50.999Z</time></trkpt><trkpt lat="44.23601540574072" lon="11.195155821584814"><ele>441.0</ele><time>2026-04-09T15:58:51.999Z</time></trkpt><trkpt lat="44.23622113083433" lon="11.194996621401923"><ele>441.0</ele><time>2026-04-09T15:58:52.999Z</time></trkpt><trkpt lat="44.23643008888049" lon="11.194812482585498"><ele>439.0</ele><time>2026-04-09T15:58:53.999Z</time></trkpt><trkpt lat="44.23663948494744" lon="11.194642349235494"><ele>437.0</ele><time>2026-04-09T15:58:54.999Z</time></trkpt><trkpt lat="44.23685129038879" lon="11.19448104722774"><ele>437.0</ele><time>2026-04-09T15:58:55.999Z</time></trkpt><trkpt lat="44.237066146530296" lon="11.19432007915894"><ele>437.0</ele><time>2026-04-09T15:58:56.999Z</time></trkpt><trkpt lat="44.23727922156986" lon="11.194161862901034"><ele>441.5</ele><time>2026-04-09T15:58:57.999Z</time></trkpt><trkpt lat="44.237494023935405" lon="11.194006435929621"><ele>446.0</ele><time>2026-04-09T15:58:58.999Z</time></trkpt><trkpt lat="44.23770859433521" lon="11.193850839635955"><ele>446.0</ele><time>2026-04-09T15:58:59.999Z</time></trkpt><trkpt lat="44.237929147414135" lon="11.193693771311969"><ele>446.0</ele><time>2026-04-09T15:59:01.023Z</time></trkpt><trkpt lat="44.23814169217557" lon="11.193534754254344"><ele>442.5</ele><time>2026-04-09T15:59:02.018Z</time></trkpt><trkpt lat="44.23835084585811" lon="11.193372497665624"><ele>439.0</ele><time>2026-04-09T15:59:02.999Z</time></trkpt><trkpt lat="44.23860011263092" lon="11.193311012225813"><ele>439.0</ele><time>2026-04-09T15:59:03.999Z</time></trkpt><trkpt lat="44.23881527568006" lon="11.19325870585537"><ele>439.0</ele><time>2026-04-09T15:59:04.999Z</time></trkpt><trkpt lat="44.239050297566884" lon="11.193239336299897"><ele>436.0</ele><time>2026-04-09T15:59:05.999Z</time></trkpt><trkpt lat="44.23929041046193" lon="11.193239078743364"><ele>433.0</ele><time>2026-04-09T15:59:06.999Z</time></trkpt><trkpt lat="44.23952612482356" lon="11.19324271129737"><ele>433.0</ele><time>2026-04-09T15:59:07.999Z</time></trkpt><trkpt lat="44.23976792665295" lon="11.193250141825864"><ele>433.0</ele><time>2026-04-09T15:59:08.999Z</time></trkpt><trkpt lat="44.24000859156414" lon="11.193254146544888"><ele>426.5</ele><time>2026-04-09T15:59:10Z</time></trkpt><trkpt lat="44.24024365971368" lon="11.193256517478567"><ele>420.0</ele><time>2026-04-09T15:59:11Z</time></trkpt><trkpt lat="44.240488253809815" lon="11.193258750722748"><ele>417.0</ele><time>2026-04-09T15:59:12Z</time></trkpt><trkpt lat="44.24072757223905" lon="11.193287680301118"><ele>414.0</ele><time>2026-04-09T15:59:13Z</time></trkpt><trkpt lat="44.240961521140164" lon="11.193357381261356"><ele>414.0</ele><time>2026-04-09T15:59:14Z</time></trkpt><trkpt lat="44.24119324394677" lon="11.193468009735966"><ele>414.0</ele><time>2026-04-09T15:59:15Z</time></trkpt><trkpt lat="44.241415340078944" lon="11.193607619392484"><ele>412.0</ele><time>2026-04-09T15:59:16Z</time></trkpt><trkpt lat="44.24163300679163" lon="11.193761564304564"><ele>410.0</ele><time>2026-04-09T15:59:17Z</time></trkpt><trkpt lat="44.24183863949473" lon="11.19393712476524"><ele>418.5</ele><time>2026-04-09T15:59:18Z</time></trkpt><trkpt lat="44.24202453318097" lon="11.19415216808859"><ele>427.0</ele><time>2026-04-09T15:59:19Z</time></trkpt><trkpt lat="44.242199169455986" lon="11.194384375877986"><ele>421.5</ele><time>2026-04-09T15:59:20Z</time></trkpt><trkpt lat="44.242372706899125" lon="11.19461861380907"><ele>416.0</ele><time>2026-04-09T15:59:21Z</time></trkpt><trkpt lat="44.24254910970677" lon="11.194844724344998"><ele>416.0</ele><time>2026-04-09T15:59:22Z</time></trkpt><trkpt lat="44.2427294355363" lon="11.19506521812199"><ele>416.0</ele><time>2026-04-09T15:59:23Z</time></trkpt><trkpt lat="44.24291421828276" lon="11.195284363297825"><ele>416.0</ele><time>2026-04-09T15:59:24Z</time></trkpt><trkpt lat="44.24310308900819" lon="11.195495253985166"><ele>416.0</ele><time>2026-04-09T15:59:25Z</time></trkpt><trkpt lat="44.243305672565654" lon="11.19567074686771"><ele>408.5</ele><time>2026-04-09T15:59:26Z</time></trkpt><trkpt lat="44.24352519363744" lon="11.195816616937606"><ele>401.0</ele><time>2026-04-09T15:59:27Z</time></trkpt><trkpt lat="44.24375176307356" lon="11.195932592564757"><ele>397.5</ele><time>2026-04-09T15:59:28Z</time></trkpt><trkpt lat="44.24397908984186" lon="11.196016763969261"><ele>394.0</ele><time>2026-04-09T15:59:29Z</time></trkpt><trkpt lat="44.24421519470823" lon="11.196074230790812"><ele>394.0</ele><time>2026-04-09T15:59:30Z</time></trkpt><trkpt lat="44.244454316345895" lon="11.196111802395865"><ele>394.0</ele><time>2026-04-09T15:59:31Z</time></trkpt><trkpt lat="44.244696159811035" lon="11.196120917983194"><ele>395.5</ele><time>2026-04-09T15:59:32Z</time></trkpt><trkpt lat="44.244937335919296" lon="11.196100551641244"><ele>397.0</ele><time>2026-04-09T15:59:33Z</time></trkpt><trkpt lat="44.24517558307967" lon="11.196062030692703"><ele>397.0</ele><time>2026-04-09T15:59:34Z</time></trkpt><trkpt lat="44.245413041146215" lon="11.196022448725994"><ele>397.0</ele><time>2026-04-09T15:59:35Z</time></trkpt><trkpt lat="44.24565185701788" lon="11.195979813957972"><ele>399.0</ele><time>2026-04-09T15:59:36Z</time></trkpt><trkpt lat="44.24588837274949" lon="11.1959466864987"><ele>401.0</ele><time>2026-04-09T15:59:37Z</time></trkpt><trkpt lat="44.24612946127634" lon="11.195915683796128"><ele>401.0</ele><time>2026-04-09T15:59:38Z</time></trkpt><trkpt lat="44.24637171256518" lon="11.195887154126408"><ele>401.0</ele><time>2026-04-09T15:59:39Z</time></trkpt><trkpt lat="44.24661047676642" lon="11.19585816963607"><ele>395.5</ele><time>2026-04-09T15:59:40Z</time></trkpt><trkpt lat="44.24685188557394" lon="11.195819873122307"><ele>390.0</ele><time>2026-04-09T15:59:41Z</time></trkpt><trkpt lat="44.247091901176866" lon="11.195789272716482"><ele>389.0</ele><time>2026-04-09T15:59:42Z</time></trkpt><trkpt lat="44.24733458646495" lon="11.19575764501479"><ele>388.0</ele><time>2026-04-09T15:59:43Z</time></trkpt><trkpt lat="44.247576788401396" lon="11.195726533116897"><ele>388.0</ele><time>2026-04-09T15:59:44Z</time></trkpt><trkpt lat="44.24781911595327" lon="11.195691389719594"><ele>388.0</ele><time>2026-04-09T15:59:45Z</time></trkpt><trkpt lat="44.24806336553959" lon="11.195656843480528"><ele>380.5</ele><time>2026-04-09T15:59:46Z</time></trkpt><trkpt lat="44.248302974388736" lon="11.195628200994133"><ele>373.0</ele><time>2026-04-09T15:59:47Z</time></trkpt><trkpt lat="44.24854781430693" lon="11.195595056216945"><ele>373.0</ele><time>2026-04-09T15:59:48Z</time></trkpt><trkpt lat="44.24878474732363" lon="11.195564325174017"><ele>373.0</ele><time>2026-04-09T15:59:49Z</time></trkpt><trkpt lat="44.249026560442516" lon="11.195529934104352"><ele>372.0</ele><time>2026-04-09T15:59:50Z</time></trkpt><trkpt lat="44.24926891632594" lon="11.195493801158351"><ele>371.0</ele><time>2026-04-09T15:59:51Z</time></trkpt><trkpt lat="44.24950747542459" lon="11.195461706722831"><ele>371.0</ele><time>2026-04-09T15:59:52Z</time></trkpt><trkpt lat="44.24974725061251" lon="11.19543140458368"><ele>371.0</ele><time>2026-04-09T15:59:53Z</time></trkpt><trkpt lat="44.24998464884864" lon="11.195406434646957"><ele>374.0</ele><time>2026-04-09T15:59:54Z</time></trkpt><trkpt lat="44.25022389383499" lon="11.19538508912047"><ele>377.0</ele><time>2026-04-09T15:59:55Z</time></trkpt><trkpt lat="44.250461452054836" lon="11.1953711642541"><ele>376.0</ele><time>2026-04-09T15:59:56Z</time></trkpt><trkpt lat="44.25069955926983" lon="11.195370318083073"><ele>375.0</ele><time>2026-04-09T15:59:57Z</time></trkpt><trkpt lat="44.25093806180912" lon="11.19538242947702"><ele>375.0</ele><time>2026-04-09T15:59:58Z</time></trkpt><trkpt lat="44.25117440388524" lon="11.195400301765085"><ele>375.0</ele><time>2026-04-09T15:59:59Z</time></trkpt><trkpt lat="44.25140991267952" lon="11.195430342420849"><ele>370.5</ele><time>2026-04-09T16:00:00Z</time></trkpt><trkpt lat="44.25165235633181" lon="11.19546306164426"><ele>366.0</ele><time>2026-04-09T16:00:01Z</time></trkpt><trkpt lat="44.25189287151693" lon="11.19549372909514"><ele>366.0</ele><time>2026-04-09T16:00:02Z</time></trkpt><trkpt lat="44.25213610538094" lon="11.195518741761216"><ele>366.0</ele><time>2026-04-09T16:00:03Z</time></trkpt><trkpt lat="44.25237744105614" lon="11.195538330701106"><ele>361.0</ele><time>2026-04-09T16:00:04Z</time></trkpt><trkpt lat="44.252620695570315" lon="11.195557016061395"><ele>356.0</ele><time>2026-04-09T16:00:04.999Z</time></trkpt><trkpt lat="44.252861693456424" lon="11.195570830546178"><ele>356.0</ele><time>2026-04-09T16:00:05.999Z</time></trkpt><trkpt lat="44.253103682790766" lon="11.19557579358065"><ele>356.0</ele><time>2026-04-09T16:00:06.999Z</time></trkpt><trkpt lat="44.25334789085998" lon="11.195558523885493"><ele>352.5</ele><time>2026-04-09T16:00:07.999Z</time></trkpt><trkpt lat="44.253591421578605" lon="11.19552018460271"><ele>349.0</ele><time>2026-04-09T16:00:08.999Z</time></trkpt><trkpt lat="44.253828900197526" lon="11.195466584067471"><ele>349.5</ele><time>2026-04-09T16:00:09.999Z</time></trkpt><trkpt lat="44.25406494211895" lon="11.195406231991136"><ele>350.0</ele><time>2026-04-09T16:00:10.999Z</time></trkpt><trkpt lat="44.25430229940998" lon="11.195339488709147"><ele>350.0</ele><time>2026-04-09T16:00:11.999Z</time></trkpt><trkpt lat="44.25453535156558" lon="11.19526050635925"><ele>350.0</ele><time>2026-04-09T16:00:12.999Z</time></trkpt><trkpt lat="44.25476461254726" lon="11.195175187841802"><ele>354.5</ele><time>2026-04-09T16:00:13.999Z</time></trkpt><trkpt lat="44.254997562664286" lon="11.195076443727135"><ele>359.0</ele><time>2026-04-09T16:00:14.999Z</time></trkpt><trkpt lat="44.25522803021542" lon="11.194981768587047"><ele>359.0</ele><time>2026-04-09T16:00:15.999Z</time></trkpt><trkpt lat="44.25546235044584" lon="11.19489683821692"><ele>359.0</ele><time>2026-04-09T16:00:16.999Z</time></trkpt><trkpt lat="44.25568837025444" lon="11.194811495638994"><ele>351.5</ele><time>2026-04-09T16:00:17.999Z</time></trkpt><trkpt lat="44.2559201455177" lon="11.194733818823877"><ele>344.0</ele><time>2026-04-09T16:00:18.999Z</time></trkpt><trkpt lat="44.25615483394384" lon="11.194662430405515"><ele>344.0</ele><time>2026-04-09T16:00:19.999Z</time></trkpt><trkpt lat="44.25638927309523" lon="11.194590548942841"><ele>344.0</ele><time>2026-04-09T16:00:20.999Z</time></trkpt><trkpt lat="44.25663037684409" lon="11.194525218385763"><ele>344.5</ele><time>2026-04-09T16:00:21.999Z</time></trkpt><trkpt lat="44.25686461653407" lon="11.194481088547962"><ele>345.0</ele><time>2026-04-09T16:00:22.999Z</time></trkpt><trkpt lat="44.25710280942966" lon="11.194475722716097"><ele>344.5</ele><time>2026-04-09T16:00:23.999Z</time></trkpt><trkpt lat="44.257346283467726" lon="11.194482983136247"><ele>344.0</ele><time>2026-04-09T16:00:24.999Z</time></trkpt><trkpt lat="44.25758698621447" lon="11.194513212974702"><ele>344.0</ele><time>2026-04-09T16:00:25.999Z</time></trkpt><trkpt lat="44.25781981068142" lon="11.19454760103012"><ele>344.0</ele><time>2026-04-09T16:00:26.999Z</time></trkpt><trkpt lat="44.258054911843985" lon="11.194597114869971"><ele>339.0</ele><time>2026-04-09T16:00:27.999Z</time></trkpt><trkpt lat="44.25829278882795" lon="11.194665993466959"><ele>334.0</ele><time>2026-04-09T16:00:28.999Z</time></trkpt><trkpt lat="44.25852328449908" lon="11.194757181160291"><ele>334.5</ele><time>2026-04-09T16:00:29.999Z</time></trkpt><trkpt lat="44.25875633730212" lon="11.194856044291289"><ele>335.0</ele><time>2026-04-09T16:00:30.999Z</time></trkpt><trkpt lat="44.25898957143003" lon="11.194955935701241"><ele>335.0</ele><time>2026-04-09T16:00:31.999Z</time></trkpt><trkpt lat="44.259222894095636" lon="11.195059295965136"><ele>335.0</ele><time>2026-04-09T16:00:32.999Z</time></trkpt><trkpt lat="44.2594539807755" lon="11.195159150802258"><ele>335.0</ele><time>2026-04-09T16:00:33.999Z</time></trkpt><trkpt lat="44.2596792496709" lon="11.19525041797966"><ele>335.0</ele><time>2026-04-09T16:00:34.999Z</time></trkpt><trkpt lat="44.25989177421514" lon="11.19533420807327"><ele>331.6666666666667</ele><time>2026-04-09T16:00:35.999Z</time></trkpt><trkpt lat="44.2600974966476" lon="11.195414258358937"><ele>328.3333333333333</ele><time>2026-04-09T16:00:36.999Z</time></trkpt><trkpt lat="44.26030304718823" lon="11.19550311628685"><ele>325.0</ele><time>2026-04-09T16:00:37.999Z</time></trkpt><trkpt lat="44.26050579219276" lon="11.195590878941308"><ele>327.0</ele><time>2026-04-09T16:00:38.999Z</time></trkpt><trkpt lat="44.2607130087862" lon="11.195676221989087"><ele>329.0</ele><time>2026-04-09T16:00:39.999Z</time></trkpt><trkpt lat="44.26092122261633" lon="11.195763515550427"><ele>331.0</ele><time>2026-04-09T16:00:40.999Z</time></trkpt><trkpt lat="44.261128211838965" lon="11.19585342742749"><ele>331.0</ele><time>2026-04-09T16:00:41.999Z</time></trkpt><trkpt lat="44.26133393934626" lon="11.19594370774969"><ele>331.0</ele><time>2026-04-09T16:00:42.999Z</time></trkpt><trkpt lat="44.26154215313911" lon="11.196027053661458"><ele>331.0</ele><time>2026-04-09T16:00:43.999Z</time></trkpt><trkpt lat="44.26174986300911" lon="11.196111449318963"><ele>330.0</ele><time>2026-04-09T16:00:44.999Z</time></trkpt><trkpt lat="44.261958980595324" lon="11.196198932895463"><ele>329.0</ele><time>2026-04-09T16:00:45.999Z</time></trkpt><trkpt lat="44.262164109694936" lon="11.196286331913608"><ele>328.0</ele><time>2026-04-09T16:00:46.999Z</time></trkpt><trkpt lat="44.26237179376251" lon="11.196379715129154"><ele>330.0</ele><time>2026-04-09T16:00:47.999Z</time></trkpt><trkpt lat="44.26258629180071" lon="11.196490704362498"><ele>332.0</ele><time>2026-04-09T16:00:48.999Z</time></trkpt><trkpt lat="44.26279965709335" lon="11.19661244143297"><ele>332.0</ele><time>2026-04-09T16:00:49.999Z</time></trkpt><trkpt lat="44.26301086568328" lon="11.196742398758813"><ele>332.0</ele><time>2026-04-09T16:00:50.999Z</time></trkpt><trkpt lat="44.26322279172143" lon="11.196882645882537"><ele>328.0</ele><time>2026-04-09T16:00:51.999Z</time></trkpt><trkpt lat="44.26343341334986" lon="11.197033884715218"><ele>324.0</ele><time>2026-04-09T16:00:52.999Z</time></trkpt><trkpt lat="44.26364952543948" lon="11.197193252263162"><ele>321.0</ele><time>2026-04-09T16:00:53.999Z</time></trkpt><trkpt lat="44.26386215215777" lon="11.197353234640914"><ele>318.0</ele><time>2026-04-09T16:00:54.999Z</time></trkpt><trkpt lat="44.264073705053704" lon="11.197513309165076"><ele>318.0</ele><time>2026-04-09T16:00:55.999Z</time></trkpt><trkpt lat="44.2642820095762" lon="11.197675790832706"><ele>318.0</ele><time>2026-04-09T16:00:56.999Z</time></trkpt><trkpt lat="44.264493751619014" lon="11.19784863347818"><ele>318.0</ele><time>2026-04-09T16:00:57.999Z</time></trkpt><trkpt lat="44.26470897429102" lon="11.198027609234847"><ele>318.0</ele><time>2026-04-09T16:00:58.999Z</time></trkpt><trkpt lat="44.26492785420488" lon="11.198207370916416"><ele>315.5</ele><time>2026-04-09T16:00:59.999Z</time></trkpt><trkpt lat="44.26515067478153" lon="11.198380110079768"><ele>313.0</ele><time>2026-04-09T16:01:00.999Z</time></trkpt><trkpt lat="44.265372487807504" lon="11.198554281493552"><ele>313.0</ele><time>2026-04-09T16:01:01.999Z</time></trkpt><trkpt lat="44.26559459028387" lon="11.19872388921214"><ele>313.0</ele><time>2026-04-09T16:01:02.999Z</time></trkpt><trkpt lat="44.26581673381743" lon="11.198892126939295"><ele>316.5</ele><time>2026-04-09T16:01:03.999Z</time></trkpt><trkpt lat="44.26603683567712" lon="11.199054471721904"><ele>320.0</ele><time>2026-04-09T16:01:04.999Z</time></trkpt><trkpt lat="44.26626631054684" lon="11.199202754091012"><ele>313.5</ele><time>2026-04-09T16:01:05.999Z</time></trkpt><trkpt lat="44.266500269834886" lon="11.19932189255798"><ele>307.0</ele><time>2026-04-09T16:01:06.999Z</time></trkpt><trkpt lat="44.266744796825" lon="11.199405936687882"><ele>307.0</ele><time>2026-04-09T16:01:07.999Z</time></trkpt><trkpt lat="44.26699246061839" lon="11.199466402218603"><ele>307.0</ele><time>2026-04-09T16:01:08.999Z</time></trkpt><trkpt lat="44.26723621044001" lon="11.199499897681871"><ele>300.0</ele><time>2026-04-09T16:01:09.999Z</time></trkpt><trkpt lat="44.26748794394423" lon="11.19950666748378"><ele>293.0</ele><time>2026-04-09T16:01:10.999Z</time></trkpt><trkpt lat="44.26773650833323" lon="11.199485051663977"><ele>293.0</ele><time>2026-04-09T16:01:11.999Z</time></trkpt><trkpt lat="44.26798066336475" lon="11.199447003827165"><ele>293.0</ele><time>2026-04-09T16:01:12.999Z</time></trkpt><trkpt lat="44.26822518482712" lon="11.199396679311983"><ele>291.5</ele><time>2026-04-09T16:01:13.999Z</time></trkpt><trkpt lat="44.26847800416634" lon="11.199349363579742"><ele>290.0</ele><time>2026-04-09T16:01:14.999Z</time></trkpt><trkpt lat="44.26872420199806" lon="11.199311061562165"><ele>290.0</ele><time>2026-04-09T16:01:16Z</time></trkpt><trkpt lat="44.2689733326878" lon="11.199276415825446"><ele>290.0</ele><time>2026-04-09T16:01:17Z</time></trkpt><trkpt lat="44.26922127813357" lon="11.199258740666714"><ele>290.0</ele><time>2026-04-09T16:01:18Z</time></trkpt><trkpt lat="44.26947078526436" lon="11.199266938886955"><ele>290.0</ele><time>2026-04-09T16:01:19Z</time></trkpt><trkpt lat="44.26971957907482" lon="11.199291483051281"><ele>290.5</ele><time>2026-04-09T16:01:20Z</time></trkpt><trkpt lat="44.269966791573815" lon="11.199344130036195"><ele>291.0</ele><time>2026-04-09T16:01:21Z</time></trkpt><trkpt lat="44.270213197330754" lon="11.19941376238195"><ele>291.0</ele><time>2026-04-09T16:01:22Z</time></trkpt><trkpt lat="44.27045575977512" lon="11.199504690592507"><ele>291.0</ele><time>2026-04-09T16:01:23Z</time></trkpt><trkpt lat="44.27069160337621" lon="11.199616507162908"><ele>290.0</ele><time>2026-04-09T16:01:24Z</time></trkpt><trkpt lat="44.270926455097424" lon="11.199742641606854"><ele>289.0</ele><time>2026-04-09T16:01:25Z</time></trkpt><trkpt lat="44.27116258427495" lon="11.199868159926508"><ele>288.5</ele><time>2026-04-09T16:01:26Z</time></trkpt><trkpt lat="44.271397496565385" lon="11.199991627510624"><ele>288.0</ele><time>2026-04-09T16:01:27Z</time></trkpt><trkpt lat="44.27163351569236" lon="11.200114253710039"><ele>288.0</ele><time>2026-04-09T16:01:28Z</time></trkpt><trkpt lat="44.271872244617384" lon="11.20023404243446"><ele>288.0</ele><time>2026-04-09T16:01:29Z</time></trkpt><trkpt lat="44.272110355705216" lon="11.200354470295125"><ele>281.0</ele><time>2026-04-09T16:01:30Z</time></trkpt><trkpt lat="44.27234726085638" lon="11.20047360365225"><ele>274.0</ele><time>2026-04-09T16:01:31Z</time></trkpt><trkpt lat="44.27258470202796" lon="11.200589417576811"><ele>277.0</ele><time>2026-04-09T16:01:32Z</time></trkpt><trkpt lat="44.27282105155744" lon="11.200699873496106"><ele>280.0</ele><time>2026-04-09T16:01:33Z</time></trkpt><trkpt lat="44.273066988661625" lon="11.200810094043785"><ele>267.5</ele><time>2026-04-09T16:01:34Z</time></trkpt><trkpt lat="44.273301174489355" lon="11.200905674448437"><ele>255.0</ele><time>2026-04-09T16:01:35Z</time></trkpt><trkpt lat="44.273543876439206" lon="11.200988035729777"><ele>255.0</ele><time>2026-04-09T16:01:36Z</time></trkpt><trkpt lat="44.273788692465246" lon="11.201048736819716"><ele>255.0</ele><time>2026-04-09T16:01:37Z</time></trkpt><trkpt lat="44.274037699534865" lon="11.201100461696301"><ele>249.5</ele><time>2026-04-09T16:01:38Z</time></trkpt><trkpt lat="44.274283898088626" lon="11.201154506059192"><ele>244.0</ele><time>2026-04-09T16:01:39Z</time></trkpt><trkpt lat="44.27453276644557" lon="11.201212169739577"><ele>237.5</ele><time>2026-04-09T16:01:40Z</time></trkpt><trkpt lat="44.27478101911596" lon="11.201270300659006"><ele>231.0</ele><time>2026-04-09T16:01:41Z</time></trkpt><trkpt lat="44.27502763210534" lon="11.201328413291055"><ele>231.0</ele><time>2026-04-09T16:01:42Z</time></trkpt><trkpt lat="44.275274364292876" lon="11.201384247973762"><ele>231.0</ele><time>2026-04-09T16:01:43Z</time></trkpt><trkpt lat="44.27552208323359" lon="11.201440816717295"><ele>239.0</ele><time>2026-04-09T16:01:44Z</time></trkpt><trkpt lat="44.27576762942129" lon="11.20149864162855"><ele>247.0</ele><time>2026-04-09T16:01:45Z</time></trkpt><trkpt lat="44.276015192956294" lon="11.201558817852359"><ele>254.5</ele><time>2026-04-09T16:01:46Z</time></trkpt><trkpt lat="44.27626210159556" lon="11.201616287649053"><ele>262.0</ele><time>2026-04-09T16:01:47Z</time></trkpt><trkpt lat="44.27650905300502" lon="11.201674257779041"><ele>267.5</ele><time>2026-04-09T16:01:48Z</time></trkpt><trkpt lat="44.27675491619967" lon="11.20173222099848"><ele>273.0</ele><time>2026-04-09T16:01:49Z</time></trkpt><trkpt lat="44.27699630881303" lon="11.20179885895073"><ele>273.0</ele><time>2026-04-09T16:01:50Z</time></trkpt><trkpt lat="44.27723940151582" lon="11.201881948974908"><ele>273.0</ele><time>2026-04-09T16:01:51Z</time></trkpt><trkpt lat="44.277481236427285" lon="11.2019841454656"><ele>268.0</ele><time>2026-04-09T16:01:52Z</time></trkpt><trkpt lat="44.27771593650068" lon="11.202109461583518"><ele>263.0</ele><time>2026-04-09T16:01:53Z</time></trkpt><trkpt lat="44.27794265270306" lon="11.202253742291967"><ele>264.5</ele><time>2026-04-09T16:01:54Z</time></trkpt><trkpt lat="44.27816408418617" lon="11.202432287263097"><ele>266.0</ele><time>2026-04-09T16:01:55Z</time></trkpt><trkpt lat="44.27837222047274" lon="11.202631979905732"><ele>266.0</ele><time>2026-04-09T16:01:56Z</time></trkpt><trkpt lat="44.278571561096285" lon="11.202847361019836"><ele>266.0</ele><time>2026-04-09T16:01:57Z</time></trkpt><trkpt lat="44.278761152078914" lon="11.203081602338187"><ele>260.5</ele><time>2026-04-09T16:01:58Z</time></trkpt><trkpt lat="44.2789466096223" lon="11.203320849535235"><ele>255.0</ele><time>2026-04-09T16:01:59Z</time></trkpt><trkpt lat="44.279128605698055" lon="11.203560393719474"><ele>255.0</ele><time>2026-04-09T16:02:00Z</time></trkpt><trkpt lat="44.279318212364316" lon="11.2037924970769"><ele>255.0</ele><time>2026-04-09T16:02:01Z</time></trkpt><trkpt lat="44.27950648928544" lon="11.204023839914456"><ele>251.0</ele><time>2026-04-09T16:02:02Z</time></trkpt><trkpt lat="44.27969191373581" lon="11.204254876643505"><ele>247.0</ele><time>2026-04-09T16:02:03Z</time></trkpt><trkpt lat="44.27988010626567" lon="11.204486025290741"><ele>247.0</ele><time>2026-04-09T16:02:04Z</time></trkpt><trkpt lat="44.2800681234589" lon="11.204712595674458"><ele>247.0</ele><time>2026-04-09T16:02:05Z</time></trkpt><trkpt lat="44.28025798938293" lon="11.204941346869232"><ele>242.5</ele><time>2026-04-09T16:02:06Z</time></trkpt><trkpt lat="44.28044481585731" lon="11.205177067722753"><ele>238.0</ele><time>2026-04-09T16:02:07Z</time></trkpt><trkpt lat="44.28062990430834" lon="11.205409052957775"><ele>238.0</ele><time>2026-04-09T16:02:08Z</time></trkpt><trkpt lat="44.28081598524147" lon="11.205644988370317"><ele>238.0</ele><time>2026-04-09T16:02:09Z</time></trkpt><trkpt lat="44.28100437387401" lon="11.205874562222226"><ele>246.5</ele><time>2026-04-09T16:02:10Z</time></trkpt><trkpt lat="44.28119925209776" lon="11.20609302373508"><ele>255.0</ele><time>2026-04-09T16:02:10.999Z</time></trkpt><trkpt lat="44.2814039658721" lon="11.206296709909891"><ele>256.5</ele><time>2026-04-09T16:02:11.999Z</time></trkpt><trkpt lat="44.28162090731255" lon="11.206468651630463"><ele>258.0</ele><time>2026-04-09T16:02:12.999Z</time></trkpt><trkpt lat="44.28184577195164" lon="11.20661845152526"><ele>258.0</ele><time>2026-04-09T16:02:13.999Z</time></trkpt><trkpt lat="44.282081180346765" lon="11.20674122200507"><ele>258.0</ele><time>2026-04-09T16:02:14.999Z</time></trkpt><trkpt lat="44.28232357314325" lon="11.206829620051902"><ele>253.0</ele><time>2026-04-09T16:02:15.999Z</time></trkpt><trkpt lat="44.28257068136801" lon="11.206898808241021"><ele>248.0</ele><time>2026-04-09T16:02:16.999Z</time></trkpt><trkpt lat="44.282820374639456" lon="11.206939276155166"><ele>248.0</ele><time>2026-04-09T16:02:17.999Z</time></trkpt><trkpt lat="44.2830697814473" lon="11.20694863874331"><ele>248.0</ele><time>2026-04-09T16:02:18.999Z</time></trkpt><trkpt lat="44.28331951439542" lon="11.20694610140108"><ele>246.0</ele><time>2026-04-09T16:02:19.999Z</time></trkpt><trkpt lat="44.28357062739386" lon="11.206942830581042"><ele>244.0</ele><time>2026-04-09T16:02:20.999Z</time></trkpt><trkpt lat="44.28381474986441" lon="11.206949113387017"><ele>240.5</ele><time>2026-04-09T16:02:21.999Z</time></trkpt><trkpt lat="44.28407052723377" lon="11.20697035875219"><ele>237.0</ele><time>2026-04-09T16:02:22.999Z</time></trkpt><trkpt lat="44.28431812928895" lon="11.206960969474514"><ele>237.0</ele><time>2026-04-09T16:02:23.999Z</time></trkpt><trkpt lat="44.28456835993079" lon="11.206970188907455"><ele>237.0</ele><time>2026-04-09T16:02:24.999Z</time></trkpt><trkpt lat="44.28481628342756" lon="11.206978290679999"><ele>230.0</ele><time>2026-04-09T16:02:25.999Z</time></trkpt><trkpt lat="44.28506764097925" lon="11.206983110766949"><ele>223.0</ele><time>2026-04-09T16:02:26.999Z</time></trkpt><trkpt lat="44.285317410816184" lon="11.206983791459006"><ele>223.0</ele><time>2026-04-09T16:02:27.999Z</time></trkpt><trkpt lat="44.28556689819945" lon="11.206987518391166"><ele>223.0</ele><time>2026-04-09T16:02:28.999Z</time></trkpt><trkpt lat="44.28581394391456" lon="11.206992452077074"><ele>216.5</ele><time>2026-04-09T16:02:29.999Z</time></trkpt><trkpt lat="44.286060579512565" lon="11.206997789053425"><ele>210.0</ele><time>2026-04-09T16:02:30.999Z</time></trkpt><trkpt lat="44.286310183633994" lon="11.207001273573269"><ele>208.5</ele><time>2026-04-09T16:02:31.999Z</time></trkpt><trkpt lat="44.28655843849216" lon="11.207005995096505"><ele>207.0</ele><time>2026-04-09T16:02:32.999Z</time></trkpt><trkpt lat="44.28681275553384" lon="11.207019880143491"><ele>207.0</ele><time>2026-04-09T16:02:33.999Z</time></trkpt><trkpt lat="44.287061924571645" lon="11.207040125211853"><ele>207.0</ele><time>2026-04-09T16:02:34.999Z</time></trkpt><trkpt lat="44.28730383982222" lon="11.207078762061132"><ele>206.5</ele><time>2026-04-09T16:02:35.999Z</time></trkpt><trkpt lat="44.28755143855019" lon="11.207125542450985"><ele>206.0</ele><time>2026-04-09T16:02:36.999Z</time></trkpt><trkpt lat="44.28779829760435" lon="11.207188684061517"><ele>206.0</ele><time>2026-04-09T16:02:37.999Z</time></trkpt><trkpt lat="44.28804281171068" lon="11.207267225420903"><ele>206.0</ele><time>2026-04-09T16:02:38.999Z</time></trkpt><trkpt lat="44.288282640212394" lon="11.207357244501306"><ele>207.0</ele><time>2026-04-09T16:02:39.999Z</time></trkpt><trkpt lat="44.288523559302725" lon="11.207457749211587"><ele>208.0</ele><time>2026-04-09T16:02:40.999Z</time></trkpt><trkpt lat="44.2887631982178" lon="11.207565301296922"><ele>215.0</ele><time>2026-04-09T16:02:41.999Z</time></trkpt><trkpt lat="44.288995704002716" lon="11.207684357004268"><ele>222.0</ele><time>2026-04-09T16:02:42.999Z</time></trkpt><trkpt lat="44.28922581059809" lon="11.207818093366411"><ele>222.0</ele><time>2026-04-09T16:02:43.999Z</time></trkpt><trkpt lat="44.289454531885106" lon="11.207962347481185"><ele>222.0</ele><time>2026-04-09T16:02:44.999Z</time></trkpt><trkpt lat="44.28967597286613" lon="11.208116735773205"><ele>220.5</ele><time>2026-04-09T16:02:45.999Z</time></trkpt><trkpt lat="44.28989394269084" lon="11.208283369654255"><ele>219.0</ele><time>2026-04-09T16:02:46.999Z</time></trkpt><trkpt lat="44.2901074280012" lon="11.208456758458691"><ele>219.0</ele><time>2026-04-09T16:02:47.999Z</time></trkpt><trkpt lat="44.29032057750197" lon="11.208646174861977"><ele>219.0</ele><time>2026-04-09T16:02:48.999Z</time></trkpt><trkpt lat="44.29052715115413" lon="11.20883818951623"><ele>214.5</ele><time>2026-04-09T16:02:49.999Z</time></trkpt><trkpt lat="44.2907278750921" lon="11.209047707748073"><ele>210.0</ele><time>2026-04-09T16:02:50.999Z</time></trkpt><trkpt lat="44.29092423255962" lon="11.209266717558789"><ele>210.0</ele><time>2026-04-09T16:02:51.999Z</time></trkpt><trkpt lat="44.29111213919037" lon="11.209494892582544"><ele>210.0</ele><time>2026-04-09T16:02:52.999Z</time></trkpt><trkpt lat="44.29129351814006" lon="11.209739753005127"><ele>212.5</ele><time>2026-04-09T16:02:53.999Z</time></trkpt><trkpt lat="44.29146739261514" lon="11.209989391600534"><ele>215.0</ele><time>2026-04-09T16:02:54.999Z</time></trkpt><trkpt lat="44.29163436551936" lon="11.210251097493916"><ele>215.0</ele><time>2026-04-09T16:02:55.999Z</time></trkpt><trkpt lat="44.291802689336585" lon="11.21051565281257"><ele>215.0</ele><time>2026-04-09T16:02:56.999Z</time></trkpt><trkpt lat="44.29196366483754" lon="11.210783523526999"><ele>213.5</ele><time>2026-04-09T16:02:57.999Z</time></trkpt><trkpt lat="44.29211992631609" lon="11.211055463873205"><ele>212.0</ele><time>2026-04-09T16:02:58.999Z</time></trkpt><trkpt lat="44.292268139034796" lon="11.21134089185084"><ele>212.5</ele><time>2026-04-09T16:02:59.999Z</time></trkpt><trkpt lat="44.29240873293447" lon="11.21163931668236"><ele>213.0</ele><time>2026-04-09T16:03:00.999Z</time></trkpt><trkpt lat="44.29253689742616" lon="11.211938504601214"><ele>213.0</ele><time>2026-04-09T16:03:01.999Z</time></trkpt><trkpt lat="44.29266433102906" lon="11.21225231631092"><ele>213.0</ele><time>2026-04-09T16:03:02.999Z</time></trkpt><trkpt lat="44.29278619678479" lon="11.212578912134408"><ele>210.5</ele><time>2026-04-09T16:03:03.999Z</time></trkpt><trkpt lat="44.292900579193095" lon="11.212912911645983"><ele>208.0</ele><time>2026-04-09T16:03:04.999Z</time></trkpt><trkpt lat="44.29300980294396" lon="11.2132520310742"><ele>214.5</ele><time>2026-04-09T16:03:05.999Z</time></trkpt><trkpt lat="44.29310932492867" lon="11.213590726254386"><ele>221.0</ele><time>2026-04-09T16:03:06.999Z</time></trkpt><trkpt lat="44.29320708723794" lon="11.213928495885"><ele>215.0</ele><time>2026-04-09T16:03:07.999Z</time></trkpt><trkpt lat="44.29330211184039" lon="11.21426861057332"><ele>209.0</ele><time>2026-04-09T16:03:08.999Z</time></trkpt><trkpt lat="44.29339147432903" lon="11.214612468311108"><ele>207.0</ele><time>2026-04-09T16:03:09.999Z</time></trkpt><trkpt lat="44.29347716057318" lon="11.21496756730918"><ele>205.0</ele><time>2026-04-09T16:03:10.999Z</time></trkpt><trkpt lat="44.29356500908341" lon="11.215331338932208"><ele>203.5</ele><time>2026-04-09T16:03:11.999Z</time></trkpt><trkpt lat="44.293657620735246" lon="11.215699983017647"><ele>202.0</ele><time>2026-04-09T16:03:12.999Z</time></trkpt><trkpt lat="44.29375126556337" lon="11.21606238701513"><ele>202.0</ele><time>2026-04-09T16:03:13.999Z</time></trkpt><trkpt lat="44.2938428008538" lon="11.216425256619328"><ele>202.0</ele><time>2026-04-09T16:03:14.999Z</time></trkpt><trkpt lat="44.2939362079193" lon="11.216783340491084"><ele>203.0</ele><time>2026-04-09T16:03:15.999Z</time></trkpt><trkpt lat="44.29403054280223" lon="11.217143447945931"><ele>204.0</ele><time>2026-04-09T16:03:16.999Z</time></trkpt><trkpt lat="44.29412311544313" lon="11.217502930140993"><ele>204.0</ele><time>2026-04-09T16:03:17.999Z</time></trkpt><trkpt lat="44.294214411161846" lon="11.217857843645659"><ele>204.0</ele><time>2026-04-09T16:03:18.999Z</time></trkpt><trkpt lat="44.29430382785252" lon="11.218215439112129"><ele>203.0</ele><time>2026-04-09T16:03:19.999Z</time></trkpt><trkpt lat="44.29439500729666" lon="11.218574552890507"><ele>202.0</ele><time>2026-04-09T16:03:20.999Z</time></trkpt><trkpt lat="44.2944856651681" lon="11.218934130009199"><ele>198.5</ele><time>2026-04-09T16:03:22Z</time></trkpt><trkpt lat="44.29457727696645" lon="11.219287706130658"><ele>195.0</ele><time>2026-04-09T16:03:23Z</time></trkpt><trkpt lat="44.29466985765687" lon="11.21964687717844"><ele>198.5</ele><time>2026-04-09T16:03:24Z</time></trkpt><trkpt lat="44.294761090662654" lon="11.220003031115297"><ele>202.0</ele><time>2026-04-09T16:03:25Z</time></trkpt><trkpt lat="44.29485301082121" lon="11.22036483899446"><ele>203.0</ele><time>2026-04-09T16:03:26Z</time></trkpt><trkpt lat="44.294944797104556" lon="11.220723135046123"><ele>204.0</ele><time>2026-04-09T16:03:27Z</time></trkpt><trkpt lat="44.295035003348" lon="11.221085409824477"><ele>204.0</ele><time>2026-04-09T16:03:28Z</time></trkpt><trkpt lat="44.29512404045551" lon="11.221449862535158"><ele>204.0</ele><time>2026-04-09T16:03:29Z</time></trkpt><trkpt lat="44.29521197658887" lon="11.221812355430677"><ele>204.0</ele><time>2026-04-09T16:03:30Z</time></trkpt><trkpt lat="44.29529895733257" lon="11.222174690145867"><ele>204.0</ele><time>2026-04-09T16:03:31Z</time></trkpt><trkpt lat="44.29538714455178" lon="11.22254155563894"><ele>202.5</ele><time>2026-04-09T16:03:32Z</time></trkpt><trkpt lat="44.29547461790165" lon="11.222908418326623"><ele>201.0</ele><time>2026-04-09T16:03:33Z</time></trkpt><trkpt lat="44.29555974061722" lon="11.223269528346385"><ele>204.0</ele><time>2026-04-09T16:03:34Z</time></trkpt><trkpt lat="44.29564300777709" lon="11.223630986788569"><ele>207.0</ele><time>2026-04-09T16:03:35Z</time></trkpt><trkpt lat="44.29572782997301" lon="11.223992516429606"><ele>207.0</ele><time>2026-04-09T16:03:36Z</time></trkpt><trkpt lat="44.29581184956343" lon="11.224358197667058"><ele>207.0</ele><time>2026-04-09T16:03:37Z</time></trkpt><trkpt lat="44.29589516309231" lon="11.22471786943962"><ele>204.5</ele><time>2026-04-09T16:03:38Z</time></trkpt><trkpt lat="44.29597998051581" lon="11.225082725905198"><ele>202.0</ele><time>2026-04-09T16:03:39Z</time></trkpt><trkpt lat="44.296064819180835" lon="11.225447294594737"><ele>200.0</ele><time>2026-04-09T16:03:40Z</time></trkpt><trkpt lat="44.29614998696192" lon="11.225809454555241"><ele>198.0</ele><time>2026-04-09T16:03:41Z</time></trkpt><trkpt lat="44.296234216539105" lon="11.226173473411835"><ele>197.5</ele><time>2026-04-09T16:03:42Z</time></trkpt><trkpt lat="44.29632041785612" lon="11.226537978580874"><ele>197.0</ele><time>2026-04-09T16:03:43Z</time></trkpt><trkpt lat="44.296405635947465" lon="11.226903755356052"><ele>201.0</ele><time>2026-04-09T16:03:44Z</time></trkpt><trkpt lat="44.296488896306194" lon="11.227272418272522"><ele>205.0</ele><time>2026-04-09T16:03:45Z</time></trkpt><trkpt lat="44.296572297617026" lon="11.227635305504919"><ele>205.0</ele><time>2026-04-09T16:03:46Z</time></trkpt><trkpt lat="44.29665789595303" lon="11.228000813459053"><ele>205.0</ele><time>2026-04-09T16:03:47Z</time></trkpt><trkpt lat="44.29674230452538" lon="11.228365695526392"><ele>201.0</ele><time>2026-04-09T16:03:48Z</time></trkpt><trkpt lat="44.29682811748006" lon="11.228727017047042"><ele>197.0</ele><time>2026-04-09T16:03:49Z</time></trkpt><trkpt lat="44.29691625278594" lon="11.229088181660895"><ele>195.0</ele><time>2026-04-09T16:03:50Z</time></trkpt><trkpt lat="44.29700261068454" lon="11.229454111554066"><ele>193.0</ele><time>2026-04-09T16:03:51Z</time></trkpt><trkpt lat="44.29708527787025" lon="11.229818500745058"><ele>192.0</ele><time>2026-04-09T16:03:52Z</time></trkpt><trkpt lat="44.297167014971926" lon="11.230179249269463"><ele>191.0</ele><time>2026-04-09T16:03:53Z</time></trkpt><trkpt lat="44.297248181204566" lon="11.23054417171928"><ele>198.0</ele><time>2026-04-09T16:03:54Z</time></trkpt><trkpt lat="44.29732599901378" lon="11.230905730988429"><ele>205.0</ele><time>2026-04-09T16:03:55Z</time></trkpt><trkpt lat="44.297400566342795" lon="11.231271444292394"><ele>203.5</ele><time>2026-04-09T16:03:56Z</time></trkpt><trkpt lat="44.29746904758125" lon="11.23163679309111"><ele>202.0</ele><time>2026-04-09T16:03:57Z</time></trkpt><trkpt lat="44.29753525832516" lon="11.232005692023268"><ele>199.5</ele><time>2026-04-09T16:03:58Z</time></trkpt><trkpt lat="44.29760140608688" lon="11.232375784167631"><ele>197.0</ele><time>2026-04-09T16:03:59Z</time></trkpt><trkpt lat="44.29766407448207" lon="11.232745080735084"><ele>197.0</ele><time>2026-04-09T16:04:00Z</time></trkpt><trkpt lat="44.297725189846894" lon="11.233115819046104"><ele>197.0</ele><time>2026-04-09T16:04:01Z</time></trkpt><trkpt lat="44.297784488528045" lon="11.23349091485786"><ele>197.0</ele><time>2026-04-09T16:04:02Z</time></trkpt><trkpt lat="44.29784165596599" lon="11.23386931036902"><ele>197.0</ele><time>2026-04-09T16:04:03Z</time></trkpt><trkpt lat="44.2978973051102" lon="11.234245038121303"><ele>197.0</ele><time>2026-04-09T16:04:04Z</time></trkpt><trkpt lat="44.297955625247525" lon="11.234618740068843"><ele>197.0</ele><time>2026-04-09T16:04:05Z</time></trkpt><trkpt lat="44.29801349133877" lon="11.234984180709885"><ele>197.0</ele><time>2026-04-09T16:04:06Z</time></trkpt><trkpt lat="44.29807317007985" lon="11.235353929987555"><ele>197.0</ele><time>2026-04-09T16:04:07Z</time></trkpt><trkpt lat="44.29813188361824" lon="11.235723882120535"><ele>198.0</ele><time>2026-04-09T16:04:08Z</time></trkpt><trkpt lat="44.298191418827265" lon="11.236101027335444"><ele>199.0</ele><time>2026-04-09T16:04:09.021Z</time></trkpt><trkpt lat="44.298249316121534" lon="11.236472333997927"><ele>199.0</ele><time>2026-04-09T16:04:10.021Z</time></trkpt><trkpt lat="44.2983047365785" lon="11.236846295861826"><ele>199.0</ele><time>2026-04-09T16:04:11.02Z</time></trkpt><trkpt lat="44.298357743888666" lon="11.237222003326005"><ele>197.5</ele><time>2026-04-09T16:04:12.018Z</time></trkpt><trkpt lat="44.29841661041631" lon="11.237584281131118"><ele>196.0</ele><time>2026-04-09T16:04:13.015Z</time></trkpt><trkpt lat="44.299524099948364" lon="11.239948836989885"><ele>182.0</ele><time>2026-04-09T16:04:16.343Z</time></trkpt><trkpt lat="44.30248379245801" lon="11.24318853021715"><ele>182.0</ele><time>2026-04-09T16:04:31.999Z</time></trkpt><trkpt lat="44.3027431098033" lon="11.24344747736852"><ele>182.0</ele><time>2026-04-09T16:04:32.999Z</time></trkpt><trkpt lat="44.303000000111545" lon="11.243718970283004"><ele>181.5</ele><time>2026-04-09T16:04:33.999Z</time></trkpt><trkpt lat="44.303256664214366" lon="11.243986527086621"><ele>181.0</ele><time>2026-04-09T16:04:34.999Z</time></trkpt><trkpt lat="44.303511072345614" lon="11.244255626626193"><ele>181.0</ele><time>2026-04-09T16:04:35.999Z</time></trkpt><trkpt lat="44.30377389994923" lon="11.244526973125277"><ele>181.0</ele><time>2026-04-09T16:04:36.999Z</time></trkpt><trkpt lat="44.30402851231547" lon="11.244786038547094"><ele>178.0</ele><time>2026-04-09T16:04:37.999Z</time></trkpt><trkpt lat="44.30429207268595" lon="11.24505423689137"><ele>175.0</ele><time>2026-04-09T16:04:38.999Z</time></trkpt><trkpt lat="44.30455538156739" lon="11.245325563787803"><ele>173.5</ele><time>2026-04-09T16:04:39.999Z</time></trkpt><trkpt lat="44.30481558131795" lon="11.245599880149362"><ele>172.0</ele><time>2026-04-09T16:04:40.999Z</time></trkpt><trkpt lat="44.305075293772425" lon="11.245875127586778"><ele>172.0</ele><time>2026-04-09T16:04:41.999Z</time></trkpt><trkpt lat="44.30533304675615" lon="11.246154529053369"><ele>172.0</ele><time>2026-04-09T16:04:42.999Z</time></trkpt><trkpt lat="44.30558754648428" lon="11.24643929416249"><ele>172.5</ele><time>2026-04-09T16:04:43.999Z</time></trkpt><trkpt lat="44.30584478946542" lon="11.246720490919673"><ele>173.0</ele><time>2026-04-09T16:04:44.999Z</time></trkpt><trkpt lat="44.306103464830436" lon="11.24700181025506"><ele>173.0</ele><time>2026-04-09T16:04:45.999Z</time></trkpt><trkpt lat="44.30636089187514" lon="11.247282417193542"><ele>173.0</ele><time>2026-04-09T16:04:46.999Z</time></trkpt><trkpt lat="44.30661591568648" lon="11.247563064579694"><ele>173.0</ele><time>2026-04-09T16:04:47.999Z</time></trkpt><trkpt lat="44.30687046714922" lon="11.247843483483525"><ele>173.0</ele><time>2026-04-09T16:04:48.999Z</time></trkpt><trkpt lat="44.30712849884836" lon="11.248120951133862"><ele>182.0</ele><time>2026-04-09T16:04:49.999Z</time></trkpt><trkpt lat="44.30738567997606" lon="11.248398010586296"><ele>191.0</ele><time>2026-04-09T16:04:50.999Z</time></trkpt><trkpt lat="44.30764414902372" lon="11.248665255705388"><ele>191.0</ele><time>2026-04-09T16:04:51.999Z</time></trkpt><trkpt lat="44.307913114331676" lon="11.248910826807286"><ele>191.0</ele><time>2026-04-09T16:04:52.999Z</time></trkpt><trkpt lat="44.308189500711315" lon="11.24913647581942"><ele>197.5</ele><time>2026-04-09T16:04:53.999Z</time></trkpt><trkpt lat="44.30846970034437" lon="11.249360456496369"><ele>204.0</ele><time>2026-04-09T16:04:55.015Z</time></trkpt><trkpt lat="44.30874434662023" lon="11.249577151502653"><ele>200.0</ele><time>2026-04-09T16:04:56.016Z</time></trkpt><trkpt lat="44.309014559705204" lon="11.249801092429031"><ele>196.0</ele><time>2026-04-09T16:04:57.018Z</time></trkpt><trkpt lat="44.30928439658651" lon="11.250017055780104"><ele>196.0</ele><time>2026-04-09T16:04:58.015Z</time></trkpt><trkpt lat="44.3095548842532" lon="11.250222401726903"><ele>196.0</ele><time>2026-04-09T16:04:58.999Z</time></trkpt><trkpt lat="44.30990218608066" lon="11.25024648705058"><ele>197.5</ele><time>2026-04-09T16:04:59.999Z</time></trkpt><trkpt lat="44.31018924168794" lon="11.250390102744621"><ele>199.0</ele><time>2026-04-09T16:05:00.999Z</time></trkpt><trkpt lat="44.31047944429548" lon="11.250516816394496"><ele>195.0</ele><time>2026-04-09T16:05:01.999Z</time></trkpt><trkpt lat="44.31077683693495" lon="11.250609153910693"><ele>191.0</ele><time>2026-04-09T16:05:02.999Z</time></trkpt><trkpt lat="44.31108114843009" lon="11.25068003570993"><ele>184.0</ele><time>2026-04-09T16:05:03.999Z</time></trkpt><trkpt lat="44.311388431707755" lon="11.250729488131425"><ele>177.0</ele><time>2026-04-09T16:05:04.999Z</time></trkpt><trkpt lat="44.31169573899388" lon="11.250772309803477"><ele>177.0</ele><time>2026-04-09T16:05:05.999Z</time></trkpt><trkpt lat="44.31200148597361" lon="11.250799060017513"><ele>177.0</ele><time>2026-04-09T16:05:06.999Z</time></trkpt><trkpt lat="44.312312110213654" lon="11.250815377622802"><ele>187.5</ele><time>2026-04-09T16:05:07.999Z</time></trkpt><trkpt lat="44.31262588759941" lon="11.250821552548143"><ele>198.0</ele><time>2026-04-09T16:05:08.999Z</time></trkpt><trkpt lat="44.31293053007082" lon="11.25085085295297"><ele>211.5</ele><time>2026-04-09T16:05:09.999Z</time></trkpt><trkpt lat="44.313236406664934" lon="11.250876139331636"><ele>225.0</ele><time>2026-04-09T16:05:10.999Z</time></trkpt><trkpt lat="44.31354665294665" lon="11.250904029782262"><ele>225.0</ele><time>2026-04-09T16:05:12.022Z</time></trkpt><trkpt lat="44.31384817946588" lon="11.250935311916859"><ele>225.0</ele><time>2026-04-09T16:05:13.015Z</time></trkpt><trkpt lat="44.3141529277059" lon="11.250960740425752"><ele>231.5</ele><time>2026-04-09T16:05:14.015Z</time></trkpt><trkpt lat="44.31445747974381" lon="11.2509404585132"><ele>238.0</ele><time>2026-04-09T16:05:15.015Z</time></trkpt><trkpt lat="44.31476309131302" lon="11.250939048394047"><ele>240.0</ele><time>2026-04-09T16:05:16.019Z</time></trkpt><trkpt lat="44.31507703996325" lon="11.250946514781344"><ele>242.0</ele><time>2026-04-09T16:05:17.021Z</time></trkpt><trkpt lat="44.3159879" lon="11.2509255"><ele>179.0</ele><time>2026-04-09T16:05:20.341Z</time></trkpt><trkpt lat="44.32266917549476" lon="11.254475936304082"><ele>179.0</ele><time>2026-04-09T16:05:42.999Z</time></trkpt><trkpt lat="44.322951770382915" lon="11.254656242122516"><ele>179.0</ele><time>2026-04-09T16:05:43.999Z</time></trkpt><trkpt lat="44.323209782146236" lon="11.254822138163014"><ele>173.0</ele><time>2026-04-09T16:05:44.999Z</time></trkpt><trkpt lat="44.32348526043967" lon="11.254986023069602"><ele>167.0</ele><time>2026-04-09T16:05:45.999Z</time></trkpt><trkpt lat="44.323760730054076" lon="11.25514129586053"><ele>177.0</ele><time>2026-04-09T16:05:46.998Z</time></trkpt><trkpt lat="44.32404289932267" lon="11.255290381346436"><ele>187.0</ele><time>2026-04-09T16:05:47.998Z</time></trkpt><trkpt lat="44.324327979207496" lon="11.255422181145029"><ele>187.0</ele><time>2026-04-09T16:05:49Z</time></trkpt><trkpt lat="44.32460711899158" lon="11.255567326294981"><ele>187.0</ele><time>2026-04-09T16:05:50Z</time></trkpt><trkpt lat="44.324889723357316" lon="11.255721537537854"><ele>139.0</ele><time>2026-04-09T16:05:51.015Z</time></trkpt><trkpt lat="44.337681625079675" lon="11.265771053741933"><ele>139.0</ele><time>2026-04-09T16:06:39Z</time></trkpt><trkpt lat="44.337921216264576" lon="11.26604161352709"><ele>139.0</ele><time>2026-04-09T16:06:40Z</time></trkpt><trkpt lat="44.33817711554457" lon="11.266296867926814"><ele>136.5</ele><time>2026-04-09T16:06:41Z</time></trkpt><trkpt lat="44.33843084790764" lon="11.266539147297307"><ele>134.0</ele><time>2026-04-09T16:06:42Z</time></trkpt><trkpt lat="44.33867791095189" lon="11.266772467283188"><ele>135.5</ele><time>2026-04-09T16:06:43Z</time></trkpt><trkpt lat="44.338931222005044" lon="11.266999983107194"><ele>137.0</ele><time>2026-04-09T16:06:44Z</time></trkpt><trkpt lat="44.33919425021948" lon="11.26721384021942"><ele>137.0</ele><time>2026-04-09T16:06:45Z</time></trkpt><trkpt lat="44.339464420490536" lon="11.267413833982246"><ele>137.0</ele><time>2026-04-09T16:06:46Z</time></trkpt><trkpt lat="44.33973881481122" lon="11.267589772162248"><ele>136.0</ele><time>2026-04-09T16:06:46.999Z</time></trkpt><trkpt lat="44.340023761738166" lon="11.26775498394033"><ele>135.0</ele><time>2026-04-09T16:06:47.999Z</time></trkpt><trkpt lat="44.340315745531576" lon="11.267911664833292"><ele>134.5</ele><time>2026-04-09T16:06:48.999Z</time></trkpt><trkpt lat="44.34061274909511" lon="11.26804769343155"><ele>134.0</ele><time>2026-04-09T16:06:49.999Z</time></trkpt><trkpt lat="44.340908575098396" lon="11.268167057593729"><ele>134.0</ele><time>2026-04-09T16:06:50.999Z</time></trkpt><trkpt lat="44.341212255429" lon="11.268262782224637"><ele>134.0</ele><time>2026-04-09T16:06:51.999Z</time></trkpt><trkpt lat="44.341520149249604" lon="11.268345854120794"><ele>132.5</ele><time>2026-04-09T16:06:52.999Z</time></trkpt><trkpt lat="44.3418284606559" lon="11.26840422288161"><ele>131.0</ele><time>2026-04-09T16:06:53.999Z</time></trkpt><trkpt lat="44.34213712222244" lon="11.268440698528066"><ele>131.0</ele><time>2026-04-09T16:06:54.999Z</time></trkpt><trkpt lat="44.34244396510732" lon="11.268463693319712"><ele>131.0</ele><time>2026-04-09T16:06:55.999Z</time></trkpt><trkpt lat="44.342751730912255" lon="11.268474302099966"><ele>130.5</ele><time>2026-04-09T16:06:56.999Z</time></trkpt><trkpt lat="44.34306246067727" lon="11.268472221425629"><ele>130.0</ele><time>2026-04-09T16:06:57.999Z</time></trkpt><trkpt lat="44.34336854765137" lon="11.26844772256477"><ele>130.0</ele><time>2026-04-09T16:06:58.999Z</time></trkpt><trkpt lat="44.343675992844176" lon="11.268401977995106"><ele>130.0</ele><time>2026-04-09T16:06:59.999Z</time></trkpt><trkpt lat="44.343980951995" lon="11.268332046308867"><ele>130.0</ele><time>2026-04-09T16:07:00.999Z</time></trkpt><trkpt lat="44.344284444582975" lon="11.268247397640724"><ele>130.0</ele><time>2026-04-09T16:07:01.999Z</time></trkpt><trkpt lat="44.344587796609154" lon="11.268151721239256"><ele>128.5</ele><time>2026-04-09T16:07:02.999Z</time></trkpt><trkpt lat="44.344888149319125" lon="11.268043062726912"><ele>127.0</ele><time>2026-04-09T16:07:03.999Z</time></trkpt><trkpt lat="44.345187314107946" lon="11.26792621863201"><ele>127.0</ele><time>2026-04-09T16:07:04.999Z</time></trkpt><trkpt lat="44.345483548369586" lon="11.267803493159077"><ele>127.0</ele><time>2026-04-09T16:07:05.999Z</time></trkpt><trkpt lat="44.345780900360225" lon="11.267674290138244"><ele>128.0</ele><time>2026-04-09T16:07:06.999Z</time></trkpt><trkpt lat="44.346075492413085" lon="11.26754246609842"><ele>129.0</ele><time>2026-04-09T16:07:07.999Z</time></trkpt><trkpt lat="44.346371724800704" lon="11.267412772816888"><ele>128.5</ele><time>2026-04-09T16:07:08.999Z</time></trkpt><trkpt lat="44.34666985130423" lon="11.267284548765913"><ele>128.0</ele><time>2026-04-09T16:07:09.999Z</time></trkpt><trkpt lat="44.34696678352364" lon="11.26715428230216"><ele>126.5</ele><time>2026-04-09T16:07:10.999Z</time></trkpt><trkpt lat="44.34724989137228" lon="11.267029053994415"><ele>125.0</ele><time>2026-04-09T16:07:11.999Z</time></trkpt><trkpt lat="44.347514272070825" lon="11.266915448119219"><ele>125.0</ele><time>2026-04-09T16:07:12.999Z</time></trkpt><trkpt lat="44.34775955250175" lon="11.266806237881656"><ele>125.0</ele><time>2026-04-09T16:07:13.999Z</time></trkpt><trkpt lat="44.34800285967998" lon="11.266697851934397"><ele>126.5</ele><time>2026-04-09T16:07:14.999Z</time></trkpt><trkpt lat="44.34824564262166" lon="11.26658847169219"><ele>128.0</ele><time>2026-04-09T16:07:15.999Z</time></trkpt><trkpt lat="44.34848775786158" lon="11.266476199092272"><ele>128.0</ele><time>2026-04-09T16:07:16.999Z</time></trkpt><trkpt lat="44.348730967268594" lon="11.266364523740227"><ele>128.0</ele><time>2026-04-09T16:07:17.999Z</time></trkpt><trkpt lat="44.34897492658405" lon="11.266253228027391"><ele>128.0</ele><time>2026-04-09T16:07:18.999Z</time></trkpt><trkpt lat="44.349220701754916" lon="11.266143902369729"><ele>128.0</ele><time>2026-04-09T16:07:19.999Z</time></trkpt><trkpt lat="44.349470134546664" lon="11.266033343263741"><ele>127.0</ele><time>2026-04-09T16:07:20.999Z</time></trkpt><trkpt lat="44.349721009172505" lon="11.265920197391987"><ele>126.0</ele><time>2026-04-09T16:07:21.999Z</time></trkpt><trkpt lat="44.34997396900309" lon="11.265806756122329"><ele>126.0</ele><time>2026-04-09T16:07:22.999Z</time></trkpt><trkpt lat="44.35022702379007" lon="11.265695151982037"><ele>126.0</ele><time>2026-04-09T16:07:23.999Z</time></trkpt><trkpt lat="44.350481488230365" lon="11.265582797355227"><ele>124.5</ele><time>2026-04-09T16:07:24.999Z</time></trkpt><trkpt lat="44.350735829743655" lon="11.26547035751236"><ele>123.0</ele><time>2026-04-09T16:07:25.999Z</time></trkpt><trkpt lat="44.35099217076938" lon="11.265357481174357"><ele>123.0</ele><time>2026-04-09T16:07:26.999Z</time></trkpt><trkpt lat="44.35124695053493" lon="11.265242558749822"><ele>123.0</ele><time>2026-04-09T16:07:27.999Z</time></trkpt><trkpt lat="44.35150095287469" lon="11.265127847945044"><ele>123.5</ele><time>2026-04-09T16:07:28.999Z</time></trkpt><trkpt lat="44.35174979379311" lon="11.265014707249371"><ele>124.0</ele><time>2026-04-09T16:07:29.999Z</time></trkpt><trkpt lat="44.35199689606461" lon="11.264899165151737"><ele>123.5</ele><time>2026-04-09T16:07:30.999Z</time></trkpt><trkpt lat="44.352239300910725" lon="11.264790487974608"><ele>123.0</ele><time>2026-04-09T16:07:31.999Z</time></trkpt><trkpt lat="44.35247966591737" lon="11.26468423440828"><ele>122.5</ele><time>2026-04-09T16:07:32.999Z</time></trkpt><trkpt lat="44.35271643600506" lon="11.264582591993944"><ele>122.0</ele><time>2026-04-09T16:07:33.999Z</time></trkpt><trkpt lat="44.35295123506888" lon="11.264482169805182"><ele>121.5</ele><time>2026-04-09T16:07:34.999Z</time></trkpt><trkpt lat="44.35318216490695" lon="11.26438048832524"><ele>121.0</ele><time>2026-04-09T16:07:35.999Z</time></trkpt><trkpt lat="44.35341353747015" lon="11.264275023391132"><ele>121.0</ele><time>2026-04-09T16:07:36.999Z</time></trkpt><trkpt lat="44.35364433387223" lon="11.264171552780473"><ele>121.0</ele><time>2026-04-09T16:07:37.999Z</time></trkpt><trkpt lat="44.3538767826644" lon="11.264068867192043"><ele>120.5</ele><time>2026-04-09T16:07:38.999Z</time></trkpt><trkpt lat="44.35410805599481" lon="11.263966918419182"><ele>120.0</ele><time>2026-04-09T16:07:39.999Z</time></trkpt><trkpt lat="44.35433953898324" lon="11.263864653232224"><ele>120.0</ele><time>2026-04-09T16:07:40.999Z</time></trkpt><trkpt lat="44.354574678978935" lon="11.263757044570795"><ele>120.0</ele><time>2026-04-09T16:07:41.999Z</time></trkpt><trkpt lat="44.35481044491043" lon="11.26365211114355"><ele>118.5</ele><time>2026-04-09T16:07:42.999Z</time></trkpt><trkpt lat="44.35504787075802" lon="11.263545514110039"><ele>117.0</ele><time>2026-04-09T16:07:43.999Z</time></trkpt><trkpt lat="44.35529003811961" lon="11.263434964604059"><ele>118.0</ele><time>2026-04-09T16:07:44.999Z</time></trkpt><trkpt lat="44.35553852527291" lon="11.263325215232816"><ele>119.0</ele><time>2026-04-09T16:07:45.999Z</time></trkpt><trkpt lat="44.35579339868051" lon="11.263212885297655"><ele>119.0</ele><time>2026-04-09T16:07:46.999Z</time></trkpt><trkpt lat="44.35605241641764" lon="11.263095720484108"><ele>119.0</ele><time>2026-04-09T16:07:47.999Z</time></trkpt><trkpt lat="44.35631094294314" lon="11.26297883276494"><ele>118.5</ele><time>2026-04-09T16:07:48.999Z</time></trkpt><trkpt lat="44.35657551832462" lon="11.262863440745571"><ele>118.0</ele><time>2026-04-09T16:07:49.999Z</time></trkpt><trkpt lat="44.356838443887135" lon="11.26274900482405"><ele>118.0</ele><time>2026-04-09T16:07:50.999Z</time></trkpt><trkpt lat="44.35709989691516" lon="11.262634572356344"><ele>118.0</ele><time>2026-04-09T16:07:51.999Z</time></trkpt><trkpt lat="44.35736281096681" lon="11.262518260110188"><ele>117.5</ele><time>2026-04-09T16:07:52.999Z</time></trkpt><trkpt lat="44.357629157016376" lon="11.262399983752232"><ele>117.0</ele><time>2026-04-09T16:07:53.999Z</time></trkpt><trkpt lat="44.35789357654194" lon="11.262280545291683"><ele>117.0</ele><time>2026-04-09T16:07:55Z</time></trkpt><trkpt lat="44.3581535667667" lon="11.262161822613818"><ele>117.0</ele><time>2026-04-09T16:07:56Z</time></trkpt><trkpt lat="44.3584127904582" lon="11.262043437201418"><ele>117.0</ele><time>2026-04-09T16:07:57Z</time></trkpt><trkpt lat="44.35867137480916" lon="11.261924545756198"><ele>117.0</ele><time>2026-04-09T16:07:58Z</time></trkpt><trkpt lat="44.3589309017637" lon="11.261811702759527"><ele>116.5</ele><time>2026-04-09T16:07:59Z</time></trkpt><trkpt lat="44.35918154327199" lon="11.26170662953846"><ele>116.0</ele><time>2026-04-09T16:08:00Z</time></trkpt><trkpt lat="44.35942027875908" lon="11.261602512909798"><ele>116.0</ele><time>2026-04-09T16:08:01Z</time></trkpt><trkpt lat="44.35965389610318" lon="11.261498665196163"><ele>116.0</ele><time>2026-04-09T16:08:02Z</time></trkpt><trkpt lat="44.35988448011476" lon="11.261394036832538"><ele>117.0</ele><time>2026-04-09T16:08:03Z</time></trkpt><trkpt lat="44.36011243017465" lon="11.261291351377123"><ele>118.0</ele><time>2026-04-09T16:08:04Z</time></trkpt><trkpt lat="44.360345024978685" lon="11.261187800959469"><ele>116.5</ele><time>2026-04-09T16:08:05Z</time></trkpt><trkpt lat="44.360573391426655" lon="11.261091088766024"><ele>115.0</ele><time>2026-04-09T16:08:06Z</time></trkpt><trkpt lat="44.36080558023028" lon="11.260992833061133"><ele>115.0</ele><time>2026-04-09T16:08:07Z</time></trkpt><trkpt lat="44.361038513642306" lon="11.260892088147822"><ele>115.0</ele><time>2026-04-09T16:08:08Z</time></trkpt><trkpt lat="44.36127940643561" lon="11.260783807169263"><ele>114.0</ele><time>2026-04-09T16:08:09Z</time></trkpt><trkpt lat="44.361509652515565" lon="11.260673142786436"><ele>113.0</ele><time>2026-04-09T16:08:10Z</time></trkpt><trkpt lat="44.36175991905647" lon="11.260558558155962"><ele>113.0</ele><time>2026-04-09T16:08:11Z</time></trkpt><trkpt lat="44.36202065996615" lon="11.260437950366654"><ele>113.0</ele><time>2026-04-09T16:08:12Z</time></trkpt><trkpt lat="44.36229702302082" lon="11.260309426810291"><ele>111.5</ele><time>2026-04-09T16:08:13Z</time></trkpt><trkpt lat="44.3625834088762" lon="11.260178478171564"><ele>110.0</ele><time>2026-04-09T16:08:14Z</time></trkpt><trkpt lat="44.36287654032625" lon="11.26004873932848"><ele>112.0</ele><time>2026-04-09T16:08:15Z</time></trkpt><trkpt lat="44.363172952317754" lon="11.259923202001454"><ele>114.0</ele><time>2026-04-09T16:08:16Z</time></trkpt><trkpt lat="44.36346593897439" lon="11.25979346983578"><ele>113.5</ele><time>2026-04-09T16:08:17Z</time></trkpt><trkpt lat="44.36375622129926" lon="11.259665819149937"><ele>113.0</ele><time>2026-04-09T16:08:18Z</time></trkpt><trkpt lat="44.36404792876687" lon="11.259535550648035"><ele>112.5</ele><time>2026-04-09T16:08:19Z</time></trkpt><trkpt lat="44.36433673066058" lon="11.259404104827828"><ele>112.0</ele><time>2026-04-09T16:08:20Z</time></trkpt><trkpt lat="44.364624665281895" lon="11.259270775627284"><ele>111.5</ele><time>2026-04-09T16:08:21Z</time></trkpt><trkpt lat="44.364912925260136" lon="11.259143014370105"><ele>111.0</ele><time>2026-04-09T16:08:22Z</time></trkpt><trkpt lat="44.36520593810118" lon="11.259020731194896"><ele>111.0</ele><time>2026-04-09T16:08:23Z</time></trkpt><trkpt lat="44.36549675818323" lon="11.258901580971392"><ele>111.0</ele><time>2026-04-09T16:08:24Z</time></trkpt><trkpt lat="44.365788647542225" lon="11.258788790674101"><ele>111.0</ele><time>2026-04-09T16:08:25Z</time></trkpt><trkpt lat="44.36608095267174" lon="11.258679643633554"><ele>111.0</ele><time>2026-04-09T16:08:26Z</time></trkpt><trkpt lat="44.36637359894206" lon="11.258570793280581"><ele>111.0</ele><time>2026-04-09T16:08:27Z</time></trkpt><trkpt lat="44.36666840556482" lon="11.25847416985492"><ele>111.0</ele><time>2026-04-09T16:08:28Z</time></trkpt><trkpt lat="44.36696661475609" lon="11.25838198089144"><ele>111.5</ele><time>2026-04-09T16:08:29Z</time></trkpt><trkpt lat="44.36726586108327" lon="11.258295382638803"><ele>112.0</ele><time>2026-04-09T16:08:30Z</time></trkpt><trkpt lat="44.36756309681382" lon="11.25821621538613"><ele>112.0</ele><time>2026-04-09T16:08:31Z</time></trkpt><trkpt lat="44.36786375050667" lon="11.258140763356016"><ele>112.0</ele><time>2026-04-09T16:08:32Z</time></trkpt><trkpt lat="44.368166328657274" lon="11.258068779367699"><ele>111.0</ele><time>2026-04-09T16:08:33Z</time></trkpt><trkpt lat="44.36847106728107" lon="11.258008829556301"><ele>110.0</ele><time>2026-04-09T16:08:34Z</time></trkpt><trkpt lat="44.368774243948224" lon="11.25795004927471"><ele>112.0</ele><time>2026-04-09T16:08:35Z</time></trkpt><trkpt lat="44.36907522906823" lon="11.257894696099259"><ele>114.0</ele><time>2026-04-09T16:08:36Z</time></trkpt><trkpt lat="44.36937752574178" lon="11.257851285215335"><ele>114.0</ele><time>2026-04-09T16:08:37Z</time></trkpt><trkpt lat="44.36968200131665" lon="11.257819908985068"><ele>114.0</ele><time>2026-04-09T16:08:38Z</time></trkpt><trkpt lat="44.36998790225098" lon="11.257793875140864"><ele>117.5</ele><time>2026-04-09T16:08:39Z</time></trkpt><trkpt lat="44.370289145601646" lon="11.257770556093652"><ele>121.0</ele><time>2026-04-09T16:08:40Z</time></trkpt><trkpt lat="44.37057299297177" lon="11.257756078084613"><ele>131.0</ele><time>2026-04-09T16:08:41Z</time></trkpt><trkpt lat="44.37085152331989" lon="11.257744749877574"><ele>141.0</ele><time>2026-04-09T16:08:42Z</time></trkpt><trkpt lat="44.371137590863164" lon="11.257730464156497"><ele>145.0</ele><time>2026-04-09T16:08:43.023Z</time></trkpt><trkpt lat="44.371418885761386" lon="11.257720937377009"><ele>149.0</ele><time>2026-04-09T16:08:44.023Z</time></trkpt><trkpt lat="44.371698877058336" lon="11.2577074983631"><ele>149.0</ele><time>2026-04-09T16:08:45.016Z</time></trkpt><trkpt lat="44.371975660850914" lon="11.257696139484793"><ele>149.0</ele><time>2026-04-09T16:08:46.016Z</time></trkpt><trkpt lat="44.37225197662005" lon="11.257684621630354"><ele>110.0</ele><time>2026-04-09T16:08:47.022Z</time></trkpt><trkpt lat="44.39069464806876" lon="11.259753853093143"><ele>110.0</ele><time>2026-04-09T16:09:58.999Z</time></trkpt><trkpt lat="44.39094042905714" lon="11.259692207891291"><ele>110.0</ele><time>2026-04-09T16:09:59.999Z</time></trkpt><trkpt lat="44.391174165572146" lon="11.2596172566943"><ele>107.0</ele><time>2026-04-09T16:10:00.999Z</time></trkpt><trkpt lat="44.39141416771745" lon="11.259558661727722"><ele>104.0</ele><time>2026-04-09T16:10:01.999Z</time></trkpt><trkpt lat="44.39165365565178" lon="11.259501606477453"><ele>104.0</ele><time>2026-04-09T16:10:02.999Z</time></trkpt><trkpt lat="44.391892621417846" lon="11.25944762712255"><ele>104.0</ele><time>2026-04-09T16:10:03.999Z</time></trkpt><trkpt lat="44.39213227459182" lon="11.259399433946252"><ele>101.5</ele><time>2026-04-09T16:10:05Z</time></trkpt><trkpt lat="44.39237283559054" lon="11.259354676816894"><ele>99.0</ele><time>2026-04-09T16:10:06Z</time></trkpt><trkpt lat="44.39261524529977" lon="11.259316253403709"><ele>99.0</ele><time>2026-04-09T16:10:07Z</time></trkpt><trkpt lat="44.392855039145346" lon="11.259276007860457"><ele>99.0</ele><time>2026-04-09T16:10:08Z</time></trkpt><trkpt lat="44.3930980428739" lon="11.25924419844047"><ele>93.5</ele><time>2026-04-09T16:10:09Z</time></trkpt><trkpt lat="44.39334300969517" lon="11.259219176587111"><ele>88.0</ele><time>2026-04-09T16:10:10Z</time></trkpt><trkpt lat="44.39358979807903" lon="11.259208948595987"><ele>88.0</ele><time>2026-04-09T16:10:11Z</time></trkpt><trkpt lat="44.3938352408424" lon="11.259199197625804"><ele>88.0</ele><time>2026-04-09T16:10:12Z</time></trkpt><trkpt lat="44.39407792186865" lon="11.259193776103853"><ele>87.5</ele><time>2026-04-09T16:10:13Z</time></trkpt><trkpt lat="44.39432437420724" lon="11.259193155787104"><ele>87.0</ele><time>2026-04-09T16:10:14Z</time></trkpt><trkpt lat="44.39456867610771" lon="11.259205451170248"><ele>90.0</ele><time>2026-04-09T16:10:15Z</time></trkpt><trkpt lat="44.394811129870575" lon="11.259220246747336"><ele>93.0</ele><time>2026-04-09T16:10:16Z</time></trkpt><trkpt lat="44.39505790779694" lon="11.259247862279306"><ele>93.0</ele><time>2026-04-09T16:10:17Z</time></trkpt><trkpt lat="44.39530261570398" lon="11.259282714359799"><ele>93.0</ele><time>2026-04-09T16:10:18Z</time></trkpt><trkpt lat="44.395545356096605" lon="11.259322529629248"><ele>93.5</ele><time>2026-04-09T16:10:19Z</time></trkpt><trkpt lat="44.39579094131414" lon="11.259368815860602"><ele>94.0</ele><time>2026-04-09T16:10:20Z</time></trkpt><trkpt lat="44.396036027378116" lon="11.259422025363962"><ele>94.0</ele><time>2026-04-09T16:10:21Z</time></trkpt><trkpt lat="44.39628282169092" lon="11.259483944329622"><ele>94.0</ele><time>2026-04-09T16:10:22Z</time></trkpt><trkpt lat="44.396525365996965" lon="11.259552670239161"><ele>92.5</ele><time>2026-04-09T16:10:23Z</time></trkpt><trkpt lat="44.396767626306264" lon="11.259628351588775"><ele>91.0</ele><time>2026-04-09T16:10:24Z</time></trkpt><trkpt lat="44.39700796347251" lon="11.25971003443137"><ele>92.0</ele><time>2026-04-09T16:10:25Z</time></trkpt><trkpt lat="44.39724697509891" lon="11.259795204715177"><ele>93.0</ele><time>2026-04-09T16:10:26Z</time></trkpt><trkpt lat="44.39748342128737" lon="11.259885768255012"><ele>93.0</ele><time>2026-04-09T16:10:27Z</time></trkpt><trkpt lat="44.39771812380221" lon="11.259984295680672"><ele>93.0</ele><time>2026-04-09T16:10:28Z</time></trkpt><trkpt lat="44.39794961725821" lon="11.260086489594757"><ele>95.0</ele><time>2026-04-09T16:10:29Z</time></trkpt><trkpt lat="44.398180954354636" lon="11.260203120368383"><ele>97.0</ele><time>2026-04-09T16:10:30Z</time></trkpt><trkpt lat="44.39840841778927" lon="11.260322403387669"><ele>97.0</ele><time>2026-04-09T16:10:31Z</time></trkpt><trkpt lat="44.39863842849984" lon="11.260450760453706"><ele>97.0</ele><time>2026-04-09T16:10:32Z</time></trkpt><trkpt lat="44.39887062344407" lon="11.26058552437634"><ele>99.0</ele><time>2026-04-09T16:10:33Z</time></trkpt><trkpt lat="44.399103948241155" lon="11.260727576989861"><ele>101.0</ele><time>2026-04-09T16:10:34Z</time></trkpt><trkpt lat="44.399335967682745" lon="11.260877638230562"><ele>101.0</ele><time>2026-04-09T16:10:35Z</time></trkpt><trkpt lat="44.39956559540638" lon="11.261037194106214"><ele>101.0</ele><time>2026-04-09T16:10:36Z</time></trkpt><trkpt lat="44.39979575271997" lon="11.261205153117508"><ele>100.5</ele><time>2026-04-09T16:10:37Z</time></trkpt><trkpt lat="44.40002756711054" lon="11.261381872407464"><ele>100.0</ele><time>2026-04-09T16:10:38Z</time></trkpt><trkpt lat="44.40025512459373" lon="11.261566399449949"><ele>100.5</ele><time>2026-04-09T16:10:39Z</time></trkpt><trkpt lat="44.40048296966454" lon="11.261754060734145"><ele>101.0</ele><time>2026-04-09T16:10:40Z</time></trkpt><trkpt lat="44.40070837521799" lon="11.261946677160394"><ele>101.0</ele><time>2026-04-09T16:10:41Z</time></trkpt><trkpt lat="44.40093329547519" lon="11.262139868907434"><ele>101.0</ele><time>2026-04-09T16:10:42Z</time></trkpt><trkpt lat="44.40116095850783" lon="11.262330077948967"><ele>100.0</ele><time>2026-04-09T16:10:43Z</time></trkpt><trkpt lat="44.40138959155986" lon="11.262515792833481"><ele>99.0</ele><time>2026-04-09T16:10:44Z</time></trkpt><trkpt lat="44.40161932758489" lon="11.26270100462031"><ele>99.0</ele><time>2026-04-09T16:10:45Z</time></trkpt><trkpt lat="44.401849208324336" lon="11.262887199894928"><ele>99.0</ele><time>2026-04-09T16:10:46Z</time></trkpt><trkpt lat="44.40208272549412" lon="11.263067381538086"><ele>99.0</ele><time>2026-04-09T16:10:47Z</time></trkpt><trkpt lat="44.40232174588279" lon="11.26324238728652"><ele>99.0</ele><time>2026-04-09T16:10:48Z</time></trkpt><trkpt lat="44.402564242806164" lon="11.26340704157856"><ele>99.0</ele><time>2026-04-09T16:10:49Z</time></trkpt><trkpt lat="44.402809007309386" lon="11.26356269939006"><ele>99.0</ele><time>2026-04-09T16:10:50Z</time></trkpt><trkpt lat="44.403055544946" lon="11.263713254683735"><ele>99.0</ele><time>2026-04-09T16:10:51Z</time></trkpt><trkpt lat="44.40330570807131" lon="11.263850941561389"><ele>99.0</ele><time>2026-04-09T16:10:52Z</time></trkpt><trkpt lat="44.40355749410727" lon="11.263977517959441"><ele>99.0</ele><time>2026-04-09T16:10:53Z</time></trkpt><trkpt lat="44.40381276644459" lon="11.264091249682048"><ele>99.0</ele><time>2026-04-09T16:10:54Z</time></trkpt><trkpt lat="44.40407037311289" lon="11.264200618999752"><ele>100.0</ele><time>2026-04-09T16:10:55Z</time></trkpt><trkpt lat="44.404326772303286" lon="11.264302017330037"><ele>101.0</ele><time>2026-04-09T16:10:56Z</time></trkpt><trkpt lat="44.40458565742711" lon="11.26439764841897"><ele>100.5</ele><time>2026-04-09T16:10:57Z</time></trkpt><trkpt lat="44.40484156080336" lon="11.264488050797498"><ele>100.0</ele><time>2026-04-09T16:10:58Z</time></trkpt><trkpt lat="44.40510351956716" lon="11.264573493558277"><ele>100.0</ele><time>2026-04-09T16:10:59Z</time></trkpt><trkpt lat="44.40536286788526" lon="11.264662549143782"><ele>100.0</ele><time>2026-04-09T16:11:00Z</time></trkpt><trkpt lat="44.405617911269836" lon="11.264751040992712"><ele>98.5</ele><time>2026-04-09T16:11:01Z</time></trkpt><trkpt lat="44.40587645142746" lon="11.264840421223573"><ele>97.0</ele><time>2026-04-09T16:11:02Z</time></trkpt><trkpt lat="44.406134275319985" lon="11.264931392389242"><ele>97.5</ele><time>2026-04-09T16:11:03Z</time></trkpt><trkpt lat="44.4063891451244" lon="11.265025716546626"><ele>98.0</ele><time>2026-04-09T16:11:04Z</time></trkpt><trkpt lat="44.40664900222676" lon="11.265116266050871"><ele>98.0</ele><time>2026-04-09T16:11:05Z</time></trkpt><trkpt lat="44.40690989855958" lon="11.265202161762891"><ele>98.0</ele><time>2026-04-09T16:11:05.999Z</time></trkpt><trkpt lat="44.40717179447017" lon="11.265291772830349"><ele>98.0</ele><time>2026-04-09T16:11:06.999Z</time></trkpt><trkpt lat="44.407431455650354" lon="11.265381753081945"><ele>98.0</ele><time>2026-04-09T16:11:07.999Z</time></trkpt><trkpt lat="44.40768705495873" lon="11.265471390129"><ele>98.0</ele><time>2026-04-09T16:11:08.999Z</time></trkpt><trkpt lat="44.40793875444116" lon="11.265558190033104"><ele>98.0</ele><time>2026-04-09T16:11:09.999Z</time></trkpt><trkpt lat="44.40818858274613" lon="11.265644028610721"><ele>97.5</ele><time>2026-04-09T16:11:10.999Z</time></trkpt><trkpt lat="44.40843498973242" lon="11.265729574972951"><ele>97.0</ele><time>2026-04-09T16:11:11.999Z</time></trkpt><trkpt lat="44.40868027311256" lon="11.265814486065329"><ele>99.0</ele><time>2026-04-09T16:11:12.999Z</time></trkpt><trkpt lat="44.408924026539594" lon="11.265895575449823"><ele>101.0</ele><time>2026-04-09T16:11:13.999Z</time></trkpt><trkpt lat="44.409165785568625" lon="11.265975659699805"><ele>101.0</ele><time>2026-04-09T16:11:14.999Z</time></trkpt><trkpt lat="44.40940286503066" lon="11.266055604433566"><ele>101.0</ele><time>2026-04-09T16:11:15.999Z</time></trkpt><trkpt lat="44.409638872438705" lon="11.26613367357218"><ele>101.5</ele><time>2026-04-09T16:11:16.999Z</time></trkpt><trkpt lat="44.409871813876386" lon="11.266214786376706"><ele>102.0</ele><time>2026-04-09T16:11:17.999Z</time></trkpt><trkpt lat="44.410101754685755" lon="11.266299338354628"><ele>102.0</ele><time>2026-04-09T16:11:18.999Z</time></trkpt><trkpt lat="44.41033059312976" lon="11.26638370205864"><ele>102.0</ele><time>2026-04-09T16:11:19.999Z</time></trkpt><trkpt lat="44.41056311231058" lon="11.266467557139851"><ele>101.5</ele><time>2026-04-09T16:11:20.999Z</time></trkpt><trkpt lat="44.41079146048234" lon="11.266550569682034"><ele>101.0</ele><time>2026-04-09T16:11:21.999Z</time></trkpt><trkpt lat="44.41102387758477" lon="11.266628060931795"><ele>101.0</ele><time>2026-04-09T16:11:22.999Z</time></trkpt><trkpt lat="44.41125815720738" lon="11.266708029574776"><ele>101.0</ele><time>2026-04-09T16:11:23.999Z</time></trkpt><trkpt lat="44.411490799799346" lon="11.26678697398106"><ele>100.0</ele><time>2026-04-09T16:11:24.999Z</time></trkpt><trkpt lat="44.41172719337846" lon="11.266863691894983"><ele>99.0</ele><time>2026-04-09T16:11:25.999Z</time></trkpt><trkpt lat="44.411957332188656" lon="11.26694323191827"><ele>99.0</ele><time>2026-04-09T16:11:26.999Z</time></trkpt><trkpt lat="44.41219330716376" lon="11.267023995228982"><ele>99.0</ele><time>2026-04-09T16:11:27.999Z</time></trkpt><trkpt lat="44.412423759652484" lon="11.267105097768289"><ele>99.0</ele><time>2026-04-09T16:11:28.999Z</time></trkpt><trkpt lat="44.412655823486176" lon="11.267184956888032"><ele>99.0</ele><time>2026-04-09T16:11:29.999Z</time></trkpt><trkpt lat="44.41288893393186" lon="11.26726619575889"><ele>97.0</ele><time>2026-04-09T16:11:30.999Z</time></trkpt><trkpt lat="44.41312196300332" lon="11.26734729816674"><ele>95.0</ele><time>2026-04-09T16:11:31.999Z</time></trkpt><trkpt lat="44.413349926562454" lon="11.267428364537496"><ele>95.0</ele><time>2026-04-09T16:11:32.999Z</time></trkpt><trkpt lat="44.41358071973439" lon="11.267507222709868"><ele>95.0</ele><time>2026-04-09T16:11:33.999Z</time></trkpt><trkpt lat="44.413814175964944" lon="11.267584192420383"><ele>93.5</ele><time>2026-04-09T16:11:34.999Z</time></trkpt><trkpt lat="44.414047158020566" lon="11.267661089728525"><ele>92.0</ele><time>2026-04-09T16:11:35.999Z</time></trkpt><trkpt lat="44.414278795615274" lon="11.267740296552066"><ele>92.0</ele><time>2026-04-09T16:11:36.999Z</time></trkpt><trkpt lat="44.414513112835174" lon="11.267822072080197"><ele>92.0</ele><time>2026-04-09T16:11:37.999Z</time></trkpt><trkpt lat="44.41474537924366" lon="11.267902312436947"><ele>93.5</ele><time>2026-04-09T16:11:38.999Z</time></trkpt><trkpt lat="44.41497372660814" lon="11.26798201731373"><ele>95.0</ele><time>2026-04-09T16:11:39.999Z</time></trkpt><trkpt lat="44.41519836869687" lon="11.268061493711967"><ele>93.66666666666667</ele><time>2026-04-09T16:11:40.999Z</time></trkpt><trkpt lat="44.41542006528948" lon="11.268135520216273"><ele>92.33333333333333</ele><time>2026-04-09T16:11:41.999Z</time></trkpt><trkpt lat="44.41563260015066" lon="11.268205557576493"><ele>91.0</ele><time>2026-04-09T16:11:42.999Z</time></trkpt><trkpt lat="44.41585134257015" lon="11.26827795675914"><ele>91.0</ele><time>2026-04-09T16:11:43.999Z</time></trkpt><trkpt lat="44.41606636492536" lon="11.268353508607376"><ele>91.0</ele><time>2026-04-09T16:11:44.999Z</time></trkpt><trkpt lat="44.416282843142184" lon="11.26843451343999"><ele>91.0</ele><time>2026-04-09T16:11:45.999Z</time></trkpt><trkpt lat="44.41649913691564" lon="11.268520442083192"><ele>93.0</ele><time>2026-04-09T16:11:46.999Z</time></trkpt><trkpt lat="44.416717779371346" lon="11.26861373513765"><ele>95.0</ele><time>2026-04-09T16:11:47.999Z</time></trkpt><trkpt lat="44.41693951859376" lon="11.268714558562568"><ele>94.5</ele><time>2026-04-09T16:11:48.999Z</time></trkpt><trkpt lat="44.417162016192904" lon="11.2688268323803"><ele>94.0</ele><time>2026-04-09T16:11:49.999Z</time></trkpt><trkpt lat="44.41738669653045" lon="11.268949157977987"><ele>92.5</ele><time>2026-04-09T16:11:50.999Z</time></trkpt><trkpt lat="44.4176150580337" lon="11.269079181141205"><ele>91.0</ele><time>2026-04-09T16:11:51.999Z</time></trkpt><trkpt lat="44.41784083335345" lon="11.2692070368998"><ele>91.5</ele><time>2026-04-09T16:11:52.999Z</time></trkpt><trkpt lat="44.41806398432436" lon="11.26933492221046"><ele>92.0</ele><time>2026-04-09T16:11:53.999Z</time></trkpt><trkpt lat="44.41827378759399" lon="11.26945308938258"><ele>92.0</ele><time>2026-04-09T16:11:54.999Z</time></trkpt><trkpt lat="44.4184855666728" lon="11.269571911630813"><ele>92.0</ele><time>2026-04-09T16:11:55.999Z</time></trkpt><trkpt lat="44.418696283940015" lon="11.26968841912409"><ele>91.0</ele><time>2026-04-09T16:11:56.999Z</time></trkpt><trkpt lat="44.418903182397536" lon="11.269805240346232"><ele>90.0</ele><time>2026-04-09T16:11:57.999Z</time></trkpt><trkpt lat="44.41911311831149" lon="11.26992418097155"><ele>90.0</ele><time>2026-04-09T16:11:58.999Z</time></trkpt><trkpt lat="44.41932196185305" lon="11.270039909158383"><ele>90.0</ele><time>2026-04-09T16:11:59.999Z</time></trkpt><trkpt lat="44.41953098150182" lon="11.270156693295105"><ele>89.5</ele><time>2026-04-09T16:12:00.999Z</time></trkpt><trkpt lat="44.4197448373654" lon="11.270279359535355"><ele>89.0</ele><time>2026-04-09T16:12:01.999Z</time></trkpt><trkpt lat="44.41995793839547" lon="11.270400136659509"><ele>89.0</ele><time>2026-04-09T16:12:02.999Z</time></trkpt><trkpt lat="44.42017355157037" lon="11.270520440671273"><ele>89.0</ele><time>2026-04-09T16:12:03.999Z</time></trkpt><trkpt lat="44.42038896543471" lon="11.270640873899646"><ele>89.0</ele><time>2026-04-09T16:12:04.999Z</time></trkpt><trkpt lat="44.42061014437559" lon="11.270765756426755"><ele>89.0</ele><time>2026-04-09T16:12:05.999Z</time></trkpt><trkpt lat="44.42083181282883" lon="11.2708922351422"><ele>89.0</ele><time>2026-04-09T16:12:06.999Z</time></trkpt><trkpt lat="44.42105631230709" lon="11.271019167877974"><ele>89.0</ele><time>2026-04-09T16:12:07.999Z</time></trkpt><trkpt lat="44.42128355037244" lon="11.271148142267938"><ele>89.5</ele><time>2026-04-09T16:12:08.999Z</time></trkpt><trkpt lat="44.421509981444295" lon="11.271273618713009"><ele>90.0</ele><time>2026-04-09T16:12:09.999Z</time></trkpt><trkpt lat="44.42173241524878" lon="11.271397191130724"><ele>90.0</ele><time>2026-04-09T16:12:11Z</time></trkpt><trkpt lat="44.421956396295336" lon="11.271525333526977"><ele>90.0</ele><time>2026-04-09T16:12:12Z</time></trkpt><trkpt lat="44.42217241514423" lon="11.27165034117591"><ele>90.0</ele><time>2026-04-09T16:12:13Z</time></trkpt><trkpt lat="44.4224104898327" lon="11.271794576962915"><ele>90.0</ele><time>2026-04-09T16:12:14Z</time></trkpt><trkpt lat="44.4226178854602" lon="11.271906116615337"><ele>90.0</ele><time>2026-04-09T16:12:15Z</time></trkpt><trkpt lat="44.42283765934904" lon="11.272028766686766"><ele>90.0</ele><time>2026-04-09T16:12:16Z</time></trkpt><trkpt lat="44.42305698445981" lon="11.272152485549721"><ele>87.5</ele><time>2026-04-09T16:12:17Z</time></trkpt><trkpt lat="44.423284661694886" lon="11.2722765984318"><ele>85.0</ele><time>2026-04-09T16:12:18Z</time></trkpt><trkpt lat="44.423527611924676" lon="11.272405955018655"><ele>85.0</ele><time>2026-04-09T16:12:19Z</time></trkpt><trkpt lat="44.42378838912281" lon="11.272531547004574"><ele>85.0</ele><time>2026-04-09T16:12:20Z</time></trkpt><trkpt lat="44.424065149241684" lon="11.272671163069834"><ele>84.5</ele><time>2026-04-09T16:12:21Z</time></trkpt><trkpt lat="44.424358737795295" lon="11.27283721228933"><ele>84.0</ele><time>2026-04-09T16:12:22Z</time></trkpt><trkpt lat="44.4246732918877" lon="11.273022942815535"><ele>84.5</ele><time>2026-04-09T16:12:23Z</time></trkpt><trkpt lat="44.424985534414354" lon="11.27320975277355"><ele>85.0</ele><time>2026-04-09T16:12:24Z</time></trkpt><trkpt lat="44.425295904608745" lon="11.273405026437347"><ele>85.0</ele><time>2026-04-09T16:12:25Z</time></trkpt><trkpt lat="44.42562799555639" lon="11.273620806132222"><ele>85.0</ele><time>2026-04-09T16:12:26Z</time></trkpt><trkpt lat="44.42596976715719" lon="11.2738382594511"><ele>83.0</ele><time>2026-04-09T16:12:27Z</time></trkpt><trkpt lat="44.42629875093107" lon="11.27404028358638"><ele>81.0</ele><time>2026-04-09T16:12:28Z</time></trkpt><trkpt lat="44.42661444254719" lon="11.274225851094792"><ele>80.0</ele><time>2026-04-09T16:12:29Z</time></trkpt><trkpt lat="44.426912774744444" lon="11.274405915910982"><ele>79.0</ele><time>2026-04-09T16:12:30Z</time></trkpt><trkpt lat="44.42720617508148" lon="11.274582918617988"><ele>79.0</ele><time>2026-04-09T16:12:31Z</time></trkpt><trkpt lat="44.42749192819499" lon="11.274756795018016"><ele>79.0</ele><time>2026-04-09T16:12:32Z</time></trkpt><trkpt lat="44.42777258230087" lon="11.274921314501691"><ele>76.5</ele><time>2026-04-09T16:12:33Z</time></trkpt><trkpt lat="44.42804309104024" lon="11.275074931269975"><ele>74.0</ele><time>2026-04-09T16:12:34Z</time></trkpt><trkpt lat="44.42831031921345" lon="11.27521563034341"><ele>74.0</ele><time>2026-04-09T16:12:35Z</time></trkpt><trkpt lat="44.42857472540845" lon="11.275347914342742"><ele>74.0</ele><time>2026-04-09T16:12:36Z</time></trkpt><trkpt lat="44.4288356415153" lon="11.27548002873848"><ele>74.0</ele><time>2026-04-09T16:12:37Z</time></trkpt><trkpt lat="44.429093863855215" lon="11.275601130752165"><ele>74.0</ele><time>2026-04-09T16:12:38Z</time></trkpt><trkpt lat="44.42935617377942" lon="11.275713723113453"><ele>74.0</ele><time>2026-04-09T16:12:39Z</time></trkpt><trkpt lat="44.429616760172095" lon="11.275812599405894"><ele>74.0</ele><time>2026-04-09T16:12:40Z</time></trkpt><trkpt lat="44.42987891586603" lon="11.27589966345874"><ele>74.5</ele><time>2026-04-09T16:12:41Z</time></trkpt><trkpt lat="44.4301529983177" lon="11.275977525921906"><ele>75.0</ele><time>2026-04-09T16:12:42Z</time></trkpt><trkpt lat="44.43043671070038" lon="11.27604881938726"><ele>75.5</ele><time>2026-04-09T16:12:43Z</time></trkpt><trkpt lat="44.430729936009726" lon="11.276121189107036"><ele>76.0</ele><time>2026-04-09T16:12:44Z</time></trkpt><trkpt lat="44.43103110875921" lon="11.276195350397037"><ele>76.0</ele><time>2026-04-09T16:12:45Z</time></trkpt><trkpt lat="44.431337162728404" lon="11.276272436668204"><ele>76.0</ele><time>2026-04-09T16:12:46Z</time></trkpt><trkpt lat="44.431648954663416" lon="11.276360354885153"><ele>76.0</ele><time>2026-04-09T16:12:47Z</time></trkpt><trkpt lat="44.43194093971916" lon="11.276428196863725"><ele>76.0</ele><time>2026-04-09T16:12:48Z</time></trkpt><trkpt lat="44.43224008817546" lon="11.276497380138167"><ele>74.5</ele><time>2026-04-09T16:12:49Z</time></trkpt><trkpt lat="44.43253894691671" lon="11.276568635709754"><ele>73.0</ele><time>2026-04-09T16:12:50Z</time></trkpt><trkpt lat="44.43283271711229" lon="11.276643333563106"><ele>72.0</ele><time>2026-04-09T16:12:51Z</time></trkpt><trkpt lat="44.43312345327838" lon="11.276714528815065"><ele>71.0</ele><time>2026-04-09T16:12:52Z</time></trkpt><trkpt lat="44.433414785618716" lon="11.276784669815624"><ele>71.0</ele><time>2026-04-09T16:12:53Z</time></trkpt><trkpt lat="44.43370271091055" lon="11.276846950930473"><ele>71.0</ele><time>2026-04-09T16:12:54Z</time></trkpt><trkpt lat="44.433989907521685" lon="11.276909633776848"><ele>71.5</ele><time>2026-04-09T16:12:55Z</time></trkpt><trkpt lat="44.434273991058895" lon="11.276973154869697"><ele>72.0</ele><time>2026-04-09T16:12:56Z</time></trkpt><trkpt lat="44.43455350510171" lon="11.277037550060497"><ele>72.0</ele><time>2026-04-09T16:12:57Z</time></trkpt><trkpt lat="44.4348332569402" lon="11.277104889504237"><ele>72.0</ele><time>2026-04-09T16:12:58Z</time></trkpt><trkpt lat="44.435114800377015" lon="11.277169406690023"><ele>72.0</ele><time>2026-04-09T16:12:59Z</time></trkpt><trkpt lat="44.43539156852102" lon="11.277238224380573"><ele>72.0</ele><time>2026-04-09T16:13:00Z</time></trkpt><trkpt lat="44.43567058342299" lon="11.277300593506613"><ele>71.5</ele><time>2026-04-09T16:13:01Z</time></trkpt><trkpt lat="44.43594751343271" lon="11.277359698652807"><ele>71.0</ele><time>2026-04-09T16:13:02Z</time></trkpt><trkpt lat="44.43622300530138" lon="11.27741929733683"><ele>71.5</ele><time>2026-04-09T16:13:03Z</time></trkpt><trkpt lat="44.43649645398722" lon="11.277483042011463"><ele>72.0</ele><time>2026-04-09T16:13:04Z</time></trkpt><trkpt lat="44.436771264283315" lon="11.277546008950166"><ele>72.0</ele><time>2026-04-09T16:13:05Z</time></trkpt><trkpt lat="44.437044384737504" lon="11.277606959255397"><ele>72.0</ele><time>2026-04-09T16:13:06Z</time></trkpt><trkpt lat="44.43731508629082" lon="11.277666523106959"><ele>73.0</ele><time>2026-04-09T16:13:07Z</time></trkpt><trkpt lat="44.43757619174735" lon="11.277727151116864"><ele>74.0</ele><time>2026-04-09T16:13:07.999Z</time></trkpt><trkpt lat="44.43783591122654" lon="11.277786084690144"><ele>73.5</ele><time>2026-04-09T16:13:08.999Z</time></trkpt><trkpt lat="44.4380939593239" lon="11.277846632939305"><ele>73.0</ele><time>2026-04-09T16:13:09.999Z</time></trkpt><trkpt lat="44.43835039959933" lon="11.277902545834179"><ele>73.0</ele><time>2026-04-09T16:13:10.999Z</time></trkpt><trkpt lat="44.43861024103135" lon="11.277958856127817"><ele>73.0</ele><time>2026-04-09T16:13:11.999Z</time></trkpt><trkpt lat="44.438874139749544" lon="11.278015295497916"><ele>72.0</ele><time>2026-04-09T16:13:12.999Z</time></trkpt><trkpt lat="44.43913726664181" lon="11.278073586226634"><ele>71.0</ele><time>2026-04-09T16:13:13.999Z</time></trkpt><trkpt lat="44.439399629565415" lon="11.278132053540997"><ele>70.5</ele><time>2026-04-09T16:13:14.999Z</time></trkpt><trkpt lat="44.43966482781105" lon="11.278193618192784"><ele>70.0</ele><time>2026-04-09T16:13:15.999Z</time></trkpt><trkpt lat="44.439929009502166" lon="11.278256995817326"><ele>70.0</ele><time>2026-04-09T16:13:16.999Z</time></trkpt><trkpt lat="44.44019183070191" lon="11.278317155658028"><ele>70.0</ele><time>2026-04-09T16:13:17.999Z</time></trkpt><trkpt lat="44.44045771440093" lon="11.278376665203524"><ele>70.5</ele><time>2026-04-09T16:13:18.999Z</time></trkpt><trkpt lat="44.440722055312754" lon="11.278432252098776"><ele>71.0</ele><time>2026-04-09T16:13:19.999Z</time></trkpt><trkpt lat="44.44098923914814" lon="11.27848792074526"><ele>71.0</ele><time>2026-04-09T16:13:20.999Z</time></trkpt><trkpt lat="44.44125539722074" lon="11.278546201713455"><ele>71.0</ele><time>2026-04-09T16:13:21.999Z</time></trkpt><trkpt lat="44.44152290974648" lon="11.278607113670123"><ele>71.0</ele><time>2026-04-09T16:13:22.999Z</time></trkpt><trkpt lat="44.44178190154161" lon="11.278670000393886"><ele>71.0</ele><time>2026-04-09T16:13:23.999Z</time></trkpt><trkpt lat="44.44204080355152" lon="11.27872906288557"><ele>71.0</ele><time>2026-04-09T16:13:24.999Z</time></trkpt><trkpt lat="44.44229161534486" lon="11.278788204703678"><ele>71.0</ele><time>2026-04-09T16:13:25.999Z</time></trkpt><trkpt lat="44.442545486895305" lon="11.278845045698654"><ele>71.0</ele><time>2026-04-09T16:13:26.999Z</time></trkpt><trkpt lat="44.44279440708197" lon="11.278901435109972"><ele>71.0</ele><time>2026-04-09T16:13:27.999Z</time></trkpt><trkpt lat="44.44304362586764" lon="11.27896018218455"><ele>70.5</ele><time>2026-04-09T16:13:28.999Z</time></trkpt><trkpt lat="44.44329017575709" lon="11.279018277346644"><ele>70.0</ele><time>2026-04-09T16:13:29.999Z</time></trkpt><trkpt lat="44.44353885852327" lon="11.279074038638214"><ele>70.0</ele><time>2026-04-09T16:13:30.999Z</time></trkpt><trkpt lat="44.44378652812596" lon="11.279130609667744"><ele>70.0</ele><time>2026-04-09T16:13:31.999Z</time></trkpt><trkpt lat="44.44403147549077" lon="11.279185025047445"><ele>71.5</ele><time>2026-04-09T16:13:32.999Z</time></trkpt><trkpt lat="44.44427946664757" lon="11.27924014101731"><ele>73.0</ele><time>2026-04-09T16:13:33.999Z</time></trkpt><trkpt lat="44.44452589477358" lon="11.279297014658333"><ele>73.5</ele><time>2026-04-09T16:13:34.999Z</time></trkpt><trkpt lat="44.44477045042101" lon="11.279350256023418"><ele>74.0</ele><time>2026-04-09T16:13:35.999Z</time></trkpt><trkpt lat="44.44501198099434" lon="11.27940456289682"><ele>74.0</ele><time>2026-04-09T16:13:36.999Z</time></trkpt><trkpt lat="44.44525283894513" lon="11.279458984046995"><ele>74.0</ele><time>2026-04-09T16:13:37.999Z</time></trkpt><trkpt lat="44.44548887140917" lon="11.27951359084784"><ele>72.0</ele><time>2026-04-09T16:13:38.999Z</time></trkpt><trkpt lat="44.44572273335988" lon="11.279570080813697"><ele>70.0</ele><time>2026-04-09T16:13:39.999Z</time></trkpt><trkpt lat="44.445956484158316" lon="11.279627129558966"><ele>70.0</ele><time>2026-04-09T16:13:40.999Z</time></trkpt><trkpt lat="44.446195604318774" lon="11.279687415197506"><ele>70.0</ele><time>2026-04-09T16:13:41.999Z</time></trkpt><trkpt lat="44.44643012032472" lon="11.279749859500395"><ele>68.0</ele><time>2026-04-09T16:13:42.999Z</time></trkpt><trkpt lat="44.446666490098906" lon="11.27981318877622"><ele>66.0</ele><time>2026-04-09T16:13:43.999Z</time></trkpt><trkpt lat="44.446905222820995" lon="11.279874773651253"><ele>67.0</ele><time>2026-04-09T16:13:44.999Z</time></trkpt><trkpt lat="44.4471436155598" lon="11.279929419276147"><ele>68.0</ele><time>2026-04-09T16:13:45.999Z</time></trkpt><trkpt lat="44.44738513378705" lon="11.279983557262723"><ele>68.0</ele><time>2026-04-09T16:13:46.999Z</time></trkpt><trkpt lat="44.447622938494696" lon="11.28004371966338"><ele>68.0</ele><time>2026-04-09T16:13:47.999Z</time></trkpt><trkpt lat="44.44786696470616" lon="11.28009744389192"><ele>68.0</ele><time>2026-04-09T16:13:48.999Z</time></trkpt><trkpt lat="44.448105613347245" lon="11.280146484085916"><ele>68.0</ele><time>2026-04-09T16:13:49.999Z</time></trkpt><trkpt lat="44.448328242558176" lon="11.28020002633144"><ele>68.0</ele><time>2026-04-09T16:13:50.999Z</time></trkpt><trkpt lat="44.44854218323758" lon="11.280248851818575"><ele>68.0</ele><time>2026-04-09T16:13:51.999Z</time></trkpt><trkpt lat="44.44876263035508" lon="11.280299900677836"><ele>68.0</ele><time>2026-04-09T16:13:52.999Z</time></trkpt><trkpt lat="44.44898947230753" lon="11.2803496169413"><ele>67.66666666666667</ele><time>2026-04-09T16:13:53.999Z</time></trkpt><trkpt lat="44.44920640966555" lon="11.28039709834819"><ele>67.33333333333333</ele><time>2026-04-09T16:13:54.999Z</time></trkpt><trkpt lat="44.44941700127312" lon="11.280445900527324"><ele>67.0</ele><time>2026-04-09T16:13:55.999Z</time></trkpt><trkpt lat="44.44962534665503" lon="11.280494786960451"><ele>67.0</ele><time>2026-04-09T16:13:56.999Z</time></trkpt><trkpt lat="44.449832612016216" lon="11.280543243479796"><ele>67.0</ele><time>2026-04-09T16:13:57.999Z</time></trkpt><trkpt lat="44.45004251256336" lon="11.280590036216285"><ele>67.0</ele><time>2026-04-09T16:13:58.999Z</time></trkpt><trkpt lat="44.45025359197393" lon="11.280637101336348"><ele>67.0</ele><time>2026-04-09T16:13:59.999Z</time></trkpt><trkpt lat="44.45046438059265" lon="11.280688680282262"><ele>67.0</ele><time>2026-04-09T16:14:00.999Z</time></trkpt><trkpt lat="44.45067496530058" lon="11.280739237050382"><ele>67.0</ele><time>2026-04-09T16:14:01.999Z</time></trkpt><trkpt lat="44.450889767440344" lon="11.28078821739873"><ele>67.0</ele><time>2026-04-09T16:14:02.999Z</time></trkpt><trkpt lat="44.45110355944381" lon="11.280838719446223"><ele>67.0</ele><time>2026-04-09T16:14:03.999Z</time></trkpt><trkpt lat="44.45131990569333" lon="11.280889836459655"><ele>67.0</ele><time>2026-04-09T16:14:04.999Z</time></trkpt><trkpt lat="44.4515363110115" lon="11.280938922749574"><ele>67.0</ele><time>2026-04-09T16:14:05.999Z</time></trkpt><trkpt lat="44.45175354137154" lon="11.280987216704354"><ele>67.0</ele><time>2026-04-09T16:14:06.999Z</time></trkpt><trkpt lat="44.45197008099859" lon="11.281034955402983"><ele>67.0</ele><time>2026-04-09T16:14:07.999Z</time></trkpt><trkpt lat="44.452181250734675" lon="11.28108370013551"><ele>67.0</ele><time>2026-04-09T16:14:08.999Z</time></trkpt><trkpt lat="44.45238921765878" lon="11.28113066787924"><ele>67.0</ele><time>2026-04-09T16:14:09.999Z</time></trkpt><trkpt lat="44.45259311119356" lon="11.281174722077866"><ele>67.0</ele><time>2026-04-09T16:14:10.999Z</time></trkpt><trkpt lat="44.45279573599639" lon="11.281216921269012"><ele>67.33333333333333</ele><time>2026-04-09T16:14:11.999Z</time></trkpt><trkpt lat="44.453000542246045" lon="11.281251890428347"><ele>67.66666666666667</ele><time>2026-04-09T16:14:12.999Z</time></trkpt><trkpt lat="44.453205922342576" lon="11.281278058285254"><ele>68.0</ele><time>2026-04-09T16:14:13.999Z</time></trkpt><trkpt lat="44.453408827065346" lon="11.281295229152885"><ele>68.0</ele><time>2026-04-09T16:14:14.999Z</time></trkpt><trkpt lat="44.45361850500868" lon="11.281305035298411"><ele>68.0</ele><time>2026-04-09T16:14:15.999Z</time></trkpt><trkpt lat="44.453827506149366" lon="11.281304518919418"><ele>68.0</ele><time>2026-04-09T16:14:17Z</time></trkpt><trkpt lat="44.45403469900372" lon="11.281295176552556"><ele>68.33333333333334</ele><time>2026-04-09T16:14:18Z</time></trkpt><trkpt lat="44.4542380553349" lon="11.281277827014398"><ele>68.66666666666667</ele><time>2026-04-09T16:14:19Z</time></trkpt><trkpt lat="44.454439074988706" lon="11.281249580041814"><ele>69.0</ele><time>2026-04-09T16:14:20Z</time></trkpt><trkpt lat="44.4546454727146" lon="11.28122262046998"><ele>70.33333333333333</ele><time>2026-04-09T16:14:21Z</time></trkpt><trkpt lat="44.454840416786446" lon="11.281189659162699"><ele>71.66666666666666</ele><time>2026-04-09T16:14:22Z</time></trkpt><trkpt lat="44.4550241780383" lon="11.281135991198177"><ele>73.0</ele><time>2026-04-09T16:14:23Z</time></trkpt><trkpt lat="44.45519620662946" lon="11.28107152881625"><ele>73.0</ele><time>2026-04-09T16:14:24Z</time></trkpt><trkpt lat="44.45535532902057" lon="11.281007449406436"><ele>73.0</ele><time>2026-04-09T16:14:25Z</time></trkpt><trkpt lat="44.45549925042576" lon="11.280946567574757"><ele>73.0</ele><time>2026-04-09T16:14:26Z</time></trkpt><trkpt lat="44.4556342509035" lon="11.28091677357993"><ele>73.75</ele><time>2026-04-09T16:14:27Z</time></trkpt><trkpt lat="44.45576575620715" lon="11.28091898038289"><ele>74.5</ele><time>2026-04-09T16:14:28Z</time></trkpt><trkpt lat="44.455891554525465" lon="11.280945529096053"><ele>75.25</ele><time>2026-04-09T16:14:29Z</time></trkpt><trkpt lat="44.45600197915709" lon="11.28098530373609"><ele>76.0</ele><time>2026-04-09T16:14:30Z</time></trkpt><trkpt lat="44.456096199103825" lon="11.281005516218693"><ele>76.0</ele><time>2026-04-09T16:14:31Z</time></trkpt><trkpt lat="44.45618228673903" lon="11.280998313693766"><ele>76.0</ele><time>2026-04-09T16:14:32Z</time></trkpt><trkpt lat="44.45625146334177" lon="11.280975570075782"><ele>76.0</ele><time>2026-04-09T16:14:33Z</time></trkpt><trkpt lat="44.456331691656594" lon="11.280923193772454"><ele>76.0</ele><time>2026-04-09T16:14:35Z</time></trkpt><trkpt lat="44.45639251122191" lon="11.280882572933947"><ele>76.0</ele><time>2026-04-09T16:14:39Z</time></trkpt><trkpt lat="44.45636632654173" lon="11.28076145857782"><ele>76.0</ele><time>2026-04-09T16:14:41Z</time></trkpt><trkpt lat="44.456354211562775" lon="11.280649765839371"><ele>76.0</ele><time>2026-04-09T16:14:45Z</time></trkpt><trkpt lat="44.45639364020379" lon="11.28056190970238"><ele>76.0</ele><time>2026-04-09T16:14:48Z</time></trkpt><trkpt lat="44.45652033507868" lon="11.280538056655171"><ele>76.0</ele><time>2026-04-09T16:14:52Z</time></trkpt><trkpt lat="44.45645851884423" lon="11.280558112399543"><ele>76.0</ele><time>2026-04-09T16:23:19Z</time></trkpt><trkpt lat="44.45639127825541" lon="11.280571927346609"><ele>76.0</ele><time>2026-04-09T16:23:26Z</time></trkpt><trkpt lat="44.45632583872807" lon="11.280612086029677"><ele>76.0</ele><time>2026-04-09T16:23:32Z</time></trkpt><trkpt lat="44.45626839324747" lon="11.28067033078962"><ele>76.0</ele><time>2026-04-09T16:23:39Z</time></trkpt><trkpt lat="44.45634690055635" lon="11.280548348794143"><ele>76.0</ele><time>2026-04-09T16:24:16.999Z</time></trkpt><trkpt lat="44.45630919391104" lon="11.280647163069274"><ele>76.0</ele><time>2026-04-09T16:24:25.999Z</time></trkpt><trkpt lat="44.456298781451224" lon="11.280747762963685"><ele>76.0</ele><time>2026-04-09T16:24:31.999Z</time></trkpt><trkpt lat="44.456229513299185" lon="11.280702499379897"><ele>76.0</ele><time>2026-04-09T16:24:41.999Z</time></trkpt><trkpt lat="44.4561941894358" lon="11.28060726604277"><ele>76.0</ele><time>2026-04-09T16:24:49Z</time></trkpt><trkpt lat="44.45613411467787" lon="11.280561310575239"><ele>76.0</ele><time>2026-04-09T16:24:54Z</time></trkpt><trkpt lat="44.45628882389954" lon="11.28057709896125"><ele>76.0</ele><time>2026-04-09T16:25:00Z</time></trkpt><trkpt lat="44.45616651679433" lon="11.280674354188367"><ele>76.0</ele><time>2026-04-09T16:25:39.032Z</time></trkpt><trkpt lat="44.45608321443241" lon="11.280635765811054"><ele>76.0</ele><time>2026-04-09T16:30:32.274Z</time></trkpt><trkpt lat="44.45602415420484" lon="11.280531341587134"><ele>76.0</ele><time>2026-04-09T16:30:38.696Z</time></trkpt><trkpt lat="44.45608598768813" lon="11.280663244589316"><ele>76.0</ele><time>2026-04-09T16:32:02.391Z</time></trkpt><trkpt lat="44.45620634906394" lon="11.280616659996872"><ele>76.0</ele><time>2026-04-09T16:34:35.994Z</time></trkpt><trkpt lat="44.45626474708222" lon="11.280658535577915"><ele>76.0</ele><time>2026-04-09T16:34:40Z</time></trkpt><trkpt lat="44.45630867286129" lon="11.280590690280832"><ele>76.0</ele><time>2026-04-09T16:34:43Z</time></trkpt><trkpt lat="44.45636736127032" lon="11.280547306241685"><ele>76.0</ele><time>2026-04-09T16:34:48Z</time></trkpt><trkpt lat="44.45643826782558" lon="11.280518559014704"><ele>76.0</ele><time>2026-04-09T16:34:54Z</time></trkpt><trkpt lat="44.45650344336094" lon="11.280469178976968"><ele>76.0</ele><time>2026-04-09T16:35:02Z</time></trkpt><trkpt lat="44.45654348718463" lon="11.280549759962318"><ele>76.0</ele><time>2026-04-09T16:35:09Z</time></trkpt><trkpt lat="44.456559335218" lon="11.280640149796646"><ele>75.0</ele><time>2026-04-09T16:35:14Z</time></trkpt></trkseg><trkseg><trkpt lat="44.827147156673696" lon="10.379279389438722"><ele>38.0</ele><time>2026-04-09T18:03:03Z</time></trkpt><trkpt lat="44.82719875452609" lon="10.379181557785149"><ele>38.0</ele><time>2026-04-09T18:03:05Z</time></trkpt><trkpt lat="44.82724842779465" lon="10.379082816449804"><ele>38.0</ele><time>2026-04-09T18:03:07Z</time></trkpt><trkpt lat="44.827298689252295" lon="10.378984652373356"><ele>38.0</ele><time>2026-04-09T18:03:09Z</time></trkpt><trkpt lat="44.82735637859051" lon="10.378834536370231"><ele>38.0</ele><time>2026-04-09T18:03:11Z</time></trkpt><trkpt lat="44.82739174648491" lon="10.378740461771562"><ele>38.0</ele><time>2026-04-09T18:03:12Z</time></trkpt><trkpt lat="44.82738249782633" lon="10.378622798658682"><ele>38.0</ele><time>2026-04-09T18:03:13Z</time></trkpt><trkpt lat="44.827416007512795" lon="10.378522193375785"><ele>38.0</ele><time>2026-04-09T18:03:14Z</time></trkpt><trkpt lat="44.82745080029085" lon="10.378417735898958"><ele>38.0</ele><time>2026-04-09T18:03:15Z</time></trkpt><trkpt lat="44.82748380654109" lon="10.37831864204051"><ele>38.0</ele><time>2026-04-09T18:03:16Z</time></trkpt><trkpt lat="44.82751482852442" lon="10.378225505550787"><ele>38.0</ele><time>2026-04-09T18:03:17Z</time></trkpt><trkpt lat="44.82756221038" lon="10.378134552612154"><ele>38.0</ele><time>2026-04-09T18:03:18Z</time></trkpt><trkpt lat="44.82756507606826" lon="10.378026258390593"><ele>38.0</ele><time>2026-04-09T18:03:19Z</time></trkpt><trkpt lat="44.82757353983313" lon="10.377891267657207"><ele>38.0</ele><time>2026-04-09T18:03:20Z</time></trkpt><trkpt lat="44.82758342700441" lon="10.377751095877688"><ele>38.0</ele><time>2026-04-09T18:03:21Z</time></trkpt><trkpt lat="44.827601999273" lon="10.377596403549544"><ele>38.0</ele><time>2026-04-09T18:03:22Z</time></trkpt><trkpt lat="44.82758741615779" lon="10.377399866627734"><ele>38.0</ele><time>2026-04-09T18:03:23Z</time></trkpt><trkpt lat="44.8276359579755" lon="10.377241472212512"><ele>38.0</ele><time>2026-04-09T18:03:24Z</time></trkpt><trkpt lat="44.82769047428562" lon="10.377063620430771"><ele>38.0</ele><time>2026-04-09T18:03:25Z</time></trkpt><trkpt lat="44.827755156805026" lon="10.376879191040103"><ele>38.0</ele><time>2026-04-09T18:03:26Z</time></trkpt><trkpt lat="44.82778692376879" lon="10.376656799706423"><ele>37.666666666666664</ele><time>2026-04-09T18:03:27Z</time></trkpt><trkpt lat="44.827821016754875" lon="10.376447946825337"><ele>37.333333333333336</ele><time>2026-04-09T18:03:28Z</time></trkpt><trkpt lat="44.82783896814541" lon="10.376239502144136"><ele>37.0</ele><time>2026-04-09T18:03:29Z</time></trkpt><trkpt lat="44.82792278977029" lon="10.376046005802445"><ele>37.0</ele><time>2026-04-09T18:03:30Z</time></trkpt><trkpt lat="44.827993553649065" lon="10.375847971222077"><ele>37.0</ele><time>2026-04-09T18:03:31Z</time></trkpt><trkpt lat="44.82807455596467" lon="10.37562433509269"><ele>37.0</ele><time>2026-04-09T18:03:32Z</time></trkpt><trkpt lat="44.82816167418621" lon="10.375384112698292"><ele>37.0</ele><time>2026-04-09T18:03:33Z</time></trkpt><trkpt lat="44.8282548069704" lon="10.37513106810428"><ele>37.0</ele><time>2026-04-09T18:03:34Z</time></trkpt><trkpt lat="44.8283493298994" lon="10.374862880224812"><ele>37.0</ele><time>2026-04-09T18:03:35Z</time></trkpt><trkpt lat="44.82844561093381" lon="10.374583927538694"><ele>36.5</ele><time>2026-04-09T18:03:36Z</time></trkpt><trkpt lat="44.82854394726963" lon="10.37430254133661"><ele>36.0</ele><time>2026-04-09T18:03:37Z</time></trkpt><trkpt lat="44.82865110698562" lon="10.374002305961369"><ele>36.0</ele><time>2026-04-09T18:03:38Z</time></trkpt><trkpt lat="44.82876192755239" lon="10.373692502084381"><ele>36.0</ele><time>2026-04-09T18:03:39Z</time></trkpt><trkpt lat="44.828880310031344" lon="10.373377585799737"><ele>36.0</ele><time>2026-04-09T18:03:40Z</time></trkpt><trkpt lat="44.828994908933886" lon="10.373068345037625"><ele>36.0</ele><time>2026-04-09T18:03:41Z</time></trkpt><trkpt lat="44.82910798163528" lon="10.372760931482919"><ele>36.0</ele><time>2026-04-09T18:03:42Z</time></trkpt><trkpt lat="44.8292203476109" lon="10.372455565742943"><ele>36.0</ele><time>2026-04-09T18:03:43Z</time></trkpt><trkpt lat="44.829325739268064" lon="10.372174596017553"><ele>34.0</ele><time>2026-04-09T18:03:44Z</time></trkpt><trkpt lat="44.82943190901483" lon="10.371895043152017"><ele>32.0</ele><time>2026-04-09T18:03:45Z</time></trkpt><trkpt lat="44.82953769911516" lon="10.371608756742885"><ele>35.0</ele><time>2026-04-09T18:03:46Z</time></trkpt><trkpt lat="44.829644098069295" lon="10.371323900511731"><ele>38.0</ele><time>2026-04-09T18:03:47Z</time></trkpt><trkpt lat="44.8297482405002" lon="10.371040155355345"><ele>38.0</ele><time>2026-04-09T18:03:48Z</time></trkpt><trkpt lat="44.82985226776691" lon="10.370757319394318"><ele>38.0</ele><time>2026-04-09T18:03:49Z</time></trkpt><trkpt lat="44.82995475103469" lon="10.370470837735795"><ele>37.0</ele><time>2026-04-09T18:03:50Z</time></trkpt><trkpt lat="44.83005898285776" lon="10.370182863406498"><ele>36.0</ele><time>2026-04-09T18:03:51Z</time></trkpt><trkpt lat="44.830161452262594" lon="10.36990215724792"><ele>36.666666666666664</ele><time>2026-04-09T18:03:52Z</time></trkpt><trkpt lat="44.83026430833522" lon="10.369623293485898"><ele>37.33333333333333</ele><time>2026-04-09T18:03:53Z</time></trkpt><trkpt lat="44.830366822619176" lon="10.369349265919993"><ele>38.0</ele><time>2026-04-09T18:03:54Z</time></trkpt><trkpt lat="44.83046343288862" lon="10.369074539508418"><ele>38.0</ele><time>2026-04-09T18:03:55Z</time></trkpt><trkpt lat="44.83056773123416" lon="10.368798613895402"><ele>38.0</ele><time>2026-04-09T18:03:56Z</time></trkpt><trkpt lat="44.830672268163106" lon="10.368518859362714"><ele>38.0</ele><time>2026-04-09T18:03:57Z</time></trkpt><trkpt lat="44.83077410980434" lon="10.368225314422121"><ele>37.0</ele><time>2026-04-09T18:03:58Z</time></trkpt><trkpt lat="44.830874039022184" lon="10.367923367967865"><ele>36.0</ele><time>2026-04-09T18:03:59Z</time></trkpt><trkpt lat="44.830960251437766" lon="10.367613367816995"><ele>35.0</ele><time>2026-04-09T18:03:59.999Z</time></trkpt><trkpt lat="44.83109611406481" lon="10.367274556959813"><ele>34.0</ele><time>2026-04-09T18:04:00.999Z</time></trkpt><trkpt lat="44.831222200537184" lon="10.366940370088283"><ele>34.0</ele><time>2026-04-09T18:04:01.999Z</time></trkpt><trkpt lat="44.83134926020351" lon="10.36660026020861"><ele>34.0</ele><time>2026-04-09T18:04:02.999Z</time></trkpt><trkpt lat="44.83147927717404" lon="10.366248570835879"><ele>33.0</ele><time>2026-04-09T18:04:03.999Z</time></trkpt><trkpt lat="44.83160803981182" lon="10.365894712199434"><ele>32.0</ele><time>2026-04-09T18:04:04.999Z</time></trkpt><trkpt lat="44.831740354963074" lon="10.365533058740592"><ele>34.0</ele><time>2026-04-09T18:04:05.999Z</time></trkpt><trkpt lat="44.83187683109541" lon="10.365165793535606"><ele>36.0</ele><time>2026-04-09T18:04:06.999Z</time></trkpt><trkpt lat="44.832018652062594" lon="10.364789484616173"><ele>35.0</ele><time>2026-04-09T18:04:07.999Z</time></trkpt><trkpt lat="44.832162577903105" lon="10.36440766666747"><ele>34.0</ele><time>2026-04-09T18:04:08.999Z</time></trkpt><trkpt lat="44.8323075518848" lon="10.36401748964587"><ele>34.0</ele><time>2026-04-09T18:04:09.999Z</time></trkpt><trkpt lat="44.832452952388984" lon="10.36362846625662"><ele>34.0</ele><time>2026-04-09T18:04:10.999Z</time></trkpt><trkpt lat="44.83259809604261" lon="10.363235002407581"><ele>34.5</ele><time>2026-04-09T18:04:11.999Z</time></trkpt><trkpt lat="44.83273919172041" lon="10.36285432083974"><ele>35.0</ele><time>2026-04-09T18:04:12.999Z</time></trkpt><trkpt lat="44.83287922713402" lon="10.362472007315434"><ele>34.5</ele><time>2026-04-09T18:04:13.999Z</time></trkpt><trkpt lat="44.83302155537524" lon="10.36208532102261"><ele>34.0</ele><time>2026-04-09T18:04:14.999Z</time></trkpt><trkpt lat="44.83316452584684" lon="10.361698341722006"><ele>36.0</ele><time>2026-04-09T18:04:15.999Z</time></trkpt><trkpt lat="44.83330674851889" lon="10.361313090148634"><ele>38.0</ele><time>2026-04-09T18:04:16.999Z</time></trkpt><trkpt lat="44.83344922332982" lon="10.360926458199717"><ele>37.5</ele><time>2026-04-09T18:04:17.999Z</time></trkpt><trkpt lat="44.83359113162758" lon="10.360540903834119"><ele>37.0</ele><time>2026-04-09T18:04:18.999Z</time></trkpt><trkpt lat="44.83373391183771" lon="10.36015298158593"><ele>37.5</ele><time>2026-04-09T18:04:19.999Z</time></trkpt><trkpt lat="44.83387672235235" lon="10.35976605147789"><ele>38.0</ele><time>2026-04-09T18:04:20.999Z</time></trkpt><trkpt lat="44.83401557339096" lon="10.35938673252704"><ele>38.0</ele><time>2026-04-09T18:04:21.999Z</time></trkpt><trkpt lat="44.834159859159165" lon="10.358997592477255"><ele>38.0</ele><time>2026-04-09T18:04:22.999Z</time></trkpt><trkpt lat="44.834302812338834" lon="10.358612060965703"><ele>36.5</ele><time>2026-04-09T18:04:23.999Z</time></trkpt><trkpt lat="44.834445013824755" lon="10.358227721947884"><ele>35.0</ele><time>2026-04-09T18:04:24.999Z</time></trkpt><trkpt lat="44.83458812783822" lon="10.357847298516461"><ele>35.0</ele><time>2026-04-09T18:04:25.999Z</time></trkpt><trkpt lat="44.83473193860382" lon="10.357460041278328"><ele>35.0</ele><time>2026-04-09T18:04:26.999Z</time></trkpt><trkpt lat="44.83487623530173" lon="10.357071577948231"><ele>35.0</ele><time>2026-04-09T18:04:27.999Z</time></trkpt><trkpt lat="44.83501857443671" lon="10.356694667345492"><ele>35.0</ele><time>2026-04-09T18:04:28.999Z</time></trkpt><trkpt lat="44.83516268336831" lon="10.356307263459017"><ele>35.0</ele><time>2026-04-09T18:04:29.999Z</time></trkpt><trkpt lat="44.83530617432805" lon="10.355920975710337"><ele>35.0</ele><time>2026-04-09T18:04:30.999Z</time></trkpt><trkpt lat="44.83544752400379" lon="10.355537466880575"><ele>35.5</ele><time>2026-04-09T18:04:31.999Z</time></trkpt><trkpt lat="44.83559095797366" lon="10.355151976528925"><ele>36.0</ele><time>2026-04-09T18:04:32.999Z</time></trkpt><trkpt lat="44.835733325794166" lon="10.354767651114637"><ele>36.0</ele><time>2026-04-09T18:04:33.999Z</time></trkpt><trkpt lat="44.83587284075822" lon="10.354380492381484"><ele>36.0</ele><time>2026-04-09T18:04:34.999Z</time></trkpt><trkpt lat="44.83601184677088" lon="10.353991874757373"><ele>35.0</ele><time>2026-04-09T18:04:35.999Z</time></trkpt><trkpt lat="44.83614878750541" lon="10.353601376839972"><ele>34.0</ele><time>2026-04-09T18:04:36.999Z</time></trkpt><trkpt lat="44.836281762324006" lon="10.353210477553304"><ele>35.0</ele><time>2026-04-09T18:04:37.999Z</time></trkpt><trkpt lat="44.836411852723145" lon="10.35281602886994"><ele>36.0</ele><time>2026-04-09T18:04:38.999Z</time></trkpt><trkpt lat="44.83653809078049" lon="10.352425553752546"><ele>37.0</ele><time>2026-04-09T18:04:39.999Z</time></trkpt><trkpt lat="44.83666122156009" lon="10.352029430574335"><ele>38.0</ele><time>2026-04-09T18:04:40.999Z</time></trkpt><trkpt lat="44.83678275954737" lon="10.351629951430542"><ele>38.0</ele><time>2026-04-09T18:04:41.999Z</time></trkpt><trkpt lat="44.8369042129841" lon="10.351224930370927"><ele>38.0</ele><time>2026-04-09T18:04:42.999Z</time></trkpt><trkpt lat="44.837022385625964" lon="10.350827515741905"><ele>39.5</ele><time>2026-04-09T18:04:43.999Z</time></trkpt><trkpt lat="44.83713998734106" lon="10.350418357020814"><ele>41.0</ele><time>2026-04-09T18:04:44.999Z</time></trkpt><trkpt lat="44.83725283393211" lon="10.350010454772116"><ele>41.0</ele><time>2026-04-09T18:04:45.999Z</time></trkpt><trkpt lat="44.83736405099358" lon="10.349595987621946"><ele>41.0</ele><time>2026-04-09T18:04:46.999Z</time></trkpt><trkpt lat="44.83747107535064" lon="10.3491858271268"><ele>41.5</ele><time>2026-04-09T18:04:47.999Z</time></trkpt><trkpt lat="44.837576407991946" lon="10.348773678014473"><ele>42.0</ele><time>2026-04-09T18:04:48.999Z</time></trkpt><trkpt lat="44.83768071912646" lon="10.348357702839808"><ele>40.5</ele><time>2026-04-09T18:04:49.999Z</time></trkpt><trkpt lat="44.83778308350436" lon="10.347948166049285"><ele>39.0</ele><time>2026-04-09T18:04:50.999Z</time></trkpt><trkpt lat="44.837882446812294" lon="10.347534332614854"><ele>39.0</ele><time>2026-04-09T18:04:51.999Z</time></trkpt><trkpt lat="44.83798215795452" lon="10.347117785711038"><ele>39.0</ele><time>2026-04-09T18:04:52.999Z</time></trkpt><trkpt lat="44.83808263326367" lon="10.346702147000727"><ele>39.0</ele><time>2026-04-09T18:04:53.999Z</time></trkpt><trkpt lat="44.838182885605995" lon="10.346288913261024"><ele>39.0</ele><time>2026-04-09T18:04:54.999Z</time></trkpt><trkpt lat="44.838282759053655" lon="10.345872394968582"><ele>38.5</ele><time>2026-04-09T18:04:55.999Z</time></trkpt><trkpt lat="44.838384860374646" lon="10.345460903073494"><ele>38.0</ele><time>2026-04-09T18:04:57Z</time></trkpt><trkpt lat="44.838485169749106" lon="10.345048127076597"><ele>38.0</ele><time>2026-04-09T18:04:58Z</time></trkpt><trkpt lat="44.8385847540988" lon="10.344634350358024"><ele>38.0</ele><time>2026-04-09T18:04:59Z</time></trkpt><trkpt lat="44.83868262671374" lon="10.344232708585373"><ele>37.5</ele><time>2026-04-09T18:05:00Z</time></trkpt><trkpt lat="44.83878085802906" lon="10.343819491389866"><ele>37.0</ele><time>2026-04-09T18:05:01Z</time></trkpt><trkpt lat="44.83888036047612" lon="10.343410795819176"><ele>36.5</ele><time>2026-04-09T18:05:02Z</time></trkpt><trkpt lat="44.838978746632435" lon="10.343002146712026"><ele>36.0</ele><time>2026-04-09T18:05:03Z</time></trkpt><trkpt lat="44.83907025101057" lon="10.3425888254726"><ele>36.5</ele><time>2026-04-09T18:05:04Z</time></trkpt><trkpt lat="44.839173827787064" lon="10.34218497164941"><ele>37.0</ele><time>2026-04-09T18:05:05Z</time></trkpt><trkpt lat="44.83927098181173" lon="10.341776195698289"><ele>38.5</ele><time>2026-04-09T18:05:06Z</time></trkpt><trkpt lat="44.83936731434094" lon="10.341367659249826"><ele>40.0</ele><time>2026-04-09T18:05:07Z</time></trkpt><trkpt lat="44.83946587145168" lon="10.340953544542696"><ele>40.0</ele><time>2026-04-09T18:05:08Z</time></trkpt><trkpt lat="44.83956404976408" lon="10.340539196662712"><ele>40.0</ele><time>2026-04-09T18:05:09Z</time></trkpt><trkpt lat="44.83965830387951" lon="10.340122424642713"><ele>40.5</ele><time>2026-04-09T18:05:10Z</time></trkpt><trkpt lat="44.83976172598087" lon="10.339704303745776"><ele>41.0</ele><time>2026-04-09T18:05:11Z</time></trkpt><trkpt lat="44.83986468357021" lon="10.339298156100725"><ele>41.0</ele><time>2026-04-09T18:05:12Z</time></trkpt><trkpt lat="44.83996383125701" lon="10.33888573674144"><ele>41.0</ele><time>2026-04-09T18:05:13Z</time></trkpt><trkpt lat="44.84006119794394" lon="10.33847453643183"><ele>39.5</ele><time>2026-04-09T18:05:14Z</time></trkpt><trkpt lat="44.8401588101811" lon="10.338060517568614"><ele>38.0</ele><time>2026-04-09T18:05:15Z</time></trkpt><trkpt lat="44.84025846684084" lon="10.33764750007726"><ele>38.0</ele><time>2026-04-09T18:05:16Z</time></trkpt><trkpt lat="44.84035623696031" lon="10.337234205439879"><ele>38.0</ele><time>2026-04-09T18:05:17Z</time></trkpt><trkpt lat="44.84045308602798" lon="10.336820043150729"><ele>38.0</ele><time>2026-04-09T18:05:18Z</time></trkpt><trkpt lat="44.84055325947867" lon="10.336409581282947"><ele>38.0</ele><time>2026-04-09T18:05:19Z</time></trkpt><trkpt lat="44.84065143165195" lon="10.336000695581669"><ele>37.5</ele><time>2026-04-09T18:05:20Z</time></trkpt><trkpt lat="44.840744080522455" lon="10.335580828460985"><ele>37.0</ele><time>2026-04-09T18:05:21Z</time></trkpt><trkpt lat="44.840848708158205" lon="10.335173570305189"><ele>37.0</ele><time>2026-04-09T18:05:22Z</time></trkpt><trkpt lat="44.84094822171717" lon="10.334760543246666"><ele>37.0</ele><time>2026-04-09T18:05:23Z</time></trkpt><trkpt lat="44.84104684717315" lon="10.334348751911042"><ele>38.0</ele><time>2026-04-09T18:05:24Z</time></trkpt><trkpt lat="44.8411454768059" lon="10.33393317414882"><ele>39.0</ele><time>2026-04-09T18:05:25Z</time></trkpt><trkpt lat="44.8412426475936" lon="10.333520996596702"><ele>39.5</ele><time>2026-04-09T18:05:26Z</time></trkpt><trkpt lat="44.841339386725956" lon="10.333105977802257"><ele>40.0</ele><time>2026-04-09T18:05:27Z</time></trkpt><trkpt lat="44.84143566104955" lon="10.332695216654256"><ele>39.0</ele><time>2026-04-09T18:05:28Z</time></trkpt><trkpt lat="44.841540951668" lon="10.332284351306729"><ele>38.0</ele><time>2026-04-09T18:05:29Z</time></trkpt><trkpt lat="44.84165021356788" lon="10.331873790692653"><ele>38.0</ele><time>2026-04-09T18:05:30Z</time></trkpt><trkpt lat="44.84176006758426" lon="10.331465481834618"><ele>38.0</ele><time>2026-04-09T18:05:31Z</time></trkpt><trkpt lat="44.84186098156497" lon="10.331054201244127"><ele>38.0</ele><time>2026-04-09T18:05:32Z</time></trkpt><trkpt lat="44.84195610721092" lon="10.330637609028953"><ele>38.0</ele><time>2026-04-09T18:05:33Z</time></trkpt><trkpt lat="44.84204948310697" lon="10.330225706677787"><ele>38.0</ele><time>2026-04-09T18:05:34Z</time></trkpt><trkpt lat="44.84214866340068" lon="10.329810916469425"><ele>38.0</ele><time>2026-04-09T18:05:35Z</time></trkpt><trkpt lat="44.84225064896367" lon="10.329401006756878"><ele>38.0</ele><time>2026-04-09T18:05:36Z</time></trkpt><trkpt lat="44.84234969514561" lon="10.328986746660238"><ele>38.0</ele><time>2026-04-09T18:05:37Z</time></trkpt><trkpt lat="44.84244978952632" lon="10.328571281434908"><ele>38.5</ele><time>2026-04-09T18:05:38Z</time></trkpt><trkpt lat="44.84254858900068" lon="10.328160168979164"><ele>39.0</ele><time>2026-04-09T18:05:39Z</time></trkpt><trkpt lat="44.84264818504814" lon="10.327750173524372"><ele>39.0</ele><time>2026-04-09T18:05:40Z</time></trkpt><trkpt lat="44.842748404562265" lon="10.327338388541818"><ele>39.0</ele><time>2026-04-09T18:05:41Z</time></trkpt><trkpt lat="44.84284813728056" lon="10.326925420803786"><ele>39.0</ele><time>2026-04-09T18:05:42Z</time></trkpt><trkpt lat="44.84294710546052" lon="10.326513366104752"><ele>39.0</ele><time>2026-04-09T18:05:43Z</time></trkpt><trkpt lat="44.84304617968422" lon="10.326097336460702"><ele>39.0</ele><time>2026-04-09T18:05:44Z</time></trkpt><trkpt lat="44.84314485140274" lon="10.325687083893149"><ele>39.0</ele><time>2026-04-09T18:05:45Z</time></trkpt><trkpt lat="44.84324443279399" lon="10.325275322750661"><ele>39.0</ele><time>2026-04-09T18:05:46Z</time></trkpt><trkpt lat="44.84334422071917" lon="10.324864456672946"><ele>39.0</ele><time>2026-04-09T18:05:47Z</time></trkpt><trkpt lat="44.843444184295336" lon="10.324453387228726"><ele>40.0</ele><time>2026-04-09T18:05:48Z</time></trkpt><trkpt lat="44.84354241589492" lon="10.324041387693962"><ele>41.0</ele><time>2026-04-09T18:05:49Z</time></trkpt><trkpt lat="44.84364219117797" lon="10.32362784179827"><ele>41.0</ele><time>2026-04-09T18:05:50Z</time></trkpt><trkpt lat="44.843741440712975" lon="10.323217167422946"><ele>41.0</ele><time>2026-04-09T18:05:51Z</time></trkpt><trkpt lat="44.843839860007996" lon="10.3228060724099"><ele>41.0</ele><time>2026-04-09T18:05:52Z</time></trkpt><trkpt lat="44.84395996779829" lon="10.322390449217178"><ele>41.0</ele><time>2026-04-09T18:05:53Z</time></trkpt><trkpt lat="44.84404322452378" lon="10.321976840364657"><ele>41.0</ele><time>2026-04-09T18:05:54Z</time></trkpt><trkpt lat="44.8441413404369" lon="10.321567536287079"><ele>41.0</ele><time>2026-04-09T18:05:55Z</time></trkpt><trkpt lat="44.84423979459606" lon="10.32115599586369"><ele>40.5</ele><time>2026-04-09T18:05:56Z</time></trkpt><trkpt lat="44.84434011456633" lon="10.32074265378344"><ele>40.0</ele><time>2026-04-09T18:05:57Z</time></trkpt><trkpt lat="44.84443816223463" lon="10.320329942159187"><ele>40.0</ele><time>2026-04-09T18:05:58Z</time></trkpt><trkpt lat="44.84453678864167" lon="10.319918145574002"><ele>40.0</ele><time>2026-04-09T18:05:59Z</time></trkpt><trkpt lat="44.84463651818578" lon="10.319502793369136"><ele>40.0</ele><time>2026-04-09T18:06:00Z</time></trkpt><trkpt lat="44.84473578965751" lon="10.319090794342115"><ele>40.0</ele><time>2026-04-09T18:06:01Z</time></trkpt><trkpt lat="44.8448346498256" lon="10.31867822859008"><ele>39.5</ele><time>2026-04-09T18:06:02Z</time></trkpt><trkpt lat="44.84493315031793" lon="10.318266040296018"><ele>39.0</ele><time>2026-04-09T18:06:03Z</time></trkpt><trkpt lat="44.84503089828398" lon="10.317854840921276"><ele>39.5</ele><time>2026-04-09T18:06:03.999Z</time></trkpt><trkpt lat="44.845128589349216" lon="10.317436661622267"><ele>40.0</ele><time>2026-04-09T18:06:04.999Z</time></trkpt><trkpt lat="44.84522273223537" lon="10.3170266021224"><ele>40.0</ele><time>2026-04-09T18:06:05.999Z</time></trkpt><trkpt lat="44.845323133563696" lon="10.316612807351845"><ele>40.0</ele><time>2026-04-09T18:06:06.999Z</time></trkpt><trkpt lat="44.84542319010163" lon="10.316199784208246"><ele>40.5</ele><time>2026-04-09T18:06:07.999Z</time></trkpt><trkpt lat="44.84552172127326" lon="10.315792443996129"><ele>41.0</ele><time>2026-04-09T18:06:08.999Z</time></trkpt><trkpt lat="44.845619671466785" lon="10.315379893081895"><ele>42.0</ele><time>2026-04-09T18:06:09.999Z</time></trkpt><trkpt lat="44.84571626417408" lon="10.314969883837612"><ele>43.0</ele><time>2026-04-09T18:06:10.999Z</time></trkpt><trkpt lat="44.845815089878" lon="10.314558220357206"><ele>43.0</ele><time>2026-04-09T18:06:11.999Z</time></trkpt><trkpt lat="44.84591270216008" lon="10.314149948067831"><ele>43.0</ele><time>2026-04-09T18:06:12.999Z</time></trkpt><trkpt lat="44.84600975231326" lon="10.313736306408032"><ele>42.5</ele><time>2026-04-09T18:06:13.999Z</time></trkpt><trkpt lat="44.846103819293184" lon="10.313325443707773"><ele>42.0</ele><time>2026-04-09T18:06:14.999Z</time></trkpt><trkpt lat="44.84619936376056" lon="10.312910252944858"><ele>41.5</ele><time>2026-04-09T18:06:15.999Z</time></trkpt><trkpt lat="44.846292542667854" lon="10.312491918324465"><ele>41.0</ele><time>2026-04-09T18:06:16.999Z</time></trkpt><trkpt lat="44.84638641585107" lon="10.312076006973948"><ele>41.0</ele><time>2026-04-09T18:06:17.999Z</time></trkpt><trkpt lat="44.846482564007275" lon="10.311661229326283"><ele>41.0</ele><time>2026-04-09T18:06:18.999Z</time></trkpt><trkpt lat="44.84657923593085" lon="10.311245441625784"><ele>41.0</ele><time>2026-04-09T18:06:19.999Z</time></trkpt><trkpt lat="44.84667616609935" lon="10.310833020645251"><ele>41.0</ele><time>2026-04-09T18:06:20.999Z</time></trkpt><trkpt lat="44.846775452525634" lon="10.310421812618937"><ele>41.0</ele><time>2026-04-09T18:06:21.999Z</time></trkpt><trkpt lat="44.84687479619518" lon="10.310010094987643"><ele>41.0</ele><time>2026-04-09T18:06:22.999Z</time></trkpt><trkpt lat="44.846974832127984" lon="10.309595412233756"><ele>41.0</ele><time>2026-04-09T18:06:23.999Z</time></trkpt><trkpt lat="44.84707489104833" lon="10.309182776710884"><ele>41.0</ele><time>2026-04-09T18:06:24.999Z</time></trkpt><trkpt lat="44.84717450627397" lon="10.308770322931904"><ele>41.0</ele><time>2026-04-09T18:06:25.999Z</time></trkpt><trkpt lat="44.84727384834643" lon="10.308357281418864"><ele>41.0</ele><time>2026-04-09T18:06:26.999Z</time></trkpt><trkpt lat="44.847373207182166" lon="10.307946920947618"><ele>41.0</ele><time>2026-04-09T18:06:27.999Z</time></trkpt><trkpt lat="44.84747286590474" lon="10.30753512780696"><ele>41.0</ele><time>2026-04-09T18:06:28.999Z</time></trkpt><trkpt lat="44.84757316571456" lon="10.307121021883445"><ele>41.0</ele><time>2026-04-09T18:06:29.999Z</time></trkpt><trkpt lat="44.847672993031566" lon="10.306706177915045"><ele>41.0</ele><time>2026-04-09T18:06:30.999Z</time></trkpt><trkpt lat="44.84777351350474" lon="10.306294704391444"><ele>41.0</ele><time>2026-04-09T18:06:31.999Z</time></trkpt><trkpt lat="44.84787606796666" lon="10.305882114038365"><ele>41.0</ele><time>2026-04-09T18:06:32.999Z</time></trkpt><trkpt lat="44.847983333409694" lon="10.305469409560226"><ele>40.5</ele><time>2026-04-09T18:06:33.999Z</time></trkpt><trkpt lat="44.84808827391766" lon="10.305057154107418"><ele>40.0</ele><time>2026-04-09T18:06:34.999Z</time></trkpt><trkpt lat="44.84819034942996" lon="10.30464376426832"><ele>39.5</ele><time>2026-04-09T18:06:35.999Z</time></trkpt><trkpt lat="44.848292935702084" lon="10.304227883055068"><ele>39.0</ele><time>2026-04-09T18:06:36.999Z</time></trkpt><trkpt lat="44.84839292366136" lon="10.303813500824946"><ele>39.5</ele><time>2026-04-09T18:06:37.999Z</time></trkpt><trkpt lat="44.84849325075714" lon="10.303400826649824"><ele>40.0</ele><time>2026-04-09T18:06:38.999Z</time></trkpt><trkpt lat="44.84859577226714" lon="10.302986169746934"><ele>39.0</ele><time>2026-04-09T18:06:39.999Z</time></trkpt><trkpt lat="44.848695293886976" lon="10.302574548557649"><ele>38.0</ele><time>2026-04-09T18:06:40.999Z</time></trkpt><trkpt lat="44.8487962654662" lon="10.302161788122433"><ele>37.5</ele><time>2026-04-09T18:06:41.999Z</time></trkpt><trkpt lat="44.84889745015625" lon="10.301749552430081"><ele>37.0</ele><time>2026-04-09T18:06:42.999Z</time></trkpt><trkpt lat="44.84899471943141" lon="10.301341944357597"><ele>37.5</ele><time>2026-04-09T18:06:43.999Z</time></trkpt><trkpt lat="44.849093855316035" lon="10.300932471193747"><ele>38.0</ele><time>2026-04-09T18:06:44.999Z</time></trkpt><trkpt lat="44.84919146025973" lon="10.300523114806541"><ele>38.0</ele><time>2026-04-09T18:06:45.999Z</time></trkpt><trkpt lat="44.849290096964964" lon="10.300112690364664"><ele>38.0</ele><time>2026-04-09T18:06:46.999Z</time></trkpt><trkpt lat="44.84938774426856" lon="10.299707988290526"><ele>38.0</ele><time>2026-04-09T18:06:47.999Z</time></trkpt><trkpt lat="44.84948702298492" lon="10.299299432767114"><ele>38.0</ele><time>2026-04-09T18:06:48.999Z</time></trkpt><trkpt lat="44.84958808788072" lon="10.298889043252327"><ele>38.0</ele><time>2026-04-09T18:06:49.999Z</time></trkpt><trkpt lat="44.84968761720661" lon="10.298479011978488"><ele>38.0</ele><time>2026-04-09T18:06:50.999Z</time></trkpt><trkpt lat="44.84978604247914" lon="10.298067271064767"><ele>38.0</ele><time>2026-04-09T18:06:51.999Z</time></trkpt><trkpt lat="44.84988377179143" lon="10.297652665064595"><ele>38.0</ele><time>2026-04-09T18:06:52.999Z</time></trkpt><trkpt lat="44.849980885458365" lon="10.297241058733885"><ele>37.5</ele><time>2026-04-09T18:06:53.999Z</time></trkpt><trkpt lat="44.85007948672532" lon="10.296824252033977"><ele>37.0</ele><time>2026-04-09T18:06:54.999Z</time></trkpt><trkpt lat="44.85017982933898" lon="10.296409800410116"><ele>37.5</ele><time>2026-04-09T18:06:55.999Z</time></trkpt><trkpt lat="44.850279826666" lon="10.29599487815825"><ele>38.0</ele><time>2026-04-09T18:06:56.999Z</time></trkpt><trkpt lat="44.85037982503128" lon="10.295580410043762"><ele>38.0</ele><time>2026-04-09T18:06:57.999Z</time></trkpt><trkpt lat="44.85047963976687" lon="10.295168028080802"><ele>38.0</ele><time>2026-04-09T18:06:58.999Z</time></trkpt><trkpt lat="44.85057732072311" lon="10.294755088403603"><ele>38.0</ele><time>2026-04-09T18:06:59.999Z</time></trkpt><trkpt lat="44.85067470737258" lon="10.294341937134822"><ele>38.0</ele><time>2026-04-09T18:07:00.999Z</time></trkpt><trkpt lat="44.85077457323805" lon="10.293927493679039"><ele>37.5</ele><time>2026-04-09T18:07:01.999Z</time></trkpt><trkpt lat="44.850873676873185" lon="10.293515686465634"><ele>37.0</ele><time>2026-04-09T18:07:03Z</time></trkpt><trkpt lat="44.85097233644878" lon="10.293103239839112"><ele>37.0</ele><time>2026-04-09T18:07:04Z</time></trkpt><trkpt lat="44.85107041157869" lon="10.292690394002891"><ele>37.0</ele><time>2026-04-09T18:07:05Z</time></trkpt><trkpt lat="44.8511670814158" lon="10.292279540910563"><ele>36.5</ele><time>2026-04-09T18:07:06Z</time></trkpt><trkpt lat="44.85126260805005" lon="10.291866427654481"><ele>36.0</ele><time>2026-04-09T18:07:07Z</time></trkpt><trkpt lat="44.85135863922221" lon="10.291453444239098"><ele>35.5</ele><time>2026-04-09T18:07:08Z</time></trkpt><trkpt lat="44.85145567679473" lon="10.291035673797335"><ele>35.0</ele><time>2026-04-09T18:07:09Z</time></trkpt><trkpt lat="44.85155427982957" lon="10.290625878016407"><ele>36.0</ele><time>2026-04-09T18:07:10Z</time></trkpt><trkpt lat="44.85165497166052" lon="10.29021360576363"><ele>37.0</ele><time>2026-04-09T18:07:11Z</time></trkpt><trkpt lat="44.85175356009018" lon="10.289801159325604"><ele>37.0</ele><time>2026-04-09T18:07:12Z</time></trkpt><trkpt lat="44.85185188392361" lon="10.289387861294509"><ele>37.0</ele><time>2026-04-09T18:07:13Z</time></trkpt><trkpt lat="44.8519498569743" lon="10.288974001023398"><ele>36.0</ele><time>2026-04-09T18:07:14Z</time></trkpt><trkpt lat="44.852048020232544" lon="10.288563052720962"><ele>35.0</ele><time>2026-04-09T18:07:15Z</time></trkpt><trkpt lat="44.8521471173044" lon="10.288149020124548"><ele>34.5</ele><time>2026-04-09T18:07:16Z</time></trkpt><trkpt lat="44.85224652122419" lon="10.287735608574641"><ele>34.0</ele><time>2026-04-09T18:07:17Z</time></trkpt><trkpt lat="44.85234708592447" lon="10.287323812674137"><ele>33.5</ele><time>2026-04-09T18:07:18Z</time></trkpt><trkpt lat="44.85244760530109" lon="10.286909167816505"><ele>33.0</ele><time>2026-04-09T18:07:19Z</time></trkpt><trkpt lat="44.8525467007861" lon="10.28649743820483"><ele>33.0</ele><time>2026-04-09T18:07:20Z</time></trkpt><trkpt lat="44.85264669779064" lon="10.286083299174956"><ele>33.0</ele><time>2026-04-09T18:07:21Z</time></trkpt><trkpt lat="44.85274724610644" lon="10.285669770913211"><ele>35.0</ele><time>2026-04-09T18:07:22Z</time></trkpt><trkpt lat="44.85284650934733" lon="10.28525812636817"><ele>37.0</ele><time>2026-04-09T18:07:23Z</time></trkpt><trkpt lat="44.85294592090944" lon="10.284843850283938"><ele>38.5</ele><time>2026-04-09T18:07:24Z</time></trkpt><trkpt lat="44.853046524902375" lon="10.284429074683592"><ele>40.0</ele><time>2026-04-09T18:07:25Z</time></trkpt><trkpt lat="44.85314260467364" lon="10.28402516746167"><ele>38.5</ele><time>2026-04-09T18:07:26Z</time></trkpt><trkpt lat="44.85324879196373" lon="10.283619666260178"><ele>37.0</ele><time>2026-04-09T18:07:27Z</time></trkpt><trkpt lat="44.85334448138978" lon="10.28319885946312"><ele>37.5</ele><time>2026-04-09T18:07:28Z</time></trkpt><trkpt lat="44.85344352867518" lon="10.282788285166378"><ele>38.0</ele><time>2026-04-09T18:07:29Z</time></trkpt><trkpt lat="44.8535409161881" lon="10.282376157001034"><ele>37.5</ele><time>2026-04-09T18:07:30Z</time></trkpt><trkpt lat="44.85363887262628" lon="10.281964788903554"><ele>37.0</ele><time>2026-04-09T18:07:31Z</time></trkpt><trkpt lat="44.853736066203155" lon="10.281554732152285"><ele>36.5</ele><time>2026-04-09T18:07:32Z</time></trkpt><trkpt lat="44.85383376461914" lon="10.281142228392735"><ele>36.0</ele><time>2026-04-09T18:07:33Z</time></trkpt><trkpt lat="44.85393345209093" lon="10.280732623992856"><ele>36.0</ele><time>2026-04-09T18:07:34Z</time></trkpt><trkpt lat="44.85403245138483" lon="10.280318487552314"><ele>36.0</ele><time>2026-04-09T18:07:35Z</time></trkpt><trkpt lat="44.854130866542725" lon="10.279906860722889"><ele>36.5</ele><time>2026-04-09T18:07:36Z</time></trkpt><trkpt lat="44.85422949638343" lon="10.279492384277498"><ele>37.0</ele><time>2026-04-09T18:07:37Z</time></trkpt><trkpt lat="44.85432934055907" lon="10.279081468807371"><ele>37.5</ele><time>2026-04-09T18:07:38Z</time></trkpt><trkpt lat="44.85442901462148" lon="10.278668505079699"><ele>38.0</ele><time>2026-04-09T18:07:39Z</time></trkpt><trkpt lat="44.85452696626911" lon="10.278252180607717"><ele>38.0</ele><time>2026-04-09T18:07:40Z</time></trkpt><trkpt lat="44.85462577183138" lon="10.27783911747235"><ele>38.0</ele><time>2026-04-09T18:07:41Z</time></trkpt><trkpt lat="44.854725437236546" lon="10.277427209725435"><ele>39.0</ele><time>2026-04-09T18:07:42Z</time></trkpt><trkpt lat="44.85482480996053" lon="10.277013159018374"><ele>40.0</ele><time>2026-04-09T18:07:43Z</time></trkpt><trkpt lat="44.85492262649033" lon="10.276599337276332"><ele>41.0</ele><time>2026-04-09T18:07:44Z</time></trkpt><trkpt lat="44.855020579668356" lon="10.276187946633415"><ele>42.0</ele><time>2026-04-09T18:07:45Z</time></trkpt><trkpt lat="44.85511743308856" lon="10.27577625473942"><ele>41.5</ele><time>2026-04-09T18:07:46Z</time></trkpt><trkpt lat="44.85521523163538" lon="10.275360622733022"><ele>41.0</ele><time>2026-04-09T18:07:47Z</time></trkpt><trkpt lat="44.855313460755596" lon="10.274948950846593"><ele>40.0</ele><time>2026-04-09T18:07:48Z</time></trkpt><trkpt lat="44.85541154449686" lon="10.274535051446684"><ele>39.0</ele><time>2026-04-09T18:07:49Z</time></trkpt><trkpt lat="44.8555062517385" lon="10.274121843280302"><ele>39.5</ele><time>2026-04-09T18:07:50Z</time></trkpt><trkpt lat="44.85560871126907" lon="10.273703802931342"><ele>40.0</ele><time>2026-04-09T18:07:51Z</time></trkpt><trkpt lat="44.85570817001639" lon="10.273293962011927"><ele>39.0</ele><time>2026-04-09T18:07:52Z</time></trkpt><trkpt lat="44.85580535418914" lon="10.27288200349224"><ele>38.0</ele><time>2026-04-09T18:07:53Z</time></trkpt><trkpt lat="44.85590111740185" lon="10.272465367633307"><ele>39.0</ele><time>2026-04-09T18:07:54Z</time></trkpt><trkpt lat="44.85600281351117" lon="10.272053803763189"><ele>40.0</ele><time>2026-04-09T18:07:55Z</time></trkpt><trkpt lat="44.856105446149186" lon="10.271642723258097"><ele>40.5</ele><time>2026-04-09T18:07:56Z</time></trkpt><trkpt lat="44.85620556432381" lon="10.271229180523441"><ele>41.0</ele><time>2026-04-09T18:07:57Z</time></trkpt><trkpt lat="44.85630576177834" lon="10.270815738422687"><ele>40.0</ele><time>2026-04-09T18:07:58Z</time></trkpt><trkpt lat="44.85640600238512" lon="10.270404831074408"><ele>39.0</ele><time>2026-04-09T18:07:59Z</time></trkpt><trkpt lat="44.8565041023746" lon="10.2699892854268"><ele>38.5</ele><time>2026-04-09T18:08:00Z</time></trkpt><trkpt lat="44.85660117251045" lon="10.269574665397048"><ele>38.0</ele><time>2026-04-09T18:08:01Z</time></trkpt><trkpt lat="44.85669838868911" lon="10.269161388008742"><ele>38.0</ele><time>2026-04-09T18:08:02Z</time></trkpt><trkpt lat="44.85679493865477" lon="10.26874880074025"><ele>38.0</ele><time>2026-04-09T18:08:03Z</time></trkpt><trkpt lat="44.856894171952774" lon="10.268338538817822"><ele>38.5</ele><time>2026-04-09T18:08:04Z</time></trkpt><trkpt lat="44.85699458592379" lon="10.267926644231215"><ele>39.0</ele><time>2026-04-09T18:08:05Z</time></trkpt><trkpt lat="44.85709333785516" lon="10.267520229721319"><ele>39.0</ele><time>2026-04-09T18:08:06Z</time></trkpt><trkpt lat="44.8571875673993" lon="10.267120341160659"><ele>39.0</ele><time>2026-04-09T18:08:07Z</time></trkpt><trkpt lat="44.85728079519503" lon="10.266733174836798"><ele>39.5</ele><time>2026-04-09T18:08:08Z</time></trkpt><trkpt lat="44.85737274108318" lon="10.266358229308436"><ele>40.0</ele><time>2026-04-09T18:08:08.999Z</time></trkpt><trkpt lat="44.85746210007012" lon="10.26598951116379"><ele>40.0</ele><time>2026-04-09T18:08:09.999Z</time></trkpt><trkpt lat="44.85754506593713" lon="10.265630371449141"><ele>40.0</ele><time>2026-04-09T18:08:10.999Z</time></trkpt><trkpt lat="44.85762748473241" lon="10.26527997147297"><ele>39.5</ele><time>2026-04-09T18:08:11.999Z</time></trkpt><trkpt lat="44.857713291972466" lon="10.264922060854806"><ele>39.0</ele><time>2026-04-09T18:08:12.999Z</time></trkpt><trkpt lat="44.85779855499348" lon="10.264568387391348"><ele>38.5</ele><time>2026-04-09T18:08:13.999Z</time></trkpt><trkpt lat="44.857884853342576" lon="10.264220365495923"><ele>38.0</ele><time>2026-04-09T18:08:14.999Z</time></trkpt><trkpt lat="44.85797091374043" lon="10.263875065021214"><ele>38.0</ele><time>2026-04-09T18:08:15.999Z</time></trkpt><trkpt lat="44.858058406857296" lon="10.263531752797766"><ele>38.0</ele><time>2026-04-09T18:08:16.999Z</time></trkpt><trkpt lat="44.85814777583915" lon="10.263188875734894"><ele>38.5</ele><time>2026-04-09T18:08:17.999Z</time></trkpt><trkpt lat="44.85823605398755" lon="10.262846774447938"><ele>39.0</ele><time>2026-04-09T18:08:18.999Z</time></trkpt><trkpt lat="44.858318496852846" lon="10.26252021242331"><ele>40.0</ele><time>2026-04-09T18:08:19.999Z</time></trkpt><trkpt lat="44.858400297556315" lon="10.262190486230319"><ele>41.0</ele><time>2026-04-09T18:08:20.999Z</time></trkpt><trkpt lat="44.85848056517129" lon="10.26185855049075"><ele>41.0</ele><time>2026-04-09T18:08:21.999Z</time></trkpt><trkpt lat="44.85855989281443" lon="10.26152423319759"><ele>41.0</ele><time>2026-04-09T18:08:22.999Z</time></trkpt><trkpt lat="44.858641280040594" lon="10.261192360261772"><ele>40.5</ele><time>2026-04-09T18:08:23.999Z</time></trkpt><trkpt lat="44.85872132998513" lon="10.260862887296701"><ele>40.0</ele><time>2026-04-09T18:08:24.999Z</time></trkpt><trkpt lat="44.85880012930901" lon="10.260533424017972"><ele>39.5</ele><time>2026-04-09T18:08:25.999Z</time></trkpt><trkpt lat="44.858878051818465" lon="10.260206552723725"><ele>39.0</ele><time>2026-04-09T18:08:26.999Z</time></trkpt><trkpt lat="44.85895823477304" lon="10.25987112393065"><ele>39.5</ele><time>2026-04-09T18:08:27.999Z</time></trkpt><trkpt lat="44.859038052961594" lon="10.259539070926209"><ele>40.0</ele><time>2026-04-09T18:08:28.999Z</time></trkpt><trkpt lat="44.85911948216647" lon="10.259206415495488"><ele>40.0</ele><time>2026-04-09T18:08:29.999Z</time></trkpt><trkpt lat="44.859198940075245" lon="10.258872049992384"><ele>40.0</ele><time>2026-04-09T18:08:30.999Z</time></trkpt><trkpt lat="44.85927879560193" lon="10.258533682255376"><ele>41.0</ele><time>2026-04-09T18:08:31.999Z</time></trkpt><trkpt lat="44.85936061402811" lon="10.258187145522893"><ele>42.0</ele><time>2026-04-09T18:08:32.999Z</time></trkpt><trkpt lat="44.85944360095747" lon="10.257831832944854"><ele>42.0</ele><time>2026-04-09T18:08:33.999Z</time></trkpt><trkpt lat="44.85953105940964" lon="10.257467073428868"><ele>42.0</ele><time>2026-04-09T18:08:34.999Z</time></trkpt><trkpt lat="44.859618303204115" lon="10.257100846110934"><ele>42.0</ele><time>2026-04-09T18:08:35.999Z</time></trkpt><trkpt lat="44.85970690114451" lon="10.256731551673624"><ele>42.0</ele><time>2026-04-09T18:08:36.999Z</time></trkpt><trkpt lat="44.859794605248354" lon="10.256365370003213"><ele>42.0</ele><time>2026-04-09T18:08:37.999Z</time></trkpt><trkpt lat="44.859881345861886" lon="10.25599934117234"><ele>42.0</ele><time>2026-04-09T18:08:38.999Z</time></trkpt><trkpt lat="44.859966364756275" lon="10.255636662884694"><ele>42.0</ele><time>2026-04-09T18:08:39.999Z</time></trkpt><trkpt lat="44.8600528528774" lon="10.255274651410677"><ele>42.0</ele><time>2026-04-09T18:08:40.999Z</time></trkpt><trkpt lat="44.86013747228278" lon="10.25491480825496"><ele>41.5</ele><time>2026-04-09T18:08:41.999Z</time></trkpt><trkpt lat="44.86022164254697" lon="10.254554990473654"><ele>41.0</ele><time>2026-04-09T18:08:42.999Z</time></trkpt><trkpt lat="44.86030658795472" lon="10.254195055917975"><ele>41.0</ele><time>2026-04-09T18:08:43.999Z</time></trkpt><trkpt lat="44.86039234612325" lon="10.25383814401013"><ele>41.0</ele><time>2026-04-09T18:08:44.999Z</time></trkpt><trkpt lat="44.86047647369448" lon="10.253476836588105"><ele>41.0</ele><time>2026-04-09T18:08:45.999Z</time></trkpt><trkpt lat="44.86055603026843" lon="10.25311494952503"><ele>41.0</ele><time>2026-04-09T18:08:46.999Z</time></trkpt><trkpt lat="44.860636109291406" lon="10.252748429828923"><ele>41.0</ele><time>2026-04-09T18:08:47.999Z</time></trkpt><trkpt lat="44.86072141021129" lon="10.25237493108475"><ele>41.0</ele><time>2026-04-09T18:08:48.999Z</time></trkpt><trkpt lat="44.860808290659165" lon="10.252007910972784"><ele>41.0</ele><time>2026-04-09T18:08:49.999Z</time></trkpt><trkpt lat="44.860894596706274" lon="10.251641248407655"><ele>41.0</ele><time>2026-04-09T18:08:50.999Z</time></trkpt><trkpt lat="44.860978953872525" lon="10.251279193452397"><ele>40.5</ele><time>2026-04-09T18:08:51.999Z</time></trkpt><trkpt lat="44.86106471275021" lon="10.250914780452986"><ele>40.0</ele><time>2026-04-09T18:08:52.999Z</time></trkpt><trkpt lat="44.86115150426759" lon="10.250552410482769"><ele>41.0</ele><time>2026-04-09T18:08:53.999Z</time></trkpt><trkpt lat="44.861237942980914" lon="10.250193623632217"><ele>42.0</ele><time>2026-04-09T18:08:54.999Z</time></trkpt><trkpt lat="44.86132599489402" lon="10.249829324560494"><ele>43.5</ele><time>2026-04-09T18:08:55.999Z</time></trkpt><trkpt lat="44.86141192409945" lon="10.24946407846169"><ele>45.0</ele><time>2026-04-09T18:08:56.999Z</time></trkpt><trkpt lat="44.86149582486909" lon="10.249106595402395"><ele>45.0</ele><time>2026-04-09T18:08:57.999Z</time></trkpt><trkpt lat="44.86158179401634" lon="10.248748364240782"><ele>45.0</ele><time>2026-04-09T18:08:58.999Z</time></trkpt><trkpt lat="44.86166678993137" lon="10.248389940247275"><ele>45.0</ele><time>2026-04-09T18:08:59.999Z</time></trkpt><trkpt lat="44.8617493582871" lon="10.2480353305041"><ele>45.0</ele><time>2026-04-09T18:09:00.999Z</time></trkpt><trkpt lat="44.86183418845324" lon="10.247683637425899"><ele>44.5</ele><time>2026-04-09T18:09:01.999Z</time></trkpt><trkpt lat="44.861918676765285" lon="10.247333165146715"><ele>44.0</ele><time>2026-04-09T18:09:02.999Z</time></trkpt><trkpt lat="44.86200053147654" lon="10.24698488834604"><ele>44.0</ele><time>2026-04-09T18:09:03.999Z</time></trkpt><trkpt lat="44.86208466389371" lon="10.246635716350946"><ele>44.0</ele><time>2026-04-09T18:09:04.999Z</time></trkpt><trkpt lat="44.86216585251344" lon="10.246286431307798"><ele>44.0</ele><time>2026-04-09T18:09:05.999Z</time></trkpt><trkpt lat="44.86224770005428" lon="10.245935210410936"><ele>44.0</ele><time>2026-04-09T18:09:06.999Z</time></trkpt><trkpt lat="44.86233165906273" lon="10.245580219196347"><ele>44.5</ele><time>2026-04-09T18:09:07.999Z</time></trkpt><trkpt lat="44.8624158381977" lon="10.245232440307861"><ele>45.0</ele><time>2026-04-09T18:09:09Z</time></trkpt><trkpt lat="44.86249972367063" lon="10.244883076410455"><ele>44.0</ele><time>2026-04-09T18:09:10Z</time></trkpt><trkpt lat="44.86258531422365" lon="10.244530624824353"><ele>43.0</ele><time>2026-04-09T18:09:11Z</time></trkpt><trkpt lat="44.86266774967419" lon="10.244182957831175"><ele>41.5</ele><time>2026-04-09T18:09:12Z</time></trkpt><trkpt lat="44.86275480423397" lon="10.243830125936723"><ele>40.0</ele><time>2026-04-09T18:09:13Z</time></trkpt><trkpt lat="44.86283836383232" lon="10.2434734931753"><ele>40.5</ele><time>2026-04-09T18:09:14Z</time></trkpt><trkpt lat="44.862921827959994" lon="10.243117126282673"><ele>41.0</ele><time>2026-04-09T18:09:15Z</time></trkpt><trkpt lat="44.86300581286929" lon="10.242761548053794"><ele>41.0</ele><time>2026-04-09T18:09:16Z</time></trkpt><trkpt lat="44.863090485019555" lon="10.24240650243344"><ele>41.0</ele><time>2026-04-09T18:09:17Z</time></trkpt><trkpt lat="44.863175211249676" lon="10.242054778693138"><ele>41.0</ele><time>2026-04-09T18:09:18Z</time></trkpt><trkpt lat="44.86325841277819" lon="10.241698944616804"><ele>41.0</ele><time>2026-04-09T18:09:19Z</time></trkpt><trkpt lat="44.86334273033873" lon="10.241346270718296"><ele>41.5</ele><time>2026-04-09T18:09:20Z</time></trkpt><trkpt lat="44.863427981786394" lon="10.240993422036208"><ele>42.0</ele><time>2026-04-09T18:09:21Z</time></trkpt><trkpt lat="44.86351137633075" lon="10.240642303442586"><ele>43.5</ele><time>2026-04-09T18:09:22Z</time></trkpt><trkpt lat="44.863595550563595" lon="10.240292026343003"><ele>45.0</ele><time>2026-04-09T18:09:23Z</time></trkpt><trkpt lat="44.86368045938668" lon="10.239941556457191"><ele>45.0</ele><time>2026-04-09T18:09:24Z</time></trkpt><trkpt lat="44.86376415529918" lon="10.2395900085126"><ele>45.0</ele><time>2026-04-09T18:09:25Z</time></trkpt><trkpt lat="44.86384697281202" lon="10.239237883039523"><ele>45.0</ele><time>2026-04-09T18:09:26Z</time></trkpt><trkpt lat="44.863929037672655" lon="10.238888620212112"><ele>45.0</ele><time>2026-04-09T18:09:27Z</time></trkpt><trkpt lat="44.86401187510033" lon="10.23853493195337"><ele>45.0</ele><time>2026-04-09T18:09:28Z</time></trkpt><trkpt lat="44.86409446679926" lon="10.238180510901078"><ele>45.0</ele><time>2026-04-09T18:09:29Z</time></trkpt><trkpt lat="44.86417768550657" lon="10.23782068950454"><ele>45.0</ele><time>2026-04-09T18:09:30Z</time></trkpt><trkpt lat="44.864265563262016" lon="10.237449650123803"><ele>45.0</ele><time>2026-04-09T18:09:31Z</time></trkpt><trkpt lat="44.86435559759795" lon="10.23707767030272"><ele>45.0</ele><time>2026-04-09T18:09:32Z</time></trkpt><trkpt lat="44.8644466645589" lon="10.236700968189426"><ele>45.0</ele><time>2026-04-09T18:09:33Z</time></trkpt><trkpt lat="44.864538034278524" lon="10.236321583308966"><ele>45.0</ele><time>2026-04-09T18:09:34Z</time></trkpt><trkpt lat="44.86462894007437" lon="10.235941561770304"><ele>45.0</ele><time>2026-04-09T18:09:35Z</time></trkpt><trkpt lat="44.8647202299144" lon="10.235558508577443"><ele>45.0</ele><time>2026-04-09T18:09:36Z</time></trkpt><trkpt lat="44.86482893452463" lon="10.235203166817547"><ele>45.0</ele><time>2026-04-09T18:09:37Z</time></trkpt><trkpt lat="44.86490023502267" lon="10.23482533454823"><ele>44.5</ele><time>2026-04-09T18:09:38Z</time></trkpt><trkpt lat="44.86498100699457" lon="10.234498920839819"><ele>44.0</ele><time>2026-04-09T18:09:39Z</time></trkpt><trkpt lat="44.865055523464086" lon="10.234188672193994"><ele>44.0</ele><time>2026-04-09T18:09:40Z</time></trkpt><trkpt lat="44.865131786065874" lon="10.233865073551357"><ele>44.0</ele><time>2026-04-09T18:09:41Z</time></trkpt><trkpt lat="44.86521328474398" lon="10.233537573526153"><ele>44.0</ele><time>2026-04-09T18:09:42Z</time></trkpt><trkpt lat="44.86529411458764" lon="10.233206016041237"><ele>44.0</ele><time>2026-04-09T18:09:43Z</time></trkpt><trkpt lat="44.865372845432226" lon="10.232869869732193"><ele>44.0</ele><time>2026-04-09T18:09:44Z</time></trkpt><trkpt lat="44.865451432394266" lon="10.232534360437846"><ele>44.0</ele><time>2026-04-09T18:09:45Z</time></trkpt><trkpt lat="44.86553117157732" lon="10.232198462015777"><ele>43.0</ele><time>2026-04-09T18:09:46Z</time></trkpt><trkpt lat="44.865611842632696" lon="10.231877863724002"><ele>42.0</ele><time>2026-04-09T18:09:47Z</time></trkpt><trkpt lat="44.86569589714254" lon="10.231562909300832"><ele>42.5</ele><time>2026-04-09T18:09:48Z</time></trkpt><trkpt lat="44.86577775357984" lon="10.231241965587348"><ele>43.0</ele><time>2026-04-09T18:09:49Z</time></trkpt><trkpt lat="44.86585568157512" lon="10.23091774250561"><ele>43.0</ele><time>2026-04-09T18:09:50Z</time></trkpt><trkpt lat="44.86593322526366" lon="10.230590731476495"><ele>43.0</ele><time>2026-04-09T18:09:51Z</time></trkpt><trkpt lat="44.866009014338076" lon="10.23027239681401"><ele>43.0</ele><time>2026-04-09T18:09:52Z</time></trkpt><trkpt lat="44.86608829756162" lon="10.229944587635023"><ele>43.0</ele><time>2026-04-09T18:09:53Z</time></trkpt><trkpt lat="44.866169553574224" lon="10.229616955911085"><ele>43.0</ele><time>2026-04-09T18:09:54Z</time></trkpt><trkpt lat="44.86625019919746" lon="10.229291357547051"><ele>43.0</ele><time>2026-04-09T18:09:55Z</time></trkpt><trkpt lat="44.86633027449061" lon="10.228966667990335"><ele>44.0</ele><time>2026-04-09T18:09:56Z</time></trkpt><trkpt lat="44.866410229775475" lon="10.228641270351492"><ele>45.0</ele><time>2026-04-09T18:09:57Z</time></trkpt><trkpt lat="44.8664884675149" lon="10.228311823702619"><ele>45.0</ele><time>2026-04-09T18:09:58Z</time></trkpt><trkpt lat="44.86656484941098" lon="10.227983916099422"><ele>45.0</ele><time>2026-04-09T18:09:59Z</time></trkpt><trkpt lat="44.8666568224722" lon="10.227666046830004"><ele>45.0</ele><time>2026-04-09T18:10:00Z</time></trkpt><trkpt lat="44.866713880532316" lon="10.227362691360025"><ele>45.0</ele><time>2026-04-09T18:10:01Z</time></trkpt><trkpt lat="44.866774525063704" lon="10.22707425491036"><ele>45.0</ele><time>2026-04-09T18:10:02Z</time></trkpt><trkpt lat="44.86684276367396" lon="10.226761496764956"><ele>45.0</ele><time>2026-04-09T18:10:03Z</time></trkpt><trkpt lat="44.866921402162845" lon="10.22645934358566"><ele>45.0</ele><time>2026-04-09T18:10:04Z</time></trkpt><trkpt lat="44.86699499640744" lon="10.226151855297195"><ele>45.0</ele><time>2026-04-09T18:10:05Z</time></trkpt><trkpt lat="44.86706627922733" lon="10.22584436854354"><ele>45.0</ele><time>2026-04-09T18:10:06Z</time></trkpt><trkpt lat="44.86714016208996" lon="10.225531978048163"><ele>44.0</ele><time>2026-04-09T18:10:07Z</time></trkpt><trkpt lat="44.86721342083566" lon="10.225211307245853"><ele>43.0</ele><time>2026-04-09T18:10:08Z</time></trkpt><trkpt lat="44.867284188611" lon="10.224896195950965"><ele>43.0</ele><time>2026-04-09T18:10:09Z</time></trkpt><trkpt lat="44.867355839422366" lon="10.224578205543695"><ele>43.0</ele><time>2026-04-09T18:10:10Z</time></trkpt><trkpt lat="44.867425612295186" lon="10.224261854992166"><ele>43.0</ele><time>2026-04-09T18:10:11Z</time></trkpt><trkpt lat="44.867494689004985" lon="10.223945305127907"><ele>43.0</ele><time>2026-04-09T18:10:11.999Z</time></trkpt><trkpt lat="44.86756468610277" lon="10.22362486813825"><ele>43.0</ele><time>2026-04-09T18:10:12.999Z</time></trkpt><trkpt lat="44.867635060181755" lon="10.22329982954781"><ele>43.0</ele><time>2026-04-09T18:10:13.999Z</time></trkpt><trkpt lat="44.86769819887113" lon="10.222979759026783"><ele>43.0</ele><time>2026-04-09T18:10:14.999Z</time></trkpt><trkpt lat="44.86775831535369" lon="10.222654879580011"><ele>43.0</ele><time>2026-04-09T18:10:15.999Z</time></trkpt><trkpt lat="44.86781830830182" lon="10.222330095531985"><ele>43.0</ele><time>2026-04-09T18:10:16.999Z</time></trkpt><trkpt lat="44.86787631979584" lon="10.22200964764075"><ele>43.0</ele><time>2026-04-09T18:10:17.999Z</time></trkpt><trkpt lat="44.86793492055953" lon="10.221689968313841"><ele>43.5</ele><time>2026-04-09T18:10:18.999Z</time></trkpt><trkpt lat="44.86799299741815" lon="10.22137307810854"><ele>44.0</ele><time>2026-04-09T18:10:19.999Z</time></trkpt><trkpt lat="44.86804968794791" lon="10.221049053354077"><ele>44.0</ele><time>2026-04-09T18:10:20.999Z</time></trkpt><trkpt lat="44.86810599190941" lon="10.220724720019092"><ele>44.0</ele><time>2026-04-09T18:10:21.999Z</time></trkpt><trkpt lat="44.868161761491336" lon="10.220393730143819"><ele>44.0</ele><time>2026-04-09T18:10:22.999Z</time></trkpt><trkpt lat="44.86821790902614" lon="10.220059711846218"><ele>44.0</ele><time>2026-04-09T18:10:23.999Z</time></trkpt><trkpt lat="44.86827009003679" lon="10.219731543844768"><ele>43.5</ele><time>2026-04-09T18:10:24.999Z</time></trkpt><trkpt lat="44.868320647941744" lon="10.219403324375842"><ele>43.0</ele><time>2026-04-09T18:10:25.999Z</time></trkpt><trkpt lat="44.868368368182104" lon="10.219094893977692"><ele>43.0</ele><time>2026-04-09T18:10:26.999Z</time></trkpt><trkpt lat="44.86841660105282" lon="10.218790630989465"><ele>43.0</ele><time>2026-04-09T18:10:27.999Z</time></trkpt><trkpt lat="44.868466473148864" lon="10.218494033122731"><ele>43.0</ele><time>2026-04-09T18:10:28.999Z</time></trkpt><trkpt lat="44.868518159731686" lon="10.218193307788766"><ele>43.0</ele><time>2026-04-09T18:10:29.999Z</time></trkpt><trkpt lat="44.86856920555033" lon="10.217885543244128"><ele>43.0</ele><time>2026-04-09T18:10:30.999Z</time></trkpt><trkpt lat="44.86862065874174" lon="10.217575956143465"><ele>43.0</ele><time>2026-04-09T18:10:31.999Z</time></trkpt><trkpt lat="44.86867342749668" lon="10.217260188334667"><ele>43.0</ele><time>2026-04-09T18:10:32.999Z</time></trkpt><trkpt lat="44.86872575360396" lon="10.216944516552728"><ele>43.0</ele><time>2026-04-09T18:10:33.999Z</time></trkpt><trkpt lat="44.868780469619594" lon="10.216632462436747"><ele>43.0</ele><time>2026-04-09T18:10:34.999Z</time></trkpt><trkpt lat="44.86883208980451" lon="10.216329494674964"><ele>43.0</ele><time>2026-04-09T18:10:35.999Z</time></trkpt><trkpt lat="44.86888181315447" lon="10.216026047440767"><ele>43.0</ele><time>2026-04-09T18:10:36.999Z</time></trkpt><trkpt lat="44.86893066213054" lon="10.215719045264585"><ele>43.333333333333336</ele><time>2026-04-09T18:10:37.999Z</time></trkpt><trkpt lat="44.868980513167834" lon="10.215413268461091"><ele>43.666666666666664</ele><time>2026-04-09T18:10:38.999Z</time></trkpt><trkpt lat="44.86903259828291" lon="10.215104377948983"><ele>44.0</ele><time>2026-04-09T18:10:39.999Z</time></trkpt><trkpt lat="44.8690833288868" lon="10.214807939704606"><ele>44.666666666666664</ele><time>2026-04-09T18:10:40.999Z</time></trkpt><trkpt lat="44.86913459414403" lon="10.214507455429112"><ele>45.333333333333336</ele><time>2026-04-09T18:10:41.999Z</time></trkpt><trkpt lat="44.86918518602878" lon="10.214203439098151"><ele>46.0</ele><time>2026-04-09T18:10:42.999Z</time></trkpt><trkpt lat="44.8692373113638" lon="10.213905721176152"><ele>46.0</ele><time>2026-04-09T18:10:43.999Z</time></trkpt><trkpt lat="44.86928966951267" lon="10.213596888656808"><ele>46.0</ele><time>2026-04-09T18:10:44.999Z</time></trkpt><trkpt lat="44.86934428973991" lon="10.213281415575189"><ele>45.5</ele><time>2026-04-09T18:10:45.999Z</time></trkpt><trkpt lat="44.86939684681902" lon="10.212960210099975"><ele>45.0</ele><time>2026-04-09T18:10:46.999Z</time></trkpt><trkpt lat="44.86945113876331" lon="10.21265616089488"><ele>45.0</ele><time>2026-04-09T18:10:47.999Z</time></trkpt><trkpt lat="44.86950090837317" lon="10.21233952816163"><ele>45.0</ele><time>2026-04-09T18:10:48.999Z</time></trkpt><trkpt lat="44.86955404628114" lon="10.212028948587095"><ele>45.0</ele><time>2026-04-09T18:10:49.999Z</time></trkpt><trkpt lat="44.86960738782929" lon="10.211720971138295"><ele>45.0</ele><time>2026-04-09T18:10:50.999Z</time></trkpt><trkpt lat="44.86966059704975" lon="10.211413802515453"><ele>45.0</ele><time>2026-04-09T18:10:51.999Z</time></trkpt><trkpt lat="44.869713105393394" lon="10.211105947875676"><ele>45.0</ele><time>2026-04-09T18:10:52.999Z</time></trkpt><trkpt lat="44.86976776332894" lon="10.210788900321496"><ele>45.0</ele><time>2026-04-09T18:10:53.999Z</time></trkpt><trkpt lat="44.86982261485067" lon="10.210465374087121"><ele>45.0</ele><time>2026-04-09T18:10:54.999Z</time></trkpt><trkpt lat="44.86987700653703" lon="10.2101323253367"><ele>45.0</ele><time>2026-04-09T18:10:55.999Z</time></trkpt><trkpt lat="44.869932312539646" lon="10.209790535096761"><ele>45.0</ele><time>2026-04-09T18:10:56.999Z</time></trkpt><trkpt lat="44.86998950819561" lon="10.209456529722246"><ele>45.0</ele><time>2026-04-09T18:10:57.999Z</time></trkpt><trkpt lat="44.87004422049612" lon="10.20913757573568"><ele>45.0</ele><time>2026-04-09T18:10:58.999Z</time></trkpt><trkpt lat="44.87009726229168" lon="10.208831593910324"><ele>45.0</ele><time>2026-04-09T18:10:59.999Z</time></trkpt><trkpt lat="44.87014928462916" lon="10.208538007369455"><ele>45.0</ele><time>2026-04-09T18:11:00.999Z</time></trkpt><trkpt lat="44.87019957583001" lon="10.208241249546338"><ele>45.0</ele><time>2026-04-09T18:11:01.999Z</time></trkpt><trkpt lat="44.870248698382234" lon="10.207950613923325"><ele>45.0</ele><time>2026-04-09T18:11:02.999Z</time></trkpt><trkpt lat="44.870298669521674" lon="10.207649289905055"><ele>45.0</ele><time>2026-04-09T18:11:03.999Z</time></trkpt><trkpt lat="44.87034748983182" lon="10.207359363550607"><ele>45.333333333333336</ele><time>2026-04-09T18:11:04.999Z</time></trkpt><trkpt lat="44.870396291535414" lon="10.2070703122809"><ele>45.66666666666667</ele><time>2026-04-09T18:11:05.999Z</time></trkpt><trkpt lat="44.8704461188032" lon="10.20677801238901"><ele>46.0</ele><time>2026-04-09T18:11:06.999Z</time></trkpt><trkpt lat="44.87049621177612" lon="10.206477652647584"><ele>45.0</ele><time>2026-04-09T18:11:07.999Z</time></trkpt><trkpt lat="44.87054673525392" lon="10.2061786387572"><ele>44.0</ele><time>2026-04-09T18:11:08.999Z</time></trkpt><trkpt lat="44.87059852364248" lon="10.205871479737153"><ele>43.0</ele><time>2026-04-09T18:11:09.999Z</time></trkpt><trkpt lat="44.87064815339846" lon="10.205580893440953"><ele>43.0</ele><time>2026-04-09T18:11:10.999Z</time></trkpt><trkpt lat="44.87069797201341" lon="10.205268890980033"><ele>43.0</ele><time>2026-04-09T18:11:11.999Z</time></trkpt><trkpt lat="44.87075089295367" lon="10.204951628339046"><ele>43.5</ele><time>2026-04-09T18:11:12.999Z</time></trkpt><trkpt lat="44.87080635139439" lon="10.204618592641262"><ele>44.0</ele><time>2026-04-09T18:11:13.999Z</time></trkpt><trkpt lat="44.87086010832369" lon="10.204286242155604"><ele>44.0</ele><time>2026-04-09T18:11:15Z</time></trkpt><trkpt lat="44.87091510025231" lon="10.203967552795511"><ele>44.0</ele><time>2026-04-09T18:11:16Z</time></trkpt><trkpt lat="44.870967491109596" lon="10.2036524644551"><ele>44.0</ele><time>2026-04-09T18:11:17Z</time></trkpt><trkpt lat="44.871020860844595" lon="10.203335137904666"><ele>44.0</ele><time>2026-04-09T18:11:18Z</time></trkpt><trkpt lat="44.871075819792225" lon="10.203025669275045"><ele>44.5</ele><time>2026-04-09T18:11:19Z</time></trkpt><trkpt lat="44.8711304765858" lon="10.20271612529935"><ele>45.0</ele><time>2026-04-09T18:11:20Z</time></trkpt><trkpt lat="44.87118508383537" lon="10.20240353337455"><ele>44.5</ele><time>2026-04-09T18:11:21Z</time></trkpt><trkpt lat="44.87123637666936" lon="10.202083137815015"><ele>44.0</ele><time>2026-04-09T18:11:22Z</time></trkpt><trkpt lat="44.87128994606202" lon="10.201757237885767"><ele>44.5</ele><time>2026-04-09T18:11:23Z</time></trkpt><trkpt lat="44.87134519979263" lon="10.201425268649672"><ele>45.0</ele><time>2026-04-09T18:11:24Z</time></trkpt><trkpt lat="44.87140440618063" lon="10.201078531515549"><ele>45.0</ele><time>2026-04-09T18:11:25Z</time></trkpt><trkpt lat="44.871465337582165" lon="10.200720231121439"><ele>45.0</ele><time>2026-04-09T18:11:26Z</time></trkpt><trkpt lat="44.87152332673197" lon="10.200372204888614"><ele>45.0</ele><time>2026-04-09T18:11:27Z</time></trkpt><trkpt lat="44.871577449639936" lon="10.200049533846533"><ele>45.0</ele><time>2026-04-09T18:11:28Z</time></trkpt><trkpt lat="44.87163067732692" lon="10.19974378169939"><ele>45.0</ele><time>2026-04-09T18:11:29Z</time></trkpt><trkpt lat="44.87168280460342" lon="10.199440760868178"><ele>45.0</ele><time>2026-04-09T18:11:30Z</time></trkpt><trkpt lat="44.871734279974646" lon="10.199136611306496"><ele>45.0</ele><time>2026-04-09T18:11:31Z</time></trkpt><trkpt lat="44.871786746823496" lon="10.198831164363103"><ele>44.666666666666664</ele><time>2026-04-09T18:11:32Z</time></trkpt><trkpt lat="44.871840603490185" lon="10.19852936845825"><ele>44.33333333333333</ele><time>2026-04-09T18:11:33Z</time></trkpt><trkpt lat="44.87189337000511" lon="10.198230256229468"><ele>44.0</ele><time>2026-04-09T18:11:34Z</time></trkpt><trkpt lat="44.87194469438239" lon="10.19793197870667"><ele>44.0</ele><time>2026-04-09T18:11:35Z</time></trkpt><trkpt lat="44.87199627889148" lon="10.197624601172155"><ele>44.0</ele><time>2026-04-09T18:11:36Z</time></trkpt><trkpt lat="44.87204876861336" lon="10.197313504012063"><ele>44.0</ele><time>2026-04-09T18:11:37Z</time></trkpt><trkpt lat="44.87210053036185" lon="10.196998504109763"><ele>44.0</ele><time>2026-04-09T18:11:38Z</time></trkpt><trkpt lat="44.87215346469044" lon="10.196686614257004"><ele>43.666666666666664</ele><time>2026-04-09T18:11:39Z</time></trkpt><trkpt lat="44.87220483288193" lon="10.19638323193222"><ele>43.333333333333336</ele><time>2026-04-09T18:11:40Z</time></trkpt><trkpt lat="44.87225287798355" lon="10.196088151621218"><ele>43.0</ele><time>2026-04-09T18:11:41Z</time></trkpt><trkpt lat="44.87229867300029" lon="10.195767427887203"><ele>43.333333333333336</ele><time>2026-04-09T18:11:42Z</time></trkpt><trkpt lat="44.87235472544614" lon="10.195480262706983"><ele>43.666666666666664</ele><time>2026-04-09T18:11:43Z</time></trkpt><trkpt lat="44.87240731277751" lon="10.19517645741144"><ele>44.0</ele><time>2026-04-09T18:11:44Z</time></trkpt><trkpt lat="44.8724577786787" lon="10.194874543918102"><ele>44.33333333333333</ele><time>2026-04-09T18:11:45Z</time></trkpt><trkpt lat="44.8725079861873" lon="10.194569789910963"><ele>44.666666666666664</ele><time>2026-04-09T18:11:46Z</time></trkpt><trkpt lat="44.87256183572202" lon="10.194262566996693"><ele>45.0</ele><time>2026-04-09T18:11:47Z</time></trkpt><trkpt lat="44.872616318927186" lon="10.193944613157313"><ele>43.5</ele><time>2026-04-09T18:11:48Z</time></trkpt><trkpt lat="44.872671295316664" lon="10.193620644680347"><ele>42.0</ele><time>2026-04-09T18:11:49Z</time></trkpt><trkpt lat="44.87272585525137" lon="10.193294328712842"><ele>42.0</ele><time>2026-04-09T18:11:50Z</time></trkpt><trkpt lat="44.8727805417316" lon="10.192965166089017"><ele>42.0</ele><time>2026-04-09T18:11:51Z</time></trkpt><trkpt lat="44.87283692879048" lon="10.192636824304453"><ele>42.5</ele><time>2026-04-09T18:11:52Z</time></trkpt><trkpt lat="44.87289452871499" lon="10.192312972081153"><ele>43.0</ele><time>2026-04-09T18:11:53Z</time></trkpt><trkpt lat="44.872950435593914" lon="10.19198936046021"><ele>43.0</ele><time>2026-04-09T18:11:54Z</time></trkpt><trkpt lat="44.87300568683744" lon="10.191666629435218"><ele>43.0</ele><time>2026-04-09T18:11:55Z</time></trkpt><trkpt lat="44.873059685066806" lon="10.191347092233867"><ele>43.5</ele><time>2026-04-09T18:11:56Z</time></trkpt><trkpt lat="44.87311452123508" lon="10.19102132940967"><ele>44.0</ele><time>2026-04-09T18:11:57Z</time></trkpt><trkpt lat="44.87316914741062" lon="10.190698549827022"><ele>44.5</ele><time>2026-04-09T18:11:58Z</time></trkpt><trkpt lat="44.873224229971015" lon="10.190374175100011"><ele>45.0</ele><time>2026-04-09T18:11:59Z</time></trkpt><trkpt lat="44.87327435451713" lon="10.190056522781177"><ele>43.5</ele><time>2026-04-09T18:12:00Z</time></trkpt><trkpt lat="44.873323594074776" lon="10.189728693344211"><ele>42.0</ele><time>2026-04-09T18:12:01Z</time></trkpt><trkpt lat="44.87337210220829" lon="10.18938828500309"><ele>42.0</ele><time>2026-04-09T18:12:02Z</time></trkpt><trkpt lat="44.873422139620125" lon="10.189038952484296"><ele>42.0</ele><time>2026-04-09T18:12:03Z</time></trkpt><trkpt lat="44.87347277358638" lon="10.188700682993801"><ele>43.0</ele><time>2026-04-09T18:12:04Z</time></trkpt><trkpt lat="44.87352483958581" lon="10.188376419705884"><ele>44.0</ele><time>2026-04-09T18:12:05Z</time></trkpt><trkpt lat="44.873580671820974" lon="10.188051135721942"><ele>44.0</ele><time>2026-04-09T18:12:06Z</time></trkpt><trkpt lat="44.87363440539596" lon="10.187739044675288"><ele>44.0</ele><time>2026-04-09T18:12:07Z</time></trkpt><trkpt lat="44.873688088092656" lon="10.187424984480332"><ele>44.0</ele><time>2026-04-09T18:12:08Z</time></trkpt><trkpt lat="44.873742515041386" lon="10.187116861361135"><ele>44.0</ele><time>2026-04-09T18:12:09Z</time></trkpt><trkpt lat="44.87379380452015" lon="10.186813678312264"><ele>44.0</ele><time>2026-04-09T18:12:10Z</time></trkpt><trkpt lat="44.87384414076674" lon="10.186515120956782"><ele>43.666666666666664</ele><time>2026-04-09T18:12:11Z</time></trkpt><trkpt lat="44.87389419286887" lon="10.186216536961073"><ele>43.333333333333336</ele><time>2026-04-09T18:12:12Z</time></trkpt><trkpt lat="44.87394500663586" lon="10.185912068346699"><ele>43.0</ele><time>2026-04-09T18:12:12.999Z</time></trkpt><trkpt lat="44.873994644408576" lon="10.18560728219564"><ele>42.5</ele><time>2026-04-09T18:12:13.999Z</time></trkpt><trkpt lat="44.87404722183636" lon="10.185296372070837"><ele>42.0</ele><time>2026-04-09T18:12:14.999Z</time></trkpt><trkpt lat="44.8741016288879" lon="10.184984489333951"><ele>43.0</ele><time>2026-04-09T18:12:15.999Z</time></trkpt><trkpt lat="44.87415534906226" lon="10.184676253838173"><ele>44.0</ele><time>2026-04-09T18:12:16.999Z</time></trkpt><trkpt lat="44.874209474841045" lon="10.184365356590307"><ele>44.0</ele><time>2026-04-09T18:12:17.999Z</time></trkpt><trkpt lat="44.87426240970569" lon="10.184052519529113"><ele>44.0</ele><time>2026-04-09T18:12:18.999Z</time></trkpt><trkpt lat="44.874316929882106" lon="10.183739028374198"><ele>43.5</ele><time>2026-04-09T18:12:19.999Z</time></trkpt><trkpt lat="44.87436961100979" lon="10.18342700594167"><ele>43.0</ele><time>2026-04-09T18:12:20.999Z</time></trkpt><trkpt lat="44.87442340413461" lon="10.18311457383291"><ele>43.0</ele><time>2026-04-09T18:12:21.999Z</time></trkpt><trkpt lat="44.874476849181264" lon="10.182793469300266"><ele>43.0</ele><time>2026-04-09T18:12:22.999Z</time></trkpt><trkpt lat="44.87453142251081" lon="10.182466259105578"><ele>44.0</ele><time>2026-04-09T18:12:23.999Z</time></trkpt><trkpt lat="44.87458677697204" lon="10.182141713640608"><ele>45.0</ele><time>2026-04-09T18:12:24.999Z</time></trkpt><trkpt lat="44.87464190737596" lon="10.181823327688504"><ele>44.0</ele><time>2026-04-09T18:12:25.999Z</time></trkpt><trkpt lat="44.87469579744733" lon="10.181510760171603"><ele>43.0</ele><time>2026-04-09T18:12:26.999Z</time></trkpt><trkpt lat="44.8747477757588" lon="10.181195910614598"><ele>43.0</ele><time>2026-04-09T18:12:27.999Z</time></trkpt><trkpt lat="44.874805282412744" lon="10.180883961295796"><ele>43.0</ele><time>2026-04-09T18:12:28.999Z</time></trkpt><trkpt lat="44.87485749077988" lon="10.18056590106965"><ele>43.5</ele><time>2026-04-09T18:12:29.999Z</time></trkpt><trkpt lat="44.87490772501169" lon="10.180256388143073"><ele>44.0</ele><time>2026-04-09T18:12:30.999Z</time></trkpt><trkpt lat="44.87495957525168" lon="10.179945715954094"><ele>43.666666666666664</ele><time>2026-04-09T18:12:31.999Z</time></trkpt><trkpt lat="44.87501031962263" lon="10.179651348918272"><ele>43.333333333333336</ele><time>2026-04-09T18:12:32.999Z</time></trkpt><trkpt lat="44.8750611652464" lon="10.179356528368324"><ele>43.0</ele><time>2026-04-09T18:12:33.999Z</time></trkpt><trkpt lat="44.87510935862593" lon="10.179067543673282"><ele>43.333333333333336</ele><time>2026-04-09T18:12:34.999Z</time></trkpt><trkpt lat="44.87515825322061" lon="10.17877863154405"><ele>43.666666666666664</ele><time>2026-04-09T18:12:35.999Z</time></trkpt><trkpt lat="44.875206160789475" lon="10.178475993565295"><ele>44.0</ele><time>2026-04-09T18:12:36.999Z</time></trkpt><trkpt lat="44.87525699198171" lon="10.17815422375284"><ele>44.0</ele><time>2026-04-09T18:12:37.999Z</time></trkpt><trkpt lat="44.875312707097166" lon="10.177825897685409"><ele>44.0</ele><time>2026-04-09T18:12:38.999Z</time></trkpt><trkpt lat="44.875368981951304" lon="10.177501777283128"><ele>44.0</ele><time>2026-04-09T18:12:39.999Z</time></trkpt><trkpt lat="44.87542356978379" lon="10.177187425866537"><ele>44.0</ele><time>2026-04-09T18:12:40.999Z</time></trkpt><trkpt lat="44.875475879066066" lon="10.176880161421833"><ele>44.0</ele><time>2026-04-09T18:12:41.999Z</time></trkpt><trkpt lat="44.8755269509874" lon="10.176577568359722"><ele>44.0</ele><time>2026-04-09T18:12:42.999Z</time></trkpt><trkpt lat="44.87558118706004" lon="10.176257244653778"><ele>44.5</ele><time>2026-04-09T18:12:43.999Z</time></trkpt><trkpt lat="44.87563960094083" lon="10.175911659101297"><ele>45.0</ele><time>2026-04-09T18:12:44.999Z</time></trkpt><trkpt lat="44.87570294784912" lon="10.175541766729816"><ele>45.0</ele><time>2026-04-09T18:12:45.999Z</time></trkpt><trkpt lat="44.87576451043838" lon="10.175175039948785"><ele>45.0</ele><time>2026-04-09T18:12:46.999Z</time></trkpt><trkpt lat="44.87582504825702" lon="10.174810778627473"><ele>45.0</ele><time>2026-04-09T18:12:47.999Z</time></trkpt><trkpt lat="44.87588631789001" lon="10.17444687120115"><ele>45.0</ele><time>2026-04-09T18:12:48.999Z</time></trkpt><trkpt lat="44.875947555083535" lon="10.174081495691613"><ele>46.5</ele><time>2026-04-09T18:12:49.999Z</time></trkpt><trkpt lat="44.87600872010097" lon="10.17371426771553"><ele>48.0</ele><time>2026-04-09T18:12:50.999Z</time></trkpt><trkpt lat="44.8760721459502" lon="10.173348426844814"><ele>48.0</ele><time>2026-04-09T18:12:51.999Z</time></trkpt><trkpt lat="44.876135537187125" lon="10.172980614161407"><ele>48.0</ele><time>2026-04-09T18:12:52.999Z</time></trkpt><trkpt lat="44.8762010055887" lon="10.172604547845346"><ele>47.5</ele><time>2026-04-09T18:12:53.999Z</time></trkpt><trkpt lat="44.87626725017408" lon="10.172203783308683"><ele>47.0</ele><time>2026-04-09T18:12:54.999Z</time></trkpt><trkpt lat="44.876335051462036" lon="10.171780524149748"><ele>46.5</ele><time>2026-04-09T18:12:55.999Z</time></trkpt><trkpt lat="44.87640404557394" lon="10.171350048441816"><ele>46.0</ele><time>2026-04-09T18:12:56.999Z</time></trkpt><trkpt lat="44.87647833411143" lon="10.170913584835626"><ele>47.5</ele><time>2026-04-09T18:12:57.999Z</time></trkpt><trkpt lat="44.87655153944532" lon="10.170489622112799"><ele>49.0</ele><time>2026-04-09T18:12:58.999Z</time></trkpt><trkpt lat="44.87662111608949" lon="10.170065920955004"><ele>49.5</ele><time>2026-04-09T18:12:59.999Z</time></trkpt><trkpt lat="44.87669279569575" lon="10.169643327504003"><ele>50.0</ele><time>2026-04-09T18:13:00.999Z</time></trkpt><trkpt lat="44.87676290719554" lon="10.169220742834296"><ele>50.5</ele><time>2026-04-09T18:13:01.999Z</time></trkpt><trkpt lat="44.87683378631861" lon="10.168797976832867"><ele>51.0</ele><time>2026-04-09T18:13:02.999Z</time></trkpt><trkpt lat="44.876895728716924" lon="10.168379425970622"><ele>49.0</ele><time>2026-04-09T18:13:03.999Z</time></trkpt><trkpt lat="44.87697513477799" lon="10.167959091171165"><ele>47.0</ele><time>2026-04-09T18:13:04.999Z</time></trkpt><trkpt lat="44.877047699004756" lon="10.167536301382551"><ele>46.5</ele><time>2026-04-09T18:13:05.999Z</time></trkpt><trkpt lat="44.87711845565168" lon="10.167113332971203"><ele>46.0</ele><time>2026-04-09T18:13:06.999Z</time></trkpt><trkpt lat="44.877189951128344" lon="10.16668474552902"><ele>46.0</ele><time>2026-04-09T18:13:07.999Z</time></trkpt><trkpt lat="44.8772634067564" lon="10.166247312878175"><ele>46.0</ele><time>2026-04-09T18:13:08.999Z</time></trkpt><trkpt lat="44.87733769198824" lon="10.165806450210994"><ele>46.0</ele><time>2026-04-09T18:13:09.999Z</time></trkpt><trkpt lat="44.87741130522845" lon="10.16536201310675"><ele>46.0</ele><time>2026-04-09T18:13:10.999Z</time></trkpt><trkpt lat="44.87748734069861" lon="10.164912905822394"><ele>46.0</ele><time>2026-04-09T18:13:11.999Z</time></trkpt><trkpt lat="44.877565869501424" lon="10.164460292246675"><ele>46.0</ele><time>2026-04-09T18:13:12.999Z</time></trkpt><trkpt lat="44.87764671210406" lon="10.164001076425274"><ele>46.5</ele><time>2026-04-09T18:13:13.999Z</time></trkpt><trkpt lat="44.877726506006965" lon="10.163542705763337"><ele>47.0</ele><time>2026-04-09T18:13:14.999Z</time></trkpt><trkpt lat="44.877804511461946" lon="10.163081631538216"><ele>47.5</ele><time>2026-04-09T18:13:15.999Z</time></trkpt><trkpt lat="44.87788523872953" lon="10.162600971714392"><ele>48.0</ele><time>2026-04-09T18:13:16.999Z</time></trkpt><trkpt lat="44.87796976957165" lon="10.162102887623304"><ele>47.5</ele><time>2026-04-09T18:13:17.999Z</time></trkpt><trkpt lat="44.878052092469616" lon="10.161591544764573"><ele>47.0</ele><time>2026-04-09T18:13:18.999Z</time></trkpt><trkpt lat="44.87813528562861" lon="10.161098431225483"><ele>46.5</ele><time>2026-04-09T18:13:19.999Z</time></trkpt><trkpt lat="44.878214952786166" lon="10.160628713333407"><ele>46.0</ele><time>2026-04-09T18:13:21Z</time></trkpt><trkpt lat="44.878294955103556" lon="10.1601603691961"><ele>46.0</ele><time>2026-04-09T18:13:22Z</time></trkpt><trkpt lat="44.87837370379994" lon="10.159698392782635"><ele>46.0</ele><time>2026-04-09T18:13:23Z</time></trkpt><trkpt lat="44.87844877651227" lon="10.159244284035744"><ele>46.5</ele><time>2026-04-09T18:13:24Z</time></trkpt><trkpt lat="44.87852314215639" lon="10.158793404124216"><ele>47.0</ele><time>2026-04-09T18:13:25Z</time></trkpt><trkpt lat="44.87859802798549" lon="10.158343897177609"><ele>46.5</ele><time>2026-04-09T18:13:26Z</time></trkpt><trkpt lat="44.878672647784676" lon="10.15789317375578"><ele>46.0</ele><time>2026-04-09T18:13:27Z</time></trkpt><trkpt lat="44.878747746012465" lon="10.157441456641346"><ele>46.0</ele><time>2026-04-09T18:13:28Z</time></trkpt><trkpt lat="44.878824959187845" lon="10.156990202790281"><ele>46.0</ele><time>2026-04-09T18:13:29Z</time></trkpt><trkpt lat="44.87890349197969" lon="10.156538465593465"><ele>46.0</ele><time>2026-04-09T18:13:30Z</time></trkpt><trkpt lat="44.878980550006865" lon="10.156086675220681"><ele>46.0</ele><time>2026-04-09T18:13:31Z</time></trkpt><trkpt lat="44.879056335379275" lon="10.155640781790012"><ele>46.0</ele><time>2026-04-09T18:13:32Z</time></trkpt><trkpt lat="44.87913169687699" lon="10.155193924621507"><ele>46.0</ele><time>2026-04-09T18:13:33Z</time></trkpt><trkpt lat="44.87920720939683" lon="10.154747215187452"><ele>46.0</ele><time>2026-04-09T18:13:34Z</time></trkpt><trkpt lat="44.87928067515127" lon="10.154303852412601"><ele>46.0</ele><time>2026-04-09T18:13:35Z</time></trkpt><trkpt lat="44.87935913503927" lon="10.15384236890975"><ele>46.0</ele><time>2026-04-09T18:13:36Z</time></trkpt><trkpt lat="44.87944142059154" lon="10.153364637308242"><ele>46.0</ele><time>2026-04-09T18:13:37Z</time></trkpt><trkpt lat="44.879529185281044" lon="10.152867871382965"><ele>46.0</ele><time>2026-04-09T18:13:38Z</time></trkpt><trkpt lat="44.87962002453629" lon="10.152374240425207"><ele>46.0</ele><time>2026-04-09T18:13:39Z</time></trkpt><trkpt lat="44.87971028451556" lon="10.151880046602447"><ele>46.5</ele><time>2026-04-09T18:13:40Z</time></trkpt><trkpt lat="44.87979704680147" lon="10.15138392130937"><ele>47.0</ele><time>2026-04-09T18:13:41Z</time></trkpt><trkpt lat="44.87988004740006" lon="10.150896660854565"><ele>46.5</ele><time>2026-04-09T18:13:42Z</time></trkpt><trkpt lat="44.87996373277905" lon="10.150416074904523"><ele>46.0</ele><time>2026-04-09T18:13:43Z</time></trkpt><trkpt lat="44.88004523286446" lon="10.14994471656997"><ele>47.0</ele><time>2026-04-09T18:13:44Z</time></trkpt><trkpt lat="44.880126916132035" lon="10.149481197051772"><ele>48.0</ele><time>2026-04-09T18:13:45Z</time></trkpt><trkpt lat="44.88020640032627" lon="10.149025230080921"><ele>48.0</ele><time>2026-04-09T18:13:46Z</time></trkpt><trkpt lat="44.88028376458156" lon="10.148578224778191"><ele>48.0</ele><time>2026-04-09T18:13:47Z</time></trkpt><trkpt lat="44.880357711466274" lon="10.148140944787226"><ele>48.0</ele><time>2026-04-09T18:13:48Z</time></trkpt><trkpt lat="44.8804316343922" lon="10.147713734513985"><ele>48.0</ele><time>2026-04-09T18:13:49Z</time></trkpt><trkpt lat="44.880502968140306" lon="10.147293592013911"><ele>48.0</ele><time>2026-04-09T18:13:50Z</time></trkpt><trkpt lat="44.88057241925763" lon="10.146882685867963"><ele>48.0</ele><time>2026-04-09T18:13:51Z</time></trkpt><trkpt lat="44.88063919105613" lon="10.146479056425896"><ele>48.0</ele><time>2026-04-09T18:13:52Z</time></trkpt><trkpt lat="44.880710262732265" lon="10.14607216032228"><ele>48.0</ele><time>2026-04-09T18:13:53Z</time></trkpt><trkpt lat="44.88077075055431" lon="10.145685123398598"><ele>48.0</ele><time>2026-04-09T18:13:54Z</time></trkpt><trkpt lat="44.88083701758811" lon="10.145292572265944"><ele>48.0</ele><time>2026-04-09T18:13:55Z</time></trkpt><trkpt lat="44.88090373081859" lon="10.14489682240499"><ele>47.5</ele><time>2026-04-09T18:13:56Z</time></trkpt><trkpt lat="44.88096746815492" lon="10.144496298888951"><ele>47.0</ele><time>2026-04-09T18:13:57Z</time></trkpt><trkpt lat="44.88103035633213" lon="10.144094631100401"><ele>47.0</ele><time>2026-04-09T18:13:58Z</time></trkpt><trkpt lat="44.88109261177619" lon="10.143689914676887"><ele>47.0</ele><time>2026-04-09T18:13:59Z</time></trkpt><trkpt lat="44.88115400886966" lon="10.143282710937845"><ele>48.0</ele><time>2026-04-09T18:14:00Z</time></trkpt><trkpt lat="44.881215394751514" lon="10.142875208872228"><ele>49.0</ele><time>2026-04-09T18:14:01Z</time></trkpt><trkpt lat="44.88127708035479" lon="10.142468301062832"><ele>49.5</ele><time>2026-04-09T18:14:02Z</time></trkpt><trkpt lat="44.88133966207807" lon="10.142062382177805"><ele>50.0</ele><time>2026-04-09T18:14:03Z</time></trkpt><trkpt lat="44.88140326044576" lon="10.141656069044833"><ele>50.0</ele><time>2026-04-09T18:14:04Z</time></trkpt><trkpt lat="44.88146561690028" lon="10.141251705910141"><ele>50.0</ele><time>2026-04-09T18:14:05Z</time></trkpt><trkpt lat="44.881527138252984" lon="10.14084725572449"><ele>50.5</ele><time>2026-04-09T18:14:06Z</time></trkpt><trkpt lat="44.8815896885196" lon="10.140441584682863"><ele>51.0</ele><time>2026-04-09T18:14:07Z</time></trkpt><trkpt lat="44.88165193694629" lon="10.140038056123833"><ele>50.0</ele><time>2026-04-09T18:14:08Z</time></trkpt><trkpt lat="44.88171578993233" lon="10.139634724705877"><ele>49.0</ele><time>2026-04-09T18:14:09Z</time></trkpt><trkpt lat="44.8817781848752" lon="10.139232098293373"><ele>49.5</ele><time>2026-04-09T18:14:10Z</time></trkpt><trkpt lat="44.88184149443815" lon="10.138827760325437"><ele>50.0</ele><time>2026-04-09T18:14:11Z</time></trkpt><trkpt lat="44.88190440325768" lon="10.138424186123855"><ele>49.5</ele><time>2026-04-09T18:14:12Z</time></trkpt><trkpt lat="44.881966876102325" lon="10.138024759130735"><ele>49.0</ele><time>2026-04-09T18:14:13Z</time></trkpt><trkpt lat="44.88202754397169" lon="10.137620873993907"><ele>49.5</ele><time>2026-04-09T18:14:14Z</time></trkpt><trkpt lat="44.882088130459536" lon="10.137219555216292"><ele>50.0</ele><time>2026-04-09T18:14:15Z</time></trkpt><trkpt lat="44.882150516769826" lon="10.1368135912264"><ele>50.5</ele><time>2026-04-09T18:14:15.999Z</time></trkpt><trkpt lat="44.88221035127062" lon="10.136413578279942"><ele>51.0</ele><time>2026-04-09T18:14:16.999Z</time></trkpt><trkpt lat="44.88227121458088" lon="10.136010975408867"><ele>50.5</ele><time>2026-04-09T18:14:17.999Z</time></trkpt><trkpt lat="44.88233347539612" lon="10.135606713494278"><ele>50.0</ele><time>2026-04-09T18:14:18.999Z</time></trkpt><trkpt lat="44.88239679029601" lon="10.135201648614515"><ele>50.5</ele><time>2026-04-09T18:14:19.999Z</time></trkpt><trkpt lat="44.882460392233725" lon="10.134801895016878"><ele>51.0</ele><time>2026-04-09T18:14:20.999Z</time></trkpt><trkpt lat="44.8825224225003" lon="10.134396174318052"><ele>51.0</ele><time>2026-04-09T18:14:21.999Z</time></trkpt><trkpt lat="44.882584194110024" lon="10.133991105515783"><ele>51.0</ele><time>2026-04-09T18:14:22.999Z</time></trkpt><trkpt lat="44.88264351120249" lon="10.133584772936095"><ele>51.5</ele><time>2026-04-09T18:14:23.999Z</time></trkpt><trkpt lat="44.88270425574972" lon="10.1331806273328"><ele>52.0</ele><time>2026-04-09T18:14:24.999Z</time></trkpt><trkpt lat="44.88276017081925" lon="10.13277978104748"><ele>51.0</ele><time>2026-04-09T18:14:25.999Z</time></trkpt><trkpt lat="44.882822680507026" lon="10.132371989107988"><ele>50.0</ele><time>2026-04-09T18:14:26.999Z</time></trkpt><trkpt lat="44.88288356918278" lon="10.131967572535967"><ele>50.0</ele><time>2026-04-09T18:14:27.999Z</time></trkpt><trkpt lat="44.8829434794828" lon="10.131561088736735"><ele>50.0</ele><time>2026-04-09T18:14:28.999Z</time></trkpt><trkpt lat="44.88300546721973" lon="10.131156135678642"><ele>49.5</ele><time>2026-04-09T18:14:29.999Z</time></trkpt><trkpt lat="44.88306754547386" lon="10.13075085509357"><ele>49.0</ele><time>2026-04-09T18:14:30.999Z</time></trkpt><trkpt lat="44.88313145184448" lon="10.130347921547544"><ele>48.5</ele><time>2026-04-09T18:14:31.999Z</time></trkpt><trkpt lat="44.883193601111465" lon="10.12994774575423"><ele>48.0</ele><time>2026-04-09T18:14:32.999Z</time></trkpt><trkpt lat="44.88325573272358" lon="10.1295440006259"><ele>49.0</ele><time>2026-04-09T18:14:33.999Z</time></trkpt><trkpt lat="44.88331623551335" lon="10.129143027164565"><ele>50.0</ele><time>2026-04-09T18:14:34.999Z</time></trkpt><trkpt lat="44.88337572787839" lon="10.128739443345525"><ele>50.0</ele><time>2026-04-09T18:14:35.999Z</time></trkpt><trkpt lat="44.883432752665705" lon="10.128334826076905"><ele>50.0</ele><time>2026-04-09T18:14:36.999Z</time></trkpt><trkpt lat="44.883491382788286" lon="10.12793003976248"><ele>51.0</ele><time>2026-04-09T18:14:37.999Z</time></trkpt><trkpt lat="44.88355340685346" lon="10.127531910911474"><ele>52.0</ele><time>2026-04-09T18:14:38.999Z</time></trkpt><trkpt lat="44.88361506448997" lon="10.12713054615812"><ele>52.0</ele><time>2026-04-09T18:14:39.999Z</time></trkpt><trkpt lat="44.88367562211721" lon="10.126728460665202"><ele>52.0</ele><time>2026-04-09T18:14:40.999Z</time></trkpt><trkpt lat="44.883736721528564" lon="10.126326549218474"><ele>52.0</ele><time>2026-04-09T18:14:41.999Z</time></trkpt><trkpt lat="44.88379765542508" lon="10.125922862087231"><ele>52.0</ele><time>2026-04-09T18:14:42.999Z</time></trkpt><trkpt lat="44.88385885276731" lon="10.125524378706672"><ele>52.5</ele><time>2026-04-09T18:14:43.999Z</time></trkpt><trkpt lat="44.88391873326112" lon="10.125120288015122"><ele>53.0</ele><time>2026-04-09T18:14:44.999Z</time></trkpt><trkpt lat="44.88397948229769" lon="10.12471766570871"><ele>53.0</ele><time>2026-04-09T18:14:45.999Z</time></trkpt><trkpt lat="44.88403944277891" lon="10.124314043394888"><ele>53.0</ele><time>2026-04-09T18:14:46.999Z</time></trkpt><trkpt lat="44.884099879503886" lon="10.123908795488239"><ele>52.5</ele><time>2026-04-09T18:14:47.999Z</time></trkpt><trkpt lat="44.88415996449453" lon="10.123503948451312"><ele>52.0</ele><time>2026-04-09T18:14:48.999Z</time></trkpt><trkpt lat="44.88422067097152" lon="10.123096370138546"><ele>53.0</ele><time>2026-04-09T18:14:49.999Z</time></trkpt><trkpt lat="44.884281268480535" lon="10.12269546789607"><ele>54.0</ele><time>2026-04-09T18:14:50.999Z</time></trkpt><trkpt lat="44.88434156829898" lon="10.122294445036914"><ele>54.5</ele><time>2026-04-09T18:14:51.999Z</time></trkpt><trkpt lat="44.884405457565705" lon="10.121888670061905"><ele>55.0</ele><time>2026-04-09T18:14:52.999Z</time></trkpt><trkpt lat="44.884469395342855" lon="10.121479106791616"><ele>54.5</ele><time>2026-04-09T18:14:53.999Z</time></trkpt><trkpt lat="44.88452935824943" lon="10.121072292717798"><ele>54.0</ele><time>2026-04-09T18:14:54.999Z</time></trkpt><trkpt lat="44.884594669587194" lon="10.120673483795247"><ele>54.0</ele><time>2026-04-09T18:14:55.999Z</time></trkpt><trkpt lat="44.88465790311791" lon="10.1202724027795"><ele>54.0</ele><time>2026-04-09T18:14:56.999Z</time></trkpt><trkpt lat="44.884718472614054" lon="10.119872996651107"><ele>54.0</ele><time>2026-04-09T18:14:57.999Z</time></trkpt><trkpt lat="44.88477971979332" lon="10.119472356181895"><ele>54.0</ele><time>2026-04-09T18:14:58.999Z</time></trkpt><trkpt lat="44.884839141658894" lon="10.119070421533486"><ele>54.0</ele><time>2026-04-09T18:14:59.999Z</time></trkpt><trkpt lat="44.884900243997926" lon="10.118670124331263"><ele>54.0</ele><time>2026-04-09T18:15:00.999Z</time></trkpt><trkpt lat="44.88496464436176" lon="10.118268453870906"><ele>53.5</ele><time>2026-04-09T18:15:01.999Z</time></trkpt><trkpt lat="44.88502685591602" lon="10.11786662315169"><ele>53.0</ele><time>2026-04-09T18:15:02.999Z</time></trkpt><trkpt lat="44.88508730073385" lon="10.11746591200767"><ele>53.0</ele><time>2026-04-09T18:15:03.999Z</time></trkpt><trkpt lat="44.885149597177666" lon="10.117057168204207"><ele>53.0</ele><time>2026-04-09T18:15:04.999Z</time></trkpt><trkpt lat="44.88520888410663" lon="10.11665805204867"><ele>54.0</ele><time>2026-04-09T18:15:05.999Z</time></trkpt><trkpt lat="44.88527024465038" lon="10.11625420054222"><ele>55.0</ele><time>2026-04-09T18:15:06.999Z</time></trkpt><trkpt lat="44.885331285953086" lon="10.115849401975288"><ele>54.5</ele><time>2026-04-09T18:15:07.999Z</time></trkpt><trkpt lat="44.8853928421737" lon="10.115445546702055"><ele>54.0</ele><time>2026-04-09T18:15:08.999Z</time></trkpt><trkpt lat="44.88545318179461" lon="10.115042810392847"><ele>54.0</ele><time>2026-04-09T18:15:09.999Z</time></trkpt><trkpt lat="44.88551377251101" lon="10.114639335446133"><ele>54.0</ele><time>2026-04-09T18:15:10.999Z</time></trkpt><trkpt lat="44.88557593964537" lon="10.114232905939678"><ele>54.5</ele><time>2026-04-09T18:15:11.999Z</time></trkpt><trkpt lat="44.88563721020038" lon="10.113827823826105"><ele>55.0</ele><time>2026-04-09T18:15:12.999Z</time></trkpt><trkpt lat="44.88569957326724" lon="10.113422903939945"><ele>54.5</ele><time>2026-04-09T18:15:13.999Z</time></trkpt><trkpt lat="44.88576124327319" lon="10.113022371850416"><ele>54.0</ele><time>2026-04-09T18:15:14.999Z</time></trkpt><trkpt lat="44.88582405856677" lon="10.112616065268982"><ele>54.0</ele><time>2026-04-09T18:15:15.999Z</time></trkpt><trkpt lat="44.885886001095024" lon="10.11221360293664"><ele>54.0</ele><time>2026-04-09T18:15:16.999Z</time></trkpt><trkpt lat="44.885947825936626" lon="10.111811706341813"><ele>54.0</ele><time>2026-04-09T18:15:17.999Z</time></trkpt><trkpt lat="44.8860087616728" lon="10.111410389344455"><ele>54.0</ele><time>2026-04-09T18:15:18.999Z</time></trkpt><trkpt lat="44.88606986185742" lon="10.11100579705436"><ele>54.0</ele><time>2026-04-09T18:15:19.999Z</time></trkpt><trkpt lat="44.886131862608316" lon="10.110603153992978"><ele>54.0</ele><time>2026-04-09T18:15:20.999Z</time></trkpt><trkpt lat="44.88618977921545" lon="10.110201499475563"><ele>54.0</ele><time>2026-04-09T18:15:21.999Z</time></trkpt><trkpt lat="44.886249422152005" lon="10.109796911594401"><ele>54.0</ele><time>2026-04-09T18:15:22.999Z</time></trkpt><trkpt lat="44.886308640087194" lon="10.109391263973286"><ele>54.5</ele><time>2026-04-09T18:15:23.999Z</time></trkpt><trkpt lat="44.886369608509916" lon="10.108985743855031"><ele>55.0</ele><time>2026-04-09T18:15:24.999Z</time></trkpt><trkpt lat="44.88643128442853" lon="10.108583022129862"><ele>54.5</ele><time>2026-04-09T18:15:25.999Z</time></trkpt><trkpt lat="44.88649530512338" lon="10.108176331984591"><ele>54.0</ele><time>2026-04-09T18:15:27Z</time></trkpt><trkpt lat="44.88655819141408" lon="10.10777162730205"><ele>53.5</ele><time>2026-04-09T18:15:28Z</time></trkpt><trkpt lat="44.88662103742347" lon="10.10736858153773"><ele>53.0</ele><time>2026-04-09T18:15:29Z</time></trkpt><trkpt lat="44.886685484501044" lon="10.106963315959565"><ele>54.0</ele><time>2026-04-09T18:15:30Z</time></trkpt><trkpt lat="44.88674622526031" lon="10.106558384723808"><ele>55.0</ele><time>2026-04-09T18:15:31Z</time></trkpt><trkpt lat="44.886808539041226" lon="10.106157019301977"><ele>55.0</ele><time>2026-04-09T18:15:32Z</time></trkpt><trkpt lat="44.88687609838682" lon="10.105755235640347"><ele>55.0</ele><time>2026-04-09T18:15:33Z</time></trkpt><trkpt lat="44.88694894068729" lon="10.10535584319185"><ele>55.0</ele><time>2026-04-09T18:15:34Z</time></trkpt><trkpt lat="44.88701962711108" lon="10.104955811625272"><ele>55.0</ele><time>2026-04-09T18:15:35Z</time></trkpt><trkpt lat="44.88708615990686" lon="10.104558741796742"><ele>55.5</ele><time>2026-04-09T18:15:36Z</time></trkpt><trkpt lat="44.88715186207503" lon="10.104162029803065"><ele>56.0</ele><time>2026-04-09T18:15:37Z</time></trkpt><trkpt lat="44.887215261189475" lon="10.103764174444157"><ele>56.5</ele><time>2026-04-09T18:15:38Z</time></trkpt><trkpt lat="44.88727770901006" lon="10.103363045423261"><ele>57.0</ele><time>2026-04-09T18:15:39Z</time></trkpt><trkpt lat="44.887336373951754" lon="10.102963768427497"><ele>57.5</ele><time>2026-04-09T18:15:40Z</time></trkpt><trkpt lat="44.88739472850561" lon="10.102561153102117"><ele>58.0</ele><time>2026-04-09T18:15:41Z</time></trkpt><trkpt lat="44.88745201045775" lon="10.102160508862529"><ele>58.0</ele><time>2026-04-09T18:15:42Z</time></trkpt><trkpt lat="44.88750977459223" lon="10.101756425596367"><ele>58.0</ele><time>2026-04-09T18:15:43Z</time></trkpt><trkpt lat="44.88757791370188" lon="10.101338105212994"><ele>57.5</ele><time>2026-04-09T18:15:44Z</time></trkpt><trkpt lat="44.887635978415126" lon="10.100942578016182"><ele>57.0</ele><time>2026-04-09T18:15:45Z</time></trkpt><trkpt lat="44.88769861904669" lon="10.100536409469319"><ele>56.5</ele><time>2026-04-09T18:15:46Z</time></trkpt><trkpt lat="44.8877583459705" lon="10.100134357880117"><ele>56.0</ele><time>2026-04-09T18:15:47Z</time></trkpt><trkpt lat="44.88781745600731" lon="10.099731314516433"><ele>56.0</ele><time>2026-04-09T18:15:48Z</time></trkpt><trkpt lat="44.8878770430678" lon="10.0993237736975"><ele>56.0</ele><time>2026-04-09T18:15:49Z</time></trkpt><trkpt lat="44.88793633236266" lon="10.098917594962959"><ele>55.5</ele><time>2026-04-09T18:15:50Z</time></trkpt><trkpt lat="44.887996298370915" lon="10.09851563743714"><ele>55.0</ele><time>2026-04-09T18:15:51Z</time></trkpt><trkpt lat="44.88805809134459" lon="10.098112792870808"><ele>55.0</ele><time>2026-04-09T18:15:52Z</time></trkpt><trkpt lat="44.88811762041272" lon="10.09771039254654"><ele>55.0</ele><time>2026-04-09T18:15:53Z</time></trkpt><trkpt lat="44.8881775149857" lon="10.097309845918916"><ele>55.0</ele><time>2026-04-09T18:15:54Z</time></trkpt><trkpt lat="44.88823815895292" lon="10.096904940954882"><ele>55.0</ele><time>2026-04-09T18:15:55Z</time></trkpt><trkpt lat="44.888299690676845" lon="10.096502107407995"><ele>54.5</ele><time>2026-04-09T18:15:56Z</time></trkpt><trkpt lat="44.88836269195427" lon="10.096096355232525"><ele>54.0</ele><time>2026-04-09T18:15:57Z</time></trkpt><trkpt lat="44.88842414351386" lon="10.095694964110907"><ele>54.0</ele><time>2026-04-09T18:15:58Z</time></trkpt><trkpt lat="44.888485208767776" lon="10.095293291011185"><ele>54.0</ele><time>2026-04-09T18:15:59Z</time></trkpt><trkpt lat="44.888546592099026" lon="10.094890353682594"><ele>54.0</ele><time>2026-04-09T18:16:00Z</time></trkpt><trkpt lat="44.888607144275795" lon="10.094487061469769"><ele>54.0</ele><time>2026-04-09T18:16:01Z</time></trkpt><trkpt lat="44.888667550423506" lon="10.094084870269675"><ele>55.0</ele><time>2026-04-09T18:16:02Z</time></trkpt><trkpt lat="44.888724084998344" lon="10.093683663205793"><ele>56.0</ele><time>2026-04-09T18:16:03Z</time></trkpt><trkpt lat="44.88877752904871" lon="10.093278554877637"><ele>56.0</ele><time>2026-04-09T18:16:04Z</time></trkpt><trkpt lat="44.88883227824973" lon="10.092873356852818"><ele>56.0</ele><time>2026-04-09T18:16:05Z</time></trkpt><trkpt lat="44.88889155784796" lon="10.092469283521426"><ele>56.0</ele><time>2026-04-09T18:16:06Z</time></trkpt><trkpt lat="44.8889404003679" lon="10.092054913445711"><ele>56.0</ele><time>2026-04-09T18:16:07Z</time></trkpt><trkpt lat="44.88901157702018" lon="10.091663001236276"><ele>56.5</ele><time>2026-04-09T18:16:08Z</time></trkpt><trkpt lat="44.88907193260469" lon="10.091260165585673"><ele>57.0</ele><time>2026-04-09T18:16:09Z</time></trkpt><trkpt lat="44.88912946826693" lon="10.090856116164943"><ele>56.5</ele><time>2026-04-09T18:16:10Z</time></trkpt><trkpt lat="44.88918911497055" lon="10.09045210604955"><ele>56.0</ele><time>2026-04-09T18:16:11Z</time></trkpt><trkpt lat="44.88924961004643" lon="10.090045025379279"><ele>56.0</ele><time>2026-04-09T18:16:12Z</time></trkpt><trkpt lat="44.88930957685681" lon="10.089645877540843"><ele>56.0</ele><time>2026-04-09T18:16:13Z</time></trkpt><trkpt lat="44.88937076430758" lon="10.089243685561573"><ele>57.0</ele><time>2026-04-09T18:16:14Z</time></trkpt><trkpt lat="44.889436063136294" lon="10.088843153843863"><ele>58.0</ele><time>2026-04-09T18:16:15Z</time></trkpt><trkpt lat="44.88949961697716" lon="10.088444711139827"><ele>58.0</ele><time>2026-04-09T18:16:16Z</time></trkpt><trkpt lat="44.8895708468567" lon="10.088037856937259"><ele>58.0</ele><time>2026-04-09T18:16:17Z</time></trkpt><trkpt lat="44.88962658311889" lon="10.087646028617833"><ele>58.0</ele><time>2026-04-09T18:16:18Z</time></trkpt><trkpt lat="44.88968876264155" lon="10.087249089856641"><ele>58.0</ele><time>2026-04-09T18:16:19Z</time></trkpt><trkpt lat="44.88975000065383" lon="10.08684809886761"><ele>57.0</ele><time>2026-04-09T18:16:19.999Z</time></trkpt><trkpt lat="44.88981222293097" lon="10.086443948875125"><ele>56.0</ele><time>2026-04-09T18:16:20.999Z</time></trkpt><trkpt lat="44.88987025822944" lon="10.086041134642102"><ele>57.0</ele><time>2026-04-09T18:16:21.999Z</time></trkpt><trkpt lat="44.8899295206151" lon="10.085634705472627"><ele>58.0</ele><time>2026-04-09T18:16:22.999Z</time></trkpt><trkpt lat="44.88998964496714" lon="10.085227928291514"><ele>58.0</ele><time>2026-04-09T18:16:23.999Z</time></trkpt><trkpt lat="44.89005110732435" lon="10.084822629528396"><ele>58.0</ele><time>2026-04-09T18:16:24.999Z</time></trkpt><trkpt lat="44.89011317357201" lon="10.084415341370878"><ele>58.0</ele><time>2026-04-09T18:16:25.999Z</time></trkpt><trkpt lat="44.89017667739939" lon="10.084008579399399"><ele>58.0</ele><time>2026-04-09T18:16:26.999Z</time></trkpt><trkpt lat="44.89024141141808" lon="10.083601289606833"><ele>57.0</ele><time>2026-04-09T18:16:27.999Z</time></trkpt><trkpt lat="44.89030483179699" lon="10.08319491255228"><ele>56.0</ele><time>2026-04-09T18:16:28.999Z</time></trkpt><trkpt lat="44.890368955579454" lon="10.08278743992876"><ele>56.0</ele><time>2026-04-09T18:16:29.999Z</time></trkpt><trkpt lat="44.890429286746546" lon="10.082381877461264"><ele>56.0</ele><time>2026-04-09T18:16:30.999Z</time></trkpt><trkpt lat="44.89048955930949" lon="10.081974731605905"><ele>56.5</ele><time>2026-04-09T18:16:31.999Z</time></trkpt><trkpt lat="44.890549833755344" lon="10.081572267468724"><ele>57.0</ele><time>2026-04-09T18:16:32.999Z</time></trkpt><trkpt lat="44.89060933223581" lon="10.08117094389854"><ele>56.5</ele><time>2026-04-09T18:16:33.999Z</time></trkpt><trkpt lat="44.890671030105395" lon="10.080763873941683"><ele>56.0</ele><time>2026-04-09T18:16:34.999Z</time></trkpt><trkpt lat="44.89073056229696" lon="10.080360492866262"><ele>56.0</ele><time>2026-04-09T18:16:35.999Z</time></trkpt><trkpt lat="44.89079241680561" lon="10.079955264947019"><ele>56.0</ele><time>2026-04-09T18:16:36.999Z</time></trkpt><trkpt lat="44.89085232182084" lon="10.079550431650393"><ele>56.0</ele><time>2026-04-09T18:16:37.999Z</time></trkpt><trkpt lat="44.89091294596509" lon="10.079145694007979"><ele>56.0</ele><time>2026-04-09T18:16:38.999Z</time></trkpt><trkpt lat="44.89097419542025" lon="10.078741788143455"><ele>56.0</ele><time>2026-04-09T18:16:39.999Z</time></trkpt><trkpt lat="44.89103859838897" lon="10.078338075769349"><ele>56.0</ele><time>2026-04-09T18:16:40.999Z</time></trkpt><trkpt lat="44.89110061600559" lon="10.077935578713829"><ele>57.0</ele><time>2026-04-09T18:16:41.999Z</time></trkpt><trkpt lat="44.891160282587116" lon="10.07753566751596"><ele>58.0</ele><time>2026-04-09T18:16:42.999Z</time></trkpt><trkpt lat="44.89122005576674" lon="10.077137335955957"><ele>58.5</ele><time>2026-04-09T18:16:43.999Z</time></trkpt><trkpt lat="44.891284942896455" lon="10.076736133071812"><ele>59.0</ele><time>2026-04-09T18:16:44.999Z</time></trkpt><trkpt lat="44.89134620105264" lon="10.076336212171066"><ele>58.0</ele><time>2026-04-09T18:16:45.999Z</time></trkpt><trkpt lat="44.89140271737593" lon="10.075937737086678"><ele>57.0</ele><time>2026-04-09T18:16:46.999Z</time></trkpt><trkpt lat="44.891464058084274" lon="10.075538754327342"><ele>57.0</ele><time>2026-04-09T18:16:47.999Z</time></trkpt><trkpt lat="44.891524021639455" lon="10.075136189632222"><ele>57.0</ele><time>2026-04-09T18:16:48.999Z</time></trkpt><trkpt lat="44.89158506343685" lon="10.074734459252516"><ele>57.0</ele><time>2026-04-09T18:16:49.999Z</time></trkpt><trkpt lat="44.89164724116422" lon="10.074329344006191"><ele>57.0</ele><time>2026-04-09T18:16:50.999Z</time></trkpt><trkpt lat="44.89170874332429" lon="10.07392814392297"><ele>57.0</ele><time>2026-04-09T18:16:51.999Z</time></trkpt><trkpt lat="44.8917717346946" lon="10.07352230495988"><ele>57.0</ele><time>2026-04-09T18:16:52.999Z</time></trkpt><trkpt lat="44.89183202294559" lon="10.073120086240614"><ele>57.0</ele><time>2026-04-09T18:16:53.999Z</time></trkpt><trkpt lat="44.891890741151656" lon="10.07271943382984"><ele>57.0</ele><time>2026-04-09T18:16:54.999Z</time></trkpt><trkpt lat="44.891951957114514" lon="10.072313491173642"><ele>57.0</ele><time>2026-04-09T18:16:55.999Z</time></trkpt><trkpt lat="44.89201218898029" lon="10.07191198851687"><ele>57.0</ele><time>2026-04-09T18:16:56.999Z</time></trkpt><trkpt lat="44.89207168974023" lon="10.071506711828945"><ele>57.5</ele><time>2026-04-09T18:16:57.999Z</time></trkpt><trkpt lat="44.892130359119925" lon="10.071103554382628"><ele>58.0</ele><time>2026-04-09T18:16:58.999Z</time></trkpt><trkpt lat="44.89218919341619" lon="10.070702783419671"><ele>58.5</ele><time>2026-04-09T18:16:59.999Z</time></trkpt><trkpt lat="44.892247327507114" lon="10.070297327570227"><ele>59.0</ele><time>2026-04-09T18:17:00.999Z</time></trkpt><trkpt lat="44.89230345420316" lon="10.069889912865433"><ele>59.0</ele><time>2026-04-09T18:17:01.999Z</time></trkpt><trkpt lat="44.89235847325497" lon="10.06948468066556"><ele>59.0</ele><time>2026-04-09T18:17:02.999Z</time></trkpt><trkpt lat="44.892413960386804" lon="10.06907373387583"><ele>59.0</ele><time>2026-04-09T18:17:03.999Z</time></trkpt><trkpt lat="44.8924723167936" lon="10.068672427632238"><ele>59.0</ele><time>2026-04-09T18:17:04.999Z</time></trkpt><trkpt lat="44.8925340625314" lon="10.068265931324436"><ele>59.5</ele><time>2026-04-09T18:17:05.999Z</time></trkpt><trkpt lat="44.89259637909467" lon="10.06786321779076"><ele>60.0</ele><time>2026-04-09T18:17:06.999Z</time></trkpt><trkpt lat="44.89265855147705" lon="10.067457332516021"><ele>60.5</ele><time>2026-04-09T18:17:07.999Z</time></trkpt><trkpt lat="44.892719507236" lon="10.067054757586739"><ele>61.0</ele><time>2026-04-09T18:17:08.999Z</time></trkpt><trkpt lat="44.89277826671332" lon="10.066653291942416"><ele>60.5</ele><time>2026-04-09T18:17:09.999Z</time></trkpt><trkpt lat="44.89283834554386" lon="10.066250964240623"><ele>60.0</ele><time>2026-04-09T18:17:10.999Z</time></trkpt><trkpt lat="44.89290055878993" lon="10.065847941479081"><ele>59.5</ele><time>2026-04-09T18:17:11.999Z</time></trkpt><trkpt lat="44.89296334130628" lon="10.065444916327012"><ele>59.0</ele><time>2026-04-09T18:17:12.999Z</time></trkpt><trkpt lat="44.89302367745743" lon="10.065043123871263"><ele>58.5</ele><time>2026-04-09T18:17:13.999Z</time></trkpt><trkpt lat="44.893082949697344" lon="10.064643896690972"><ele>58.0</ele><time>2026-04-09T18:17:14.999Z</time></trkpt><trkpt lat="44.89314275500586" lon="10.06423799117865"><ele>58.5</ele><time>2026-04-09T18:17:15.999Z</time></trkpt><trkpt lat="44.89320411517416" lon="10.063835040395752"><ele>59.0</ele><time>2026-04-09T18:17:16.999Z</time></trkpt><trkpt lat="44.893264843157354" lon="10.063432891974818"><ele>59.0</ele><time>2026-04-09T18:17:17.999Z</time></trkpt><trkpt lat="44.8933266037329" lon="10.063028147920575"><ele>59.0</ele><time>2026-04-09T18:17:18.999Z</time></trkpt><trkpt lat="44.89338771527635" lon="10.062626415744283"><ele>59.0</ele><time>2026-04-09T18:17:19.999Z</time></trkpt><trkpt lat="44.89344846351087" lon="10.062226027241019"><ele>59.0</ele><time>2026-04-09T18:17:20.999Z</time></trkpt><trkpt lat="44.89350922860668" lon="10.061819759664456"><ele>59.0</ele><time>2026-04-09T18:17:21.999Z</time></trkpt><trkpt lat="44.89356856480688" lon="10.061417827530935"><ele>59.0</ele><time>2026-04-09T18:17:22.999Z</time></trkpt><trkpt lat="44.893629499914155" lon="10.061014762890025"><ele>58.0</ele><time>2026-04-09T18:17:23.999Z</time></trkpt><trkpt lat="44.89369090265205" lon="10.060612548331457"><ele>57.0</ele><time>2026-04-09T18:17:24.999Z</time></trkpt><trkpt lat="44.89375265903364" lon="10.060206324588734"><ele>57.0</ele><time>2026-04-09T18:17:25.999Z</time></trkpt><trkpt lat="44.89381420954788" lon="10.059805020986849"><ele>57.0</ele><time>2026-04-09T18:17:26.999Z</time></trkpt><trkpt lat="44.893877208218306" lon="10.059401466752727"><ele>57.5</ele><time>2026-04-09T18:17:27.999Z</time></trkpt><trkpt lat="44.89393866719745" lon="10.059003062858475"><ele>58.0</ele><time>2026-04-09T18:17:28.999Z</time></trkpt><trkpt lat="44.89400084204397" lon="10.058600225621984"><ele>59.0</ele><time>2026-04-09T18:17:29.999Z</time></trkpt><trkpt lat="44.89406275519654" lon="10.058197994123272"><ele>60.0</ele><time>2026-04-09T18:17:30.999Z</time></trkpt><trkpt lat="44.89412374576695" lon="10.05778171146433"><ele>61.0</ele><time>2026-04-09T18:17:31.999Z</time></trkpt><trkpt lat="44.89418496144457" lon="10.057358625398585"><ele>62.0</ele><time>2026-04-09T18:17:33Z</time></trkpt><trkpt lat="44.89424700453431" lon="10.056936300050324"><ele>60.0</ele><time>2026-04-09T18:17:34Z</time></trkpt><trkpt lat="44.894312135749566" lon="10.056512321849764"><ele>58.0</ele><time>2026-04-09T18:17:35Z</time></trkpt><trkpt lat="44.89437884996002" lon="10.056077056820154"><ele>59.0</ele><time>2026-04-09T18:17:36Z</time></trkpt><trkpt lat="44.894457508044255" lon="10.055635500412432"><ele>60.0</ele><time>2026-04-09T18:17:37Z</time></trkpt><trkpt lat="44.894520807477484" lon="10.055174143307053"><ele>60.0</ele><time>2026-04-09T18:17:38Z</time></trkpt><trkpt lat="44.89459478457738" lon="10.054745141586"><ele>60.0</ele><time>2026-04-09T18:17:39Z</time></trkpt><trkpt lat="44.89466971878494" lon="10.054325491260373"><ele>59.5</ele><time>2026-04-09T18:17:40Z</time></trkpt><trkpt lat="44.89475102205562" lon="10.053907839100447"><ele>59.0</ele><time>2026-04-09T18:17:41Z</time></trkpt><trkpt lat="44.89483760476468" lon="10.053495539935556"><ele>59.0</ele><time>2026-04-09T18:17:42Z</time></trkpt><trkpt lat="44.89493014019874" lon="10.053087656858668"><ele>59.0</ele><time>2026-04-09T18:17:43Z</time></trkpt><trkpt lat="44.895027864711274" lon="10.052680646215885"><ele>58.5</ele><time>2026-04-09T18:17:44Z</time></trkpt><trkpt lat="44.89512756779318" lon="10.052278989236079"><ele>58.0</ele><time>2026-04-09T18:17:45Z</time></trkpt><trkpt lat="44.89523149221425" lon="10.051880065062841"><ele>59.5</ele><time>2026-04-09T18:17:46Z</time></trkpt><trkpt lat="44.895339586209495" lon="10.051493653570546"><ele>61.0</ele><time>2026-04-09T18:17:47Z</time></trkpt><trkpt lat="44.89545253776796" lon="10.051106083924626"><ele>61.5</ele><time>2026-04-09T18:17:48Z</time></trkpt><trkpt lat="44.895570996100915" lon="10.050716020512509"><ele>62.0</ele><time>2026-04-09T18:17:49Z</time></trkpt><trkpt lat="44.895696644817846" lon="10.050333445829903"><ele>62.0</ele><time>2026-04-09T18:17:50Z</time></trkpt><trkpt lat="44.89583175725672" lon="10.049957594859018"><ele>62.0</ele><time>2026-04-09T18:17:51Z</time></trkpt><trkpt lat="44.89596965966837" lon="10.049580891033388"><ele>62.0</ele><time>2026-04-09T18:17:52Z</time></trkpt><trkpt lat="44.8961070494479" lon="10.049204106921836"><ele>62.0</ele><time>2026-04-09T18:17:53Z</time></trkpt><trkpt lat="44.89624691579397" lon="10.048833435864664"><ele>62.0</ele><time>2026-04-09T18:17:54Z</time></trkpt><trkpt lat="44.896390483356576" lon="10.04847113456374"><ele>62.0</ele><time>2026-04-09T18:17:55Z</time></trkpt><trkpt lat="44.89653806507379" lon="10.048118710049181"><ele>61.0</ele><time>2026-04-09T18:17:56Z</time></trkpt><trkpt lat="44.896688279669064" lon="10.047768368163103"><ele>60.0</ele><time>2026-04-09T18:17:57Z</time></trkpt><trkpt lat="44.89683625991338" lon="10.047424611925516"><ele>60.0</ele><time>2026-04-09T18:17:58Z</time></trkpt><trkpt lat="44.89698693093786" lon="10.04708709253643"><ele>60.0</ele><time>2026-04-09T18:17:59Z</time></trkpt><trkpt lat="44.89714322722486" lon="10.046752493480758"><ele>60.0</ele><time>2026-04-09T18:18:00Z</time></trkpt><trkpt lat="44.89729931743713" lon="10.046426075614168"><ele>60.0</ele><time>2026-04-09T18:18:01Z</time></trkpt><trkpt lat="44.89745883536045" lon="10.046097769054615"><ele>60.0</ele><time>2026-04-09T18:18:02Z</time></trkpt><trkpt lat="44.89761761795834" lon="10.045772577896063"><ele>60.0</ele><time>2026-04-09T18:18:03Z</time></trkpt><trkpt lat="44.89777771340095" lon="10.045448636372033"><ele>60.0</ele><time>2026-04-09T18:18:04Z</time></trkpt><trkpt lat="44.89794221263084" lon="10.045112922129569"><ele>60.0</ele><time>2026-04-09T18:18:05Z</time></trkpt><trkpt lat="44.89810726519261" lon="10.044779201381711"><ele>60.5</ele><time>2026-04-09T18:18:06Z</time></trkpt><trkpt lat="44.89827255482643" lon="10.044436978429967"><ele>61.0</ele><time>2026-04-09T18:18:07Z</time></trkpt><trkpt lat="44.89843699513394" lon="10.04409163272613"><ele>61.0</ele><time>2026-04-09T18:18:08Z</time></trkpt><trkpt lat="44.8986048514795" lon="10.043742017718396"><ele>61.0</ele><time>2026-04-09T18:18:09Z</time></trkpt><trkpt lat="44.89877394794773" lon="10.043397579308836"><ele>62.0</ele><time>2026-04-09T18:18:10Z</time></trkpt><trkpt lat="44.89894343932382" lon="10.043048577273938"><ele>63.0</ele><time>2026-04-09T18:18:11Z</time></trkpt><trkpt lat="44.89911037476054" lon="10.042697457557304"><ele>61.5</ele><time>2026-04-09T18:18:12Z</time></trkpt><trkpt lat="44.89928063692975" lon="10.042351837067852"><ele>60.0</ele><time>2026-04-09T18:18:13Z</time></trkpt><trkpt lat="44.89944581585221" lon="10.04200691276516"><ele>60.0</ele><time>2026-04-09T18:18:14Z</time></trkpt><trkpt lat="44.89961416646024" lon="10.04165690100702"><ele>60.0</ele><time>2026-04-09T18:18:15Z</time></trkpt><trkpt lat="44.899780714004976" lon="10.041308921080864"><ele>60.0</ele><time>2026-04-09T18:18:16Z</time></trkpt><trkpt lat="44.899947127917144" lon="10.040964217754267"><ele>60.0</ele><time>2026-04-09T18:18:17Z</time></trkpt><trkpt lat="44.90010873063034" lon="10.040619466871322"><ele>60.0</ele><time>2026-04-09T18:18:18Z</time></trkpt><trkpt lat="44.90027149129221" lon="10.040273870268257"><ele>60.0</ele><time>2026-04-09T18:18:19Z</time></trkpt><trkpt lat="44.900434873365214" lon="10.039933302079216"><ele>60.0</ele><time>2026-04-09T18:18:20Z</time></trkpt><trkpt lat="44.90059903738629" lon="10.03959606763672"><ele>60.0</ele><time>2026-04-09T18:18:21Z</time></trkpt><trkpt lat="44.90076410148271" lon="10.039259293319127"><ele>59.0</ele><time>2026-04-09T18:18:22Z</time></trkpt><trkpt lat="44.90092879368241" lon="10.03892359638301"><ele>58.0</ele><time>2026-04-09T18:18:23Z</time></trkpt><trkpt lat="44.90109925508021" lon="10.038572602359764"><ele>58.0</ele><time>2026-04-09T18:18:24Z</time></trkpt><trkpt lat="44.90127554207887" lon="10.038213013268175"><ele>58.0</ele><time>2026-04-09T18:18:24.999Z</time></trkpt><trkpt lat="44.90145452994291" lon="10.037847196737332"><ele>58.0</ele><time>2026-04-09T18:18:25.999Z</time></trkpt><trkpt lat="44.901634024032525" lon="10.037481732445773"><ele>58.0</ele><time>2026-04-09T18:18:26.999Z</time></trkpt><trkpt lat="44.90181242854595" lon="10.037115109399089"><ele>57.5</ele><time>2026-04-09T18:18:27.999Z</time></trkpt><trkpt lat="44.901990651302796" lon="10.036750505598949"><ele>57.0</ele><time>2026-04-09T18:18:28.999Z</time></trkpt><trkpt lat="44.90216938586618" lon="10.036388820742662"><ele>57.0</ele><time>2026-04-09T18:18:29.999Z</time></trkpt><trkpt lat="44.90234974012856" lon="10.036032759878987"><ele>57.0</ele><time>2026-04-09T18:18:30.999Z</time></trkpt><trkpt lat="44.90253007579604" lon="10.035674682828448"><ele>57.0</ele><time>2026-04-09T18:18:31.999Z</time></trkpt><trkpt lat="44.90271146241787" lon="10.035316225876514"><ele>57.0</ele><time>2026-04-09T18:18:32.999Z</time></trkpt><trkpt lat="44.902889349396155" lon="10.034956311339238"><ele>57.0</ele><time>2026-04-09T18:18:33.999Z</time></trkpt><trkpt lat="44.90306612323713" lon="10.034592317889059"><ele>57.0</ele><time>2026-04-09T18:18:34.999Z</time></trkpt><trkpt lat="44.903242059283286" lon="10.034231387038298"><ele>55.5</ele><time>2026-04-09T18:18:35.999Z</time></trkpt><trkpt lat="44.903420957672274" lon="10.033870194875064"><ele>54.0</ele><time>2026-04-09T18:18:36.999Z</time></trkpt><trkpt lat="44.903599675156116" lon="10.033510347886327"><ele>55.0</ele><time>2026-04-09T18:18:37.999Z</time></trkpt><trkpt lat="44.90377827695444" lon="10.033150095649736"><ele>56.0</ele><time>2026-04-09T18:18:38.999Z</time></trkpt><trkpt lat="44.90395481377811" lon="10.032788046291348"><ele>56.5</ele><time>2026-04-09T18:18:39.999Z</time></trkpt><trkpt lat="44.90413130231781" lon="10.032424155370006"><ele>57.0</ele><time>2026-04-09T18:18:40.999Z</time></trkpt><trkpt lat="44.904307953880725" lon="10.032060056568312"><ele>56.5</ele><time>2026-04-09T18:18:41.999Z</time></trkpt><trkpt lat="44.90448402603884" lon="10.03169810666557"><ele>56.0</ele><time>2026-04-09T18:18:42.999Z</time></trkpt><trkpt lat="44.90466096681518" lon="10.03133610122"><ele>56.0</ele><time>2026-04-09T18:18:43.999Z</time></trkpt><trkpt lat="44.90483675484769" lon="10.030979067199342"><ele>56.0</ele><time>2026-04-09T18:18:44.999Z</time></trkpt><trkpt lat="44.90501443231947" lon="10.03061922361472"><ele>55.0</ele><time>2026-04-09T18:18:45.999Z</time></trkpt><trkpt lat="44.90519315515282" lon="10.030258269086287"><ele>54.0</ele><time>2026-04-09T18:18:46.999Z</time></trkpt><trkpt lat="44.905369768744954" lon="10.029895761953624"><ele>54.0</ele><time>2026-04-09T18:18:47.999Z</time></trkpt><trkpt lat="44.90552702257982" lon="10.02954770930712"><ele>54.0</ele><time>2026-04-09T18:18:48.999Z</time></trkpt><trkpt lat="44.905714918959276" lon="10.029173223535752"><ele>54.5</ele><time>2026-04-09T18:18:49.999Z</time></trkpt><trkpt lat="44.90589037827819" lon="10.028807774596414"><ele>55.0</ele><time>2026-04-09T18:18:50.999Z</time></trkpt><trkpt lat="44.906065520931236" lon="10.028445978824223"><ele>56.0</ele><time>2026-04-09T18:18:51.999Z</time></trkpt><trkpt lat="44.90624113384004" lon="10.028081293201398"><ele>57.0</ele><time>2026-04-09T18:18:52.999Z</time></trkpt><trkpt lat="44.90641859415341" lon="10.02772253175892"><ele>56.5</ele><time>2026-04-09T18:18:53.999Z</time></trkpt><trkpt lat="44.90659652049586" lon="10.027359942692671"><ele>56.0</ele><time>2026-04-09T18:18:54.999Z</time></trkpt><trkpt lat="44.906775422232904" lon="10.027000581480323"><ele>56.5</ele><time>2026-04-09T18:18:55.999Z</time></trkpt><trkpt lat="44.90695222963103" lon="10.026640220381323"><ele>57.0</ele><time>2026-04-09T18:18:56.999Z</time></trkpt><trkpt lat="44.90712844214166" lon="10.026279444449198"><ele>57.0</ele><time>2026-04-09T18:18:57.999Z</time></trkpt><trkpt lat="44.90730367500461" lon="10.025915707253912"><ele>57.0</ele><time>2026-04-09T18:18:58.999Z</time></trkpt><trkpt lat="44.907482365954756" lon="10.02555471810713"><ele>56.0</ele><time>2026-04-09T18:18:59.999Z</time></trkpt><trkpt lat="44.907659144042285" lon="10.02519142404624"><ele>55.0</ele><time>2026-04-09T18:19:00.999Z</time></trkpt><trkpt lat="44.90783603927118" lon="10.024827925851719"><ele>55.0</ele><time>2026-04-09T18:19:01.999Z</time></trkpt><trkpt lat="44.90800948235732" lon="10.02446360495069"><ele>55.0</ele><time>2026-04-09T18:19:02.999Z</time></trkpt><trkpt lat="44.908186935241844" lon="10.024098970207751"><ele>55.5</ele><time>2026-04-09T18:19:03.999Z</time></trkpt><trkpt lat="44.90836253031111" lon="10.023731384689576"><ele>56.0</ele><time>2026-04-09T18:19:04.999Z</time></trkpt><trkpt lat="44.90853750163126" lon="10.023365974541232"><ele>57.0</ele><time>2026-04-09T18:19:05.999Z</time></trkpt><trkpt lat="44.90871434775606" lon="10.023001553384386"><ele>58.0</ele><time>2026-04-09T18:19:06.999Z</time></trkpt><trkpt lat="44.908893543216706" lon="10.022638778702355"><ele>57.5</ele><time>2026-04-09T18:19:07.999Z</time></trkpt><trkpt lat="44.90907325199889" lon="10.022281356225685"><ele>57.0</ele><time>2026-04-09T18:19:08.999Z</time></trkpt><trkpt lat="44.90925043561959" lon="10.021917831002249"><ele>56.5</ele><time>2026-04-09T18:19:09.999Z</time></trkpt><trkpt lat="44.90942889724897" lon="10.021559362408233"><ele>56.0</ele><time>2026-04-09T18:19:10.999Z</time></trkpt><trkpt lat="44.90960432110758" lon="10.021197840526389"><ele>56.0</ele><time>2026-04-09T18:19:11.999Z</time></trkpt><trkpt lat="44.90977933862615" lon="10.020836191555178"><ele>56.0</ele><time>2026-04-09T18:19:12.999Z</time></trkpt><trkpt lat="44.90995491741413" lon="10.02047394524373"><ele>55.5</ele><time>2026-04-09T18:19:13.999Z</time></trkpt><trkpt lat="44.91012778956154" lon="10.020111623229635"><ele>55.0</ele><time>2026-04-09T18:19:14.999Z</time></trkpt><trkpt lat="44.9102949282426" lon="10.019744608387457"><ele>55.0</ele><time>2026-04-09T18:19:15.999Z</time></trkpt><trkpt lat="44.910461769998506" lon="10.019374276035187"><ele>55.0</ele><time>2026-04-09T18:19:16.999Z</time></trkpt><trkpt lat="44.910634236983284" lon="10.019010783770993"><ele>54.5</ele><time>2026-04-09T18:19:17.999Z</time></trkpt><trkpt lat="44.910806746446966" lon="10.018649666069647"><ele>54.0</ele><time>2026-04-09T18:19:18.999Z</time></trkpt><trkpt lat="44.91098289453514" lon="10.018287749065141"><ele>54.0</ele><time>2026-04-09T18:19:19.999Z</time></trkpt><trkpt lat="44.91115605632642" lon="10.017922776571083"><ele>54.0</ele><time>2026-04-09T18:19:20.999Z</time></trkpt><trkpt lat="44.91133269221838" lon="10.017560793252656"><ele>55.0</ele><time>2026-04-09T18:19:21.999Z</time></trkpt><trkpt lat="44.91151012973176" lon="10.017200931412084"><ele>56.0</ele><time>2026-04-09T18:19:22.999Z</time></trkpt><trkpt lat="44.91168939776652" lon="10.0168418610708"><ele>55.5</ele><time>2026-04-09T18:19:23.999Z</time></trkpt><trkpt lat="44.91187363486734" lon="10.016487222055696"><ele>55.0</ele><time>2026-04-09T18:19:24.999Z</time></trkpt><trkpt lat="44.91205535761589" lon="10.016130310460328"><ele>55.5</ele><time>2026-04-09T18:19:25.999Z</time></trkpt><trkpt lat="44.91223764938527" lon="10.015769787033815"><ele>56.0</ele><time>2026-04-09T18:19:26.999Z</time></trkpt><trkpt lat="44.91241914038789" lon="10.015414275965089"><ele>55.0</ele><time>2026-04-09T18:19:27.999Z</time></trkpt><trkpt lat="44.91259733142911" lon="10.015051159041104"><ele>54.0</ele><time>2026-04-09T18:19:28.999Z</time></trkpt><trkpt lat="44.91277560989574" lon="10.014690086777678"><ele>54.0</ele><time>2026-04-09T18:19:29.999Z</time></trkpt><trkpt lat="44.91295498780319" lon="10.01433015847749"><ele>54.0</ele><time>2026-04-09T18:19:30.999Z</time></trkpt><trkpt lat="44.9131336890191" lon="10.013968425173974"><ele>55.0</ele><time>2026-04-09T18:19:31.999Z</time></trkpt><trkpt lat="44.91331225892643" lon="10.01360902238761"><ele>56.0</ele><time>2026-04-09T18:19:32.999Z</time></trkpt><trkpt lat="44.91348971876367" lon="10.013246102398886"><ele>56.0</ele><time>2026-04-09T18:19:33.999Z</time></trkpt><trkpt lat="44.91366589512142" lon="10.012882463440171"><ele>56.0</ele><time>2026-04-09T18:19:34.999Z</time></trkpt><trkpt lat="44.913842726692465" lon="10.01252283616161"><ele>56.5</ele><time>2026-04-09T18:19:35.999Z</time></trkpt><trkpt lat="44.914019669735474" lon="10.012159927695063"><ele>57.0</ele><time>2026-04-09T18:19:36.999Z</time></trkpt><trkpt lat="44.914195324764904" lon="10.011797087847793"><ele>56.0</ele><time>2026-04-09T18:19:37.999Z</time></trkpt><trkpt lat="44.91437087570556" lon="10.011433371182365"><ele>55.0</ele><time>2026-04-09T18:19:39Z</time></trkpt><trkpt lat="44.91454568661053" lon="10.011070561448316"><ele>54.5</ele><time>2026-04-09T18:19:40Z</time></trkpt><trkpt lat="44.914720926822795" lon="10.010704483569944"><ele>54.0</ele><time>2026-04-09T18:19:41Z</time></trkpt><trkpt lat="44.91489537139841" lon="10.010341008982701"><ele>54.0</ele><time>2026-04-09T18:19:42Z</time></trkpt><trkpt lat="44.91507398460059" lon="10.009979475322085"><ele>54.0</ele><time>2026-04-09T18:19:43Z</time></trkpt><trkpt lat="44.91525195816494" lon="10.009617294247043"><ele>54.0</ele><time>2026-04-09T18:19:44Z</time></trkpt><trkpt lat="44.91542606325592" lon="10.009253814276942"><ele>54.0</ele><time>2026-04-09T18:19:45Z</time></trkpt><trkpt lat="44.915601820276585" lon="10.008888013420277"><ele>54.5</ele><time>2026-04-09T18:19:46Z</time></trkpt><trkpt lat="44.91577758614377" lon="10.00852594350749"><ele>55.0</ele><time>2026-04-09T18:19:47Z</time></trkpt><trkpt lat="44.915950608444994" lon="10.008165048035329"><ele>55.0</ele><time>2026-04-09T18:19:48Z</time></trkpt><trkpt lat="44.916131693829456" lon="10.007803416256"><ele>55.0</ele><time>2026-04-09T18:19:49Z</time></trkpt><trkpt lat="44.91630843400089" lon="10.007441208508565"><ele>55.5</ele><time>2026-04-09T18:19:50Z</time></trkpt><trkpt lat="44.91648510823355" lon="10.00708197682286"><ele>56.0</ele><time>2026-04-09T18:19:51Z</time></trkpt><trkpt lat="44.91666093259414" lon="10.006722348877497"><ele>56.0</ele><time>2026-04-09T18:19:52Z</time></trkpt><trkpt lat="44.91683786152366" lon="10.006358093610295"><ele>56.0</ele><time>2026-04-09T18:19:53Z</time></trkpt><trkpt lat="44.91700974231802" lon="10.005994271391176"><ele>55.5</ele><time>2026-04-09T18:19:54Z</time></trkpt><trkpt lat="44.91718665026458" lon="10.005631108948362"><ele>55.0</ele><time>2026-04-09T18:19:55Z</time></trkpt><trkpt lat="44.917365131565454" lon="10.005267751714037"><ele>55.0</ele><time>2026-04-09T18:19:56Z</time></trkpt><trkpt lat="44.91753817604937" lon="10.004908931450554"><ele>55.0</ele><time>2026-04-09T18:19:57Z</time></trkpt><trkpt lat="44.91771854188072" lon="10.004542443836254"><ele>55.0</ele><time>2026-04-09T18:19:58Z</time></trkpt><trkpt lat="44.917895955466896" lon="10.00417863289312"><ele>55.0</ele><time>2026-04-09T18:19:59Z</time></trkpt><trkpt lat="44.918073261443794" lon="10.00381415450067"><ele>54.0</ele><time>2026-04-09T18:20:00Z</time></trkpt><trkpt lat="44.91822579329224" lon="10.003434173542038"><ele>53.0</ele><time>2026-04-09T18:20:01Z</time></trkpt><trkpt lat="44.91842212400203" lon="10.003085277014753"><ele>52.5</ele><time>2026-04-09T18:20:02Z</time></trkpt><trkpt lat="44.91860081034331" lon="10.002721543756879"><ele>52.0</ele><time>2026-04-09T18:20:03Z</time></trkpt><trkpt lat="44.91877836531939" lon="10.002357763445376"><ele>52.0</ele><time>2026-04-09T18:20:04Z</time></trkpt><trkpt lat="44.91895523531671" lon="10.001998067984143"><ele>52.0</ele><time>2026-04-09T18:20:05Z</time></trkpt><trkpt lat="44.91913301302497" lon="10.001637222693718"><ele>52.0</ele><time>2026-04-09T18:20:06Z</time></trkpt><trkpt lat="44.91931104146869" lon="10.001272803277123"><ele>52.0</ele><time>2026-04-09T18:20:07Z</time></trkpt><trkpt lat="44.919485657115786" lon="10.00090883097078"><ele>54.0</ele><time>2026-04-09T18:20:08Z</time></trkpt><trkpt lat="44.91966071405875" lon="10.00054905331182"><ele>56.0</ele><time>2026-04-09T18:20:09Z</time></trkpt><trkpt lat="44.91983595207827" lon="10.000186879776813"><ele>56.0</ele><time>2026-04-09T18:20:10Z</time></trkpt><trkpt lat="44.920011856209456" lon="9.999828719316662"><ele>56.0</ele><time>2026-04-09T18:20:11Z</time></trkpt><trkpt lat="44.92018775135944" lon="9.999469863168347"><ele>54.5</ele><time>2026-04-09T18:20:12Z</time></trkpt><trkpt lat="44.92036270470276" lon="9.999110730334635"><ele>53.0</ele><time>2026-04-09T18:20:13Z</time></trkpt><trkpt lat="44.920534524113194" lon="9.998747358716894"><ele>53.0</ele><time>2026-04-09T18:20:14Z</time></trkpt><trkpt lat="44.92070899791118" lon="9.9983892476337"><ele>53.0</ele><time>2026-04-09T18:20:15Z</time></trkpt><trkpt lat="44.92088256166066" lon="9.998025602114591"><ele>52.5</ele><time>2026-04-09T18:20:16Z</time></trkpt><trkpt lat="44.92106053497094" lon="9.99766714198607"><ele>52.0</ele><time>2026-04-09T18:20:17Z</time></trkpt><trkpt lat="44.921241786578406" lon="9.997307648466672"><ele>52.0</ele><time>2026-04-09T18:20:18Z</time></trkpt><trkpt lat="44.92142108179536" lon="9.99694182409877"><ele>52.0</ele><time>2026-04-09T18:20:19Z</time></trkpt><trkpt lat="44.92160014984044" lon="9.996582617370022"><ele>54.0</ele><time>2026-04-09T18:20:20Z</time></trkpt><trkpt lat="44.92178062978996" lon="9.99621601313143"><ele>56.0</ele><time>2026-04-09T18:20:21Z</time></trkpt><trkpt lat="44.92195883132829" lon="9.995851395981651"><ele>55.0</ele><time>2026-04-09T18:20:22Z</time></trkpt><trkpt lat="44.92213691843351" lon="9.995483021594676"><ele>54.0</ele><time>2026-04-09T18:20:23Z</time></trkpt><trkpt lat="44.922315117113996" lon="9.995118245443397"><ele>54.0</ele><time>2026-04-09T18:20:24Z</time></trkpt><trkpt lat="44.9224925100169" lon="9.99475388573039"><ele>54.0</ele><time>2026-04-09T18:20:25Z</time></trkpt><trkpt lat="44.92266929335254" lon="9.994387161283289"><ele>53.0</ele><time>2026-04-09T18:20:26Z</time></trkpt><trkpt lat="44.922846101372876" lon="9.994021961408452"><ele>52.0</ele><time>2026-04-09T18:20:27Z</time></trkpt><trkpt lat="44.92302307759839" lon="9.993659482499737"><ele>51.5</ele><time>2026-04-09T18:20:28Z</time></trkpt><trkpt lat="44.923200403544406" lon="9.993295799028457"><ele>51.0</ele><time>2026-04-09T18:20:29Z</time></trkpt><trkpt lat="44.92337849915985" lon="9.992936559638606"><ele>51.0</ele><time>2026-04-09T18:20:29.999Z</time></trkpt><trkpt lat="44.92355353966165" lon="9.992572242970091"><ele>51.0</ele><time>2026-04-09T18:20:30.999Z</time></trkpt><trkpt lat="44.923729438143596" lon="9.992212309174212"><ele>51.0</ele><time>2026-04-09T18:20:31.999Z</time></trkpt><trkpt lat="44.92390435078399" lon="9.991848809716233"><ele>51.0</ele><time>2026-04-09T18:20:32.999Z</time></trkpt><trkpt lat="44.92407859967769" lon="9.99149293636666"><ele>51.0</ele><time>2026-04-09T18:20:33.999Z</time></trkpt><trkpt lat="44.924253345245866" lon="9.991132937062144"><ele>51.0</ele><time>2026-04-09T18:20:34.999Z</time></trkpt><trkpt lat="44.92442721406561" lon="9.990774579005414"><ele>51.0</ele><time>2026-04-09T18:20:35.999Z</time></trkpt><trkpt lat="44.92460266858341" lon="9.990415208258877"><ele>51.0</ele><time>2026-04-09T18:20:36.999Z</time></trkpt><trkpt lat="44.92477682430385" lon="9.990055355391961"><ele>51.5</ele><time>2026-04-09T18:20:37.999Z</time></trkpt><trkpt lat="44.92495224722763" lon="9.989693657300398"><ele>52.0</ele><time>2026-04-09T18:20:38.999Z</time></trkpt><trkpt lat="44.925130733956685" lon="9.989334584521206"><ele>52.5</ele><time>2026-04-09T18:20:39.999Z</time></trkpt><trkpt lat="44.92530894146575" lon="9.988974853389479"><ele>53.0</ele><time>2026-04-09T18:20:40.999Z</time></trkpt><trkpt lat="44.925489302498136" lon="9.988614868662452"><ele>52.0</ele><time>2026-04-09T18:20:41.999Z</time></trkpt><trkpt lat="44.925666641332164" lon="9.988251734110849"><ele>51.0</ele><time>2026-04-09T18:20:42.999Z</time></trkpt><trkpt lat="44.92584395646819" lon="9.987888914710153"><ele>51.0</ele><time>2026-04-09T18:20:43.999Z</time></trkpt><trkpt lat="44.92602080267494" lon="9.987524108857933"><ele>51.0</ele><time>2026-04-09T18:20:44.999Z</time></trkpt><trkpt lat="44.926195271118374" lon="9.987158081291815"><ele>50.0</ele><time>2026-04-09T18:20:45.999Z</time></trkpt><trkpt lat="44.926372035656925" lon="9.986794443170142"><ele>49.0</ele><time>2026-04-09T18:20:46.999Z</time></trkpt><trkpt lat="44.92655105013821" lon="9.986433428900636"><ele>49.0</ele><time>2026-04-09T18:20:47.999Z</time></trkpt><trkpt lat="44.926730164638705" lon="9.986072386160954"><ele>49.0</ele><time>2026-04-09T18:20:48.999Z</time></trkpt><trkpt lat="44.92690880302364" lon="9.98571177084893"><ele>49.0</ele><time>2026-04-09T18:20:49.999Z</time></trkpt><trkpt lat="44.92708673645761" lon="9.985348720367984"><ele>49.0</ele><time>2026-04-09T18:20:50.999Z</time></trkpt><trkpt lat="44.927265584760754" lon="9.984987026458311"><ele>49.0</ele><time>2026-04-09T18:20:51.999Z</time></trkpt><trkpt lat="44.92744239218963" lon="9.984623710955729"><ele>49.0</ele><time>2026-04-09T18:20:52.999Z</time></trkpt><trkpt lat="44.92761900437109" lon="9.984262164196707"><ele>49.0</ele><time>2026-04-09T18:20:53.999Z</time></trkpt><trkpt lat="44.92779486299088" lon="9.983898582330914"><ele>49.0</ele><time>2026-04-09T18:20:54.999Z</time></trkpt><trkpt lat="44.927970359230734" lon="9.98353596850087"><ele>48.5</ele><time>2026-04-09T18:20:55.999Z</time></trkpt><trkpt lat="44.928146011537144" lon="9.983170936644845"><ele>48.0</ele><time>2026-04-09T18:20:56.999Z</time></trkpt><trkpt lat="44.92832635907387" lon="9.98281377582718"><ele>48.5</ele><time>2026-04-09T18:20:57.999Z</time></trkpt><trkpt lat="44.92850192671816" lon="9.982454569019774"><ele>49.0</ele><time>2026-04-09T18:20:58.999Z</time></trkpt><trkpt lat="44.928679662583406" lon="9.98209541859154"><ele>49.0</ele><time>2026-04-09T18:20:59.999Z</time></trkpt><trkpt lat="44.92885555319209" lon="9.981731011673435"><ele>49.0</ele><time>2026-04-09T18:21:00.999Z</time></trkpt><trkpt lat="44.92903126925443" lon="9.981368938865083"><ele>49.0</ele><time>2026-04-09T18:21:01.999Z</time></trkpt><trkpt lat="44.92920841911484" lon="9.981007032225849"><ele>49.0</ele><time>2026-04-09T18:21:02.999Z</time></trkpt><trkpt lat="44.92938216824959" lon="9.980642701007891"><ele>49.5</ele><time>2026-04-09T18:21:03.999Z</time></trkpt><trkpt lat="44.929558216419615" lon="9.980282119962974"><ele>50.0</ele><time>2026-04-09T18:21:04.999Z</time></trkpt><trkpt lat="44.929738564200164" lon="9.979920573387501"><ele>50.0</ele><time>2026-04-09T18:21:05.999Z</time></trkpt><trkpt lat="44.92991644833047" lon="9.979551632233212"><ele>50.0</ele><time>2026-04-09T18:21:06.999Z</time></trkpt><trkpt lat="44.93009329183471" lon="9.979194958925905"><ele>49.5</ele><time>2026-04-09T18:21:07.999Z</time></trkpt><trkpt lat="44.930268787113754" lon="9.978827212670646"><ele>49.0</ele><time>2026-04-09T18:21:08.999Z</time></trkpt><trkpt lat="44.93044566281721" lon="9.978463674701981"><ele>49.5</ele><time>2026-04-09T18:21:09.999Z</time></trkpt><trkpt lat="44.93062244022784" lon="9.978101343470845"><ele>50.0</ele><time>2026-04-09T18:21:10.999Z</time></trkpt><trkpt lat="44.930801454503374" lon="9.977740512703773"><ele>49.5</ele><time>2026-04-09T18:21:11.999Z</time></trkpt><trkpt lat="44.930981304666126" lon="9.977378659612063"><ele>49.0</ele><time>2026-04-09T18:21:12.999Z</time></trkpt><trkpt lat="44.931159251539896" lon="9.97701500782217"><ele>49.0</ele><time>2026-04-09T18:21:13.999Z</time></trkpt><trkpt lat="44.931334948158245" lon="9.976649174601203"><ele>49.0</ele><time>2026-04-09T18:21:14.999Z</time></trkpt><trkpt lat="44.93150670778695" lon="9.976284637850815"><ele>49.0</ele><time>2026-04-09T18:21:15.999Z</time></trkpt><trkpt lat="44.931683485490055" lon="9.975923425211313"><ele>49.0</ele><time>2026-04-09T18:21:16.999Z</time></trkpt><trkpt lat="44.931856994283024" lon="9.975559923575025"><ele>49.0</ele><time>2026-04-09T18:21:17.999Z</time></trkpt><trkpt lat="44.93203351496259" lon="9.975197664985085"><ele>49.0</ele><time>2026-04-09T18:21:18.999Z</time></trkpt><trkpt lat="44.9322106114461" lon="9.974835533373934"><ele>49.0</ele><time>2026-04-09T18:21:19.999Z</time></trkpt><trkpt lat="44.932381546521505" lon="9.974473745436155"><ele>49.0</ele><time>2026-04-09T18:21:20.999Z</time></trkpt><trkpt lat="44.93255924685459" lon="9.97411356603736"><ele>50.0</ele><time>2026-04-09T18:21:21.999Z</time></trkpt><trkpt lat="44.93273820971956" lon="9.973754150917314"><ele>51.0</ele><time>2026-04-09T18:21:22.999Z</time></trkpt><trkpt lat="44.932916430931556" lon="9.973392188658053"><ele>49.5</ele><time>2026-04-09T18:21:23.999Z</time></trkpt><trkpt lat="44.93309504504558" lon="9.973029844739303"><ele>48.0</ele><time>2026-04-09T18:21:24.999Z</time></trkpt><trkpt lat="44.93327147225756" lon="9.97266686748598"><ele>48.0</ele><time>2026-04-09T18:21:25.999Z</time></trkpt><trkpt lat="44.93344782371484" lon="9.972305816255762"><ele>48.0</ele><time>2026-04-09T18:21:26.999Z</time></trkpt><trkpt lat="44.9336242371228" lon="9.971942817391596"><ele>47.0</ele><time>2026-04-09T18:21:27.999Z</time></trkpt><trkpt lat="44.93379996221394" lon="9.971578256626396"><ele>46.0</ele><time>2026-04-09T18:21:28.999Z</time></trkpt><trkpt lat="44.93398772698768" lon="9.97120709361054"><ele>46.5</ele><time>2026-04-09T18:21:29.999Z</time></trkpt><trkpt lat="44.93415170148142" lon="9.97085587565754"><ele>47.0</ele><time>2026-04-09T18:21:30.999Z</time></trkpt><trkpt lat="44.934324051395485" lon="9.970492146579822"><ele>46.5</ele><time>2026-04-09T18:21:31.999Z</time></trkpt><trkpt lat="44.93449711829716" lon="9.970128376311099"><ele>46.0</ele><time>2026-04-09T18:21:32.999Z</time></trkpt><trkpt lat="44.934676631038194" lon="9.969769380656626"><ele>46.0</ele><time>2026-04-09T18:21:33.999Z</time></trkpt><trkpt lat="44.93485207619546" lon="9.969408928825592"><ele>46.0</ele><time>2026-04-09T18:21:34.999Z</time></trkpt><trkpt lat="44.93502889289517" lon="9.969045096202656"><ele>46.5</ele><time>2026-04-09T18:21:35.999Z</time></trkpt><trkpt lat="44.935209186098085" lon="9.968682340054343"><ele>47.0</ele><time>2026-04-09T18:21:36.999Z</time></trkpt><trkpt lat="44.93538132676448" lon="9.96833565061529"><ele>47.0</ele><time>2026-04-09T18:21:37.999Z</time></trkpt><trkpt lat="44.93554942598894" lon="9.967989354180625"><ele>47.0</ele><time>2026-04-09T18:21:38.999Z</time></trkpt><trkpt lat="44.93571941191523" lon="9.967643150201864"><ele>47.0</ele><time>2026-04-09T18:21:39.999Z</time></trkpt><trkpt lat="44.93588684266239" lon="9.967303425235778"><ele>47.0</ele><time>2026-04-09T18:21:40.999Z</time></trkpt><trkpt lat="44.936047530969375" lon="9.966971565329247"><ele>47.0</ele><time>2026-04-09T18:21:41.999Z</time></trkpt><trkpt lat="44.9362058267618" lon="9.966636193211704"><ele>47.0</ele><time>2026-04-09T18:21:42.998Z</time></trkpt><trkpt lat="44.93636611270965" lon="9.966307742178765"><ele>47.0</ele><time>2026-04-09T18:21:43.998Z</time></trkpt><trkpt lat="44.93652360634492" lon="9.965982091889279"><ele>47.0</ele><time>2026-04-09T18:21:45Z</time></trkpt><trkpt lat="44.93668095114048" lon="9.965657121806235"><ele>48.5</ele><time>2026-04-09T18:21:46Z</time></trkpt><trkpt lat="44.936837945201525" lon="9.9653285587151"><ele>50.0</ele><time>2026-04-09T18:21:47Z</time></trkpt><trkpt lat="44.93699582704732" lon="9.965000577330496"><ele>50.5</ele><time>2026-04-09T18:21:48Z</time></trkpt><trkpt lat="44.9371576596225" lon="9.9646700204498"><ele>51.0</ele><time>2026-04-09T18:21:49Z</time></trkpt><trkpt lat="44.93731768801494" lon="9.964332989418672"><ele>50.5</ele><time>2026-04-09T18:21:50Z</time></trkpt><trkpt lat="44.93748205024969" lon="9.963986055270794"><ele>50.0</ele><time>2026-04-09T18:21:51Z</time></trkpt><trkpt lat="44.93765116984989" lon="9.963624330957618"><ele>49.5</ele><time>2026-04-09T18:21:52Z</time></trkpt><trkpt lat="44.93783216502339" lon="9.96324944249351"><ele>49.0</ele><time>2026-04-09T18:21:53Z</time></trkpt><trkpt lat="44.938017735395505" lon="9.962856714653057"><ele>49.0</ele><time>2026-04-09T18:21:54Z</time></trkpt><trkpt lat="44.938205527747186" lon="9.962464222932283"><ele>49.0</ele><time>2026-04-09T18:21:55Z</time></trkpt><trkpt lat="44.9383962083669" lon="9.962071692605488"><ele>48.5</ele><time>2026-04-09T18:21:56Z</time></trkpt><trkpt lat="44.938584082794776" lon="9.96167794414902"><ele>48.0</ele><time>2026-04-09T18:21:57Z</time></trkpt><trkpt lat="44.93877229548397" lon="9.961291833967797"><ele>48.0</ele><time>2026-04-09T18:21:58Z</time></trkpt><trkpt lat="44.93895748734449" lon="9.960900501971302"><ele>48.0</ele><time>2026-04-09T18:21:59Z</time></trkpt><trkpt lat="44.93914134605893" lon="9.960515904323893"><ele>48.5</ele><time>2026-04-09T18:22:00Z</time></trkpt><trkpt lat="44.9393197367506" lon="9.960126568618742"><ele>49.0</ele><time>2026-04-09T18:22:01Z</time></trkpt><trkpt lat="44.93949848208623" lon="9.959740067656293"><ele>50.0</ele><time>2026-04-09T18:22:02Z</time></trkpt><trkpt lat="44.93967373995669" lon="9.959356099748755"><ele>51.0</ele><time>2026-04-09T18:22:03Z</time></trkpt><trkpt lat="44.93984566518383" lon="9.958969154589509"><ele>51.0</ele><time>2026-04-09T18:22:04Z</time></trkpt><trkpt lat="44.940015806448955" lon="9.958584807236768"><ele>51.0</ele><time>2026-04-09T18:22:05Z</time></trkpt><trkpt lat="44.9401871932428" lon="9.958201137178385"><ele>51.0</ele><time>2026-04-09T18:22:06Z</time></trkpt><trkpt lat="44.9403444778323" lon="9.957808964963627"><ele>51.0</ele><time>2026-04-09T18:22:07Z</time></trkpt><trkpt lat="44.94051620986959" lon="9.957438727928585"><ele>51.0</ele><time>2026-04-09T18:22:08Z</time></trkpt><trkpt lat="44.94068741017904" lon="9.95705736250097"><ele>51.0</ele><time>2026-04-09T18:22:09Z</time></trkpt><trkpt lat="44.94085582549926" lon="9.956685618028528"><ele>51.0</ele><time>2026-04-09T18:22:10Z</time></trkpt><trkpt lat="44.94100618216369" lon="9.956333267346277"><ele>51.0</ele><time>2026-04-09T18:22:11Z</time></trkpt><trkpt lat="44.94114447623039" lon="9.956000678543722"><ele>51.5</ele><time>2026-04-09T18:22:12Z</time></trkpt><trkpt lat="44.9412859007088" lon="9.955657779746785"><ele>52.0</ele><time>2026-04-09T18:22:13Z</time></trkpt><trkpt lat="44.94143121044627" lon="9.955305075768232"><ele>51.5</ele><time>2026-04-09T18:22:14Z</time></trkpt><trkpt lat="44.94158482901209" lon="9.954929562253039"><ele>51.0</ele><time>2026-04-09T18:22:15Z</time></trkpt><trkpt lat="44.94175186233469" lon="9.954537546300495"><ele>51.5</ele><time>2026-04-09T18:22:16Z</time></trkpt><trkpt lat="44.9419209450375" lon="9.95413184769088"><ele>52.0</ele><time>2026-04-09T18:22:17Z</time></trkpt><trkpt lat="44.94209330207808" lon="9.953726017727199"><ele>53.0</ele><time>2026-04-09T18:22:18Z</time></trkpt><trkpt lat="44.942265660953524" lon="9.953315954698422"><ele>54.0</ele><time>2026-04-09T18:22:19Z</time></trkpt><trkpt lat="44.942439214846765" lon="9.952912118406275"><ele>53.0</ele><time>2026-04-09T18:22:20Z</time></trkpt><trkpt lat="44.942618659849344" lon="9.952504840908334"><ele>52.0</ele><time>2026-04-09T18:22:21Z</time></trkpt><trkpt lat="44.942782345140536" lon="9.952140009236592"><ele>52.0</ele><time>2026-04-09T18:22:22Z</time></trkpt><trkpt lat="44.942947162473494" lon="9.95177426692761"><ele>52.0</ele><time>2026-04-09T18:22:23Z</time></trkpt><trkpt lat="44.94310312130964" lon="9.951421023337378"><ele>52.0</ele><time>2026-04-09T18:22:24Z</time></trkpt><trkpt lat="44.94325431630568" lon="9.951070027143151"><ele>52.0</ele><time>2026-04-09T18:22:25Z</time></trkpt><trkpt lat="44.94340384215174" lon="9.950721436226361"><ele>52.0</ele><time>2026-04-09T18:22:26Z</time></trkpt><trkpt lat="44.94355249676969" lon="9.950375844120197"><ele>52.0</ele><time>2026-04-09T18:22:27Z</time></trkpt><trkpt lat="44.94369649763764" lon="9.950038507704228"><ele>52.0</ele><time>2026-04-09T18:22:28Z</time></trkpt><trkpt lat="44.943840111815554" lon="9.949703379666511"><ele>52.0</ele><time>2026-04-09T18:22:29Z</time></trkpt><trkpt lat="44.94398362986953" lon="9.949369743881157"><ele>52.5</ele><time>2026-04-09T18:22:30Z</time></trkpt><trkpt lat="44.94412385598817" lon="9.949037752468097"><ele>53.0</ele><time>2026-04-09T18:22:31Z</time></trkpt><trkpt lat="44.9442656206404" lon="9.94870240010109"><ele>54.0</ele><time>2026-04-09T18:22:32Z</time></trkpt><trkpt lat="44.944406658662984" lon="9.948367279121777"><ele>55.0</ele><time>2026-04-09T18:22:33Z</time></trkpt><trkpt lat="44.944549865853375" lon="9.948029692593803"><ele>55.0</ele><time>2026-04-09T18:22:34Z</time></trkpt><trkpt lat="44.94468955244926" lon="9.94768518637938"><ele>55.0</ele><time>2026-04-09T18:22:34.999Z</time></trkpt><trkpt lat="44.944837325679686" lon="9.947349762557884"><ele>55.0</ele><time>2026-04-09T18:22:35.999Z</time></trkpt><trkpt lat="44.9449838301645" lon="9.947006432335476"><ele>55.0</ele><time>2026-04-09T18:22:36.999Z</time></trkpt><trkpt lat="44.94513196749022" lon="9.946663130923152"><ele>54.5</ele><time>2026-04-09T18:22:37.999Z</time></trkpt><trkpt lat="44.945282613702204" lon="9.946318841979355"><ele>54.0</ele><time>2026-04-09T18:22:38.999Z</time></trkpt><trkpt lat="44.94543166359208" lon="9.945975546475383"><ele>53.5</ele><time>2026-04-09T18:22:39.999Z</time></trkpt><trkpt lat="44.94558193046814" lon="9.945630856231418"><ele>53.0</ele><time>2026-04-09T18:22:40.999Z</time></trkpt><trkpt lat="44.94572940801034" lon="9.945286052679041"><ele>53.0</ele><time>2026-04-09T18:22:41.999Z</time></trkpt><trkpt lat="44.94587335631832" lon="9.944946233337475"><ele>53.0</ele><time>2026-04-09T18:22:42.999Z</time></trkpt><trkpt lat="44.94601634268058" lon="9.944602791371395"><ele>53.0</ele><time>2026-04-09T18:22:43.999Z</time></trkpt><trkpt lat="44.94615729147911" lon="9.944261143369582"><ele>53.0</ele><time>2026-04-09T18:22:44.999Z</time></trkpt><trkpt lat="44.94630142144737" lon="9.943918700777441"><ele>53.0</ele><time>2026-04-09T18:22:45.999Z</time></trkpt><trkpt lat="44.94644508572277" lon="9.943581673439672"><ele>53.0</ele><time>2026-04-09T18:22:46.999Z</time></trkpt><trkpt lat="44.9465913916911" lon="9.943250160836635"><ele>53.5</ele><time>2026-04-09T18:22:47.999Z</time></trkpt><trkpt lat="44.946737125153604" lon="9.942916420874152"><ele>54.0</ele><time>2026-04-09T18:22:48.999Z</time></trkpt><trkpt lat="44.946879614086775" lon="9.942587388850741"><ele>53.5</ele><time>2026-04-09T18:22:49.999Z</time></trkpt><trkpt lat="44.94702041344187" lon="9.942258535418881"><ele>53.0</ele><time>2026-04-09T18:22:50.999Z</time></trkpt><trkpt lat="44.94715950555665" lon="9.941931131927138"><ele>54.5</ele><time>2026-04-09T18:22:51.999Z</time></trkpt><trkpt lat="44.94729830216643" lon="9.94160065533655"><ele>56.0</ele><time>2026-04-09T18:22:52.999Z</time></trkpt><trkpt lat="44.94743543915702" lon="9.941270144951828"><ele>56.0</ele><time>2026-04-09T18:22:53.999Z</time></trkpt><trkpt lat="44.94757292985301" lon="9.9409449079201"><ele>56.0</ele><time>2026-04-09T18:22:54.999Z</time></trkpt><trkpt lat="44.94771195161698" lon="9.940612911126788"><ele>56.0</ele><time>2026-04-09T18:22:55.999Z</time></trkpt><trkpt lat="44.9478503314484" lon="9.940288072851207"><ele>56.0</ele><time>2026-04-09T18:22:56.999Z</time></trkpt><trkpt lat="44.94799115763968" lon="9.939957713209008"><ele>57.0</ele><time>2026-04-09T18:22:57.999Z</time></trkpt><trkpt lat="44.948132721678704" lon="9.939624780701665"><ele>58.0</ele><time>2026-04-09T18:22:58.999Z</time></trkpt><trkpt lat="44.94827745681826" lon="9.93929272883039"><ele>58.5</ele><time>2026-04-09T18:22:59.999Z</time></trkpt><trkpt lat="44.94842242268064" lon="9.938956377370559"><ele>59.0</ele><time>2026-04-09T18:23:00.999Z</time></trkpt><trkpt lat="44.94856674982778" lon="9.938617213341733"><ele>58.5</ele><time>2026-04-09T18:23:01.999Z</time></trkpt><trkpt lat="44.94870913552723" lon="9.938275260417642"><ele>58.0</ele><time>2026-04-09T18:23:02.999Z</time></trkpt><trkpt lat="44.948864039740215" lon="9.937928476420527"><ele>58.0</ele><time>2026-04-09T18:23:03.999Z</time></trkpt><trkpt lat="44.94900504399871" lon="9.937586939215201"><ele>58.0</ele><time>2026-04-09T18:23:04.999Z</time></trkpt><trkpt lat="44.94915320250123" lon="9.937242907836243"><ele>57.5</ele><time>2026-04-09T18:23:05.999Z</time></trkpt><trkpt lat="44.94930213753169" lon="9.936898162949205"><ele>57.0</ele><time>2026-04-09T18:23:06.999Z</time></trkpt><trkpt lat="44.949450213458604" lon="9.936549093007036"><ele>56.5</ele><time>2026-04-09T18:23:07.999Z</time></trkpt><trkpt lat="44.94959777277873" lon="9.936205125567357"><ele>56.0</ele><time>2026-04-09T18:23:08.999Z</time></trkpt><trkpt lat="44.94974489381395" lon="9.93585877522678"><ele>56.0</ele><time>2026-04-09T18:23:09.999Z</time></trkpt><trkpt lat="44.94989239194528" lon="9.935512247916872"><ele>56.0</ele><time>2026-04-09T18:23:10.999Z</time></trkpt><trkpt lat="44.95003894765011" lon="9.935165816021215"><ele>57.0</ele><time>2026-04-09T18:23:11.999Z</time></trkpt><trkpt lat="44.95018540792228" lon="9.934821205677629"><ele>58.0</ele><time>2026-04-09T18:23:12.999Z</time></trkpt><trkpt lat="44.95033213219799" lon="9.934477026441009"><ele>58.0</ele><time>2026-04-09T18:23:13.999Z</time></trkpt><trkpt lat="44.950480733777006" lon="9.934122929790334"><ele>58.0</ele><time>2026-04-09T18:23:14.999Z</time></trkpt><trkpt lat="44.95063021991841" lon="9.933777933130354"><ele>58.0</ele><time>2026-04-09T18:23:15.999Z</time></trkpt><trkpt lat="44.95077943936311" lon="9.933429514049118"><ele>58.0</ele><time>2026-04-09T18:23:16.999Z</time></trkpt><trkpt lat="44.950929733909504" lon="9.933077972662934"><ele>57.0</ele><time>2026-04-09T18:23:17.999Z</time></trkpt><trkpt lat="44.95107900919987" lon="9.932725741646598"><ele>56.0</ele><time>2026-04-09T18:23:18.999Z</time></trkpt><trkpt lat="44.95122811237104" lon="9.932373157362791"><ele>55.5</ele><time>2026-04-09T18:23:19.999Z</time></trkpt><trkpt lat="44.95137584644966" lon="9.932021521320856"><ele>55.0</ele><time>2026-04-09T18:23:20.999Z</time></trkpt><trkpt lat="44.951525168878376" lon="9.931669994600142"><ele>55.0</ele><time>2026-04-09T18:23:21.999Z</time></trkpt><trkpt lat="44.95167703832502" lon="9.931317484771942"><ele>55.0</ele><time>2026-04-09T18:23:22.999Z</time></trkpt><trkpt lat="44.9518294118636" lon="9.930965604748163"><ele>57.0</ele><time>2026-04-09T18:23:23.999Z</time></trkpt><trkpt lat="44.95197932115448" lon="9.930610826935967"><ele>59.0</ele><time>2026-04-09T18:23:24.999Z</time></trkpt><trkpt lat="44.95213030590491" lon="9.930259523076812"><ele>59.5</ele><time>2026-04-09T18:23:25.999Z</time></trkpt><trkpt lat="44.95228106231717" lon="9.9299087184077"><ele>60.0</ele><time>2026-04-09T18:23:26.999Z</time></trkpt><trkpt lat="44.95243108475263" lon="9.929556067628882"><ele>60.0</ele><time>2026-04-09T18:23:27.999Z</time></trkpt><trkpt lat="44.952581178442536" lon="9.929205128541014"><ele>60.0</ele><time>2026-04-09T18:23:28.999Z</time></trkpt><trkpt lat="44.9527295339826" lon="9.928856718890131"><ele>60.0</ele><time>2026-04-09T18:23:29.999Z</time></trkpt><trkpt lat="44.952876034353274" lon="9.928503419915323"><ele>60.0</ele><time>2026-04-09T18:23:30.999Z</time></trkpt><trkpt lat="44.95302322163599" lon="9.928150436707929"><ele>59.5</ele><time>2026-04-09T18:23:31.999Z</time></trkpt><trkpt lat="44.95317308677448" lon="9.927801561455484"><ele>59.0</ele><time>2026-04-09T18:23:32.999Z</time></trkpt><trkpt lat="44.95332356755752" lon="9.927454833075174"><ele>58.5</ele><time>2026-04-09T18:23:33.999Z</time></trkpt><trkpt lat="44.953473606734875" lon="9.927106912908584"><ele>58.0</ele><time>2026-04-09T18:23:34.999Z</time></trkpt><trkpt lat="44.9536236547389" lon="9.926755358317145"><ele>59.0</ele><time>2026-04-09T18:23:35.999Z</time></trkpt><trkpt lat="44.953774810203726" lon="9.926406112027806"><ele>60.0</ele><time>2026-04-09T18:23:36.999Z</time></trkpt><trkpt lat="44.953925073186866" lon="9.926058464193583"><ele>60.5</ele><time>2026-04-09T18:23:37.999Z</time></trkpt><trkpt lat="44.95407435762145" lon="9.9257082074588"><ele>61.0</ele><time>2026-04-09T18:23:38.999Z</time></trkpt><trkpt lat="44.954223792601915" lon="9.925354850693756"><ele>61.0</ele><time>2026-04-09T18:23:39.999Z</time></trkpt><trkpt lat="44.95434574135333" lon="9.924997804275705"><ele>61.0</ele><time>2026-04-09T18:23:40.999Z</time></trkpt><trkpt lat="44.954511258756924" lon="9.924651882630096"><ele>61.0</ele><time>2026-04-09T18:23:41.999Z</time></trkpt><trkpt lat="44.95466166650184" lon="9.92430000946213"><ele>61.0</ele><time>2026-04-09T18:23:42.999Z</time></trkpt><trkpt lat="44.954810998697866" lon="9.923950044002025"><ele>62.0</ele><time>2026-04-09T18:23:43.999Z</time></trkpt><trkpt lat="44.9549597238594" lon="9.923601252215681"><ele>63.0</ele><time>2026-04-09T18:23:44.999Z</time></trkpt><trkpt lat="44.955109678366206" lon="9.923254230767904"><ele>63.5</ele><time>2026-04-09T18:23:45.999Z</time></trkpt><trkpt lat="44.95525417585389" lon="9.922905227087506"><ele>64.0</ele><time>2026-04-09T18:23:46.999Z</time></trkpt><trkpt lat="44.95540024261175" lon="9.922567034313483"><ele>64.5</ele><time>2026-04-09T18:23:47.998Z</time></trkpt><trkpt lat="44.95554532403782" lon="9.922222732425173"><ele>65.0</ele><time>2026-04-09T18:23:48.998Z</time></trkpt><trkpt lat="44.95568838993359" lon="9.921877600721029"><ele>65.5</ele><time>2026-04-09T18:23:49.998Z</time></trkpt><trkpt lat="44.95583586854278" lon="9.92153782785272"><ele>66.0</ele><time>2026-04-09T18:23:51Z</time></trkpt><trkpt lat="44.95598398503559" lon="9.921201067135645"><ele>64.0</ele><time>2026-04-09T18:23:52Z</time></trkpt><trkpt lat="44.9561321158503" lon="9.92086552530893"><ele>62.0</ele><time>2026-04-09T18:23:53Z</time></trkpt><trkpt lat="44.95627592754722" lon="9.920526289494404"><ele>62.0</ele><time>2026-04-09T18:23:54Z</time></trkpt><trkpt lat="44.95642166738005" lon="9.92018557321821"><ele>62.0</ele><time>2026-04-09T18:23:55Z</time></trkpt><trkpt lat="44.95657186584912" lon="9.919837838694532"><ele>61.5</ele><time>2026-04-09T18:23:56Z</time></trkpt><trkpt lat="44.95671593288801" lon="9.919493516654232"><ele>61.0</ele><time>2026-04-09T18:23:57Z</time></trkpt><trkpt lat="44.956859878076806" lon="9.919148553543474"><ele>61.0</ele><time>2026-04-09T18:23:58Z</time></trkpt><trkpt lat="44.95700453686623" lon="9.918804461846078"><ele>61.0</ele><time>2026-04-09T18:23:59Z</time></trkpt><trkpt lat="44.95715226983261" lon="9.918467332468463"><ele>62.5</ele><time>2026-04-09T18:24:00Z</time></trkpt><trkpt lat="44.9573014968183" lon="9.918124013884661"><ele>64.0</ele><time>2026-04-09T18:24:01Z</time></trkpt><trkpt lat="44.95744852155531" lon="9.917776788445712"><ele>61.5</ele><time>2026-04-09T18:24:02Z</time></trkpt><trkpt lat="44.95759654575004" lon="9.917437862867201"><ele>59.0</ele><time>2026-04-09T18:24:03Z</time></trkpt><trkpt lat="44.95774219366764" lon="9.917095790950956"><ele>59.0</ele><time>2026-04-09T18:24:04Z</time></trkpt><trkpt lat="44.957887807034794" lon="9.916751172393335"><ele>59.0</ele><time>2026-04-09T18:24:05Z</time></trkpt><trkpt lat="44.95803567991953" lon="9.916409348550165"><ele>58.5</ele><time>2026-04-09T18:24:06Z</time></trkpt><trkpt lat="44.95817830595413" lon="9.916068298123006"><ele>58.0</ele><time>2026-04-09T18:24:07Z</time></trkpt><trkpt lat="44.95832315478411" lon="9.915728697352476"><ele>59.0</ele><time>2026-04-09T18:24:08Z</time></trkpt><trkpt lat="44.958467361442096" lon="9.915386782292392"><ele>60.0</ele><time>2026-04-09T18:24:09Z</time></trkpt><trkpt lat="44.95861356585504" lon="9.915043505391102"><ele>60.5</ele><time>2026-04-09T18:24:10Z</time></trkpt><trkpt lat="44.95875746564087" lon="9.914702235175708"><ele>61.0</ele><time>2026-04-09T18:24:11Z</time></trkpt><trkpt lat="44.95890306485173" lon="9.914360951820182"><ele>61.5</ele><time>2026-04-09T18:24:12Z</time></trkpt><trkpt lat="44.95904778519076" lon="9.91402147880118"><ele>62.0</ele><time>2026-04-09T18:24:13Z</time></trkpt><trkpt lat="44.95919432284817" lon="9.91368108463565"><ele>59.0</ele><time>2026-04-09T18:24:14Z</time></trkpt><trkpt lat="44.95933934449514" lon="9.913341283493624"><ele>56.0</ele><time>2026-04-09T18:24:15Z</time></trkpt><trkpt lat="44.95948486781669" lon="9.913000902865623"><ele>56.0</ele><time>2026-04-09T18:24:16Z</time></trkpt><trkpt lat="44.959634425592284" lon="9.912657857139761"><ele>56.0</ele><time>2026-04-09T18:24:17Z</time></trkpt><trkpt lat="44.95977528439356" lon="9.912318666636255"><ele>56.0</ele><time>2026-04-09T18:24:18Z</time></trkpt><trkpt lat="44.95992266564667" lon="9.911981707880049"><ele>56.0</ele><time>2026-04-09T18:24:19Z</time></trkpt><trkpt lat="44.960073193155345" lon="9.911639574173508"><ele>57.0</ele><time>2026-04-09T18:24:20Z</time></trkpt><trkpt lat="44.960218157441574" lon="9.911299518719954"><ele>58.0</ele><time>2026-04-09T18:24:21Z</time></trkpt><trkpt lat="44.96036189011542" lon="9.910960593367223"><ele>59.5</ele><time>2026-04-09T18:24:22Z</time></trkpt><trkpt lat="44.960505766602495" lon="9.910623167294455"><ele>61.0</ele><time>2026-04-09T18:24:23Z</time></trkpt><trkpt lat="44.96065051983326" lon="9.910281817867936"><ele>61.0</ele><time>2026-04-09T18:24:24Z</time></trkpt><trkpt lat="44.96079350962183" lon="9.90994169629727"><ele>61.0</ele><time>2026-04-09T18:24:25Z</time></trkpt><trkpt lat="44.96093976684427" lon="9.909601957615351"><ele>61.5</ele><time>2026-04-09T18:24:26Z</time></trkpt><trkpt lat="44.961083126745244" lon="9.909268878744195"><ele>62.0</ele><time>2026-04-09T18:24:27Z</time></trkpt><trkpt lat="44.96123692712629" lon="9.908928647232807"><ele>62.5</ele><time>2026-04-09T18:24:28Z</time></trkpt><trkpt lat="44.961376452619795" lon="9.908588001436671"><ele>63.0</ele><time>2026-04-09T18:24:29Z</time></trkpt><trkpt lat="44.96152481220637" lon="9.908234743813695"><ele>63.0</ele><time>2026-04-09T18:24:30Z</time></trkpt><trkpt lat="44.961670880375436" lon="9.907911631617816"><ele>63.0</ele><time>2026-04-09T18:24:31Z</time></trkpt><trkpt lat="44.96181451504601" lon="9.907571708470863"><ele>62.0</ele><time>2026-04-09T18:24:32Z</time></trkpt><trkpt lat="44.96196332562225" lon="9.907218273597696"><ele>61.0</ele><time>2026-04-09T18:24:33Z</time></trkpt><trkpt lat="44.96210870740714" lon="9.906865130114182"><ele>61.0</ele><time>2026-04-09T18:24:34Z</time></trkpt><trkpt lat="44.96225321756675" lon="9.906513398041355"><ele>61.0</ele><time>2026-04-09T18:24:34.999Z</time></trkpt><trkpt lat="44.96240339054224" lon="9.906150398523087"><ele>61.0</ele><time>2026-04-09T18:24:35.999Z</time></trkpt><trkpt lat="44.962560991832824" lon="9.905782128272607"><ele>61.0</ele><time>2026-04-09T18:24:36.999Z</time></trkpt><trkpt lat="44.962718665559024" lon="9.90541533912677"><ele>61.5</ele><time>2026-04-09T18:24:37.999Z</time></trkpt><trkpt lat="44.96288187912813" lon="9.905041924703927"><ele>62.0</ele><time>2026-04-09T18:24:38.999Z</time></trkpt><trkpt lat="44.96304295014054" lon="9.90464500983575"><ele>62.0</ele><time>2026-04-09T18:24:39.999Z</time></trkpt><trkpt lat="44.96320557369203" lon="9.90427287094376"><ele>62.0</ele><time>2026-04-09T18:24:40.999Z</time></trkpt><trkpt lat="44.963362857845794" lon="9.903895426852898"><ele>61.0</ele><time>2026-04-09T18:24:41.999Z</time></trkpt><trkpt lat="44.96351919828203" lon="9.90351965330416"><ele>60.0</ele><time>2026-04-09T18:24:42.999Z</time></trkpt><trkpt lat="44.963670217977786" lon="9.903137756458102"><ele>60.0</ele><time>2026-04-09T18:24:43.999Z</time></trkpt><trkpt lat="44.96382287163744" lon="9.902758487359604"><ele>60.0</ele><time>2026-04-09T18:24:44.999Z</time></trkpt><trkpt lat="44.96397801002237" lon="9.902386142255706"><ele>60.0</ele><time>2026-04-09T18:24:45.999Z</time></trkpt><trkpt lat="44.96413808828437" lon="9.90201708599087"><ele>60.0</ele><time>2026-04-09T18:24:46.999Z</time></trkpt><trkpt lat="44.96430242636105" lon="9.901653154705201"><ele>60.5</ele><time>2026-04-09T18:24:47.999Z</time></trkpt><trkpt lat="44.96446848701933" lon="9.901287996329573"><ele>61.0</ele><time>2026-04-09T18:24:48.999Z</time></trkpt><trkpt lat="44.96463354977832" lon="9.900922289127733"><ele>61.0</ele><time>2026-04-09T18:24:49.999Z</time></trkpt><trkpt lat="44.96480228340262" lon="9.900559247632023"><ele>61.0</ele><time>2026-04-09T18:24:50.999Z</time></trkpt><trkpt lat="44.964961411900816" lon="9.900187231372167"><ele>60.5</ele><time>2026-04-09T18:24:51.999Z</time></trkpt><trkpt lat="44.96512071682051" lon="9.899810377868961"><ele>60.0</ele><time>2026-04-09T18:24:52.999Z</time></trkpt><trkpt lat="44.965276486722885" lon="9.899435785566851"><ele>59.5</ele><time>2026-04-09T18:24:53.999Z</time></trkpt><trkpt lat="44.96543205361193" lon="9.899059995371235"><ele>59.0</ele><time>2026-04-09T18:24:54.999Z</time></trkpt><trkpt lat="44.96558720988102" lon="9.89867969957232"><ele>58.5</ele><time>2026-04-09T18:24:55.999Z</time></trkpt><trkpt lat="44.96574714203668" lon="9.898308041335131"><ele>58.0</ele><time>2026-04-09T18:24:56.999Z</time></trkpt><trkpt lat="44.96590675666368" lon="9.897935330755002"><ele>57.5</ele><time>2026-04-09T18:24:57.999Z</time></trkpt><trkpt lat="44.96606928614389" lon="9.897562494423633"><ele>57.0</ele><time>2026-04-09T18:24:58.999Z</time></trkpt><trkpt lat="44.96622821641988" lon="9.897184392598373"><ele>57.0</ele><time>2026-04-09T18:24:59.999Z</time></trkpt><trkpt lat="44.96638792690511" lon="9.89680952885378"><ele>57.0</ele><time>2026-04-09T18:25:00.999Z</time></trkpt><trkpt lat="44.96654536212774" lon="9.89643233435916"><ele>58.0</ele><time>2026-04-09T18:25:01.999Z</time></trkpt><trkpt lat="44.96670232227946" lon="9.896053228946151"><ele>59.0</ele><time>2026-04-09T18:25:02.999Z</time></trkpt><trkpt lat="44.96685918716169" lon="9.89567610956036"><ele>59.0</ele><time>2026-04-09T18:25:03.999Z</time></trkpt><trkpt lat="44.96701473564827" lon="9.89529821009026"><ele>59.0</ele><time>2026-04-09T18:25:04.999Z</time></trkpt><trkpt lat="44.96716988666493" lon="9.894920660321423"><ele>59.0</ele><time>2026-04-09T18:25:05.999Z</time></trkpt><trkpt lat="44.96732631019115" lon="9.894543655612212"><ele>59.0</ele><time>2026-04-09T18:25:06.999Z</time></trkpt><trkpt lat="44.967481966616575" lon="9.89416760610287"><ele>57.5</ele><time>2026-04-09T18:25:07.999Z</time></trkpt><trkpt lat="44.967638266727334" lon="9.893791869111439"><ele>56.0</ele><time>2026-04-09T18:25:08.999Z</time></trkpt><trkpt lat="44.967797162888246" lon="9.893420076471001"><ele>56.0</ele><time>2026-04-09T18:25:09.999Z</time></trkpt><trkpt lat="44.967956527060366" lon="9.893046306844512"><ele>56.0</ele><time>2026-04-09T18:25:10.999Z</time></trkpt><trkpt lat="44.968115419936005" lon="9.892672433482291"><ele>56.0</ele><time>2026-04-09T18:25:11.999Z</time></trkpt><trkpt lat="44.968275689266136" lon="9.892301917315091"><ele>56.0</ele><time>2026-04-09T18:25:12.999Z</time></trkpt><trkpt lat="44.96843423474225" lon="9.891925790321134"><ele>57.5</ele><time>2026-04-09T18:25:13.999Z</time></trkpt><trkpt lat="44.96859489241961" lon="9.891553315025487"><ele>59.0</ele><time>2026-04-09T18:25:14.999Z</time></trkpt><trkpt lat="44.96875632863839" lon="9.891180694026085"><ele>60.0</ele><time>2026-04-09T18:25:15.999Z</time></trkpt><trkpt lat="44.96891608468474" lon="9.890805088100425"><ele>61.0</ele><time>2026-04-09T18:25:16.999Z</time></trkpt><trkpt lat="44.969073924032685" lon="9.890427480335966"><ele>58.5</ele><time>2026-04-09T18:25:17.999Z</time></trkpt><trkpt lat="44.96923494565481" lon="9.890057571514431"><ele>56.0</ele><time>2026-04-09T18:25:18.999Z</time></trkpt><trkpt lat="44.96939335087887" lon="9.889681661192338"><ele>56.0</ele><time>2026-04-09T18:25:19.999Z</time></trkpt><trkpt lat="44.96955364733224" lon="9.88930699395102"><ele>56.0</ele><time>2026-04-09T18:25:20.999Z</time></trkpt><trkpt lat="44.969712156741735" lon="9.888930093384863"><ele>56.0</ele><time>2026-04-09T18:25:21.999Z</time></trkpt><trkpt lat="44.96987167976824" lon="9.888555132236275"><ele>56.0</ele><time>2026-04-09T18:25:22.999Z</time></trkpt><trkpt lat="44.970032296315246" lon="9.888180722810151"><ele>56.0</ele><time>2026-04-09T18:25:23.999Z</time></trkpt><trkpt lat="44.9701907892749" lon="9.887805872772034"><ele>56.0</ele><time>2026-04-09T18:25:24.999Z</time></trkpt><trkpt lat="44.970347923986715" lon="9.887427338933673"><ele>56.5</ele><time>2026-04-09T18:25:25.999Z</time></trkpt><trkpt lat="44.97050833062091" lon="9.887054321369234"><ele>57.0</ele><time>2026-04-09T18:25:26.999Z</time></trkpt><trkpt lat="44.970667882687344" lon="9.886681775219994"><ele>57.0</ele><time>2026-04-09T18:25:27.999Z</time></trkpt><trkpt lat="44.970830561572434" lon="9.886310295617948"><ele>57.0</ele><time>2026-04-09T18:25:28.999Z</time></trkpt><trkpt lat="44.97099735540182" lon="9.885942362378518"><ele>57.5</ele><time>2026-04-09T18:25:29.999Z</time></trkpt><trkpt lat="44.971163442451974" lon="9.885573938081313"><ele>58.0</ele><time>2026-04-09T18:25:30.999Z</time></trkpt><trkpt lat="44.97132552501421" lon="9.885203291845269"><ele>56.5</ele><time>2026-04-09T18:25:31.999Z</time></trkpt><trkpt lat="44.9714942192763" lon="9.884822160233036"><ele>55.0</ele><time>2026-04-09T18:25:32.999Z</time></trkpt><trkpt lat="44.97164973688022" lon="9.884452448234006"><ele>55.5</ele><time>2026-04-09T18:25:33.999Z</time></trkpt><trkpt lat="44.97181112768805" lon="9.88408004701023"><ele>56.0</ele><time>2026-04-09T18:25:34.999Z</time></trkpt><trkpt lat="44.9719712669085" lon="9.883707678718027"><ele>56.5</ele><time>2026-04-09T18:25:35.999Z</time></trkpt><trkpt lat="44.972132458141324" lon="9.883330651035498"><ele>57.0</ele><time>2026-04-09T18:25:36.999Z</time></trkpt><trkpt lat="44.972289937601374" lon="9.882950437286338"><ele>57.0</ele><time>2026-04-09T18:25:37.999Z</time></trkpt><trkpt lat="44.972447343806294" lon="9.882571722053525"><ele>57.0</ele><time>2026-04-09T18:25:38.999Z</time></trkpt><trkpt lat="44.97260602004681" lon="9.882197997680896"><ele>57.5</ele><time>2026-04-09T18:25:39.999Z</time></trkpt><trkpt lat="44.97276412935606" lon="9.881824268555878"><ele>58.0</ele><time>2026-04-09T18:25:40.999Z</time></trkpt><trkpt lat="44.97292179320237" lon="9.881448572879357"><ele>57.0</ele><time>2026-04-09T18:25:41.999Z</time></trkpt><trkpt lat="44.97307988781045" lon="9.881076674336937"><ele>56.0</ele><time>2026-04-09T18:25:42.999Z</time></trkpt><trkpt lat="44.97323722961211" lon="9.880701183588998"><ele>56.0</ele><time>2026-04-09T18:25:43.999Z</time></trkpt><trkpt lat="44.973397538023285" lon="9.880328128998922"><ele>56.0</ele><time>2026-04-09T18:25:44.999Z</time></trkpt><trkpt lat="44.973558502068514" lon="9.879957178204211"><ele>56.0</ele><time>2026-04-09T18:25:45.999Z</time></trkpt><trkpt lat="44.97371905311124" lon="9.87959016940471"><ele>56.0</ele><time>2026-04-09T18:25:46.998Z</time></trkpt><trkpt lat="44.97387856198228" lon="9.879218657267788"><ele>56.5</ele><time>2026-04-09T18:25:47.998Z</time></trkpt><trkpt lat="44.97403826312075" lon="9.87884528646758"><ele>57.0</ele><time>2026-04-09T18:25:48.998Z</time></trkpt><trkpt lat="44.97419901415523" lon="9.878475620854863"><ele>57.0</ele><time>2026-04-09T18:25:49.998Z</time></trkpt><trkpt lat="44.97436094508855" lon="9.87810368310744"><ele>57.0</ele><time>2026-04-09T18:25:50.998Z</time></trkpt><trkpt lat="44.974522174232156" lon="9.877730403126893"><ele>57.0</ele><time>2026-04-09T18:25:51.998Z</time></trkpt><trkpt lat="44.97468161990386" lon="9.877356457987965"><ele>57.0</ele><time>2026-04-09T18:25:52.998Z</time></trkpt><trkpt lat="44.97483900898007" lon="9.876980592247797"><ele>57.5</ele><time>2026-04-09T18:25:53.998Z</time></trkpt><trkpt lat="44.9749976174834" lon="9.876606442296376"><ele>58.0</ele><time>2026-04-09T18:25:54.998Z</time></trkpt><trkpt lat="44.97515586534457" lon="9.876229660297945"><ele>58.0</ele><time>2026-04-09T18:25:55.998Z</time></trkpt><trkpt lat="44.97531478786238" lon="9.875851447169307"><ele>58.0</ele><time>2026-04-09T18:25:57Z</time></trkpt><trkpt lat="44.97547374816621" lon="9.875477151235188"><ele>58.0</ele><time>2026-04-09T18:25:58Z</time></trkpt><trkpt lat="44.97563673156795" lon="9.875106589645847"><ele>58.0</ele><time>2026-04-09T18:25:59Z</time></trkpt><trkpt lat="44.97579666556912" lon="9.87473270709008"><ele>57.0</ele><time>2026-04-09T18:26:00Z</time></trkpt><trkpt lat="44.97595680194308" lon="9.87435968630253"><ele>56.0</ele><time>2026-04-09T18:26:01Z</time></trkpt><trkpt lat="44.976113298729764" lon="9.87398378615314"><ele>56.0</ele><time>2026-04-09T18:26:02Z</time></trkpt><trkpt lat="44.97627299498769" lon="9.873609250317614"><ele>56.0</ele><time>2026-04-09T18:26:03Z</time></trkpt><trkpt lat="44.97643077287839" lon="9.873236995217514"><ele>56.5</ele><time>2026-04-09T18:26:04Z</time></trkpt><trkpt lat="44.97658868454932" lon="9.872861705567459"><ele>57.0</ele><time>2026-04-09T18:26:05Z</time></trkpt><trkpt lat="44.9767454043704" lon="9.872486851092766"><ele>57.0</ele><time>2026-04-09T18:26:06Z</time></trkpt><trkpt lat="44.97690513293176" lon="9.872112774556813"><ele>57.0</ele><time>2026-04-09T18:26:07Z</time></trkpt><trkpt lat="44.97706584938819" lon="9.871739745364486"><ele>57.5</ele><time>2026-04-09T18:26:08Z</time></trkpt><trkpt lat="44.977227073172806" lon="9.871367417090154"><ele>58.0</ele><time>2026-04-09T18:26:09Z</time></trkpt><trkpt lat="44.977386015874075" lon="9.87099204170252"><ele>55.0</ele><time>2026-04-09T18:26:10Z</time></trkpt><trkpt lat="44.9775473446443" lon="9.870619329111197"><ele>52.0</ele><time>2026-04-09T18:26:11Z</time></trkpt><trkpt lat="44.977706302922954" lon="9.870246776022848"><ele>53.0</ele><time>2026-04-09T18:26:12Z</time></trkpt><trkpt lat="44.97786795014908" lon="9.869876608036776"><ele>54.0</ele><time>2026-04-09T18:26:13Z</time></trkpt><trkpt lat="44.978026018363984" lon="9.869500382409624"><ele>54.5</ele><time>2026-04-09T18:26:14Z</time></trkpt><trkpt lat="44.97818553948754" lon="9.86912570312338"><ele>55.0</ele><time>2026-04-09T18:26:15Z</time></trkpt><trkpt lat="44.978344142674224" lon="9.868750575831193"><ele>54.0</ele><time>2026-04-09T18:26:16Z</time></trkpt><trkpt lat="44.97850511537822" lon="9.868373482074038"><ele>53.0</ele><time>2026-04-09T18:26:17Z</time></trkpt><trkpt lat="44.978663364931066" lon="9.867998722767092"><ele>53.0</ele><time>2026-04-09T18:26:18Z</time></trkpt><trkpt lat="44.97882270668883" lon="9.867626349938485"><ele>53.0</ele><time>2026-04-09T18:26:19Z</time></trkpt><trkpt lat="44.97898050426486" lon="9.867251412781037"><ele>54.5</ele><time>2026-04-09T18:26:20Z</time></trkpt><trkpt lat="44.97914051771649" lon="9.866874925611807"><ele>56.0</ele><time>2026-04-09T18:26:21Z</time></trkpt><trkpt lat="44.979300870972075" lon="9.866500402695921"><ele>56.0</ele><time>2026-04-09T18:26:22Z</time></trkpt><trkpt lat="44.979461579104914" lon="9.866123981305144"><ele>56.0</ele><time>2026-04-09T18:26:23Z</time></trkpt><trkpt lat="44.97962104006249" lon="9.865749776054122"><ele>56.5</ele><time>2026-04-09T18:26:24Z</time></trkpt><trkpt lat="44.979778507852146" lon="9.86537165505165"><ele>57.0</ele><time>2026-04-09T18:26:25Z</time></trkpt><trkpt lat="44.979940559633235" lon="9.865000073768654"><ele>56.5</ele><time>2026-04-09T18:26:26Z</time></trkpt><trkpt lat="44.98009865953322" lon="9.86462516635042"><ele>56.0</ele><time>2026-04-09T18:26:27Z</time></trkpt><trkpt lat="44.980260013027916" lon="9.864252790549303"><ele>57.0</ele><time>2026-04-09T18:26:28Z</time></trkpt><trkpt lat="44.98041738263357" lon="9.863875593533466"><ele>58.0</ele><time>2026-04-09T18:26:29Z</time></trkpt><trkpt lat="44.98057612157069" lon="9.863502394902318"><ele>56.0</ele><time>2026-04-09T18:26:30Z</time></trkpt><trkpt lat="44.98073244585954" lon="9.863124948774347"><ele>54.0</ele><time>2026-04-09T18:26:31Z</time></trkpt><trkpt lat="44.98088927908865" lon="9.862746719075105"><ele>55.0</ele><time>2026-04-09T18:26:32Z</time></trkpt><trkpt lat="44.98104676652132" lon="9.862372407437592"><ele>56.0</ele><time>2026-04-09T18:26:33Z</time></trkpt><trkpt lat="44.9812037090189" lon="9.861997146095943"><ele>56.0</ele><time>2026-04-09T18:26:34Z</time></trkpt><trkpt lat="44.981361336683264" lon="9.861622362605447"><ele>56.0</ele><time>2026-04-09T18:26:35Z</time></trkpt><trkpt lat="44.9815204831158" lon="9.861252774667548"><ele>55.5</ele><time>2026-04-09T18:26:36Z</time></trkpt><trkpt lat="44.98168272265108" lon="9.860876565923823"><ele>55.0</ele><time>2026-04-09T18:26:37Z</time></trkpt><trkpt lat="44.98184397431335" lon="9.860504592194271"><ele>55.0</ele><time>2026-04-09T18:26:38Z</time></trkpt><trkpt lat="44.98200544580027" lon="9.860136208883903"><ele>55.0</ele><time>2026-04-09T18:26:39Z</time></trkpt><trkpt lat="44.98216538669562" lon="9.859762568160349"><ele>55.5</ele><time>2026-04-09T18:26:40Z</time></trkpt><trkpt lat="44.98232543826206" lon="9.859390553598706"><ele>56.0</ele><time>2026-04-09T18:26:41Z</time></trkpt><trkpt lat="44.9824847989991" lon="9.859015327954202"><ele>55.5</ele><time>2026-04-09T18:26:42Z</time></trkpt><trkpt lat="44.98264538416053" lon="9.8586403723166"><ele>55.0</ele><time>2026-04-09T18:26:43Z</time></trkpt><trkpt lat="44.982807589573866" lon="9.858270374947343"><ele>56.0</ele><time>2026-04-09T18:26:44Z</time></trkpt><trkpt lat="44.98296447278175" lon="9.85789310002847"><ele>57.0</ele><time>2026-04-09T18:26:45Z</time></trkpt><trkpt lat="44.98312075453277" lon="9.85751325788818"><ele>57.0</ele><time>2026-04-09T18:26:46Z</time></trkpt><trkpt lat="44.983277902432405" lon="9.857137344086542"><ele>57.0</ele><time>2026-04-09T18:26:47Z</time></trkpt><trkpt lat="44.98343789758921" lon="9.8567652590233"><ele>55.5</ele><time>2026-04-09T18:26:47.999Z</time></trkpt><trkpt lat="44.98359627099418" lon="9.85639312985038"><ele>54.0</ele><time>2026-04-09T18:26:48.999Z</time></trkpt><trkpt lat="44.983752938545116" lon="9.856018398985308"><ele>56.5</ele><time>2026-04-09T18:26:49.999Z</time></trkpt><trkpt lat="44.98391006143499" lon="9.855641815571397"><ele>59.0</ele><time>2026-04-09T18:26:50.999Z</time></trkpt><trkpt lat="44.98406643071914" lon="9.85526672568316"><ele>57.5</ele><time>2026-04-09T18:26:51.999Z</time></trkpt><trkpt lat="44.98423488815802" lon="9.854866091819181"><ele>56.0</ele><time>2026-04-09T18:26:52.999Z</time></trkpt><trkpt lat="44.98438828582454" lon="9.85450782471462"><ele>56.0</ele><time>2026-04-09T18:26:53.999Z</time></trkpt><trkpt lat="44.98454748299017" lon="9.854134521663108"><ele>56.0</ele><time>2026-04-09T18:26:54.999Z</time></trkpt><trkpt lat="44.9847113570893" lon="9.853761540400683"><ele>56.5</ele><time>2026-04-09T18:26:55.999Z</time></trkpt><trkpt lat="44.984874215219826" lon="9.853388555094984"><ele>57.0</ele><time>2026-04-09T18:26:56.999Z</time></trkpt><trkpt lat="44.98503498707983" lon="9.853015601382616"><ele>56.5</ele><time>2026-04-09T18:26:57.999Z</time></trkpt><trkpt lat="44.985196806912896" lon="9.852639187918827"><ele>56.0</ele><time>2026-04-09T18:26:58.999Z</time></trkpt><trkpt lat="44.985357298218744" lon="9.852263211332389"><ele>56.0</ele><time>2026-04-09T18:26:59.999Z</time></trkpt><trkpt lat="44.98551464667194" lon="9.851869027483133"><ele>56.0</ele><time>2026-04-09T18:27:00.999Z</time></trkpt><trkpt lat="44.9856712516456" lon="9.851500155070676"><ele>56.0</ele><time>2026-04-09T18:27:01.999Z</time></trkpt><trkpt lat="44.98582921305415" lon="9.851126103080972"><ele>56.0</ele><time>2026-04-09T18:27:02.999Z</time></trkpt><trkpt lat="44.985986698926475" lon="9.850750757517234"><ele>55.5</ele><time>2026-04-09T18:27:03.999Z</time></trkpt><trkpt lat="44.98614515393517" lon="9.8503765583081"><ele>55.0</ele><time>2026-04-09T18:27:04.999Z</time></trkpt><trkpt lat="44.98630452179076" lon="9.85000233418459"><ele>58.0</ele><time>2026-04-09T18:27:05.999Z</time></trkpt><trkpt lat="44.986461944179716" lon="9.849625123990807"><ele>61.0</ele><time>2026-04-09T18:27:06.999Z</time></trkpt><trkpt lat="44.986618744716885" lon="9.849250435685404"><ele>58.5</ele><time>2026-04-09T18:27:07.999Z</time></trkpt><trkpt lat="44.986773295607584" lon="9.848869387327287"><ele>56.0</ele><time>2026-04-09T18:27:08.999Z</time></trkpt><trkpt lat="44.98692853882851" lon="9.848493455722105"><ele>56.0</ele><time>2026-04-09T18:27:09.999Z</time></trkpt><trkpt lat="44.9870803280378" lon="9.848115522676347"><ele>56.0</ele><time>2026-04-09T18:27:10.999Z</time></trkpt><trkpt lat="44.987232595836986" lon="9.847740177055108"><ele>56.0</ele><time>2026-04-09T18:27:11.999Z</time></trkpt><trkpt lat="44.98739118477822" lon="9.847365709054184"><ele>56.0</ele><time>2026-04-09T18:27:12.999Z</time></trkpt><trkpt lat="44.987548454852664" lon="9.846991401538427"><ele>56.5</ele><time>2026-04-09T18:27:13.999Z</time></trkpt><trkpt lat="44.987704898213714" lon="9.846620628815788"><ele>57.0</ele><time>2026-04-09T18:27:14.999Z</time></trkpt><trkpt lat="44.98785789418498" lon="9.846245416880013"><ele>57.5</ele><time>2026-04-09T18:27:15.999Z</time></trkpt><trkpt lat="44.98801018241743" lon="9.845863865651161"><ele>58.0</ele><time>2026-04-09T18:27:16.999Z</time></trkpt><trkpt lat="44.988163842560134" lon="9.84548616700054"><ele>57.5</ele><time>2026-04-09T18:27:17.999Z</time></trkpt><trkpt lat="44.98831736946218" lon="9.845111303945615"><ele>57.0</ele><time>2026-04-09T18:27:18.999Z</time></trkpt><trkpt lat="44.98846841967023" lon="9.844730202501745"><ele>57.0</ele><time>2026-04-09T18:27:19.999Z</time></trkpt><trkpt lat="44.988620610050255" lon="9.844349390877515"><ele>57.0</ele><time>2026-04-09T18:27:20.999Z</time></trkpt><trkpt lat="44.98877126014215" lon="9.843967510784646"><ele>57.0</ele><time>2026-04-09T18:27:21.999Z</time></trkpt><trkpt lat="44.98892040263564" lon="9.843587970043306"><ele>57.0</ele><time>2026-04-09T18:27:22.999Z</time></trkpt><trkpt lat="44.98907020740028" lon="9.84320437555751"><ele>56.5</ele><time>2026-04-09T18:27:23.999Z</time></trkpt><trkpt lat="44.989220314032416" lon="9.842821082370927"><ele>56.0</ele><time>2026-04-09T18:27:24.999Z</time></trkpt><trkpt lat="44.98937040794677" lon="9.84243876205881"><ele>56.0</ele><time>2026-04-09T18:27:25.999Z</time></trkpt><trkpt lat="44.98952012411171" lon="9.842055346324306"><ele>56.0</ele><time>2026-04-09T18:27:26.999Z</time></trkpt><trkpt lat="44.989669096585544" lon="9.841670527093266"><ele>56.0</ele><time>2026-04-09T18:27:27.999Z</time></trkpt><trkpt lat="44.98981975694445" lon="9.841285008999934"><ele>56.0</ele><time>2026-04-09T18:27:28.999Z</time></trkpt><trkpt lat="44.98996557778744" lon="9.840893015918555"><ele>56.0</ele><time>2026-04-09T18:27:29.999Z</time></trkpt><trkpt lat="44.99011737783485" lon="9.840518416929418"><ele>56.0</ele><time>2026-04-09T18:27:30.999Z</time></trkpt><trkpt lat="44.99026568012434" lon="9.840132169475345"><ele>56.5</ele><time>2026-04-09T18:27:31.999Z</time></trkpt><trkpt lat="44.99041467806825" lon="9.839747265129715"><ele>57.0</ele><time>2026-04-09T18:27:32.999Z</time></trkpt><trkpt lat="44.99056411896419" lon="9.839362196496216"><ele>56.5</ele><time>2026-04-09T18:27:33.999Z</time></trkpt><trkpt lat="44.99071363032827" lon="9.838978311808416"><ele>56.0</ele><time>2026-04-09T18:27:34.999Z</time></trkpt><trkpt lat="44.99086169235507" lon="9.838595374739251"><ele>56.0</ele><time>2026-04-09T18:27:35.999Z</time></trkpt><trkpt lat="44.991012486256004" lon="9.838213655753288"><ele>56.0</ele><time>2026-04-09T18:27:36.999Z</time></trkpt><trkpt lat="44.99116274328159" lon="9.837835617906295"><ele>56.5</ele><time>2026-04-09T18:27:37.999Z</time></trkpt><trkpt lat="44.99131274225267" lon="9.83745596055423"><ele>57.0</ele><time>2026-04-09T18:27:38.999Z</time></trkpt><trkpt lat="44.99146067352554" lon="9.837073057972333"><ele>57.5</ele><time>2026-04-09T18:27:39.999Z</time></trkpt><trkpt lat="44.99160706986271" lon="9.836689356248971"><ele>58.0</ele><time>2026-04-09T18:27:40.999Z</time></trkpt><trkpt lat="44.991754892290324" lon="9.836308219414077"><ele>57.0</ele><time>2026-04-09T18:27:41.999Z</time></trkpt><trkpt lat="44.99190349384858" lon="9.835928860135219"><ele>56.0</ele><time>2026-04-09T18:27:42.999Z</time></trkpt><trkpt lat="44.99205133351086" lon="9.835543842069159"><ele>56.0</ele><time>2026-04-09T18:27:43.999Z</time></trkpt><trkpt lat="44.99219685892565" lon="9.835161115076538"><ele>56.0</ele><time>2026-04-09T18:27:44.999Z</time></trkpt><trkpt lat="44.992343455100794" lon="9.834780188002847"><ele>56.0</ele><time>2026-04-09T18:27:45.999Z</time></trkpt><trkpt lat="44.99248997463229" lon="9.834396445688343"><ele>56.0</ele><time>2026-04-09T18:27:46.999Z</time></trkpt><trkpt lat="44.992638947090725" lon="9.834013087380828"><ele>56.5</ele><time>2026-04-09T18:27:47.999Z</time></trkpt><trkpt lat="44.99278843318328" lon="9.833634577216495"><ele>57.0</ele><time>2026-04-09T18:27:48.999Z</time></trkpt><trkpt lat="44.99294059216631" lon="9.833254440095443"><ele>57.0</ele><time>2026-04-09T18:27:49.999Z</time></trkpt><trkpt lat="44.99309183111048" lon="9.832872347642512"><ele>57.0</ele><time>2026-04-09T18:27:50.999Z</time></trkpt><trkpt lat="44.993240311255335" lon="9.83249096016552"><ele>57.0</ele><time>2026-04-09T18:27:51.999Z</time></trkpt><trkpt lat="44.993387224558695" lon="9.83211278298969"><ele>57.0</ele><time>2026-04-09T18:27:52.999Z</time></trkpt><trkpt lat="44.99353572407822" lon="9.831727592855822"><ele>57.0</ele><time>2026-04-09T18:27:53.999Z</time></trkpt><trkpt lat="44.993685563898154" lon="9.831341142532345"><ele>57.0</ele><time>2026-04-09T18:27:54.999Z</time></trkpt><trkpt lat="44.993835020723495" lon="9.830955109268693"><ele>56.0</ele><time>2026-04-09T18:27:55.999Z</time></trkpt><trkpt lat="44.993983083758835" lon="9.830574363821096"><ele>55.0</ele><time>2026-04-09T18:27:56.999Z</time></trkpt><trkpt lat="44.99413075457723" lon="9.83018881792974"><ele>55.5</ele><time>2026-04-09T18:27:57.999Z</time></trkpt><trkpt lat="44.9942806495585" lon="9.82980542034621"><ele>56.0</ele><time>2026-04-09T18:27:58.999Z</time></trkpt><trkpt lat="44.99442901137064" lon="9.829422585045336"><ele>57.5</ele><time>2026-04-09T18:27:59.999Z</time></trkpt><trkpt lat="44.99457707492161" lon="9.829038199994136"><ele>59.0</ele><time>2026-04-09T18:28:00.999Z</time></trkpt><trkpt lat="44.99472247644862" lon="9.828653621835636"><ele>58.5</ele><time>2026-04-09T18:28:01.998Z</time></trkpt><trkpt lat="44.99486770266644" lon="9.828271516847947"><ele>58.0</ele><time>2026-04-09T18:28:03Z</time></trkpt><trkpt lat="44.99501524675778" lon="9.827886725302342"><ele>57.5</ele><time>2026-04-09T18:28:04Z</time></trkpt><trkpt lat="44.99516529372324" lon="9.827507542753654"><ele>57.0</ele><time>2026-04-09T18:28:05Z</time></trkpt><trkpt lat="44.99531790432244" lon="9.827128895273693"><ele>56.0</ele><time>2026-04-09T18:28:06Z</time></trkpt><trkpt lat="44.99547004345393" lon="9.826749706220204"><ele>55.0</ele><time>2026-04-09T18:28:07Z</time></trkpt><trkpt lat="44.995621333849634" lon="9.826368968969815"><ele>55.0</ele><time>2026-04-09T18:28:08Z</time></trkpt><trkpt lat="44.99577226262147" lon="9.8259870699896"><ele>55.0</ele><time>2026-04-09T18:28:09Z</time></trkpt><trkpt lat="44.995919467108344" lon="9.825603858656924"><ele>54.5</ele><time>2026-04-09T18:28:10Z</time></trkpt><trkpt lat="44.996067393372485" lon="9.825217275553035"><ele>54.0</ele><time>2026-04-09T18:28:11Z</time></trkpt><trkpt lat="44.99621238049038" lon="9.824831011226337"><ele>55.5</ele><time>2026-04-09T18:28:12Z</time></trkpt><trkpt lat="44.996358331848526" lon="9.82444576300901"><ele>57.0</ele><time>2026-04-09T18:28:13Z</time></trkpt><trkpt lat="44.996506297201485" lon="9.82405964839876"><ele>57.0</ele><time>2026-04-09T18:28:14Z</time></trkpt><trkpt lat="44.99664707659999" lon="9.823660561898494"><ele>57.0</ele><time>2026-04-09T18:28:15Z</time></trkpt><trkpt lat="44.996802366560466" lon="9.823291314938823"><ele>57.0</ele><time>2026-04-09T18:28:16Z</time></trkpt><trkpt lat="44.99695072326763" lon="9.822907646935008"><ele>57.0</ele><time>2026-04-09T18:28:17Z</time></trkpt><trkpt lat="44.99710146153678" lon="9.822522551407436"><ele>57.5</ele><time>2026-04-09T18:28:18Z</time></trkpt><trkpt lat="44.997253130256325" lon="9.822138208077657"><ele>58.0</ele><time>2026-04-09T18:28:19Z</time></trkpt><trkpt lat="44.9974033453743" lon="9.821752976791712"><ele>58.0</ele><time>2026-04-09T18:28:20Z</time></trkpt><trkpt lat="44.99755309965299" lon="9.82136745533913"><ele>58.0</ele><time>2026-04-09T18:28:21Z</time></trkpt><trkpt lat="44.997702563017384" lon="9.82098165706744"><ele>58.0</ele><time>2026-04-09T18:28:22Z</time></trkpt><trkpt lat="44.997848924606004" lon="9.82059851794654"><ele>58.0</ele><time>2026-04-09T18:28:23Z</time></trkpt><trkpt lat="44.99799754269947" lon="9.82021483878017"><ele>58.5</ele><time>2026-04-09T18:28:24Z</time></trkpt><trkpt lat="44.99814600962443" lon="9.819831507584286"><ele>59.0</ele><time>2026-04-09T18:28:25Z</time></trkpt><trkpt lat="44.99829503870642" lon="9.819450596200532"><ele>58.5</ele><time>2026-04-09T18:28:26Z</time></trkpt><trkpt lat="44.99844492158541" lon="9.819070347966306"><ele>58.0</ele><time>2026-04-09T18:28:27Z</time></trkpt><trkpt lat="44.99859441824719" lon="9.818688481761763"><ele>58.0</ele><time>2026-04-09T18:28:28Z</time></trkpt><trkpt lat="44.998743455757015" lon="9.818306599995534"><ele>58.0</ele><time>2026-04-09T18:28:29Z</time></trkpt><trkpt lat="44.99889186833369" lon="9.817923670833148"><ele>58.0</ele><time>2026-04-09T18:28:30Z</time></trkpt><trkpt lat="44.99904115140954" lon="9.817542719758716"><ele>58.0</ele><time>2026-04-09T18:28:31Z</time></trkpt><trkpt lat="44.99918826735265" lon="9.817156288927965"><ele>57.0</ele><time>2026-04-09T18:28:32Z</time></trkpt><trkpt lat="44.99933350745835" lon="9.816772730190058"><ele>56.0</ele><time>2026-04-09T18:28:33Z</time></trkpt><trkpt lat="44.99947390867991" lon="9.816386017671167"><ele>56.0</ele><time>2026-04-09T18:28:34Z</time></trkpt><trkpt lat="44.999614806467626" lon="9.81599841214736"><ele>56.0</ele><time>2026-04-09T18:28:35Z</time></trkpt><trkpt lat="44.99975911455758" lon="9.815613733895214"><ele>56.5</ele><time>2026-04-09T18:28:36Z</time></trkpt><trkpt lat="44.99990567539093" lon="9.815232107087965"><ele>57.0</ele><time>2026-04-09T18:28:37Z</time></trkpt><trkpt lat="45.00005486530183" lon="9.814847810923583"><ele>57.5</ele><time>2026-04-09T18:28:38Z</time></trkpt><trkpt lat="45.000204234187066" lon="9.814464617275483"><ele>58.0</ele><time>2026-04-09T18:28:39Z</time></trkpt><trkpt lat="45.00035365505038" lon="9.814084382108298"><ele>58.0</ele><time>2026-04-09T18:28:40Z</time></trkpt><trkpt lat="45.00050127701072" lon="9.813702305539532"><ele>58.0</ele><time>2026-04-09T18:28:41Z</time></trkpt><trkpt lat="45.00064905976084" lon="9.813318507718202"><ele>57.5</ele><time>2026-04-09T18:28:42Z</time></trkpt><trkpt lat="45.000794935937925" lon="9.812933436737831"><ele>57.0</ele><time>2026-04-09T18:28:43Z</time></trkpt><trkpt lat="45.00094228669909" lon="9.812551459060947"><ele>56.5</ele><time>2026-04-09T18:28:44Z</time></trkpt><trkpt lat="45.001094881344684" lon="9.812173844281867"><ele>56.0</ele><time>2026-04-09T18:28:45Z</time></trkpt><trkpt lat="45.001251124838284" lon="9.811793989710159"><ele>56.0</ele><time>2026-04-09T18:28:46Z</time></trkpt><trkpt lat="45.001402949645914" lon="9.81141525650637"><ele>56.0</ele><time>2026-04-09T18:28:47Z</time></trkpt><trkpt lat="45.00155471053563" lon="9.811031596001252"><ele>55.5</ele><time>2026-04-09T18:28:48Z</time></trkpt><trkpt lat="45.001704239202056" lon="9.810649191770587"><ele>55.0</ele><time>2026-04-09T18:28:49Z</time></trkpt><trkpt lat="45.00185310437083" lon="9.810267583966722"><ele>55.0</ele><time>2026-04-09T18:28:50Z</time></trkpt><trkpt lat="45.00200458774828" lon="9.809884686493378"><ele>55.0</ele><time>2026-04-09T18:28:51Z</time></trkpt><trkpt lat="45.002158002408095" lon="9.809505038619616"><ele>55.5</ele><time>2026-04-09T18:28:51.999Z</time></trkpt><trkpt lat="45.002310455664144" lon="9.809127793596229"><ele>56.0</ele><time>2026-04-09T18:28:52.999Z</time></trkpt><trkpt lat="45.00246266868367" lon="9.8087451003048"><ele>57.0</ele><time>2026-04-09T18:28:53.999Z</time></trkpt><trkpt lat="45.00261200997949" lon="9.808364903161344"><ele>58.0</ele><time>2026-04-09T18:28:54.999Z</time></trkpt><trkpt lat="45.002760765450425" lon="9.807981028547799"><ele>57.0</ele><time>2026-04-09T18:28:55.999Z</time></trkpt><trkpt lat="45.00290777771042" lon="9.807597066445924"><ele>56.0</ele><time>2026-04-09T18:28:56.999Z</time></trkpt><trkpt lat="45.00305533523934" lon="9.807212928118394"><ele>56.0</ele><time>2026-04-09T18:28:57.999Z</time></trkpt><trkpt lat="45.0032040385497" lon="9.806828563912948"><ele>56.0</ele><time>2026-04-09T18:28:58.999Z</time></trkpt><trkpt lat="45.00335080196226" lon="9.806447325591524"><ele>55.5</ele><time>2026-04-09T18:28:59.999Z</time></trkpt><trkpt lat="45.00349820006173" lon="9.806061282122904"><ele>55.0</ele><time>2026-04-09T18:29:00.999Z</time></trkpt><trkpt lat="45.00364511945652" lon="9.80567827776745"><ele>55.0</ele><time>2026-04-09T18:29:01.999Z</time></trkpt><trkpt lat="45.00379338188681" lon="9.805292859974548"><ele>55.0</ele><time>2026-04-09T18:29:02.999Z</time></trkpt><trkpt lat="45.00394142560811" lon="9.804910129051907"><ele>55.5</ele><time>2026-04-09T18:29:03.999Z</time></trkpt><trkpt lat="45.00409018831177" lon="9.804527084492468"><ele>56.0</ele><time>2026-04-09T18:29:04.999Z</time></trkpt><trkpt lat="45.00424008951897" lon="9.80414442627407"><ele>56.0</ele><time>2026-04-09T18:29:05.999Z</time></trkpt><trkpt lat="45.00439169478118" lon="9.803760253566258"><ele>56.0</ele><time>2026-04-09T18:29:06.999Z</time></trkpt><trkpt lat="45.00454151649269" lon="9.803382261187723"><ele>56.5</ele><time>2026-04-09T18:29:07.999Z</time></trkpt><trkpt lat="45.00469129188842" lon="9.802999974590461"><ele>57.0</ele><time>2026-04-09T18:29:08.999Z</time></trkpt><trkpt lat="45.004855596827724" lon="9.802616610188053"><ele>58.0</ele><time>2026-04-09T18:29:09.999Z</time></trkpt><trkpt lat="45.00499423199746" lon="9.802235864757892"><ele>59.0</ele><time>2026-04-09T18:29:10.999Z</time></trkpt><trkpt lat="45.005140839885065" lon="9.801854866831256"><ele>58.5</ele><time>2026-04-09T18:29:11.999Z</time></trkpt><trkpt lat="45.00528946893919" lon="9.801469737320565"><ele>58.0</ele><time>2026-04-09T18:29:12.999Z</time></trkpt><trkpt lat="45.005442556751184" lon="9.801090740198772"><ele>60.0</ele><time>2026-04-09T18:29:13.999Z</time></trkpt><trkpt lat="45.00559794622738" lon="9.800713333705103"><ele>62.0</ele><time>2026-04-09T18:29:14.999Z</time></trkpt><trkpt lat="45.00575702705056" lon="9.800338479627802"><ele>61.0</ele><time>2026-04-09T18:29:15.999Z</time></trkpt><trkpt lat="45.00591780723104" lon="9.799962245747498"><ele>60.0</ele><time>2026-04-09T18:29:16.999Z</time></trkpt><trkpt lat="45.00608165175209" lon="9.799590217870978"><ele>60.0</ele><time>2026-04-09T18:29:17.999Z</time></trkpt><trkpt lat="45.00624680773609" lon="9.799218788189306"><ele>60.0</ele><time>2026-04-09T18:29:18.999Z</time></trkpt><trkpt lat="45.0064109173304" lon="9.798850352981619"><ele>60.5</ele><time>2026-04-09T18:29:19.999Z</time></trkpt><trkpt lat="45.00657542391374" lon="9.798480827643614"><ele>61.0</ele><time>2026-04-09T18:29:20.999Z</time></trkpt><trkpt lat="45.00674110637957" lon="9.798111381181348"><ele>61.0</ele><time>2026-04-09T18:29:21.999Z</time></trkpt><trkpt lat="45.00691056942432" lon="9.797746002327319"><ele>61.0</ele><time>2026-04-09T18:29:22.999Z</time></trkpt><trkpt lat="45.00708286711047" lon="9.79738145425521"><ele>61.0</ele><time>2026-04-09T18:29:23.999Z</time></trkpt><trkpt lat="45.00725678142333" lon="9.797017649102566"><ele>61.0</ele><time>2026-04-09T18:29:24.999Z</time></trkpt><trkpt lat="45.00743134241667" lon="9.796655386430357"><ele>60.0</ele><time>2026-04-09T18:29:25.999Z</time></trkpt><trkpt lat="45.007610753769995" lon="9.796304810871474"><ele>59.0</ele><time>2026-04-09T18:29:26.999Z</time></trkpt><trkpt lat="45.007789683192826" lon="9.795942863740892"><ele>58.0</ele><time>2026-04-09T18:29:27.999Z</time></trkpt><trkpt lat="45.00796916538747" lon="9.795585872357035"><ele>57.0</ele><time>2026-04-09T18:29:28.999Z</time></trkpt><trkpt lat="45.00815027755007" lon="9.79522831883523"><ele>57.0</ele><time>2026-04-09T18:29:29.999Z</time></trkpt><trkpt lat="45.00833349543927" lon="9.79487428334126"><ele>57.0</ele><time>2026-04-09T18:29:30.999Z</time></trkpt><trkpt lat="45.008517865103975" lon="9.794524758891756"><ele>58.5</ele><time>2026-04-09T18:29:31.999Z</time></trkpt><trkpt lat="45.008704796664404" lon="9.794176280623693"><ele>60.0</ele><time>2026-04-09T18:29:32.999Z</time></trkpt><trkpt lat="45.00889530646677" lon="9.793828685651722"><ele>60.0</ele><time>2026-04-09T18:29:33.999Z</time></trkpt><trkpt lat="45.009086326599764" lon="9.793485997231322"><ele>60.0</ele><time>2026-04-09T18:29:34.999Z</time></trkpt><trkpt lat="45.009278664032955" lon="9.793150343753585"><ele>59.5</ele><time>2026-04-09T18:29:35.999Z</time></trkpt><trkpt lat="45.00947499957222" lon="9.792811093921513"><ele>59.0</ele><time>2026-04-09T18:29:36.999Z</time></trkpt><trkpt lat="45.00967555908535" lon="9.79247423548548"><ele>59.5</ele><time>2026-04-09T18:29:37.999Z</time></trkpt><trkpt lat="45.00986989608317" lon="9.792134802820136"><ele>60.0</ele><time>2026-04-09T18:29:38.999Z</time></trkpt><trkpt lat="45.010071188850205" lon="9.791802960135765"><ele>60.0</ele><time>2026-04-09T18:29:39.999Z</time></trkpt><trkpt lat="45.01026898766719" lon="9.791466973029525"><ele>60.0</ele><time>2026-04-09T18:29:40.999Z</time></trkpt><trkpt lat="45.01046718354635" lon="9.791131243905838"><ele>60.0</ele><time>2026-04-09T18:29:41.999Z</time></trkpt><trkpt lat="45.0106687417675" lon="9.79079822693029"><ele>60.0</ele><time>2026-04-09T18:29:42.999Z</time></trkpt><trkpt lat="45.0108751364267" lon="9.790471121197076"><ele>59.0</ele><time>2026-04-09T18:29:43.999Z</time></trkpt><trkpt lat="45.011082397535475" lon="9.79015080800525"><ele>58.0</ele><time>2026-04-09T18:29:44.999Z</time></trkpt><trkpt lat="45.01129009658023" lon="9.789827359562967"><ele>58.0</ele><time>2026-04-09T18:29:45.999Z</time></trkpt><trkpt lat="45.01150005157879" lon="9.789509514432167"><ele>58.0</ele><time>2026-04-09T18:29:46.999Z</time></trkpt><trkpt lat="45.011712398613874" lon="9.789192557746725"><ele>58.0</ele><time>2026-04-09T18:29:47.999Z</time></trkpt><trkpt lat="45.0119266629599" lon="9.788876064172106"><ele>58.0</ele><time>2026-04-09T18:29:48.999Z</time></trkpt><trkpt lat="45.012142097425745" lon="9.788565695559038"><ele>58.0</ele><time>2026-04-09T18:29:49.999Z</time></trkpt><trkpt lat="45.01235768434863" lon="9.788255057623356"><ele>58.0</ele><time>2026-04-09T18:29:50.999Z</time></trkpt><trkpt lat="45.01257597479708" lon="9.787945188454067"><ele>58.0</ele><time>2026-04-09T18:29:51.999Z</time></trkpt><trkpt lat="45.012796167788835" lon="9.787640461066982"><ele>58.0</ele><time>2026-04-09T18:29:52.999Z</time></trkpt><trkpt lat="45.01301752535812" lon="9.78733352596094"><ele>58.0</ele><time>2026-04-09T18:29:53.999Z</time></trkpt><trkpt lat="45.013239178891496" lon="9.7870313174989"><ele>58.0</ele><time>2026-04-09T18:29:54.999Z</time></trkpt><trkpt lat="45.01346268637559" lon="9.786728235780275"><ele>57.5</ele><time>2026-04-09T18:29:55.999Z</time></trkpt><trkpt lat="45.01368859225315" lon="9.786428545043156"><ele>57.0</ele><time>2026-04-09T18:29:56.999Z</time></trkpt><trkpt lat="45.01391610886094" lon="9.786131306020083"><ele>57.5</ele><time>2026-04-09T18:29:57.999Z</time></trkpt><trkpt lat="45.01414513973662" lon="9.785838281841405"><ele>58.0</ele><time>2026-04-09T18:29:58.999Z</time></trkpt><trkpt lat="45.01437557239258" lon="9.785541981552564"><ele>58.0</ele><time>2026-04-09T18:29:59.999Z</time></trkpt><trkpt lat="45.01460651155437" lon="9.785249789733088"><ele>58.0</ele><time>2026-04-09T18:30:00.999Z</time></trkpt><trkpt lat="45.014837906515154" lon="9.784960763829975"><ele>59.0</ele><time>2026-04-09T18:30:01.999Z</time></trkpt><trkpt lat="45.015070357550016" lon="9.78467364451338"><ele>60.0</ele><time>2026-04-09T18:30:02.999Z</time></trkpt><trkpt lat="45.01530405883934" lon="9.784391626119616"><ele>59.5</ele><time>2026-04-09T18:30:03.999Z</time></trkpt><trkpt lat="45.015538396812104" lon="9.78411214809138"><ele>59.0</ele><time>2026-04-09T18:30:04.998Z</time></trkpt><trkpt lat="45.015775846410584" lon="9.783834056920941"><ele>58.0</ele><time>2026-04-09T18:30:05.998Z</time></trkpt><trkpt lat="45.01601598866005" lon="9.783558193850276"><ele>57.0</ele><time>2026-04-09T18:30:06.998Z</time></trkpt><trkpt lat="45.01625781414881" lon="9.783284745646347"><ele>57.0</ele><time>2026-04-09T18:30:07.998Z</time></trkpt><trkpt lat="45.01650177213792" lon="9.78301287017394"><ele>57.0</ele><time>2026-04-09T18:30:09Z</time></trkpt><trkpt lat="45.01674625026272" lon="9.782743143658578"><ele>57.0</ele><time>2026-04-09T18:30:10Z</time></trkpt><trkpt lat="45.01699231350973" lon="9.782477008288266"><ele>57.0</ele><time>2026-04-09T18:30:11Z</time></trkpt><trkpt lat="45.01724027121113" lon="9.782212009412497"><ele>57.0</ele><time>2026-04-09T18:30:12Z</time></trkpt><trkpt lat="45.01748920589484" lon="9.781949795561438"><ele>57.0</ele><time>2026-04-09T18:30:13Z</time></trkpt><trkpt lat="45.017740091331724" lon="9.781687369362933"><ele>57.0</ele><time>2026-04-09T18:30:14Z</time></trkpt><trkpt lat="45.017992674164816" lon="9.781429332947793"><ele>57.0</ele><time>2026-04-09T18:30:15Z</time></trkpt><trkpt lat="45.01824659068283" lon="9.781173025010057"><ele>57.0</ele><time>2026-04-09T18:30:16Z</time></trkpt><trkpt lat="45.018501172925056" lon="9.780922141346123"><ele>57.0</ele><time>2026-04-09T18:30:17Z</time></trkpt><trkpt lat="45.01875431042655" lon="9.780667885897715"><ele>57.0</ele><time>2026-04-09T18:30:18Z</time></trkpt><trkpt lat="45.01900793577602" lon="9.780412970566244"><ele>57.0</ele><time>2026-04-09T18:30:19Z</time></trkpt><trkpt lat="45.01926301283192" lon="9.78015609897863"><ele>57.0</ele><time>2026-04-09T18:30:20Z</time></trkpt><trkpt lat="45.01951872343672" lon="9.779904918165215"><ele>57.0</ele><time>2026-04-09T18:30:21Z</time></trkpt><trkpt lat="45.01977243777833" lon="9.779654829161032"><ele>57.0</ele><time>2026-04-09T18:30:22Z</time></trkpt><trkpt lat="45.020027711462355" lon="9.779409426043904"><ele>57.0</ele><time>2026-04-09T18:30:23Z</time></trkpt><trkpt lat="45.02028000893431" lon="9.779159574407904"><ele>58.0</ele><time>2026-04-09T18:30:24Z</time></trkpt><trkpt lat="45.02053398797984" lon="9.778911736158312"><ele>59.0</ele><time>2026-04-09T18:30:25Z</time></trkpt><trkpt lat="45.02078639940154" lon="9.778657965520175"><ele>58.5</ele><time>2026-04-09T18:30:26Z</time></trkpt><trkpt lat="45.02103937930697" lon="9.778408596827292"><ele>58.0</ele><time>2026-04-09T18:30:27Z</time></trkpt><trkpt lat="45.02129322918795" lon="9.778157814093195"><ele>58.0</ele><time>2026-04-09T18:30:28Z</time></trkpt><trkpt lat="45.021547591437475" lon="9.777910263959303"><ele>58.0</ele><time>2026-04-09T18:30:29Z</time></trkpt><trkpt lat="45.02180136407506" lon="9.777660845721952"><ele>57.5</ele><time>2026-04-09T18:30:30Z</time></trkpt><trkpt lat="45.02205435523474" lon="9.77741031692061"><ele>57.0</ele><time>2026-04-09T18:30:31Z</time></trkpt><trkpt lat="45.02230917719452" lon="9.777160340073996"><ele>57.0</ele><time>2026-04-09T18:30:32Z</time></trkpt><trkpt lat="45.02256270479678" lon="9.776913526878374"><ele>57.0</ele><time>2026-04-09T18:30:33Z</time></trkpt><trkpt lat="45.02281771057794" lon="9.77666640030598"><ele>57.0</ele><time>2026-04-09T18:30:34Z</time></trkpt><trkpt lat="45.02306578575861" lon="9.776422776003475"><ele>57.0</ele><time>2026-04-09T18:30:35Z</time></trkpt><trkpt lat="45.02330904194625" lon="9.776183952403512"><ele>55.5</ele><time>2026-04-09T18:30:36Z</time></trkpt><trkpt lat="45.02355445521309" lon="9.77594980932915"><ele>54.0</ele><time>2026-04-09T18:30:37Z</time></trkpt><trkpt lat="45.023799386902446" lon="9.775713242743839"><ele>54.0</ele><time>2026-04-09T18:30:38Z</time></trkpt><trkpt lat="45.02404285607429" lon="9.775474090978904"><ele>54.0</ele><time>2026-04-09T18:30:39Z</time></trkpt><trkpt lat="45.02428536287411" lon="9.775231158781473"><ele>54.5</ele><time>2026-04-09T18:30:40Z</time></trkpt><trkpt lat="45.024527378115444" lon="9.774988540389911"><ele>55.0</ele><time>2026-04-09T18:30:41Z</time></trkpt><trkpt lat="45.024770276655026" lon="9.774743548138693"><ele>55.0</ele><time>2026-04-09T18:30:42Z</time></trkpt><trkpt lat="45.02501417242672" lon="9.774498188955873"><ele>55.0</ele><time>2026-04-09T18:30:43Z</time></trkpt><trkpt lat="45.025257959494446" lon="9.774255462565797"><ele>55.0</ele><time>2026-04-09T18:30:44Z</time></trkpt><trkpt lat="45.02550249756763" lon="9.774013187039106"><ele>55.0</ele><time>2026-04-09T18:30:45Z</time></trkpt><trkpt lat="45.02574691269188" lon="9.773774536936546"><ele>55.5</ele><time>2026-04-09T18:30:46Z</time></trkpt><trkpt lat="45.02599325803443" lon="9.773534767912047"><ele>56.0</ele><time>2026-04-09T18:30:47Z</time></trkpt><trkpt lat="45.026239791380156" lon="9.773297053397553"><ele>55.5</ele><time>2026-04-09T18:30:48Z</time></trkpt><trkpt lat="45.026485810321375" lon="9.773055637422322"><ele>55.0</ele><time>2026-04-09T18:30:49Z</time></trkpt><trkpt lat="45.02673087195374" lon="9.772815107266084"><ele>54.5</ele><time>2026-04-09T18:30:50Z</time></trkpt><trkpt lat="45.02697244177732" lon="9.772573505149113"><ele>54.0</ele><time>2026-04-09T18:30:51Z</time></trkpt><trkpt lat="45.02721423882104" lon="9.772326506987852"><ele>54.0</ele><time>2026-04-09T18:30:52Z</time></trkpt><trkpt lat="45.027456113558124" lon="9.772081058717644"><ele>54.0</ele><time>2026-04-09T18:30:53Z</time></trkpt><trkpt lat="45.02769529941764" lon="9.771835987150974"><ele>53.5</ele><time>2026-04-09T18:30:54Z</time></trkpt><trkpt lat="45.02793677293084" lon="9.771591243188627"><ele>53.0</ele><time>2026-04-09T18:30:55Z</time></trkpt><trkpt lat="45.02817902507386" lon="9.771347790500885"><ele>54.0</ele><time>2026-04-09T18:30:56Z</time></trkpt><trkpt lat="45.02842188426511" lon="9.771103261873053"><ele>55.0</ele><time>2026-04-09T18:30:57Z</time></trkpt><trkpt lat="45.028672529987126" lon="9.770852746863385"><ele>55.0</ele><time>2026-04-09T18:30:58Z</time></trkpt><trkpt lat="45.02892687441913" lon="9.770593658200333"><ele>55.0</ele><time>2026-04-09T18:30:59Z</time></trkpt><trkpt lat="45.02918551960471" lon="9.77033671688679"><ele>54.5</ele><time>2026-04-09T18:30:59.999Z</time></trkpt><trkpt lat="45.02944027008526" lon="9.770081705183497"><ele>54.0</ele><time>2026-04-09T18:31:00.999Z</time></trkpt><trkpt lat="45.029697337116666" lon="9.769827639227769"><ele>54.0</ele><time>2026-04-09T18:31:01.999Z</time></trkpt><trkpt lat="45.02995471942315" lon="9.769573899795526"><ele>54.0</ele><time>2026-04-09T18:31:02.999Z</time></trkpt><trkpt lat="45.03021023422097" lon="9.769324075479698"><ele>54.0</ele><time>2026-04-09T18:31:03.999Z</time></trkpt><trkpt lat="45.03046295288086" lon="9.769078202001785"><ele>54.0</ele><time>2026-04-09T18:31:04.999Z</time></trkpt><trkpt lat="45.03071765888221" lon="9.768831748673648"><ele>54.0</ele><time>2026-04-09T18:31:05.999Z</time></trkpt><trkpt lat="45.030969658432404" lon="9.768584567781804"><ele>54.0</ele><time>2026-04-09T18:31:06.999Z</time></trkpt><trkpt lat="45.03121937869501" lon="9.768333597518419"><ele>54.0</ele><time>2026-04-09T18:31:07.999Z</time></trkpt><trkpt lat="45.03146899572594" lon="9.768086218647051"><ele>54.0</ele><time>2026-04-09T18:31:08.999Z</time></trkpt><trkpt lat="45.031720326093684" lon="9.767837915866828"><ele>53.5</ele><time>2026-04-09T18:31:09.999Z</time></trkpt><trkpt lat="45.03197297832075" lon="9.767588716851522"><ele>53.0</ele><time>2026-04-09T18:31:10.999Z</time></trkpt><trkpt lat="45.03222628141746" lon="9.767338258630142"><ele>53.0</ele><time>2026-04-09T18:31:11.999Z</time></trkpt><trkpt lat="45.03247909285097" lon="9.767089110405797"><ele>53.0</ele><time>2026-04-09T18:31:12.999Z</time></trkpt><trkpt lat="45.0327359474674" lon="9.76683893146828"><ele>53.0</ele><time>2026-04-09T18:31:13.999Z</time></trkpt><trkpt lat="45.032994994118326" lon="9.766591808856798"><ele>53.0</ele><time>2026-04-09T18:31:14.999Z</time></trkpt><trkpt lat="45.03325341670707" lon="9.76634575265277"><ele>54.0</ele><time>2026-04-09T18:31:15.999Z</time></trkpt><trkpt lat="45.03351175144826" lon="9.766100744733176"><ele>55.0</ele><time>2026-04-09T18:31:16.999Z</time></trkpt><trkpt lat="45.03377004827092" lon="9.76585251958912"><ele>55.0</ele><time>2026-04-09T18:31:17.999Z</time></trkpt><trkpt lat="45.034027835645574" lon="9.765602158001897"><ele>55.0</ele><time>2026-04-09T18:31:18.999Z</time></trkpt><trkpt lat="45.03428347487896" lon="9.765354239853785"><ele>54.5</ele><time>2026-04-09T18:31:19.999Z</time></trkpt><trkpt lat="45.03454153571198" lon="9.765104670690327"><ele>54.0</ele><time>2026-04-09T18:31:20.999Z</time></trkpt><trkpt lat="45.034799618088414" lon="9.764854121754718"><ele>54.0</ele><time>2026-04-09T18:31:21.999Z</time></trkpt><trkpt lat="45.03505456456235" lon="9.764601974279199"><ele>54.0</ele><time>2026-04-09T18:31:22.999Z</time></trkpt><trkpt lat="45.0353104589857" lon="9.764351387389935"><ele>53.5</ele><time>2026-04-09T18:31:23.999Z</time></trkpt><trkpt lat="45.035564816053714" lon="9.764100282283676"><ele>53.0</ele><time>2026-04-09T18:31:24.999Z</time></trkpt><trkpt lat="45.03581857001524" lon="9.763846797029382"><ele>53.0</ele><time>2026-04-09T18:31:25.999Z</time></trkpt><trkpt lat="45.03607174188532" lon="9.763591650007092"><ele>53.0</ele><time>2026-04-09T18:31:26.999Z</time></trkpt><trkpt lat="45.03632347124462" lon="9.763338339299494"><ele>52.0</ele><time>2026-04-09T18:31:27.999Z</time></trkpt><trkpt lat="45.03657786549081" lon="9.763084160649539"><ele>51.0</ele><time>2026-04-09T18:31:28.999Z</time></trkpt><trkpt lat="45.036832838595195" lon="9.76283265472768"><ele>50.5</ele><time>2026-04-09T18:31:29.999Z</time></trkpt><trkpt lat="45.03708680141579" lon="9.762584985528648"><ele>50.0</ele><time>2026-04-09T18:31:30.999Z</time></trkpt><trkpt lat="45.037340916512605" lon="9.762335744425577"><ele>50.0</ele><time>2026-04-09T18:31:31.999Z</time></trkpt><trkpt lat="45.03759622683497" lon="9.762085625952079"><ele>50.0</ele><time>2026-04-09T18:31:32.999Z</time></trkpt><trkpt lat="45.037847883123334" lon="9.761837876897197"><ele>50.0</ele><time>2026-04-09T18:31:33.999Z</time></trkpt><trkpt lat="45.03810316589325" lon="9.761593328450077"><ele>50.0</ele><time>2026-04-09T18:31:34.999Z</time></trkpt><trkpt lat="45.038354487106645" lon="9.761344091601801"><ele>50.5</ele><time>2026-04-09T18:31:35.999Z</time></trkpt><trkpt lat="45.03860868299368" lon="9.761099302944148"><ele>51.0</ele><time>2026-04-09T18:31:36.999Z</time></trkpt><trkpt lat="45.038860864819235" lon="9.760855107026646"><ele>50.0</ele><time>2026-04-09T18:31:37.999Z</time></trkpt><trkpt lat="45.03910872580477" lon="9.760605753207274"><ele>49.0</ele><time>2026-04-09T18:31:38.999Z</time></trkpt><trkpt lat="45.03936854371905" lon="9.760355904813412"><ele>49.0</ele><time>2026-04-09T18:31:39.999Z</time></trkpt><trkpt lat="45.03961366443169" lon="9.760109133056472"><ele>49.0</ele><time>2026-04-09T18:31:40.999Z</time></trkpt><trkpt lat="45.03986756452993" lon="9.75985569581217"><ele>47.5</ele><time>2026-04-09T18:31:41.999Z</time></trkpt><trkpt lat="45.04012099928551" lon="9.759604408389574"><ele>46.0</ele><time>2026-04-09T18:31:42.999Z</time></trkpt><trkpt lat="45.04037464201696" lon="9.759353331334122"><ele>46.0</ele><time>2026-04-09T18:31:43.999Z</time></trkpt><trkpt lat="45.040629033183926" lon="9.7591044535265"><ele>46.0</ele><time>2026-04-09T18:31:44.999Z</time></trkpt><trkpt lat="45.04088347760983" lon="9.758856735941626"><ele>45.5</ele><time>2026-04-09T18:31:45.999Z</time></trkpt><trkpt lat="45.041137402831026" lon="9.75860881716863"><ele>45.0</ele><time>2026-04-09T18:31:46.999Z</time></trkpt><trkpt lat="45.04139277426155" lon="9.758355994803992"><ele>45.5</ele><time>2026-04-09T18:31:47.999Z</time></trkpt><trkpt lat="45.04164736913467" lon="9.758105492843761"><ele>46.0</ele><time>2026-04-09T18:31:48.999Z</time></trkpt><trkpt lat="45.041899644851036" lon="9.757855183561988"><ele>45.0</ele><time>2026-04-09T18:31:49.999Z</time></trkpt><trkpt lat="45.04215185799531" lon="9.75760694791194"><ele>44.0</ele><time>2026-04-09T18:31:50.999Z</time></trkpt><trkpt lat="45.04240740530204" lon="9.757354600988537"><ele>43.5</ele><time>2026-04-09T18:31:51.999Z</time></trkpt><trkpt lat="45.04266044151954" lon="9.757105927660557"><ele>43.0</ele><time>2026-04-09T18:31:52.999Z</time></trkpt><trkpt lat="45.04291544322597" lon="9.756860541453891"><ele>43.0</ele><time>2026-04-09T18:31:53.999Z</time></trkpt><trkpt lat="45.04317010256473" lon="9.756614834446706"><ele>43.0</ele><time>2026-04-09T18:31:54.999Z</time></trkpt><trkpt lat="45.04342352055319" lon="9.75636476108126"><ele>44.0</ele><time>2026-04-09T18:31:55.999Z</time></trkpt><trkpt lat="45.04367688630239" lon="9.756113507114494"><ele>45.0</ele><time>2026-04-09T18:31:56.999Z</time></trkpt><trkpt lat="45.04392887703924" lon="9.755861259122003"><ele>45.0</ele><time>2026-04-09T18:31:57.999Z</time></trkpt><trkpt lat="45.04417986855208" lon="9.755611268875631"><ele>45.0</ele><time>2026-04-09T18:31:58.999Z</time></trkpt><trkpt lat="45.044433766218106" lon="9.755361394175958"><ele>45.5</ele><time>2026-04-09T18:31:59.999Z</time></trkpt><trkpt lat="45.044689352491076" lon="9.755112578341032"><ele>46.0</ele><time>2026-04-09T18:32:00.999Z</time></trkpt><trkpt lat="45.044931748556905" lon="9.7548535879634"><ele>46.0</ele><time>2026-04-09T18:32:01.999Z</time></trkpt><trkpt lat="45.04519326673979" lon="9.754615517602227"><ele>46.0</ele><time>2026-04-09T18:32:02.999Z</time></trkpt><trkpt lat="45.04544875162716" lon="9.754368989857294"><ele>45.5</ele><time>2026-04-09T18:32:03.999Z</time></trkpt><trkpt lat="45.045701428555546" lon="9.75411714213697"><ele>45.0</ele><time>2026-04-09T18:32:04.999Z</time></trkpt><trkpt lat="45.045953581561626" lon="9.753862623259163"><ele>45.0</ele><time>2026-04-09T18:32:05.999Z</time></trkpt><trkpt lat="45.0462038178696" lon="9.75360814509716"><ele>45.0</ele><time>2026-04-09T18:32:06.999Z</time></trkpt><trkpt lat="45.04645428312779" lon="9.753354246053307"><ele>45.0</ele><time>2026-04-09T18:32:07.999Z</time></trkpt><trkpt lat="45.04670692456533" lon="9.75310028003711"><ele>45.0</ele><time>2026-04-09T18:32:08.999Z</time></trkpt><trkpt lat="45.04696051330465" lon="9.752851264455593"><ele>45.0</ele><time>2026-04-09T18:32:09.999Z</time></trkpt><trkpt lat="45.04721505746276" lon="9.752601019211966"><ele>45.0</ele><time>2026-04-09T18:32:10.999Z</time></trkpt><trkpt lat="45.04746906619916" lon="9.752351872508147"><ele>45.5</ele><time>2026-04-09T18:32:11.999Z</time></trkpt><trkpt lat="45.04772518552816" lon="9.752105961063814"><ele>46.0</ele><time>2026-04-09T18:32:12.998Z</time></trkpt><trkpt lat="45.04798088801478" lon="9.751859749871196"><ele>46.0</ele><time>2026-04-09T18:32:13.998Z</time></trkpt><trkpt lat="45.048238002059" lon="9.751610617786978"><ele>46.0</ele><time>2026-04-09T18:32:15Z</time></trkpt><trkpt lat="45.04849270197073" lon="9.75136116105349"><ele>45.5</ele><time>2026-04-09T18:32:16Z</time></trkpt><trkpt lat="45.048746430285384" lon="9.75110925340394"><ele>45.0</ele><time>2026-04-09T18:32:17Z</time></trkpt><trkpt lat="45.04900012916694" lon="9.750858648670391"><ele>45.0</ele><time>2026-04-09T18:32:18Z</time></trkpt><trkpt lat="45.04925254690945" lon="9.750603498144748"><ele>45.0</ele><time>2026-04-09T18:32:19Z</time></trkpt><trkpt lat="45.04950523328684" lon="9.750352996081965"><ele>45.5</ele><time>2026-04-09T18:32:20Z</time></trkpt><trkpt lat="45.04975903737443" lon="9.750098709921678"><ele>46.0</ele><time>2026-04-09T18:32:21Z</time></trkpt><trkpt lat="45.05001469963803" lon="9.74984706801233"><ele>46.0</ele><time>2026-04-09T18:32:22Z</time></trkpt><trkpt lat="45.05026864882841" lon="9.749598596198242"><ele>46.0</ele><time>2026-04-09T18:32:23Z</time></trkpt><trkpt lat="45.05052405648674" lon="9.749351118918044"><ele>45.5</ele><time>2026-04-09T18:32:24Z</time></trkpt><trkpt lat="45.05078004793495" lon="9.749101156082215"><ele>45.0</ele><time>2026-04-09T18:32:25Z</time></trkpt><trkpt lat="45.05103434196338" lon="9.748847012534577"><ele>45.0</ele><time>2026-04-09T18:32:26Z</time></trkpt><trkpt lat="45.05128853746946" lon="9.74859697047886"><ele>45.0</ele><time>2026-04-09T18:32:27Z</time></trkpt><trkpt lat="45.05154163396357" lon="9.748344548271028"><ele>46.0</ele><time>2026-04-09T18:32:28Z</time></trkpt><trkpt lat="45.051794826296785" lon="9.748094635175947"><ele>47.0</ele><time>2026-04-09T18:32:29Z</time></trkpt><trkpt lat="45.05204913177683" lon="9.74784272174568"><ele>46.5</ele><time>2026-04-09T18:32:30Z</time></trkpt><trkpt lat="45.052297488524786" lon="9.747583687262818"><ele>46.0</ele><time>2026-04-09T18:32:31Z</time></trkpt><trkpt lat="45.05255168747879" lon="9.747328109070285"><ele>47.0</ele><time>2026-04-09T18:32:32Z</time></trkpt><trkpt lat="45.05280827433265" lon="9.747092322264486"><ele>48.0</ele><time>2026-04-09T18:32:33Z</time></trkpt><trkpt lat="45.05306477960193" lon="9.746841640331938"><ele>47.5</ele><time>2026-04-09T18:32:34Z</time></trkpt><trkpt lat="45.053318913602155" lon="9.746593255464303"><ele>47.0</ele><time>2026-04-09T18:32:35Z</time></trkpt><trkpt lat="45.05357302001636" lon="9.746340987224539"><ele>47.0</ele><time>2026-04-09T18:32:36Z</time></trkpt><trkpt lat="45.05382489412124" lon="9.746086841597828"><ele>47.0</ele><time>2026-04-09T18:32:37Z</time></trkpt><trkpt lat="45.05407844065489" lon="9.745833156611313"><ele>46.5</ele><time>2026-04-09T18:32:38Z</time></trkpt><trkpt lat="45.05433123782762" lon="9.745583045352573"><ele>46.0</ele><time>2026-04-09T18:32:39Z</time></trkpt><trkpt lat="45.05458500259212" lon="9.745333540449922"><ele>46.0</ele><time>2026-04-09T18:32:40Z</time></trkpt><trkpt lat="45.0548388739291" lon="9.745083624890583"><ele>46.0</ele><time>2026-04-09T18:32:41Z</time></trkpt><trkpt lat="45.05509446675039" lon="9.74483238597064"><ele>46.0</ele><time>2026-04-09T18:32:42Z</time></trkpt><trkpt lat="45.05534730872045" lon="9.744574175535943"><ele>46.0</ele><time>2026-04-09T18:32:43Z</time></trkpt><trkpt lat="45.05560849274112" lon="9.744329474359017"><ele>46.0</ele><time>2026-04-09T18:32:44Z</time></trkpt><trkpt lat="45.05585664820957" lon="9.744074797399504"><ele>46.0</ele><time>2026-04-09T18:32:45Z</time></trkpt><trkpt lat="45.05611030595071" lon="9.743826352462323"><ele>46.0</ele><time>2026-04-09T18:32:46Z</time></trkpt><trkpt lat="45.05636501491471" lon="9.7435750208081"><ele>46.0</ele><time>2026-04-09T18:32:47Z</time></trkpt><trkpt lat="45.05661976656098" lon="9.743327906788316"><ele>45.5</ele><time>2026-04-09T18:32:48Z</time></trkpt><trkpt lat="45.0568749434887" lon="9.743078059675312"><ele>45.0</ele><time>2026-04-09T18:32:49Z</time></trkpt><trkpt lat="45.057128747207976" lon="9.742827623112474"><ele>44.5</ele><time>2026-04-09T18:32:50Z</time></trkpt><trkpt lat="45.05738080737246" lon="9.742573735636746"><ele>44.0</ele><time>2026-04-09T18:32:51Z</time></trkpt><trkpt lat="45.05762877537085" lon="9.742335483032623"><ele>44.5</ele><time>2026-04-09T18:32:52Z</time></trkpt><trkpt lat="45.05788863791734" lon="9.74208643880483"><ele>45.0</ele><time>2026-04-09T18:32:53Z</time></trkpt><trkpt lat="45.05813834256053" lon="9.741828722471036"><ele>45.5</ele><time>2026-04-09T18:32:54Z</time></trkpt><trkpt lat="45.05839208294856" lon="9.741579776059444"><ele>46.0</ele><time>2026-04-09T18:32:55Z</time></trkpt><trkpt lat="45.05864450704865" lon="9.741332516809956"><ele>46.0</ele><time>2026-04-09T18:32:56Z</time></trkpt><trkpt lat="45.058897378475365" lon="9.74108388876517"><ele>46.0</ele><time>2026-04-09T18:32:57Z</time></trkpt><trkpt lat="45.059151393241784" lon="9.740835223880225"><ele>46.0</ele><time>2026-04-09T18:32:58Z</time></trkpt><trkpt lat="45.0594069363546" lon="9.74058833574848"><ele>46.0</ele><time>2026-04-09T18:32:59Z</time></trkpt><trkpt lat="45.059663550438046" lon="9.740345705859319"><ele>46.5</ele><time>2026-04-09T18:33:00Z</time></trkpt><trkpt lat="45.05992252102564" lon="9.740100540813591"><ele>47.0</ele><time>2026-04-09T18:33:01Z</time></trkpt><trkpt lat="45.06017879049787" lon="9.73986214777749"><ele>47.0</ele><time>2026-04-09T18:33:02Z</time></trkpt><trkpt lat="45.060435507002566" lon="9.73961122322966"><ele>47.0</ele><time>2026-04-09T18:33:03Z</time></trkpt><trkpt lat="45.06069360794974" lon="9.7393640033219"><ele>49.5</ele><time>2026-04-09T18:33:04Z</time></trkpt><trkpt lat="45.06095064450578" lon="9.739116393515047"><ele>52.0</ele><time>2026-04-09T18:33:05Z</time></trkpt><trkpt lat="45.06120647184651" lon="9.73886363908626"><ele>52.0</ele><time>2026-04-09T18:33:06Z</time></trkpt><trkpt lat="45.06146194565953" lon="9.738612698073048"><ele>52.0</ele><time>2026-04-09T18:33:06.999Z</time></trkpt><trkpt lat="45.0617147219866" lon="9.738366001449615"><ele>53.5</ele><time>2026-04-09T18:33:07.999Z</time></trkpt><trkpt lat="45.06197226029223" lon="9.738117577116968"><ele>55.0</ele><time>2026-04-09T18:33:08.999Z</time></trkpt><trkpt lat="45.06222886192193" lon="9.737872734500543"><ele>53.5</ele><time>2026-04-09T18:33:09.999Z</time></trkpt><trkpt lat="45.062487702938924" lon="9.737632901735173"><ele>52.0</ele><time>2026-04-09T18:33:10.999Z</time></trkpt><trkpt lat="45.062744021242665" lon="9.737392884178595"><ele>52.0</ele><time>2026-04-09T18:33:11.999Z</time></trkpt><trkpt lat="45.06300332974283" lon="9.737149058265183"><ele>52.0</ele><time>2026-04-09T18:33:12.999Z</time></trkpt><trkpt lat="45.063261095769846" lon="9.736901399353274"><ele>50.5</ele><time>2026-04-09T18:33:13.999Z</time></trkpt><trkpt lat="45.06351991202947" lon="9.736654135858176"><ele>49.0</ele><time>2026-04-09T18:33:14.999Z</time></trkpt><trkpt lat="45.06377636859272" lon="9.73640332465573"><ele>49.0</ele><time>2026-04-09T18:33:15.999Z</time></trkpt><trkpt lat="45.06402833574492" lon="9.736151777644753"><ele>49.0</ele><time>2026-04-09T18:33:16.999Z</time></trkpt><trkpt lat="45.06428136532631" lon="9.73589797828553"><ele>48.5</ele><time>2026-04-09T18:33:17.999Z</time></trkpt><trkpt lat="45.06453764065616" lon="9.73564405909821"><ele>48.0</ele><time>2026-04-09T18:33:18.999Z</time></trkpt><trkpt lat="45.06479072183442" lon="9.735392050169672"><ele>44.5</ele><time>2026-04-09T18:33:19.999Z</time></trkpt><trkpt lat="45.0650440131022" lon="9.735135104625947"><ele>41.0</ele><time>2026-04-09T18:33:20.999Z</time></trkpt><trkpt lat="45.065295709556054" lon="9.734883307396323"><ele>41.0</ele><time>2026-04-09T18:33:21.999Z</time></trkpt><trkpt lat="45.06554871538905" lon="9.734628105320528"><ele>41.0</ele><time>2026-04-09T18:33:22.999Z</time></trkpt><trkpt lat="45.06580347972821" lon="9.734377882154451"><ele>41.0</ele><time>2026-04-09T18:33:23.999Z</time></trkpt><trkpt lat="45.06605620415119" lon="9.734127115819096"><ele>41.0</ele><time>2026-04-09T18:33:24.999Z</time></trkpt><trkpt lat="45.066310951556964" lon="9.733875468896334"><ele>41.0</ele><time>2026-04-09T18:33:25.999Z</time></trkpt><trkpt lat="45.06656595831078" lon="9.733627208508441"><ele>41.0</ele><time>2026-04-09T18:33:26.999Z</time></trkpt><trkpt lat="45.06681983586039" lon="9.733377810681839"><ele>42.0</ele><time>2026-04-09T18:33:27.999Z</time></trkpt><trkpt lat="45.06707514204311" lon="9.73312895352413"><ele>43.0</ele><time>2026-04-09T18:33:28.999Z</time></trkpt><trkpt lat="45.06732994671229" lon="9.732881115254814"><ele>47.0</ele><time>2026-04-09T18:33:29.999Z</time></trkpt><trkpt lat="45.06758499745173" lon="9.73262844800147"><ele>51.0</ele><time>2026-04-09T18:33:30.999Z</time></trkpt><trkpt lat="45.067836637174885" lon="9.732377842024574"><ele>51.0</ele><time>2026-04-09T18:33:31.999Z</time></trkpt><trkpt lat="45.06808994208103" lon="9.732124076378902"><ele>51.0</ele><time>2026-04-09T18:33:32.999Z</time></trkpt><trkpt lat="45.06834207138831" lon="9.731872552497556"><ele>49.5</ele><time>2026-04-09T18:33:33.999Z</time></trkpt><trkpt lat="45.06859285988086" lon="9.731619925231602"><ele>48.0</ele><time>2026-04-09T18:33:34.999Z</time></trkpt><trkpt lat="45.068844909117495" lon="9.731365712531483"><ele>48.0</ele><time>2026-04-09T18:33:35.999Z</time></trkpt><trkpt lat="45.069097122777926" lon="9.731116123376893"><ele>48.0</ele><time>2026-04-09T18:33:36.999Z</time></trkpt><trkpt lat="45.069351062800344" lon="9.73086469244884"><ele>48.0</ele><time>2026-04-09T18:33:37.999Z</time></trkpt><trkpt lat="45.06960490974168" lon="9.730612456254057"><ele>48.0</ele><time>2026-04-09T18:33:38.999Z</time></trkpt><trkpt lat="45.06985822832272" lon="9.73036218738153"><ele>47.5</ele><time>2026-04-09T18:33:39.999Z</time></trkpt><trkpt lat="45.07011315268826" lon="9.730113754359188"><ele>47.0</ele><time>2026-04-09T18:33:40.999Z</time></trkpt><trkpt lat="45.070367006528215" lon="9.72986366603909"><ele>47.0</ele><time>2026-04-09T18:33:41.999Z</time></trkpt><trkpt lat="45.07062289325318" lon="9.729614117143628"><ele>47.0</ele><time>2026-04-09T18:33:42.999Z</time></trkpt><trkpt lat="45.0708776221679" lon="9.72936418367881"><ele>48.0</ele><time>2026-04-09T18:33:43.999Z</time></trkpt><trkpt lat="45.07113005642285" lon="9.729112432316418"><ele>49.0</ele><time>2026-04-09T18:33:44.999Z</time></trkpt><trkpt lat="45.071378873178176" lon="9.72886103307267"><ele>49.0</ele><time>2026-04-09T18:33:45.999Z</time></trkpt><trkpt lat="45.07161410143914" lon="9.72862247414263"><ele>49.0</ele><time>2026-04-09T18:33:46.999Z</time></trkpt><trkpt lat="45.071852799806045" lon="9.728379253427972"><ele>49.5</ele><time>2026-04-09T18:33:47.999Z</time></trkpt><trkpt lat="45.0720865921609" lon="9.728138101193482"><ele>50.0</ele><time>2026-04-09T18:33:48.999Z</time></trkpt><trkpt lat="45.07230417115791" lon="9.727908808183491"><ele>49.5</ele><time>2026-04-09T18:33:49.999Z</time></trkpt><trkpt lat="45.072514341809665" lon="9.72768730471367"><ele>49.0</ele><time>2026-04-09T18:33:50.999Z</time></trkpt><trkpt lat="45.07272194521525" lon="9.727471266768973"><ele>49.0</ele><time>2026-04-09T18:33:51.999Z</time></trkpt><trkpt lat="45.072929938319824" lon="9.727255267921976"><ele>49.0</ele><time>2026-04-09T18:33:52.999Z</time></trkpt><trkpt lat="45.073141350924445" lon="9.727036466956271"><ele>48.0</ele><time>2026-04-09T18:33:53.999Z</time></trkpt><trkpt lat="45.07335653685947" lon="9.726818195559263"><ele>47.0</ele><time>2026-04-09T18:33:54.999Z</time></trkpt><trkpt lat="45.07357772174463" lon="9.7265986950422"><ele>47.0</ele><time>2026-04-09T18:33:55.999Z</time></trkpt><trkpt lat="45.07380151225709" lon="9.726379360069496"><ele>47.0</ele><time>2026-04-09T18:33:56.999Z</time></trkpt><trkpt lat="45.07402874752964" lon="9.726153299670182"><ele>48.0</ele><time>2026-04-09T18:33:57.999Z</time></trkpt><trkpt lat="45.07425861729008" lon="9.725928195985448"><ele>49.0</ele><time>2026-04-09T18:33:58.999Z</time></trkpt><trkpt lat="45.0744871281709" lon="9.725704098238976"><ele>49.0</ele><time>2026-04-09T18:33:59.999Z</time></trkpt><trkpt lat="45.07471561280614" lon="9.725477876732763"><ele>49.0</ele><time>2026-04-09T18:34:00.999Z</time></trkpt><trkpt lat="45.0749477269887" lon="9.725255970470561"><ele>48.5</ele><time>2026-04-09T18:34:01.999Z</time></trkpt><trkpt lat="45.07517836601261" lon="9.725027380987832"><ele>48.0</ele><time>2026-04-09T18:34:02.999Z</time></trkpt><trkpt lat="45.07540876730095" lon="9.724797809898664"><ele>48.0</ele><time>2026-04-09T18:34:03.999Z</time></trkpt><trkpt lat="45.07564133963757" lon="9.724565534674884"><ele>48.0</ele><time>2026-04-09T18:34:04.999Z</time></trkpt><trkpt lat="45.075876923797104" lon="9.724331131587789"><ele>47.5</ele><time>2026-04-09T18:34:05.999Z</time></trkpt><trkpt lat="45.076118170627076" lon="9.724091283201577"><ele>47.0</ele><time>2026-04-09T18:34:06.999Z</time></trkpt><trkpt lat="45.07636278948966" lon="9.723847195482556"><ele>46.5</ele><time>2026-04-09T18:34:07.999Z</time></trkpt><trkpt lat="45.07660675069792" lon="9.723604939307188"><ele>46.0</ele><time>2026-04-09T18:34:08.999Z</time></trkpt><trkpt lat="45.076851704133055" lon="9.723362194914515"><ele>46.0</ele><time>2026-04-09T18:34:09.999Z</time></trkpt><trkpt lat="45.077095600667555" lon="9.723122744004868"><ele>46.0</ele><time>2026-04-09T18:34:10.999Z</time></trkpt><trkpt lat="45.07734142726777" lon="9.722878342776744"><ele>46.5</ele><time>2026-04-09T18:34:11.999Z</time></trkpt><trkpt lat="45.07758623557072" lon="9.722630693398461"><ele>47.0</ele><time>2026-04-09T18:34:12.999Z</time></trkpt><trkpt lat="45.077834867309235" lon="9.722374844337095"><ele>47.0</ele><time>2026-04-09T18:34:13.999Z</time></trkpt><trkpt lat="45.07810020762696" lon="9.722097615498285"><ele>47.0</ele><time>2026-04-09T18:34:14.999Z</time></trkpt><trkpt lat="45.07837737200055" lon="9.721805170262765"><ele>47.0</ele><time>2026-04-09T18:34:15.999Z</time></trkpt><trkpt lat="45.07866446056915" lon="9.721500664685472"><ele>47.0</ele><time>2026-04-09T18:34:16.999Z</time></trkpt><trkpt lat="45.078962826103975" lon="9.72118185891479"><ele>47.5</ele><time>2026-04-09T18:34:17.999Z</time></trkpt><trkpt lat="45.0792625814765" lon="9.720866394658241"><ele>48.0</ele><time>2026-04-09T18:34:18.999Z</time></trkpt><trkpt lat="45.079562227805354" lon="9.720549655140927"><ele>48.0</ele><time>2026-04-09T18:34:19.998Z</time></trkpt><trkpt lat="45.07985325164736" lon="9.720237535830888"><ele>48.0</ele><time>2026-04-09T18:34:21Z</time></trkpt><trkpt lat="45.080136322186306" lon="9.719934815910506"><ele>47.5</ele><time>2026-04-09T18:34:22Z</time></trkpt><trkpt lat="45.08041785704068" lon="9.719635672561294"><ele>47.0</ele><time>2026-04-09T18:34:23Z</time></trkpt><trkpt lat="45.080693398229776" lon="9.719343869141579"><ele>47.0</ele><time>2026-04-09T18:34:24Z</time></trkpt><trkpt lat="45.080962072994204" lon="9.719057624814225"><ele>47.0</ele><time>2026-04-09T18:34:25Z</time></trkpt><trkpt lat="45.08122891416958" lon="9.718776327773062"><ele>47.0</ele><time>2026-04-09T18:34:26Z</time></trkpt><trkpt lat="45.081495026365914" lon="9.718493027831599"><ele>47.0</ele><time>2026-04-09T18:34:27Z</time></trkpt><trkpt lat="45.08175980830789" lon="9.718215439323732"><ele>47.5</ele><time>2026-04-09T18:34:28Z</time></trkpt><trkpt lat="45.082016806155856" lon="9.71794446025694"><ele>48.0</ele><time>2026-04-09T18:34:29Z</time></trkpt><trkpt lat="45.082272361727426" lon="9.71767265386421"><ele>48.5</ele><time>2026-04-09T18:34:30Z</time></trkpt><trkpt lat="45.082520660168974" lon="9.717414159602505"><ele>49.0</ele><time>2026-04-09T18:34:31Z</time></trkpt><trkpt lat="45.08276464138361" lon="9.717157759259525"><ele>49.0</ele><time>2026-04-09T18:34:32Z</time></trkpt><trkpt lat="45.08300783736825" lon="9.71690309646518"><ele>49.0</ele><time>2026-04-09T18:34:33Z</time></trkpt><trkpt lat="45.083249119130976" lon="9.716650685076594"><ele>50.5</ele><time>2026-04-09T18:34:34Z</time></trkpt><trkpt lat="45.08347956344065" lon="9.71640355805341"><ele>52.0</ele><time>2026-04-09T18:34:35Z</time></trkpt><trkpt lat="45.08371145924954" lon="9.716149348826642"><ele>50.0</ele><time>2026-04-09T18:34:36Z</time></trkpt><trkpt lat="45.083944548946086" lon="9.715896914284055"><ele>48.0</ele><time>2026-04-09T18:34:37Z</time></trkpt><trkpt lat="45.08417434506669" lon="9.715658009346507"><ele>48.0</ele><time>2026-04-09T18:34:38Z</time></trkpt><trkpt lat="45.08440997038178" lon="9.715406296658443"><ele>48.0</ele><time>2026-04-09T18:34:39Z</time></trkpt><trkpt lat="45.08464624877154" lon="9.71515628333106"><ele>47.5</ele><time>2026-04-09T18:34:40Z</time></trkpt><trkpt lat="45.08488131882458" lon="9.714905809047169"><ele>47.0</ele><time>2026-04-09T18:34:41Z</time></trkpt><trkpt lat="45.08511773432925" lon="9.714651256454864"><ele>47.0</ele><time>2026-04-09T18:34:42Z</time></trkpt><trkpt lat="45.08535292335815" lon="9.714394605844616"><ele>47.0</ele><time>2026-04-09T18:34:43Z</time></trkpt><trkpt lat="45.08558872873035" lon="9.714136263556085"><ele>47.5</ele><time>2026-04-09T18:34:44Z</time></trkpt><trkpt lat="45.085823615648124" lon="9.713883001181879"><ele>48.0</ele><time>2026-04-09T18:34:45Z</time></trkpt><trkpt lat="45.08605870689678" lon="9.713630775055504"><ele>47.5</ele><time>2026-04-09T18:34:46Z</time></trkpt><trkpt lat="45.08629458072772" lon="9.713380207420746"><ele>47.0</ele><time>2026-04-09T18:34:47Z</time></trkpt><trkpt lat="45.08653079784354" lon="9.713125519099842"><ele>47.0</ele><time>2026-04-09T18:34:48Z</time></trkpt><trkpt lat="45.08676320238616" lon="9.712870622696514"><ele>47.0</ele><time>2026-04-09T18:34:49Z</time></trkpt><trkpt lat="45.08699784301619" lon="9.712619468689294"><ele>46.5</ele><time>2026-04-09T18:34:50Z</time></trkpt><trkpt lat="45.08722954935683" lon="9.71236799765931"><ele>46.0</ele><time>2026-04-09T18:34:51Z</time></trkpt><trkpt lat="45.08745890369989" lon="9.71211901196644"><ele>46.0</ele><time>2026-04-09T18:34:52Z</time></trkpt><trkpt lat="45.08769024484331" lon="9.711869195572502"><ele>46.0</ele><time>2026-04-09T18:34:53Z</time></trkpt><trkpt lat="45.087920324608845" lon="9.711625142341953"><ele>46.0</ele><time>2026-04-09T18:34:54Z</time></trkpt><trkpt lat="45.08815067170753" lon="9.711380723494429"><ele>46.0</ele><time>2026-04-09T18:34:55Z</time></trkpt><trkpt lat="45.08838173975859" lon="9.711134409656315"><ele>46.0</ele><time>2026-04-09T18:34:56Z</time></trkpt><trkpt lat="45.088613582596516" lon="9.710887739914956"><ele>46.0</ele><time>2026-04-09T18:34:57Z</time></trkpt><trkpt lat="45.08885391355241" lon="9.710637362010372"><ele>46.0</ele><time>2026-04-09T18:34:58Z</time></trkpt><trkpt lat="45.089082800810274" lon="9.71039824963615"><ele>46.0</ele><time>2026-04-09T18:34:59Z</time></trkpt><trkpt lat="45.08931366790551" lon="9.71015180899983"><ele>45.5</ele><time>2026-04-09T18:35:00Z</time></trkpt><trkpt lat="45.089545111241705" lon="9.709899694845776"><ele>45.0</ele><time>2026-04-09T18:35:01Z</time></trkpt><trkpt lat="45.089775164575855" lon="9.709647495258736"><ele>43.5</ele><time>2026-04-09T18:35:02Z</time></trkpt><trkpt lat="45.09000648641688" lon="9.709392344653217"><ele>42.0</ele><time>2026-04-09T18:35:03Z</time></trkpt><trkpt lat="45.090238940685175" lon="9.709138031714279"><ele>42.0</ele><time>2026-04-09T18:35:04Z</time></trkpt><trkpt lat="45.09047184693498" lon="9.708885692723678"><ele>42.0</ele><time>2026-04-09T18:35:05Z</time></trkpt><trkpt lat="45.090703477649974" lon="9.708633647162667"><ele>42.5</ele><time>2026-04-09T18:35:06Z</time></trkpt><trkpt lat="45.0909337363801" lon="9.708373116284786"><ele>43.0</ele><time>2026-04-09T18:35:07Z</time></trkpt><trkpt lat="45.091162722573394" lon="9.70811380489714"><ele>43.0</ele><time>2026-04-09T18:35:08Z</time></trkpt><trkpt lat="45.09139157651807" lon="9.70785643927006"><ele>43.0</ele><time>2026-04-09T18:35:09Z</time></trkpt><trkpt lat="45.09162373761777" lon="9.707599833535019"><ele>45.0</ele><time>2026-04-09T18:35:10Z</time></trkpt><trkpt lat="45.09185522166812" lon="9.707351410311034"><ele>47.0</ele><time>2026-04-09T18:35:11Z</time></trkpt><trkpt lat="45.09208459657395" lon="9.707095920581526"><ele>46.5</ele><time>2026-04-09T18:35:11.999Z</time></trkpt><trkpt lat="45.09232148267927" lon="9.706847075283363"><ele>46.0</ele><time>2026-04-09T18:35:12.999Z</time></trkpt><trkpt lat="45.09255705902219" lon="9.706594457752637"><ele>45.0</ele><time>2026-04-09T18:35:13.999Z</time></trkpt><trkpt lat="45.09279015687378" lon="9.706342999006782"><ele>44.0</ele><time>2026-04-09T18:35:14.999Z</time></trkpt><trkpt lat="45.09302481697863" lon="9.706095411309205"><ele>44.0</ele><time>2026-04-09T18:35:15.999Z</time></trkpt><trkpt lat="45.093258990749966" lon="9.705848389785986"><ele>44.0</ele><time>2026-04-09T18:35:16.999Z</time></trkpt><trkpt lat="45.09349192000884" lon="9.705600829531537"><ele>44.0</ele><time>2026-04-09T18:35:17.999Z</time></trkpt><trkpt lat="45.093725861794546" lon="9.70535079940222"><ele>44.0</ele><time>2026-04-09T18:35:18.999Z</time></trkpt><trkpt lat="45.09395785822525" lon="9.70510372571664"><ele>44.0</ele><time>2026-04-09T18:35:19.999Z</time></trkpt><trkpt lat="45.0941902936616" lon="9.704853975637773"><ele>44.0</ele><time>2026-04-09T18:35:20.999Z</time></trkpt><trkpt lat="45.09442465923088" lon="9.70460277564014"><ele>45.0</ele><time>2026-04-09T18:35:21.999Z</time></trkpt><trkpt lat="45.09465717413985" lon="9.704350805113968"><ele>46.0</ele><time>2026-04-09T18:35:22.999Z</time></trkpt><trkpt lat="45.094888542810864" lon="9.704099194899255"><ele>45.5</ele><time>2026-04-09T18:35:23.999Z</time></trkpt><trkpt lat="45.09512248216956" lon="9.703844908194535"><ele>45.0</ele><time>2026-04-09T18:35:24.999Z</time></trkpt><trkpt lat="45.09535521879861" lon="9.703596100536217"><ele>44.5</ele><time>2026-04-09T18:35:25.999Z</time></trkpt><trkpt lat="45.09558769125949" lon="9.70334665234637"><ele>44.0</ele><time>2026-04-09T18:35:26.999Z</time></trkpt><trkpt lat="45.09582133284118" lon="9.703098178734002"><ele>44.0</ele><time>2026-04-09T18:35:27.999Z</time></trkpt><trkpt lat="45.096055311251305" lon="9.70284751313663"><ele>44.0</ele><time>2026-04-09T18:35:28.999Z</time></trkpt><trkpt lat="45.09628655497366" lon="9.702600032476068"><ele>44.0</ele><time>2026-04-09T18:35:29.999Z</time></trkpt><trkpt lat="45.09652452685332" lon="9.70234860326155"><ele>44.0</ele><time>2026-04-09T18:35:30.999Z</time></trkpt><trkpt lat="45.09675537901071" lon="9.702096045783458"><ele>44.5</ele><time>2026-04-09T18:35:31.999Z</time></trkpt><trkpt lat="45.09699113013273" lon="9.701847064377228"><ele>45.0</ele><time>2026-04-09T18:35:32.999Z</time></trkpt><trkpt lat="45.09722754100547" lon="9.701597121281942"><ele>45.0</ele><time>2026-04-09T18:35:33.999Z</time></trkpt><trkpt lat="45.09746036109254" lon="9.701344187880553"><ele>45.0</ele><time>2026-04-09T18:35:34.999Z</time></trkpt><trkpt lat="45.097693657721976" lon="9.701091772792594"><ele>44.0</ele><time>2026-04-09T18:35:35.999Z</time></trkpt><trkpt lat="45.09792792685764" lon="9.700840410642334"><ele>43.0</ele><time>2026-04-09T18:35:36.999Z</time></trkpt><trkpt lat="45.09816320975443" lon="9.700583459819233"><ele>43.0</ele><time>2026-04-09T18:35:37.999Z</time></trkpt><trkpt lat="45.098396412994504" lon="9.700332322886368"><ele>43.0</ele><time>2026-04-09T18:35:38.999Z</time></trkpt><trkpt lat="45.09862884654969" lon="9.70008119231007"><ele>43.0</ele><time>2026-04-09T18:35:39.999Z</time></trkpt><trkpt lat="45.09886187384472" lon="9.699830405284894"><ele>43.0</ele><time>2026-04-09T18:35:40.999Z</time></trkpt><trkpt lat="45.09909525414662" lon="9.699581209225368"><ele>44.0</ele><time>2026-04-09T18:35:41.999Z</time></trkpt><trkpt lat="45.099329186635224" lon="9.699330021974545"><ele>45.0</ele><time>2026-04-09T18:35:42.999Z</time></trkpt><trkpt lat="45.09956262121932" lon="9.699082089610311"><ele>45.0</ele><time>2026-04-09T18:35:43.999Z</time></trkpt><trkpt lat="45.099796958115576" lon="9.698834240352703"><ele>45.0</ele><time>2026-04-09T18:35:44.999Z</time></trkpt><trkpt lat="45.10003145088019" lon="9.698585523994529"><ele>46.5</ele><time>2026-04-09T18:35:45.999Z</time></trkpt><trkpt lat="45.100263393180455" lon="9.69833449024827"><ele>48.0</ele><time>2026-04-09T18:35:46.999Z</time></trkpt><trkpt lat="45.10049763811281" lon="9.698084078593201"><ele>48.0</ele><time>2026-04-09T18:35:47.999Z</time></trkpt><trkpt lat="45.10073586478641" lon="9.697820203662829"><ele>48.0</ele><time>2026-04-09T18:35:48.999Z</time></trkpt><trkpt lat="45.10096625087728" lon="9.697582932032478"><ele>47.0</ele><time>2026-04-09T18:35:49.999Z</time></trkpt><trkpt lat="45.101201744024614" lon="9.697331373358635"><ele>46.0</ele><time>2026-04-09T18:35:50.999Z</time></trkpt><trkpt lat="45.10143683018554" lon="9.69707639278207"><ele>45.0</ele><time>2026-04-09T18:35:51.999Z</time></trkpt><trkpt lat="45.101669888289535" lon="9.696822885152303"><ele>44.0</ele><time>2026-04-09T18:35:52.999Z</time></trkpt><trkpt lat="45.10190059950009" lon="9.696569251032734"><ele>44.0</ele><time>2026-04-09T18:35:53.999Z</time></trkpt><trkpt lat="45.102132903313446" lon="9.696317252082238"><ele>44.0</ele><time>2026-04-09T18:35:54.999Z</time></trkpt><trkpt lat="45.10236476430614" lon="9.696065861917743"><ele>44.5</ele><time>2026-04-09T18:35:55.999Z</time></trkpt><trkpt lat="45.10259729638675" lon="9.695815069105805"><ele>45.0</ele><time>2026-04-09T18:35:56.999Z</time></trkpt><trkpt lat="45.102830722818204" lon="9.695565349156013"><ele>45.0</ele><time>2026-04-09T18:35:57.999Z</time></trkpt><trkpt lat="45.103063349478624" lon="9.695313990632522"><ele>45.0</ele><time>2026-04-09T18:35:58.999Z</time></trkpt><trkpt lat="45.10329472781182" lon="9.695061070908027"><ele>45.0</ele><time>2026-04-09T18:35:59.999Z</time></trkpt><trkpt lat="45.10352725458379" lon="9.694807239778381"><ele>45.0</ele><time>2026-04-09T18:36:00.999Z</time></trkpt><trkpt lat="45.10376063591903" lon="9.694556839854746"><ele>45.5</ele><time>2026-04-09T18:36:01.999Z</time></trkpt><trkpt lat="45.103994418623124" lon="9.694307555133589"><ele>46.0</ele><time>2026-04-09T18:36:02.999Z</time></trkpt><trkpt lat="45.10422892412542" lon="9.694060737115116"><ele>46.0</ele><time>2026-04-09T18:36:03.999Z</time></trkpt><trkpt lat="45.10446529245758" lon="9.693813025384388"><ele>46.0</ele><time>2026-04-09T18:36:04.999Z</time></trkpt><trkpt lat="45.10470044006962" lon="9.693565815214196"><ele>45.5</ele><time>2026-04-09T18:36:05.999Z</time></trkpt><trkpt lat="45.10493343126318" lon="9.693314358325983"><ele>45.0</ele><time>2026-04-09T18:36:06.999Z</time></trkpt><trkpt lat="45.10516474117105" lon="9.693061244605856"><ele>45.0</ele><time>2026-04-09T18:36:07.999Z</time></trkpt><trkpt lat="45.10539663268631" lon="9.692810328895339"><ele>45.0</ele><time>2026-04-09T18:36:08.999Z</time></trkpt><trkpt lat="45.10562775229287" lon="9.69255656583554"><ele>46.5</ele><time>2026-04-09T18:36:09.999Z</time></trkpt><trkpt lat="45.10585693504774" lon="9.692303242534058"><ele>48.0</ele><time>2026-04-09T18:36:10.999Z</time></trkpt><trkpt lat="45.10608661184481" lon="9.69204462995179"><ele>48.0</ele><time>2026-04-09T18:36:11.999Z</time></trkpt><trkpt lat="45.1063122895916" lon="9.691788053128013"><ele>48.0</ele><time>2026-04-09T18:36:12.999Z</time></trkpt><trkpt lat="45.106554062659896" lon="9.691528480705745"><ele>48.0</ele><time>2026-04-09T18:36:13.999Z</time></trkpt><trkpt lat="45.10679462738147" lon="9.691254427566223"><ele>48.0</ele><time>2026-04-09T18:36:14.999Z</time></trkpt><trkpt lat="45.10705489131688" lon="9.690968838109747"><ele>47.0</ele><time>2026-04-09T18:36:15.999Z</time></trkpt><trkpt lat="45.107318832119" lon="9.690680750230634"><ele>46.0</ele><time>2026-04-09T18:36:16.999Z</time></trkpt><trkpt lat="45.10758322337078" lon="9.690401634295702"><ele>46.5</ele><time>2026-04-09T18:36:17.999Z</time></trkpt><trkpt lat="45.10784769826041" lon="9.690114607038081"><ele>47.0</ele><time>2026-04-09T18:36:18.999Z</time></trkpt><trkpt lat="45.10812056883881" lon="9.689817748916973"><ele>47.5</ele><time>2026-04-09T18:36:19.999Z</time></trkpt><trkpt lat="45.108390695137224" lon="9.689518231576365"><ele>48.0</ele><time>2026-04-09T18:36:20.999Z</time></trkpt><trkpt lat="45.10864573386751" lon="9.689222968500943"><ele>48.0</ele><time>2026-04-09T18:36:21.999Z</time></trkpt><trkpt lat="45.10890277275074" lon="9.688938071558853"><ele>48.0</ele><time>2026-04-09T18:36:22.999Z</time></trkpt><trkpt lat="45.109152550648396" lon="9.688650442075264"><ele>47.0</ele><time>2026-04-09T18:36:23.999Z</time></trkpt><trkpt lat="45.109406566906706" lon="9.688353876831904"><ele>46.0</ele><time>2026-04-09T18:36:24.998Z</time></trkpt><trkpt lat="45.10966444035916" lon="9.688053384680366"><ele>46.5</ele><time>2026-04-09T18:36:25.998Z</time></trkpt><trkpt lat="45.109932015458476" lon="9.68773892782153"><ele>47.0</ele><time>2026-04-09T18:36:27Z</time></trkpt><trkpt lat="45.11019457461263" lon="9.687424792504906"><ele>47.0</ele><time>2026-04-09T18:36:28Z</time></trkpt><trkpt lat="45.110454006040904" lon="9.68711438886207"><ele>47.0</ele><time>2026-04-09T18:36:29Z</time></trkpt><trkpt lat="45.110713302170815" lon="9.686804861742841"><ele>47.0</ele><time>2026-04-09T18:36:30Z</time></trkpt><trkpt lat="45.11096009366534" lon="9.686493201429819"><ele>47.0</ele><time>2026-04-09T18:36:31Z</time></trkpt><trkpt lat="45.111197173573366" lon="9.686175037292601"><ele>47.5</ele><time>2026-04-09T18:36:32Z</time></trkpt><trkpt lat="45.11142964794042" lon="9.685878459982556"><ele>48.0</ele><time>2026-04-09T18:36:33Z</time></trkpt><trkpt lat="45.11166443646245" lon="9.685565881293654"><ele>47.0</ele><time>2026-04-09T18:36:34Z</time></trkpt><trkpt lat="45.11189169761342" lon="9.68525590529788"><ele>46.0</ele><time>2026-04-09T18:36:35Z</time></trkpt><trkpt lat="45.11211569765737" lon="9.684948710490351"><ele>46.0</ele><time>2026-04-09T18:36:36Z</time></trkpt><trkpt lat="45.11233523197932" lon="9.684641087456637"><ele>46.0</ele><time>2026-04-09T18:36:37Z</time></trkpt><trkpt lat="45.11255220642335" lon="9.684337974856247"><ele>45.5</ele><time>2026-04-09T18:36:38Z</time></trkpt><trkpt lat="45.11276854219292" lon="9.684031823114987"><ele>45.0</ele><time>2026-04-09T18:36:39Z</time></trkpt><trkpt lat="45.11298189927732" lon="9.683728207347773"><ele>44.0</ele><time>2026-04-09T18:36:40Z</time></trkpt><trkpt lat="45.11319233651432" lon="9.683426592613243"><ele>43.0</ele><time>2026-04-09T18:36:41Z</time></trkpt><trkpt lat="45.113401023021865" lon="9.683125285118683"><ele>43.0</ele><time>2026-04-09T18:36:42Z</time></trkpt><trkpt lat="45.11360969909578" lon="9.682824604118744"><ele>43.0</ele><time>2026-04-09T18:36:43Z</time></trkpt><trkpt lat="45.11381717482706" lon="9.682526959337597"><ele>43.0</ele><time>2026-04-09T18:36:44Z</time></trkpt><trkpt lat="45.11402386212913" lon="9.682227928253585"><ele>43.0</ele><time>2026-04-09T18:36:45Z</time></trkpt><trkpt lat="45.114229119796505" lon="9.68193357966249"><ele>43.0</ele><time>2026-04-09T18:36:46Z</time></trkpt><trkpt lat="45.1144308888895" lon="9.681644402121636"><ele>43.0</ele><time>2026-04-09T18:36:47Z</time></trkpt><trkpt lat="45.11463331806808" lon="9.68135248246776"><ele>43.0</ele><time>2026-04-09T18:36:48Z</time></trkpt><trkpt lat="45.11483619074715" lon="9.681060639108296"><ele>43.0</ele><time>2026-04-09T18:36:49Z</time></trkpt><trkpt lat="45.115037506438" lon="9.680769567425703"><ele>44.0</ele><time>2026-04-09T18:36:50Z</time></trkpt><trkpt lat="45.11523981021375" lon="9.680478757222224"><ele>45.0</ele><time>2026-04-09T18:36:51Z</time></trkpt><trkpt lat="45.11544381764342" lon="9.680185457481528"><ele>45.0</ele><time>2026-04-09T18:36:52Z</time></trkpt><trkpt lat="45.115647621320015" lon="9.679891370356033"><ele>45.0</ele><time>2026-04-09T18:36:53Z</time></trkpt><trkpt lat="45.11585083580856" lon="9.679597059906673"><ele>45.0</ele><time>2026-04-09T18:36:54Z</time></trkpt><trkpt lat="45.116055529455664" lon="9.679300145655079"><ele>45.0</ele><time>2026-04-09T18:36:55Z</time></trkpt><trkpt lat="45.11626070224435" lon="9.679004639566514"><ele>45.0</ele><time>2026-04-09T18:36:56Z</time></trkpt><trkpt lat="45.11646643157607" lon="9.6787076275496"><ele>45.0</ele><time>2026-04-09T18:36:57Z</time></trkpt><trkpt lat="45.11668348753138" lon="9.678406543719477"><ele>44.5</ele><time>2026-04-09T18:36:58Z</time></trkpt><trkpt lat="45.11688089942108" lon="9.678111084643461"><ele>44.0</ele><time>2026-04-09T18:36:59Z</time></trkpt><trkpt lat="45.11708798162887" lon="9.677815944530037"><ele>44.0</ele><time>2026-04-09T18:37:00Z</time></trkpt><trkpt lat="45.11728665981702" lon="9.67753183191217"><ele>44.0</ele><time>2026-04-09T18:37:01Z</time></trkpt><trkpt lat="45.11748180657021" lon="9.677251609895528"><ele>44.0</ele><time>2026-04-09T18:37:02Z</time></trkpt><trkpt lat="45.11767270626271" lon="9.676977859361584"><ele>44.0</ele><time>2026-04-09T18:37:03Z</time></trkpt><trkpt lat="45.117862130059216" lon="9.676705125548237"><ele>45.0</ele><time>2026-04-09T18:37:04Z</time></trkpt><trkpt lat="45.11804759913425" lon="9.676437639453738"><ele>46.0</ele><time>2026-04-09T18:37:05Z</time></trkpt><trkpt lat="45.118235388541294" lon="9.676170447073616"><ele>45.5</ele><time>2026-04-09T18:37:06Z</time></trkpt><trkpt lat="45.118421295676335" lon="9.67590743759408"><ele>45.0</ele><time>2026-04-09T18:37:07Z</time></trkpt><trkpt lat="45.11860329975658" lon="9.675645886541275"><ele>45.0</ele><time>2026-04-09T18:37:08Z</time></trkpt><trkpt lat="45.118786317259826" lon="9.67537724169037"><ele>45.0</ele><time>2026-04-09T18:37:09Z</time></trkpt><trkpt lat="45.11896584904665" lon="9.675110458331249"><ele>44.0</ele><time>2026-04-09T18:37:10Z</time></trkpt><trkpt lat="45.11914512660012" lon="9.674846844442122"><ele>43.0</ele><time>2026-04-09T18:37:11Z</time></trkpt><trkpt lat="45.11932114063571" lon="9.674597723823421"><ele>43.5</ele><time>2026-04-09T18:37:12Z</time></trkpt><trkpt lat="45.119492890252275" lon="9.674357375783755"><ele>44.0</ele><time>2026-04-09T18:37:13Z</time></trkpt><trkpt lat="45.11966328503044" lon="9.674117457553416"><ele>44.0</ele><time>2026-04-09T18:37:14Z</time></trkpt><trkpt lat="45.11983659250846" lon="9.673868509797355"><ele>44.0</ele><time>2026-04-09T18:37:15Z</time></trkpt><trkpt lat="45.1200162507391" lon="9.67359625838112"><ele>45.5</ele><time>2026-04-09T18:37:16Z</time></trkpt><trkpt lat="45.12019866054213" lon="9.67331143206069"><ele>47.0</ele><time>2026-04-09T18:37:17Z</time></trkpt><trkpt lat="45.12038704928217" lon="9.673018351926423"><ele>47.0</ele><time>2026-04-09T18:37:17.999Z</time></trkpt><trkpt lat="45.12059090241233" lon="9.672715026589104"><ele>47.0</ele><time>2026-04-09T18:37:18.999Z</time></trkpt><trkpt lat="45.120803533456154" lon="9.672396833714078"><ele>46.5</ele><time>2026-04-09T18:37:19.999Z</time></trkpt><trkpt lat="45.12101845789843" lon="9.672105355357463"><ele>46.0</ele><time>2026-04-09T18:37:20.999Z</time></trkpt><trkpt lat="45.12123793512175" lon="9.67178786978281"><ele>46.0</ele><time>2026-04-09T18:37:21.999Z</time></trkpt><trkpt lat="45.121459938783424" lon="9.671468691870446"><ele>46.0</ele><time>2026-04-09T18:37:22.999Z</time></trkpt><trkpt lat="45.121689303086306" lon="9.671147389554358"><ele>45.5</ele><time>2026-04-09T18:37:23.999Z</time></trkpt><trkpt lat="45.121922031164075" lon="9.670828564158375"><ele>45.0</ele><time>2026-04-09T18:37:24.999Z</time></trkpt><trkpt lat="45.12215395899146" lon="9.670509158485604"><ele>45.0</ele><time>2026-04-09T18:37:25.999Z</time></trkpt><trkpt lat="45.12238309199786" lon="9.670188899041994"><ele>45.0</ele><time>2026-04-09T18:37:26.999Z</time></trkpt><trkpt lat="45.12260985618712" lon="9.66986973071616"><ele>44.5</ele><time>2026-04-09T18:37:27.999Z</time></trkpt><trkpt lat="45.122834461666045" lon="9.669547046549305"><ele>44.0</ele><time>2026-04-09T18:37:28.999Z</time></trkpt><trkpt lat="45.123054444443156" lon="9.669233845170787"><ele>44.5</ele><time>2026-04-09T18:37:29.999Z</time></trkpt><trkpt lat="45.12327224896102" lon="9.668917060191447"><ele>45.0</ele><time>2026-04-09T18:37:30.999Z</time></trkpt><trkpt lat="45.12348896193773" lon="9.668605129286274"><ele>45.0</ele><time>2026-04-09T18:37:31.999Z</time></trkpt><trkpt lat="45.123705578149945" lon="9.668290458659653"><ele>45.0</ele><time>2026-04-09T18:37:32.999Z</time></trkpt><trkpt lat="45.12392209545418" lon="9.667985042996559"><ele>44.5</ele><time>2026-04-09T18:37:33.999Z</time></trkpt><trkpt lat="45.12413651088268" lon="9.66767564679492"><ele>44.0</ele><time>2026-04-09T18:37:34.999Z</time></trkpt><trkpt lat="45.124353542214315" lon="9.667364546176321"><ele>44.0</ele><time>2026-04-09T18:37:35.999Z</time></trkpt><trkpt lat="45.124570430767854" lon="9.66704946956592"><ele>44.0</ele><time>2026-04-09T18:37:36.999Z</time></trkpt><trkpt lat="45.1247887670282" lon="9.666736533563185"><ele>45.0</ele><time>2026-04-09T18:37:37.999Z</time></trkpt><trkpt lat="45.125003648141856" lon="9.666423264272389"><ele>46.0</ele><time>2026-04-09T18:37:38.999Z</time></trkpt><trkpt lat="45.125220752995986" lon="9.666108809169302"><ele>46.5</ele><time>2026-04-09T18:37:39.999Z</time></trkpt><trkpt lat="45.12543719699531" lon="9.665791948379988"><ele>47.0</ele><time>2026-04-09T18:37:40.999Z</time></trkpt><trkpt lat="45.125652712258315" lon="9.665479017062133"><ele>47.0</ele><time>2026-04-09T18:37:41.999Z</time></trkpt><trkpt lat="45.12586802637792" lon="9.665163310535927"><ele>47.0</ele><time>2026-04-09T18:37:42.999Z</time></trkpt><trkpt lat="45.12608010208599" lon="9.664844541461553"><ele>47.0</ele><time>2026-04-09T18:37:43.999Z</time></trkpt><trkpt lat="45.1262892947549" lon="9.664524159000772"><ele>47.0</ele><time>2026-04-09T18:37:44.999Z</time></trkpt><trkpt lat="45.12649536131915" lon="9.664197301729255"><ele>47.0</ele><time>2026-04-09T18:37:45.999Z</time></trkpt><trkpt lat="45.12669897931399" lon="9.663869442457608"><ele>47.0</ele><time>2026-04-09T18:37:46.999Z</time></trkpt><trkpt lat="45.1269030042518" lon="9.663536352048348"><ele>47.0</ele><time>2026-04-09T18:37:47.999Z</time></trkpt><trkpt lat="45.127104742796035" lon="9.663205114772156"><ele>47.0</ele><time>2026-04-09T18:37:48.999Z</time></trkpt><trkpt lat="45.12730643495377" lon="9.66287818187373"><ele>47.5</ele><time>2026-04-09T18:37:49.999Z</time></trkpt><trkpt lat="45.127507031565855" lon="9.662543704421486"><ele>48.0</ele><time>2026-04-09T18:37:50.999Z</time></trkpt><trkpt lat="45.127707329518906" lon="9.662210664880066"><ele>47.5</ele><time>2026-04-09T18:37:51.999Z</time></trkpt><trkpt lat="45.12789656058903" lon="9.661861653556446"><ele>47.0</ele><time>2026-04-09T18:37:52.999Z</time></trkpt><trkpt lat="45.12809889033203" lon="9.661525965919347"><ele>47.0</ele><time>2026-04-09T18:37:53.999Z</time></trkpt><trkpt lat="45.12828922422307" lon="9.661184224666332"><ele>47.0</ele><time>2026-04-09T18:37:54.999Z</time></trkpt><trkpt lat="45.12847850263408" lon="9.660837332479106"><ele>47.5</ele><time>2026-04-09T18:37:55.999Z</time></trkpt><trkpt lat="45.12866673755848" lon="9.66048520958769"><ele>48.0</ele><time>2026-04-09T18:37:56.999Z</time></trkpt><trkpt lat="45.12885424803508" lon="9.660133430094518"><ele>47.5</ele><time>2026-04-09T18:37:57.999Z</time></trkpt><trkpt lat="45.12904205399732" lon="9.659782755269374"><ele>47.0</ele><time>2026-04-09T18:37:58.999Z</time></trkpt><trkpt lat="45.129229071327835" lon="9.65943204144769"><ele>47.0</ele><time>2026-04-09T18:37:59.999Z</time></trkpt><trkpt lat="45.12941443762031" lon="9.659082192419284"><ele>47.0</ele><time>2026-04-09T18:38:00.999Z</time></trkpt><trkpt lat="45.12959962491032" lon="9.65873029506721"><ele>47.0</ele><time>2026-04-09T18:38:01.999Z</time></trkpt><trkpt lat="45.12978335680284" lon="9.658376472369897"><ele>47.0</ele><time>2026-04-09T18:38:02.999Z</time></trkpt><trkpt lat="45.12996426276604" lon="9.658017643454246"><ele>48.5</ele><time>2026-04-09T18:38:03.999Z</time></trkpt><trkpt lat="45.13014448520434" lon="9.657663319070863"><ele>50.0</ele><time>2026-04-09T18:38:04.999Z</time></trkpt><trkpt lat="45.13032484507981" lon="9.657309093424786"><ele>50.0</ele><time>2026-04-09T18:38:05.999Z</time></trkpt><trkpt lat="45.13050464650684" lon="9.656952055436822"><ele>50.0</ele><time>2026-04-09T18:38:06.999Z</time></trkpt><trkpt lat="45.13068487293869" lon="9.656598920201956"><ele>48.5</ele><time>2026-04-09T18:38:07.999Z</time></trkpt><trkpt lat="45.130868739313414" lon="9.656249263788698"><ele>47.0</ele><time>2026-04-09T18:38:08.999Z</time></trkpt><trkpt lat="45.13105260024803" lon="9.655894377172212"><ele>47.0</ele><time>2026-04-09T18:38:09.999Z</time></trkpt><trkpt lat="45.13123829682371" lon="9.655542838769014"><ele>47.0</ele><time>2026-04-09T18:38:10.999Z</time></trkpt><trkpt lat="45.13142183403555" lon="9.6551889819582"><ele>47.0</ele><time>2026-04-09T18:38:11.999Z</time></trkpt><trkpt lat="45.13160308334563" lon="9.654835763640559"><ele>47.0</ele><time>2026-04-09T18:38:12.999Z</time></trkpt><trkpt lat="45.131783922893845" lon="9.65448175920257"><ele>47.5</ele><time>2026-04-09T18:38:13.999Z</time></trkpt><trkpt lat="45.13196478321806" lon="9.654123391898096"><ele>48.0</ele><time>2026-04-09T18:38:14.999Z</time></trkpt><trkpt lat="45.13214353250174" lon="9.653770413886699"><ele>48.0</ele><time>2026-04-09T18:38:15.999Z</time></trkpt><trkpt lat="45.132322564408604" lon="9.65341583594015"><ele>48.0</ele><time>2026-04-09T18:38:16.999Z</time></trkpt><trkpt lat="45.13250114628388" lon="9.653060668756021"><ele>48.0</ele><time>2026-04-09T18:38:17.999Z</time></trkpt><trkpt lat="45.1326802007194" lon="9.652704579367015"><ele>48.0</ele><time>2026-04-09T18:38:18.999Z</time></trkpt><trkpt lat="45.132860830512485" lon="9.652349081197652"><ele>48.0</ele><time>2026-04-09T18:38:19.999Z</time></trkpt><trkpt lat="45.13304254185959" lon="9.651997425188382"><ele>48.0</ele><time>2026-04-09T18:38:20.999Z</time></trkpt><trkpt lat="45.13322682961601" lon="9.65164556252023"><ele>47.5</ele><time>2026-04-09T18:38:21.999Z</time></trkpt><trkpt lat="45.133410531330604" lon="9.651292377351371"><ele>47.0</ele><time>2026-04-09T18:38:22.999Z</time></trkpt><trkpt lat="45.13359166122607" lon="9.65093656590449"><ele>47.0</ele><time>2026-04-09T18:38:23.999Z</time></trkpt><trkpt lat="45.133772537744406" lon="9.650579627161816"><ele>47.0</ele><time>2026-04-09T18:38:24.999Z</time></trkpt><trkpt lat="45.13395431289076" lon="9.650222950038966"><ele>47.0</ele><time>2026-04-09T18:38:25.999Z</time></trkpt><trkpt lat="45.13413501831885" lon="9.649866034392835"><ele>47.0</ele><time>2026-04-09T18:38:26.999Z</time></trkpt><trkpt lat="45.13431720188086" lon="9.649513072393335"><ele>46.5</ele><time>2026-04-09T18:38:27.999Z</time></trkpt><trkpt lat="45.13449727320658" lon="9.649159521468981"><ele>46.0</ele><time>2026-04-09T18:38:28.999Z</time></trkpt><trkpt lat="45.13467905749511" lon="9.64880162845546"><ele>46.5</ele><time>2026-04-09T18:38:29.999Z</time></trkpt><trkpt lat="45.1348627834672" lon="9.648447628923993"><ele>47.0</ele><time>2026-04-09T18:38:30.998Z</time></trkpt><trkpt lat="45.13504526343857" lon="9.648094981610626"><ele>47.5</ele><time>2026-04-09T18:38:31.998Z</time></trkpt><trkpt lat="45.13522951736391" lon="9.647743899601688"><ele>48.0</ele><time>2026-04-09T18:38:33Z</time></trkpt><trkpt lat="45.13541459186388" lon="9.64738927834586"><ele>48.0</ele><time>2026-04-09T18:38:34Z</time></trkpt><trkpt lat="45.13559979981115" lon="9.647039554701207"><ele>48.0</ele><time>2026-04-09T18:38:35Z</time></trkpt><trkpt lat="45.135781682155205" lon="9.64668521153305"><ele>47.0</ele><time>2026-04-09T18:38:36Z</time></trkpt><trkpt lat="45.135963519804754" lon="9.646330090519061"><ele>46.0</ele><time>2026-04-09T18:38:37Z</time></trkpt><trkpt lat="45.136144545039095" lon="9.645978029322885"><ele>46.0</ele><time>2026-04-09T18:38:38Z</time></trkpt><trkpt lat="45.13632563937444" lon="9.645623894469553"><ele>46.0</ele><time>2026-04-09T18:38:39Z</time></trkpt><trkpt lat="45.13650390416571" lon="9.645265377384915"><ele>47.0</ele><time>2026-04-09T18:38:40Z</time></trkpt><trkpt lat="45.13668262002954" lon="9.64490552807832"><ele>48.0</ele><time>2026-04-09T18:38:41Z</time></trkpt><trkpt lat="45.13685989823217" lon="9.644544977234519"><ele>48.0</ele><time>2026-04-09T18:38:42Z</time></trkpt><trkpt lat="45.13704025934828" lon="9.644189879692638"><ele>48.0</ele><time>2026-04-09T18:38:43Z</time></trkpt><trkpt lat="45.13722074028827" lon="9.643832241916483"><ele>48.0</ele><time>2026-04-09T18:38:44Z</time></trkpt><trkpt lat="45.13740146086854" lon="9.643476686817253"><ele>48.0</ele><time>2026-04-09T18:38:45Z</time></trkpt><trkpt lat="45.13758079610127" lon="9.643118580233523"><ele>49.5</ele><time>2026-04-09T18:38:46Z</time></trkpt><trkpt lat="45.13776167540172" lon="9.642763274813522"><ele>51.0</ele><time>2026-04-09T18:38:47Z</time></trkpt><trkpt lat="45.137943434037815" lon="9.642403988663164"><ele>51.0</ele><time>2026-04-09T18:38:48Z</time></trkpt><trkpt lat="45.138123720202636" lon="9.642036441564189"><ele>51.0</ele><time>2026-04-09T18:38:49Z</time></trkpt><trkpt lat="45.138298518335674" lon="9.641679808874821"><ele>50.5</ele><time>2026-04-09T18:38:50Z</time></trkpt><trkpt lat="45.13847721617819" lon="9.641320803861603"><ele>50.0</ele><time>2026-04-09T18:38:51Z</time></trkpt><trkpt lat="45.13865939125269" lon="9.640970470915754"><ele>49.5</ele><time>2026-04-09T18:38:52Z</time></trkpt><trkpt lat="45.13884216159447" lon="9.64062028097333"><ele>49.0</ele><time>2026-04-09T18:38:53Z</time></trkpt><trkpt lat="45.13902205664756" lon="9.640265831085946"><ele>49.0</ele><time>2026-04-09T18:38:54Z</time></trkpt><trkpt lat="45.13920137109051" lon="9.639910489096362"><ele>49.0</ele><time>2026-04-09T18:38:55Z</time></trkpt><trkpt lat="45.139383948851936" lon="9.63955952446968"><ele>48.5</ele><time>2026-04-09T18:38:56Z</time></trkpt><trkpt lat="45.13956718344975" lon="9.639205846443934"><ele>48.0</ele><time>2026-04-09T18:38:57Z</time></trkpt><trkpt lat="45.13975042372848" lon="9.63885343054814"><ele>48.5</ele><time>2026-04-09T18:38:58Z</time></trkpt><trkpt lat="45.13993263585805" lon="9.6385005211625"><ele>49.0</ele><time>2026-04-09T18:38:59Z</time></trkpt><trkpt lat="45.14011619600951" lon="9.63815058420056"><ele>49.0</ele><time>2026-04-09T18:39:00Z</time></trkpt><trkpt lat="45.14030335959436" lon="9.63780236667019"><ele>49.0</ele><time>2026-04-09T18:39:01Z</time></trkpt><trkpt lat="45.140492291452915" lon="9.63745348720169"><ele>48.5</ele><time>2026-04-09T18:39:02Z</time></trkpt><trkpt lat="45.140681746509344" lon="9.637105949339482"><ele>48.0</ele><time>2026-04-09T18:39:03Z</time></trkpt><trkpt lat="45.14087620179428" lon="9.636759754068686"><ele>48.0</ele><time>2026-04-09T18:39:04Z</time></trkpt><trkpt lat="45.14107462949798" lon="9.636425033942324"><ele>48.0</ele><time>2026-04-09T18:39:05Z</time></trkpt><trkpt lat="45.141276288184066" lon="9.636092012665923"><ele>48.0</ele><time>2026-04-09T18:39:06Z</time></trkpt><trkpt lat="45.141482193954786" lon="9.635763589279897"><ele>48.0</ele><time>2026-04-09T18:39:07Z</time></trkpt><trkpt lat="45.141690519894254" lon="9.635447136800169"><ele>49.5</ele><time>2026-04-09T18:39:08Z</time></trkpt><trkpt lat="45.14190365108964" lon="9.63513085544974"><ele>51.0</ele><time>2026-04-09T18:39:09Z</time></trkpt><trkpt lat="45.142118601255746" lon="9.634825712677873"><ele>51.0</ele><time>2026-04-09T18:39:10Z</time></trkpt><trkpt lat="45.142335578034704" lon="9.634518923432429"><ele>51.0</ele><time>2026-04-09T18:39:11Z</time></trkpt><trkpt lat="45.142554393718875" lon="9.634212924488441"><ele>53.0</ele><time>2026-04-09T18:39:12Z</time></trkpt><trkpt lat="45.142774522253205" lon="9.633908974845559"><ele>55.0</ele><time>2026-04-09T18:39:13Z</time></trkpt><trkpt lat="45.14299546064132" lon="9.633608839128454"><ele>55.0</ele><time>2026-04-09T18:39:14Z</time></trkpt><trkpt lat="45.143216675742124" lon="9.633302510566697"><ele>55.0</ele><time>2026-04-09T18:39:15Z</time></trkpt><trkpt lat="45.14343764151222" lon="9.632990465392767"><ele>56.0</ele><time>2026-04-09T18:39:16Z</time></trkpt><trkpt lat="45.143657629230916" lon="9.632680589920325"><ele>57.0</ele><time>2026-04-09T18:39:17Z</time></trkpt><trkpt lat="45.1438781657982" lon="9.632372255353772"><ele>57.5</ele><time>2026-04-09T18:39:18Z</time></trkpt><trkpt lat="45.144098704237344" lon="9.632064665699685"><ele>58.0</ele><time>2026-04-09T18:39:19Z</time></trkpt><trkpt lat="45.144319927259424" lon="9.631748798263018"><ele>57.0</ele><time>2026-04-09T18:39:20Z</time></trkpt><trkpt lat="45.14453808311807" lon="9.631432316588144"><ele>56.0</ele><time>2026-04-09T18:39:21Z</time></trkpt><trkpt lat="45.144755774173206" lon="9.631118768961057"><ele>56.5</ele><time>2026-04-09T18:39:21.999Z</time></trkpt><trkpt lat="45.14497262159222" lon="9.630803936481708"><ele>57.0</ele><time>2026-04-09T18:39:22.999Z</time></trkpt><trkpt lat="45.14518871611498" lon="9.630488686563153"><ele>56.5</ele><time>2026-04-09T18:39:23.999Z</time></trkpt><trkpt lat="45.14540601072985" lon="9.63018027810005"><ele>56.0</ele><time>2026-04-09T18:39:24.999Z</time></trkpt><trkpt lat="45.14562538192898" lon="9.629874792054586"><ele>56.5</ele><time>2026-04-09T18:39:25.999Z</time></trkpt><trkpt lat="45.14584468827796" lon="9.62956428848853"><ele>57.0</ele><time>2026-04-09T18:39:26.999Z</time></trkpt><trkpt lat="45.146064325697765" lon="9.629257965074048"><ele>57.0</ele><time>2026-04-09T18:39:27.999Z</time></trkpt><trkpt lat="45.14628565818712" lon="9.628949480115622"><ele>57.0</ele><time>2026-04-09T18:39:28.999Z</time></trkpt><trkpt lat="45.14650629476616" lon="9.62864440954144"><ele>56.5</ele><time>2026-04-09T18:39:29.999Z</time></trkpt><trkpt lat="45.14672667512489" lon="9.628334337924656"><ele>56.0</ele><time>2026-04-09T18:39:30.999Z</time></trkpt><trkpt lat="45.14694526810773" lon="9.628026073980193"><ele>56.0</ele><time>2026-04-09T18:39:31.999Z</time></trkpt><trkpt lat="45.147166442414154" lon="9.62771874850015"><ele>56.0</ele><time>2026-04-09T18:39:32.999Z</time></trkpt><trkpt lat="45.14738786545431" lon="9.627412576151912"><ele>56.5</ele><time>2026-04-09T18:39:33.999Z</time></trkpt><trkpt lat="45.14760913298309" lon="9.627103888252364"><ele>57.0</ele><time>2026-04-09T18:39:34.999Z</time></trkpt><trkpt lat="45.14782834230801" lon="9.626797954915814"><ele>57.5</ele><time>2026-04-09T18:39:35.999Z</time></trkpt><trkpt lat="45.14804948495741" lon="9.626491495861856"><ele>58.0</ele><time>2026-04-09T18:39:36.999Z</time></trkpt><trkpt lat="45.14826948626055" lon="9.626185326157879"><ele>59.5</ele><time>2026-04-09T18:39:37.999Z</time></trkpt><trkpt lat="45.148490185775124" lon="9.625877531156796"><ele>61.0</ele><time>2026-04-09T18:39:38.999Z</time></trkpt><trkpt lat="45.14871120985386" lon="9.625568400347959"><ele>61.0</ele><time>2026-04-09T18:39:39.999Z</time></trkpt><trkpt lat="45.14894832326108" lon="9.62524731031615"><ele>61.0</ele><time>2026-04-09T18:39:40.999Z</time></trkpt><trkpt lat="45.149159148346364" lon="9.624949024227897"><ele>60.0</ele><time>2026-04-09T18:39:41.999Z</time></trkpt><trkpt lat="45.149376229191304" lon="9.624645577464918"><ele>59.0</ele><time>2026-04-09T18:39:42.999Z</time></trkpt><trkpt lat="45.149596982880176" lon="9.62433638737523"><ele>59.0</ele><time>2026-04-09T18:39:43.999Z</time></trkpt><trkpt lat="45.149818742326524" lon="9.624027877131518"><ele>59.0</ele><time>2026-04-09T18:39:44.999Z</time></trkpt><trkpt lat="45.15004043903453" lon="9.623722604296578"><ele>59.0</ele><time>2026-04-09T18:39:45.999Z</time></trkpt><trkpt lat="45.150263236145896" lon="9.623421941296662"><ele>59.0</ele><time>2026-04-09T18:39:46.999Z</time></trkpt><trkpt lat="45.150485069203384" lon="9.623114172773205"><ele>59.0</ele><time>2026-04-09T18:39:47.999Z</time></trkpt><trkpt lat="45.15070618435999" lon="9.622811060175136"><ele>59.0</ele><time>2026-04-09T18:39:48.999Z</time></trkpt><trkpt lat="45.15092774809644" lon="9.622506314213519"><ele>59.0</ele><time>2026-04-09T18:39:49.999Z</time></trkpt><trkpt lat="45.15114863086273" lon="9.622198583899616"><ele>59.0</ele><time>2026-04-09T18:39:50.999Z</time></trkpt><trkpt lat="45.15136981291243" lon="9.621895798944479"><ele>59.0</ele><time>2026-04-09T18:39:51.999Z</time></trkpt><trkpt lat="45.151592792077686" lon="9.62158902665469"><ele>59.0</ele><time>2026-04-09T18:39:52.999Z</time></trkpt><trkpt lat="45.151815545788374" lon="9.621286024087151"><ele>59.5</ele><time>2026-04-09T18:39:53.999Z</time></trkpt><trkpt lat="45.152038008885995" lon="9.62098580083126"><ele>60.0</ele><time>2026-04-09T18:39:54.999Z</time></trkpt><trkpt lat="45.15226065383255" lon="9.620678980306296"><ele>60.0</ele><time>2026-04-09T18:39:55.999Z</time></trkpt><trkpt lat="45.15248354629584" lon="9.620374029766454"><ele>60.0</ele><time>2026-04-09T18:39:56.999Z</time></trkpt><trkpt lat="45.15270534960327" lon="9.620071091854724"><ele>60.0</ele><time>2026-04-09T18:39:57.999Z</time></trkpt><trkpt lat="45.15292666637309" lon="9.619761302007962"><ele>60.0</ele><time>2026-04-09T18:39:58.999Z</time></trkpt><trkpt lat="45.153146494133786" lon="9.619452911261549"><ele>60.0</ele><time>2026-04-09T18:39:59.999Z</time></trkpt><trkpt lat="45.15336558070587" lon="9.619140199690479"><ele>60.0</ele><time>2026-04-09T18:40:00.999Z</time></trkpt><trkpt lat="45.15358505097754" lon="9.618829911136926"><ele>61.0</ele><time>2026-04-09T18:40:01.999Z</time></trkpt><trkpt lat="45.153804579717395" lon="9.618522802431754"><ele>62.0</ele><time>2026-04-09T18:40:02.999Z</time></trkpt><trkpt lat="45.1540242810563" lon="9.618213246136664"><ele>61.0</ele><time>2026-04-09T18:40:03.999Z</time></trkpt><trkpt lat="45.1542439485733" lon="9.61790123817888"><ele>60.0</ele><time>2026-04-09T18:40:04.999Z</time></trkpt><trkpt lat="45.154463197988385" lon="9.617592704898511"><ele>59.5</ele><time>2026-04-09T18:40:05.999Z</time></trkpt><trkpt lat="45.15468239560985" lon="9.617281441419754"><ele>59.0</ele><time>2026-04-09T18:40:06.999Z</time></trkpt><trkpt lat="45.1549021161235" lon="9.616971628010985"><ele>59.0</ele><time>2026-04-09T18:40:07.999Z</time></trkpt><trkpt lat="45.15512205727476" lon="9.616660656768653"><ele>59.0</ele><time>2026-04-09T18:40:08.999Z</time></trkpt><trkpt lat="45.15534363916068" lon="9.616354131237307"><ele>59.0</ele><time>2026-04-09T18:40:09.999Z</time></trkpt><trkpt lat="45.15556567114919" lon="9.616050115179911"><ele>59.0</ele><time>2026-04-09T18:40:10.999Z</time></trkpt><trkpt lat="45.15578763618905" lon="9.615744259004467"><ele>59.5</ele><time>2026-04-09T18:40:11.999Z</time></trkpt><trkpt lat="45.15600984069593" lon="9.615438509732469"><ele>60.0</ele><time>2026-04-09T18:40:12.999Z</time></trkpt><trkpt lat="45.15623028571443" lon="9.615135692233578"><ele>60.5</ele><time>2026-04-09T18:40:13.999Z</time></trkpt><trkpt lat="45.156450642120355" lon="9.614827295085407"><ele>61.0</ele><time>2026-04-09T18:40:14.999Z</time></trkpt><trkpt lat="45.15667042452074" lon="9.61451854864599"><ele>60.0</ele><time>2026-04-09T18:40:15.999Z</time></trkpt><trkpt lat="45.156889121638514" lon="9.61420715450943"><ele>59.0</ele><time>2026-04-09T18:40:16.999Z</time></trkpt><trkpt lat="45.15710709935334" lon="9.61389962079887"><ele>59.5</ele><time>2026-04-09T18:40:17.999Z</time></trkpt><trkpt lat="45.15732593386629" lon="9.613588825727915"><ele>60.0</ele><time>2026-04-09T18:40:18.999Z</time></trkpt><trkpt lat="45.15754459527391" lon="9.61328177005267"><ele>60.0</ele><time>2026-04-09T18:40:19.999Z</time></trkpt><trkpt lat="45.15776652784124" lon="9.612975809705517"><ele>60.0</ele><time>2026-04-09T18:40:20.999Z</time></trkpt><trkpt lat="45.15799017812" lon="9.61267000256294"><ele>60.0</ele><time>2026-04-09T18:40:21.999Z</time></trkpt><trkpt lat="45.158211722328836" lon="9.612365445313134"><ele>60.0</ele><time>2026-04-09T18:40:22.999Z</time></trkpt><trkpt lat="45.158434670064395" lon="9.612053586096202"><ele>60.0</ele><time>2026-04-09T18:40:23.999Z</time></trkpt><trkpt lat="45.15865642800347" lon="9.61174630220438"><ele>60.0</ele><time>2026-04-09T18:40:24.999Z</time></trkpt><trkpt lat="45.15887722693285" lon="9.611442289740026"><ele>60.5</ele><time>2026-04-09T18:40:25.999Z</time></trkpt><trkpt lat="45.1590957180912" lon="9.611132971343197"><ele>61.0</ele><time>2026-04-09T18:40:26.999Z</time></trkpt><trkpt lat="45.159313235382676" lon="9.61082396453725"><ele>61.0</ele><time>2026-04-09T18:40:27.999Z</time></trkpt><trkpt lat="45.159532034084926" lon="9.610511993150418"><ele>61.0</ele><time>2026-04-09T18:40:28.999Z</time></trkpt><trkpt lat="45.15975048554587" lon="9.61020239890804"><ele>60.5</ele><time>2026-04-09T18:40:29.999Z</time></trkpt><trkpt lat="45.15997096896062" lon="9.609891876328366"><ele>60.0</ele><time>2026-04-09T18:40:30.999Z</time></trkpt><trkpt lat="45.16019019233189" lon="9.609584835858351"><ele>61.0</ele><time>2026-04-09T18:40:31.999Z</time></trkpt><trkpt lat="45.16041130473956" lon="9.609276522079734"><ele>62.0</ele><time>2026-04-09T18:40:32.999Z</time></trkpt><trkpt lat="45.16063390343111" lon="9.608970015451881"><ele>62.0</ele><time>2026-04-09T18:40:33.999Z</time></trkpt><trkpt lat="45.16085484163029" lon="9.608663191512045"><ele>62.0</ele><time>2026-04-09T18:40:34.998Z</time></trkpt><trkpt lat="45.16107611193311" lon="9.608354937600888"><ele>62.0</ele><time>2026-04-09T18:40:35.998Z</time></trkpt><trkpt lat="45.16129741961272" lon="9.608046820307282"><ele>62.0</ele><time>2026-04-09T18:40:36.998Z</time></trkpt><trkpt lat="45.16151746856774" lon="9.60773866483371"><ele>62.0</ele><time>2026-04-09T18:40:37.998Z</time></trkpt><trkpt lat="45.16173674621836" lon="9.607428704052182"><ele>62.0</ele><time>2026-04-09T18:40:39Z</time></trkpt><trkpt lat="45.16195634778423" lon="9.607117791295916"><ele>62.0</ele><time>2026-04-09T18:40:40Z</time></trkpt><trkpt lat="45.16217600422789" lon="9.606808021818882"><ele>62.0</ele><time>2026-04-09T18:40:41Z</time></trkpt><trkpt lat="45.16239698750862" lon="9.606499591731797"><ele>62.0</ele><time>2026-04-09T18:40:42Z</time></trkpt><trkpt lat="45.162618012563854" lon="9.606190361791304"><ele>62.0</ele><time>2026-04-09T18:40:43Z</time></trkpt><trkpt lat="45.16283888344019" lon="9.6058866146143"><ele>61.5</ele><time>2026-04-09T18:40:44Z</time></trkpt><trkpt lat="45.163060365285624" lon="9.605580062108197"><ele>61.0</ele><time>2026-04-09T18:40:45Z</time></trkpt><trkpt lat="45.163280498561875" lon="9.605271526567165"><ele>63.0</ele><time>2026-04-09T18:40:46Z</time></trkpt><trkpt lat="45.16350098820526" lon="9.60496446673525"><ele>65.0</ele><time>2026-04-09T18:40:47Z</time></trkpt><trkpt lat="45.16372049369667" lon="9.604655940271241"><ele>65.0</ele><time>2026-04-09T18:40:48Z</time></trkpt><trkpt lat="45.16393899784892" lon="9.604347164701897"><ele>65.0</ele><time>2026-04-09T18:40:49Z</time></trkpt><trkpt lat="45.16415366169743" lon="9.60404727940412"><ele>63.0</ele><time>2026-04-09T18:40:50Z</time></trkpt><trkpt lat="45.16437743607114" lon="9.603731714355373"><ele>61.0</ele><time>2026-04-09T18:40:51Z</time></trkpt><trkpt lat="45.164598188557484" lon="9.603419984919112"><ele>61.0</ele><time>2026-04-09T18:40:52Z</time></trkpt><trkpt lat="45.16481658967541" lon="9.603105110165316"><ele>61.0</ele><time>2026-04-09T18:40:53Z</time></trkpt><trkpt lat="45.16503241198339" lon="9.602797595059043"><ele>60.5</ele><time>2026-04-09T18:40:54Z</time></trkpt><trkpt lat="45.16524829647294" lon="9.602485911759358"><ele>60.0</ele><time>2026-04-09T18:40:55Z</time></trkpt><trkpt lat="45.165464262973636" lon="9.602170205182157"><ele>60.0</ele><time>2026-04-09T18:40:56Z</time></trkpt><trkpt lat="45.165679780465375" lon="9.601853977627014"><ele>60.0</ele><time>2026-04-09T18:40:57Z</time></trkpt><trkpt lat="45.16589133271643" lon="9.601539479520977"><ele>60.0</ele><time>2026-04-09T18:40:58Z</time></trkpt><trkpt lat="45.166103746772365" lon="9.60121846807435"><ele>60.0</ele><time>2026-04-09T18:40:59Z</time></trkpt><trkpt lat="45.16631471126594" lon="9.600895085009833"><ele>60.5</ele><time>2026-04-09T18:41:00Z</time></trkpt><trkpt lat="45.16653149978196" lon="9.6005652260013"><ele>61.0</ele><time>2026-04-09T18:41:01Z</time></trkpt><trkpt lat="45.16675678620054" lon="9.600228199214788"><ele>61.5</ele><time>2026-04-09T18:41:02Z</time></trkpt><trkpt lat="45.16699021927593" lon="9.599878961940801"><ele>62.0</ele><time>2026-04-09T18:41:03Z</time></trkpt><trkpt lat="45.16723100707343" lon="9.599513223562525"><ele>61.0</ele><time>2026-04-09T18:41:04Z</time></trkpt><trkpt lat="45.16747514897207" lon="9.599136251471037"><ele>60.0</ele><time>2026-04-09T18:41:05Z</time></trkpt><trkpt lat="45.167724061950864" lon="9.598753877625498"><ele>60.0</ele><time>2026-04-09T18:41:06Z</time></trkpt><trkpt lat="45.167971656514254" lon="9.598374782959858"><ele>60.0</ele><time>2026-04-09T18:41:07Z</time></trkpt><trkpt lat="45.16821443286159" lon="9.597993305770293"><ele>60.5</ele><time>2026-04-09T18:41:08Z</time></trkpt><trkpt lat="45.16845216646552" lon="9.597619913509673"><ele>61.0</ele><time>2026-04-09T18:41:09Z</time></trkpt><trkpt lat="45.16868626042271" lon="9.597257368491487"><ele>61.5</ele><time>2026-04-09T18:41:10Z</time></trkpt><trkpt lat="45.16892134254416" lon="9.596898177773125"><ele>62.0</ele><time>2026-04-09T18:41:11Z</time></trkpt><trkpt lat="45.16915003994142" lon="9.596546726528068"><ele>62.5</ele><time>2026-04-09T18:41:12Z</time></trkpt><trkpt lat="45.16937500016341" lon="9.596205306538478"><ele>63.0</ele><time>2026-04-09T18:41:13Z</time></trkpt><trkpt lat="45.16959442240717" lon="9.59586631962594"><ele>63.0</ele><time>2026-04-09T18:41:14Z</time></trkpt><trkpt lat="45.169807113413" lon="9.595538848785571"><ele>63.0</ele><time>2026-04-09T18:41:15Z</time></trkpt><trkpt lat="45.17000971377243" lon="9.595222918670217"><ele>65.0</ele><time>2026-04-09T18:41:16Z</time></trkpt><trkpt lat="45.170213033911715" lon="9.594906911139814"><ele>67.0</ele><time>2026-04-09T18:41:17Z</time></trkpt><trkpt lat="45.1704146885932" lon="9.594587706572764"><ele>66.5</ele><time>2026-04-09T18:41:18Z</time></trkpt><trkpt lat="45.17061888781227" lon="9.594266719809431"><ele>66.0</ele><time>2026-04-09T18:41:19Z</time></trkpt><trkpt lat="45.17082612562183" lon="9.593950013187712"><ele>66.0</ele><time>2026-04-09T18:41:20Z</time></trkpt><trkpt lat="45.171024599769716" lon="9.593647128654622"><ele>66.0</ele><time>2026-04-09T18:41:21Z</time></trkpt><trkpt lat="45.17120917822219" lon="9.593359956405827"><ele>66.0</ele><time>2026-04-09T18:41:22Z</time></trkpt><trkpt lat="45.171394828583985" lon="9.593067851056407"><ele>66.0</ele><time>2026-04-09T18:41:23Z</time></trkpt><trkpt lat="45.17158360145466" lon="9.592759262946602"><ele>66.0</ele><time>2026-04-09T18:41:24Z</time></trkpt><trkpt lat="45.17177548603616" lon="9.592442191884134"><ele>66.0</ele><time>2026-04-09T18:41:25Z</time></trkpt><trkpt lat="45.17197292415303" lon="9.592120829161113"><ele>65.0</ele><time>2026-04-09T18:41:26Z</time></trkpt><trkpt lat="45.17217226839742" lon="9.591797651597378"><ele>64.0</ele><time>2026-04-09T18:41:27Z</time></trkpt><trkpt lat="45.172374584183245" lon="9.591475917995263"><ele>64.5</ele><time>2026-04-09T18:41:28Z</time></trkpt><trkpt lat="45.172579948727574" lon="9.591161746384673"><ele>65.0</ele><time>2026-04-09T18:41:29Z</time></trkpt><trkpt lat="45.17278718385656" lon="9.590850036641275"><ele>65.0</ele><time>2026-04-09T18:41:29.999Z</time></trkpt><trkpt lat="45.172997026926325" lon="9.59053718643139"><ele>65.0</ele><time>2026-04-09T18:41:30.999Z</time></trkpt><trkpt lat="45.17320129070006" lon="9.590228585849161"><ele>65.0</ele><time>2026-04-09T18:41:31.999Z</time></trkpt><trkpt lat="45.17339693109128" lon="9.589927851433409"><ele>65.0</ele><time>2026-04-09T18:41:32.999Z</time></trkpt><trkpt lat="45.173593953612915" lon="9.589621301130151"><ele>64.5</ele><time>2026-04-09T18:41:33.999Z</time></trkpt><trkpt lat="45.173791500786564" lon="9.589317307166258"><ele>64.0</ele><time>2026-04-09T18:41:34.999Z</time></trkpt><trkpt lat="45.17399078091234" lon="9.589009642477361"><ele>63.0</ele><time>2026-04-09T18:41:35.999Z</time></trkpt><trkpt lat="45.1741882944993" lon="9.588703798450243"><ele>62.0</ele><time>2026-04-09T18:41:36.999Z</time></trkpt><trkpt lat="45.17437082622045" lon="9.588418617171785"><ele>62.0</ele><time>2026-04-09T18:41:37.999Z</time></trkpt><trkpt lat="45.17455050923982" lon="9.588138125026813"><ele>62.0</ele><time>2026-04-09T18:41:38.999Z</time></trkpt><trkpt lat="45.174728370742955" lon="9.587859510054347"><ele>62.5</ele><time>2026-04-09T18:41:39.999Z</time></trkpt><trkpt lat="45.17490647848275" lon="9.587578446708433"><ele>63.0</ele><time>2026-04-09T18:41:40.999Z</time></trkpt><trkpt lat="45.17508888869769" lon="9.58729301294798"><ele>63.0</ele><time>2026-04-09T18:41:41.999Z</time></trkpt><trkpt lat="45.1752681562722" lon="9.587011509969694"><ele>63.0</ele><time>2026-04-09T18:41:42.999Z</time></trkpt><trkpt lat="45.17544872055618" lon="9.586730166735853"><ele>63.5</ele><time>2026-04-09T18:41:43.999Z</time></trkpt><trkpt lat="45.17562960085047" lon="9.586447383713391"><ele>64.0</ele><time>2026-04-09T18:41:44.999Z</time></trkpt><trkpt lat="45.17580935982911" lon="9.586164742383302"><ele>64.0</ele><time>2026-04-09T18:41:45.999Z</time></trkpt><trkpt lat="45.175989471320975" lon="9.585879069060748"><ele>64.0</ele><time>2026-04-09T18:41:46.999Z</time></trkpt><trkpt lat="45.17616822204046" lon="9.585597184301404"><ele>64.0</ele><time>2026-04-09T18:41:47.999Z</time></trkpt><trkpt lat="45.176344178089295" lon="9.58532072411442"><ele>64.0</ele><time>2026-04-09T18:41:48.999Z</time></trkpt><trkpt lat="45.176519205853594" lon="9.585045812124893"><ele>63.5</ele><time>2026-04-09T18:41:49.999Z</time></trkpt><trkpt lat="45.176693795686305" lon="9.584773018741837"><ele>63.0</ele><time>2026-04-09T18:41:50.999Z</time></trkpt><trkpt lat="45.176866491781816" lon="9.58450632884197"><ele>63.0</ele><time>2026-04-09T18:41:51.999Z</time></trkpt><trkpt lat="45.177039833207765" lon="9.584238452542793"><ele>63.0</ele><time>2026-04-09T18:41:52.999Z</time></trkpt><trkpt lat="45.17721381247525" lon="9.583970623649757"><ele>63.0</ele><time>2026-04-09T18:41:53.999Z</time></trkpt><trkpt lat="45.17738463035295" lon="9.583704478326721"><ele>63.0</ele><time>2026-04-09T18:41:54.999Z</time></trkpt><trkpt lat="45.17755501833112" lon="9.583435819919238"><ele>64.5</ele><time>2026-04-09T18:41:55.999Z</time></trkpt><trkpt lat="45.17772531412135" lon="9.583166972299733"><ele>66.0</ele><time>2026-04-09T18:41:56.999Z</time></trkpt><trkpt lat="45.17789638752806" lon="9.58289719583556"><ele>66.0</ele><time>2026-04-09T18:41:57.999Z</time></trkpt><trkpt lat="45.178067730216775" lon="9.582624820658996"><ele>66.0</ele><time>2026-04-09T18:41:58.999Z</time></trkpt><trkpt lat="45.17823091640705" lon="9.582344228721121"><ele>64.5</ele><time>2026-04-09T18:41:59.999Z</time></trkpt><trkpt lat="45.178404487647455" lon="9.58207076734941"><ele>63.0</ele><time>2026-04-09T18:42:00.999Z</time></trkpt><trkpt lat="45.17858797223479" lon="9.581789675923947"><ele>63.0</ele><time>2026-04-09T18:42:01.999Z</time></trkpt><trkpt lat="45.17877033544414" lon="9.58150471418289"><ele>63.0</ele><time>2026-04-09T18:42:02.999Z</time></trkpt><trkpt lat="45.17895457052181" lon="9.581214640413146"><ele>62.5</ele><time>2026-04-09T18:42:03.999Z</time></trkpt><trkpt lat="45.17913925098253" lon="9.580927300288744"><ele>62.0</ele><time>2026-04-09T18:42:04.999Z</time></trkpt><trkpt lat="45.17932777720394" lon="9.580634444297266"><ele>62.5</ele><time>2026-04-09T18:42:05.999Z</time></trkpt><trkpt lat="45.179516961471734" lon="9.580338423184884"><ele>63.0</ele><time>2026-04-09T18:42:06.999Z</time></trkpt><trkpt lat="45.179706692756326" lon="9.580043964745972"><ele>63.0</ele><time>2026-04-09T18:42:07.999Z</time></trkpt><trkpt lat="45.17990709344298" lon="9.579748812709017"><ele>63.0</ele><time>2026-04-09T18:42:08.999Z</time></trkpt><trkpt lat="45.180090376159136" lon="9.579452978180143"><ele>64.0</ele><time>2026-04-09T18:42:09.999Z</time></trkpt><trkpt lat="45.180277411056785" lon="9.579154364784806"><ele>65.0</ele><time>2026-04-09T18:42:10.999Z</time></trkpt><trkpt lat="45.18046114662496" lon="9.57885393613287"><ele>63.5</ele><time>2026-04-09T18:42:11.999Z</time></trkpt><trkpt lat="45.18064954176736" lon="9.578557394440114"><ele>62.0</ele><time>2026-04-09T18:42:12.999Z</time></trkpt><trkpt lat="45.18083848309148" lon="9.578255810324013"><ele>62.0</ele><time>2026-04-09T18:42:13.999Z</time></trkpt><trkpt lat="45.181024038606616" lon="9.577957215410946"><ele>62.0</ele><time>2026-04-09T18:42:14.999Z</time></trkpt><trkpt lat="45.18120935526919" lon="9.577658899276575"><ele>62.0</ele><time>2026-04-09T18:42:15.999Z</time></trkpt><trkpt lat="45.18139512313376" lon="9.577359408636495"><ele>62.0</ele><time>2026-04-09T18:42:16.999Z</time></trkpt><trkpt lat="45.18158357611504" lon="9.57706209173573"><ele>62.5</ele><time>2026-04-09T18:42:17.999Z</time></trkpt><trkpt lat="45.18176980217111" lon="9.576763676419551"><ele>63.0</ele><time>2026-04-09T18:42:18.999Z</time></trkpt><trkpt lat="45.18195763506043" lon="9.576466962437198"><ele>62.5</ele><time>2026-04-09T18:42:19.999Z</time></trkpt><trkpt lat="45.182145593246894" lon="9.576171384998517"><ele>62.0</ele><time>2026-04-09T18:42:20.999Z</time></trkpt><trkpt lat="45.18233191658511" lon="9.575876792259171"><ele>62.0</ele><time>2026-04-09T18:42:21.999Z</time></trkpt><trkpt lat="45.18252010876654" lon="9.57558291067899"><ele>62.0</ele><time>2026-04-09T18:42:22.999Z</time></trkpt><trkpt lat="45.18270864511348" lon="9.575288177321854"><ele>62.0</ele><time>2026-04-09T18:42:23.999Z</time></trkpt><trkpt lat="45.18289987348912" lon="9.574992079431128"><ele>62.0</ele><time>2026-04-09T18:42:24.999Z</time></trkpt><trkpt lat="45.183088674767944" lon="9.574697387490954"><ele>62.0</ele><time>2026-04-09T18:42:25.999Z</time></trkpt><trkpt lat="45.18327543128973" lon="9.574400383323276"><ele>62.0</ele><time>2026-04-09T18:42:26.999Z</time></trkpt><trkpt lat="45.183465005315966" lon="9.574102721163495"><ele>62.0</ele><time>2026-04-09T18:42:27.999Z</time></trkpt><trkpt lat="45.18366043712005" lon="9.573794068405276"><ele>62.0</ele><time>2026-04-09T18:42:28.999Z</time></trkpt><trkpt lat="45.183870267492665" lon="9.573465626842378"><ele>62.0</ele><time>2026-04-09T18:42:29.999Z</time></trkpt><trkpt lat="45.18408757226231" lon="9.573128908114997"><ele>62.0</ele><time>2026-04-09T18:42:30.999Z</time></trkpt><trkpt lat="45.18430663120845" lon="9.572791964982924"><ele>62.0</ele><time>2026-04-09T18:42:31.999Z</time></trkpt><trkpt lat="45.184531056388934" lon="9.5724520138983"><ele>62.0</ele><time>2026-04-09T18:42:32.999Z</time></trkpt><trkpt lat="45.18475770801792" lon="9.572111263641322"><ele>61.0</ele><time>2026-04-09T18:42:33.999Z</time></trkpt><trkpt lat="45.18498385734978" lon="9.571768534964464"><ele>60.0</ele><time>2026-04-09T18:42:34.999Z</time></trkpt><trkpt lat="45.185209720253035" lon="9.571423984087827"><ele>61.0</ele><time>2026-04-09T18:42:35.999Z</time></trkpt><trkpt lat="45.185429789199574" lon="9.571083813146128"><ele>62.0</ele><time>2026-04-09T18:42:36.999Z</time></trkpt><trkpt lat="45.185642781823475" lon="9.57075783865225"><ele>62.5</ele><time>2026-04-09T18:42:37.999Z</time></trkpt><trkpt lat="45.18584905970525" lon="9.570440810533267"><ele>63.0</ele><time>2026-04-09T18:42:38.999Z</time></trkpt><trkpt lat="45.186043290321095" lon="9.570140726483402"><ele>63.0</ele><time>2026-04-09T18:42:39.999Z</time></trkpt><trkpt lat="45.18623311931804" lon="9.56984749972182"><ele>63.0</ele><time>2026-04-09T18:42:40.999Z</time></trkpt><trkpt lat="45.18641852124237" lon="9.569556361859199"><ele>62.5</ele><time>2026-04-09T18:42:41.998Z</time></trkpt><trkpt lat="45.186605955005845" lon="9.569261333203974"><ele>62.0</ele><time>2026-04-09T18:42:42.998Z</time></trkpt><trkpt lat="45.18679163160447" lon="9.568966296209865"><ele>62.5</ele><time>2026-04-09T18:42:43.998Z</time></trkpt><trkpt lat="45.18697689474157" lon="9.56867479673228"><ele>63.0</ele><time>2026-04-09T18:42:45Z</time></trkpt><trkpt lat="45.18716378901669" lon="9.568381483226428"><ele>62.5</ele><time>2026-04-09T18:42:46Z</time></trkpt><trkpt lat="45.18735326730076" lon="9.568092125691285"><ele>62.0</ele><time>2026-04-09T18:42:47Z</time></trkpt><trkpt lat="45.1875433082553" lon="9.567801088756191"><ele>62.0</ele><time>2026-04-09T18:42:48Z</time></trkpt><trkpt lat="45.18773065148614" lon="9.56750496456563"><ele>62.0</ele><time>2026-04-09T18:42:49Z</time></trkpt><trkpt lat="45.18791726986077" lon="9.567206433635233"><ele>61.5</ele><time>2026-04-09T18:42:50Z</time></trkpt><trkpt lat="45.18810232927263" lon="9.566907124436057"><ele>61.0</ele><time>2026-04-09T18:42:51Z</time></trkpt><trkpt lat="45.18828927357558" lon="9.566607420423091"><ele>62.0</ele><time>2026-04-09T18:42:52Z</time></trkpt><trkpt lat="45.18847833104627" lon="9.56630771672096"><ele>63.0</ele><time>2026-04-09T18:42:53Z</time></trkpt><trkpt lat="45.18866898682508" lon="9.566009173106933"><ele>63.5</ele><time>2026-04-09T18:42:54Z</time></trkpt><trkpt lat="45.188861265798565" lon="9.565712050043068"><ele>64.0</ele><time>2026-04-09T18:42:55Z</time></trkpt><trkpt lat="45.18906211142809" lon="9.56540990557465"><ele>63.0</ele><time>2026-04-09T18:42:56Z</time></trkpt><trkpt lat="45.18924499726492" lon="9.565120391799221"><ele>62.0</ele><time>2026-04-09T18:42:57Z</time></trkpt><trkpt lat="45.189434381945645" lon="9.564824384786858"><ele>62.0</ele><time>2026-04-09T18:42:58Z</time></trkpt><trkpt lat="45.18962475068444" lon="9.56452956053377"><ele>62.0</ele><time>2026-04-09T18:42:59Z</time></trkpt><trkpt lat="45.189814796679784" lon="9.564237521397148"><ele>62.0</ele><time>2026-04-09T18:43:00Z</time></trkpt><trkpt lat="45.19000496983102" lon="9.56394411946253"><ele>62.0</ele><time>2026-04-09T18:43:01Z</time></trkpt><trkpt lat="45.19019480837577" lon="9.563652594080068"><ele>62.0</ele><time>2026-04-09T18:43:02Z</time></trkpt><trkpt lat="45.19038490493172" lon="9.563358607815731"><ele>62.0</ele><time>2026-04-09T18:43:03Z</time></trkpt><trkpt lat="45.190575879773355" lon="9.563067556177423"><ele>62.0</ele><time>2026-04-09T18:43:04Z</time></trkpt><trkpt lat="45.19076734690286" lon="9.562775266944676"><ele>62.0</ele><time>2026-04-09T18:43:05Z</time></trkpt><trkpt lat="45.19095874650696" lon="9.562485658799263"><ele>62.0</ele><time>2026-04-09T18:43:06Z</time></trkpt><trkpt lat="45.19115172288942" lon="9.56219807046406"><ele>62.0</ele><time>2026-04-09T18:43:07Z</time></trkpt><trkpt lat="45.19134505263878" lon="9.561907731182687"><ele>62.0</ele><time>2026-04-09T18:43:08Z</time></trkpt><trkpt lat="45.191538881238436" lon="9.561617100765758"><ele>62.0</ele><time>2026-04-09T18:43:09Z</time></trkpt><trkpt lat="45.191732571191764" lon="9.561328761532375"><ele>61.5</ele><time>2026-04-09T18:43:10Z</time></trkpt><trkpt lat="45.19192851001484" lon="9.561041255252722"><ele>61.0</ele><time>2026-04-09T18:43:11Z</time></trkpt><trkpt lat="45.19212279458272" lon="9.56075347862182"><ele>61.0</ele><time>2026-04-09T18:43:12Z</time></trkpt><trkpt lat="45.19232014762406" lon="9.560465983088879"><ele>61.0</ele><time>2026-04-09T18:43:13Z</time></trkpt><trkpt lat="45.192517501627385" lon="9.560179077420152"><ele>60.5</ele><time>2026-04-09T18:43:14Z</time></trkpt><trkpt lat="45.19271471396726" lon="9.559894635247577"><ele>60.0</ele><time>2026-04-09T18:43:15Z</time></trkpt><trkpt lat="45.19291536088376" lon="9.559610756866748"><ele>61.0</ele><time>2026-04-09T18:43:16Z</time></trkpt><trkpt lat="45.19311548430085" lon="9.559329787660099"><ele>62.0</ele><time>2026-04-09T18:43:17Z</time></trkpt><trkpt lat="45.19331521820054" lon="9.559053669701736"><ele>62.0</ele><time>2026-04-09T18:43:18Z</time></trkpt><trkpt lat="45.19351686626399" lon="9.558776952820049"><ele>62.0</ele><time>2026-04-09T18:43:19Z</time></trkpt><trkpt lat="45.19371827480325" lon="9.558501583298117"><ele>62.5</ele><time>2026-04-09T18:43:20Z</time></trkpt><trkpt lat="45.19391873362943" lon="9.558226544477142"><ele>63.0</ele><time>2026-04-09T18:43:21Z</time></trkpt><trkpt lat="45.19411942051142" lon="9.557945313909558"><ele>63.0</ele><time>2026-04-09T18:43:22Z</time></trkpt><trkpt lat="45.194319318757735" lon="9.557670940832178"><ele>63.0</ele><time>2026-04-09T18:43:23Z</time></trkpt><trkpt lat="45.19452030468472" lon="9.557395499715648"><ele>63.0</ele><time>2026-04-09T18:43:24Z</time></trkpt><trkpt lat="45.19472295536992" lon="9.55711991271953"><ele>63.0</ele><time>2026-04-09T18:43:25Z</time></trkpt><trkpt lat="45.19492573590569" lon="9.556848107676572"><ele>62.5</ele><time>2026-04-09T18:43:26Z</time></trkpt><trkpt lat="45.19513379436596" lon="9.556561771525333"><ele>62.0</ele><time>2026-04-09T18:43:27Z</time></trkpt><trkpt lat="45.19533857123941" lon="9.556299281074432"><ele>61.5</ele><time>2026-04-09T18:43:28Z</time></trkpt><trkpt lat="45.195545053651976" lon="9.556028747858974"><ele>61.0</ele><time>2026-04-09T18:43:29Z</time></trkpt><trkpt lat="45.195752463894415" lon="9.555762949839284"><ele>61.0</ele><time>2026-04-09T18:43:30Z</time></trkpt><trkpt lat="45.195959897963604" lon="9.555495581315563"><ele>61.0</ele><time>2026-04-09T18:43:31Z</time></trkpt><trkpt lat="45.19616583873734" lon="9.555225913546295"><ele>62.0</ele><time>2026-04-09T18:43:32Z</time></trkpt><trkpt lat="45.19637250180512" lon="9.554957601047755"><ele>63.0</ele><time>2026-04-09T18:43:33Z</time></trkpt><trkpt lat="45.19658026044274" lon="9.554688911817664"><ele>63.0</ele><time>2026-04-09T18:43:34Z</time></trkpt><trkpt lat="45.1967865393388" lon="9.554417741809536"><ele>63.0</ele><time>2026-04-09T18:43:35Z</time></trkpt><trkpt lat="45.19699197358662" lon="9.554143323717723"><ele>63.0</ele><time>2026-04-09T18:43:36Z</time></trkpt><trkpt lat="45.1971970022493" lon="9.553869521173528"><ele>63.0</ele><time>2026-04-09T18:43:36.999Z</time></trkpt><trkpt lat="45.19740111224079" lon="9.553595520065288"><ele>62.5</ele><time>2026-04-09T18:43:37.999Z</time></trkpt><trkpt lat="45.19760727191699" lon="9.553325182805372"><ele>62.0</ele><time>2026-04-09T18:43:38.999Z</time></trkpt><trkpt lat="45.197816080376064" lon="9.55305194205924"><ele>62.0</ele><time>2026-04-09T18:43:39.999Z</time></trkpt><trkpt lat="45.198022986584355" lon="9.552781056745292"><ele>62.0</ele><time>2026-04-09T18:43:40.999Z</time></trkpt><trkpt lat="45.19823102137827" lon="9.552507801818194"><ele>63.5</ele><time>2026-04-09T18:43:41.999Z</time></trkpt><trkpt lat="45.19843954638806" lon="9.552236531144523"><ele>65.0</ele><time>2026-04-09T18:43:42.999Z</time></trkpt><trkpt lat="45.19864648480008" lon="9.55196874383935"><ele>65.0</ele><time>2026-04-09T18:43:43.999Z</time></trkpt><trkpt lat="45.198854966822665" lon="9.551701701926584"><ele>65.0</ele><time>2026-04-09T18:43:44.999Z</time></trkpt><trkpt lat="45.19906500581177" lon="9.551420823224303"><ele>63.5</ele><time>2026-04-09T18:43:45.999Z</time></trkpt><trkpt lat="45.19926914028141" lon="9.551155200947372"><ele>62.0</ele><time>2026-04-09T18:43:46.999Z</time></trkpt><trkpt lat="45.19947369867514" lon="9.55087773696736"><ele>62.0</ele><time>2026-04-09T18:43:47.999Z</time></trkpt><trkpt lat="45.199676919599646" lon="9.5506102136149"><ele>62.0</ele><time>2026-04-09T18:43:48.999Z</time></trkpt><trkpt lat="45.199882446868806" lon="9.550334393535886"><ele>62.0</ele><time>2026-04-09T18:43:49.999Z</time></trkpt><trkpt lat="45.20008859201475" lon="9.550063099187145"><ele>62.0</ele><time>2026-04-09T18:43:50.999Z</time></trkpt><trkpt lat="45.20029573581567" lon="9.549792413060999"><ele>62.0</ele><time>2026-04-09T18:43:51.999Z</time></trkpt><trkpt lat="45.200502463401186" lon="9.549520639701184"><ele>62.0</ele><time>2026-04-09T18:43:52.999Z</time></trkpt><trkpt lat="45.20070927383622" lon="9.549249388476634"><ele>62.5</ele><time>2026-04-09T18:43:53.999Z</time></trkpt><trkpt lat="45.200914264348384" lon="9.548978566348099"><ele>63.0</ele><time>2026-04-09T18:43:54.999Z</time></trkpt><trkpt lat="45.201119817304324" lon="9.548711757811676"><ele>63.0</ele><time>2026-04-09T18:43:55.999Z</time></trkpt><trkpt lat="45.20132679505951" lon="9.548440424227937"><ele>63.0</ele><time>2026-04-09T18:43:56.999Z</time></trkpt><trkpt lat="45.201533769794175" lon="9.548170411603952"><ele>62.5</ele><time>2026-04-09T18:43:57.999Z</time></trkpt><trkpt lat="45.20174058942644" lon="9.547905242520326"><ele>62.0</ele><time>2026-04-09T18:43:58.999Z</time></trkpt><trkpt lat="45.20194858799083" lon="9.547630993324749"><ele>62.0</ele><time>2026-04-09T18:43:59.999Z</time></trkpt><trkpt lat="45.20215407390328" lon="9.547361313234841"><ele>62.0</ele><time>2026-04-09T18:44:00.999Z</time></trkpt><trkpt lat="45.20236045833692" lon="9.54708860682904"><ele>63.0</ele><time>2026-04-09T18:44:01.999Z</time></trkpt><trkpt lat="45.202565482840825" lon="9.546814282901785"><ele>64.0</ele><time>2026-04-09T18:44:02.999Z</time></trkpt><trkpt lat="45.20277079204049" lon="9.546542334635019"><ele>64.0</ele><time>2026-04-09T18:44:03.999Z</time></trkpt><trkpt lat="45.202974732666874" lon="9.546268129666545"><ele>64.0</ele><time>2026-04-09T18:44:04.999Z</time></trkpt><trkpt lat="45.20318012534141" lon="9.545996306516647"><ele>64.0</ele><time>2026-04-09T18:44:05.999Z</time></trkpt><trkpt lat="45.20338644538285" lon="9.545724328403669"><ele>64.0</ele><time>2026-04-09T18:44:06.999Z</time></trkpt><trkpt lat="45.20359380677566" lon="9.54545730322707"><ele>63.5</ele><time>2026-04-09T18:44:07.999Z</time></trkpt><trkpt lat="45.20380390045049" lon="9.545185373448435"><ele>63.0</ele><time>2026-04-09T18:44:08.999Z</time></trkpt><trkpt lat="45.20401145017191" lon="9.544917046885084"><ele>62.5</ele><time>2026-04-09T18:44:09.999Z</time></trkpt><trkpt lat="45.20422063424759" lon="9.544646486245645"><ele>62.0</ele><time>2026-04-09T18:44:10.999Z</time></trkpt><trkpt lat="45.20442942649399" lon="9.54437616698653"><ele>62.0</ele><time>2026-04-09T18:44:11.999Z</time></trkpt><trkpt lat="45.20463491348409" lon="9.544104640004566"><ele>62.0</ele><time>2026-04-09T18:44:12.999Z</time></trkpt><trkpt lat="45.20483883613169" lon="9.543833440890786"><ele>62.5</ele><time>2026-04-09T18:44:13.999Z</time></trkpt><trkpt lat="45.20504230482501" lon="9.543562151363501"><ele>63.0</ele><time>2026-04-09T18:44:14.999Z</time></trkpt><trkpt lat="45.20524792996277" lon="9.543288171634792"><ele>63.0</ele><time>2026-04-09T18:44:15.999Z</time></trkpt><trkpt lat="45.20545393525219" lon="9.543015944225957"><ele>63.0</ele><time>2026-04-09T18:44:16.999Z</time></trkpt><trkpt lat="45.20565986207239" lon="9.542740700621376"><ele>64.0</ele><time>2026-04-09T18:44:17.999Z</time></trkpt><trkpt lat="45.20586499642124" lon="9.542467603020327"><ele>65.0</ele><time>2026-04-09T18:44:18.999Z</time></trkpt><trkpt lat="45.20606875581224" lon="9.542204191748146"><ele>65.0</ele><time>2026-04-09T18:44:19.999Z</time></trkpt><trkpt lat="45.206274714604966" lon="9.541914698970439"><ele>65.0</ele><time>2026-04-09T18:44:20.999Z</time></trkpt><trkpt lat="45.20648520496504" lon="9.541658588021344"><ele>64.0</ele><time>2026-04-09T18:44:21.999Z</time></trkpt><trkpt lat="45.2066926725296" lon="9.54138873532217"><ele>63.0</ele><time>2026-04-09T18:44:22.999Z</time></trkpt><trkpt lat="45.20689864992876" lon="9.541115493593358"><ele>63.0</ele><time>2026-04-09T18:44:23.999Z</time></trkpt><trkpt lat="45.20710435120616" lon="9.540843599578361"><ele>63.0</ele><time>2026-04-09T18:44:24.999Z</time></trkpt><trkpt lat="45.20731023904452" lon="9.540566877175129"><ele>64.0</ele><time>2026-04-09T18:44:25.999Z</time></trkpt><trkpt lat="45.20751346925265" lon="9.540296291786095"><ele>65.0</ele><time>2026-04-09T18:44:26.999Z</time></trkpt><trkpt lat="45.207719953466444" lon="9.540025237824953"><ele>65.0</ele><time>2026-04-09T18:44:27.999Z</time></trkpt><trkpt lat="45.20792760403571" lon="9.539756046448517"><ele>65.0</ele><time>2026-04-09T18:44:28.999Z</time></trkpt><trkpt lat="45.20813558123313" lon="9.539486700611004"><ele>64.5</ele><time>2026-04-09T18:44:29.999Z</time></trkpt><trkpt lat="45.20834393211665" lon="9.539219380660642"><ele>64.0</ele><time>2026-04-09T18:44:30.999Z</time></trkpt><trkpt lat="45.20855080342694" lon="9.538950873993604"><ele>64.0</ele><time>2026-04-09T18:44:31.999Z</time></trkpt><trkpt lat="45.2087585759376" lon="9.538679719377987"><ele>64.0</ele><time>2026-04-09T18:44:32.999Z</time></trkpt><trkpt lat="45.208965069364666" lon="9.538411039858834"><ele>64.5</ele><time>2026-04-09T18:44:33.999Z</time></trkpt><trkpt lat="45.209169979469785" lon="9.538143758048085"><ele>65.0</ele><time>2026-04-09T18:44:34.999Z</time></trkpt><trkpt lat="45.20937506567362" lon="9.53787346519218"><ele>65.0</ele><time>2026-04-09T18:44:35.999Z</time></trkpt><trkpt lat="45.209581292443396" lon="9.537601172384838"><ele>65.0</ele><time>2026-04-09T18:44:36.999Z</time></trkpt><trkpt lat="45.209786219744956" lon="9.537327700219064"><ele>65.0</ele><time>2026-04-09T18:44:37.999Z</time></trkpt><trkpt lat="45.20999078690362" lon="9.537057081524837"><ele>65.0</ele><time>2026-04-09T18:44:38.999Z</time></trkpt><trkpt lat="45.21019667486383" lon="9.536785710259398"><ele>64.5</ele><time>2026-04-09T18:44:39.999Z</time></trkpt><trkpt lat="45.21040434245268" lon="9.536513149089531"><ele>64.0</ele><time>2026-04-09T18:44:40.999Z</time></trkpt><trkpt lat="45.21061312334903" lon="9.536245495414898"><ele>64.0</ele><time>2026-04-09T18:44:41.999Z</time></trkpt><trkpt lat="45.21081946861777" lon="9.53597776436867"><ele>64.0</ele><time>2026-04-09T18:44:42.999Z</time></trkpt><trkpt lat="45.21102956919746" lon="9.535705539945171"><ele>64.0</ele><time>2026-04-09T18:44:43.999Z</time></trkpt><trkpt lat="45.21123704285798" lon="9.53543636830119"><ele>64.0</ele><time>2026-04-09T18:44:44.999Z</time></trkpt><trkpt lat="45.21144282309089" lon="9.535165030517781"><ele>64.5</ele><time>2026-04-09T18:44:45.999Z</time></trkpt><trkpt lat="45.21164694727126" lon="9.534891550743492"><ele>65.0</ele><time>2026-04-09T18:44:46.999Z</time></trkpt><trkpt lat="45.21185052208883" lon="9.534619746394434"><ele>65.0</ele><time>2026-04-09T18:44:47.999Z</time></trkpt><trkpt lat="45.21205504187866" lon="9.534346346086537"><ele>65.0</ele><time>2026-04-09T18:44:48.998Z</time></trkpt><trkpt lat="45.21225810538022" lon="9.534071159323101"><ele>65.0</ele><time>2026-04-09T18:44:49.998Z</time></trkpt><trkpt lat="45.21246355441121" lon="9.533795822263617"><ele>65.0</ele><time>2026-04-09T18:44:51Z</time></trkpt><trkpt lat="45.21267022581142" lon="9.533524435429841"><ele>65.0</ele><time>2026-04-09T18:44:52Z</time></trkpt><trkpt lat="45.212876126211306" lon="9.533254741519134"><ele>65.0</ele><time>2026-04-09T18:44:53Z</time></trkpt><trkpt lat="45.21308478088766" lon="9.532982328957948"><ele>64.5</ele><time>2026-04-09T18:44:54Z</time></trkpt><trkpt lat="45.21329141926467" lon="9.532712364110017"><ele>64.0</ele><time>2026-04-09T18:44:55Z</time></trkpt><trkpt lat="45.21349896949695" lon="9.532438979190495"><ele>64.0</ele><time>2026-04-09T18:44:56Z</time></trkpt><trkpt lat="45.21370493318839" lon="9.532165878694403"><ele>64.0</ele><time>2026-04-09T18:44:57Z</time></trkpt><trkpt lat="45.21391104129284" lon="9.531892493079468"><ele>63.5</ele><time>2026-04-09T18:44:58Z</time></trkpt><trkpt lat="45.214118863434614" lon="9.531622006092874"><ele>63.0</ele><time>2026-04-09T18:44:59Z</time></trkpt><trkpt lat="45.21432638210619" lon="9.531352605730945"><ele>64.0</ele><time>2026-04-09T18:45:00Z</time></trkpt><trkpt lat="45.21453286001099" lon="9.531079689121489"><ele>65.0</ele><time>2026-04-09T18:45:01Z</time></trkpt><trkpt lat="45.214741367578135" lon="9.53080631329689"><ele>64.5</ele><time>2026-04-09T18:45:02Z</time></trkpt><trkpt lat="45.21494822258339" lon="9.530538430634664"><ele>64.0</ele><time>2026-04-09T18:45:03Z</time></trkpt><trkpt lat="45.21515402896139" lon="9.530271429306657"><ele>64.0</ele><time>2026-04-09T18:45:04Z</time></trkpt><trkpt lat="45.21536295480428" lon="9.530002865779972"><ele>64.0</ele><time>2026-04-09T18:45:05Z</time></trkpt><trkpt lat="45.215569745675644" lon="9.529733230158214"><ele>66.0</ele><time>2026-04-09T18:45:06Z</time></trkpt><trkpt lat="45.21577445815219" lon="9.529463804263942"><ele>68.0</ele><time>2026-04-09T18:45:07Z</time></trkpt><trkpt lat="45.215979528160474" lon="9.529192031648105"><ele>68.0</ele><time>2026-04-09T18:45:08Z</time></trkpt><trkpt lat="45.21618551191051" lon="9.528919511002863"><ele>68.0</ele><time>2026-04-09T18:45:09Z</time></trkpt><trkpt lat="45.21639057042242" lon="9.52864773261194"><ele>66.5</ele><time>2026-04-09T18:45:10Z</time></trkpt><trkpt lat="45.216602154696055" lon="9.5283822024135"><ele>65.0</ele><time>2026-04-09T18:45:11Z</time></trkpt><trkpt lat="45.216803691585085" lon="9.528104743973891"><ele>65.0</ele><time>2026-04-09T18:45:12Z</time></trkpt><trkpt lat="45.21701047775185" lon="9.527834740775404"><ele>65.0</ele><time>2026-04-09T18:45:13Z</time></trkpt><trkpt lat="45.217217191617294" lon="9.527566473492945"><ele>65.0</ele><time>2026-04-09T18:45:14Z</time></trkpt><trkpt lat="45.21742529503646" lon="9.527296832230302"><ele>65.0</ele><time>2026-04-09T18:45:15Z</time></trkpt><trkpt lat="45.217631152695425" lon="9.527029002910583"><ele>65.0</ele><time>2026-04-09T18:45:16Z</time></trkpt><trkpt lat="45.217836927327404" lon="9.526759930649147"><ele>65.0</ele><time>2026-04-09T18:45:17Z</time></trkpt><trkpt lat="45.21804438273204" lon="9.52648913642567"><ele>65.5</ele><time>2026-04-09T18:45:18Z</time></trkpt><trkpt lat="45.21825085022652" lon="9.526218212258046"><ele>66.0</ele><time>2026-04-09T18:45:19Z</time></trkpt><trkpt lat="45.218455292119565" lon="9.525946671617454"><ele>66.0</ele><time>2026-04-09T18:45:20Z</time></trkpt><trkpt lat="45.2186597153913" lon="9.525673154645283"><ele>66.0</ele><time>2026-04-09T18:45:21Z</time></trkpt><trkpt lat="45.21886403639747" lon="9.525401960368747"><ele>65.5</ele><time>2026-04-09T18:45:22Z</time></trkpt><trkpt lat="45.21907251222961" lon="9.525129694640711"><ele>65.0</ele><time>2026-04-09T18:45:23Z</time></trkpt><trkpt lat="45.21927887402174" lon="9.524859164150493"><ele>65.0</ele><time>2026-04-09T18:45:24Z</time></trkpt><trkpt lat="45.21948445783627" lon="9.524586220340383"><ele>65.0</ele><time>2026-04-09T18:45:25Z</time></trkpt><trkpt lat="45.21969000700187" lon="9.524312501643617"><ele>65.0</ele><time>2026-04-09T18:45:26Z</time></trkpt><trkpt lat="45.21989462299595" lon="9.524039919324542"><ele>65.0</ele><time>2026-04-09T18:45:27Z</time></trkpt><trkpt lat="45.22009894541086" lon="9.523768187344938"><ele>65.5</ele><time>2026-04-09T18:45:28Z</time></trkpt><trkpt lat="45.22030522102061" lon="9.523493412227095"><ele>66.0</ele><time>2026-04-09T18:45:29Z</time></trkpt><trkpt lat="45.22051118100271" lon="9.523224001763804"><ele>66.0</ele><time>2026-04-09T18:45:30Z</time></trkpt><trkpt lat="45.22071734369662" lon="9.522953195528764"><ele>66.0</ele><time>2026-04-09T18:45:31Z</time></trkpt><trkpt lat="45.22092234646505" lon="9.522687176600243"><ele>66.0</ele><time>2026-04-09T18:45:32Z</time></trkpt><trkpt lat="45.221132156070226" lon="9.522415160655697"><ele>66.0</ele><time>2026-04-09T18:45:33Z</time></trkpt><trkpt lat="45.2213415958703" lon="9.522145135145562"><ele>66.5</ele><time>2026-04-09T18:45:34Z</time></trkpt><trkpt lat="45.22154942095025" lon="9.52187586497389"><ele>67.0</ele><time>2026-04-09T18:45:35Z</time></trkpt><trkpt lat="45.221757397425804" lon="9.52160738235055"><ele>67.0</ele><time>2026-04-09T18:45:36Z</time></trkpt><trkpt lat="45.22196281710805" lon="9.521337903593636"><ele>67.0</ele><time>2026-04-09T18:45:37Z</time></trkpt><trkpt lat="45.2221695554668" lon="9.521063333419027"><ele>66.5</ele><time>2026-04-09T18:45:38Z</time></trkpt><trkpt lat="45.222376767450676" lon="9.520788459104885"><ele>66.0</ele><time>2026-04-09T18:45:39Z</time></trkpt><trkpt lat="45.22257960377781" lon="9.520517767102556"><ele>65.5</ele><time>2026-04-09T18:45:40Z</time></trkpt><trkpt lat="45.222788074957464" lon="9.520245540394374"><ele>65.0</ele><time>2026-04-09T18:45:41Z</time></trkpt><trkpt lat="45.22299238912057" lon="9.519977358475801"><ele>65.0</ele><time>2026-04-09T18:45:41.999Z</time></trkpt><trkpt lat="45.22320035382409" lon="9.519705930974286"><ele>65.0</ele><time>2026-04-09T18:45:42.999Z</time></trkpt><trkpt lat="45.22340791284771" lon="9.519435308966079"><ele>66.0</ele><time>2026-04-09T18:45:43.999Z</time></trkpt><trkpt lat="45.2236143609025" lon="9.519166872400463"><ele>67.0</ele><time>2026-04-09T18:45:44.999Z</time></trkpt><trkpt lat="45.22381998450461" lon="9.518893920263517"><ele>67.5</ele><time>2026-04-09T18:45:45.999Z</time></trkpt><trkpt lat="45.224025476828494" lon="9.518620447684524"><ele>68.0</ele><time>2026-04-09T18:45:46.999Z</time></trkpt><trkpt lat="45.22422854012009" lon="9.51834547642514"><ele>68.0</ele><time>2026-04-09T18:45:47.999Z</time></trkpt><trkpt lat="45.22443533758371" lon="9.518079939977115"><ele>68.0</ele><time>2026-04-09T18:45:48.999Z</time></trkpt><trkpt lat="45.22464373534547" lon="9.517808628294526"><ele>66.5</ele><time>2026-04-09T18:45:49.999Z</time></trkpt><trkpt lat="45.22484956370559" lon="9.51754002691026"><ele>65.0</ele><time>2026-04-09T18:45:50.999Z</time></trkpt><trkpt lat="45.22505424902672" lon="9.51726972132327"><ele>65.5</ele><time>2026-04-09T18:45:51.999Z</time></trkpt><trkpt lat="45.22525963990237" lon="9.516995622231407"><ele>66.0</ele><time>2026-04-09T18:45:52.999Z</time></trkpt><trkpt lat="45.2254650851221" lon="9.516725133128485"><ele>65.5</ele><time>2026-04-09T18:45:53.999Z</time></trkpt><trkpt lat="45.225669781923905" lon="9.516454773883687"><ele>65.0</ele><time>2026-04-09T18:45:54.999Z</time></trkpt><trkpt lat="45.22587514207754" lon="9.516184938148452"><ele>66.0</ele><time>2026-04-09T18:45:55.999Z</time></trkpt><trkpt lat="45.22608173728152" lon="9.515915287418593"><ele>67.0</ele><time>2026-04-09T18:45:56.999Z</time></trkpt><trkpt lat="45.22628617999739" lon="9.515645441931168"><ele>66.5</ele><time>2026-04-09T18:45:57.999Z</time></trkpt><trkpt lat="45.22649361893491" lon="9.515372435316966"><ele>66.0</ele><time>2026-04-09T18:45:58.999Z</time></trkpt><trkpt lat="45.22669980407832" lon="9.515102543606847"><ele>66.0</ele><time>2026-04-09T18:45:59.999Z</time></trkpt><trkpt lat="45.22690596958573" lon="9.514831735919179"><ele>66.0</ele><time>2026-04-09T18:46:00.999Z</time></trkpt><trkpt lat="45.22711316994199" lon="9.5145632202526"><ele>66.0</ele><time>2026-04-09T18:46:01.999Z</time></trkpt><trkpt lat="45.22731819289423" lon="9.514295735188304"><ele>66.0</ele><time>2026-04-09T18:46:02.999Z</time></trkpt><trkpt lat="45.22751744253346" lon="9.514023706887127"><ele>66.0</ele><time>2026-04-09T18:46:03.999Z</time></trkpt><trkpt lat="45.227725971244794" lon="9.513747566490625"><ele>66.0</ele><time>2026-04-09T18:46:04.999Z</time></trkpt><trkpt lat="45.227933245677576" lon="9.51347319290777"><ele>66.0</ele><time>2026-04-09T18:46:05.999Z</time></trkpt><trkpt lat="45.22813786250913" lon="9.51319946410854"><ele>66.0</ele><time>2026-04-09T18:46:06.999Z</time></trkpt><trkpt lat="45.22834389911456" lon="9.512924683017113"><ele>67.5</ele><time>2026-04-09T18:46:07.999Z</time></trkpt><trkpt lat="45.22855098204697" lon="9.512652627584757"><ele>69.0</ele><time>2026-04-09T18:46:08.999Z</time></trkpt><trkpt lat="45.22875929802378" lon="9.512383695291136"><ele>69.0</ele><time>2026-04-09T18:46:09.999Z</time></trkpt><trkpt lat="45.22896762892206" lon="9.512115823848083"><ele>69.0</ele><time>2026-04-09T18:46:10.999Z</time></trkpt><trkpt lat="45.229185100125335" lon="9.511840793362937"><ele>68.5</ele><time>2026-04-09T18:46:11.999Z</time></trkpt><trkpt lat="45.22938883457888" lon="9.511575569281389"><ele>68.0</ele><time>2026-04-09T18:46:12.999Z</time></trkpt><trkpt lat="45.22959337323791" lon="9.511305012160191"><ele>68.0</ele><time>2026-04-09T18:46:13.999Z</time></trkpt><trkpt lat="45.229799444042065" lon="9.511031945748721"><ele>68.0</ele><time>2026-04-09T18:46:14.999Z</time></trkpt><trkpt lat="45.230004800025306" lon="9.510761077282238"><ele>68.0</ele><time>2026-04-09T18:46:15.999Z</time></trkpt><trkpt lat="45.230210105762545" lon="9.510489360893223"><ele>68.0</ele><time>2026-04-09T18:46:16.999Z</time></trkpt><trkpt lat="45.230415858719525" lon="9.510218985714738"><ele>68.0</ele><time>2026-04-09T18:46:17.999Z</time></trkpt><trkpt lat="45.23062230234727" lon="9.509947321968944"><ele>68.0</ele><time>2026-04-09T18:46:18.999Z</time></trkpt><trkpt lat="45.23082862710087" lon="9.509678947437852"><ele>67.5</ele><time>2026-04-09T18:46:19.999Z</time></trkpt><trkpt lat="45.23103272729367" lon="9.509409117661537"><ele>67.0</ele><time>2026-04-09T18:46:20.999Z</time></trkpt><trkpt lat="45.23123657231785" lon="9.509133938991647"><ele>67.0</ele><time>2026-04-09T18:46:21.999Z</time></trkpt><trkpt lat="45.23144124959792" lon="9.508860891028078"><ele>67.0</ele><time>2026-04-09T18:46:22.999Z</time></trkpt><trkpt lat="45.23165002815839" lon="9.508587730140773"><ele>67.0</ele><time>2026-04-09T18:46:23.999Z</time></trkpt><trkpt lat="45.23185575721295" lon="9.508321781100605"><ele>67.0</ele><time>2026-04-09T18:46:24.999Z</time></trkpt><trkpt lat="45.23206391919805" lon="9.508050937393248"><ele>67.5</ele><time>2026-04-09T18:46:25.999Z</time></trkpt><trkpt lat="45.23227171014873" lon="9.507783109574062"><ele>68.0</ele><time>2026-04-09T18:46:26.999Z</time></trkpt><trkpt lat="45.2324776227615" lon="9.507513555247012"><ele>68.0</ele><time>2026-04-09T18:46:27.999Z</time></trkpt><trkpt lat="45.23267710685709" lon="9.507247215738017"><ele>68.0</ele><time>2026-04-09T18:46:28.999Z</time></trkpt><trkpt lat="45.23289462085615" lon="9.506969517897499"><ele>68.0</ele><time>2026-04-09T18:46:29.999Z</time></trkpt><trkpt lat="45.23309812001905" lon="9.506702135140529"><ele>68.0</ele><time>2026-04-09T18:46:30.999Z</time></trkpt><trkpt lat="45.233303522134776" lon="9.506428967523057"><ele>68.0</ele><time>2026-04-09T18:46:31.999Z</time></trkpt><trkpt lat="45.23350900517147" lon="9.506163036378092"><ele>68.0</ele><time>2026-04-09T18:46:32.999Z</time></trkpt><trkpt lat="45.23371582525067" lon="9.505891833593255"><ele>68.0</ele><time>2026-04-09T18:46:33.999Z</time></trkpt><trkpt lat="45.233922691665654" lon="9.505624792243067"><ele>68.0</ele><time>2026-04-09T18:46:34.999Z</time></trkpt><trkpt lat="45.23412834071654" lon="9.50535112568165"><ele>68.0</ele><time>2026-04-09T18:46:35.999Z</time></trkpt><trkpt lat="45.23433526134988" lon="9.505080403338901"><ele>68.0</ele><time>2026-04-09T18:46:36.999Z</time></trkpt><trkpt lat="45.23454008804801" lon="9.504810593530234"><ele>68.0</ele><time>2026-04-09T18:46:37.999Z</time></trkpt><trkpt lat="45.234745971691595" lon="9.504538499552165"><ele>68.0</ele><time>2026-04-09T18:46:38.999Z</time></trkpt><trkpt lat="45.234952116335926" lon="9.504268930903546"><ele>68.0</ele><time>2026-04-09T18:46:39.999Z</time></trkpt><trkpt lat="45.235158489333486" lon="9.504004220246115"><ele>68.0</ele><time>2026-04-09T18:46:40.999Z</time></trkpt><trkpt lat="45.235364985579096" lon="9.50373124477447"><ele>68.5</ele><time>2026-04-09T18:46:41.999Z</time></trkpt><trkpt lat="45.2355695314103" lon="9.503460838078057"><ele>69.0</ele><time>2026-04-09T18:46:42.999Z</time></trkpt><trkpt lat="45.235775578834875" lon="9.503196401395227"><ele>70.0</ele><time>2026-04-09T18:46:43.999Z</time></trkpt><trkpt lat="45.23598080134788" lon="9.502927486393233"><ele>71.0</ele><time>2026-04-09T18:46:44.999Z</time></trkpt><trkpt lat="45.236185067964" lon="9.502659089712239"><ele>71.0</ele><time>2026-04-09T18:46:45.999Z</time></trkpt><trkpt lat="45.236391158730065" lon="9.502386764595304"><ele>71.0</ele><time>2026-04-09T18:46:46.999Z</time></trkpt><trkpt lat="45.236597106703165" lon="9.502114886882799"><ele>71.0</ele><time>2026-04-09T18:46:47.999Z</time></trkpt><trkpt lat="45.23680392248796" lon="9.501840901044341"><ele>71.0</ele><time>2026-04-09T18:46:48.999Z</time></trkpt><trkpt lat="45.23701024916464" lon="9.501566504813505"><ele>71.0</ele><time>2026-04-09T18:46:49.999Z</time></trkpt><trkpt lat="45.23721702223645" lon="9.501294662282335"><ele>71.0</ele><time>2026-04-09T18:46:50.999Z</time></trkpt><trkpt lat="45.23742275794969" lon="9.501020379577088"><ele>70.5</ele><time>2026-04-09T18:46:51.999Z</time></trkpt><trkpt lat="45.23762955982032" lon="9.500744214869416"><ele>70.0</ele><time>2026-04-09T18:46:52.999Z</time></trkpt><trkpt lat="45.2378369975452" lon="9.500472017728162"><ele>69.5</ele><time>2026-04-09T18:46:53.998Z</time></trkpt><trkpt lat="45.23804417947069" lon="9.500197364465249"><ele>69.0</ele><time>2026-04-09T18:46:54.998Z</time></trkpt><trkpt lat="45.23825208124508" lon="9.499924884456608"><ele>69.5</ele><time>2026-04-09T18:46:55.998Z</time></trkpt><trkpt lat="45.238461645856376" lon="9.499647976837123"><ele>70.0</ele><time>2026-04-09T18:46:57Z</time></trkpt><trkpt lat="45.238670493865456" lon="9.499374043421154"><ele>70.0</ele><time>2026-04-09T18:46:58Z</time></trkpt><trkpt lat="45.238879638304034" lon="9.499102302896612"><ele>70.0</ele><time>2026-04-09T18:46:59Z</time></trkpt><trkpt lat="45.23908866358726" lon="9.498831090178491"><ele>70.0</ele><time>2026-04-09T18:47:00Z</time></trkpt><trkpt lat="45.23929950112215" lon="9.49855969987884"><ele>70.0</ele><time>2026-04-09T18:47:01Z</time></trkpt><trkpt lat="45.2395091765867" lon="9.498288668874805"><ele>70.0</ele><time>2026-04-09T18:47:02Z</time></trkpt><trkpt lat="45.23971831316023" lon="9.498015059387463"><ele>70.0</ele><time>2026-04-09T18:47:03Z</time></trkpt><trkpt lat="45.23992481741305" lon="9.497741238954433"><ele>70.0</ele><time>2026-04-09T18:47:04Z</time></trkpt><trkpt lat="45.24013056790161" lon="9.497464139816696"><ele>70.0</ele><time>2026-04-09T18:47:05Z</time></trkpt><trkpt lat="45.24033595588114" lon="9.497188911255689"><ele>69.5</ele><time>2026-04-09T18:47:06Z</time></trkpt><trkpt lat="45.24053976077472" lon="9.49691701531022"><ele>69.0</ele><time>2026-04-09T18:47:07Z</time></trkpt><trkpt lat="45.240743464649256" lon="9.496644948261789"><ele>69.0</ele><time>2026-04-09T18:47:08Z</time></trkpt><trkpt lat="45.24094853081484" lon="9.496376636721806"><ele>69.0</ele><time>2026-04-09T18:47:09Z</time></trkpt><trkpt lat="45.24115260707056" lon="9.49610517377869"><ele>69.0</ele><time>2026-04-09T18:47:10Z</time></trkpt><trkpt lat="45.241356608939206" lon="9.495833213758788"><ele>69.0</ele><time>2026-04-09T18:47:11Z</time></trkpt><trkpt lat="45.2415600182" lon="9.495565081796386"><ele>69.0</ele><time>2026-04-09T18:47:12Z</time></trkpt><trkpt lat="45.24176382042912" lon="9.495298514310052"><ele>69.0</ele><time>2026-04-09T18:47:13Z</time></trkpt><trkpt lat="45.24196794730398" lon="9.495032158538523"><ele>69.0</ele><time>2026-04-09T18:47:14Z</time></trkpt><trkpt lat="45.24217461176045" lon="9.494766839848046"><ele>69.0</ele><time>2026-04-09T18:47:15Z</time></trkpt><trkpt lat="45.24238294535977" lon="9.494495366658983"><ele>69.0</ele><time>2026-04-09T18:47:16Z</time></trkpt><trkpt lat="45.242590867338215" lon="9.494229533307273"><ele>69.0</ele><time>2026-04-09T18:47:17Z</time></trkpt><trkpt lat="45.242797632539826" lon="9.49396147649428"><ele>69.5</ele><time>2026-04-09T18:47:18Z</time></trkpt><trkpt lat="45.24300437487105" lon="9.49369272482365"><ele>70.0</ele><time>2026-04-09T18:47:19Z</time></trkpt><trkpt lat="45.24321038997863" lon="9.493422302192338"><ele>70.0</ele><time>2026-04-09T18:47:20Z</time></trkpt><trkpt lat="45.24341582140041" lon="9.49314913013624"><ele>70.0</ele><time>2026-04-09T18:47:21Z</time></trkpt><trkpt lat="45.24362126957401" lon="9.492876549342327"><ele>70.5</ele><time>2026-04-09T18:47:22Z</time></trkpt><trkpt lat="45.24382916595488" lon="9.492601148185656"><ele>71.0</ele><time>2026-04-09T18:47:23Z</time></trkpt><trkpt lat="45.2440452870927" lon="9.492324779190383"><ele>70.5</ele><time>2026-04-09T18:47:24Z</time></trkpt><trkpt lat="45.24426421742926" lon="9.492047862029471"><ele>70.0</ele><time>2026-04-09T18:47:25Z</time></trkpt><trkpt lat="45.24448279111904" lon="9.491773793310184"><ele>70.0</ele><time>2026-04-09T18:47:26Z</time></trkpt><trkpt lat="45.24469638304334" lon="9.491499203272436"><ele>70.0</ele><time>2026-04-09T18:47:27Z</time></trkpt><trkpt lat="45.244906415625" lon="9.491224845870015"><ele>69.5</ele><time>2026-04-09T18:47:28Z</time></trkpt><trkpt lat="45.24511441501936" lon="9.490952817104528"><ele>69.0</ele><time>2026-04-09T18:47:29Z</time></trkpt><trkpt lat="45.24532023293374" lon="9.49068517040336"><ele>69.5</ele><time>2026-04-09T18:47:30Z</time></trkpt><trkpt lat="45.24552724280845" lon="9.490424059095108"><ele>70.0</ele><time>2026-04-09T18:47:31Z</time></trkpt><trkpt lat="45.24573231452101" lon="9.490167426171547"><ele>70.0</ele><time>2026-04-09T18:47:32Z</time></trkpt><trkpt lat="45.245939358359536" lon="9.489901627009711"><ele>70.0</ele><time>2026-04-09T18:47:33Z</time></trkpt><trkpt lat="45.24614724319044" lon="9.489635256291068"><ele>70.5</ele><time>2026-04-09T18:47:34Z</time></trkpt><trkpt lat="45.24635503111055" lon="9.489359484339753"><ele>71.0</ele><time>2026-04-09T18:47:35Z</time></trkpt><trkpt lat="45.24656548895132" lon="9.489073979121954"><ele>71.5</ele><time>2026-04-09T18:47:36Z</time></trkpt><trkpt lat="45.24677359092256" lon="9.488796312140868"><ele>72.0</ele><time>2026-04-09T18:47:37Z</time></trkpt><trkpt lat="45.246975785100204" lon="9.48850821717812"><ele>72.0</ele><time>2026-04-09T18:47:38Z</time></trkpt><trkpt lat="45.247193509471714" lon="9.488232686330567"><ele>72.0</ele><time>2026-04-09T18:47:39Z</time></trkpt><trkpt lat="45.24740640581876" lon="9.487952088710859"><ele>71.0</ele><time>2026-04-09T18:47:40Z</time></trkpt><trkpt lat="45.24761916331798" lon="9.487672130120504"><ele>70.0</ele><time>2026-04-09T18:47:41Z</time></trkpt><trkpt lat="45.24783305857261" lon="9.48739410195117"><ele>70.0</ele><time>2026-04-09T18:47:42Z</time></trkpt><trkpt lat="45.248045033600256" lon="9.487116678317886"><ele>70.0</ele><time>2026-04-09T18:47:43Z</time></trkpt><trkpt lat="45.24825420606048" lon="9.486840045924783"><ele>69.5</ele><time>2026-04-09T18:47:44Z</time></trkpt><trkpt lat="45.24846407543174" lon="9.486563494509552"><ele>69.0</ele><time>2026-04-09T18:47:45Z</time></trkpt><trkpt lat="45.24867438513429" lon="9.486289321371817"><ele>69.0</ele><time>2026-04-09T18:47:46Z</time></trkpt><trkpt lat="45.248882703224005" lon="9.486015871278816"><ele>69.0</ele><time>2026-04-09T18:47:46.999Z</time></trkpt><trkpt lat="45.24909231454305" lon="9.485737427070573"><ele>69.0</ele><time>2026-04-09T18:47:47.999Z</time></trkpt><trkpt lat="45.24930047727399" lon="9.48546144733157"><ele>69.0</ele><time>2026-04-09T18:47:48.999Z</time></trkpt><trkpt lat="45.24950792369928" lon="9.485183935534359"><ele>69.0</ele><time>2026-04-09T18:47:49.999Z</time></trkpt><trkpt lat="45.24971568965784" lon="9.484905340610993"><ele>69.0</ele><time>2026-04-09T18:47:50.999Z</time></trkpt><trkpt lat="45.249924775836625" lon="9.484629233283211"><ele>69.5</ele><time>2026-04-09T18:47:51.999Z</time></trkpt><trkpt lat="45.25013691796199" lon="9.484358704459586"><ele>70.0</ele><time>2026-04-09T18:47:52.999Z</time></trkpt><trkpt lat="45.25035033661629" lon="9.484089540940108"><ele>70.0</ele><time>2026-04-09T18:47:53.999Z</time></trkpt><trkpt lat="45.25056261369671" lon="9.483817125412926"><ele>70.0</ele><time>2026-04-09T18:47:54.999Z</time></trkpt><trkpt lat="45.250770493601514" lon="9.483542196346132"><ele>70.5</ele><time>2026-04-09T18:47:55.999Z</time></trkpt><trkpt lat="45.25098088807595" lon="9.48326495147874"><ele>71.0</ele><time>2026-04-09T18:47:56.999Z</time></trkpt><trkpt lat="45.25119293434622" lon="9.482986861207195"><ele>70.5</ele><time>2026-04-09T18:47:57.999Z</time></trkpt><trkpt lat="45.25140032513769" lon="9.482708697588741"><ele>70.0</ele><time>2026-04-09T18:47:58.999Z</time></trkpt><trkpt lat="45.25160593238399" lon="9.482433484926837"><ele>70.0</ele><time>2026-04-09T18:47:59.999Z</time></trkpt><trkpt lat="45.25181553546558" lon="9.482157268399504"><ele>70.0</ele><time>2026-04-09T18:48:00.999Z</time></trkpt><trkpt lat="45.25202541850945" lon="9.4818808050364"><ele>70.0</ele><time>2026-04-09T18:48:01.999Z</time></trkpt><trkpt lat="45.25223566950508" lon="9.481603545194428"><ele>70.0</ele><time>2026-04-09T18:48:02.999Z</time></trkpt><trkpt lat="45.25244444935458" lon="9.48133027456685"><ele>70.5</ele><time>2026-04-09T18:48:03.999Z</time></trkpt><trkpt lat="45.252657790115144" lon="9.481053068394253"><ele>71.0</ele><time>2026-04-09T18:48:04.999Z</time></trkpt><trkpt lat="45.25286694074691" lon="9.480780411311201"><ele>71.0</ele><time>2026-04-09T18:48:05.999Z</time></trkpt><trkpt lat="45.25307567601166" lon="9.480503677384512"><ele>71.0</ele><time>2026-04-09T18:48:06.999Z</time></trkpt><trkpt lat="45.253284191738736" lon="9.480225064258057"><ele>71.0</ele><time>2026-04-09T18:48:07.999Z</time></trkpt><trkpt lat="45.2534919741447" lon="9.479948854594547"><ele>71.0</ele><time>2026-04-09T18:48:08.999Z</time></trkpt><trkpt lat="45.25369898442486" lon="9.47967133292532"><ele>71.0</ele><time>2026-04-09T18:48:09.999Z</time></trkpt><trkpt lat="45.253908629804684" lon="9.47939114621387"><ele>71.0</ele><time>2026-04-09T18:48:10.999Z</time></trkpt><trkpt lat="45.25412084731216" lon="9.479114735219142"><ele>71.5</ele><time>2026-04-09T18:48:11.999Z</time></trkpt><trkpt lat="45.254332261680084" lon="9.478845398923195"><ele>72.0</ele><time>2026-04-09T18:48:12.999Z</time></trkpt><trkpt lat="45.254544389762465" lon="9.47856948980768"><ele>72.0</ele><time>2026-04-09T18:48:13.999Z</time></trkpt><trkpt lat="45.25475686757548" lon="9.47829468852681"><ele>72.0</ele><time>2026-04-09T18:48:14.999Z</time></trkpt><trkpt lat="45.25496604005517" lon="9.478018414890938"><ele>72.0</ele><time>2026-04-09T18:48:15.999Z</time></trkpt><trkpt lat="45.2551749577448" lon="9.477741360112699"><ele>72.0</ele><time>2026-04-09T18:48:16.999Z</time></trkpt><trkpt lat="45.25538283604144" lon="9.47745410225327"><ele>72.0</ele><time>2026-04-09T18:48:17.999Z</time></trkpt><trkpt lat="45.255589920070435" lon="9.477190195909591"><ele>72.0</ele><time>2026-04-09T18:48:18.999Z</time></trkpt><trkpt lat="45.25579926425863" lon="9.476912063916107"><ele>71.0</ele><time>2026-04-09T18:48:19.999Z</time></trkpt><trkpt lat="45.25601024573746" lon="9.476625809832676"><ele>70.0</ele><time>2026-04-09T18:48:20.999Z</time></trkpt><trkpt lat="45.25623864736922" lon="9.476311628908828"><ele>70.0</ele><time>2026-04-09T18:48:21.999Z</time></trkpt><trkpt lat="45.25648009315943" lon="9.475980882173204"><ele>70.0</ele><time>2026-04-09T18:48:22.999Z</time></trkpt><trkpt lat="45.2567228554365" lon="9.475652380538028"><ele>69.5</ele><time>2026-04-09T18:48:23.999Z</time></trkpt><trkpt lat="45.25695612791356" lon="9.475341984396024"><ele>69.0</ele><time>2026-04-09T18:48:24.999Z</time></trkpt><trkpt lat="45.257183575497336" lon="9.47503852135668"><ele>69.5</ele><time>2026-04-09T18:48:25.999Z</time></trkpt><trkpt lat="45.25741559596489" lon="9.474730098109637"><ele>70.0</ele><time>2026-04-09T18:48:26.999Z</time></trkpt><trkpt lat="45.25764311861086" lon="9.474426382492226"><ele>70.0</ele><time>2026-04-09T18:48:27.999Z</time></trkpt><trkpt lat="45.25786644951417" lon="9.474134618552247"><ele>70.0</ele><time>2026-04-09T18:48:28.999Z</time></trkpt><trkpt lat="45.25808778543353" lon="9.473842956513561"><ele>70.5</ele><time>2026-04-09T18:48:29.999Z</time></trkpt><trkpt lat="45.258310482794656" lon="9.473550690652749"><ele>71.0</ele><time>2026-04-09T18:48:30.999Z</time></trkpt><trkpt lat="45.25852925218915" lon="9.473257883561603"><ele>71.0</ele><time>2026-04-09T18:48:31.999Z</time></trkpt><trkpt lat="45.258748498063376" lon="9.472969633134282"><ele>71.0</ele><time>2026-04-09T18:48:32.999Z</time></trkpt><trkpt lat="45.25896600598018" lon="9.472679140469163"><ele>70.0</ele><time>2026-04-09T18:48:33.999Z</time></trkpt><trkpt lat="45.25918233535053" lon="9.472387878826108"><ele>69.0</ele><time>2026-04-09T18:48:34.999Z</time></trkpt><trkpt lat="45.25939566531813" lon="9.472096877557615"><ele>69.0</ele><time>2026-04-09T18:48:35.999Z</time></trkpt><trkpt lat="45.25961274080434" lon="9.4718102290522"><ele>69.0</ele><time>2026-04-09T18:48:36.999Z</time></trkpt><trkpt lat="45.25983523798789" lon="9.471526436578126"><ele>70.0</ele><time>2026-04-09T18:48:37.999Z</time></trkpt><trkpt lat="45.26005836976487" lon="9.471237624451131"><ele>71.0</ele><time>2026-04-09T18:48:38.999Z</time></trkpt><trkpt lat="45.26027988151804" lon="9.470947589267816"><ele>71.0</ele><time>2026-04-09T18:48:39.999Z</time></trkpt><trkpt lat="45.26050187515049" lon="9.470651758419791"><ele>71.0</ele><time>2026-04-09T18:48:40.999Z</time></trkpt><trkpt lat="45.260728408613" lon="9.470353936904107"><ele>71.0</ele><time>2026-04-09T18:48:41.999Z</time></trkpt><trkpt lat="45.26095877658882" lon="9.470053261851788"><ele>71.0</ele><time>2026-04-09T18:48:42.999Z</time></trkpt><trkpt lat="45.26118898055909" lon="9.469756456816944"><ele>71.5</ele><time>2026-04-09T18:48:43.999Z</time></trkpt><trkpt lat="45.2614195809209" lon="9.469453497308283"><ele>72.0</ele><time>2026-04-09T18:48:44.999Z</time></trkpt><trkpt lat="45.26164441927797" lon="9.469151307299086"><ele>72.0</ele><time>2026-04-09T18:48:45.999Z</time></trkpt><trkpt lat="45.26187218275932" lon="9.468851800011052"><ele>72.0</ele><time>2026-04-09T18:48:46.999Z</time></trkpt><trkpt lat="45.26209353246883" lon="9.468560570675882"><ele>72.5</ele><time>2026-04-09T18:48:47.999Z</time></trkpt><trkpt lat="45.26231025517754" lon="9.46827605052025"><ele>73.0</ele><time>2026-04-09T18:48:48.999Z</time></trkpt><trkpt lat="45.262529395548384" lon="9.467995022048367"><ele>73.0</ele><time>2026-04-09T18:48:49.999Z</time></trkpt><trkpt lat="45.26274548217327" lon="9.467718197199401"><ele>73.0</ele><time>2026-04-09T18:48:50.999Z</time></trkpt><trkpt lat="45.26295998957998" lon="9.467448294770278"><ele>73.0</ele><time>2026-04-09T18:48:51.999Z</time></trkpt><trkpt lat="45.26317396922" lon="9.467175970547839"><ele>73.0</ele><time>2026-04-09T18:48:52.999Z</time></trkpt><trkpt lat="45.263386569824775" lon="9.466899518238222"><ele>74.0</ele><time>2026-04-09T18:48:53.999Z</time></trkpt><trkpt lat="45.26359941032263" lon="9.46662197678437"><ele>75.0</ele><time>2026-04-09T18:48:54.999Z</time></trkpt><trkpt lat="45.26382444915165" lon="9.466347071264561"><ele>73.5</ele><time>2026-04-09T18:48:55.999Z</time></trkpt><trkpt lat="45.26402773667806" lon="9.466076213261637"><ele>72.0</ele><time>2026-04-09T18:48:56.999Z</time></trkpt><trkpt lat="45.26423839893656" lon="9.465806538251293"><ele>72.0</ele><time>2026-04-09T18:48:57.999Z</time></trkpt><trkpt lat="45.26444628119761" lon="9.465537157910264"><ele>72.0</ele><time>2026-04-09T18:48:58.998Z</time></trkpt><trkpt lat="45.264651313900686" lon="9.465268292710634"><ele>71.5</ele><time>2026-04-09T18:48:59.998Z</time></trkpt><trkpt lat="45.26485574360797" lon="9.46499526941259"><ele>71.0</ele><time>2026-04-09T18:49:00.998Z</time></trkpt><trkpt lat="45.26506052711762" lon="9.464723170118267"><ele>72.0</ele><time>2026-04-09T18:49:01.998Z</time></trkpt><trkpt lat="45.2652643978213" lon="9.464453923948254"><ele>73.0</ele><time>2026-04-09T18:49:03Z</time></trkpt><trkpt lat="45.265463880665315" lon="9.464185260998086"><ele>72.5</ele><time>2026-04-09T18:49:04Z</time></trkpt><trkpt lat="45.26566265552412" lon="9.463922353202927"><ele>72.0</ele><time>2026-04-09T18:49:05Z</time></trkpt><trkpt lat="45.2658617008857" lon="9.46365742711962"><ele>72.0</ele><time>2026-04-09T18:49:06Z</time></trkpt><trkpt lat="45.266062769776994" lon="9.463394413847082"><ele>72.0</ele><time>2026-04-09T18:49:07Z</time></trkpt><trkpt lat="45.26626651792128" lon="9.46313149657938"><ele>72.5</ele><time>2026-04-09T18:49:08Z</time></trkpt><trkpt lat="45.26646640791228" lon="9.462873912806495"><ele>73.0</ele><time>2026-04-09T18:49:09Z</time></trkpt><trkpt lat="45.266670261416245" lon="9.462609477002117"><ele>73.0</ele><time>2026-04-09T18:49:10Z</time></trkpt><trkpt lat="45.266871512308825" lon="9.462345329163673"><ele>73.0</ele><time>2026-04-09T18:49:11Z</time></trkpt><trkpt lat="45.267071376214034" lon="9.462083722101497"><ele>73.0</ele><time>2026-04-09T18:49:12Z</time></trkpt><trkpt lat="45.26727151811845" lon="9.461814884953322"><ele>73.0</ele><time>2026-04-09T18:49:13Z</time></trkpt><trkpt lat="45.267470897868456" lon="9.461546879280913"><ele>73.0</ele><time>2026-04-09T18:49:14Z</time></trkpt><trkpt lat="45.267670144443414" lon="9.461281339620252"><ele>73.0</ele><time>2026-04-09T18:49:15Z</time></trkpt><trkpt lat="45.267870225719015" lon="9.461010152242155"><ele>73.0</ele><time>2026-04-09T18:49:16Z</time></trkpt><trkpt lat="45.26806943901406" lon="9.460743511126125"><ele>73.0</ele><time>2026-04-09T18:49:17Z</time></trkpt><trkpt lat="45.26826580804652" lon="9.46046936540274"><ele>73.5</ele><time>2026-04-09T18:49:18Z</time></trkpt><trkpt lat="45.268464295599614" lon="9.460201706577948"><ele>74.0</ele><time>2026-04-09T18:49:19Z</time></trkpt><trkpt lat="45.2686622132998" lon="9.4599287645579"><ele>74.0</ele><time>2026-04-09T18:49:20Z</time></trkpt><trkpt lat="45.26885846508802" lon="9.45965674721459"><ele>74.0</ele><time>2026-04-09T18:49:21Z</time></trkpt><trkpt lat="45.26905639584414" lon="9.459387244885017"><ele>73.0</ele><time>2026-04-09T18:49:22Z</time></trkpt><trkpt lat="45.269252241308344" lon="9.459119189054334"><ele>72.0</ele><time>2026-04-09T18:49:23Z</time></trkpt><trkpt lat="45.269449260052355" lon="9.45884437834984"><ele>72.0</ele><time>2026-04-09T18:49:24Z</time></trkpt><trkpt lat="45.2696432896991" lon="9.458570695849087"><ele>72.0</ele><time>2026-04-09T18:49:25Z</time></trkpt><trkpt lat="45.2698325660093" lon="9.458299779135654"><ele>72.0</ele><time>2026-04-09T18:49:26Z</time></trkpt><trkpt lat="45.27002677574919" lon="9.458013820455408"><ele>72.0</ele><time>2026-04-09T18:49:27Z</time></trkpt><trkpt lat="45.270216899709936" lon="9.457735880851148"><ele>73.5</ele><time>2026-04-09T18:49:28Z</time></trkpt><trkpt lat="45.27040659155524" lon="9.45745614008332"><ele>75.0</ele><time>2026-04-09T18:49:29Z</time></trkpt><trkpt lat="45.270598406160886" lon="9.457181938793292"><ele>74.0</ele><time>2026-04-09T18:49:30Z</time></trkpt><trkpt lat="45.270790487561136" lon="9.456898189196613"><ele>73.0</ele><time>2026-04-09T18:49:31Z</time></trkpt><trkpt lat="45.270973441547866" lon="9.45661329177908"><ele>73.0</ele><time>2026-04-09T18:49:32Z</time></trkpt><trkpt lat="45.271157494137476" lon="9.456328535423427"><ele>73.0</ele><time>2026-04-09T18:49:33Z</time></trkpt><trkpt lat="45.27134465666151" lon="9.456039603611053"><ele>73.0</ele><time>2026-04-09T18:49:34Z</time></trkpt><trkpt lat="45.2715300425958" lon="9.455755240740775"><ele>73.0</ele><time>2026-04-09T18:49:35Z</time></trkpt><trkpt lat="45.27171644912759" lon="9.455470494329436"><ele>73.5</ele><time>2026-04-09T18:49:36Z</time></trkpt><trkpt lat="45.27190298998226" lon="9.455181198148281"><ele>74.0</ele><time>2026-04-09T18:49:37Z</time></trkpt><trkpt lat="45.27208806274147" lon="9.45489151331328"><ele>74.0</ele><time>2026-04-09T18:49:38Z</time></trkpt><trkpt lat="45.27227184239142" lon="9.454602358581434"><ele>74.0</ele><time>2026-04-09T18:49:39Z</time></trkpt><trkpt lat="45.27245418671859" lon="9.454312893636237"><ele>73.5</ele><time>2026-04-09T18:49:40Z</time></trkpt><trkpt lat="45.27263696532475" lon="9.454020924152308"><ele>73.0</ele><time>2026-04-09T18:49:41Z</time></trkpt><trkpt lat="45.272820415005626" lon="9.4537302264692"><ele>74.0</ele><time>2026-04-09T18:49:42Z</time></trkpt><trkpt lat="45.27300332718046" lon="9.453439836532704"><ele>75.0</ele><time>2026-04-09T18:49:43Z</time></trkpt><trkpt lat="45.27318550862229" lon="9.453146421330574"><ele>74.5</ele><time>2026-04-09T18:49:44Z</time></trkpt><trkpt lat="45.273369064541626" lon="9.452851938438625"><ele>74.0</ele><time>2026-04-09T18:49:45Z</time></trkpt><trkpt lat="45.27355354046877" lon="9.452560709867427"><ele>74.0</ele><time>2026-04-09T18:49:46Z</time></trkpt><trkpt lat="45.27373668128983" lon="9.45227043566371"><ele>74.0</ele><time>2026-04-09T18:49:47Z</time></trkpt><trkpt lat="45.27391556711466" lon="9.451981003980201"><ele>74.5</ele><time>2026-04-09T18:49:48Z</time></trkpt><trkpt lat="45.27409602582834" lon="9.451684100928714"><ele>75.0</ele><time>2026-04-09T18:49:49Z</time></trkpt><trkpt lat="45.274274001792314" lon="9.451384339534124"><ele>75.0</ele><time>2026-04-09T18:49:50Z</time></trkpt><trkpt lat="45.274450611046596" lon="9.451086155990753"><ele>75.0</ele><time>2026-04-09T18:49:51Z</time></trkpt><trkpt lat="45.27462638704594" lon="9.450785530120788"><ele>75.5</ele><time>2026-04-09T18:49:52Z</time></trkpt><trkpt lat="45.27480036452712" lon="9.450489140194477"><ele>76.0</ele><time>2026-04-09T18:49:53Z</time></trkpt><trkpt lat="45.27497095742894" lon="9.450186623955389"><ele>76.5</ele><time>2026-04-09T18:49:53.999Z</time></trkpt><trkpt lat="45.275144570039714" lon="9.449901853223833"><ele>77.0</ele><time>2026-04-09T18:49:54.999Z</time></trkpt><trkpt lat="45.27533080258607" lon="9.44960374177443"><ele>76.5</ele><time>2026-04-09T18:49:55.999Z</time></trkpt><trkpt lat="45.27551086056467" lon="9.449308458731938"><ele>76.0</ele><time>2026-04-09T18:49:56.999Z</time></trkpt><trkpt lat="45.27568828360476" lon="9.449016050135706"><ele>77.0</ele><time>2026-04-09T18:49:57.999Z</time></trkpt><trkpt lat="45.27586434769597" lon="9.448722682043888"><ele>78.0</ele><time>2026-04-09T18:49:58.999Z</time></trkpt><trkpt lat="45.27603965543887" lon="9.448427443314076"><ele>78.0</ele><time>2026-04-09T18:49:59.999Z</time></trkpt><trkpt lat="45.2762132701384" lon="9.44813149769554"><ele>78.0</ele><time>2026-04-09T18:50:00.999Z</time></trkpt><trkpt lat="45.27638807340533" lon="9.447837923799657"><ele>76.0</ele><time>2026-04-09T18:50:01.999Z</time></trkpt><trkpt lat="45.27656712581452" lon="9.447540449282519"><ele>74.0</ele><time>2026-04-09T18:50:02.999Z</time></trkpt><trkpt lat="45.27674714053736" lon="9.447242891473351"><ele>74.0</ele><time>2026-04-09T18:50:03.999Z</time></trkpt><trkpt lat="45.27692592591275" lon="9.446946968661162"><ele>74.0</ele><time>2026-04-09T18:50:04.999Z</time></trkpt><trkpt lat="45.277106545023294" lon="9.446651918715693"><ele>73.5</ele><time>2026-04-09T18:50:05.999Z</time></trkpt><trkpt lat="45.27728461441858" lon="9.44635433263907"><ele>73.0</ele><time>2026-04-09T18:50:06.999Z</time></trkpt><trkpt lat="45.27746269164488" lon="9.446052939274956"><ele>73.0</ele><time>2026-04-09T18:50:07.999Z</time></trkpt><trkpt lat="45.27763785119471" lon="9.445756070003542"><ele>73.0</ele><time>2026-04-09T18:50:08.999Z</time></trkpt><trkpt lat="45.27781734728384" lon="9.445459842416279"><ele>73.0</ele><time>2026-04-09T18:50:09.999Z</time></trkpt><trkpt lat="45.27799694221235" lon="9.44516858467235"><ele>73.0</ele><time>2026-04-09T18:50:10.999Z</time></trkpt><trkpt lat="45.27817575169302" lon="9.44487517810345"><ele>73.5</ele><time>2026-04-09T18:50:11.999Z</time></trkpt><trkpt lat="45.2783563376651" lon="9.444579841891017"><ele>74.0</ele><time>2026-04-09T18:50:12.999Z</time></trkpt><trkpt lat="45.27853764491808" lon="9.44428129903382"><ele>74.0</ele><time>2026-04-09T18:50:13.999Z</time></trkpt><trkpt lat="45.278717328017876" lon="9.44398590793122"><ele>74.0</ele><time>2026-04-09T18:50:14.999Z</time></trkpt><trkpt lat="45.27890902317626" lon="9.443679189875992"><ele>73.5</ele><time>2026-04-09T18:50:15.999Z</time></trkpt><trkpt lat="45.27907866691107" lon="9.443390888209832"><ele>73.0</ele><time>2026-04-09T18:50:16.999Z</time></trkpt><trkpt lat="45.2792588793166" lon="9.443096900924337"><ele>73.0</ele><time>2026-04-09T18:50:17.999Z</time></trkpt><trkpt lat="45.27943785197433" lon="9.442801887863611"><ele>73.0</ele><time>2026-04-09T18:50:18.999Z</time></trkpt><trkpt lat="45.27961760870273" lon="9.442505793824495"><ele>73.0</ele><time>2026-04-09T18:50:19.999Z</time></trkpt><trkpt lat="45.27979557654416" lon="9.442209976718338"><ele>73.0</ele><time>2026-04-09T18:50:20.999Z</time></trkpt><trkpt lat="45.279973510677046" lon="9.441916608660039"><ele>73.0</ele><time>2026-04-09T18:50:21.999Z</time></trkpt><trkpt lat="45.280152461088946" lon="9.441620734143367"><ele>73.0</ele><time>2026-04-09T18:50:22.999Z</time></trkpt><trkpt lat="45.28032943863126" lon="9.441324985540374"><ele>73.0</ele><time>2026-04-09T18:50:23.999Z</time></trkpt><trkpt lat="45.28050538662661" lon="9.441029117762742"><ele>73.0</ele><time>2026-04-09T18:50:24.999Z</time></trkpt><trkpt lat="45.2806820346182" lon="9.440729769797684"><ele>73.0</ele><time>2026-04-09T18:50:25.999Z</time></trkpt><trkpt lat="45.28085856885866" lon="9.440432048826912"><ele>73.0</ele><time>2026-04-09T18:50:26.999Z</time></trkpt><trkpt lat="45.281035034294916" lon="9.440134388246975"><ele>73.0</ele><time>2026-04-09T18:50:27.999Z</time></trkpt><trkpt lat="45.281212873844446" lon="9.439835610590068"><ele>73.0</ele><time>2026-04-09T18:50:28.999Z</time></trkpt><trkpt lat="45.281390459798786" lon="9.439536933604817"><ele>73.0</ele><time>2026-04-09T18:50:29.999Z</time></trkpt><trkpt lat="45.281568214570946" lon="9.43924139612958"><ele>73.0</ele><time>2026-04-09T18:50:30.999Z</time></trkpt><trkpt lat="45.28174543362088" lon="9.438947145888054"><ele>73.0</ele><time>2026-04-09T18:50:31.999Z</time></trkpt><trkpt lat="45.281924042676614" lon="9.438649860307317"><ele>73.0</ele><time>2026-04-09T18:50:32.999Z</time></trkpt><trkpt lat="45.282101118487375" lon="9.438355003039366"><ele>73.5</ele><time>2026-04-09T18:50:33.999Z</time></trkpt><trkpt lat="45.28227892604045" lon="9.438060341823647"><ele>74.0</ele><time>2026-04-09T18:50:34.999Z</time></trkpt><trkpt lat="45.28245911662521" lon="9.4377676701233"><ele>74.0</ele><time>2026-04-09T18:50:35.999Z</time></trkpt><trkpt lat="45.282638017431985" lon="9.43746887442539"><ele>74.0</ele><time>2026-04-09T18:50:36.999Z</time></trkpt><trkpt lat="45.28281389294167" lon="9.437175852439767"><ele>74.0</ele><time>2026-04-09T18:50:37.999Z</time></trkpt><trkpt lat="45.282994537318174" lon="9.436879373599876"><ele>74.0</ele><time>2026-04-09T18:50:38.999Z</time></trkpt><trkpt lat="45.283174679552005" lon="9.436581708001414"><ele>74.5</ele><time>2026-04-09T18:50:39.999Z</time></trkpt><trkpt lat="45.28335005771162" lon="9.436288814808506"><ele>75.0</ele><time>2026-04-09T18:50:40.999Z</time></trkpt><trkpt lat="45.28352589328826" lon="9.435991086462035"><ele>75.0</ele><time>2026-04-09T18:50:41.999Z</time></trkpt><trkpt lat="45.28370235423129" lon="9.435694674725"><ele>75.0</ele><time>2026-04-09T18:50:42.999Z</time></trkpt><trkpt lat="45.283882297883345" lon="9.435398979128983"><ele>74.5</ele><time>2026-04-09T18:50:43.999Z</time></trkpt><trkpt lat="45.284060078758934" lon="9.435104419841988"><ele>74.0</ele><time>2026-04-09T18:50:44.999Z</time></trkpt><trkpt lat="45.284241321837136" lon="9.434808366696345"><ele>73.5</ele><time>2026-04-09T18:50:45.999Z</time></trkpt><trkpt lat="45.28442016653735" lon="9.434513655907486"><ele>73.0</ele><time>2026-04-09T18:50:46.999Z</time></trkpt><trkpt lat="45.284598406884676" lon="9.434217073869165"><ele>73.5</ele><time>2026-04-09T18:50:47.999Z</time></trkpt><trkpt lat="45.2847769190819" lon="9.433920120022373"><ele>74.0</ele><time>2026-04-09T18:50:48.999Z</time></trkpt><trkpt lat="45.284954928475564" lon="9.433626560836991"><ele>75.0</ele><time>2026-04-09T18:50:49.999Z</time></trkpt><trkpt lat="45.28513091756543" lon="9.433333052968278"><ele>76.0</ele><time>2026-04-09T18:50:50.999Z</time></trkpt><trkpt lat="45.28530918913425" lon="9.433035910085815"><ele>76.0</ele><time>2026-04-09T18:50:51.999Z</time></trkpt><trkpt lat="45.28548514569632" lon="9.432741473906653"><ele>76.0</ele><time>2026-04-09T18:50:52.999Z</time></trkpt><trkpt lat="45.285660849951746" lon="9.432445652501986"><ele>76.0</ele><time>2026-04-09T18:50:53.999Z</time></trkpt><trkpt lat="45.28583584091605" lon="9.432150794020062"><ele>76.0</ele><time>2026-04-09T18:50:54.999Z</time></trkpt><trkpt lat="45.28601203022061" lon="9.431856071115535"><ele>75.5</ele><time>2026-04-09T18:50:55.999Z</time></trkpt><trkpt lat="45.2861882781563" lon="9.431560111314127"><ele>75.0</ele><time>2026-04-09T18:50:56.999Z</time></trkpt><trkpt lat="45.28636192440394" lon="9.43126011405644"><ele>74.5</ele><time>2026-04-09T18:50:57.999Z</time></trkpt><trkpt lat="45.28653391845779" lon="9.43096064578962"><ele>74.0</ele><time>2026-04-09T18:50:58.999Z</time></trkpt><trkpt lat="45.286707044159314" lon="9.430659529943927"><ele>75.5</ele><time>2026-04-09T18:50:59.999Z</time></trkpt><trkpt lat="45.28687868258925" lon="9.430357791548268"><ele>77.0</ele><time>2026-04-09T18:51:00.999Z</time></trkpt><trkpt lat="45.28704793111047" lon="9.430058100867827"><ele>77.0</ele><time>2026-04-09T18:51:01.999Z</time></trkpt><trkpt lat="45.28721922044864" lon="9.42975411023739"><ele>77.0</ele><time>2026-04-09T18:51:02.999Z</time></trkpt><trkpt lat="45.2873906754382" lon="9.429445055868774"><ele>78.5</ele><time>2026-04-09T18:51:03.999Z</time></trkpt><trkpt lat="45.28756160222529" lon="9.429138179716858"><ele>80.0</ele><time>2026-04-09T18:51:04.998Z</time></trkpt><trkpt lat="45.28773362529483" lon="9.4288301026746"><ele>79.0</ele><time>2026-04-09T18:51:05.998Z</time></trkpt><trkpt lat="45.2879068056316" lon="9.428523137705817"><ele>78.0</ele><time>2026-04-09T18:51:06.998Z</time></trkpt><trkpt lat="45.28807913578027" lon="9.428219139841787"><ele>77.5</ele><time>2026-04-09T18:51:07.998Z</time></trkpt><trkpt lat="45.28825041629613" lon="9.427915900941898"><ele>77.0</ele><time>2026-04-09T18:51:09Z</time></trkpt><trkpt lat="45.28842167840671" lon="9.427613644506089"><ele>77.0</ele><time>2026-04-09T18:51:10Z</time></trkpt><trkpt lat="45.28859410270322" lon="9.427309069839557"><ele>77.0</ele><time>2026-04-09T18:51:11Z</time></trkpt><trkpt lat="45.28876480997151" lon="9.427002737933668"><ele>76.5</ele><time>2026-04-09T18:51:12Z</time></trkpt><trkpt lat="45.28893187245712" lon="9.426696834364483"><ele>76.0</ele><time>2026-04-09T18:51:13Z</time></trkpt><trkpt lat="45.28909789343879" lon="9.426390006770271"><ele>76.5</ele><time>2026-04-09T18:51:14Z</time></trkpt><trkpt lat="45.289267258835785" lon="9.426079328194376"><ele>77.0</ele><time>2026-04-09T18:51:15Z</time></trkpt><trkpt lat="45.28943991963002" lon="9.42577428722048"><ele>76.5</ele><time>2026-04-09T18:51:16Z</time></trkpt><trkpt lat="45.28961357510193" lon="9.425471731736954"><ele>76.0</ele><time>2026-04-09T18:51:17Z</time></trkpt><trkpt lat="45.28978549507235" lon="9.425165983985636"><ele>76.0</ele><time>2026-04-09T18:51:18Z</time></trkpt><trkpt lat="45.28995761908271" lon="9.424857507384749"><ele>76.0</ele><time>2026-04-09T18:51:19Z</time></trkpt><trkpt lat="45.29012859469498" lon="9.424550298148349"><ele>76.0</ele><time>2026-04-09T18:51:20Z</time></trkpt><trkpt lat="45.2902983121707" lon="9.42424173036475"><ele>76.0</ele><time>2026-04-09T18:51:21Z</time></trkpt><trkpt lat="45.290468163187136" lon="9.42393825973617"><ele>76.0</ele><time>2026-04-09T18:51:22Z</time></trkpt><trkpt lat="45.29063995110687" lon="9.42363396210637"><ele>76.0</ele><time>2026-04-09T18:51:23Z</time></trkpt><trkpt lat="45.290810092435976" lon="9.423328026271138"><ele>76.0</ele><time>2026-04-09T18:51:24Z</time></trkpt><trkpt lat="45.29097883642302" lon="9.42302426722905"><ele>76.0</ele><time>2026-04-09T18:51:25Z</time></trkpt><trkpt lat="45.291147635017715" lon="9.42271789522169"><ele>76.0</ele><time>2026-04-09T18:51:26Z</time></trkpt><trkpt lat="45.2913171694861" lon="9.422412586395383"><ele>76.0</ele><time>2026-04-09T18:51:27Z</time></trkpt><trkpt lat="45.29148702629766" lon="9.42210905202021"><ele>76.0</ele><time>2026-04-09T18:51:28Z</time></trkpt><trkpt lat="45.29165798568753" lon="9.421809646370289"><ele>76.0</ele><time>2026-04-09T18:51:29Z</time></trkpt><trkpt lat="45.29182773236366" lon="9.421505509697674"><ele>76.0</ele><time>2026-04-09T18:51:30Z</time></trkpt><trkpt lat="45.29199753940295" lon="9.421201869620752"><ele>76.0</ele><time>2026-04-09T18:51:31Z</time></trkpt><trkpt lat="45.292167849165125" lon="9.420898313827177"><ele>75.5</ele><time>2026-04-09T18:51:32Z</time></trkpt><trkpt lat="45.29233816687042" lon="9.420599447432915"><ele>75.0</ele><time>2026-04-09T18:51:33Z</time></trkpt><trkpt lat="45.29252361447865" lon="9.420310415121165"><ele>75.0</ele><time>2026-04-09T18:51:34Z</time></trkpt><trkpt lat="45.292682784280096" lon="9.419990946999787"><ele>75.0</ele><time>2026-04-09T18:51:35Z</time></trkpt><trkpt lat="45.29284906298407" lon="9.419685474969988"><ele>75.0</ele><time>2026-04-09T18:51:36Z</time></trkpt><trkpt lat="45.29302082303607" lon="9.419380296137478"><ele>75.0</ele><time>2026-04-09T18:51:37Z</time></trkpt><trkpt lat="45.29319296666954" lon="9.419078546582533"><ele>75.0</ele><time>2026-04-09T18:51:38Z</time></trkpt><trkpt lat="45.29336591329008" lon="9.418779752100944"><ele>75.0</ele><time>2026-04-09T18:51:39Z</time></trkpt><trkpt lat="45.29354052885428" lon="9.418480682671516"><ele>75.0</ele><time>2026-04-09T18:51:40Z</time></trkpt><trkpt lat="45.293714193670276" lon="9.418180098752957"><ele>75.0</ele><time>2026-04-09T18:51:41Z</time></trkpt><trkpt lat="45.2938895268172" lon="9.41787963516892"><ele>76.0</ele><time>2026-04-09T18:51:42Z</time></trkpt><trkpt lat="45.294063954910015" lon="9.41757997330719"><ele>77.0</ele><time>2026-04-09T18:51:43Z</time></trkpt><trkpt lat="45.29423802795621" lon="9.417279790866846"><ele>76.5</ele><time>2026-04-09T18:51:44Z</time></trkpt><trkpt lat="45.29441459731497" lon="9.416979303380892"><ele>76.0</ele><time>2026-04-09T18:51:45Z</time></trkpt><trkpt lat="45.29459309517756" lon="9.416682444052535"><ele>76.0</ele><time>2026-04-09T18:51:46Z</time></trkpt><trkpt lat="45.29477133263055" lon="9.41639165801182"><ele>76.0</ele><time>2026-04-09T18:51:47Z</time></trkpt><trkpt lat="45.29495170356745" lon="9.41609376671198"><ele>76.5</ele><time>2026-04-09T18:51:48Z</time></trkpt><trkpt lat="45.295129863426695" lon="9.415800944225019"><ele>77.0</ele><time>2026-04-09T18:51:49Z</time></trkpt><trkpt lat="45.29530669352233" lon="9.415505224497673"><ele>76.5</ele><time>2026-04-09T18:51:50Z</time></trkpt><trkpt lat="45.29548404622443" lon="9.415204043866435"><ele>76.0</ele><time>2026-04-09T18:51:51Z</time></trkpt><trkpt lat="45.29566218467847" lon="9.414910533018611"><ele>76.0</ele><time>2026-04-09T18:51:52Z</time></trkpt><trkpt lat="45.2958411321698" lon="9.414616439521762"><ele>76.0</ele><time>2026-04-09T18:51:53Z</time></trkpt><trkpt lat="45.296023749647475" lon="9.414320596866473"><ele>76.0</ele><time>2026-04-09T18:51:54Z</time></trkpt><trkpt lat="45.296207266291724" lon="9.414031634375947"><ele>76.0</ele><time>2026-04-09T18:51:55Z</time></trkpt><trkpt lat="45.2963930392516" lon="9.41374041397839"><ele>77.0</ele><time>2026-04-09T18:51:56Z</time></trkpt><trkpt lat="45.29657754289093" lon="9.413453287001017"><ele>78.0</ele><time>2026-04-09T18:51:57Z</time></trkpt><trkpt lat="45.29676243473141" lon="9.4131631551295"><ele>78.5</ele><time>2026-04-09T18:51:58Z</time></trkpt><trkpt lat="45.29694737077712" lon="9.412877472169372"><ele>79.0</ele><time>2026-04-09T18:51:59Z</time></trkpt><trkpt lat="45.29713273389591" lon="9.4125893420879"><ele>79.0</ele><time>2026-04-09T18:51:59.999Z</time></trkpt><trkpt lat="45.29731768853011" lon="9.412304771035338"><ele>79.0</ele><time>2026-04-09T18:52:00.999Z</time></trkpt><trkpt lat="45.29750206397214" lon="9.412021895728577"><ele>78.0</ele><time>2026-04-09T18:52:01.999Z</time></trkpt><trkpt lat="45.29768771721963" lon="9.411737936778112"><ele>77.0</ele><time>2026-04-09T18:52:02.999Z</time></trkpt><trkpt lat="45.297875011273845" lon="9.411453622845821"><ele>77.0</ele><time>2026-04-09T18:52:03.999Z</time></trkpt><trkpt lat="45.29806490645616" lon="9.411176055386681"><ele>77.0</ele><time>2026-04-09T18:52:04.999Z</time></trkpt><trkpt lat="45.29825604077717" lon="9.410899197485795"><ele>77.0</ele><time>2026-04-09T18:52:05.999Z</time></trkpt><trkpt lat="45.29844878155604" lon="9.410619284855535"><ele>77.0</ele><time>2026-04-09T18:52:06.999Z</time></trkpt><trkpt lat="45.29863840513668" lon="9.410336923870075"><ele>77.0</ele><time>2026-04-09T18:52:07.999Z</time></trkpt><trkpt lat="45.29882679735257" lon="9.410056908453898"><ele>77.0</ele><time>2026-04-09T18:52:08.999Z</time></trkpt><trkpt lat="45.29901787115271" lon="9.409775159010634"><ele>77.5</ele><time>2026-04-09T18:52:09.999Z</time></trkpt><trkpt lat="45.29920820259064" lon="9.409496672831816"><ele>78.0</ele><time>2026-04-09T18:52:10.999Z</time></trkpt><trkpt lat="45.29940301495435" lon="9.409217648671168"><ele>78.0</ele><time>2026-04-09T18:52:11.999Z</time></trkpt><trkpt lat="45.299596048945325" lon="9.408939458708574"><ele>78.0</ele><time>2026-04-09T18:52:12.999Z</time></trkpt><trkpt lat="45.299789497107284" lon="9.408665114987645"><ele>79.0</ele><time>2026-04-09T18:52:13.999Z</time></trkpt><trkpt lat="45.29998266180096" lon="9.408386198478096"><ele>80.0</ele><time>2026-04-09T18:52:14.999Z</time></trkpt><trkpt lat="45.300177082713034" lon="9.408110876299205"><ele>80.0</ele><time>2026-04-09T18:52:15.999Z</time></trkpt><trkpt lat="45.300373317566766" lon="9.407835694148545"><ele>80.0</ele><time>2026-04-09T18:52:16.999Z</time></trkpt><trkpt lat="45.30056852468408" lon="9.407561440846958"><ele>80.0</ele><time>2026-04-09T18:52:17.999Z</time></trkpt><trkpt lat="45.30076560548542" lon="9.407290113623356"><ele>80.0</ele><time>2026-04-09T18:52:18.999Z</time></trkpt><trkpt lat="45.300964351530425" lon="9.407023462863384"><ele>80.0</ele><time>2026-04-09T18:52:19.999Z</time></trkpt><trkpt lat="45.30116471661824" lon="9.406754113270537"><ele>80.0</ele><time>2026-04-09T18:52:20.999Z</time></trkpt><trkpt lat="45.30136615526745" lon="9.406487722959431"><ele>79.5</ele><time>2026-04-09T18:52:21.999Z</time></trkpt><trkpt lat="45.3015653302077" lon="9.406222239040101"><ele>79.0</ele><time>2026-04-09T18:52:22.999Z</time></trkpt><trkpt lat="45.30176340451653" lon="9.405948656942027"><ele>79.0</ele><time>2026-04-09T18:52:23.999Z</time></trkpt><trkpt lat="45.30195851813691" lon="9.405674608297854"><ele>79.0</ele><time>2026-04-09T18:52:24.999Z</time></trkpt><trkpt lat="45.302156112011005" lon="9.405399044773858"><ele>79.5</ele><time>2026-04-09T18:52:25.999Z</time></trkpt><trkpt lat="45.30235010275433" lon="9.405130503970993"><ele>80.0</ele><time>2026-04-09T18:52:26.999Z</time></trkpt><trkpt lat="45.30254735359236" lon="9.404856114473743"><ele>79.5</ele><time>2026-04-09T18:52:27.999Z</time></trkpt><trkpt lat="45.302743115242635" lon="9.404587603570151"><ele>79.0</ele><time>2026-04-09T18:52:28.999Z</time></trkpt><trkpt lat="45.302938620746815" lon="9.404318326757856"><ele>79.0</ele><time>2026-04-09T18:52:29.999Z</time></trkpt><trkpt lat="45.30313445101111" lon="9.404045314201062"><ele>79.0</ele><time>2026-04-09T18:52:30.999Z</time></trkpt><trkpt lat="45.303330599249925" lon="9.403774996408995"><ele>79.0</ele><time>2026-04-09T18:52:31.999Z</time></trkpt><trkpt lat="45.303525105565214" lon="9.403503072895976"><ele>79.0</ele><time>2026-04-09T18:52:32.999Z</time></trkpt><trkpt lat="45.30371860991259" lon="9.403225828701535"><ele>79.0</ele><time>2026-04-09T18:52:33.999Z</time></trkpt><trkpt lat="45.30390826835226" lon="9.40295000090621"><ele>79.0</ele><time>2026-04-09T18:52:34.999Z</time></trkpt><trkpt lat="45.30410120469777" lon="9.402668134396272"><ele>79.0</ele><time>2026-04-09T18:52:35.999Z</time></trkpt><trkpt lat="45.304289670797715" lon="9.402389433699641"><ele>79.0</ele><time>2026-04-09T18:52:36.999Z</time></trkpt><trkpt lat="45.30448153385685" lon="9.402109599142065"><ele>79.0</ele><time>2026-04-09T18:52:37.999Z</time></trkpt><trkpt lat="45.30467398654197" lon="9.401831205917057"><ele>79.0</ele><time>2026-04-09T18:52:38.999Z</time></trkpt><trkpt lat="45.30486541335732" lon="9.401553362469857"><ele>80.0</ele><time>2026-04-09T18:52:39.999Z</time></trkpt><trkpt lat="45.30505524788892" lon="9.401269251587227"><ele>81.0</ele><time>2026-04-09T18:52:40.999Z</time></trkpt><trkpt lat="45.30524249380643" lon="9.400981823645827"><ele>81.0</ele><time>2026-04-09T18:52:41.999Z</time></trkpt><trkpt lat="45.30542753752161" lon="9.400692456750352"><ele>81.0</ele><time>2026-04-09T18:52:42.999Z</time></trkpt><trkpt lat="45.30561312939465" lon="9.400403068561333"><ele>81.0</ele><time>2026-04-09T18:52:43.999Z</time></trkpt><trkpt lat="45.30579780866561" lon="9.400122094293254"><ele>81.0</ele><time>2026-04-09T18:52:44.999Z</time></trkpt><trkpt lat="45.305984563891805" lon="9.399835086239406"><ele>81.0</ele><time>2026-04-09T18:52:45.999Z</time></trkpt><trkpt lat="45.306173753851475" lon="9.399549517902022"><ele>81.0</ele><time>2026-04-09T18:52:46.999Z</time></trkpt><trkpt lat="45.30636436522569" lon="9.399262393043587"><ele>81.5</ele><time>2026-04-09T18:52:47.999Z</time></trkpt><trkpt lat="45.30655072806197" lon="9.398980031799198"><ele>82.0</ele><time>2026-04-09T18:52:48.999Z</time></trkpt><trkpt lat="45.306737943549436" lon="9.398695588732565"><ele>82.0</ele><time>2026-04-09T18:52:49.999Z</time></trkpt><trkpt lat="45.306924303215716" lon="9.39842076425489"><ele>82.0</ele><time>2026-04-09T18:52:50.999Z</time></trkpt><trkpt lat="45.30711408128863" lon="9.398128950249763"><ele>81.0</ele><time>2026-04-09T18:52:51.999Z</time></trkpt><trkpt lat="45.30729806176182" lon="9.397841975516366"><ele>80.0</ele><time>2026-04-09T18:52:52.999Z</time></trkpt><trkpt lat="45.30748289501029" lon="9.397557107746602"><ele>80.0</ele><time>2026-04-09T18:52:53.999Z</time></trkpt><trkpt lat="45.30766797631146" lon="9.397276050660416"><ele>80.0</ele><time>2026-04-09T18:52:54.999Z</time></trkpt><trkpt lat="45.30785415738255" lon="9.396992781919716"><ele>80.0</ele><time>2026-04-09T18:52:55.999Z</time></trkpt><trkpt lat="45.30803860768749" lon="9.396706505123362"><ele>80.0</ele><time>2026-04-09T18:52:56.999Z</time></trkpt><trkpt lat="45.30822340457208" lon="9.396415648214964"><ele>80.5</ele><time>2026-04-09T18:52:57.999Z</time></trkpt><trkpt lat="45.308409273362784" lon="9.396131877715698"><ele>81.0</ele><time>2026-04-09T18:52:58.999Z</time></trkpt><trkpt lat="45.30859477938395" lon="9.395845915557107"><ele>81.0</ele><time>2026-04-09T18:52:59.999Z</time></trkpt><trkpt lat="45.308781130801364" lon="9.395562417495332"><ele>81.0</ele><time>2026-04-09T18:53:00.999Z</time></trkpt><trkpt lat="45.3089675496564" lon="9.395275994850012"><ele>80.5</ele><time>2026-04-09T18:53:01.999Z</time></trkpt><trkpt lat="45.309155048554096" lon="9.394992872681708"><ele>80.0</ele><time>2026-04-09T18:53:02.999Z</time></trkpt><trkpt lat="45.309341037682344" lon="9.394713394106578"><ele>80.5</ele><time>2026-04-09T18:53:03.999Z</time></trkpt><trkpt lat="45.30952735200467" lon="9.39442854907342"><ele>81.0</ele><time>2026-04-09T18:53:04.999Z</time></trkpt><trkpt lat="45.30971347821452" lon="9.394141146207199"><ele>81.0</ele><time>2026-04-09T18:53:05.999Z</time></trkpt><trkpt lat="45.309900151796064" lon="9.393857348997878"><ele>81.0</ele><time>2026-04-09T18:53:06.999Z</time></trkpt><trkpt lat="45.31008528042723" lon="9.393572677900345"><ele>81.0</ele><time>2026-04-09T18:53:07.999Z</time></trkpt><trkpt lat="45.31027106450244" lon="9.393283264381202"><ele>81.0</ele><time>2026-04-09T18:53:08.999Z</time></trkpt><trkpt lat="45.31045775336356" lon="9.392994836886821"><ele>81.0</ele><time>2026-04-09T18:53:09.999Z</time></trkpt><trkpt lat="45.310642106964366" lon="9.392710725856439"><ele>81.0</ele><time>2026-04-09T18:53:10.998Z</time></trkpt><trkpt lat="45.310829181314624" lon="9.392420515661588"><ele>80.5</ele><time>2026-04-09T18:53:11.998Z</time></trkpt><trkpt lat="45.31101524764273" lon="9.39213404671448"><ele>80.0</ele><time>2026-04-09T18:53:12.998Z</time></trkpt><trkpt lat="45.311202389136696" lon="9.391849296364658"><ele>80.0</ele><time>2026-04-09T18:53:13.998Z</time></trkpt><trkpt lat="45.311389189054616" lon="9.39156522020945"><ele>80.0</ele><time>2026-04-09T18:53:15Z</time></trkpt><trkpt lat="45.31157532010637" lon="9.391280936954836"><ele>80.0</ele><time>2026-04-09T18:53:16Z</time></trkpt><trkpt lat="45.31176306317066" lon="9.39099767191546"><ele>80.0</ele><time>2026-04-09T18:53:17Z</time></trkpt><trkpt lat="45.311950014047795" lon="9.390711427499808"><ele>80.0</ele><time>2026-04-09T18:53:18Z</time></trkpt><trkpt lat="45.312135867411925" lon="9.390424293344564"><ele>80.0</ele><time>2026-04-09T18:53:19Z</time></trkpt><trkpt lat="45.31232200789294" lon="9.390138003746543"><ele>80.0</ele><time>2026-04-09T18:53:20Z</time></trkpt><trkpt lat="45.31250659615042" lon="9.389851549409752"><ele>80.0</ele><time>2026-04-09T18:53:21Z</time></trkpt><trkpt lat="45.31269066694292" lon="9.389568986828907"><ele>80.5</ele><time>2026-04-09T18:53:22Z</time></trkpt><trkpt lat="45.31287682560274" lon="9.38928198852622"><ele>81.0</ele><time>2026-04-09T18:53:23Z</time></trkpt><trkpt lat="45.313060930367776" lon="9.388996827684622"><ele>81.5</ele><time>2026-04-09T18:53:24Z</time></trkpt><trkpt lat="45.31324691087017" lon="9.38871025968788"><ele>82.0</ele><time>2026-04-09T18:53:25Z</time></trkpt><trkpt lat="45.3134339961407" lon="9.388424574525589"><ele>82.0</ele><time>2026-04-09T18:53:26Z</time></trkpt><trkpt lat="45.313620402750125" lon="9.388139332347329"><ele>82.0</ele><time>2026-04-09T18:53:27Z</time></trkpt><trkpt lat="45.31380794221524" lon="9.387855552467162"><ele>81.5</ele><time>2026-04-09T18:53:28Z</time></trkpt><trkpt lat="45.31399557645625" lon="9.387566577987888"><ele>81.0</ele><time>2026-04-09T18:53:29Z</time></trkpt><trkpt lat="45.31418039113404" lon="9.38727797087267"><ele>82.0</ele><time>2026-04-09T18:53:30Z</time></trkpt><trkpt lat="45.31436545530693" lon="9.386993903115446"><ele>83.0</ele><time>2026-04-09T18:53:31Z</time></trkpt><trkpt lat="45.3145519842863" lon="9.386707270469193"><ele>83.0</ele><time>2026-04-09T18:53:32Z</time></trkpt><trkpt lat="45.314737654776025" lon="9.386424406352631"><ele>83.0</ele><time>2026-04-09T18:53:33Z</time></trkpt><trkpt lat="45.314937138131555" lon="9.3861216039896"><ele>81.5</ele><time>2026-04-09T18:53:34Z</time></trkpt><trkpt lat="45.31511792422829" lon="9.385844402830571"><ele>80.0</ele><time>2026-04-09T18:53:35Z</time></trkpt><trkpt lat="45.31530390769561" lon="9.3855610997027"><ele>80.5</ele><time>2026-04-09T18:53:36Z</time></trkpt><trkpt lat="45.31548998747823" lon="9.385275348584784"><ele>81.0</ele><time>2026-04-09T18:53:37Z</time></trkpt><trkpt lat="45.31567618208099" lon="9.384989796098884"><ele>81.0</ele><time>2026-04-09T18:53:38Z</time></trkpt><trkpt lat="45.31586137264853" lon="9.384703901493863"><ele>81.0</ele><time>2026-04-09T18:53:39Z</time></trkpt><trkpt lat="45.31604884624205" lon="9.384418419760062"><ele>81.0</ele><time>2026-04-09T18:53:40Z</time></trkpt><trkpt lat="45.316234799313584" lon="9.384132429186481"><ele>81.0</ele><time>2026-04-09T18:53:41Z</time></trkpt><trkpt lat="45.31641853378708" lon="9.383844649847374"><ele>81.5</ele><time>2026-04-09T18:53:42Z</time></trkpt><trkpt lat="45.31660486008234" lon="9.383555925049071"><ele>82.0</ele><time>2026-04-09T18:53:43Z</time></trkpt><trkpt lat="45.31678950395154" lon="9.383272823101434"><ele>82.0</ele><time>2026-04-09T18:53:44Z</time></trkpt><trkpt lat="45.316974498258894" lon="9.38298880157969"><ele>82.0</ele><time>2026-04-09T18:53:45Z</time></trkpt><trkpt lat="45.31716058959841" lon="9.38270242626521"><ele>82.0</ele><time>2026-04-09T18:53:46Z</time></trkpt><trkpt lat="45.31734692132004" lon="9.382415082395465"><ele>82.0</ele><time>2026-04-09T18:53:47Z</time></trkpt><trkpt lat="45.3175315729559" lon="9.382126746843975"><ele>82.0</ele><time>2026-04-09T18:53:48Z</time></trkpt><trkpt lat="45.3177175860423" lon="9.381844518594015"><ele>82.0</ele><time>2026-04-09T18:53:49Z</time></trkpt><trkpt lat="45.31790388811799" lon="9.381558164151976"><ele>82.5</ele><time>2026-04-09T18:53:50Z</time></trkpt><trkpt lat="45.318091331659986" lon="9.381274638739292"><ele>83.0</ele><time>2026-04-09T18:53:51Z</time></trkpt><trkpt lat="45.318277802146554" lon="9.380992517074544"><ele>83.0</ele><time>2026-04-09T18:53:52Z</time></trkpt><trkpt lat="45.31846604724207" lon="9.38070734487187"><ele>83.0</ele><time>2026-04-09T18:53:53Z</time></trkpt><trkpt lat="45.31864878963607" lon="9.380416580725235"><ele>82.5</ele><time>2026-04-09T18:53:54Z</time></trkpt><trkpt lat="45.31883915500853" lon="9.380142882845703"><ele>82.0</ele><time>2026-04-09T18:53:55Z</time></trkpt><trkpt lat="45.31902132666931" lon="9.379848184926008"><ele>83.0</ele><time>2026-04-09T18:53:56Z</time></trkpt><trkpt lat="45.31920731629354" lon="9.379561087025168"><ele>84.0</ele><time>2026-04-09T18:53:57Z</time></trkpt><trkpt lat="45.31939581759567" lon="9.379275865803281"><ele>84.0</ele><time>2026-04-09T18:53:58Z</time></trkpt><trkpt lat="45.3195836362414" lon="9.378989131889659"><ele>84.0</ele><time>2026-04-09T18:53:59Z</time></trkpt><trkpt lat="45.31977184730197" lon="9.378703123261978"><ele>84.0</ele><time>2026-04-09T18:54:00Z</time></trkpt><trkpt lat="45.319955616288745" lon="9.378416080635034"><ele>84.0</ele><time>2026-04-09T18:54:01Z</time></trkpt><trkpt lat="45.32014234572148" lon="9.378129298557097"><ele>85.0</ele><time>2026-04-09T18:54:02Z</time></trkpt><trkpt lat="45.32033103908918" lon="9.37784343024774"><ele>86.0</ele><time>2026-04-09T18:54:03Z</time></trkpt><trkpt lat="45.32051976104709" lon="9.37755766758277"><ele>85.5</ele><time>2026-04-09T18:54:03.999Z</time></trkpt><trkpt lat="45.32070472389945" lon="9.377275514199358"><ele>85.0</ele><time>2026-04-09T18:54:04.999Z</time></trkpt><trkpt lat="45.32089077505694" lon="9.376989061981535"><ele>85.0</ele><time>2026-04-09T18:54:05.999Z</time></trkpt><trkpt lat="45.321078450512196" lon="9.376702697620852"><ele>85.0</ele><time>2026-04-09T18:54:06.999Z</time></trkpt><trkpt lat="45.321260547983904" lon="9.376415387981682"><ele>84.5</ele><time>2026-04-09T18:54:07.999Z</time></trkpt><trkpt lat="45.32144554537995" lon="9.376126796808084"><ele>84.0</ele><time>2026-04-09T18:54:08.999Z</time></trkpt><trkpt lat="45.32163225888654" lon="9.375839294461727"><ele>84.0</ele><time>2026-04-09T18:54:09.999Z</time></trkpt><trkpt lat="45.321819094744264" lon="9.375552791833252"><ele>84.0</ele><time>2026-04-09T18:54:10.999Z</time></trkpt><trkpt lat="45.32200999285742" lon="9.37527134044143"><ele>84.0</ele><time>2026-04-09T18:54:11.999Z</time></trkpt><trkpt lat="45.322196115856855" lon="9.374985494704342"><ele>84.0</ele><time>2026-04-09T18:54:12.999Z</time></trkpt><trkpt lat="45.32238044331682" lon="9.374698591595006"><ele>84.0</ele><time>2026-04-09T18:54:13.999Z</time></trkpt><trkpt lat="45.32256603590418" lon="9.374409553244513"><ele>84.0</ele><time>2026-04-09T18:54:14.999Z</time></trkpt><trkpt lat="45.32274982974094" lon="9.37411925930114"><ele>83.5</ele><time>2026-04-09T18:54:15.999Z</time></trkpt><trkpt lat="45.32292913831237" lon="9.373826862070645"><ele>83.0</ele><time>2026-04-09T18:54:16.999Z</time></trkpt><trkpt lat="45.32310833152912" lon="9.373535495186005"><ele>83.0</ele><time>2026-04-09T18:54:17.999Z</time></trkpt><trkpt lat="45.32329056605431" lon="9.37324484516088"><ele>83.0</ele><time>2026-04-09T18:54:18.999Z</time></trkpt><trkpt lat="45.323474371858254" lon="9.37295777482563"><ele>82.5</ele><time>2026-04-09T18:54:19.999Z</time></trkpt><trkpt lat="45.32365884027883" lon="9.37267218176662"><ele>82.0</ele><time>2026-04-09T18:54:20.999Z</time></trkpt><trkpt lat="45.32384362425056" lon="9.372387380771576"><ele>83.5</ele><time>2026-04-09T18:54:21.999Z</time></trkpt><trkpt lat="45.32402795504821" lon="9.372103189051847"><ele>85.0</ele><time>2026-04-09T18:54:22.999Z</time></trkpt><trkpt lat="45.32421787985992" lon="9.371820879545727"><ele>85.0</ele><time>2026-04-09T18:54:23.999Z</time></trkpt><trkpt lat="45.32440702736551" lon="9.371540442642203"><ele>85.0</ele><time>2026-04-09T18:54:24.999Z</time></trkpt><trkpt lat="45.32459724087679" lon="9.371259613315233"><ele>83.5</ele><time>2026-04-09T18:54:25.999Z</time></trkpt><trkpt lat="45.32478716009169" lon="9.370971989214718"><ele>82.0</ele><time>2026-04-09T18:54:26.999Z</time></trkpt><trkpt lat="45.32497545973492" lon="9.37069924780988"><ele>82.0</ele><time>2026-04-09T18:54:27.999Z</time></trkpt><trkpt lat="45.325163431132836" lon="9.370415485855226"><ele>82.0</ele><time>2026-04-09T18:54:28.999Z</time></trkpt><trkpt lat="45.32535037951617" lon="9.370131519204172"><ele>82.0</ele><time>2026-04-09T18:54:29.999Z</time></trkpt><trkpt lat="45.32553693481122" lon="9.369846918900949"><ele>82.0</ele><time>2026-04-09T18:54:30.999Z</time></trkpt><trkpt lat="45.32572345030354" lon="9.369563053235296"><ele>82.5</ele><time>2026-04-09T18:54:31.999Z</time></trkpt><trkpt lat="45.325911549556395" lon="9.369280749146732"><ele>83.0</ele><time>2026-04-09T18:54:32.999Z</time></trkpt><trkpt lat="45.326100015238495" lon="9.368997659306558"><ele>83.0</ele><time>2026-04-09T18:54:33.999Z</time></trkpt><trkpt lat="45.32628785803142" lon="9.368716447613995"><ele>83.0</ele><time>2026-04-09T18:54:34.999Z</time></trkpt><trkpt lat="45.32647427290209" lon="9.368431153847439"><ele>83.0</ele><time>2026-04-09T18:54:35.999Z</time></trkpt><trkpt lat="45.32666138858532" lon="9.368145865067692"><ele>83.0</ele><time>2026-04-09T18:54:36.999Z</time></trkpt><trkpt lat="45.32684728136373" lon="9.367859652992346"><ele>83.0</ele><time>2026-04-09T18:54:37.999Z</time></trkpt><trkpt lat="45.32703356205127" lon="9.367573585967584"><ele>83.0</ele><time>2026-04-09T18:54:38.999Z</time></trkpt><trkpt lat="45.32721908531215" lon="9.367284512444451"><ele>83.0</ele><time>2026-04-09T18:54:39.999Z</time></trkpt><trkpt lat="45.32740309672603" lon="9.366997473174607"><ele>83.0</ele><time>2026-04-09T18:54:40.999Z</time></trkpt><trkpt lat="45.32758749814182" lon="9.36671238310833"><ele>83.0</ele><time>2026-04-09T18:54:41.999Z</time></trkpt><trkpt lat="45.327774599435735" lon="9.366422775779586"><ele>83.0</ele><time>2026-04-09T18:54:42.999Z</time></trkpt><trkpt lat="45.32796067037782" lon="9.366138161817215"><ele>83.0</ele><time>2026-04-09T18:54:43.999Z</time></trkpt><trkpt lat="45.328145378725765" lon="9.365853944767483"><ele>83.0</ele><time>2026-04-09T18:54:44.999Z</time></trkpt><trkpt lat="45.32833345025561" lon="9.365569477096223"><ele>83.0</ele><time>2026-04-09T18:54:45.999Z</time></trkpt><trkpt lat="45.32852235636706" lon="9.365284778306355"><ele>83.0</ele><time>2026-04-09T18:54:46.999Z</time></trkpt><trkpt lat="45.32871233466537" lon="9.365001266827564"><ele>84.0</ele><time>2026-04-09T18:54:47.999Z</time></trkpt><trkpt lat="45.32889518066185" lon="9.364714913896625"><ele>85.0</ele><time>2026-04-09T18:54:48.999Z</time></trkpt><trkpt lat="45.32907887608673" lon="9.364427710096747"><ele>85.0</ele><time>2026-04-09T18:54:49.999Z</time></trkpt><trkpt lat="45.32926292835875" lon="9.364139732234738"><ele>85.0</ele><time>2026-04-09T18:54:50.999Z</time></trkpt><trkpt lat="45.329447746921" lon="9.363850335903226"><ele>85.0</ele><time>2026-04-09T18:54:51.999Z</time></trkpt><trkpt lat="45.32963252787559" lon="9.363564014147455"><ele>85.0</ele><time>2026-04-09T18:54:52.999Z</time></trkpt><trkpt lat="45.32981735396419" lon="9.363287449573413"><ele>85.5</ele><time>2026-04-09T18:54:53.999Z</time></trkpt><trkpt lat="45.3300028839837" lon="9.362996049038456"><ele>86.0</ele><time>2026-04-09T18:54:54.999Z</time></trkpt><trkpt lat="45.33018892866518" lon="9.362707370439074"><ele>86.0</ele><time>2026-04-09T18:54:55.999Z</time></trkpt><trkpt lat="45.33037145253368" lon="9.362419415635168"><ele>86.0</ele><time>2026-04-09T18:54:56.999Z</time></trkpt><trkpt lat="45.33055241464226" lon="9.362130273036007"><ele>86.0</ele><time>2026-04-09T18:54:57.999Z</time></trkpt><trkpt lat="45.33073599129223" lon="9.361839958913713"><ele>86.0</ele><time>2026-04-09T18:54:58.999Z</time></trkpt><trkpt lat="45.33091778471903" lon="9.361547713602803"><ele>86.0</ele><time>2026-04-09T18:54:59.999Z</time></trkpt><trkpt lat="45.331094912177875" lon="9.361249975553584"><ele>86.0</ele><time>2026-04-09T18:55:00.999Z</time></trkpt><trkpt lat="45.331268080523195" lon="9.360947834163865"><ele>85.5</ele><time>2026-04-09T18:55:01.999Z</time></trkpt><trkpt lat="45.33143640979176" lon="9.360639470244474"><ele>85.0</ele><time>2026-04-09T18:55:02.999Z</time></trkpt><trkpt lat="45.3316019620778" lon="9.360327141643591"><ele>84.5</ele><time>2026-04-09T18:55:03.999Z</time></trkpt><trkpt lat="45.33176547838317" lon="9.3600110189477"><ele>84.0</ele><time>2026-04-09T18:55:04.999Z</time></trkpt><trkpt lat="45.33192778019844" lon="9.359692944754093"><ele>84.0</ele><time>2026-04-09T18:55:05.999Z</time></trkpt><trkpt lat="45.332084982996804" lon="9.359375470592472"><ele>84.0</ele><time>2026-04-09T18:55:06.999Z</time></trkpt><trkpt lat="45.33224119563742" lon="9.359056460190773"><ele>84.5</ele><time>2026-04-09T18:55:07.999Z</time></trkpt><trkpt lat="45.332397211609376" lon="9.358735761313635"><ele>85.0</ele><time>2026-04-09T18:55:08.999Z</time></trkpt><trkpt lat="45.33255184405092" lon="9.358414828564344"><ele>85.0</ele><time>2026-04-09T18:55:09.999Z</time></trkpt><trkpt lat="45.332702848216336" lon="9.358094371107223"><ele>85.0</ele><time>2026-04-09T18:55:10.999Z</time></trkpt><trkpt lat="45.332845240942156" lon="9.357759529006971"><ele>83.5</ele><time>2026-04-09T18:55:11.999Z</time></trkpt><trkpt lat="45.33298969574082" lon="9.357430269185517"><ele>82.0</ele><time>2026-04-09T18:55:12.999Z</time></trkpt><trkpt lat="45.33312845151353" lon="9.357096877000926"><ele>81.0</ele><time>2026-04-09T18:55:13.999Z</time></trkpt><trkpt lat="45.33326658127146" lon="9.356758944535624"><ele>80.0</ele><time>2026-04-09T18:55:14.999Z</time></trkpt><trkpt lat="45.33340042064703" lon="9.356422236742313"><ele>79.5</ele><time>2026-04-09T18:55:15.998Z</time></trkpt><trkpt lat="45.333530219180155" lon="9.356079767896993"><ele>79.0</ele><time>2026-04-09T18:55:16.998Z</time></trkpt><trkpt lat="45.333656865262434" lon="9.355735062119347"><ele>79.5</ele><time>2026-04-09T18:55:17.998Z</time></trkpt><trkpt lat="45.33378122683955" lon="9.355389695184599"><ele>80.0</ele><time>2026-04-09T18:55:18.998Z</time></trkpt><trkpt lat="45.3339042479441" lon="9.35504017086522"><ele>80.5</ele><time>2026-04-09T18:55:19.998Z</time></trkpt><trkpt lat="45.33402391091448" lon="9.354688756337591"><ele>81.0</ele><time>2026-04-09T18:55:21Z</time></trkpt><trkpt lat="45.334139945258954" lon="9.35433335449996"><ele>81.0</ele><time>2026-04-09T18:55:22Z</time></trkpt><trkpt lat="45.33425331285902" lon="9.353976371897243"><ele>81.0</ele><time>2026-04-09T18:55:23Z</time></trkpt><trkpt lat="45.33436194196635" lon="9.353619242106328"><ele>80.5</ele><time>2026-04-09T18:55:24Z</time></trkpt><trkpt lat="45.33446805748718" lon="9.353259888592804"><ele>80.0</ele><time>2026-04-09T18:55:25Z</time></trkpt><trkpt lat="45.33456980454882" lon="9.352899666997725"><ele>79.5</ele><time>2026-04-09T18:55:26Z</time></trkpt><trkpt lat="45.33466692630216" lon="9.3525367891539"><ele>79.0</ele><time>2026-04-09T18:55:27Z</time></trkpt><trkpt lat="45.33476566578131" lon="9.352173697114429"><ele>79.0</ele><time>2026-04-09T18:55:28Z</time></trkpt><trkpt lat="45.33486239205493" lon="9.351811689741352"><ele>79.0</ele><time>2026-04-09T18:55:29Z</time></trkpt><trkpt lat="45.33495781829721" lon="9.351446671983474"><ele>80.0</ele><time>2026-04-09T18:55:30Z</time></trkpt><trkpt lat="45.33504847868538" lon="9.351081340912007"><ele>81.0</ele><time>2026-04-09T18:55:31Z</time></trkpt><trkpt lat="45.335134207918415" lon="9.350711882822626"><ele>80.5</ele><time>2026-04-09T18:55:32Z</time></trkpt><trkpt lat="45.335212676383165" lon="9.350339441668972"><ele>80.0</ele><time>2026-04-09T18:55:33Z</time></trkpt><trkpt lat="45.335289042159026" lon="9.349965946422616"><ele>79.5</ele><time>2026-04-09T18:55:34Z</time></trkpt><trkpt lat="45.33536219227004" lon="9.349592490782307"><ele>79.0</ele><time>2026-04-09T18:55:35Z</time></trkpt><trkpt lat="45.33543429410587" lon="9.349215338246202"><ele>79.5</ele><time>2026-04-09T18:55:36Z</time></trkpt><trkpt lat="45.335503985466794" lon="9.348837474391235"><ele>80.0</ele><time>2026-04-09T18:55:37Z</time></trkpt><trkpt lat="45.33557428866997" lon="9.348460137387537"><ele>80.0</ele><time>2026-04-09T18:55:38Z</time></trkpt><trkpt lat="45.33563634861717" lon="9.348081577581615"><ele>80.0</ele><time>2026-04-09T18:55:39Z</time></trkpt><trkpt lat="45.33569373976173" lon="9.347704151473657"><ele>80.0</ele><time>2026-04-09T18:55:40Z</time></trkpt><trkpt lat="45.33575031438578" lon="9.347322184020578"><ele>80.0</ele><time>2026-04-09T18:55:41Z</time></trkpt><trkpt lat="45.335808511425505" lon="9.346942177961523"><ele>79.5</ele><time>2026-04-09T18:55:42Z</time></trkpt><trkpt lat="45.335872534080366" lon="9.346563741945333"><ele>79.0</ele><time>2026-04-09T18:55:43Z</time></trkpt><trkpt lat="45.335937778860554" lon="9.346182545359984"><ele>79.0</ele><time>2026-04-09T18:55:44Z</time></trkpt><trkpt lat="45.33600065964202" lon="9.345803769957776"><ele>79.0</ele><time>2026-04-09T18:55:45Z</time></trkpt><trkpt lat="45.33606088330223" lon="9.345425830374678"><ele>79.0</ele><time>2026-04-09T18:55:46Z</time></trkpt><trkpt lat="45.33612110902658" lon="9.345042601837193"><ele>79.0</ele><time>2026-04-09T18:55:47Z</time></trkpt><trkpt lat="45.33617926429767" lon="9.344661029229224"><ele>78.5</ele><time>2026-04-09T18:55:48Z</time></trkpt><trkpt lat="45.33623597535875" lon="9.344283656768594"><ele>78.0</ele><time>2026-04-09T18:55:49Z</time></trkpt><trkpt lat="45.33628902673585" lon="9.343897711533009"><ele>76.5</ele><time>2026-04-09T18:55:50Z</time></trkpt><trkpt lat="45.33633472975869" lon="9.343518679771925"><ele>75.0</ele><time>2026-04-09T18:55:51Z</time></trkpt><trkpt lat="45.336385646781544" lon="9.343132883361388"><ele>76.0</ele><time>2026-04-09T18:55:52Z</time></trkpt><trkpt lat="45.33643989477769" lon="9.342753893462419"><ele>77.0</ele><time>2026-04-09T18:55:53Z</time></trkpt><trkpt lat="45.33649954755505" lon="9.342372096833252"><ele>76.5</ele><time>2026-04-09T18:55:54Z</time></trkpt><trkpt lat="45.33655688834505" lon="9.341992277238093"><ele>76.0</ele><time>2026-04-09T18:55:55Z</time></trkpt><trkpt lat="45.336615250902675" lon="9.34160949414301"><ele>74.5</ele><time>2026-04-09T18:55:56Z</time></trkpt><trkpt lat="45.33667481627432" lon="9.341230816464911"><ele>73.0</ele><time>2026-04-09T18:55:57Z</time></trkpt><trkpt lat="45.33673462545501" lon="9.340851842483008"><ele>74.0</ele><time>2026-04-09T18:55:58Z</time></trkpt><trkpt lat="45.3367962107206" lon="9.340471249685102"><ele>75.0</ele><time>2026-04-09T18:55:59Z</time></trkpt><trkpt lat="45.33685350533958" lon="9.340089604368023"><ele>77.0</ele><time>2026-04-09T18:56:00Z</time></trkpt><trkpt lat="45.33691027709417" lon="9.339710028684046"><ele>79.0</ele><time>2026-04-09T18:56:01Z</time></trkpt><trkpt lat="45.33696811326572" lon="9.339331423437802"><ele>79.0</ele><time>2026-04-09T18:56:02Z</time></trkpt><trkpt lat="45.33702641316371" lon="9.338952239282891"><ele>79.0</ele><time>2026-04-09T18:56:03Z</time></trkpt><trkpt lat="45.33708525840381" lon="9.338571255323359"><ele>80.5</ele><time>2026-04-09T18:56:04Z</time></trkpt><trkpt lat="45.337142061806915" lon="9.338196400930869"><ele>82.0</ele><time>2026-04-09T18:56:05Z</time></trkpt><trkpt lat="45.3371983373232" lon="9.337819696630294"><ele>83.0</ele><time>2026-04-09T18:56:06Z</time></trkpt><trkpt lat="45.337255986865756" lon="9.337443416663499"><ele>84.0</ele><time>2026-04-09T18:56:07Z</time></trkpt><trkpt lat="45.337313543378755" lon="9.337066906347943"><ele>84.0</ele><time>2026-04-09T18:56:08Z</time></trkpt><trkpt lat="45.337369949305675" lon="9.336689263273604"><ele>84.0</ele><time>2026-04-09T18:56:09Z</time></trkpt><trkpt lat="45.33742739210956" lon="9.336308087417"><ele>84.0</ele><time>2026-04-09T18:56:10Z</time></trkpt><trkpt lat="45.337484342781075" lon="9.335931204557484"><ele>84.0</ele><time>2026-04-09T18:56:10.999Z</time></trkpt><trkpt lat="45.337542119315145" lon="9.335550225134677"><ele>83.5</ele><time>2026-04-09T18:56:11.999Z</time></trkpt><trkpt lat="45.33759801952299" lon="9.335169574633829"><ele>83.0</ele><time>2026-04-09T18:56:12.999Z</time></trkpt><trkpt lat="45.33765376449056" lon="9.334791100640587"><ele>83.5</ele><time>2026-04-09T18:56:13.999Z</time></trkpt><trkpt lat="45.337711178612736" lon="9.334408915776882"><ele>84.0</ele><time>2026-04-09T18:56:14.999Z</time></trkpt><trkpt lat="45.33777209260306" lon="9.334030667770428"><ele>84.0</ele><time>2026-04-09T18:56:15.999Z</time></trkpt><trkpt lat="45.33783471671117" lon="9.333649360831865"><ele>84.0</ele><time>2026-04-09T18:56:16.999Z</time></trkpt><trkpt lat="45.33789596803686" lon="9.333268373760516"><ele>83.5</ele><time>2026-04-09T18:56:17.999Z</time></trkpt><trkpt lat="45.337957124907184" lon="9.332888138850041"><ele>83.0</ele><time>2026-04-09T18:56:18.999Z</time></trkpt><trkpt lat="45.33801774750486" lon="9.332505844181863"><ele>84.5</ele><time>2026-04-09T18:56:19.999Z</time></trkpt><trkpt lat="45.33807693020953" lon="9.332125489084195"><ele>86.0</ele><time>2026-04-09T18:56:20.999Z</time></trkpt><trkpt lat="45.338133980521306" lon="9.33174491715294"><ele>86.5</ele><time>2026-04-09T18:56:21.999Z</time></trkpt><trkpt lat="45.33819358037796" lon="9.33136728579711"><ele>87.0</ele><time>2026-04-09T18:56:22.999Z</time></trkpt><trkpt lat="45.33825148781983" lon="9.330994434544886"><ele>87.0</ele><time>2026-04-09T18:56:23.999Z</time></trkpt><trkpt lat="45.33831460953798" lon="9.330612328442369"><ele>87.0</ele><time>2026-04-09T18:56:24.999Z</time></trkpt><trkpt lat="45.338383972174654" lon="9.330235491409809"><ele>87.0</ele><time>2026-04-09T18:56:25.999Z</time></trkpt><trkpt lat="45.33845956900919" lon="9.32986228340545"><ele>87.0</ele><time>2026-04-09T18:56:26.999Z</time></trkpt><trkpt lat="45.33853737920459" lon="9.329488378618715"><ele>87.5</ele><time>2026-04-09T18:56:27.999Z</time></trkpt><trkpt lat="45.33861761673653" lon="9.329116288520328"><ele>88.0</ele><time>2026-04-09T18:56:28.999Z</time></trkpt><trkpt lat="45.338699901809555" lon="9.328741026044089"><ele>87.0</ele><time>2026-04-09T18:56:29.999Z</time></trkpt><trkpt lat="45.338782605215876" lon="9.328369370335313"><ele>86.0</ele><time>2026-04-09T18:56:30.999Z</time></trkpt><trkpt lat="45.33886833518819" lon="9.3279994179375"><ele>86.0</ele><time>2026-04-09T18:56:31.999Z</time></trkpt><trkpt lat="45.33895910824332" lon="9.327631663669639"><ele>86.0</ele><time>2026-04-09T18:56:32.999Z</time></trkpt><trkpt lat="45.339052373965316" lon="9.32726411591707"><ele>86.0</ele><time>2026-04-09T18:56:33.999Z</time></trkpt><trkpt lat="45.33914894718233" lon="9.326907366164795"><ele>86.0</ele><time>2026-04-09T18:56:34.999Z</time></trkpt><trkpt lat="45.33925592759753" lon="9.32653630166915"><ele>87.0</ele><time>2026-04-09T18:56:35.999Z</time></trkpt><trkpt lat="45.33935620767549" lon="9.326175100479347"><ele>88.0</ele><time>2026-04-09T18:56:36.999Z</time></trkpt><trkpt lat="45.33946431902322" lon="9.325814951165885"><ele>88.0</ele><time>2026-04-09T18:56:37.999Z</time></trkpt><trkpt lat="45.33957690178152" lon="9.325461480605078"><ele>88.0</ele><time>2026-04-09T18:56:38.999Z</time></trkpt><trkpt lat="45.33969219207618" lon="9.32511082581575"><ele>88.5</ele><time>2026-04-09T18:56:39.999Z</time></trkpt><trkpt lat="45.3398119904586" lon="9.324756643191993"><ele>89.0</ele><time>2026-04-09T18:56:40.999Z</time></trkpt><trkpt lat="45.339931183393944" lon="9.32440672480764"><ele>89.0</ele><time>2026-04-09T18:56:41.999Z</time></trkpt><trkpt lat="45.34005391096928" lon="9.324058231303393"><ele>89.0</ele><time>2026-04-09T18:56:42.999Z</time></trkpt><trkpt lat="45.34017953864341" lon="9.323715486974491"><ele>88.5</ele><time>2026-04-09T18:56:43.999Z</time></trkpt><trkpt lat="45.340310076484954" lon="9.323369564949388"><ele>88.0</ele><time>2026-04-09T18:56:44.999Z</time></trkpt><trkpt lat="45.34044237584601" lon="9.323031097454622"><ele>88.5</ele><time>2026-04-09T18:56:45.999Z</time></trkpt><trkpt lat="45.34058052478788" lon="9.322693411724808"><ele>89.0</ele><time>2026-04-09T18:56:46.999Z</time></trkpt><trkpt lat="45.34071916248816" lon="9.322358510929933"><ele>89.5</ele><time>2026-04-09T18:56:47.999Z</time></trkpt><trkpt lat="45.34086121319357" lon="9.32202361252951"><ele>90.0</ele><time>2026-04-09T18:56:48.999Z</time></trkpt><trkpt lat="45.341003154481555" lon="9.32169913265629"><ele>90.5</ele><time>2026-04-09T18:56:49.999Z</time></trkpt><trkpt lat="45.34116257231358" lon="9.321371922374071"><ele>91.0</ele><time>2026-04-09T18:56:50.999Z</time></trkpt><trkpt lat="45.341306683565676" lon="9.321034754949547"><ele>90.0</ele><time>2026-04-09T18:56:51.999Z</time></trkpt><trkpt lat="45.34146144647589" lon="9.320714785136653"><ele>89.0</ele><time>2026-04-09T18:56:52.999Z</time></trkpt><trkpt lat="45.3416211749199" lon="9.320396999863856"><ele>89.0</ele><time>2026-04-09T18:56:53.999Z</time></trkpt><trkpt lat="45.34178060668795" lon="9.320079976645692"><ele>89.0</ele><time>2026-04-09T18:56:54.999Z</time></trkpt><trkpt lat="45.34194404777266" lon="9.319766646835904"><ele>89.0</ele><time>2026-04-09T18:56:55.999Z</time></trkpt><trkpt lat="45.3421092467158" lon="9.319457781732636"><ele>89.0</ele><time>2026-04-09T18:56:56.999Z</time></trkpt><trkpt lat="45.34227729204774" lon="9.319150630420607"><ele>90.0</ele><time>2026-04-09T18:56:57.999Z</time></trkpt><trkpt lat="45.342452074057505" lon="9.318841996720582"><ele>91.0</ele><time>2026-04-09T18:56:58.999Z</time></trkpt><trkpt lat="45.34262450119072" lon="9.318538379889901"><ele>91.0</ele><time>2026-04-09T18:56:59.999Z</time></trkpt><trkpt lat="45.34279683972296" lon="9.318237088436021"><ele>91.0</ele><time>2026-04-09T18:57:00.999Z</time></trkpt><trkpt lat="45.34297502558517" lon="9.317941339873405"><ele>90.0</ele><time>2026-04-09T18:57:01.999Z</time></trkpt><trkpt lat="45.343155208253634" lon="9.317652869899147"><ele>89.0</ele><time>2026-04-09T18:57:02.999Z</time></trkpt><trkpt lat="45.3433407537618" lon="9.317365261126444"><ele>89.0</ele><time>2026-04-09T18:57:03.999Z</time></trkpt><trkpt lat="45.343527928067964" lon="9.317080318825512"><ele>89.0</ele><time>2026-04-09T18:57:04.999Z</time></trkpt><trkpt lat="45.3437164030409" lon="9.316798485847348"><ele>89.0</ele><time>2026-04-09T18:57:05.999Z</time></trkpt><trkpt lat="45.34390865824773" lon="9.316515905067158"><ele>89.0</ele><time>2026-04-09T18:57:06.999Z</time></trkpt><trkpt lat="45.344102270387076" lon="9.316237876216876"><ele>89.0</ele><time>2026-04-09T18:57:07.999Z</time></trkpt><trkpt lat="45.34429533045576" lon="9.315964759929772"><ele>89.0</ele><time>2026-04-09T18:57:08.999Z</time></trkpt><trkpt lat="45.34449255158064" lon="9.315693263363189"><ele>89.0</ele><time>2026-04-09T18:57:09.999Z</time></trkpt><trkpt lat="45.344690650053685" lon="9.315429660285238"><ele>89.0</ele><time>2026-04-09T18:57:10.999Z</time></trkpt><trkpt lat="45.34489465365475" lon="9.315167175107405"><ele>89.0</ele><time>2026-04-09T18:57:11.999Z</time></trkpt><trkpt lat="45.34509937222411" lon="9.31491369501806"><ele>89.0</ele><time>2026-04-09T18:57:12.999Z</time></trkpt><trkpt lat="45.34530928266324" lon="9.31466028384793"><ele>89.0</ele><time>2026-04-09T18:57:13.999Z</time></trkpt><trkpt lat="45.34551834510524" lon="9.314412440261002"><ele>89.0</ele><time>2026-04-09T18:57:14.999Z</time></trkpt><trkpt lat="45.34573031929874" lon="9.314169797518733"><ele>89.0</ele><time>2026-04-09T18:57:15.999Z</time></trkpt><trkpt lat="45.34594756392628" lon="9.313926880427767"><ele>89.0</ele><time>2026-04-09T18:57:16.999Z</time></trkpt><trkpt lat="45.346162846717476" lon="9.313686611107983"><ele>89.0</ele><time>2026-04-09T18:57:17.999Z</time></trkpt><trkpt lat="45.346379067976095" lon="9.31344194208578"><ele>89.0</ele><time>2026-04-09T18:57:18.999Z</time></trkpt><trkpt lat="45.34659371000825" lon="9.313203317339434"><ele>90.5</ele><time>2026-04-09T18:57:19.999Z</time></trkpt><trkpt lat="45.34680271137406" lon="9.312966820653497"><ele>92.0</ele><time>2026-04-09T18:57:20.999Z</time></trkpt><trkpt lat="45.34699577020844" lon="9.31274653380754"><ele>92.0</ele><time>2026-04-09T18:57:21.999Z</time></trkpt><trkpt lat="45.34717317552739" lon="9.312540603629426"><ele>92.0</ele><time>2026-04-09T18:57:22.998Z</time></trkpt><trkpt lat="45.34733861064891" lon="9.312338786838609"><ele>92.0</ele><time>2026-04-09T18:57:23.998Z</time></trkpt><trkpt lat="45.34750507784512" lon="9.312151084748988"><ele>91.0</ele><time>2026-04-09T18:57:24.998Z</time></trkpt><trkpt lat="45.347655523081734" lon="9.311972597367248"><ele>90.0</ele><time>2026-04-09T18:57:25.998Z</time></trkpt><trkpt lat="45.34779604423611" lon="9.31180405948669"><ele>89.0</ele><time>2026-04-09T18:57:27Z</time></trkpt><trkpt lat="45.34792895229153" lon="9.311642398364766"><ele>89.0</ele><time>2026-04-09T18:57:28Z</time></trkpt><trkpt lat="45.3480540750335" lon="9.311487207810526"><ele>89.0</ele><time>2026-04-09T18:57:29Z</time></trkpt><trkpt lat="45.348168426640754" lon="9.311333565273372"><ele>89.0</ele><time>2026-04-09T18:57:30Z</time></trkpt><trkpt lat="45.348276062489305" lon="9.311182196599779"><ele>89.0</ele><time>2026-04-09T18:57:31Z</time></trkpt><trkpt lat="45.34838100840448" lon="9.311034780415113"><ele>89.0</ele><time>2026-04-09T18:57:32Z</time></trkpt><trkpt lat="45.348486942430505" lon="9.310885259081184"><ele>89.0</ele><time>2026-04-09T18:57:33Z</time></trkpt><trkpt lat="45.34858724209188" lon="9.31074544564933"><ele>89.0</ele><time>2026-04-09T18:57:34Z</time></trkpt><trkpt lat="45.34867982314372" lon="9.31061355406446"><ele>89.5</ele><time>2026-04-09T18:57:35Z</time></trkpt><trkpt lat="45.34876907360322" lon="9.310492405179625"><ele>90.0</ele><time>2026-04-09T18:57:36Z</time></trkpt><trkpt lat="45.348859306543396" lon="9.310384343565614"><ele>90.5</ele><time>2026-04-09T18:57:37Z</time></trkpt><trkpt lat="45.34894842115769" lon="9.310286588760595"><ele>91.0</ele><time>2026-04-09T18:57:38Z</time></trkpt><trkpt lat="45.3490308816581" lon="9.310196839930132"><ele>91.4</ele><time>2026-04-09T18:57:39Z</time></trkpt><trkpt lat="45.34910671460771" lon="9.310113545962517"><ele>91.8</ele><time>2026-04-09T18:57:40Z</time></trkpt><trkpt lat="45.34916819855198" lon="9.310046284125345"><ele>92.2</ele><time>2026-04-09T18:57:41Z</time></trkpt><trkpt lat="45.349295205669" lon="9.310127379327884"><ele>92.60000000000001</ele><time>2026-04-09T18:57:42Z</time></trkpt><trkpt lat="45.34936133292921" lon="9.310050056434214"><ele>93.0</ele><time>2026-04-09T18:57:44Z</time></trkpt><trkpt lat="45.349413720217264" lon="9.309987105612018"><ele>92.66666666666667</ele><time>2026-04-09T18:57:50Z</time></trkpt><trkpt lat="45.34963081543246" lon="9.309716938180353"><ele>92.33333333333334</ele><time>2026-04-09T18:59:15.999Z</time></trkpt><trkpt lat="45.34972455518038" lon="9.309596959425184"><ele>92.0</ele><time>2026-04-09T18:59:16.999Z</time></trkpt><trkpt lat="45.349816255713115" lon="9.309477443762766"><ele>91.33333333333334</ele><time>2026-04-09T18:59:17.999Z</time></trkpt><trkpt lat="45.34993279497005" lon="9.309324516054598"><ele>90.66666666666667</ele><time>2026-04-09T18:59:18.999Z</time></trkpt><trkpt lat="45.35006611560251" lon="9.309149175707475"><ele>90.0</ele><time>2026-04-09T18:59:19.999Z</time></trkpt><trkpt lat="45.35020449849706" lon="9.30896710385833"><ele>89.66666666666667</ele><time>2026-04-09T18:59:20.999Z</time></trkpt><trkpt lat="45.35034647621152" lon="9.30878104235343"><ele>89.33333333333334</ele><time>2026-04-09T18:59:21.999Z</time></trkpt><trkpt lat="45.35049373379026" lon="9.308588269000532"><ele>89.0</ele><time>2026-04-09T18:59:22.999Z</time></trkpt><trkpt lat="45.350646634632554" lon="9.308390890802105"><ele>89.33333333333334</ele><time>2026-04-09T18:59:23.999Z</time></trkpt><trkpt lat="45.35080445471058" lon="9.308187830005222"><ele>89.66666666666667</ele><time>2026-04-09T18:59:24.999Z</time></trkpt><trkpt lat="45.350975447412836" lon="9.308000002298165"><ele>90.0</ele><time>2026-04-09T18:59:25.999Z</time></trkpt><trkpt lat="45.35114193066612" lon="9.307804110021237"><ele>90.0</ele><time>2026-04-09T18:59:26.999Z</time></trkpt><trkpt lat="45.351320975321485" lon="9.307603931107348"><ele>90.0</ele><time>2026-04-09T18:59:27.998Z</time></trkpt><trkpt lat="45.35149251397138" lon="9.307397698051721"><ele>90.0</ele><time>2026-04-09T18:59:28.998Z</time></trkpt><trkpt lat="45.35167025644095" lon="9.307189651806594"><ele>90.0</ele><time>2026-04-09T18:59:29.998Z</time></trkpt><trkpt lat="45.351849737788555" lon="9.306978281824895"><ele>90.0</ele><time>2026-04-09T18:59:30.998Z</time></trkpt><trkpt lat="45.35203516308315" lon="9.306765402325185"><ele>90.0</ele><time>2026-04-09T18:59:31.998Z</time></trkpt><trkpt lat="45.352216127154435" lon="9.306554086702121"><ele>90.5</ele><time>2026-04-09T18:59:33Z</time></trkpt><trkpt lat="45.35239952904829" lon="9.306338793601421"><ele>91.0</ele><time>2026-04-09T18:59:34Z</time></trkpt><trkpt lat="45.352584114800344" lon="9.306118420023418"><ele>91.0</ele><time>2026-04-09T18:59:35Z</time></trkpt><trkpt lat="45.35277190212984" lon="9.305895580856042"><ele>91.0</ele><time>2026-04-09T18:59:36Z</time></trkpt><trkpt lat="45.352958186849534" lon="9.305679774687352"><ele>91.0</ele><time>2026-04-09T18:59:37Z</time></trkpt><trkpt lat="45.35314735440401" lon="9.305458974376158"><ele>91.0</ele><time>2026-04-09T18:59:38Z</time></trkpt><trkpt lat="45.35333379592099" lon="9.305240958570007"><ele>91.0</ele><time>2026-04-09T18:59:39Z</time></trkpt><trkpt lat="45.35352036728162" lon="9.305021471522105"><ele>91.0</ele><time>2026-04-09T18:59:40Z</time></trkpt><trkpt lat="45.35370487166686" lon="9.304802899033088"><ele>89.5</ele><time>2026-04-09T18:59:41Z</time></trkpt><trkpt lat="45.35388995491112" lon="9.304586226205364"><ele>88.0</ele><time>2026-04-09T18:59:42Z</time></trkpt><trkpt lat="45.354077099424565" lon="9.30436723290063"><ele>88.0</ele><time>2026-04-09T18:59:43Z</time></trkpt><trkpt lat="45.354265771924304" lon="9.304150129330553"><ele>88.0</ele><time>2026-04-09T18:59:44Z</time></trkpt><trkpt lat="45.35445699603938" lon="9.303925228259251"><ele>88.5</ele><time>2026-04-09T18:59:45Z</time></trkpt><trkpt lat="45.354654346474526" lon="9.303695514873851"><ele>89.0</ele><time>2026-04-09T18:59:46Z</time></trkpt><trkpt lat="45.35485284767261" lon="9.30346660774122"><ele>90.0</ele><time>2026-04-09T18:59:47Z</time></trkpt><trkpt lat="45.35505395296129" lon="9.303233478528934"><ele>91.0</ele><time>2026-04-09T18:59:48Z</time></trkpt><trkpt lat="45.35525452359508" lon="9.303010932820557"><ele>91.0</ele><time>2026-04-09T18:59:49Z</time></trkpt><trkpt lat="45.35547056933115" lon="9.302782438853109"><ele>91.0</ele><time>2026-04-09T18:59:50Z</time></trkpt><trkpt lat="45.3556677298225" lon="9.302526844988195"><ele>91.0</ele><time>2026-04-09T18:59:51Z</time></trkpt><trkpt lat="45.35587390413666" lon="9.302284833971148"><ele>91.0</ele><time>2026-04-09T18:59:52Z</time></trkpt><trkpt lat="45.356079164111755" lon="9.302046226517616"><ele>91.0</ele><time>2026-04-09T18:59:53Z</time></trkpt><trkpt lat="45.356287592074345" lon="9.30180226259333"><ele>91.0</ele><time>2026-04-09T18:59:54Z</time></trkpt><trkpt lat="45.356494911370476" lon="9.301556615322198"><ele>91.0</ele><time>2026-04-09T18:59:55Z</time></trkpt><trkpt lat="45.35669987199924" lon="9.301310862205753"><ele>91.0</ele><time>2026-04-09T18:59:56Z</time></trkpt><trkpt lat="45.356906616150226" lon="9.301063288477902"><ele>91.0</ele><time>2026-04-09T18:59:57Z</time></trkpt><trkpt lat="45.35711634386377" lon="9.300815918014099"><ele>91.0</ele><time>2026-04-09T18:59:58Z</time></trkpt><trkpt lat="45.357327601388064" lon="9.300570785824561"><ele>92.5</ele><time>2026-04-09T18:59:59Z</time></trkpt><trkpt lat="45.35754104806936" lon="9.300321065409758"><ele>94.0</ele><time>2026-04-09T19:00:00Z</time></trkpt><trkpt lat="45.35775119965454" lon="9.300074447179346"><ele>94.0</ele><time>2026-04-09T19:00:01Z</time></trkpt><trkpt lat="45.35796150831252" lon="9.299827940756805"><ele>94.0</ele><time>2026-04-09T19:00:02Z</time></trkpt><trkpt lat="45.358174850794654" lon="9.299576481835887"><ele>94.0</ele><time>2026-04-09T19:00:03Z</time></trkpt><trkpt lat="45.35838408627269" lon="9.299329152785946"><ele>94.0</ele><time>2026-04-09T19:00:04Z</time></trkpt><trkpt lat="45.358594609098205" lon="9.299079278952025"><ele>93.0</ele><time>2026-04-09T19:00:05Z</time></trkpt><trkpt lat="45.358805412415414" lon="9.298828637885363"><ele>92.0</ele><time>2026-04-09T19:00:06Z</time></trkpt><trkpt lat="45.359016998968464" lon="9.298581729589802"><ele>91.5</ele><time>2026-04-09T19:00:07Z</time></trkpt><trkpt lat="45.35923108818781" lon="9.298335451936987"><ele>91.0</ele><time>2026-04-09T19:00:08Z</time></trkpt><trkpt lat="45.35944388868975" lon="9.298088217226717"><ele>91.0</ele><time>2026-04-09T19:00:09Z</time></trkpt><trkpt lat="45.359655110700686" lon="9.29784416098266"><ele>91.0</ele><time>2026-04-09T19:00:10Z</time></trkpt><trkpt lat="45.35986636149609" lon="9.297593823976662"><ele>91.0</ele><time>2026-04-09T19:00:11Z</time></trkpt><trkpt lat="45.36007845312654" lon="9.297343272168106"><ele>91.0</ele><time>2026-04-09T19:00:12Z</time></trkpt><trkpt lat="45.36028776071213" lon="9.2970954997802"><ele>91.0</ele><time>2026-04-09T19:00:13Z</time></trkpt><trkpt lat="45.360499694271" lon="9.296849338266101"><ele>91.0</ele><time>2026-04-09T19:00:14Z</time></trkpt><trkpt lat="45.36071265639417" lon="9.29660279130061"><ele>91.0</ele><time>2026-04-09T19:00:15Z</time></trkpt><trkpt lat="45.36092489016949" lon="9.296356825812497"><ele>91.0</ele><time>2026-04-09T19:00:16Z</time></trkpt><trkpt lat="45.361136376621616" lon="9.296109007014032"><ele>91.0</ele><time>2026-04-09T19:00:17Z</time></trkpt><trkpt lat="45.36134645651934" lon="9.295861490846974"><ele>91.0</ele><time>2026-04-09T19:00:18Z</time></trkpt><trkpt lat="45.361558136277715" lon="9.295613856077086"><ele>91.0</ele><time>2026-04-09T19:00:19Z</time></trkpt><trkpt lat="45.36176887870907" lon="9.29536542724206"><ele>91.0</ele><time>2026-04-09T19:00:20Z</time></trkpt><trkpt lat="45.36198090580687" lon="9.295117271138412"><ele>91.0</ele><time>2026-04-09T19:00:21Z</time></trkpt><trkpt lat="45.36218974999608" lon="9.29486696490679"><ele>91.0</ele><time>2026-04-09T19:00:22Z</time></trkpt><trkpt lat="45.36240048251092" lon="9.294619015087605"><ele>91.0</ele><time>2026-04-09T19:00:23Z</time></trkpt><trkpt lat="45.362611022894626" lon="9.29436796066476"><ele>91.0</ele><time>2026-04-09T19:00:23.999Z</time></trkpt><trkpt lat="45.362822013828826" lon="9.294119214254277"><ele>91.5</ele><time>2026-04-09T19:00:24.999Z</time></trkpt><trkpt lat="45.363036271206454" lon="9.293871047898124"><ele>92.0</ele><time>2026-04-09T19:00:25.999Z</time></trkpt><trkpt lat="45.36324808089161" lon="9.293627377893937"><ele>92.0</ele><time>2026-04-09T19:00:26.999Z</time></trkpt><trkpt lat="45.363459773288426" lon="9.293382075921748"><ele>92.0</ele><time>2026-04-09T19:00:27.999Z</time></trkpt><trkpt lat="45.36367028140264" lon="9.293134639075175"><ele>91.5</ele><time>2026-04-09T19:00:28.999Z</time></trkpt><trkpt lat="45.36388296118341" lon="9.2928810927475"><ele>91.0</ele><time>2026-04-09T19:00:29.999Z</time></trkpt><trkpt lat="45.364095170137475" lon="9.29263017342027"><ele>91.0</ele><time>2026-04-09T19:00:30.999Z</time></trkpt><trkpt lat="45.36430542481204" lon="9.29238080595318"><ele>91.0</ele><time>2026-04-09T19:00:31.999Z</time></trkpt><trkpt lat="45.36451779788077" lon="9.292133280501657"><ele>91.0</ele><time>2026-04-09T19:00:32.999Z</time></trkpt><trkpt lat="45.36472937041918" lon="9.291883781541175"><ele>91.0</ele><time>2026-04-09T19:00:33.999Z</time></trkpt><trkpt lat="45.36494156917424" lon="9.291635690089693"><ele>92.0</ele><time>2026-04-09T19:00:34.999Z</time></trkpt><trkpt lat="45.36515298133119" lon="9.291390330208229"><ele>93.0</ele><time>2026-04-09T19:00:35.999Z</time></trkpt><trkpt lat="45.365365928446515" lon="9.29114309569441"><ele>92.5</ele><time>2026-04-09T19:00:36.999Z</time></trkpt><trkpt lat="45.36557969343997" lon="9.290895253840498"><ele>92.0</ele><time>2026-04-09T19:00:37.999Z</time></trkpt><trkpt lat="45.36578899113933" lon="9.290649000053866"><ele>92.5</ele><time>2026-04-09T19:00:38.999Z</time></trkpt><trkpt lat="45.36600206311077" lon="9.290403712793442"><ele>93.0</ele><time>2026-04-09T19:00:39.999Z</time></trkpt><trkpt lat="45.366216210113194" lon="9.29015952635627"><ele>92.5</ele><time>2026-04-09T19:00:40.999Z</time></trkpt><trkpt lat="45.36642648378203" lon="9.289914269374819"><ele>92.0</ele><time>2026-04-09T19:00:41.999Z</time></trkpt><trkpt lat="45.366636994777416" lon="9.289665404193252"><ele>92.0</ele><time>2026-04-09T19:00:42.999Z</time></trkpt><trkpt lat="45.36684586646203" lon="9.289412693350538"><ele>92.0</ele><time>2026-04-09T19:00:43.999Z</time></trkpt><trkpt lat="45.36705532336329" lon="9.289161013468751"><ele>92.0</ele><time>2026-04-09T19:00:44.999Z</time></trkpt><trkpt lat="45.36726501032299" lon="9.288911446023576"><ele>92.0</ele><time>2026-04-09T19:00:45.999Z</time></trkpt><trkpt lat="45.36747685766931" lon="9.288660932777267"><ele>92.0</ele><time>2026-04-09T19:00:46.999Z</time></trkpt><trkpt lat="45.36769101305159" lon="9.288412950195486"><ele>92.0</ele><time>2026-04-09T19:00:47.999Z</time></trkpt><trkpt lat="45.36790156721051" lon="9.288165286637618"><ele>92.5</ele><time>2026-04-09T19:00:48.999Z</time></trkpt><trkpt lat="45.36811282026815" lon="9.287917268599355"><ele>93.0</ele><time>2026-04-09T19:00:49.999Z</time></trkpt><trkpt lat="45.36832540192128" lon="9.28766738079608"><ele>93.0</ele><time>2026-04-09T19:00:50.999Z</time></trkpt><trkpt lat="45.36853704905126" lon="9.28741987663888"><ele>93.0</ele><time>2026-04-09T19:00:51.999Z</time></trkpt><trkpt lat="45.368748523437965" lon="9.287171715978644"><ele>93.0</ele><time>2026-04-09T19:00:52.999Z</time></trkpt><trkpt lat="45.36895955369514" lon="9.286926142718317"><ele>93.0</ele><time>2026-04-09T19:00:53.999Z</time></trkpt><trkpt lat="45.36917221860261" lon="9.28667671791345"><ele>93.0</ele><time>2026-04-09T19:00:54.999Z</time></trkpt><trkpt lat="45.369381093283984" lon="9.28643843644936"><ele>93.0</ele><time>2026-04-09T19:00:55.999Z</time></trkpt><trkpt lat="45.36959531637233" lon="9.286182283601898"><ele>93.0</ele><time>2026-04-09T19:00:56.999Z</time></trkpt><trkpt lat="45.36980686566534" lon="9.285933489700456"><ele>93.0</ele><time>2026-04-09T19:00:57.999Z</time></trkpt><trkpt lat="45.37001663777986" lon="9.285684657953956"><ele>93.0</ele><time>2026-04-09T19:00:58.999Z</time></trkpt><trkpt lat="45.37022931252955" lon="9.285436356965347"><ele>93.0</ele><time>2026-04-09T19:00:59.999Z</time></trkpt><trkpt lat="45.37044110617415" lon="9.285188171550985"><ele>93.0</ele><time>2026-04-09T19:01:00.999Z</time></trkpt><trkpt lat="45.37065063369552" lon="9.284939569993917"><ele>93.0</ele><time>2026-04-09T19:01:01.999Z</time></trkpt><trkpt lat="45.37086078595621" lon="9.284691209123682"><ele>93.0</ele><time>2026-04-09T19:01:02.999Z</time></trkpt><trkpt lat="45.37106807304192" lon="9.284445409015483"><ele>93.0</ele><time>2026-04-09T19:01:03.999Z</time></trkpt><trkpt lat="45.37128144807199" lon="9.284199579192165"><ele>93.5</ele><time>2026-04-09T19:01:04.999Z</time></trkpt><trkpt lat="45.37149286147782" lon="9.283952714546755"><ele>94.0</ele><time>2026-04-09T19:01:05.999Z</time></trkpt><trkpt lat="45.371704264984196" lon="9.28370725303507"><ele>94.0</ele><time>2026-04-09T19:01:06.999Z</time></trkpt><trkpt lat="45.37191435756051" lon="9.283460681300994"><ele>94.0</ele><time>2026-04-09T19:01:07.999Z</time></trkpt><trkpt lat="45.372128424215774" lon="9.28321312059794"><ele>93.5</ele><time>2026-04-09T19:01:08.999Z</time></trkpt><trkpt lat="45.37234169507062" lon="9.282965782907016"><ele>93.0</ele><time>2026-04-09T19:01:09.999Z</time></trkpt><trkpt lat="45.372553912143445" lon="9.282715480627813"><ele>93.0</ele><time>2026-04-09T19:01:10.999Z</time></trkpt><trkpt lat="45.37276453732668" lon="9.282468972163896"><ele>93.0</ele><time>2026-04-09T19:01:11.999Z</time></trkpt><trkpt lat="45.37297624602593" lon="9.282219853472657"><ele>93.0</ele><time>2026-04-09T19:01:12.999Z</time></trkpt><trkpt lat="45.37318922575588" lon="9.281972228144898"><ele>93.0</ele><time>2026-04-09T19:01:13.999Z</time></trkpt><trkpt lat="45.373401152894026" lon="9.281723558279035"><ele>93.0</ele><time>2026-04-09T19:01:14.999Z</time></trkpt><trkpt lat="45.373611801497965" lon="9.281476594639827"><ele>93.0</ele><time>2026-04-09T19:01:15.999Z</time></trkpt><trkpt lat="45.37382548560502" lon="9.281230681505255"><ele>93.0</ele><time>2026-04-09T19:01:16.999Z</time></trkpt><trkpt lat="45.37403764793935" lon="9.280984898103585"><ele>93.0</ele><time>2026-04-09T19:01:17.999Z</time></trkpt><trkpt lat="45.37424734187467" lon="9.280737867389854"><ele>94.0</ele><time>2026-04-09T19:01:18.999Z</time></trkpt><trkpt lat="45.37446037594669" lon="9.28049153960658"><ele>95.0</ele><time>2026-04-09T19:01:19.999Z</time></trkpt><trkpt lat="45.37467076214328" lon="9.280243671450696"><ele>95.0</ele><time>2026-04-09T19:01:20.999Z</time></trkpt><trkpt lat="45.374882139387275" lon="9.279994244726641"><ele>95.0</ele><time>2026-04-09T19:01:21.999Z</time></trkpt><trkpt lat="45.37509210170069" lon="9.27974703455955"><ele>95.0</ele><time>2026-04-09T19:01:22.999Z</time></trkpt><trkpt lat="45.37530195310428" lon="9.279498274037595"><ele>95.0</ele><time>2026-04-09T19:01:23.999Z</time></trkpt><trkpt lat="45.375511967024096" lon="9.279251447842412"><ele>95.0</ele><time>2026-04-09T19:01:24.999Z</time></trkpt><trkpt lat="45.37572248475928" lon="9.27900319315518"><ele>95.0</ele><time>2026-04-09T19:01:25.999Z</time></trkpt><trkpt lat="45.37593520024465" lon="9.278753291369528"><ele>95.0</ele><time>2026-04-09T19:01:26.999Z</time></trkpt><trkpt lat="45.376147273181395" lon="9.278509441530186"><ele>95.0</ele><time>2026-04-09T19:01:27.999Z</time></trkpt><trkpt lat="45.37636121995146" lon="9.278260364610784"><ele>95.5</ele><time>2026-04-09T19:01:28.999Z</time></trkpt><trkpt lat="45.37657362598959" lon="9.2780136097725"><ele>96.0</ele><time>2026-04-09T19:01:29.999Z</time></trkpt><trkpt lat="45.37678518634865" lon="9.277765023983376"><ele>96.0</ele><time>2026-04-09T19:01:30.999Z</time></trkpt><trkpt lat="45.37699607854437" lon="9.2775154168656"><ele>96.0</ele><time>2026-04-09T19:01:31.999Z</time></trkpt><trkpt lat="45.377205233687135" lon="9.277265723636104"><ele>96.0</ele><time>2026-04-09T19:01:32.999Z</time></trkpt><trkpt lat="45.377416122472184" lon="9.277015337453935"><ele>96.0</ele><time>2026-04-09T19:01:33.999Z</time></trkpt><trkpt lat="45.377627330533585" lon="9.276764621319028"><ele>96.0</ele><time>2026-04-09T19:01:34.999Z</time></trkpt><trkpt lat="45.37783764924711" lon="9.276513894653595"><ele>96.0</ele><time>2026-04-09T19:01:35.999Z</time></trkpt><trkpt lat="45.378050308385944" lon="9.276264292636505"><ele>96.0</ele><time>2026-04-09T19:01:36.998Z</time></trkpt><trkpt lat="45.37826129065047" lon="9.276014668258858"><ele>96.0</ele><time>2026-04-09T19:01:37.998Z</time></trkpt><trkpt lat="45.37847279818486" lon="9.275765900219152"><ele>96.0</ele><time>2026-04-09T19:01:39Z</time></trkpt><trkpt lat="45.378685332029306" lon="9.275516975414025"><ele>96.0</ele><time>2026-04-09T19:01:40Z</time></trkpt><trkpt lat="45.37889711236249" lon="9.275272164796952"><ele>95.5</ele><time>2026-04-09T19:01:41Z</time></trkpt><trkpt lat="45.3790995470452" lon="9.27500952818534"><ele>95.0</ele><time>2026-04-09T19:01:42Z</time></trkpt><trkpt lat="45.37931177296472" lon="9.274753531896161"><ele>94.5</ele><time>2026-04-09T19:01:43Z</time></trkpt><trkpt lat="45.379529079882275" lon="9.2745217816654"><ele>94.0</ele><time>2026-04-09T19:01:44Z</time></trkpt><trkpt lat="45.37974119499532" lon="9.274272163500937"><ele>94.0</ele><time>2026-04-09T19:01:45Z</time></trkpt><trkpt lat="45.379950721308866" lon="9.274026152008727"><ele>94.0</ele><time>2026-04-09T19:01:46Z</time></trkpt><trkpt lat="45.38016063834743" lon="9.273776037134029"><ele>94.0</ele><time>2026-04-09T19:01:47Z</time></trkpt><trkpt lat="45.380372764876626" lon="9.273527180605472"><ele>94.0</ele><time>2026-04-09T19:01:48Z</time></trkpt><trkpt lat="45.380583466543065" lon="9.273279846462428"><ele>95.0</ele><time>2026-04-09T19:01:49Z</time></trkpt><trkpt lat="45.38079301367818" lon="9.273035807385634"><ele>96.0</ele><time>2026-04-09T19:01:50Z</time></trkpt><trkpt lat="45.38100500677098" lon="9.272785260529599"><ele>96.0</ele><time>2026-04-09T19:01:51Z</time></trkpt><trkpt lat="45.381216547793876" lon="9.27253635051074"><ele>96.0</ele><time>2026-04-09T19:01:52Z</time></trkpt><trkpt lat="45.38142782638012" lon="9.272288887783304"><ele>96.0</ele><time>2026-04-09T19:01:53Z</time></trkpt><trkpt lat="45.38163915859355" lon="9.272041682737107"><ele>96.0</ele><time>2026-04-09T19:01:54Z</time></trkpt><trkpt lat="45.38185037227657" lon="9.271794091605601"><ele>96.0</ele><time>2026-04-09T19:01:55Z</time></trkpt><trkpt lat="45.38206213600006" lon="9.271546149777206"><ele>96.0</ele><time>2026-04-09T19:01:56Z</time></trkpt><trkpt lat="45.382272869618106" lon="9.271297812487722"><ele>95.0</ele><time>2026-04-09T19:01:57Z</time></trkpt><trkpt lat="45.38248440505559" lon="9.271049963653667"><ele>94.0</ele><time>2026-04-09T19:01:58Z</time></trkpt><trkpt lat="45.382697896337554" lon="9.270802381688616"><ele>94.0</ele><time>2026-04-09T19:01:59Z</time></trkpt><trkpt lat="45.38290940054872" lon="9.27055609872117"><ele>94.0</ele><time>2026-04-09T19:02:00Z</time></trkpt><trkpt lat="45.383122343780656" lon="9.270305709326037"><ele>95.5</ele><time>2026-04-09T19:02:01Z</time></trkpt><trkpt lat="45.38333392011687" lon="9.270055845363988"><ele>97.0</ele><time>2026-04-09T19:02:02Z</time></trkpt><trkpt lat="45.383543867289994" lon="9.269808530924387"><ele>97.0</ele><time>2026-04-09T19:02:03Z</time></trkpt><trkpt lat="45.3837568615131" lon="9.26955874177534"><ele>97.0</ele><time>2026-04-09T19:02:04Z</time></trkpt><trkpt lat="45.38396944039174" lon="9.269290050872566"><ele>97.5</ele><time>2026-04-09T19:02:05Z</time></trkpt><trkpt lat="45.384183384984624" lon="9.269052393651073"><ele>98.0</ele><time>2026-04-09T19:02:06Z</time></trkpt><trkpt lat="45.38439365662206" lon="9.268806655738473"><ele>98.0</ele><time>2026-04-09T19:02:07Z</time></trkpt><trkpt lat="45.38460863900375" lon="9.268576712979677"><ele>98.0</ele><time>2026-04-09T19:02:08Z</time></trkpt><trkpt lat="45.38481910481746" lon="9.268336190284348"><ele>97.5</ele><time>2026-04-09T19:02:09Z</time></trkpt><trkpt lat="45.38502709994247" lon="9.268071577368174"><ele>97.0</ele><time>2026-04-09T19:02:10Z</time></trkpt><trkpt lat="45.38523859523443" lon="9.267821402722095"><ele>97.0</ele><time>2026-04-09T19:02:11Z</time></trkpt><trkpt lat="45.38545003425708" lon="9.267572172128522"><ele>97.0</ele><time>2026-04-09T19:02:12Z</time></trkpt><trkpt lat="45.38565990314552" lon="9.267322852095294"><ele>97.0</ele><time>2026-04-09T19:02:13Z</time></trkpt><trkpt lat="45.38587072857542" lon="9.267074776274711"><ele>97.0</ele><time>2026-04-09T19:02:14Z</time></trkpt><trkpt lat="45.38608165232359" lon="9.266822828296114"><ele>97.0</ele><time>2026-04-09T19:02:15Z</time></trkpt><trkpt lat="45.38629337996855" lon="9.266575155911653"><ele>97.0</ele><time>2026-04-09T19:02:16Z</time></trkpt><trkpt lat="45.38650482391655" lon="9.266327741344154"><ele>97.0</ele><time>2026-04-09T19:02:17Z</time></trkpt><trkpt lat="45.38671631561716" lon="9.26608003786647"><ele>97.0</ele><time>2026-04-09T19:02:18Z</time></trkpt><trkpt lat="45.38692983554387" lon="9.265835275430403"><ele>97.0</ele><time>2026-04-09T19:02:19Z</time></trkpt><trkpt lat="45.387141336170515" lon="9.265584306609915"><ele>97.0</ele><time>2026-04-09T19:02:20Z</time></trkpt><trkpt lat="45.387352717700345" lon="9.265335263185985"><ele>97.5</ele><time>2026-04-09T19:02:21Z</time></trkpt><trkpt lat="45.387564524309475" lon="9.265090086134109"><ele>98.0</ele><time>2026-04-09T19:02:22Z</time></trkpt><trkpt lat="45.387776727469166" lon="9.26484271858405"><ele>98.5</ele><time>2026-04-09T19:02:23Z</time></trkpt><trkpt lat="45.38799003780343" lon="9.264596513035011"><ele>99.0</ele><time>2026-04-09T19:02:24Z</time></trkpt><trkpt lat="45.388201760828096" lon="9.264345659512696"><ele>98.5</ele><time>2026-04-09T19:02:25Z</time></trkpt><trkpt lat="45.38841422773871" lon="9.264098020590778"><ele>98.0</ele><time>2026-04-09T19:02:26Z</time></trkpt><trkpt lat="45.388626575774246" lon="9.263851674364684"><ele>98.0</ele><time>2026-04-09T19:02:27Z</time></trkpt><trkpt lat="45.38883987273304" lon="9.263604599669701"><ele>98.0</ele><time>2026-04-09T19:02:27.999Z</time></trkpt><trkpt lat="45.38905565237708" lon="9.263360772180627"><ele>97.5</ele><time>2026-04-09T19:02:28.999Z</time></trkpt><trkpt lat="45.38927758673984" lon="9.263128796193065"><ele>97.0</ele><time>2026-04-09T19:02:29.999Z</time></trkpt><trkpt lat="45.38950568626254" lon="9.262914309879678"><ele>96.5</ele><time>2026-04-09T19:02:30.999Z</time></trkpt><trkpt lat="45.38973685261476" lon="9.262704724514549"><ele>96.0</ele><time>2026-04-09T19:02:31.999Z</time></trkpt><trkpt lat="45.38997060492388" lon="9.262501548679756"><ele>96.0</ele><time>2026-04-09T19:02:32.999Z</time></trkpt><trkpt lat="45.39021039094673" lon="9.262313643185433"><ele>96.0</ele><time>2026-04-09T19:02:33.999Z</time></trkpt><trkpt lat="45.3904528646416" lon="9.262128337572234"><ele>97.5</ele><time>2026-04-09T19:02:34.999Z</time></trkpt><trkpt lat="45.390698902517265" lon="9.261952851136817"><ele>99.0</ele><time>2026-04-09T19:02:35.999Z</time></trkpt><trkpt lat="45.390946897560724" lon="9.26178578691675"><ele>99.0</ele><time>2026-04-09T19:02:36.999Z</time></trkpt><trkpt lat="45.39119637836252" lon="9.261632178127853"><ele>99.0</ele><time>2026-04-09T19:02:37.999Z</time></trkpt><trkpt lat="45.39145023549893" lon="9.261485068887586"><ele>98.5</ele><time>2026-04-09T19:02:38.999Z</time></trkpt><trkpt lat="45.391707262373465" lon="9.261348362941305"><ele>98.0</ele><time>2026-04-09T19:02:39.999Z</time></trkpt><trkpt lat="45.391964390907354" lon="9.26122185679598"><ele>99.5</ele><time>2026-04-09T19:02:40.999Z</time></trkpt><trkpt lat="45.39222555386549" lon="9.261102249762011"><ele>101.0</ele><time>2026-04-09T19:02:41.999Z</time></trkpt><trkpt lat="45.39248784524176" lon="9.26098784979261"><ele>101.0</ele><time>2026-04-09T19:02:42.999Z</time></trkpt><trkpt lat="45.3927514275575" lon="9.260884069764485"><ele>101.0</ele><time>2026-04-09T19:02:43.999Z</time></trkpt><trkpt lat="45.393010859115655" lon="9.260783499066765"><ele>101.0</ele><time>2026-04-09T19:02:44.999Z</time></trkpt><trkpt lat="45.39327972026673" lon="9.26070011141461"><ele>101.0</ele><time>2026-04-09T19:02:45.999Z</time></trkpt><trkpt lat="45.39355269512249" lon="9.260628025737164"><ele>101.0</ele><time>2026-04-09T19:02:46.999Z</time></trkpt><trkpt lat="45.39382447849026" lon="9.260570565777838"><ele>101.0</ele><time>2026-04-09T19:02:47.999Z</time></trkpt><trkpt lat="45.39409740836962" lon="9.260525313370639"><ele>101.5</ele><time>2026-04-09T19:02:48.999Z</time></trkpt><trkpt lat="45.39436939667222" lon="9.260484447479575"><ele>102.0</ele><time>2026-04-09T19:02:49.999Z</time></trkpt><trkpt lat="45.39464292644047" lon="9.260449983527757"><ele>101.0</ele><time>2026-04-09T19:02:50.999Z</time></trkpt><trkpt lat="45.39491943501998" lon="9.260428515311554"><ele>100.0</ele><time>2026-04-09T19:02:51.999Z</time></trkpt><trkpt lat="45.39519278773232" lon="9.260421936853517"><ele>100.0</ele><time>2026-04-09T19:02:52.999Z</time></trkpt><trkpt lat="45.395468935490356" lon="9.260423579067096"><ele>100.0</ele><time>2026-04-09T19:02:53.999Z</time></trkpt><trkpt lat="45.39574235025598" lon="9.260431305538905"><ele>100.0</ele><time>2026-04-09T19:02:54.999Z</time></trkpt><trkpt lat="45.396017495949415" lon="9.260442066532153"><ele>100.0</ele><time>2026-04-09T19:02:55.999Z</time></trkpt><trkpt lat="45.39629169596497" lon="9.260460113714299"><ele>100.0</ele><time>2026-04-09T19:02:56.999Z</time></trkpt><trkpt lat="45.39656807943865" lon="9.26048657347261"><ele>100.0</ele><time>2026-04-09T19:02:57.999Z</time></trkpt><trkpt lat="45.396839300293685" lon="9.260517799639533"><ele>100.0</ele><time>2026-04-09T19:02:58.999Z</time></trkpt><trkpt lat="45.39711255587959" lon="9.260550386218341"><ele>100.0</ele><time>2026-04-09T19:02:59.999Z</time></trkpt><trkpt lat="45.39738265935931" lon="9.260583330115773"><ele>100.0</ele><time>2026-04-09T19:03:00.999Z</time></trkpt><trkpt lat="45.39763583424585" lon="9.260614119732095"><ele>100.0</ele><time>2026-04-09T19:03:01.999Z</time></trkpt><trkpt lat="45.39787569261679" lon="9.260646469022431"><ele>100.5</ele><time>2026-04-09T19:03:02.999Z</time></trkpt><trkpt lat="45.39812019797515" lon="9.260674689763205"><ele>101.0</ele><time>2026-04-09T19:03:03.999Z</time></trkpt><trkpt lat="45.398359033053545" lon="9.260699578557135"><ele>101.0</ele><time>2026-04-09T19:03:04.999Z</time></trkpt><trkpt lat="45.39861267805489" lon="9.260733632224058"><ele>101.0</ele><time>2026-04-09T19:03:05.999Z</time></trkpt><trkpt lat="45.398858994246126" lon="9.260761231147072"><ele>101.0</ele><time>2026-04-09T19:03:06.999Z</time></trkpt><trkpt lat="45.39909637156953" lon="9.26078741109521"><ele>101.0</ele><time>2026-04-09T19:03:07.999Z</time></trkpt><trkpt lat="45.39933034970864" lon="9.260813535223567"><ele>101.0</ele><time>2026-04-09T19:03:08.999Z</time></trkpt><trkpt lat="45.399563220020276" lon="9.260837217709689"><ele>101.0</ele><time>2026-04-09T19:03:09.999Z</time></trkpt><trkpt lat="45.399794484871144" lon="9.260859982006243"><ele>99.5</ele><time>2026-04-09T19:03:10.999Z</time></trkpt><trkpt lat="45.40002579457533" lon="9.260882824937593"><ele>98.0</ele><time>2026-04-09T19:03:11.999Z</time></trkpt><trkpt lat="45.40025515974472" lon="9.26090677556819"><ele>98.0</ele><time>2026-04-09T19:03:12.999Z</time></trkpt><trkpt lat="45.40048945724106" lon="9.260934271995206"><ele>98.0</ele><time>2026-04-09T19:03:13.999Z</time></trkpt><trkpt lat="45.400719539740095" lon="9.26096145496696"><ele>98.0</ele><time>2026-04-09T19:03:14.999Z</time></trkpt><trkpt lat="45.400950372823786" lon="9.260987820136421"><ele>98.0</ele><time>2026-04-09T19:03:15.999Z</time></trkpt><trkpt lat="45.401183401014" lon="9.261012425746586"><ele>98.5</ele><time>2026-04-09T19:03:16.999Z</time></trkpt><trkpt lat="45.401418784997624" lon="9.261034848797893"><ele>99.0</ele><time>2026-04-09T19:03:17.999Z</time></trkpt><trkpt lat="45.40165880424421" lon="9.261058907152984"><ele>99.0</ele><time>2026-04-09T19:03:18.999Z</time></trkpt><trkpt lat="45.40189783597869" lon="9.261085732006379"><ele>99.0</ele><time>2026-04-09T19:03:19.999Z</time></trkpt><trkpt lat="45.402144719810416" lon="9.26111432641693"><ele>99.0</ele><time>2026-04-09T19:03:20.999Z</time></trkpt><trkpt lat="45.402392452592" lon="9.261140718576838"><ele>99.0</ele><time>2026-04-09T19:03:21.999Z</time></trkpt><trkpt lat="45.40263731918493" lon="9.261170610979908"><ele>99.0</ele><time>2026-04-09T19:03:22.999Z</time></trkpt><trkpt lat="45.402881543380914" lon="9.261199828273865"><ele>99.0</ele><time>2026-04-09T19:03:23.999Z</time></trkpt><trkpt lat="45.403121408125315" lon="9.261229444689695"><ele>99.5</ele><time>2026-04-09T19:03:24.999Z</time></trkpt><trkpt lat="45.40335651736408" lon="9.261259943821704"><ele>100.0</ele><time>2026-04-09T19:03:25.999Z</time></trkpt><trkpt lat="45.40358750020096" lon="9.261292418325343"><ele>100.0</ele><time>2026-04-09T19:03:26.999Z</time></trkpt><trkpt lat="45.4038217244179" lon="9.261324757582281"><ele>100.0</ele><time>2026-04-09T19:03:27.999Z</time></trkpt><trkpt lat="45.404068124162585" lon="9.2613561898845"><ele>99.5</ele><time>2026-04-09T19:03:28.999Z</time></trkpt><trkpt lat="45.40432143394073" lon="9.261392607677132"><ele>99.0</ele><time>2026-04-09T19:03:29.999Z</time></trkpt><trkpt lat="45.4045710728081" lon="9.261427603411803"><ele>99.0</ele><time>2026-04-09T19:03:30.999Z</time></trkpt><trkpt lat="45.404805410114314" lon="9.261457710256618"><ele>99.0</ele><time>2026-04-09T19:03:31.999Z</time></trkpt><trkpt lat="45.40503065524324" lon="9.261479935149284"><ele>99.0</ele><time>2026-04-09T19:03:32.999Z</time></trkpt><trkpt lat="45.40525794597824" lon="9.26150013680877"><ele>99.0</ele><time>2026-04-09T19:03:33.999Z</time></trkpt><trkpt lat="45.40548398398302" lon="9.261518650951821"><ele>99.0</ele><time>2026-04-09T19:03:34.999Z</time></trkpt><trkpt lat="45.40570475560405" lon="9.261532514641017"><ele>99.0</ele><time>2026-04-09T19:03:35.999Z</time></trkpt><trkpt lat="45.40592573678313" lon="9.261535850115152"><ele>99.0</ele><time>2026-04-09T19:03:36.999Z</time></trkpt><trkpt lat="45.40615087584591" lon="9.261523730156533"><ele>99.0</ele><time>2026-04-09T19:03:37.999Z</time></trkpt><trkpt lat="45.406372791030975" lon="9.26149630067908"><ele>99.0</ele><time>2026-04-09T19:03:38.999Z</time></trkpt><trkpt lat="45.40659614421482" lon="9.261450198580441"><ele>99.0</ele><time>2026-04-09T19:03:39.999Z</time></trkpt><trkpt lat="45.40681444966958" lon="9.261384682696564"><ele>99.0</ele><time>2026-04-09T19:03:40.998Z</time></trkpt><trkpt lat="45.40703541581951" lon="9.26130965217622"><ele>99.0</ele><time>2026-04-09T19:03:41.998Z</time></trkpt><trkpt lat="45.407247452983235" lon="9.26122085746437"><ele>99.0</ele><time>2026-04-09T19:03:42.998Z</time></trkpt><trkpt lat="45.40745765260815" lon="9.261111200236668"><ele>98.5</ele><time>2026-04-09T19:03:43.998Z</time></trkpt><trkpt lat="45.40766452634946" lon="9.26099250499834"><ele>98.0</ele><time>2026-04-09T19:03:45Z</time></trkpt><trkpt lat="45.407869002317305" lon="9.260850430195253"><ele>98.0</ele><time>2026-04-09T19:03:46Z</time></trkpt><trkpt lat="45.40806350343375" lon="9.260699262009968"><ele>98.0</ele><time>2026-04-09T19:03:47Z</time></trkpt><trkpt lat="45.40825699459333" lon="9.260534774484238"><ele>98.0</ele><time>2026-04-09T19:03:48Z</time></trkpt><trkpt lat="45.408440607420715" lon="9.260358153190593"><ele>98.0</ele><time>2026-04-09T19:03:49Z</time></trkpt><trkpt lat="45.408621075068766" lon="9.260171576386632"><ele>98.0</ele><time>2026-04-09T19:03:50Z</time></trkpt><trkpt lat="45.408804618899126" lon="9.2599734341402"><ele>98.0</ele><time>2026-04-09T19:03:51Z</time></trkpt><trkpt lat="45.408972573249194" lon="9.259767758769428"><ele>98.0</ele><time>2026-04-09T19:03:52Z</time></trkpt><trkpt lat="45.40913256778622" lon="9.259551243584403"><ele>98.0</ele><time>2026-04-09T19:03:53Z</time></trkpt><trkpt lat="45.40928860518131" lon="9.259329077286628"><ele>98.0</ele><time>2026-04-09T19:03:54Z</time></trkpt><trkpt lat="45.40944858406171" lon="9.259111226471811"><ele>98.0</ele><time>2026-04-09T19:03:55Z</time></trkpt><trkpt lat="45.40961167049692" lon="9.258899592170778"><ele>98.0</ele><time>2026-04-09T19:03:56Z</time></trkpt><trkpt lat="45.40978122702795" lon="9.25868207895954"><ele>100.0</ele><time>2026-04-09T19:03:57Z</time></trkpt><trkpt lat="45.409954463046574" lon="9.258462561758456"><ele>102.0</ele><time>2026-04-09T19:03:58Z</time></trkpt><trkpt lat="45.41013310355092" lon="9.258234786240465"><ele>102.0</ele><time>2026-04-09T19:03:59Z</time></trkpt><trkpt lat="45.4103147567204" lon="9.258004939845517"><ele>102.0</ele><time>2026-04-09T19:04:00Z</time></trkpt><trkpt lat="45.41050654481089" lon="9.257763746522905"><ele>102.0</ele><time>2026-04-09T19:04:01Z</time></trkpt><trkpt lat="45.410699115860496" lon="9.257524107436318"><ele>102.0</ele><time>2026-04-09T19:04:02Z</time></trkpt><trkpt lat="45.410896213197155" lon="9.25727860625358"><ele>100.5</ele><time>2026-04-09T19:04:03Z</time></trkpt><trkpt lat="45.41109299992343" lon="9.257033833369823"><ele>99.0</ele><time>2026-04-09T19:04:04Z</time></trkpt><trkpt lat="45.41128964840937" lon="9.25678869709276"><ele>99.5</ele><time>2026-04-09T19:04:05Z</time></trkpt><trkpt lat="45.41148439615217" lon="9.25654758444878"><ele>100.0</ele><time>2026-04-09T19:04:06Z</time></trkpt><trkpt lat="45.411677469750146" lon="9.256304939128135"><ele>100.0</ele><time>2026-04-09T19:04:07Z</time></trkpt><trkpt lat="45.411867514522626" lon="9.256062757486255"><ele>100.0</ele><time>2026-04-09T19:04:08Z</time></trkpt><trkpt lat="45.412061740264285" lon="9.255815688276368"><ele>100.0</ele><time>2026-04-09T19:04:09Z</time></trkpt><trkpt lat="45.41225591808518" lon="9.255568784168563"><ele>100.0</ele><time>2026-04-09T19:04:10Z</time></trkpt><trkpt lat="45.412451540560994" lon="9.255322414392692"><ele>100.0</ele><time>2026-04-09T19:04:11Z</time></trkpt><trkpt lat="45.41264990899036" lon="9.255073808984388"><ele>100.0</ele><time>2026-04-09T19:04:12Z</time></trkpt><trkpt lat="45.41284347652638" lon="9.254828939125264"><ele>100.5</ele><time>2026-04-09T19:04:13Z</time></trkpt><trkpt lat="45.41303719616591" lon="9.254580686203674"><ele>101.0</ele><time>2026-04-09T19:04:14Z</time></trkpt><trkpt lat="45.413224215761836" lon="9.254336128333343"><ele>101.0</ele><time>2026-04-09T19:04:15Z</time></trkpt><trkpt lat="45.41340730490629" lon="9.254092448764355"><ele>101.0</ele><time>2026-04-09T19:04:16Z</time></trkpt><trkpt lat="45.413588351828615" lon="9.2538461416039"><ele>102.0</ele><time>2026-04-09T19:04:17Z</time></trkpt><trkpt lat="45.41376890774734" lon="9.253600958374339"><ele>103.0</ele><time>2026-04-09T19:04:18Z</time></trkpt><trkpt lat="45.41394798309816" lon="9.25335429646387"><ele>104.5</ele><time>2026-04-09T19:04:19Z</time></trkpt><trkpt lat="45.414129101032195" lon="9.253105508933437"><ele>106.0</ele><time>2026-04-09T19:04:20Z</time></trkpt><trkpt lat="45.41430782159142" lon="9.25285602233625"><ele>106.0</ele><time>2026-04-09T19:04:21Z</time></trkpt><trkpt lat="45.414485781088864" lon="9.252599211257087"><ele>106.0</ele><time>2026-04-09T19:04:22Z</time></trkpt><trkpt lat="45.41466034887701" lon="9.252343954893162"><ele>102.5</ele><time>2026-04-09T19:04:23Z</time></trkpt><trkpt lat="45.414836676595456" lon="9.25208644594055"><ele>99.0</ele><time>2026-04-09T19:04:24Z</time></trkpt><trkpt lat="45.41501435698361" lon="9.251829461276046"><ele>99.0</ele><time>2026-04-09T19:04:25Z</time></trkpt><trkpt lat="45.41518393774034" lon="9.251576982650525"><ele>99.0</ele><time>2026-04-09T19:04:26Z</time></trkpt><trkpt lat="45.41535567230917" lon="9.251322438288419"><ele>99.5</ele><time>2026-04-09T19:04:27Z</time></trkpt><trkpt lat="45.41552644274872" lon="9.251073038111766"><ele>100.0</ele><time>2026-04-09T19:04:28Z</time></trkpt><trkpt lat="45.415687519932554" lon="9.250835359320945"><ele>101.0</ele><time>2026-04-09T19:04:29Z</time></trkpt><trkpt lat="45.415842628133134" lon="9.250597281561424"><ele>102.0</ele><time>2026-04-09T19:04:30Z</time></trkpt><trkpt lat="45.41599410305027" lon="9.250367351760515"><ele>103.0</ele><time>2026-04-09T19:04:31Z</time></trkpt><trkpt lat="45.416148834039106" lon="9.250132031929503"><ele>103.0</ele><time>2026-04-09T19:04:32Z</time></trkpt><trkpt lat="45.41630961120188" lon="9.249893565023427"><ele>103.0</ele><time>2026-04-09T19:04:33Z</time></trkpt><trkpt lat="45.41647207846722" lon="9.249650610951472"><ele>102.5</ele><time>2026-04-09T19:04:34Z</time></trkpt><trkpt lat="45.41663386860798" lon="9.249411569788073"><ele>102.0</ele><time>2026-04-09T19:04:35Z</time></trkpt><trkpt lat="45.41679849979969" lon="9.249164991525076"><ele>102.0</ele><time>2026-04-09T19:04:35.999Z</time></trkpt><trkpt lat="45.41696445436876" lon="9.2489274095609"><ele>102.0</ele><time>2026-04-09T19:04:36.999Z</time></trkpt><trkpt lat="45.417136263203204" lon="9.248690221059933"><ele>100.0</ele><time>2026-04-09T19:04:37.999Z</time></trkpt><trkpt lat="45.41730534833285" lon="9.248459346405786"><ele>98.0</ele><time>2026-04-09T19:04:38.999Z</time></trkpt><trkpt lat="45.41746987172074" lon="9.24823408649119"><ele>98.66666666666666</ele><time>2026-04-09T19:04:39.999Z</time></trkpt><trkpt lat="45.41763514132308" lon="9.248018876244114"><ele>99.33333333333334</ele><time>2026-04-09T19:04:40.999Z</time></trkpt><trkpt lat="45.41780443907776" lon="9.24781821642263"><ele>100.0</ele><time>2026-04-09T19:04:41.999Z</time></trkpt><trkpt lat="45.41797904449913" lon="9.247625601727137"><ele>100.5</ele><time>2026-04-09T19:04:42.999Z</time></trkpt><trkpt lat="45.418159526949125" lon="9.24743577292129"><ele>101.0</ele><time>2026-04-09T19:04:43.999Z</time></trkpt><trkpt lat="45.41834896110626" lon="9.247257299303815"><ele>101.0</ele><time>2026-04-09T19:04:44.999Z</time></trkpt><trkpt lat="45.41854747148824" lon="9.24708638940972"><ele>101.0</ele><time>2026-04-09T19:04:45.999Z</time></trkpt><trkpt lat="45.4187570022417" lon="9.246930603580733"><ele>103.0</ele><time>2026-04-09T19:04:46.999Z</time></trkpt><trkpt lat="45.41897274191242" lon="9.24677578785737"><ele>105.0</ele><time>2026-04-09T19:04:47.999Z</time></trkpt><trkpt lat="45.41919549815478" lon="9.24663517350009"><ele>105.0</ele><time>2026-04-09T19:04:48.999Z</time></trkpt><trkpt lat="45.41941892042684" lon="9.246509249365708"><ele>105.0</ele><time>2026-04-09T19:04:49.999Z</time></trkpt><trkpt lat="45.41964573953345" lon="9.246404085259876"><ele>105.0</ele><time>2026-04-09T19:04:50.999Z</time></trkpt><trkpt lat="45.41988152242053" lon="9.24631252992274"><ele>105.0</ele><time>2026-04-09T19:04:51.999Z</time></trkpt><trkpt lat="45.42012225756975" lon="9.246243843115757"><ele>105.0</ele><time>2026-04-09T19:04:52.999Z</time></trkpt><trkpt lat="45.42036776975635" lon="9.246188804366254"><ele>105.0</ele><time>2026-04-09T19:04:53.999Z</time></trkpt><trkpt lat="45.420620013249234" lon="9.24614498486368"><ele>106.0</ele><time>2026-04-09T19:04:54.999Z</time></trkpt><trkpt lat="45.420869443104195" lon="9.246102583119177"><ele>107.0</ele><time>2026-04-09T19:04:55.999Z</time></trkpt><trkpt lat="45.421119671155815" lon="9.246068074844631"><ele>107.0</ele><time>2026-04-09T19:04:56.999Z</time></trkpt><trkpt lat="45.42136622988928" lon="9.246034988860597"><ele>107.0</ele><time>2026-04-09T19:04:57.999Z</time></trkpt><trkpt lat="45.42161091600775" lon="9.246005151465253"><ele>107.0</ele><time>2026-04-09T19:04:58.999Z</time></trkpt><trkpt lat="45.42185555479961" lon="9.245976044102807"><ele>107.0</ele><time>2026-04-09T19:04:59.999Z</time></trkpt><trkpt lat="45.42209873327345" lon="9.245947385719333"><ele>106.0</ele><time>2026-04-09T19:05:00.999Z</time></trkpt><trkpt lat="45.42234083625494" lon="9.245917919774856"><ele>105.0</ele><time>2026-04-09T19:05:01.999Z</time></trkpt><trkpt lat="45.422581282615525" lon="9.24588839578516"><ele>105.0</ele><time>2026-04-09T19:05:02.999Z</time></trkpt><trkpt lat="45.422818543287775" lon="9.245860617123917"><ele>105.0</ele><time>2026-04-09T19:05:03.999Z</time></trkpt><trkpt lat="45.423055396538786" lon="9.2458329770444"><ele>104.0</ele><time>2026-04-09T19:05:04.999Z</time></trkpt><trkpt lat="45.423292351290144" lon="9.245806449999629"><ele>103.0</ele><time>2026-04-09T19:05:05.999Z</time></trkpt><trkpt lat="45.42353047260428" lon="9.245777587453698"><ele>103.0</ele><time>2026-04-09T19:05:06.999Z</time></trkpt><trkpt lat="45.423768320888456" lon="9.245752631827767"><ele>103.0</ele><time>2026-04-09T19:05:07.999Z</time></trkpt><trkpt lat="45.42400772408967" lon="9.245729220993343"><ele>102.5</ele><time>2026-04-09T19:05:08.999Z</time></trkpt><trkpt lat="45.42424166668239" lon="9.245702956319661"><ele>102.0</ele><time>2026-04-09T19:05:09.999Z</time></trkpt><trkpt lat="45.424478276162716" lon="9.245678477446608"><ele>101.0</ele><time>2026-04-09T19:05:10.999Z</time></trkpt><trkpt lat="45.42472024277" lon="9.24565278497638"><ele>100.0</ele><time>2026-04-09T19:05:11.999Z</time></trkpt><trkpt lat="45.42496473067167" lon="9.245634952709638"><ele>100.0</ele><time>2026-04-09T19:05:12.999Z</time></trkpt><trkpt lat="45.42520276042959" lon="9.24563226760363"><ele>100.0</ele><time>2026-04-09T19:05:13.999Z</time></trkpt><trkpt lat="45.42544834750479" lon="9.245645203348083"><ele>102.0</ele><time>2026-04-09T19:05:14.999Z</time></trkpt><trkpt lat="45.42569574844171" lon="9.245669911011477"><ele>104.0</ele><time>2026-04-09T19:05:15.999Z</time></trkpt><trkpt lat="45.42594043048986" lon="9.245720340322594"><ele>104.0</ele><time>2026-04-09T19:05:16.999Z</time></trkpt><trkpt lat="45.426180397917825" lon="9.245788221858977"><ele>104.0</ele><time>2026-04-09T19:05:17.999Z</time></trkpt><trkpt lat="45.42641593292061" lon="9.245878097794124"><ele>102.5</ele><time>2026-04-09T19:05:18.999Z</time></trkpt><trkpt lat="45.4266489924386" lon="9.24598146876091"><ele>101.0</ele><time>2026-04-09T19:05:19.999Z</time></trkpt><trkpt lat="45.426881419957546" lon="9.246104441578296"><ele>101.0</ele><time>2026-04-09T19:05:20.999Z</time></trkpt><trkpt lat="45.427113099751494" lon="9.246243430364462"><ele>101.0</ele><time>2026-04-09T19:05:21.999Z</time></trkpt><trkpt lat="45.427337024398746" lon="9.246404586643465"><ele>103.5</ele><time>2026-04-09T19:05:22.999Z</time></trkpt><trkpt lat="45.42755271107338" lon="9.246579733908073"><ele>106.0</ele><time>2026-04-09T19:05:23.999Z</time></trkpt><trkpt lat="45.4277607442751" lon="9.246776362213808"><ele>106.0</ele><time>2026-04-09T19:05:24.999Z</time></trkpt><trkpt lat="45.42796150365658" lon="9.246979849515172"><ele>106.0</ele><time>2026-04-09T19:05:25.999Z</time></trkpt><trkpt lat="45.42815126326592" lon="9.247195473686839"><ele>108.5</ele><time>2026-04-09T19:05:26.999Z</time></trkpt><trkpt lat="45.42833527176006" lon="9.247425696793538"><ele>111.0</ele><time>2026-04-09T19:05:27.999Z</time></trkpt><trkpt lat="45.42850819278733" lon="9.247665687760517"><ele>111.0</ele><time>2026-04-09T19:05:28.999Z</time></trkpt><trkpt lat="45.428675247007625" lon="9.247909944850024"><ele>111.0</ele><time>2026-04-09T19:05:29.999Z</time></trkpt><trkpt lat="45.42883262407039" lon="9.248155038693094"><ele>110.5</ele><time>2026-04-09T19:05:30.999Z</time></trkpt><trkpt lat="45.42899071541221" lon="9.248413095641475"><ele>110.0</ele><time>2026-04-09T19:05:31.999Z</time></trkpt><trkpt lat="45.42914605049461" lon="9.248671603414682"><ele>110.0</ele><time>2026-04-09T19:05:32.999Z</time></trkpt><trkpt lat="45.429301756213654" lon="9.248933137183279"><ele>110.0</ele><time>2026-04-09T19:05:33.999Z</time></trkpt><trkpt lat="45.42945856951608" lon="9.249191249202417"><ele>109.0</ele><time>2026-04-09T19:05:34.999Z</time></trkpt><trkpt lat="45.429618220828914" lon="9.249450491470508"><ele>108.0</ele><time>2026-04-09T19:05:35.999Z</time></trkpt><trkpt lat="45.42977902663151" lon="9.249709926420861"><ele>107.5</ele><time>2026-04-09T19:05:36.999Z</time></trkpt><trkpt lat="45.429941694453014" lon="9.249969138376095"><ele>107.0</ele><time>2026-04-09T19:05:37.999Z</time></trkpt><trkpt lat="45.43010588059809" lon="9.250232044758652"><ele>107.0</ele><time>2026-04-09T19:05:38.999Z</time></trkpt><trkpt lat="45.4302727335706" lon="9.250500937073564"><ele>107.0</ele><time>2026-04-09T19:05:39.999Z</time></trkpt><trkpt lat="45.430438554819965" lon="9.250771079494026"><ele>106.5</ele><time>2026-04-09T19:05:40.999Z</time></trkpt><trkpt lat="45.43060697859257" lon="9.251041396759756"><ele>106.0</ele><time>2026-04-09T19:05:41.999Z</time></trkpt><trkpt lat="45.43077800593439" lon="9.251308678731826"><ele>106.0</ele><time>2026-04-09T19:05:42.999Z</time></trkpt><trkpt lat="45.43095519883106" lon="9.251576553766089"><ele>106.0</ele><time>2026-04-09T19:05:43.999Z</time></trkpt><trkpt lat="45.43113434582797" lon="9.251842717659033"><ele>105.5</ele><time>2026-04-09T19:05:44.999Z</time></trkpt><trkpt lat="45.43131803088839" lon="9.252103934323587"><ele>105.0</ele><time>2026-04-09T19:05:45.999Z</time></trkpt><trkpt lat="45.43150719249213" lon="9.252357562817275"><ele>104.5</ele><time>2026-04-09T19:05:46.999Z</time></trkpt><trkpt lat="45.43169928367429" lon="9.252602600339701"><ele>104.0</ele><time>2026-04-09T19:05:47.999Z</time></trkpt><trkpt lat="45.43189620483061" lon="9.25283751128204"><ele>104.0</ele><time>2026-04-09T19:05:48.999Z</time></trkpt><trkpt lat="45.43209890072354" lon="9.253064230858692"><ele>104.0</ele><time>2026-04-09T19:05:49.998Z</time></trkpt><trkpt lat="45.43230287520553" lon="9.25328687745535"><ele>103.0</ele><time>2026-04-09T19:05:51Z</time></trkpt><trkpt lat="45.432509829240985" lon="9.253505373021788"><ele>102.0</ele><time>2026-04-09T19:05:52Z</time></trkpt><trkpt lat="45.43272135198614" lon="9.25371620648925"><ele>102.0</ele><time>2026-04-09T19:05:53Z</time></trkpt><trkpt lat="45.432935409088074" lon="9.253919911159569"><ele>102.0</ele><time>2026-04-09T19:05:54Z</time></trkpt><trkpt lat="45.43315355539832" lon="9.254118482650194"><ele>104.5</ele><time>2026-04-09T19:05:55Z</time></trkpt><trkpt lat="45.43337531615787" lon="9.254309522098067"><ele>107.0</ele><time>2026-04-09T19:05:56Z</time></trkpt><trkpt lat="45.4335985277777" lon="9.25449792867158"><ele>107.0</ele><time>2026-04-09T19:05:57Z</time></trkpt><trkpt lat="45.43382530177578" lon="9.2546786674402"><ele>107.0</ele><time>2026-04-09T19:05:58Z</time></trkpt><trkpt lat="45.4340567959404" lon="9.2548473945642"><ele>107.0</ele><time>2026-04-09T19:05:59Z</time></trkpt><trkpt lat="45.43429165334178" lon="9.255001489582911"><ele>107.0</ele><time>2026-04-09T19:06:00Z</time></trkpt><trkpt lat="45.43453257597049" lon="9.255146178191678"><ele>106.5</ele><time>2026-04-09T19:06:01Z</time></trkpt><trkpt lat="45.43477263549336" lon="9.255279964158927"><ele>106.0</ele><time>2026-04-09T19:06:02Z</time></trkpt><trkpt lat="45.43501102000277" lon="9.255414700670647"><ele>106.0</ele><time>2026-04-09T19:06:03Z</time></trkpt><trkpt lat="45.43524742015013" lon="9.25554527404602"><ele>106.0</ele><time>2026-04-09T19:06:04Z</time></trkpt><trkpt lat="45.43548537261706" lon="9.255668888828742"><ele>107.0</ele><time>2026-04-09T19:06:05Z</time></trkpt><trkpt lat="45.43572725339171" lon="9.255792476057856"><ele>108.0</ele><time>2026-04-09T19:06:06Z</time></trkpt><trkpt lat="45.4359601309669" lon="9.255879267307025"><ele>108.0</ele><time>2026-04-09T19:06:07Z</time></trkpt><trkpt lat="45.43619516102275" lon="9.255975747251524"><ele>108.0</ele><time>2026-04-09T19:06:08Z</time></trkpt><trkpt lat="45.436433748202134" lon="9.256080331741536"><ele>107.0</ele><time>2026-04-09T19:06:09Z</time></trkpt><trkpt lat="45.43667146749527" lon="9.256170240183197"><ele>106.0</ele><time>2026-04-09T19:06:10Z</time></trkpt><trkpt lat="45.43690853359231" lon="9.256251447816274"><ele>107.0</ele><time>2026-04-09T19:06:11Z</time></trkpt><trkpt lat="45.43714452755287" lon="9.256330287404294"><ele>108.0</ele><time>2026-04-09T19:06:12Z</time></trkpt><trkpt lat="45.43738298135085" lon="9.256407013050701"><ele>105.5</ele><time>2026-04-09T19:06:13Z</time></trkpt><trkpt lat="45.437602851433354" lon="9.256596038268512"><ele>103.0</ele><time>2026-04-09T19:06:14Z</time></trkpt><trkpt lat="45.43784286949318" lon="9.256661877612515"><ele>103.5</ele><time>2026-04-09T19:06:15Z</time></trkpt><trkpt lat="45.43810208492906" lon="9.256623895700823"><ele>104.0</ele><time>2026-04-09T19:06:16Z</time></trkpt><trkpt lat="45.43834255170255" lon="9.256693303394991"><ele>104.0</ele><time>2026-04-09T19:06:17Z</time></trkpt><trkpt lat="45.43858257721681" lon="9.256763194986446"><ele>104.0</ele><time>2026-04-09T19:06:18Z</time></trkpt><trkpt lat="45.43882304406177" lon="9.256832706682179"><ele>104.0</ele><time>2026-04-09T19:06:19Z</time></trkpt><trkpt lat="45.43906688122445" lon="9.256899691230393"><ele>104.0</ele><time>2026-04-09T19:06:20Z</time></trkpt><trkpt lat="45.439309164415896" lon="9.256965771338551"><ele>104.0</ele><time>2026-04-09T19:06:21Z</time></trkpt><trkpt lat="45.43955105264921" lon="9.257034400705123"><ele>104.0</ele><time>2026-04-09T19:06:22Z</time></trkpt><trkpt lat="45.43978968222601" lon="9.25710248635894"><ele>104.5</ele><time>2026-04-09T19:06:23Z</time></trkpt><trkpt lat="45.44002406139763" lon="9.257170376348443"><ele>105.0</ele><time>2026-04-09T19:06:24Z</time></trkpt><trkpt lat="45.44026013920704" lon="9.257238187243479"><ele>104.0</ele><time>2026-04-09T19:06:25Z</time></trkpt><trkpt lat="45.44049165543888" lon="9.257302494705373"><ele>103.0</ele><time>2026-04-09T19:06:26Z</time></trkpt><trkpt lat="45.440725252197446" lon="9.257365496664242"><ele>103.0</ele><time>2026-04-09T19:06:27Z</time></trkpt><trkpt lat="45.44096043367712" lon="9.257432538849919"><ele>103.0</ele><time>2026-04-09T19:06:28Z</time></trkpt><trkpt lat="45.44119889138793" lon="9.257501406618921"><ele>100.5</ele><time>2026-04-09T19:06:29Z</time></trkpt><trkpt lat="45.44144706169339" lon="9.257572340110702"><ele>98.0</ele><time>2026-04-09T19:06:30Z</time></trkpt><trkpt lat="45.441697040694784" lon="9.25764406204295"><ele>98.0</ele><time>2026-04-09T19:06:31Z</time></trkpt><trkpt lat="45.44195179310701" lon="9.257718017346669"><ele>98.0</ele><time>2026-04-09T19:06:32Z</time></trkpt><trkpt lat="45.4422046294299" lon="9.257793736371163"><ele>101.0</ele><time>2026-04-09T19:06:33Z</time></trkpt><trkpt lat="45.44245939158713" lon="9.257866696023413"><ele>104.0</ele><time>2026-04-09T19:06:34Z</time></trkpt><trkpt lat="45.44271432829786" lon="9.257937229842124"><ele>100.5</ele><time>2026-04-09T19:06:35Z</time></trkpt><trkpt lat="45.44297203895782" lon="9.258008700920257"><ele>97.0</ele><time>2026-04-09T19:06:36Z</time></trkpt><trkpt lat="45.44322814200626" lon="9.258081356898835"><ele>99.0</ele><time>2026-04-09T19:06:37Z</time></trkpt><trkpt lat="45.4434875499589" lon="9.258155234275348"><ele>101.0</ele><time>2026-04-09T19:06:38Z</time></trkpt><trkpt lat="45.44374610653668" lon="9.25822975789061"><ele>96.5</ele><time>2026-04-09T19:06:39Z</time></trkpt><trkpt lat="45.44400456725516" lon="9.258306044554832"><ele>92.0</ele><time>2026-04-09T19:06:40Z</time></trkpt><trkpt lat="45.44426327203299" lon="9.2583824374145"><ele>92.0</ele><time>2026-04-09T19:06:41Z</time></trkpt><trkpt lat="45.444523594540854" lon="9.258458590565002"><ele>92.0</ele><time>2026-04-09T19:06:41.999Z</time></trkpt><trkpt lat="45.4447821353055" lon="9.25853501964667"><ele>91.5</ele><time>2026-04-09T19:06:42.999Z</time></trkpt><trkpt lat="45.4450389506864" lon="9.258609817228697"><ele>91.0</ele><time>2026-04-09T19:06:43.999Z</time></trkpt><trkpt lat="45.445297069310364" lon="9.258685711133726"><ele>96.0</ele><time>2026-04-09T19:06:44.999Z</time></trkpt><trkpt lat="45.4455563243397" lon="9.258761532070183"><ele>101.0</ele><time>2026-04-09T19:06:45.999Z</time></trkpt><trkpt lat="45.44581450892871" lon="9.258833944835503"><ele>101.0</ele><time>2026-04-09T19:06:46.999Z</time></trkpt><trkpt lat="45.44607032470629" lon="9.25890729936287"><ele>101.0</ele><time>2026-04-09T19:06:47.999Z</time></trkpt><trkpt lat="45.44633041484505" lon="9.258979432370277"><ele>103.5</ele><time>2026-04-09T19:06:48.999Z</time></trkpt><trkpt lat="45.44658805367874" lon="9.259048364519705"><ele>106.0</ele><time>2026-04-09T19:06:49.999Z</time></trkpt><trkpt lat="45.44684720333579" lon="9.259100540186903"><ele>106.0</ele><time>2026-04-09T19:06:50.999Z</time></trkpt><trkpt lat="45.44711027057747" lon="9.259133287498171"><ele>106.0</ele><time>2026-04-09T19:06:51.999Z</time></trkpt><trkpt lat="45.44737276420321" lon="9.259155689494007"><ele>107.0</ele><time>2026-04-09T19:06:52.999Z</time></trkpt><trkpt lat="45.44763234576148" lon="9.259168304478669"><ele>108.0</ele><time>2026-04-09T19:06:53.999Z</time></trkpt><trkpt lat="45.44789582136146" lon="9.259163622258013"><ele>106.5</ele><time>2026-04-09T19:06:54.999Z</time></trkpt><trkpt lat="45.44815698320335" lon="9.259125339814561"><ele>105.0</ele><time>2026-04-09T19:06:55.999Z</time></trkpt><trkpt lat="45.44841673958443" lon="9.259076879272826"><ele>105.0</ele><time>2026-04-09T19:06:56.999Z</time></trkpt><trkpt lat="45.44867227827804" lon="9.259010881798075"><ele>105.0</ele><time>2026-04-09T19:06:57.999Z</time></trkpt><trkpt lat="45.44892971394014" lon="9.258930828596474"><ele>107.0</ele><time>2026-04-09T19:06:58.999Z</time></trkpt><trkpt lat="45.44918429758771" lon="9.25883887939076"><ele>109.0</ele><time>2026-04-09T19:06:59.999Z</time></trkpt><trkpt lat="45.44943626030531" lon="9.258736331382268"><ele>110.5</ele><time>2026-04-09T19:07:00.999Z</time></trkpt><trkpt lat="45.44968771655895" lon="9.258625516513183"><ele>112.0</ele><time>2026-04-09T19:07:01.999Z</time></trkpt><trkpt lat="45.44993437221771" lon="9.258498624617415"><ele>112.0</ele><time>2026-04-09T19:07:02.999Z</time></trkpt><trkpt lat="45.450176977369594" lon="9.258350037188197"><ele>112.0</ele><time>2026-04-09T19:07:03.999Z</time></trkpt><trkpt lat="45.45041256637392" lon="9.258187181049234"><ele>112.0</ele><time>2026-04-09T19:07:04.999Z</time></trkpt><trkpt lat="45.45064682306702" lon="9.258017636849027"><ele>112.0</ele><time>2026-04-09T19:07:05.999Z</time></trkpt><trkpt lat="45.45087485311057" lon="9.257842635958136"><ele>112.0</ele><time>2026-04-09T19:07:06.999Z</time></trkpt><trkpt lat="45.451099319284815" lon="9.257660023960387"><ele>112.0</ele><time>2026-04-09T19:07:07.999Z</time></trkpt><trkpt lat="45.45132648491941" lon="9.257472368082361"><ele>111.5</ele><time>2026-04-09T19:07:08.999Z</time></trkpt><trkpt lat="45.45155003855442" lon="9.257284450250047"><ele>111.0</ele><time>2026-04-09T19:07:09.999Z</time></trkpt><trkpt lat="45.45177403160512" lon="9.257094125102604"><ele>111.0</ele><time>2026-04-09T19:07:10.999Z</time></trkpt><trkpt lat="45.4519859252524" lon="9.25691363217523"><ele>111.0</ele><time>2026-04-09T19:07:11.999Z</time></trkpt><trkpt lat="45.45218970910322" lon="9.256740604920543"><ele>110.5</ele><time>2026-04-09T19:07:12.999Z</time></trkpt><trkpt lat="45.452390074369795" lon="9.256572794507324"><ele>110.0</ele><time>2026-04-09T19:07:13.999Z</time></trkpt><trkpt lat="45.45258812634977" lon="9.256404704130562"><ele>110.0</ele><time>2026-04-09T19:07:14.999Z</time></trkpt><trkpt lat="45.4527851980441" lon="9.256237948860525"><ele>110.0</ele><time>2026-04-09T19:07:15.999Z</time></trkpt><trkpt lat="45.45298394434621" lon="9.256073148004077"><ele>110.5</ele><time>2026-04-09T19:07:16.999Z</time></trkpt><trkpt lat="45.45318294868646" lon="9.25590571762572"><ele>111.0</ele><time>2026-04-09T19:07:17.999Z</time></trkpt><trkpt lat="45.45337923208512" lon="9.25573876075138"><ele>110.5</ele><time>2026-04-09T19:07:18.999Z</time></trkpt><trkpt lat="45.45357495155749" lon="9.255574976922395"><ele>110.0</ele><time>2026-04-09T19:07:19.999Z</time></trkpt><trkpt lat="45.45377452638724" lon="9.255407556650857"><ele>110.5</ele><time>2026-04-09T19:07:20.999Z</time></trkpt><trkpt lat="45.45397299774231" lon="9.25524306868369"><ele>111.0</ele><time>2026-04-09T19:07:21.999Z</time></trkpt><trkpt lat="45.45417075328627" lon="9.255082055996345"><ele>111.0</ele><time>2026-04-09T19:07:22.999Z</time></trkpt><trkpt lat="45.45436244596498" lon="9.254923788927771"><ele>111.0</ele><time>2026-04-09T19:07:23.999Z</time></trkpt><trkpt lat="45.45455771779895" lon="9.25476181034942"><ele>111.0</ele><time>2026-04-09T19:07:24.999Z</time></trkpt><trkpt lat="45.45475585117834" lon="9.254599529085008"><ele>113.0</ele><time>2026-04-09T19:07:25.999Z</time></trkpt><trkpt lat="45.45495617453383" lon="9.25443682584423"><ele>115.0</ele><time>2026-04-09T19:07:26.999Z</time></trkpt><trkpt lat="45.45515826643983" lon="9.254271314960175"><ele>115.0</ele><time>2026-04-09T19:07:27.999Z</time></trkpt><trkpt lat="45.45536473470307" lon="9.254102041830203"><ele>115.0</ele><time>2026-04-09T19:07:28.999Z</time></trkpt><trkpt lat="45.45556302818336" lon="9.253938547608294"><ele>113.66666666666667</ele><time>2026-04-09T19:07:29.999Z</time></trkpt><trkpt lat="45.45575066551789" lon="9.253785918602164"><ele>112.33333333333334</ele><time>2026-04-09T19:07:30.999Z</time></trkpt><trkpt lat="45.45593719603606" lon="9.253640082731607"><ele>111.0</ele><time>2026-04-09T19:07:31.999Z</time></trkpt><trkpt lat="45.45611382175892" lon="9.253499050943747"><ele>111.0</ele><time>2026-04-09T19:07:32.999Z</time></trkpt><trkpt lat="45.45628305824184" lon="9.253363101518937"><ele>111.0</ele><time>2026-04-09T19:07:33.999Z</time></trkpt><trkpt lat="45.45644441074921" lon="9.253234011082926"><ele>111.0</ele><time>2026-04-09T19:07:34.999Z</time></trkpt><trkpt lat="45.45661166937555" lon="9.253103459330543"><ele>111.33333333333334</ele><time>2026-04-09T19:07:35.999Z</time></trkpt><trkpt lat="45.456789808735664" lon="9.252971742464904"><ele>111.66666666666667</ele><time>2026-04-09T19:07:36.999Z</time></trkpt><trkpt lat="45.45696950810518" lon="9.252844692672555"><ele>112.0</ele><time>2026-04-09T19:07:37.999Z</time></trkpt><trkpt lat="45.45715923022142" lon="9.252728555019575"><ele>112.33333333333334</ele><time>2026-04-09T19:07:38.999Z</time></trkpt><trkpt lat="45.45735212813448" lon="9.252627953484511"><ele>112.66666666666666</ele><time>2026-04-09T19:07:39.999Z</time></trkpt><trkpt lat="45.457547369329696" lon="9.252544860974345"><ele>113.0</ele><time>2026-04-09T19:07:40.999Z</time></trkpt><trkpt lat="45.45774214377385" lon="9.252472641710924"><ele>113.0</ele><time>2026-04-09T19:07:41.999Z</time></trkpt><trkpt lat="45.45794193553473" lon="9.252416013963217"><ele>113.0</ele><time>2026-04-09T19:07:42.999Z</time></trkpt><trkpt lat="45.45813111802382" lon="9.252383037400893"><ele>113.0</ele><time>2026-04-09T19:07:43.999Z</time></trkpt><trkpt lat="45.458332297627315" lon="9.252362656224763"><ele>113.33333333333333</ele><time>2026-04-09T19:07:44.999Z</time></trkpt><trkpt lat="45.45853894531101" lon="9.252344062672403"><ele>113.66666666666666</ele><time>2026-04-09T19:07:45.999Z</time></trkpt><trkpt lat="45.45875368128697" lon="9.25233707620295"><ele>114.0</ele><time>2026-04-09T19:07:46.999Z</time></trkpt><trkpt lat="45.45897495015431" lon="9.252348968653932"><ele>114.0</ele><time>2026-04-09T19:07:47.999Z</time></trkpt><trkpt lat="45.459195763072884" lon="9.252367616683191"><ele>114.0</ele><time>2026-04-09T19:07:48.999Z</time></trkpt><trkpt lat="45.459410758251714" lon="9.252391784245047"><ele>114.0</ele><time>2026-04-09T19:07:49.999Z</time></trkpt><trkpt lat="45.45961984191286" lon="9.252417917422573"><ele>113.33333333333334</ele><time>2026-04-09T19:07:50.999Z</time></trkpt><trkpt lat="45.45982093182685" lon="9.252441698796378"><ele>112.66666666666667</ele><time>2026-04-09T19:07:51.999Z</time></trkpt><trkpt lat="45.46002343595261" lon="9.25245925594934"><ele>112.0</ele><time>2026-04-09T19:07:52.999Z</time></trkpt><trkpt lat="45.46023147632689" lon="9.252476702005792"><ele>112.0</ele><time>2026-04-09T19:07:53.999Z</time></trkpt><trkpt lat="45.46043427503383" lon="9.252484184958949"><ele>112.0</ele><time>2026-04-09T19:07:54.999Z</time></trkpt><trkpt lat="45.46063835052691" lon="9.252488139728612"><ele>112.0</ele><time>2026-04-09T19:07:55.998Z</time></trkpt><trkpt lat="45.46083844744794" lon="9.252483333277347"><ele>111.66666666666667</ele><time>2026-04-09T19:07:57Z</time></trkpt><trkpt lat="45.46103367028731" lon="9.25247843535267"><ele>111.33333333333334</ele><time>2026-04-09T19:07:58Z</time></trkpt><trkpt lat="45.46121101288537" lon="9.252460847456383"><ele>111.0</ele><time>2026-04-09T19:07:59Z</time></trkpt><trkpt lat="45.46137869132164" lon="9.252447951949184"><ele>112.33333333333334</ele><time>2026-04-09T19:08:00Z</time></trkpt><trkpt lat="45.461545999398716" lon="9.25244121132945"><ele>113.66666666666667</ele><time>2026-04-09T19:08:01Z</time></trkpt><trkpt lat="45.46171556723331" lon="9.25243385029339"><ele>115.0</ele><time>2026-04-09T19:08:02Z</time></trkpt><trkpt lat="45.461890031012" lon="9.252425798490094"><ele>115.0</ele><time>2026-04-09T19:08:03Z</time></trkpt><trkpt lat="45.4620639210314" lon="9.252417311541667"><ele>115.0</ele><time>2026-04-09T19:08:04Z</time></trkpt><trkpt lat="45.46222304274959" lon="9.252408854776224"><ele>115.0</ele><time>2026-04-09T19:08:05Z</time></trkpt><trkpt lat="45.46236877710057" lon="9.252386895029938"><ele>115.33333333333334</ele><time>2026-04-09T19:08:06Z</time></trkpt><trkpt lat="45.46252867962138" lon="9.25234452101286"><ele>115.66666666666666</ele><time>2026-04-09T19:08:07Z</time></trkpt><trkpt lat="45.462697000007275" lon="9.252267136568106"><ele>116.0</ele><time>2026-04-09T19:08:08Z</time></trkpt><trkpt lat="45.4628608115883" lon="9.252171431484927"><ele>113.33333333333333</ele><time>2026-04-09T19:08:09Z</time></trkpt><trkpt lat="45.46301131422054" lon="9.252057550284814"><ele>110.66666666666666</ele><time>2026-04-09T19:08:10Z</time></trkpt><trkpt lat="45.46314545604472" lon="9.251917169651787"><ele>108.0</ele><time>2026-04-09T19:08:11Z</time></trkpt><trkpt lat="45.463268672187745" lon="9.251755446504452"><ele>108.0</ele><time>2026-04-09T19:08:12Z</time></trkpt><trkpt lat="45.46337752333396" lon="9.251569571346796"><ele>108.0</ele><time>2026-04-09T19:08:13Z</time></trkpt><trkpt lat="45.4634638309956" lon="9.251360156174098"><ele>108.0</ele><time>2026-04-09T19:08:14Z</time></trkpt><trkpt lat="45.463545417282695" lon="9.251132566280384"><ele>110.33333333333334</ele><time>2026-04-09T19:08:15Z</time></trkpt><trkpt lat="45.46360721610409" lon="9.250889435761437"><ele>112.66666666666667</ele><time>2026-04-09T19:08:16Z</time></trkpt><trkpt lat="45.4636413707229" lon="9.250664583831723"><ele>115.0</ele><time>2026-04-09T19:08:17Z</time></trkpt><trkpt lat="45.46366279851033" lon="9.250452206489774"><ele>115.66666666666667</ele><time>2026-04-09T19:08:18Z</time></trkpt><trkpt lat="45.46368302603529" lon="9.250197626564537"><ele>116.33333333333334</ele><time>2026-04-09T19:08:19Z</time></trkpt><trkpt lat="45.46361018774028" lon="9.249962808678786"><ele>117.0</ele><time>2026-04-09T19:08:20Z</time></trkpt><trkpt lat="45.46355452213432" lon="9.249721525607805"><ele>114.33333333333334</ele><time>2026-04-09T19:08:21Z</time></trkpt><trkpt lat="45.463484957630456" lon="9.24949127244272"><ele>111.66666666666667</ele><time>2026-04-09T19:08:22Z</time></trkpt><trkpt lat="45.46339263437021" lon="9.249272242971339"><ele>109.0</ele><time>2026-04-09T19:08:23Z</time></trkpt><trkpt lat="45.46327065536142" lon="9.249070453078861"><ele>109.0</ele><time>2026-04-09T19:08:24Z</time></trkpt><trkpt lat="45.463139088311245" lon="9.24888057216539"><ele>109.0</ele><time>2026-04-09T19:08:25Z</time></trkpt><trkpt lat="45.462983828051755" lon="9.248730790830596"><ele>109.0</ele><time>2026-04-09T19:08:26Z</time></trkpt><trkpt lat="45.46283696985956" lon="9.24860981908799"><ele>109.75</ele><time>2026-04-09T19:08:27Z</time></trkpt><trkpt lat="45.46269642655125" lon="9.24849511037909"><ele>110.5</ele><time>2026-04-09T19:08:28Z</time></trkpt><trkpt lat="45.4625731271401" lon="9.248390726378677"><ele>111.25</ele><time>2026-04-09T19:08:29Z</time></trkpt><trkpt lat="45.462451229301706" lon="9.24831433984344"><ele>112.0</ele><time>2026-04-09T19:08:30Z</time></trkpt><trkpt lat="45.46234627017128" lon="9.248245388235278"><ele>112.0</ele><time>2026-04-09T19:08:31Z</time></trkpt><trkpt lat="45.46225018584168" lon="9.248165031664502"><ele>112.0</ele><time>2026-04-09T19:08:32Z</time></trkpt><trkpt lat="45.46217375627607" lon="9.248047789167936"><ele>112.0</ele><time>2026-04-09T19:08:33Z</time></trkpt><trkpt lat="45.462107668355856" lon="9.24789036980448"><ele>112.0</ele><time>2026-04-09T19:08:34Z</time></trkpt><trkpt lat="45.46207809835768" lon="9.24771829385985"><ele>111.66666666666667</ele><time>2026-04-09T19:08:35Z</time></trkpt><trkpt lat="45.46207766816739" lon="9.247520031888163"><ele>111.33333333333334</ele><time>2026-04-09T19:08:36Z</time></trkpt><trkpt lat="45.462080676581614" lon="9.247305108209956"><ele>111.0</ele><time>2026-04-09T19:08:37Z</time></trkpt><trkpt lat="45.462081459815415" lon="9.247070208385113"><ele>110.66666666666666</ele><time>2026-04-09T19:08:38Z</time></trkpt><trkpt lat="45.46207823383233" lon="9.24683889864742"><ele>110.33333333333333</ele><time>2026-04-09T19:08:39Z</time></trkpt><trkpt lat="45.462075360374726" lon="9.246595593830163"><ele>110.0</ele><time>2026-04-09T19:08:40Z</time></trkpt><trkpt lat="45.46207365004682" lon="9.246348180199902"><ele>110.0</ele><time>2026-04-09T19:08:41Z</time></trkpt><trkpt lat="45.46206654127073" lon="9.246085364807968"><ele>110.0</ele><time>2026-04-09T19:08:42Z</time></trkpt><trkpt lat="45.46206182085359" lon="9.245821503370523"><ele>110.0</ele><time>2026-04-09T19:08:43Z</time></trkpt><trkpt lat="45.46205677893597" lon="9.245564415700278"><ele>111.0</ele><time>2026-04-09T19:08:44Z</time></trkpt><trkpt lat="45.46205694934016" lon="9.245317411565155"><ele>112.0</ele><time>2026-04-09T19:08:45Z</time></trkpt><trkpt lat="45.462056559011295" lon="9.245080407579252"><ele>113.0</ele><time>2026-04-09T19:08:46Z</time></trkpt><trkpt lat="45.46205808244033" lon="9.24484616235285"><ele>113.0</ele><time>2026-04-09T19:08:47Z</time></trkpt><trkpt lat="45.46206012289991" lon="9.244609869292995"><ele>113.0</ele><time>2026-04-09T19:08:48Z</time></trkpt><trkpt lat="45.462066024414064" lon="9.244385599354567"><ele>113.0</ele><time>2026-04-09T19:08:48.999Z</time></trkpt><trkpt lat="45.46206739972949" lon="9.244160469646724"><ele>113.33333333333333</ele><time>2026-04-09T19:08:49.999Z</time></trkpt><trkpt lat="45.462069357549595" lon="9.243933143340694"><ele>113.66666666666666</ele><time>2026-04-09T19:08:50.999Z</time></trkpt><trkpt lat="45.46207320378951" lon="9.243712410337194"><ele>114.0</ele><time>2026-04-09T19:08:51.999Z</time></trkpt><trkpt lat="45.46207643484407" lon="9.243500056589872"><ele>114.0</ele><time>2026-04-09T19:08:52.999Z</time></trkpt><trkpt lat="45.46207870201167" lon="9.243282728714407"><ele>114.0</ele><time>2026-04-09T19:08:53.999Z</time></trkpt><trkpt lat="45.462082430319974" lon="9.243065441856093"><ele>114.0</ele><time>2026-04-09T19:08:54.999Z</time></trkpt><trkpt lat="45.46208426867037" lon="9.242844391813206"><ele>113.33333333333334</ele><time>2026-04-09T19:08:55.999Z</time></trkpt><trkpt lat="45.46208689986702" lon="9.242624383519953"><ele>112.66666666666667</ele><time>2026-04-09T19:08:56.999Z</time></trkpt><trkpt lat="45.46208830084125" lon="9.242399877395455"><ele>112.0</ele><time>2026-04-09T19:08:57.999Z</time></trkpt><trkpt lat="45.462090845742594" lon="9.24217898123035"><ele>112.0</ele><time>2026-04-09T19:08:58.999Z</time></trkpt><trkpt lat="45.462091901609305" lon="9.241960288004654"><ele>112.0</ele><time>2026-04-09T19:08:59.999Z</time></trkpt><trkpt lat="45.46209560345495" lon="9.24174139262743"><ele>112.0</ele><time>2026-04-09T19:09:00.999Z</time></trkpt><trkpt lat="45.462098189278024" lon="9.241537902020761"><ele>112.25</ele><time>2026-04-09T19:09:01.999Z</time></trkpt><trkpt lat="45.4620995035754" lon="9.241347146375743"><ele>112.5</ele><time>2026-04-09T19:09:02.999Z</time></trkpt><trkpt lat="45.46210095952106" lon="9.241162078328077"><ele>112.75</ele><time>2026-04-09T19:09:03.999Z</time></trkpt><trkpt lat="45.462100834589585" lon="9.24096427911774"><ele>113.0</ele><time>2026-04-09T19:09:04.999Z</time></trkpt><trkpt lat="45.46210054145284" lon="9.240767014895393"><ele>112.75</ele><time>2026-04-09T19:09:05.999Z</time></trkpt><trkpt lat="45.46210204406323" lon="9.240587602158111"><ele>112.5</ele><time>2026-04-09T19:09:06.999Z</time></trkpt><trkpt lat="45.462097297257124" lon="9.240420031707659"><ele>112.25</ele><time>2026-04-09T19:09:07.999Z</time></trkpt><trkpt lat="45.462094635866436" lon="9.240244887797814"><ele>112.0</ele><time>2026-04-09T19:09:08.999Z</time></trkpt><trkpt lat="45.462093520619845" lon="9.240071899558064"><ele>112.0</ele><time>2026-04-09T19:09:09.999Z</time></trkpt><trkpt lat="45.46209650587024" lon="9.239908164017397"><ele>111.99999999999999</ele><time>2026-04-09T19:09:10.999Z</time></trkpt><trkpt lat="45.462097541511085" lon="9.239749745408997"><ele>111.99999999999999</ele><time>2026-04-09T19:09:11.999Z</time></trkpt><trkpt lat="45.462098046230246" lon="9.239600355652247"><ele>112.0</ele><time>2026-04-09T19:09:12.999Z</time></trkpt><trkpt lat="45.462097615827666" lon="9.239457837929672"><ele>112.0</ele><time>2026-04-09T19:09:13.999Z</time></trkpt><trkpt lat="45.46209718722728" lon="9.239316423403706"><ele>112.16666666666667</ele><time>2026-04-09T19:09:14.999Z</time></trkpt><trkpt lat="45.46210157708337" lon="9.23917066670978"><ele>112.33333333333334</ele><time>2026-04-09T19:09:15.999Z</time></trkpt><trkpt lat="45.46210223375433" lon="9.239046416556409"><ele>112.5</ele><time>2026-04-09T19:09:16.999Z</time></trkpt><trkpt lat="45.462104315335374" lon="9.238944477284592"><ele>112.66666666666666</ele><time>2026-04-09T19:09:17.999Z</time></trkpt><trkpt lat="45.462111900141736" lon="9.238837398902572"><ele>112.83333333333333</ele><time>2026-04-09T19:09:18.999Z</time></trkpt><trkpt lat="45.46212458744528" lon="9.23870485517242"><ele>113.0</ele><time>2026-04-09T19:09:19.999Z</time></trkpt><trkpt lat="45.46213101102764" lon="9.23855443894234"><ele>113.0</ele><time>2026-04-09T19:09:20.999Z</time></trkpt><trkpt lat="45.46213111382233" lon="9.238390058842274"><ele>113.0</ele><time>2026-04-09T19:09:21.999Z</time></trkpt><trkpt lat="45.46212884335709" lon="9.238220776359572"><ele>113.0</ele><time>2026-04-09T19:09:22.999Z</time></trkpt><trkpt lat="45.46212050458539" lon="9.238039066930423"><ele>113.0</ele><time>2026-04-09T19:09:23.999Z</time></trkpt><trkpt lat="45.46211464137909" lon="9.237842700559973"><ele>113.0</ele><time>2026-04-09T19:09:24.999Z</time></trkpt><trkpt lat="45.46210846479187" lon="9.237664312452251"><ele>113.00000000000001</ele><time>2026-04-09T19:09:25.999Z</time></trkpt><trkpt lat="45.462130979274434" lon="9.237515744879207"><ele>113.00000000000001</ele><time>2026-04-09T19:09:26.999Z</time></trkpt><trkpt lat="45.462162024043266" lon="9.237374423716417"><ele>113.0</ele><time>2026-04-09T19:09:27.999Z</time></trkpt><trkpt lat="45.462194165638316" lon="9.237219814018685"><ele>113.0</ele><time>2026-04-09T19:09:29.021Z</time></trkpt><trkpt lat="45.46222792988743" lon="9.237080335657616"><ele>112.5</ele><time>2026-04-09T19:09:30.023Z</time></trkpt><trkpt lat="45.46226049916025" lon="9.236947435142643"><ele>112.0</ele><time>2026-04-09T19:09:30.999Z</time></trkpt><trkpt lat="45.46217770237865" lon="9.23677636327662"><ele>111.5</ele><time>2026-04-09T19:09:31.999Z</time></trkpt><trkpt lat="45.462167295803454" lon="9.236621985724671"><ele>111.0</ele><time>2026-04-09T19:09:32.999Z</time></trkpt><trkpt lat="45.46216754114899" lon="9.236483386810313"><ele>111.5</ele><time>2026-04-09T19:09:33.999Z</time></trkpt><trkpt lat="45.462167637340734" lon="9.236350027976412"><ele>112.0</ele><time>2026-04-09T19:09:34.999Z</time></trkpt><trkpt lat="45.46216769505326" lon="9.236218979142546"><ele>112.5</ele><time>2026-04-09T19:09:35.999Z</time></trkpt><trkpt lat="45.46216832664286" lon="9.236094058418447"><ele>113.0</ele><time>2026-04-09T19:09:36.999Z</time></trkpt><trkpt lat="45.46217081654392" lon="9.23598060657008"><ele>113.5</ele><time>2026-04-09T19:09:37.999Z</time></trkpt><trkpt lat="45.462173095966385" lon="9.23588502068075"><ele>114.0</ele><time>2026-04-09T19:09:38.999Z</time></trkpt><trkpt lat="45.46217641939464" lon="9.235745688724757"><ele>114.0</ele><time>2026-04-09T19:09:40.999Z</time></trkpt><trkpt lat="45.462191088827836" lon="9.23564309717311"><ele>114.0</ele><time>2026-04-09T19:09:42.999Z</time></trkpt><trkpt lat="45.4621779576331" lon="9.235531734985928"><ele>114.0</ele><time>2026-04-09T19:09:44.999Z</time></trkpt><trkpt lat="45.46217813816161" lon="9.235434140893071"><ele>114.0</ele><time>2026-04-09T19:09:46.999Z</time></trkpt><trkpt lat="45.462228875035926" lon="9.235362527978456"><ele>114.0</ele><time>2026-04-09T19:09:47.999Z</time></trkpt><trkpt lat="45.462309210436096" lon="9.235259567454687"><ele>114.0</ele><time>2026-04-09T19:09:49.999Z</time></trkpt><trkpt lat="45.46238775839489" lon="9.235160304676977"><ele>114.33333333333333</ele><time>2026-04-09T19:09:51.999Z</time></trkpt><trkpt lat="45.46247139896032" lon="9.23518672900196"><ele>114.66666666666666</ele><time>2026-04-09T19:09:52.999Z</time></trkpt><trkpt lat="45.46253964287588" lon="9.235196011755496"><ele>115.0</ele><time>2026-04-09T19:09:53.999Z</time></trkpt><trkpt lat="45.46261671932364" lon="9.235189435140368"><ele>115.33333333333333</ele><time>2026-04-09T19:09:54.999Z</time></trkpt><trkpt lat="45.46269425028998" lon="9.235179418525115"><ele>115.66666666666666</ele><time>2026-04-09T19:09:55.999Z</time></trkpt><trkpt lat="45.462777469548705" lon="9.23519247128775"><ele>116.0</ele><time>2026-04-09T19:09:56.999Z</time></trkpt><trkpt lat="45.462862390162364" lon="9.235199894060667"><ele>115.99999999999999</ele><time>2026-04-09T19:09:57.999Z</time></trkpt><trkpt lat="45.46294566943063" lon="9.235198050758944"><ele>116.0</ele><time>2026-04-09T19:09:58.999Z</time></trkpt><trkpt lat="45.463024910222096" lon="9.235194899127864"><ele>116.0</ele><time>2026-04-09T19:09:59.999Z</time></trkpt><trkpt lat="45.463111428485384" lon="9.235196022216181"><ele>116.0</ele><time>2026-04-09T19:10:00.999Z</time></trkpt><trkpt lat="45.46319752708421" lon="9.235198010848196"><ele>115.99999999999999</ele><time>2026-04-09T19:10:01.999Z</time></trkpt><trkpt lat="45.46329765383964" lon="9.2351923150576"><ele>116.0</ele><time>2026-04-09T19:10:03Z</time></trkpt><trkpt lat="45.46338700760458" lon="9.235189164587648"><ele>116.0</ele><time>2026-04-09T19:10:04Z</time></trkpt><trkpt lat="45.46347565422654" lon="9.235188759058977"><ele>116.0</ele><time>2026-04-09T19:10:05Z</time></trkpt><trkpt lat="45.463579123647534" lon="9.23518268815906"><ele>116.0</ele><time>2026-04-09T19:10:06Z</time></trkpt><trkpt lat="45.463692722586345" lon="9.235178310009116"><ele>116.0</ele><time>2026-04-09T19:10:07Z</time></trkpt><trkpt lat="45.463804785703694" lon="9.235178902416513"><ele>116.0</ele><time>2026-04-09T19:10:08Z</time></trkpt><trkpt lat="45.46391780598449" lon="9.235165724438405"><ele>116.0</ele><time>2026-04-09T19:10:09Z</time></trkpt><trkpt lat="45.46402984032293" lon="9.235155309037935"><ele>116.0</ele><time>2026-04-09T19:10:10Z</time></trkpt><trkpt lat="45.46413840385607" lon="9.235144967813605"><ele>116.0</ele><time>2026-04-09T19:10:11Z</time></trkpt><trkpt lat="45.46424772016247" lon="9.235141566128412"><ele>116.0</ele><time>2026-04-09T19:10:12Z</time></trkpt><trkpt lat="45.46435145607106" lon="9.23513966415286"><ele>116.0</ele><time>2026-04-09T19:10:13Z</time></trkpt><trkpt lat="45.464457344039296" lon="9.235140628358382"><ele>116.0</ele><time>2026-04-09T19:10:14Z</time></trkpt><trkpt lat="45.46456870946322" lon="9.235140206760862"><ele>116.0</ele><time>2026-04-09T19:10:15Z</time></trkpt><trkpt lat="45.46467073687495" lon="9.235142847371893"><ele>116.0</ele><time>2026-04-09T19:10:16Z</time></trkpt><trkpt lat="45.46478021953102" lon="9.235162521472324"><ele>116.0</ele><time>2026-04-09T19:10:17Z</time></trkpt><trkpt lat="45.46489355567146" lon="9.235169080478844"><ele>116.0</ele><time>2026-04-09T19:10:18Z</time></trkpt><trkpt lat="45.46501127755293" lon="9.235164386199845"><ele>116.0</ele><time>2026-04-09T19:10:19Z</time></trkpt><trkpt lat="45.46512434060149" lon="9.235162019381187"><ele>116.0</ele><time>2026-04-09T19:10:20Z</time></trkpt><trkpt lat="45.46523472018341" lon="9.235161565847138"><ele>116.0</ele><time>2026-04-09T19:10:21Z</time></trkpt><trkpt lat="45.4653377656564" lon="9.23515806236695"><ele>116.0</ele><time>2026-04-09T19:10:22Z</time></trkpt><trkpt lat="45.46544135401646" lon="9.235155375239612"><ele>116.0</ele><time>2026-04-09T19:10:23Z</time></trkpt><trkpt lat="45.46553810137974" lon="9.235156337703328"><ele>116.4</ele><time>2026-04-09T19:10:24Z</time></trkpt><trkpt lat="45.4656274340584" lon="9.235165669967204"><ele>116.8</ele><time>2026-04-09T19:10:25Z</time></trkpt><trkpt lat="45.46573140052328" lon="9.235158966597858"><ele>117.20000000000002</ele><time>2026-04-09T19:10:26Z</time></trkpt><trkpt lat="45.46583067854112" lon="9.23514257694803"><ele>117.60000000000001</ele><time>2026-04-09T19:10:27Z</time></trkpt><trkpt lat="45.465934609242474" lon="9.23512151584139"><ele>118.0</ele><time>2026-04-09T19:10:28Z</time></trkpt><trkpt lat="45.46603818816821" lon="9.235113523056837"><ele>118.0</ele><time>2026-04-09T19:10:29Z</time></trkpt><trkpt lat="45.466137624899154" lon="9.235114846155112"><ele>118.00000000000001</ele><time>2026-04-09T19:10:30Z</time></trkpt><trkpt lat="45.46623889373011" lon="9.235100105375862"><ele>118.00000000000001</ele><time>2026-04-09T19:10:31Z</time></trkpt><trkpt lat="45.46633371364068" lon="9.235106032798905"><ele>118.0</ele><time>2026-04-09T19:10:32Z</time></trkpt><trkpt lat="45.46642804203466" lon="9.23510540173493"><ele>118.0</ele><time>2026-04-09T19:10:33Z</time></trkpt><trkpt lat="45.46652164370512" lon="9.235112482766613"><ele>118.16666666666667</ele><time>2026-04-09T19:10:34Z</time></trkpt><trkpt lat="45.46661282761622" lon="9.235146847628705"><ele>118.33333333333334</ele><time>2026-04-09T19:10:35Z</time></trkpt><trkpt lat="45.466707769412665" lon="9.235175211484986"><ele>118.5</ele><time>2026-04-09T19:10:36Z</time></trkpt><trkpt lat="45.46679197006458" lon="9.235158108268745"><ele>118.66666666666666</ele><time>2026-04-09T19:10:37Z</time></trkpt><trkpt lat="45.46685783093756" lon="9.235134751668856"><ele>118.83333333333333</ele><time>2026-04-09T19:10:38Z</time></trkpt><trkpt lat="45.466933094880574" lon="9.235144372866438"><ele>119.0</ele><time>2026-04-09T19:10:39Z</time></trkpt><trkpt lat="45.46699406279325" lon="9.2349726774589"><ele>119.0</ele><time>2026-04-09T19:10:40Z</time></trkpt><trkpt lat="45.46705901653415" lon="9.234836445926318"><ele>119.0</ele><time>2026-04-09T19:10:41Z</time></trkpt><trkpt lat="45.46713416486425" lon="9.234685208890305"><ele>119.0</ele><time>2026-04-09T19:10:42Z</time></trkpt><trkpt lat="45.46721538062736" lon="9.234534069891664"><ele>119.0</ele><time>2026-04-09T19:10:43Z</time></trkpt><trkpt lat="45.46730293699791" lon="9.234363190829583"><ele>119.0</ele><time>2026-04-09T19:10:44Z</time></trkpt><trkpt lat="45.467397667710785" lon="9.234190932559109"><ele>119.0</ele><time>2026-04-09T19:10:45Z</time></trkpt><trkpt lat="45.46749147165654" lon="9.234024484233874"><ele>119.0</ele><time>2026-04-09T19:10:46Z</time></trkpt><trkpt lat="45.46758407393785" lon="9.233862406629669"><ele>119.2</ele><time>2026-04-09T19:10:47Z</time></trkpt><trkpt lat="45.46767193837545" lon="9.233700617940979"><ele>119.4</ele><time>2026-04-09T19:10:48Z</time></trkpt><trkpt lat="45.46774412415696" lon="9.233564469412281"><ele>119.6</ele><time>2026-04-09T19:10:49Z</time></trkpt><trkpt lat="45.46780558258159" lon="9.233448277724811"><ele>119.8</ele><time>2026-04-09T19:10:50Z</time></trkpt><trkpt lat="45.467851375540306" lon="9.23336076288706"><ele>120.0</ele><time>2026-04-09T19:10:51Z</time></trkpt><trkpt lat="45.467887665616296" lon="9.23327247459182"><ele>120.0</ele><time>2026-04-09T19:10:52Z</time></trkpt><trkpt lat="45.46790395111729" lon="9.233173135737305"><ele>120.0</ele><time>2026-04-09T19:10:53Z</time></trkpt><trkpt lat="45.467905745578406" lon="9.233063749537385"><ele>120.0</ele><time>2026-04-09T19:10:53.999Z</time></trkpt><trkpt lat="45.46789807593871" lon="9.23295728876008"><ele>120.0</ele><time>2026-04-09T19:10:54.999Z</time></trkpt><trkpt lat="45.46788584305814" lon="9.23286911196486"><ele>120.0</ele><time>2026-04-09T19:10:55.999Z</time></trkpt><trkpt lat="45.46790055590984" lon="9.232766076867977"><ele>120.0</ele><time>2026-04-09T19:10:57.999Z</time></trkpt><trkpt lat="45.467943083595635" lon="9.232667586747622"><ele>120.0</ele><time>2026-04-09T19:11:25.999Z</time></trkpt><trkpt lat="45.4679858625622" lon="9.232525942519537"><ele>119.5</ele><time>2026-04-09T19:11:27.999Z</time></trkpt><trkpt lat="45.468127214069476" lon="9.232521353533256"><ele>119.0</ele><time>2026-04-09T19:11:28.999Z</time></trkpt><trkpt lat="45.46822632543603" lon="9.232508712740806"><ele>118.5</ele><time>2026-04-09T19:11:30.999Z</time></trkpt><trkpt lat="45.46833960685227" lon="9.232510186287703"><ele>118.0</ele><time>2026-04-09T19:11:38.999Z</time></trkpt><trkpt lat="45.468433341291984" lon="9.232485069916532"><ele>118.4</ele><time>2026-04-09T19:11:40.999Z</time></trkpt><trkpt lat="45.468440346794225" lon="9.232290575280294"><ele>118.80000000000001</ele><time>2026-04-09T19:11:41.999Z</time></trkpt><trkpt lat="45.46843215286966" lon="9.23216705535608"><ele>119.2</ele><time>2026-04-09T19:11:42.999Z</time></trkpt><trkpt lat="45.46843435655114" lon="9.232018961301506"><ele>119.6</ele><time>2026-04-09T19:11:43.999Z</time></trkpt><trkpt lat="45.468429583476265" lon="9.231852006319109"><ele>120.0</ele><time>2026-04-09T19:11:44.999Z</time></trkpt><trkpt lat="45.46843049657457" lon="9.231685231796858"><ele>120.0</ele><time>2026-04-09T19:11:45.999Z</time></trkpt><trkpt lat="45.46842617413213" lon="9.231507361024805"><ele>120.0</ele><time>2026-04-09T19:11:46.999Z</time></trkpt><trkpt lat="45.46842186370007" lon="9.231325116233608"><ele>120.0</ele><time>2026-04-09T19:11:47.999Z</time></trkpt><trkpt lat="45.46842228804954" lon="9.231146480757852"><ele>120.0</ele><time>2026-04-09T19:11:48.999Z</time></trkpt><trkpt lat="45.46842553331153" lon="9.23097381897843"><ele>119.6</ele><time>2026-04-09T19:11:49.999Z</time></trkpt><trkpt lat="45.468433995852784" lon="9.230814185322055"><ele>119.2</ele><time>2026-04-09T19:11:50.999Z</time></trkpt><trkpt lat="45.46843845085521" lon="9.230647509095363"><ele>118.80000000000001</ele><time>2026-04-09T19:11:51.999Z</time></trkpt><trkpt lat="45.46843402729123" lon="9.230481841781106"><ele>118.4</ele><time>2026-04-09T19:11:52.999Z</time></trkpt><trkpt lat="45.46843332543874" lon="9.23036097166338"><ele>118.0</ele><time>2026-04-09T19:11:53.999Z</time></trkpt><trkpt lat="45.46844349712959" lon="9.230205410947304"><ele>117.75</ele><time>2026-04-09T19:11:55.999Z</time></trkpt><trkpt lat="45.468632235428814" lon="9.230181037292573"><ele>117.5</ele><time>2026-04-09T19:11:58.999Z</time></trkpt><trkpt lat="45.468733706465095" lon="9.23018950145532"><ele>117.25</ele><time>2026-04-09T19:11:59.999Z</time></trkpt><trkpt lat="45.46884601275582" lon="9.230186790387457"><ele>117.0</ele><time>2026-04-09T19:12:00.999Z</time></trkpt><trkpt lat="45.46895380727023" lon="9.230186520537371"><ele>117.75</ele><time>2026-04-09T19:12:01.999Z</time></trkpt><trkpt lat="45.46907943659005" lon="9.230180925941074"><ele>118.5</ele><time>2026-04-09T19:12:02.999Z</time></trkpt><trkpt lat="45.46920786642845" lon="9.230181914960973"><ele>119.25</ele><time>2026-04-09T19:12:03.999Z</time></trkpt><trkpt lat="45.46934005798651" lon="9.230189022650755"><ele>120.0</ele><time>2026-04-09T19:12:04.999Z</time></trkpt><trkpt lat="45.46947596577557" lon="9.230191071613392"><ele>121.25</ele><time>2026-04-09T19:12:05.999Z</time></trkpt><trkpt lat="45.4696106131628" lon="9.230189381662818"><ele>122.5</ele><time>2026-04-09T19:12:06.999Z</time></trkpt><trkpt lat="45.46973782452133" lon="9.230187842709864"><ele>123.75</ele><time>2026-04-09T19:12:07.999Z</time></trkpt><trkpt lat="45.46987160521844" lon="9.230184171314257"><ele>125.0</ele><time>2026-04-09T19:12:09Z</time></trkpt><trkpt lat="45.47000807377798" lon="9.23018249232241"><ele>125.0</ele><time>2026-04-09T19:12:10Z</time></trkpt><trkpt lat="45.47013455628017" lon="9.230191460459224"><ele>125.0</ele><time>2026-04-09T19:12:11Z</time></trkpt><trkpt lat="45.470247696616326" lon="9.23018902298074"><ele>125.0</ele><time>2026-04-09T19:12:12Z</time></trkpt><trkpt lat="45.47034999867016" lon="9.230180432444191"><ele>125.0</ele><time>2026-04-09T19:12:13Z</time></trkpt><trkpt lat="45.47044130918933" lon="9.230183749378748"><ele>125.0</ele><time>2026-04-09T19:12:14Z</time></trkpt><trkpt lat="45.47052254981119" lon="9.23018779274031"><ele>125.0</ele><time>2026-04-09T19:12:15Z</time></trkpt><trkpt lat="45.470591848718236" lon="9.23018593150683"><ele>125.0</ele><time>2026-04-09T19:12:16Z</time></trkpt><trkpt lat="45.47069156570772" lon="9.23019783132812"><ele>125.0</ele><time>2026-04-09T19:12:18Z</time></trkpt><trkpt lat="45.470751989409116" lon="9.230170087780571"><ele>125.0</ele><time>2026-04-09T19:12:40Z</time></trkpt><trkpt lat="45.470880667607965" lon="9.23017585840404"><ele>125.0</ele><time>2026-04-09T19:12:42Z</time></trkpt><trkpt lat="45.47097466453575" lon="9.230164428983489"><ele>125.0</ele><time>2026-04-09T19:12:43Z</time></trkpt><trkpt lat="45.47109878608221" lon="9.230160363439152"><ele>125.0</ele><time>2026-04-09T19:12:44Z</time></trkpt><trkpt lat="45.47125087221189" lon="9.230134297077024"><ele>125.0</ele><time>2026-04-09T19:12:45Z</time></trkpt><trkpt lat="45.471396987760386" lon="9.230140687211835"><ele>125.0</ele><time>2026-04-09T19:12:46Z</time></trkpt><trkpt lat="45.47152113311349" lon="9.230119805371816"><ele>125.75</ele><time>2026-04-09T19:12:47Z</time></trkpt><trkpt lat="45.47165697440172" lon="9.230151339397764"><ele>126.5</ele><time>2026-04-09T19:12:48Z</time></trkpt><trkpt lat="45.47179194996065" lon="9.230165918895002"><ele>127.25</ele><time>2026-04-09T19:12:49Z</time></trkpt><trkpt lat="45.471923481912576" lon="9.230172080970481"><ele>128.0</ele><time>2026-04-09T19:12:50Z</time></trkpt><trkpt lat="45.47204303622958" lon="9.230162291179754"><ele>127.60000000000001</ele><time>2026-04-09T19:12:51Z</time></trkpt><trkpt lat="45.47216223910236" lon="9.230150425977866"><ele>127.20000000000002</ele><time>2026-04-09T19:12:52Z</time></trkpt><trkpt lat="45.47226422137853" lon="9.23014929631475"><ele>126.8</ele><time>2026-04-09T19:12:53Z</time></trkpt><trkpt lat="45.472365223460784" lon="9.230116613836817"><ele>126.4</ele><time>2026-04-09T19:12:54Z</time></trkpt><trkpt lat="45.47244441974576" lon="9.230159574513468"><ele>126.0</ele><time>2026-04-09T19:12:55Z</time></trkpt><trkpt lat="45.47252787030034" lon="9.230240765352624"><ele>126.0</ele><time>2026-04-09T19:12:56Z</time></trkpt><trkpt lat="45.472631405656514" lon="9.2303607699779"><ele>126.0</ele><time>2026-04-09T19:12:57Z</time></trkpt><trkpt lat="45.47271744479102" lon="9.230433118939223"><ele>126.0</ele><time>2026-04-09T19:12:59Z</time></trkpt><trkpt lat="45.472831580391336" lon="9.230440234784703"><ele>126.0</ele><time>2026-04-09T19:12:59.999Z</time></trkpt><trkpt lat="45.47292104872724" lon="9.23042147464591"><ele>126.0</ele><time>2026-04-09T19:13:00.999Z</time></trkpt><trkpt lat="45.47301164086327" lon="9.230405347478312"><ele>126.0</ele><time>2026-04-09T19:13:01.999Z</time></trkpt><trkpt lat="45.47310791149081" lon="9.230410822248722"><ele>126.0</ele><time>2026-04-09T19:13:02.999Z</time></trkpt><trkpt lat="45.47318744693071" lon="9.23040547954307"><ele>126.0</ele><time>2026-04-09T19:13:03.999Z</time></trkpt><trkpt lat="45.473266670927075" lon="9.230406413060235"><ele>126.0</ele><time>2026-04-09T19:13:04.999Z</time></trkpt><trkpt lat="45.47336896511666" lon="9.230396245114363"><ele>126.0</ele><time>2026-04-09T19:13:05.999Z</time></trkpt><trkpt lat="45.47345927882125" lon="9.230391209084384"><ele>126.0</ele><time>2026-04-09T19:13:06.999Z</time></trkpt><trkpt lat="45.473544287106066" lon="9.2303866124067"><ele>126.0</ele><time>2026-04-09T19:13:07.999Z</time></trkpt><trkpt lat="45.47362336203656" lon="9.230359850894457"><ele>126.0</ele><time>2026-04-09T19:13:08.999Z</time></trkpt><trkpt lat="45.47367612390343" lon="9.230291584544466"><ele>126.0</ele><time>2026-04-09T19:13:09.999Z</time></trkpt><trkpt lat="45.47371164042204" lon="9.230193662871148"><ele>126.0</ele><time>2026-04-09T19:13:10.999Z</time></trkpt><trkpt lat="45.473700835564365" lon="9.230084802271517"><ele>126.0</ele><time>2026-04-09T19:13:11.999Z</time></trkpt><trkpt lat="45.47368607870678" lon="9.229909232095977"><ele>126.0</ele><time>2026-04-09T19:13:13.999Z</time></trkpt><trkpt lat="45.473637820086104" lon="9.229829824133866"><ele>126.0</ele><time>2026-04-09T19:13:14.999Z</time></trkpt><trkpt lat="45.47356157943652" lon="9.229751168183297"><ele>127.0</ele><time>2026-04-09T19:13:15.999Z</time></trkpt><trkpt lat="45.473491182141345" lon="9.229724454305968"><ele>127.0</ele><time>2026-04-09T19:13:16.999Z</time></trkpt><trkpt lat="45.47346451170459" lon="9.229540875821296"><ele>127.0</ele><time>2026-04-09T19:13:18.999Z</time></trkpt><trkpt lat="45.473477179513914" lon="9.22944499667239"><ele>127.0</ele><time>2026-04-09T19:13:24.999Z</time></trkpt></trkseg></trk></gpx>